<?xml version='1.0' encoding='UTF-8'?><gpx version="1.1" creator="JPX - https://github.com/jenetics/jpx" xmlns="http://www.topografix.com/GPX/1/1"><trk><trkseg><trkpt lat="43.0795864" lon="12.5016625"><ele>197.00000000000003</ele><time>2026-03-28T14:12:12.327Z</time></trkpt><trkpt lat="43.0795366" lon="12.5017638"><ele>197.0</ele><time>2026-03-28T14:12:13.327Z</time></trkpt><trkpt lat="43.0794842" lon="12.5018495"><ele>197.0</ele><time>2026-03-28T14:12:14.328Z</time></trkpt><trkpt lat="43.0794354" lon="12.5019309"><ele>197.0</ele><time>2026-03-28T14:12:15.328Z</time></trkpt><trkpt lat="43.0793853" lon="12.5020138"><ele>197.00000000000003</ele><time>2026-03-28T14:12:16.328Z</time></trkpt><trkpt lat="43.0793326" lon="12.5021018"><ele>197.0</ele><time>2026-03-28T14:12:17.328Z</time></trkpt><trkpt lat="43.0792766" lon="12.5021957"><ele>197.39999999999998</ele><time>2026-03-28T14:12:18.328Z</time></trkpt><trkpt lat="43.0792192" lon="12.5022898"><ele>197.79999999999998</ele><time>2026-03-28T14:12:19.328Z</time></trkpt><trkpt lat="43.0791605" lon="12.5023839"><ele>198.2</ele><time>2026-03-28T14:12:20.328Z</time></trkpt><trkpt lat="43.0791004" lon="12.5024808"><ele>198.6</ele><time>2026-03-28T14:12:21.328Z</time></trkpt><trkpt lat="43.0790407" lon="12.5025854"><ele>199.0</ele><time>2026-03-28T14:12:22.328Z</time></trkpt><trkpt lat="43.0789832" lon="12.5026972"><ele>199.0</ele><time>2026-03-28T14:12:23.328Z</time></trkpt><trkpt lat="43.0789318" lon="12.5028162"><ele>199.0</ele><time>2026-03-28T14:12:24.327Z</time></trkpt><trkpt lat="43.0788834" lon="12.5029367"><ele>199.0</ele><time>2026-03-28T14:12:25.328Z</time></trkpt><trkpt lat="43.0788471" lon="12.5030658"><ele>199.0</ele><time>2026-03-28T14:12:26.328Z</time></trkpt><trkpt lat="43.0788241" lon="12.5032044"><ele>199.0</ele><time>2026-03-28T14:12:27.328Z</time></trkpt><trkpt lat="43.0788153" lon="12.5033491"><ele>199.0</ele><time>2026-03-28T14:12:28.328Z</time></trkpt><trkpt lat="43.0788259" lon="12.5034931"><ele>199.0</ele><time>2026-03-28T14:12:29.328Z</time></trkpt><trkpt lat="43.0788403" lon="12.5036329"><ele>199.0</ele><time>2026-03-28T14:12:30.327Z</time></trkpt><trkpt lat="43.0788611" lon="12.5037775"><ele>199.0</ele><time>2026-03-28T14:12:31.328Z</time></trkpt><trkpt lat="43.0788935" lon="12.503928"><ele>199.0</ele><time>2026-03-28T14:12:32.328Z</time></trkpt><trkpt lat="43.0789317" lon="12.5040766"><ele>199.0</ele><time>2026-03-28T14:12:33.327Z</time></trkpt><trkpt lat="43.0789671" lon="12.5042178"><ele>199.0</ele><time>2026-03-28T14:12:34.328Z</time></trkpt><trkpt lat="43.079003" lon="12.5043583"><ele>199.0</ele><time>2026-03-28T14:12:35.327Z</time></trkpt><trkpt lat="43.0790348" lon="12.504497"><ele>199.0</ele><time>2026-03-28T14:12:36.328Z</time></trkpt><trkpt lat="43.0790571" lon="12.5046434"><ele>199.0</ele><time>2026-03-28T14:12:37.328Z</time></trkpt><trkpt lat="43.0790734" lon="12.504784"><ele>199.0</ele><time>2026-03-28T14:12:38.328Z</time></trkpt><trkpt lat="43.0790838" lon="12.5049233"><ele>199.0</ele><time>2026-03-28T14:12:39.328Z</time></trkpt><trkpt lat="43.0790896" lon="12.505049"><ele>199.0</ele><time>2026-03-28T14:12:40.328Z</time></trkpt><trkpt lat="43.0790903" lon="12.5051578"><ele>199.0</ele><time>2026-03-28T14:12:41.328Z</time></trkpt><trkpt lat="43.0790866" lon="12.5052517"><ele>199.0</ele><time>2026-03-28T14:12:42.328Z</time></trkpt><trkpt lat="43.079086" lon="12.5054092"><ele>198.79999999999998</ele><time>2026-03-28T14:12:44.328Z</time></trkpt><trkpt lat="43.0790836" lon="12.5055548"><ele>198.6</ele><time>2026-03-28T14:12:46.328Z</time></trkpt><trkpt lat="43.0790819" lon="12.5057263"><ele>198.4</ele><time>2026-03-28T14:12:48.328Z</time></trkpt><trkpt lat="43.0790805" lon="12.5058261"><ele>198.2</ele><time>2026-03-28T14:12:49.328Z</time></trkpt><trkpt lat="43.0790746" lon="12.5059371"><ele>198.0</ele><time>2026-03-28T14:12:50.328Z</time></trkpt><trkpt lat="43.0790686" lon="12.5060655"><ele>198.0</ele><time>2026-03-28T14:12:51.328Z</time></trkpt><trkpt lat="43.0790604" lon="12.5062054"><ele>198.0</ele><time>2026-03-28T14:12:52.328Z</time></trkpt><trkpt lat="43.0790522" lon="12.5063539"><ele>198.0</ele><time>2026-03-28T14:12:53.328Z</time></trkpt><trkpt lat="43.0790442" lon="12.5064941"><ele>198.0</ele><time>2026-03-28T14:12:54.328Z</time></trkpt><trkpt lat="43.0790389" lon="12.5066242"><ele>198.0</ele><time>2026-03-28T14:12:55.327Z</time></trkpt><trkpt lat="43.0790242" lon="12.5067676"><ele>197.75</ele><time>2026-03-28T14:12:56.328Z</time></trkpt><trkpt lat="43.0790161" lon="12.5069132"><ele>197.5</ele><time>2026-03-28T14:12:57.328Z</time></trkpt><trkpt lat="43.0790079" lon="12.5070713"><ele>197.25</ele><time>2026-03-28T14:12:58.328Z</time></trkpt><trkpt lat="43.0789991" lon="12.5072372"><ele>197.0</ele><time>2026-03-28T14:12:59.328Z</time></trkpt><trkpt lat="43.0789891" lon="12.5074141"><ele>197.0</ele><time>2026-03-28T14:13:00.328Z</time></trkpt><trkpt lat="43.0789815" lon="12.5075792"><ele>197.0</ele><time>2026-03-28T14:13:01.328Z</time></trkpt><trkpt lat="43.0789719" lon="12.5077438"><ele>197.0</ele><time>2026-03-28T14:13:02.328Z</time></trkpt><trkpt lat="43.0789621" lon="12.5079075"><ele>197.0</ele><time>2026-03-28T14:13:03.327Z</time></trkpt><trkpt lat="43.0789501" lon="12.5080782"><ele>197.25</ele><time>2026-03-28T14:13:04.327Z</time></trkpt><trkpt lat="43.0789416" lon="12.5082495"><ele>197.5</ele><time>2026-03-28T14:13:05.328Z</time></trkpt><trkpt lat="43.0789272" lon="12.5084183"><ele>197.75</ele><time>2026-03-28T14:13:06.328Z</time></trkpt><trkpt lat="43.0789159" lon="12.5085826"><ele>198.0</ele><time>2026-03-28T14:13:07.328Z</time></trkpt><trkpt lat="43.0789031" lon="12.5087293"><ele>197.66666666666666</ele><time>2026-03-28T14:13:08.327Z</time></trkpt><trkpt lat="43.0788798" lon="12.5088607"><ele>197.33333333333331</ele><time>2026-03-28T14:13:09.327Z</time></trkpt><trkpt lat="43.0788576" lon="12.5089787"><ele>197.0</ele><time>2026-03-28T14:13:10.328Z</time></trkpt><trkpt lat="43.0788259" lon="12.5090953"><ele>196.66666666666666</ele><time>2026-03-28T14:13:11.328Z</time></trkpt><trkpt lat="43.078779" lon="12.509191"><ele>196.33333333333331</ele><time>2026-03-28T14:13:12.328Z</time></trkpt><trkpt lat="43.0787179" lon="12.5092702"><ele>196.0</ele><time>2026-03-28T14:13:13.328Z</time></trkpt><trkpt lat="43.0786429" lon="12.509324"><ele>195.99999999999997</ele><time>2026-03-28T14:13:14.328Z</time></trkpt><trkpt lat="43.0785677" lon="12.5093747"><ele>196.0</ele><time>2026-03-28T14:13:15.328Z</time></trkpt><trkpt lat="43.0785051" lon="12.5094223"><ele>196.0</ele><time>2026-03-28T14:13:16.328Z</time></trkpt><trkpt lat="43.0784562" lon="12.5094815"><ele>196.0</ele><time>2026-03-28T14:13:17.328Z</time></trkpt><trkpt lat="43.0784027" lon="12.5096347"><ele>195.99999999999997</ele><time>2026-03-28T14:13:19.328Z</time></trkpt><trkpt lat="43.0784199" lon="12.5097262"><ele>196.0</ele><time>2026-03-28T14:13:20.327Z</time></trkpt><trkpt lat="43.0784605" lon="12.5098035"><ele>195.99999999999997</ele><time>2026-03-28T14:13:21.328Z</time></trkpt><trkpt lat="43.0785136" lon="12.5098681"><ele>196.0</ele><time>2026-03-28T14:13:22.328Z</time></trkpt><trkpt lat="43.0785791" lon="12.5099311"><ele>196.0</ele><time>2026-03-28T14:13:23.328Z</time></trkpt><trkpt lat="43.0786485" lon="12.5100067"><ele>196.0</ele><time>2026-03-28T14:13:24.327Z</time></trkpt><trkpt lat="43.0787043" lon="12.5101035"><ele>195.99999999999997</ele><time>2026-03-28T14:13:25.328Z</time></trkpt><trkpt lat="43.0787556" lon="12.5102171"><ele>196.0</ele><time>2026-03-28T14:13:26.328Z</time></trkpt><trkpt lat="43.0787807" lon="12.5103431"><ele>196.0</ele><time>2026-03-28T14:13:27.327Z</time></trkpt><trkpt lat="43.0787947" lon="12.5104828"><ele>196.0</ele><time>2026-03-28T14:13:28.327Z</time></trkpt><trkpt lat="43.0787945" lon="12.510621"><ele>196.0</ele><time>2026-03-28T14:13:29.328Z</time></trkpt><trkpt lat="43.0787877" lon="12.5107698"><ele>196.0</ele><time>2026-03-28T14:13:30.328Z</time></trkpt><trkpt lat="43.0787799" lon="12.5109257"><ele>196.0</ele><time>2026-03-28T14:13:31.328Z</time></trkpt><trkpt lat="43.0787767" lon="12.5110887"><ele>196.25</ele><time>2026-03-28T14:13:32.328Z</time></trkpt><trkpt lat="43.0787661" lon="12.511255"><ele>196.5</ele><time>2026-03-28T14:13:33.328Z</time></trkpt><trkpt lat="43.0787571" lon="12.5114243"><ele>196.75</ele><time>2026-03-28T14:13:34.328Z</time></trkpt><trkpt lat="43.0787511" lon="12.5115945"><ele>197.0</ele><time>2026-03-28T14:13:35.328Z</time></trkpt><trkpt lat="43.0787355" lon="12.5117659"><ele>197.0</ele><time>2026-03-28T14:13:36.328Z</time></trkpt><trkpt lat="43.0787233" lon="12.5119387"><ele>197.0</ele><time>2026-03-28T14:13:37.328Z</time></trkpt><trkpt lat="43.0787216" lon="12.5121176"><ele>197.0</ele><time>2026-03-28T14:13:38.328Z</time></trkpt><trkpt lat="43.0787145" lon="12.5122856"><ele>197.0</ele><time>2026-03-28T14:13:39.328Z</time></trkpt><trkpt lat="43.0787036" lon="12.5124613"><ele>197.0</ele><time>2026-03-28T14:13:40.328Z</time></trkpt><trkpt lat="43.0786914" lon="12.5126343"><ele>197.0</ele><time>2026-03-28T14:13:41.328Z</time></trkpt><trkpt lat="43.0786793" lon="12.512812"><ele>197.0</ele><time>2026-03-28T14:13:42.328Z</time></trkpt><trkpt lat="43.0786725" lon="12.5129815"><ele>197.0</ele><time>2026-03-28T14:13:43.328Z</time></trkpt><trkpt lat="43.0786725" lon="12.5131595"><ele>197.0</ele><time>2026-03-28T14:13:44.328Z</time></trkpt><trkpt lat="43.0786673" lon="12.5133302"><ele>197.0</ele><time>2026-03-28T14:13:45.328Z</time></trkpt><trkpt lat="43.0786607" lon="12.5135005"><ele>197.0</ele><time>2026-03-28T14:13:46.328Z</time></trkpt><trkpt lat="43.0786161" lon="12.5136378"><ele>197.0</ele><time>2026-03-28T14:13:47.328Z</time></trkpt><trkpt lat="43.0785653" lon="12.5137682"><ele>197.25</ele><time>2026-03-28T14:13:48.327Z</time></trkpt><trkpt lat="43.0784955" lon="12.513879"><ele>197.5</ele><time>2026-03-28T14:13:49.327Z</time></trkpt><trkpt lat="43.07841" lon="12.5139836"><ele>197.75</ele><time>2026-03-28T14:13:50.328Z</time></trkpt><trkpt lat="43.078311" lon="12.514083"><ele>198.0</ele><time>2026-03-28T14:13:51.328Z</time></trkpt><trkpt lat="43.078204" lon="12.5141523"><ele>198.0</ele><time>2026-03-28T14:13:52.328Z</time></trkpt><trkpt lat="43.0780853" lon="12.5141795"><ele>198.0</ele><time>2026-03-28T14:13:53.328Z</time></trkpt><trkpt lat="43.0779601" lon="12.5141829"><ele>198.0</ele><time>2026-03-28T14:13:54.328Z</time></trkpt><trkpt lat="43.0778325" lon="12.5141843"><ele>198.0</ele><time>2026-03-28T14:13:55.327Z</time></trkpt><trkpt lat="43.0777014" lon="12.5141731"><ele>198.0</ele><time>2026-03-28T14:13:56.327Z</time></trkpt><trkpt lat="43.0775763" lon="12.5141688"><ele>198.0</ele><time>2026-03-28T14:13:57.328Z</time></trkpt><trkpt lat="43.0774551" lon="12.5141404"><ele>198.0</ele><time>2026-03-28T14:13:58.328Z</time></trkpt><trkpt lat="43.0773329" lon="12.5141032"><ele>198.0</ele><time>2026-03-28T14:13:59.328Z</time></trkpt><trkpt lat="43.077201" lon="12.5140947"><ele>197.75</ele><time>2026-03-28T14:14:00.328Z</time></trkpt><trkpt lat="43.0770585" lon="12.5140903"><ele>197.5</ele><time>2026-03-28T14:14:01.327Z</time></trkpt><trkpt lat="43.076913" lon="12.5140837"><ele>197.25</ele><time>2026-03-28T14:14:02.328Z</time></trkpt><trkpt lat="43.0767634" lon="12.5140688"><ele>197.0</ele><time>2026-03-28T14:14:03.328Z</time></trkpt><trkpt lat="43.0766165" lon="12.514049"><ele>196.66666666666669</ele><time>2026-03-28T14:14:04.328Z</time></trkpt><trkpt lat="43.0764674" lon="12.5140286"><ele>196.33333333333331</ele><time>2026-03-28T14:14:05.328Z</time></trkpt><trkpt lat="43.0763188" lon="12.5139888"><ele>196.0</ele><time>2026-03-28T14:14:06.328Z</time></trkpt><trkpt lat="43.0761688" lon="12.5139538"><ele>196.0</ele><time>2026-03-28T14:14:07.328Z</time></trkpt><trkpt lat="43.0760185" lon="12.5138932"><ele>196.0</ele><time>2026-03-28T14:14:08.328Z</time></trkpt><trkpt lat="43.0758637" lon="12.5138389"><ele>196.0</ele><time>2026-03-28T14:14:09.327Z</time></trkpt><trkpt lat="43.0757061" lon="12.5137786"><ele>195.66666666666666</ele><time>2026-03-28T14:14:10.327Z</time></trkpt><trkpt lat="43.0755497" lon="12.5137225"><ele>195.33333333333331</ele><time>2026-03-28T14:14:11.327Z</time></trkpt><trkpt lat="43.0753975" lon="12.5136638"><ele>195.0</ele><time>2026-03-28T14:14:12.327Z</time></trkpt><trkpt lat="43.0752454" lon="12.5135977"><ele>195.0</ele><time>2026-03-28T14:14:13.328Z</time></trkpt><trkpt lat="43.0750916" lon="12.513551"><ele>195.0</ele><time>2026-03-28T14:14:14.328Z</time></trkpt><trkpt lat="43.0749277" lon="12.513505"><ele>195.0</ele><time>2026-03-28T14:14:15.328Z</time></trkpt><trkpt lat="43.0747701" lon="12.5134475"><ele>194.66666666666669</ele><time>2026-03-28T14:14:16.328Z</time></trkpt><trkpt lat="43.0746179" lon="12.5133933"><ele>194.33333333333334</ele><time>2026-03-28T14:14:17.328Z</time></trkpt><trkpt lat="43.0744513" lon="12.5133455"><ele>194.0</ele><time>2026-03-28T14:14:18.328Z</time></trkpt><trkpt lat="43.0742825" lon="12.5132918"><ele>194.0</ele><time>2026-03-28T14:14:19.328Z</time></trkpt><trkpt lat="43.074116" lon="12.513238"><ele>194.0</ele><time>2026-03-28T14:14:20.328Z</time></trkpt><trkpt lat="43.073956" lon="12.5131855"><ele>194.0</ele><time>2026-03-28T14:14:21.328Z</time></trkpt><trkpt lat="43.0737953" lon="12.5131279"><ele>194.0</ele><time>2026-03-28T14:14:22.328Z</time></trkpt><trkpt lat="43.0736348" lon="12.51307"><ele>194.0</ele><time>2026-03-28T14:14:23.328Z</time></trkpt><trkpt lat="43.0734705" lon="12.5130175"><ele>194.0</ele><time>2026-03-28T14:14:24.327Z</time></trkpt><trkpt lat="43.0733164" lon="12.5129366"><ele>193.66666666666669</ele><time>2026-03-28T14:14:25.328Z</time></trkpt><trkpt lat="43.0731506" lon="12.5128724"><ele>193.33333333333331</ele><time>2026-03-28T14:14:26.328Z</time></trkpt><trkpt lat="43.0729945" lon="12.5128119"><ele>193.0</ele><time>2026-03-28T14:14:27.327Z</time></trkpt><trkpt lat="43.0728427" lon="12.5127476"><ele>193.0</ele><time>2026-03-28T14:14:28.328Z</time></trkpt><trkpt lat="43.0726903" lon="12.5126854"><ele>193.0</ele><time>2026-03-28T14:14:29.328Z</time></trkpt><trkpt lat="43.0725365" lon="12.512624"><ele>193.0</ele><time>2026-03-28T14:14:30.327Z</time></trkpt><trkpt lat="43.072379" lon="12.5125676"><ele>193.33333333333331</ele><time>2026-03-28T14:14:31.328Z</time></trkpt><trkpt lat="43.0722121" lon="12.5125147"><ele>193.66666666666669</ele><time>2026-03-28T14:14:32.327Z</time></trkpt><trkpt lat="43.0720514" lon="12.5124743"><ele>194.0</ele><time>2026-03-28T14:14:33.328Z</time></trkpt><trkpt lat="43.071886" lon="12.5124226"><ele>194.0</ele><time>2026-03-28T14:14:34.328Z</time></trkpt><trkpt lat="43.0717203" lon="12.5123862"><ele>194.0</ele><time>2026-03-28T14:14:35.328Z</time></trkpt><trkpt lat="43.0715604" lon="12.5123433"><ele>194.0</ele><time>2026-03-28T14:14:36.328Z</time></trkpt><trkpt lat="43.0714015" lon="12.5123038"><ele>194.5</ele><time>2026-03-28T14:14:37.328Z</time></trkpt><trkpt lat="43.0712552" lon="12.512249"><ele>195.0</ele><time>2026-03-28T14:14:38.328Z</time></trkpt><trkpt lat="43.071117" lon="12.5121994"><ele>195.5</ele><time>2026-03-28T14:14:39.328Z</time></trkpt><trkpt lat="43.070981" lon="12.5121558"><ele>196.0</ele><time>2026-03-28T14:14:40.327Z</time></trkpt><trkpt lat="43.0708541" lon="12.5121095"><ele>195.60000000000002</ele><time>2026-03-28T14:14:41.327Z</time></trkpt><trkpt lat="43.0707355" lon="12.5120716"><ele>195.2</ele><time>2026-03-28T14:14:42.328Z</time></trkpt><trkpt lat="43.0706249" lon="12.5120369"><ele>194.8</ele><time>2026-03-28T14:14:43.328Z</time></trkpt><trkpt lat="43.0705386" lon="12.5119856"><ele>194.39999999999998</ele><time>2026-03-28T14:14:44.327Z</time></trkpt><trkpt lat="43.0704678" lon="12.5119293"><ele>194.0</ele><time>2026-03-28T14:14:45.327Z</time></trkpt><trkpt lat="43.0704239" lon="12.5118505"><ele>194.0</ele><time>2026-03-28T14:14:46.328Z</time></trkpt><trkpt lat="43.0703906" lon="12.5117763"><ele>194.0</ele><time>2026-03-28T14:14:47.328Z</time></trkpt><trkpt lat="43.0702825" lon="12.5117015"><ele>194.0</ele><time>2026-03-28T14:14:49.328Z</time></trkpt><trkpt lat="43.0701784" lon="12.5117391"><ele>194.0</ele><time>2026-03-28T14:14:51.328Z</time></trkpt><trkpt lat="43.070143" lon="12.5118836"><ele>194.0</ele><time>2026-03-28T14:14:53.328Z</time></trkpt><trkpt lat="43.0701881" lon="12.5120494"><ele>194.16666666666669</ele><time>2026-03-28T14:14:55.328Z</time></trkpt><trkpt lat="43.0702071" lon="12.5121454"><ele>194.33333333333334</ele><time>2026-03-28T14:14:56.328Z</time></trkpt><trkpt lat="43.0702238" lon="12.5122678"><ele>194.5</ele><time>2026-03-28T14:14:57.328Z</time></trkpt><trkpt lat="43.0702381" lon="12.5123862"><ele>194.66666666666669</ele><time>2026-03-28T14:14:58.328Z</time></trkpt><trkpt lat="43.0702533" lon="12.5125078"><ele>194.83333333333334</ele><time>2026-03-28T14:14:59.327Z</time></trkpt><trkpt lat="43.0702593" lon="12.5126187"><ele>195.0</ele><time>2026-03-28T14:15:00.328Z</time></trkpt><trkpt lat="43.0702622" lon="12.5127123"><ele>195.0</ele><time>2026-03-28T14:15:01.328Z</time></trkpt><trkpt lat="43.0702395" lon="12.5128376"><ele>195.0</ele><time>2026-03-28T14:15:03.327Z</time></trkpt><trkpt lat="43.0701371" lon="12.5128585"><ele>195.0</ele><time>2026-03-28T14:15:05.328Z</time></trkpt><trkpt lat="43.0700714" lon="12.5128283"><ele>195.0</ele><time>2026-03-28T14:15:06.328Z</time></trkpt><trkpt lat="43.0699946" lon="12.5127972"><ele>195.0</ele><time>2026-03-28T14:15:07.328Z</time></trkpt><trkpt lat="43.0699112" lon="12.5127624"><ele>195.0</ele><time>2026-03-28T14:15:08.328Z</time></trkpt><trkpt lat="43.0698163" lon="12.512719"><ele>195.0</ele><time>2026-03-28T14:15:09.328Z</time></trkpt><trkpt lat="43.0697193" lon="12.5126837"><ele>195.0</ele><time>2026-03-28T14:15:10.328Z</time></trkpt><trkpt lat="43.0696278" lon="12.5126505"><ele>195.0</ele><time>2026-03-28T14:15:11.328Z</time></trkpt><trkpt lat="43.069539" lon="12.512619"><ele>195.0</ele><time>2026-03-28T14:15:12.328Z</time></trkpt><trkpt lat="43.0694436" lon="12.5125835"><ele>195.0</ele><time>2026-03-28T14:15:13.328Z</time></trkpt><trkpt lat="43.0693483" lon="12.5125475"><ele>195.0</ele><time>2026-03-28T14:15:14.327Z</time></trkpt><trkpt lat="43.0692496" lon="12.5124988"><ele>195.0</ele><time>2026-03-28T14:15:15.328Z</time></trkpt><trkpt lat="43.0691492" lon="12.5124582"><ele>195.0</ele><time>2026-03-28T14:15:16.328Z</time></trkpt><trkpt lat="43.0690376" lon="12.5124139"><ele>195.0</ele><time>2026-03-28T14:15:17.327Z</time></trkpt><trkpt lat="43.0689299" lon="12.5123712"><ele>195.0</ele><time>2026-03-28T14:15:18.328Z</time></trkpt><trkpt lat="43.0688185" lon="12.5123304"><ele>194.75</ele><time>2026-03-28T14:15:19.328Z</time></trkpt><trkpt lat="43.0687085" lon="12.5122807"><ele>194.5</ele><time>2026-03-28T14:15:20.328Z</time></trkpt><trkpt lat="43.0685956" lon="12.5122317"><ele>194.25</ele><time>2026-03-28T14:15:21.328Z</time></trkpt><trkpt lat="43.068483" lon="12.5121759"><ele>194.0</ele><time>2026-03-28T14:15:22.328Z</time></trkpt><trkpt lat="43.0683683" lon="12.5121247"><ele>193.75</ele><time>2026-03-28T14:15:23.328Z</time></trkpt><trkpt lat="43.0682505" lon="12.5120772"><ele>193.5</ele><time>2026-03-28T14:15:24.327Z</time></trkpt><trkpt lat="43.0681325" lon="12.5120373"><ele>193.25</ele><time>2026-03-28T14:15:25.328Z</time></trkpt><trkpt lat="43.0680104" lon="12.5119828"><ele>193.0</ele><time>2026-03-28T14:15:26.328Z</time></trkpt><trkpt lat="43.0678917" lon="12.5119402"><ele>193.4</ele><time>2026-03-28T14:15:27.327Z</time></trkpt><trkpt lat="43.0677796" lon="12.5118869"><ele>193.8</ele><time>2026-03-28T14:15:28.328Z</time></trkpt><trkpt lat="43.0676719" lon="12.5118503"><ele>194.2</ele><time>2026-03-28T14:15:29.328Z</time></trkpt><trkpt lat="43.0675745" lon="12.5118163"><ele>194.6</ele><time>2026-03-28T14:15:30.328Z</time></trkpt><trkpt lat="43.0674875" lon="12.51178"><ele>195.0</ele><time>2026-03-28T14:15:31.328Z</time></trkpt><trkpt lat="43.0673973" lon="12.5117451"><ele>195.0</ele><time>2026-03-28T14:15:32.328Z</time></trkpt><trkpt lat="43.0673098" lon="12.5117086"><ele>195.0</ele><time>2026-03-28T14:15:33.328Z</time></trkpt><trkpt lat="43.0672138" lon="12.5116763"><ele>195.0</ele><time>2026-03-28T14:15:34.327Z</time></trkpt><trkpt lat="43.0671118" lon="12.5116378"><ele>195.0</ele><time>2026-03-28T14:15:35.328Z</time></trkpt><trkpt lat="43.0670079" lon="12.5115896"><ele>195.0</ele><time>2026-03-28T14:15:36.328Z</time></trkpt><trkpt lat="43.0669045" lon="12.5115475"><ele>195.0</ele><time>2026-03-28T14:15:37.328Z</time></trkpt><trkpt lat="43.066795" lon="12.5115091"><ele>195.0</ele><time>2026-03-28T14:15:38.328Z</time></trkpt><trkpt lat="43.0666848" lon="12.5114633"><ele>195.0</ele><time>2026-03-28T14:15:39.328Z</time></trkpt><trkpt lat="43.0665719" lon="12.5114134"><ele>195.0</ele><time>2026-03-28T14:15:40.328Z</time></trkpt><trkpt lat="43.066459" lon="12.5113613"><ele>194.75</ele><time>2026-03-28T14:15:41.328Z</time></trkpt><trkpt lat="43.0663449" lon="12.5113042"><ele>194.5</ele><time>2026-03-28T14:15:42.328Z</time></trkpt><trkpt lat="43.066237" lon="12.511258"><ele>194.25</ele><time>2026-03-28T14:15:43.328Z</time></trkpt><trkpt lat="43.0661238" lon="12.5112105"><ele>194.0</ele><time>2026-03-28T14:15:44.328Z</time></trkpt><trkpt lat="43.0660117" lon="12.5111578"><ele>194.0</ele><time>2026-03-28T14:15:45.328Z</time></trkpt><trkpt lat="43.0658999" lon="12.5111166"><ele>194.0</ele><time>2026-03-28T14:15:46.327Z</time></trkpt><trkpt lat="43.0657899" lon="12.5110727"><ele>194.0</ele><time>2026-03-28T14:15:47.328Z</time></trkpt><trkpt lat="43.0656803" lon="12.511029"><ele>194.0</ele><time>2026-03-28T14:15:48.328Z</time></trkpt><trkpt lat="43.065572" lon="12.5109901"><ele>194.2</ele><time>2026-03-28T14:15:49.328Z</time></trkpt><trkpt lat="43.065477" lon="12.5109344"><ele>194.39999999999998</ele><time>2026-03-28T14:15:50.327Z</time></trkpt><trkpt lat="43.0653788" lon="12.5108934"><ele>194.6</ele><time>2026-03-28T14:15:51.328Z</time></trkpt><trkpt lat="43.065284" lon="12.510862"><ele>194.8</ele><time>2026-03-28T14:15:52.328Z</time></trkpt><trkpt lat="43.065204" lon="12.5108333"><ele>195.0</ele><time>2026-03-28T14:15:53.328Z</time></trkpt><trkpt lat="43.0651369" lon="12.51079"><ele>195.0</ele><time>2026-03-28T14:15:54.328Z</time></trkpt><trkpt lat="43.0650238" lon="12.5107565"><ele>195.0</ele><time>2026-03-28T14:15:56.328Z</time></trkpt><trkpt lat="43.0649385" lon="12.5107226"><ele>195.0</ele><time>2026-03-28T14:16:01.328Z</time></trkpt><trkpt lat="43.0649214" lon="12.5106233"><ele>195.0</ele><time>2026-03-28T14:16:03.327Z</time></trkpt><trkpt lat="43.0649289" lon="12.5105367"><ele>195.0</ele><time>2026-03-28T14:16:04.327Z</time></trkpt><trkpt lat="43.0649466" lon="12.5104279"><ele>195.0</ele><time>2026-03-28T14:16:05.327Z</time></trkpt><trkpt lat="43.0649603" lon="12.5103083"><ele>195.0</ele><time>2026-03-28T14:16:06.328Z</time></trkpt><trkpt lat="43.0649721" lon="12.5101995"><ele>195.0</ele><time>2026-03-28T14:16:07.328Z</time></trkpt><trkpt lat="43.0649906" lon="12.510081"><ele>195.0</ele><time>2026-03-28T14:16:08.328Z</time></trkpt><trkpt lat="43.0649962" lon="12.5099522"><ele>195.0</ele><time>2026-03-28T14:16:09.328Z</time></trkpt><trkpt lat="43.065001" lon="12.5098085"><ele>195.0</ele><time>2026-03-28T14:16:10.328Z</time></trkpt><trkpt lat="43.065009" lon="12.5096387"><ele>194.5</ele><time>2026-03-28T14:16:11.328Z</time></trkpt><trkpt lat="43.0650106" lon="12.5094762"><ele>194.0</ele><time>2026-03-28T14:16:12.328Z</time></trkpt><trkpt lat="43.0650061" lon="12.5093049"><ele>193.5</ele><time>2026-03-28T14:16:13.328Z</time></trkpt><trkpt lat="43.0649978" lon="12.5091348"><ele>193.0</ele><time>2026-03-28T14:16:14.328Z</time></trkpt><trkpt lat="43.0649996" lon="12.5089642"><ele>193.0</ele><time>2026-03-28T14:16:15.328Z</time></trkpt><trkpt lat="43.0649894" lon="12.5087892"><ele>193.0</ele><time>2026-03-28T14:16:16.328Z</time></trkpt><trkpt lat="43.0649794" lon="12.5086121"><ele>193.0</ele><time>2026-03-28T14:16:17.328Z</time></trkpt><trkpt lat="43.0649763" lon="12.5084259"><ele>193.0</ele><time>2026-03-28T14:16:18.328Z</time></trkpt><trkpt lat="43.0649632" lon="12.5082452"><ele>193.0</ele><time>2026-03-28T14:16:19.327Z</time></trkpt><trkpt lat="43.06494" lon="12.5080628"><ele>193.0</ele><time>2026-03-28T14:16:20.328Z</time></trkpt><trkpt lat="43.0648942" lon="12.5078878"><ele>193.0</ele><time>2026-03-28T14:16:21.328Z</time></trkpt><trkpt lat="43.0648364" lon="12.5077217"><ele>193.0</ele><time>2026-03-28T14:16:22.327Z</time></trkpt><trkpt lat="43.0647569" lon="12.5075635"><ele>193.0</ele><time>2026-03-28T14:16:23.328Z</time></trkpt><trkpt lat="43.0646668" lon="12.5074202"><ele>193.0</ele><time>2026-03-28T14:16:24.328Z</time></trkpt><trkpt lat="43.0645684" lon="12.507275"><ele>193.0</ele><time>2026-03-28T14:16:25.327Z</time></trkpt><trkpt lat="43.0644613" lon="12.5071423"><ele>193.0</ele><time>2026-03-28T14:16:26.328Z</time></trkpt><trkpt lat="43.0643488" lon="12.5070077"><ele>193.0</ele><time>2026-03-28T14:16:27.328Z</time></trkpt><trkpt lat="43.0642352" lon="12.5068682"><ele>193.0</ele><time>2026-03-28T14:16:28.327Z</time></trkpt><trkpt lat="43.0641196" lon="12.5067265"><ele>193.0</ele><time>2026-03-28T14:16:29.328Z</time></trkpt><trkpt lat="43.064002" lon="12.5065762"><ele>193.0</ele><time>2026-03-28T14:16:30.328Z</time></trkpt><trkpt lat="43.0638794" lon="12.5064319"><ele>193.0</ele><time>2026-03-28T14:16:31.327Z</time></trkpt><trkpt lat="43.0637558" lon="12.5062851"><ele>193.0</ele><time>2026-03-28T14:16:32.328Z</time></trkpt><trkpt lat="43.0636285" lon="12.5061388"><ele>193.0</ele><time>2026-03-28T14:16:33.327Z</time></trkpt><trkpt lat="43.0634994" lon="12.5059897"><ele>193.0</ele><time>2026-03-28T14:16:34.328Z</time></trkpt><trkpt lat="43.0633693" lon="12.5058387"><ele>193.0</ele><time>2026-03-28T14:16:35.327Z</time></trkpt><trkpt lat="43.0632404" lon="12.5056856"><ele>193.33333333333331</ele><time>2026-03-28T14:16:36.327Z</time></trkpt><trkpt lat="43.0631112" lon="12.5055327"><ele>193.66666666666669</ele><time>2026-03-28T14:16:37.327Z</time></trkpt><trkpt lat="43.0629863" lon="12.5053742"><ele>194.0</ele><time>2026-03-28T14:16:38.328Z</time></trkpt><trkpt lat="43.0628576" lon="12.5052249"><ele>194.0</ele><time>2026-03-28T14:16:39.328Z</time></trkpt><trkpt lat="43.0627275" lon="12.5050744"><ele>194.0</ele><time>2026-03-28T14:16:40.327Z</time></trkpt><trkpt lat="43.0626018" lon="12.5049168"><ele>194.0</ele><time>2026-03-28T14:16:41.327Z</time></trkpt><trkpt lat="43.0624799" lon="12.5047707"><ele>194.0</ele><time>2026-03-28T14:16:42.328Z</time></trkpt><trkpt lat="43.062354" lon="12.5046138"><ele>194.0</ele><time>2026-03-28T14:16:43.328Z</time></trkpt><trkpt lat="43.0622293" lon="12.5044575"><ele>194.0</ele><time>2026-03-28T14:16:44.328Z</time></trkpt><trkpt lat="43.0621113" lon="12.5043113"><ele>194.0</ele><time>2026-03-28T14:16:45.328Z</time></trkpt><trkpt lat="43.0619908" lon="12.504168"><ele>194.0</ele><time>2026-03-28T14:16:46.327Z</time></trkpt><trkpt lat="43.0618807" lon="12.5040281"><ele>194.0</ele><time>2026-03-28T14:16:47.328Z</time></trkpt><trkpt lat="43.0617701" lon="12.5038981"><ele>194.0</ele><time>2026-03-28T14:16:48.328Z</time></trkpt><trkpt lat="43.0616621" lon="12.5037725"><ele>194.0</ele><time>2026-03-28T14:16:49.328Z</time></trkpt><trkpt lat="43.0615548" lon="12.5036509"><ele>194.0</ele><time>2026-03-28T14:16:50.328Z</time></trkpt><trkpt lat="43.0614537" lon="12.503542"><ele>194.0</ele><time>2026-03-28T14:16:51.328Z</time></trkpt><trkpt lat="43.0613547" lon="12.5034324"><ele>194.25</ele><time>2026-03-28T14:16:52.328Z</time></trkpt><trkpt lat="43.0612612" lon="12.5033208"><ele>194.5</ele><time>2026-03-28T14:16:53.328Z</time></trkpt><trkpt lat="43.0611738" lon="12.5032072"><ele>194.75</ele><time>2026-03-28T14:16:54.328Z</time></trkpt><trkpt lat="43.0610905" lon="12.5031025"><ele>195.0</ele><time>2026-03-28T14:16:55.328Z</time></trkpt><trkpt lat="43.0610084" lon="12.5030037"><ele>194.8</ele><time>2026-03-28T14:16:56.327Z</time></trkpt><trkpt lat="43.0609226" lon="12.5029077"><ele>194.6</ele><time>2026-03-28T14:16:57.328Z</time></trkpt><trkpt lat="43.0608455" lon="12.5028096"><ele>194.39999999999998</ele><time>2026-03-28T14:16:58.328Z</time></trkpt><trkpt lat="43.0607661" lon="12.5027136"><ele>194.2</ele><time>2026-03-28T14:16:59.328Z</time></trkpt><trkpt lat="43.0606809" lon="12.502613"><ele>194.0</ele><time>2026-03-28T14:17:00.328Z</time></trkpt><trkpt lat="43.0605938" lon="12.5025115"><ele>194.75</ele><time>2026-03-28T14:17:01.328Z</time></trkpt><trkpt lat="43.0605067" lon="12.5024011"><ele>195.5</ele><time>2026-03-28T14:17:02.328Z</time></trkpt><trkpt lat="43.0604207" lon="12.5022904"><ele>196.25</ele><time>2026-03-28T14:17:03.328Z</time></trkpt><trkpt lat="43.060334" lon="12.502194"><ele>197.0</ele><time>2026-03-28T14:17:04.328Z</time></trkpt><trkpt lat="43.0602529" lon="12.5020987"><ele>196.5</ele><time>2026-03-28T14:17:05.328Z</time></trkpt><trkpt lat="43.0601688" lon="12.5019972"><ele>196.0</ele><time>2026-03-28T14:17:06.328Z</time></trkpt><trkpt lat="43.060086" lon="12.5018875"><ele>195.5</ele><time>2026-03-28T14:17:07.328Z</time></trkpt><trkpt lat="43.0599951" lon="12.5017828"><ele>195.0</ele><time>2026-03-28T14:17:08.327Z</time></trkpt><trkpt lat="43.0598994" lon="12.5016715"><ele>194.5</ele><time>2026-03-28T14:17:09.327Z</time></trkpt><trkpt lat="43.0597976" lon="12.5015508"><ele>194.0</ele><time>2026-03-28T14:17:10.328Z</time></trkpt><trkpt lat="43.0596945" lon="12.5014246"><ele>193.5</ele><time>2026-03-28T14:17:11.328Z</time></trkpt><trkpt lat="43.059588" lon="12.5013032"><ele>193.0</ele><time>2026-03-28T14:17:12.328Z</time></trkpt><trkpt lat="43.0594727" lon="12.5011784"><ele>193.0</ele><time>2026-03-28T14:17:13.328Z</time></trkpt><trkpt lat="43.0593557" lon="12.5010456"><ele>193.0</ele><time>2026-03-28T14:17:14.328Z</time></trkpt><trkpt lat="43.0592388" lon="12.500912"><ele>193.0</ele><time>2026-03-28T14:17:15.328Z</time></trkpt><trkpt lat="43.0591381" lon="12.5007776"><ele>193.0</ele><time>2026-03-28T14:17:16.328Z</time></trkpt><trkpt lat="43.0590322" lon="12.5006314"><ele>193.0</ele><time>2026-03-28T14:17:17.328Z</time></trkpt><trkpt lat="43.0589167" lon="12.5004852"><ele>193.0</ele><time>2026-03-28T14:17:18.328Z</time></trkpt><trkpt lat="43.0588063" lon="12.5003287"><ele>193.0</ele><time>2026-03-28T14:17:19.327Z</time></trkpt><trkpt lat="43.0586802" lon="12.5001849"><ele>193.33333333333331</ele><time>2026-03-28T14:17:20.328Z</time></trkpt><trkpt lat="43.0585565" lon="12.50003"><ele>193.66666666666669</ele><time>2026-03-28T14:17:21.327Z</time></trkpt><trkpt lat="43.058432" lon="12.4998735"><ele>194.0</ele><time>2026-03-28T14:17:22.328Z</time></trkpt><trkpt lat="43.0583059" lon="12.4997216"><ele>193.0</ele><time>2026-03-28T14:17:23.327Z</time></trkpt><trkpt lat="43.0581815" lon="12.4995639"><ele>192.0</ele><time>2026-03-28T14:17:24.328Z</time></trkpt><trkpt lat="43.0580635" lon="12.4993985"><ele>191.0</ele><time>2026-03-28T14:17:25.328Z</time></trkpt><trkpt lat="43.0579344" lon="12.4992394"><ele>191.0</ele><time>2026-03-28T14:17:26.328Z</time></trkpt><trkpt lat="43.0577996" lon="12.4990819"><ele>191.0</ele><time>2026-03-28T14:17:27.328Z</time></trkpt><trkpt lat="43.0576604" lon="12.498913"><ele>191.0</ele><time>2026-03-28T14:17:28.328Z</time></trkpt><trkpt lat="43.0575246" lon="12.4987429"><ele>191.0</ele><time>2026-03-28T14:17:29.328Z</time></trkpt><trkpt lat="43.0573831" lon="12.4985715"><ele>191.0</ele><time>2026-03-28T14:17:30.328Z</time></trkpt><trkpt lat="43.0572426" lon="12.498405"><ele>191.0</ele><time>2026-03-28T14:17:31.327Z</time></trkpt><trkpt lat="43.0570993" lon="12.4982356"><ele>191.0</ele><time>2026-03-28T14:17:32.328Z</time></trkpt><trkpt lat="43.0569573" lon="12.4980668"><ele>191.0</ele><time>2026-03-28T14:17:33.328Z</time></trkpt><trkpt lat="43.0568098" lon="12.497894"><ele>191.0</ele><time>2026-03-28T14:17:34.327Z</time></trkpt><trkpt lat="43.0566749" lon="12.4977133"><ele>190.66666666666666</ele><time>2026-03-28T14:17:35.328Z</time></trkpt><trkpt lat="43.0565263" lon="12.4975371"><ele>190.33333333333334</ele><time>2026-03-28T14:17:36.327Z</time></trkpt><trkpt lat="43.0563775" lon="12.4973579"><ele>190.0</ele><time>2026-03-28T14:17:37.328Z</time></trkpt><trkpt lat="43.0562237" lon="12.497177"><ele>190.33333333333334</ele><time>2026-03-28T14:17:38.328Z</time></trkpt><trkpt lat="43.0560739" lon="12.496998"><ele>190.66666666666666</ele><time>2026-03-28T14:17:39.328Z</time></trkpt><trkpt lat="43.0559221" lon="12.4968209"><ele>191.0</ele><time>2026-03-28T14:17:40.327Z</time></trkpt><trkpt lat="43.0557769" lon="12.496639"><ele>191.0</ele><time>2026-03-28T14:17:41.328Z</time></trkpt><trkpt lat="43.0556288" lon="12.4964587"><ele>191.0</ele><time>2026-03-28T14:17:42.328Z</time></trkpt><trkpt lat="43.0554896" lon="12.4962769"><ele>191.0</ele><time>2026-03-28T14:17:43.328Z</time></trkpt><trkpt lat="43.0553409" lon="12.496093"><ele>191.0</ele><time>2026-03-28T14:17:44.328Z</time></trkpt><trkpt lat="43.0551931" lon="12.4959187"><ele>191.0</ele><time>2026-03-28T14:17:45.328Z</time></trkpt><trkpt lat="43.0550497" lon="12.495745"><ele>191.0</ele><time>2026-03-28T14:17:46.328Z</time></trkpt><trkpt lat="43.054903" lon="12.4955673"><ele>190.66666666666666</ele><time>2026-03-28T14:17:47.328Z</time></trkpt><trkpt lat="43.0547613" lon="12.4953821"><ele>190.33333333333334</ele><time>2026-03-28T14:17:48.328Z</time></trkpt><trkpt lat="43.0546206" lon="12.4952048"><ele>190.0</ele><time>2026-03-28T14:17:49.328Z</time></trkpt><trkpt lat="43.0544743" lon="12.4950408"><ele>190.0</ele><time>2026-03-28T14:17:50.327Z</time></trkpt><trkpt lat="43.0543252" lon="12.4948681"><ele>190.0</ele><time>2026-03-28T14:17:51.327Z</time></trkpt><trkpt lat="43.0541973" lon="12.4946953"><ele>190.0</ele><time>2026-03-28T14:17:52.328Z</time></trkpt><trkpt lat="43.0540544" lon="12.4945182"><ele>190.0</ele><time>2026-03-28T14:17:53.328Z</time></trkpt><trkpt lat="43.0539062" lon="12.4943453"><ele>190.0</ele><time>2026-03-28T14:17:54.328Z</time></trkpt><trkpt lat="43.0537586" lon="12.4941778"><ele>190.0</ele><time>2026-03-28T14:17:55.328Z</time></trkpt><trkpt lat="43.0536103" lon="12.4940044"><ele>190.0</ele><time>2026-03-28T14:17:56.328Z</time></trkpt><trkpt lat="43.0534641" lon="12.4938363"><ele>190.0</ele><time>2026-03-28T14:17:57.328Z</time></trkpt><trkpt lat="43.05332" lon="12.4936663"><ele>190.0</ele><time>2026-03-28T14:17:58.328Z</time></trkpt><trkpt lat="43.0531718" lon="12.4934993"><ele>190.0</ele><time>2026-03-28T14:17:59.328Z</time></trkpt><trkpt lat="43.0530337" lon="12.4933325"><ele>190.0</ele><time>2026-03-28T14:18:00.327Z</time></trkpt><trkpt lat="43.052892" lon="12.4931652"><ele>190.0</ele><time>2026-03-28T14:18:01.328Z</time></trkpt><trkpt lat="43.0527494" lon="12.492996"><ele>190.0</ele><time>2026-03-28T14:18:02.327Z</time></trkpt><trkpt lat="43.0526102" lon="12.4928238"><ele>190.0</ele><time>2026-03-28T14:18:03.327Z</time></trkpt><trkpt lat="43.0524771" lon="12.4926582"><ele>190.0</ele><time>2026-03-28T14:18:04.328Z</time></trkpt><trkpt lat="43.0523385" lon="12.4924928"><ele>189.66666666666669</ele><time>2026-03-28T14:18:05.327Z</time></trkpt><trkpt lat="43.052207" lon="12.492326"><ele>189.33333333333334</ele><time>2026-03-28T14:18:06.327Z</time></trkpt><trkpt lat="43.0520723" lon="12.4921593"><ele>189.0</ele><time>2026-03-28T14:18:07.327Z</time></trkpt><trkpt lat="43.0519328" lon="12.4919983"><ele>189.0</ele><time>2026-03-28T14:18:08.327Z</time></trkpt><trkpt lat="43.0518017" lon="12.4918326"><ele>189.0</ele><time>2026-03-28T14:18:09.328Z</time></trkpt><trkpt lat="43.0516653" lon="12.491676"><ele>189.0</ele><time>2026-03-28T14:18:10.328Z</time></trkpt><trkpt lat="43.0515301" lon="12.4915149"><ele>188.33333333333334</ele><time>2026-03-28T14:18:11.327Z</time></trkpt><trkpt lat="43.0513951" lon="12.491347"><ele>187.66666666666669</ele><time>2026-03-28T14:18:12.328Z</time></trkpt><trkpt lat="43.0512633" lon="12.4911887"><ele>187.0</ele><time>2026-03-28T14:18:13.327Z</time></trkpt><trkpt lat="43.0511308" lon="12.4910315"><ele>187.0</ele><time>2026-03-28T14:18:14.327Z</time></trkpt><trkpt lat="43.0509984" lon="12.4908679"><ele>187.0</ele><time>2026-03-28T14:18:15.328Z</time></trkpt><trkpt lat="43.0508742" lon="12.4907079"><ele>187.0</ele><time>2026-03-28T14:18:16.327Z</time></trkpt><trkpt lat="43.0507576" lon="12.4905507"><ele>187.5</ele><time>2026-03-28T14:18:17.328Z</time></trkpt><trkpt lat="43.0506428" lon="12.4904099"><ele>188.0</ele><time>2026-03-28T14:18:18.328Z</time></trkpt><trkpt lat="43.0505348" lon="12.4902849"><ele>188.5</ele><time>2026-03-28T14:18:19.327Z</time></trkpt><trkpt lat="43.0504361" lon="12.4901537"><ele>189.0</ele><time>2026-03-28T14:18:20.328Z</time></trkpt><trkpt lat="43.050349" lon="12.4900202"><ele>189.0</ele><time>2026-03-28T14:18:21.328Z</time></trkpt><trkpt lat="43.0502671" lon="12.4899132"><ele>189.0</ele><time>2026-03-28T14:18:22.328Z</time></trkpt><trkpt lat="43.0501888" lon="12.4898013"><ele>189.0</ele><time>2026-03-28T14:18:23.327Z</time></trkpt><trkpt lat="43.0501159" lon="12.4897017"><ele>189.0</ele><time>2026-03-28T14:18:24.328Z</time></trkpt><trkpt lat="43.0500589" lon="12.4896149"><ele>189.0</ele><time>2026-03-28T14:18:25.328Z</time></trkpt><trkpt lat="43.0499995" lon="12.4895031"><ele>188.6</ele><time>2026-03-28T14:18:27.327Z</time></trkpt><trkpt lat="43.049945" lon="12.4894262"><ele>188.2</ele><time>2026-03-28T14:18:30.327Z</time></trkpt><trkpt lat="43.0498825" lon="12.4893257"><ele>187.79999999999998</ele><time>2026-03-28T14:18:34.328Z</time></trkpt><trkpt lat="43.0497918" lon="12.4892073"><ele>187.39999999999998</ele><time>2026-03-28T14:18:36.328Z</time></trkpt><trkpt lat="43.0497305" lon="12.4891367"><ele>187.0</ele><time>2026-03-28T14:18:37.328Z</time></trkpt><trkpt lat="43.0496722" lon="12.4890546"><ele>187.0</ele><time>2026-03-28T14:18:38.328Z</time></trkpt><trkpt lat="43.0495978" lon="12.4889598"><ele>187.0</ele><time>2026-03-28T14:18:39.327Z</time></trkpt><trkpt lat="43.0495209" lon="12.4888604"><ele>187.0</ele><time>2026-03-28T14:18:40.328Z</time></trkpt><trkpt lat="43.0494355" lon="12.4887459"><ele>187.0</ele><time>2026-03-28T14:18:41.328Z</time></trkpt><trkpt lat="43.0493423" lon="12.4886144"><ele>187.5</ele><time>2026-03-28T14:18:42.328Z</time></trkpt><trkpt lat="43.0492437" lon="12.4884696"><ele>188.0</ele><time>2026-03-28T14:18:43.327Z</time></trkpt><trkpt lat="43.0491454" lon="12.4883189"><ele>188.5</ele><time>2026-03-28T14:18:44.328Z</time></trkpt><trkpt lat="43.049043" lon="12.4881637"><ele>189.0</ele><time>2026-03-28T14:18:45.328Z</time></trkpt><trkpt lat="43.0489325" lon="12.4880088"><ele>188.66666666666666</ele><time>2026-03-28T14:18:46.328Z</time></trkpt><trkpt lat="43.0488175" lon="12.4878498"><ele>188.33333333333331</ele><time>2026-03-28T14:18:47.328Z</time></trkpt><trkpt lat="43.0486998" lon="12.4876845"><ele>188.0</ele><time>2026-03-28T14:18:48.328Z</time></trkpt><trkpt lat="43.0485746" lon="12.4875162"><ele>188.0</ele><time>2026-03-28T14:18:49.328Z</time></trkpt><trkpt lat="43.0484512" lon="12.4873477"><ele>188.0</ele><time>2026-03-28T14:18:50.328Z</time></trkpt><trkpt lat="43.0483367" lon="12.4871792"><ele>188.0</ele><time>2026-03-28T14:18:51.328Z</time></trkpt><trkpt lat="43.0482124" lon="12.4870061"><ele>187.0</ele><time>2026-03-28T14:18:52.328Z</time></trkpt><trkpt lat="43.048089" lon="12.4868359"><ele>186.0</ele><time>2026-03-28T14:18:53.328Z</time></trkpt><trkpt lat="43.0479609" lon="12.4866608"><ele>185.0</ele><time>2026-03-28T14:18:54.328Z</time></trkpt><trkpt lat="43.0478355" lon="12.4864811"><ele>185.0</ele><time>2026-03-28T14:18:55.327Z</time></trkpt><trkpt lat="43.0477046" lon="12.4862977"><ele>185.0</ele><time>2026-03-28T14:18:56.328Z</time></trkpt><trkpt lat="43.0475717" lon="12.4861023"><ele>185.0</ele><time>2026-03-28T14:18:57.328Z</time></trkpt><trkpt lat="43.0474439" lon="12.4858984"><ele>184.66666666666666</ele><time>2026-03-28T14:18:58.327Z</time></trkpt><trkpt lat="43.0473084" lon="12.4856983"><ele>184.33333333333334</ele><time>2026-03-28T14:18:59.327Z</time></trkpt><trkpt lat="43.0471722" lon="12.4854895"><ele>184.0</ele><time>2026-03-28T14:19:00.328Z</time></trkpt><trkpt lat="43.047023" lon="12.4852882"><ele>184.66666666666669</ele><time>2026-03-28T14:19:01.327Z</time></trkpt><trkpt lat="43.0468785" lon="12.4850842"><ele>185.33333333333334</ele><time>2026-03-28T14:19:02.327Z</time></trkpt><trkpt lat="43.0467308" lon="12.4848741"><ele>186.0</ele><time>2026-03-28T14:19:03.328Z</time></trkpt><trkpt lat="43.0465797" lon="12.4846741"><ele>186.0</ele><time>2026-03-28T14:19:04.328Z</time></trkpt><trkpt lat="43.0464285" lon="12.4844855"><ele>186.0</ele><time>2026-03-28T14:19:05.327Z</time></trkpt><trkpt lat="43.0462774" lon="12.4842972"><ele>186.0</ele><time>2026-03-28T14:19:06.327Z</time></trkpt><trkpt lat="43.0461276" lon="12.4841058"><ele>186.0</ele><time>2026-03-28T14:19:07.328Z</time></trkpt><trkpt lat="43.0459748" lon="12.4839159"><ele>186.0</ele><time>2026-03-28T14:19:08.328Z</time></trkpt><trkpt lat="43.0458245" lon="12.4837221"><ele>186.0</ele><time>2026-03-28T14:19:09.328Z</time></trkpt><trkpt lat="43.0456696" lon="12.4835347"><ele>185.66666666666666</ele><time>2026-03-28T14:19:10.328Z</time></trkpt><trkpt lat="43.045514" lon="12.4833497"><ele>185.33333333333331</ele><time>2026-03-28T14:19:11.328Z</time></trkpt><trkpt lat="43.0453613" lon="12.4831631"><ele>185.0</ele><time>2026-03-28T14:19:12.328Z</time></trkpt><trkpt lat="43.0452064" lon="12.4829748"><ele>185.0</ele><time>2026-03-28T14:19:13.328Z</time></trkpt><trkpt lat="43.0450593" lon="12.4827851"><ele>185.0</ele><time>2026-03-28T14:19:14.328Z</time></trkpt><trkpt lat="43.044905" lon="12.4825953"><ele>185.0</ele><time>2026-03-28T14:19:15.328Z</time></trkpt><trkpt lat="43.0447542" lon="12.4823999"><ele>185.0</ele><time>2026-03-28T14:19:16.328Z</time></trkpt><trkpt lat="43.0446026" lon="12.4822046"><ele>185.0</ele><time>2026-03-28T14:19:17.328Z</time></trkpt><trkpt lat="43.044455" lon="12.4820044"><ele>185.0</ele><time>2026-03-28T14:19:18.328Z</time></trkpt><trkpt lat="43.0443035" lon="12.4818127"><ele>185.33333333333331</ele><time>2026-03-28T14:19:19.328Z</time></trkpt><trkpt lat="43.0441538" lon="12.4816204"><ele>185.66666666666666</ele><time>2026-03-28T14:19:20.328Z</time></trkpt><trkpt lat="43.0440108" lon="12.4814278"><ele>186.0</ele><time>2026-03-28T14:19:21.328Z</time></trkpt><trkpt lat="43.0438584" lon="12.481228"><ele>186.0</ele><time>2026-03-28T14:19:22.328Z</time></trkpt><trkpt lat="43.0437127" lon="12.4810285"><ele>186.0</ele><time>2026-03-28T14:19:23.328Z</time></trkpt><trkpt lat="43.043566" lon="12.4808316"><ele>186.0</ele><time>2026-03-28T14:19:24.328Z</time></trkpt><trkpt lat="43.0434135" lon="12.4806323"><ele>186.0</ele><time>2026-03-28T14:19:25.327Z</time></trkpt><trkpt lat="43.0432627" lon="12.480435"><ele>186.0</ele><time>2026-03-28T14:19:26.328Z</time></trkpt><trkpt lat="43.0431126" lon="12.4802396"><ele>186.0</ele><time>2026-03-28T14:19:27.327Z</time></trkpt><trkpt lat="43.0429681" lon="12.4800402"><ele>185.66666666666666</ele><time>2026-03-28T14:19:28.328Z</time></trkpt><trkpt lat="43.042814" lon="12.4798444"><ele>185.33333333333331</ele><time>2026-03-28T14:19:29.328Z</time></trkpt><trkpt lat="43.0426622" lon="12.4796513"><ele>185.0</ele><time>2026-03-28T14:19:30.327Z</time></trkpt><trkpt lat="43.0425136" lon="12.4794513"><ele>185.0</ele><time>2026-03-28T14:19:31.328Z</time></trkpt><trkpt lat="43.0423662" lon="12.4792515"><ele>185.0</ele><time>2026-03-28T14:19:32.327Z</time></trkpt><trkpt lat="43.0422178" lon="12.479065"><ele>185.0</ele><time>2026-03-28T14:19:33.327Z</time></trkpt><trkpt lat="43.0420652" lon="12.4788679"><ele>185.0</ele><time>2026-03-28T14:19:34.328Z</time></trkpt><trkpt lat="43.041911" lon="12.4786694"><ele>185.0</ele><time>2026-03-28T14:19:35.328Z</time></trkpt><trkpt lat="43.0417611" lon="12.4784716"><ele>185.0</ele><time>2026-03-28T14:19:36.328Z</time></trkpt><trkpt lat="43.0416105" lon="12.4782679"><ele>184.66666666666666</ele><time>2026-03-28T14:19:37.328Z</time></trkpt><trkpt lat="43.0414553" lon="12.4780748"><ele>184.33333333333334</ele><time>2026-03-28T14:19:38.328Z</time></trkpt><trkpt lat="43.0413063" lon="12.4778777"><ele>184.0</ele><time>2026-03-28T14:19:39.328Z</time></trkpt><trkpt lat="43.0411623" lon="12.47768"><ele>184.0</ele><time>2026-03-28T14:19:40.328Z</time></trkpt><trkpt lat="43.0410226" lon="12.4774853"><ele>184.0</ele><time>2026-03-28T14:19:41.328Z</time></trkpt><trkpt lat="43.0408767" lon="12.4772896"><ele>184.0</ele><time>2026-03-28T14:19:42.328Z</time></trkpt><trkpt lat="43.0407384" lon="12.4771032"><ele>184.33333333333334</ele><time>2026-03-28T14:19:43.328Z</time></trkpt><trkpt lat="43.0406005" lon="12.4769175"><ele>184.66666666666666</ele><time>2026-03-28T14:19:44.327Z</time></trkpt><trkpt lat="43.0404658" lon="12.4767353"><ele>185.0</ele><time>2026-03-28T14:19:45.328Z</time></trkpt><trkpt lat="43.0403362" lon="12.4765384"><ele>185.0</ele><time>2026-03-28T14:19:46.328Z</time></trkpt><trkpt lat="43.0402287" lon="12.4763303"><ele>185.0</ele><time>2026-03-28T14:19:47.328Z</time></trkpt><trkpt lat="43.0401464" lon="12.4761068"><ele>185.0</ele><time>2026-03-28T14:19:48.327Z</time></trkpt><trkpt lat="43.0400753" lon="12.4758668"><ele>185.0</ele><time>2026-03-28T14:19:49.328Z</time></trkpt><trkpt lat="43.0400065" lon="12.4756307"><ele>185.0</ele><time>2026-03-28T14:19:50.328Z</time></trkpt><trkpt lat="43.0399432" lon="12.4753866"><ele>185.0</ele><time>2026-03-28T14:19:51.327Z</time></trkpt><trkpt lat="43.0398826" lon="12.4751414"><ele>185.0</ele><time>2026-03-28T14:19:52.328Z</time></trkpt><trkpt lat="43.0398156" lon="12.4748936"><ele>185.0</ele><time>2026-03-28T14:19:53.327Z</time></trkpt><trkpt lat="43.0397521" lon="12.4746459"><ele>185.0</ele><time>2026-03-28T14:19:54.328Z</time></trkpt><trkpt lat="43.039684" lon="12.4743869"><ele>185.66666666666666</ele><time>2026-03-28T14:19:55.327Z</time></trkpt><trkpt lat="43.0396186" lon="12.474141"><ele>186.33333333333334</ele><time>2026-03-28T14:19:56.328Z</time></trkpt><trkpt lat="43.0395564" lon="12.4738888"><ele>187.0</ele><time>2026-03-28T14:19:57.328Z</time></trkpt><trkpt lat="43.0394934" lon="12.4736359"><ele>187.0</ele><time>2026-03-28T14:19:58.327Z</time></trkpt><trkpt lat="43.0394319" lon="12.4733813"><ele>187.0</ele><time>2026-03-28T14:19:59.328Z</time></trkpt><trkpt lat="43.0393738" lon="12.4731304"><ele>187.0</ele><time>2026-03-28T14:20:00.328Z</time></trkpt><trkpt lat="43.0393258" lon="12.4728734"><ele>187.0</ele><time>2026-03-28T14:20:01.328Z</time></trkpt><trkpt lat="43.0393068" lon="12.4726153"><ele>187.0</ele><time>2026-03-28T14:20:02.328Z</time></trkpt><trkpt lat="43.0393078" lon="12.4723451"><ele>187.0</ele><time>2026-03-28T14:20:03.328Z</time></trkpt><trkpt lat="43.0392988" lon="12.4720837"><ele>187.0</ele><time>2026-03-28T14:20:04.328Z</time></trkpt><trkpt lat="43.0392881" lon="12.4718208"><ele>187.0</ele><time>2026-03-28T14:20:05.328Z</time></trkpt><trkpt lat="43.03929" lon="12.4715554"><ele>187.0</ele><time>2026-03-28T14:20:06.327Z</time></trkpt><trkpt lat="43.0392808" lon="12.4712953"><ele>186.33333333333334</ele><time>2026-03-28T14:20:07.327Z</time></trkpt><trkpt lat="43.0392724" lon="12.4710364"><ele>185.66666666666666</ele><time>2026-03-28T14:20:08.328Z</time></trkpt><trkpt lat="43.0392559" lon="12.4707764"><ele>185.0</ele><time>2026-03-28T14:20:09.328Z</time></trkpt><trkpt lat="43.0392433" lon="12.4705257"><ele>185.33333333333331</ele><time>2026-03-28T14:20:10.328Z</time></trkpt><trkpt lat="43.039229" lon="12.4702679"><ele>185.66666666666666</ele><time>2026-03-28T14:20:11.327Z</time></trkpt><trkpt lat="43.039225" lon="12.4700107"><ele>186.0</ele><time>2026-03-28T14:20:12.328Z</time></trkpt><trkpt lat="43.0392217" lon="12.4697538"><ele>186.0</ele><time>2026-03-28T14:20:13.327Z</time></trkpt><trkpt lat="43.0392193" lon="12.4694924"><ele>186.0</ele><time>2026-03-28T14:20:14.327Z</time></trkpt><trkpt lat="43.039217" lon="12.4692348"><ele>186.0</ele><time>2026-03-28T14:20:15.328Z</time></trkpt><trkpt lat="43.0392084" lon="12.4689755"><ele>186.0</ele><time>2026-03-28T14:20:16.328Z</time></trkpt><trkpt lat="43.0391971" lon="12.4687207"><ele>186.0</ele><time>2026-03-28T14:20:17.327Z</time></trkpt><trkpt lat="43.0391868" lon="12.4684684"><ele>186.0</ele><time>2026-03-28T14:20:18.327Z</time></trkpt><trkpt lat="43.0391682" lon="12.4682168"><ele>185.66666666666666</ele><time>2026-03-28T14:20:19.328Z</time></trkpt><trkpt lat="43.03912" lon="12.4679699"><ele>185.33333333333331</ele><time>2026-03-28T14:20:20.328Z</time></trkpt><trkpt lat="43.0390452" lon="12.4677334"><ele>185.0</ele><time>2026-03-28T14:20:21.328Z</time></trkpt><trkpt lat="43.0389458" lon="12.4675094"><ele>185.0</ele><time>2026-03-28T14:20:22.328Z</time></trkpt><trkpt lat="43.0388371" lon="12.4673017"><ele>185.0</ele><time>2026-03-28T14:20:23.328Z</time></trkpt><trkpt lat="43.0387114" lon="12.4670939"><ele>185.0</ele><time>2026-03-28T14:20:24.328Z</time></trkpt><trkpt lat="43.0385799" lon="12.4668913"><ele>185.33333333333331</ele><time>2026-03-28T14:20:25.328Z</time></trkpt><trkpt lat="43.0384391" lon="12.4666863"><ele>185.66666666666666</ele><time>2026-03-28T14:20:26.328Z</time></trkpt><trkpt lat="43.0383034" lon="12.4664798"><ele>186.0</ele><time>2026-03-28T14:20:27.328Z</time></trkpt><trkpt lat="43.0381708" lon="12.466272"><ele>185.0</ele><time>2026-03-28T14:20:28.327Z</time></trkpt><trkpt lat="43.0380429" lon="12.4660713"><ele>184.0</ele><time>2026-03-28T14:20:29.327Z</time></trkpt><trkpt lat="43.0379159" lon="12.4658612"><ele>183.0</ele><time>2026-03-28T14:20:30.328Z</time></trkpt><trkpt lat="43.0378073" lon="12.4656328"><ele>183.66666666666666</ele><time>2026-03-28T14:20:31.328Z</time></trkpt><trkpt lat="43.0377478" lon="12.4653913"><ele>184.33333333333331</ele><time>2026-03-28T14:20:32.328Z</time></trkpt><trkpt lat="43.0377404" lon="12.4651165"><ele>185.0</ele><time>2026-03-28T14:20:33.327Z</time></trkpt><trkpt lat="43.0377066" lon="12.4648476"><ele>185.0</ele><time>2026-03-28T14:20:34.327Z</time></trkpt><trkpt lat="43.0376854" lon="12.464588"><ele>185.0</ele><time>2026-03-28T14:20:35.328Z</time></trkpt><trkpt lat="43.037661" lon="12.4643204"><ele>185.0</ele><time>2026-03-28T14:20:36.328Z</time></trkpt><trkpt lat="43.037647" lon="12.4640486"><ele>184.0</ele><time>2026-03-28T14:20:37.328Z</time></trkpt><trkpt lat="43.0376247" lon="12.463779"><ele>183.0</ele><time>2026-03-28T14:20:38.328Z</time></trkpt><trkpt lat="43.0375962" lon="12.4635162"><ele>182.0</ele><time>2026-03-28T14:20:39.328Z</time></trkpt><trkpt lat="43.03757" lon="12.4632497"><ele>182.0</ele><time>2026-03-28T14:20:40.328Z</time></trkpt><trkpt lat="43.0375409" lon="12.4629956"><ele>182.0</ele><time>2026-03-28T14:20:41.327Z</time></trkpt><trkpt lat="43.0375106" lon="12.4627466"><ele>182.0</ele><time>2026-03-28T14:20:42.328Z</time></trkpt><trkpt lat="43.0374856" lon="12.4625113"><ele>181.33333333333331</ele><time>2026-03-28T14:20:43.328Z</time></trkpt><trkpt lat="43.0374594" lon="12.4622822"><ele>180.66666666666666</ele><time>2026-03-28T14:20:44.328Z</time></trkpt><trkpt lat="43.0374416" lon="12.4620625"><ele>180.0</ele><time>2026-03-28T14:20:45.327Z</time></trkpt><trkpt lat="43.0374307" lon="12.4618478"><ele>179.66666666666666</ele><time>2026-03-28T14:20:46.328Z</time></trkpt><trkpt lat="43.0374345" lon="12.4616403"><ele>179.33333333333331</ele><time>2026-03-28T14:20:47.328Z</time></trkpt><trkpt lat="43.0374473" lon="12.4614307"><ele>179.0</ele><time>2026-03-28T14:20:48.328Z</time></trkpt><trkpt lat="43.037468" lon="12.4612179"><ele>180.0</ele><time>2026-03-28T14:20:49.328Z</time></trkpt><trkpt lat="43.0374899" lon="12.4609988"><ele>181.0</ele><time>2026-03-28T14:20:50.328Z</time></trkpt><trkpt lat="43.0375027" lon="12.4607672"><ele>182.0</ele><time>2026-03-28T14:20:51.328Z</time></trkpt><trkpt lat="43.0375259" lon="12.4605293"><ele>181.33333333333331</ele><time>2026-03-28T14:20:52.328Z</time></trkpt><trkpt lat="43.0375678" lon="12.4602758"><ele>180.66666666666666</ele><time>2026-03-28T14:20:53.328Z</time></trkpt><trkpt lat="43.0375987" lon="12.4600271"><ele>180.0</ele><time>2026-03-28T14:20:54.327Z</time></trkpt><trkpt lat="43.0376264" lon="12.4597774"><ele>180.0</ele><time>2026-03-28T14:20:55.327Z</time></trkpt><trkpt lat="43.0376489" lon="12.4595227"><ele>180.0</ele><time>2026-03-28T14:20:56.328Z</time></trkpt><trkpt lat="43.0376626" lon="12.4592604"><ele>180.0</ele><time>2026-03-28T14:20:57.327Z</time></trkpt><trkpt lat="43.0376698" lon="12.4589959"><ele>179.66666666666666</ele><time>2026-03-28T14:20:58.327Z</time></trkpt><trkpt lat="43.0376525" lon="12.4587225"><ele>179.33333333333331</ele><time>2026-03-28T14:20:59.328Z</time></trkpt><trkpt lat="43.0376109" lon="12.4584479"><ele>179.0</ele><time>2026-03-28T14:21:00.328Z</time></trkpt><trkpt lat="43.0375587" lon="12.4581785"><ele>179.0</ele><time>2026-03-28T14:21:01.328Z</time></trkpt><trkpt lat="43.0374995" lon="12.4579005"><ele>179.0</ele><time>2026-03-28T14:21:02.327Z</time></trkpt><trkpt lat="43.0374383" lon="12.4576186"><ele>179.0</ele><time>2026-03-28T14:21:03.328Z</time></trkpt><trkpt lat="43.0373704" lon="12.4573366"><ele>178.66666666666666</ele><time>2026-03-28T14:21:04.327Z</time></trkpt><trkpt lat="43.0373086" lon="12.457048"><ele>178.33333333333334</ele><time>2026-03-28T14:21:05.327Z</time></trkpt><trkpt lat="43.0372434" lon="12.4567661"><ele>178.0</ele><time>2026-03-28T14:21:06.327Z</time></trkpt><trkpt lat="43.0371788" lon="12.4564853"><ele>178.66666666666669</ele><time>2026-03-28T14:21:07.328Z</time></trkpt><trkpt lat="43.0371137" lon="12.4562085"><ele>179.33333333333334</ele><time>2026-03-28T14:21:08.328Z</time></trkpt><trkpt lat="43.0370576" lon="12.4559338"><ele>180.0</ele><time>2026-03-28T14:21:09.327Z</time></trkpt><trkpt lat="43.0369954" lon="12.4556662"><ele>179.66666666666666</ele><time>2026-03-28T14:21:10.328Z</time></trkpt><trkpt lat="43.0369495" lon="12.455405"><ele>179.33333333333331</ele><time>2026-03-28T14:21:11.327Z</time></trkpt><trkpt lat="43.0368888" lon="12.4551338"><ele>179.0</ele><time>2026-03-28T14:21:12.328Z</time></trkpt><trkpt lat="43.0368258" lon="12.4548655"><ele>179.66666666666666</ele><time>2026-03-28T14:21:13.327Z</time></trkpt><trkpt lat="43.0367641" lon="12.4545945"><ele>180.33333333333334</ele><time>2026-03-28T14:21:14.328Z</time></trkpt><trkpt lat="43.0367012" lon="12.4543279"><ele>181.0</ele><time>2026-03-28T14:21:15.328Z</time></trkpt><trkpt lat="43.0366414" lon="12.4540569"><ele>180.66666666666669</ele><time>2026-03-28T14:21:16.327Z</time></trkpt><trkpt lat="43.0365804" lon="12.4537828"><ele>180.33333333333334</ele><time>2026-03-28T14:21:17.328Z</time></trkpt><trkpt lat="43.0365168" lon="12.4535163"><ele>180.0</ele><time>2026-03-28T14:21:18.328Z</time></trkpt><trkpt lat="43.0364552" lon="12.4532527"><ele>180.0</ele><time>2026-03-28T14:21:19.328Z</time></trkpt><trkpt lat="43.0363941" lon="12.4529901"><ele>180.0</ele><time>2026-03-28T14:21:20.327Z</time></trkpt><trkpt lat="43.0363386" lon="12.4527307"><ele>180.0</ele><time>2026-03-28T14:21:21.328Z</time></trkpt><trkpt lat="43.0362826" lon="12.4524811"><ele>180.66666666666666</ele><time>2026-03-28T14:21:22.328Z</time></trkpt><trkpt lat="43.036229" lon="12.4522441"><ele>181.33333333333331</ele><time>2026-03-28T14:21:23.327Z</time></trkpt><trkpt lat="43.0361654" lon="12.4520037"><ele>182.0</ele><time>2026-03-28T14:21:24.328Z</time></trkpt><trkpt lat="43.0361232" lon="12.4517728"><ele>183.0</ele><time>2026-03-28T14:21:25.328Z</time></trkpt><trkpt lat="43.0360662" lon="12.4515359"><ele>184.0</ele><time>2026-03-28T14:21:26.328Z</time></trkpt><trkpt lat="43.0360087" lon="12.4513019"><ele>185.0</ele><time>2026-03-28T14:21:27.327Z</time></trkpt><trkpt lat="43.0359638" lon="12.4510812"><ele>186.33333333333331</ele><time>2026-03-28T14:21:28.328Z</time></trkpt><trkpt lat="43.0359256" lon="12.4508784"><ele>187.66666666666666</ele><time>2026-03-28T14:21:29.328Z</time></trkpt><trkpt lat="43.0358642" lon="12.4506693"><ele>189.0</ele><time>2026-03-28T14:21:30.328Z</time></trkpt><trkpt lat="43.0358095" lon="12.4504546"><ele>187.33333333333334</ele><time>2026-03-28T14:21:31.328Z</time></trkpt><trkpt lat="43.0357593" lon="12.4502204"><ele>185.66666666666669</ele><time>2026-03-28T14:21:32.328Z</time></trkpt><trkpt lat="43.0357135" lon="12.4499798"><ele>184.0</ele><time>2026-03-28T14:21:33.328Z</time></trkpt><trkpt lat="43.03566" lon="12.4497369"><ele>184.33333333333334</ele><time>2026-03-28T14:21:34.328Z</time></trkpt><trkpt lat="43.0356018" lon="12.44948"><ele>184.66666666666666</ele><time>2026-03-28T14:21:35.327Z</time></trkpt><trkpt lat="43.0355483" lon="12.4492228"><ele>185.0</ele><time>2026-03-28T14:21:36.327Z</time></trkpt><trkpt lat="43.0354887" lon="12.4489678"><ele>185.66666666666666</ele><time>2026-03-28T14:21:37.328Z</time></trkpt><trkpt lat="43.0354316" lon="12.4487172"><ele>186.33333333333334</ele><time>2026-03-28T14:21:38.328Z</time></trkpt><trkpt lat="43.0353758" lon="12.4484562"><ele>187.0</ele><time>2026-03-28T14:21:39.328Z</time></trkpt><trkpt lat="43.0353267" lon="12.4481995"><ele>187.66666666666669</ele><time>2026-03-28T14:21:40.327Z</time></trkpt><trkpt lat="43.0352723" lon="12.447946"><ele>188.33333333333334</ele><time>2026-03-28T14:21:41.328Z</time></trkpt><trkpt lat="43.0352161" lon="12.4476844"><ele>189.0</ele><time>2026-03-28T14:21:42.328Z</time></trkpt><trkpt lat="43.0351603" lon="12.4474284"><ele>189.0</ele><time>2026-03-28T14:21:43.328Z</time></trkpt><trkpt lat="43.0350987" lon="12.4471707"><ele>189.0</ele><time>2026-03-28T14:21:44.328Z</time></trkpt><trkpt lat="43.0350389" lon="12.4469211"><ele>189.0</ele><time>2026-03-28T14:21:45.328Z</time></trkpt><trkpt lat="43.0349826" lon="12.4466751"><ele>187.33333333333334</ele><time>2026-03-28T14:21:46.328Z</time></trkpt><trkpt lat="43.0349293" lon="12.4464286"><ele>185.66666666666669</ele><time>2026-03-28T14:21:47.328Z</time></trkpt><trkpt lat="43.0348856" lon="12.4461932"><ele>184.0</ele><time>2026-03-28T14:21:48.328Z</time></trkpt><trkpt lat="43.0348399" lon="12.4459814"><ele>184.0</ele><time>2026-03-28T14:21:49.327Z</time></trkpt><trkpt lat="43.0347957" lon="12.4457785"><ele>184.0</ele><time>2026-03-28T14:21:50.328Z</time></trkpt><trkpt lat="43.034742" lon="12.4455735"><ele>184.0</ele><time>2026-03-28T14:21:51.328Z</time></trkpt><trkpt lat="43.0346943" lon="12.4453677"><ele>184.66666666666669</ele><time>2026-03-28T14:21:52.328Z</time></trkpt><trkpt lat="43.0346397" lon="12.4451762"><ele>185.33333333333334</ele><time>2026-03-28T14:21:53.328Z</time></trkpt><trkpt lat="43.0345531" lon="12.4449882"><ele>186.0</ele><time>2026-03-28T14:21:54.328Z</time></trkpt><trkpt lat="43.0344599" lon="12.4448079"><ele>186.0</ele><time>2026-03-28T14:21:55.328Z</time></trkpt><trkpt lat="43.0343464" lon="12.444639"><ele>186.0</ele><time>2026-03-28T14:21:56.327Z</time></trkpt><trkpt lat="43.0342233" lon="12.4444833"><ele>186.0</ele><time>2026-03-28T14:21:57.327Z</time></trkpt><trkpt lat="43.0340951" lon="12.4443249"><ele>185.66666666666666</ele><time>2026-03-28T14:21:58.328Z</time></trkpt><trkpt lat="43.0339671" lon="12.4441688"><ele>185.33333333333331</ele><time>2026-03-28T14:21:59.328Z</time></trkpt><trkpt lat="43.0338244" lon="12.444018"><ele>185.0</ele><time>2026-03-28T14:22:00.328Z</time></trkpt><trkpt lat="43.0336828" lon="12.4438795"><ele>185.0</ele><time>2026-03-28T14:22:01.328Z</time></trkpt><trkpt lat="43.0335356" lon="12.4437366"><ele>185.0</ele><time>2026-03-28T14:22:02.327Z</time></trkpt><trkpt lat="43.0333871" lon="12.4435977"><ele>185.0</ele><time>2026-03-28T14:22:03.328Z</time></trkpt><trkpt lat="43.0332358" lon="12.4434527"><ele>185.0</ele><time>2026-03-28T14:22:04.328Z</time></trkpt><trkpt lat="43.0330893" lon="12.4433089"><ele>185.0</ele><time>2026-03-28T14:22:05.328Z</time></trkpt><trkpt lat="43.0329327" lon="12.4431711"><ele>185.0</ele><time>2026-03-28T14:22:06.328Z</time></trkpt><trkpt lat="43.0327809" lon="12.4430277"><ele>185.0</ele><time>2026-03-28T14:22:07.327Z</time></trkpt><trkpt lat="43.0326353" lon="12.4428776"><ele>185.0</ele><time>2026-03-28T14:22:08.328Z</time></trkpt><trkpt lat="43.0324836" lon="12.4427347"><ele>185.0</ele><time>2026-03-28T14:22:09.327Z</time></trkpt><trkpt lat="43.0323401" lon="12.4425967"><ele>185.33333333333331</ele><time>2026-03-28T14:22:10.328Z</time></trkpt><trkpt lat="43.0321982" lon="12.4424601"><ele>185.66666666666666</ele><time>2026-03-28T14:22:11.327Z</time></trkpt><trkpt lat="43.0320488" lon="12.4423224"><ele>186.0</ele><time>2026-03-28T14:22:12.328Z</time></trkpt><trkpt lat="43.0318986" lon="12.4421868"><ele>186.33333333333334</ele><time>2026-03-28T14:22:13.327Z</time></trkpt><trkpt lat="43.0317513" lon="12.4420451"><ele>186.66666666666669</ele><time>2026-03-28T14:22:14.327Z</time></trkpt><trkpt lat="43.0316076" lon="12.4419086"><ele>187.0</ele><time>2026-03-28T14:22:15.327Z</time></trkpt><trkpt lat="43.0314651" lon="12.4417725"><ele>187.0</ele><time>2026-03-28T14:22:16.328Z</time></trkpt><trkpt lat="43.0313255" lon="12.4416382"><ele>187.0</ele><time>2026-03-28T14:22:17.328Z</time></trkpt><trkpt lat="43.031191" lon="12.4415094"><ele>187.0</ele><time>2026-03-28T14:22:18.328Z</time></trkpt><trkpt lat="43.0310609" lon="12.4413886"><ele>187.0</ele><time>2026-03-28T14:22:19.328Z</time></trkpt><trkpt lat="43.030929" lon="12.4412763"><ele>187.0</ele><time>2026-03-28T14:22:20.328Z</time></trkpt><trkpt lat="43.0308064" lon="12.4411739"><ele>187.0</ele><time>2026-03-28T14:22:21.327Z</time></trkpt><trkpt lat="43.0306827" lon="12.4410881"><ele>187.0</ele><time>2026-03-28T14:22:22.328Z</time></trkpt><trkpt lat="43.0305617" lon="12.4410176"><ele>187.0</ele><time>2026-03-28T14:22:23.328Z</time></trkpt><trkpt lat="43.0304438" lon="12.4409663"><ele>187.0</ele><time>2026-03-28T14:22:24.328Z</time></trkpt><trkpt lat="43.0303309" lon="12.4409291"><ele>187.0</ele><time>2026-03-28T14:22:25.328Z</time></trkpt><trkpt lat="43.0302244" lon="12.4408987"><ele>187.0</ele><time>2026-03-28T14:22:26.327Z</time></trkpt><trkpt lat="43.0301301" lon="12.4408743"><ele>187.0</ele><time>2026-03-28T14:22:27.328Z</time></trkpt><trkpt lat="43.0300455" lon="12.4408483"><ele>187.2</ele><time>2026-03-28T14:22:28.328Z</time></trkpt><trkpt lat="43.0299611" lon="12.4408263"><ele>187.39999999999998</ele><time>2026-03-28T14:22:29.328Z</time></trkpt><trkpt lat="43.0298814" lon="12.4408034"><ele>187.60000000000002</ele><time>2026-03-28T14:22:30.328Z</time></trkpt><trkpt lat="43.0298118" lon="12.4407908"><ele>187.8</ele><time>2026-03-28T14:22:31.328Z</time></trkpt><trkpt lat="43.0296895" lon="12.4407715"><ele>188.0</ele><time>2026-03-28T14:22:33.328Z</time></trkpt><trkpt lat="43.0295868" lon="12.4407542"><ele>188.0</ele><time>2026-03-28T14:22:35.328Z</time></trkpt><trkpt lat="43.0295089" lon="12.440723"><ele>188.0</ele><time>2026-03-28T14:22:37.327Z</time></trkpt><trkpt lat="43.0294262" lon="12.4407038"><ele>188.0</ele><time>2026-03-28T14:22:40.328Z</time></trkpt><trkpt lat="43.0293467" lon="12.4406959"><ele>188.0</ele><time>2026-03-28T14:22:43.328Z</time></trkpt><trkpt lat="43.0292745" lon="12.4406864"><ele>188.0</ele><time>2026-03-28T14:23:07.328Z</time></trkpt><trkpt lat="43.0291639" lon="12.4406344"><ele>188.0</ele><time>2026-03-28T14:23:09.327Z</time></trkpt><trkpt lat="43.0290873" lon="12.4406001"><ele>188.60000000000002</ele><time>2026-03-28T14:23:10.327Z</time></trkpt><trkpt lat="43.029009" lon="12.4405628"><ele>189.20000000000002</ele><time>2026-03-28T14:23:11.328Z</time></trkpt><trkpt lat="43.0289251" lon="12.4405147"><ele>189.8</ele><time>2026-03-28T14:23:12.328Z</time></trkpt><trkpt lat="43.0288313" lon="12.4404738"><ele>190.4</ele><time>2026-03-28T14:23:13.327Z</time></trkpt><trkpt lat="43.0287264" lon="12.4404165"><ele>191.0</ele><time>2026-03-28T14:23:14.328Z</time></trkpt><trkpt lat="43.0286067" lon="12.4403691"><ele>191.5</ele><time>2026-03-28T14:23:15.328Z</time></trkpt><trkpt lat="43.0284752" lon="12.4403147"><ele>192.0</ele><time>2026-03-28T14:23:16.328Z</time></trkpt><trkpt lat="43.0283417" lon="12.4402545"><ele>192.5</ele><time>2026-03-28T14:23:17.328Z</time></trkpt><trkpt lat="43.0282261" lon="12.4401933"><ele>193.0</ele><time>2026-03-28T14:23:18.328Z</time></trkpt><trkpt lat="43.028102" lon="12.4401355"><ele>194.75</ele><time>2026-03-28T14:23:19.328Z</time></trkpt><trkpt lat="43.0279709" lon="12.4400759"><ele>196.5</ele><time>2026-03-28T14:23:20.328Z</time></trkpt><trkpt lat="43.0278414" lon="12.4400057"><ele>198.25</ele><time>2026-03-28T14:23:21.328Z</time></trkpt><trkpt lat="43.027712" lon="12.4399305"><ele>200.0</ele><time>2026-03-28T14:23:22.328Z</time></trkpt><trkpt lat="43.0275866" lon="12.439843"><ele>200.5</ele><time>2026-03-28T14:23:23.328Z</time></trkpt><trkpt lat="43.0274745" lon="12.4397275"><ele>201.0</ele><time>2026-03-28T14:23:24.327Z</time></trkpt><trkpt lat="43.027368" lon="12.4396038"><ele>201.5</ele><time>2026-03-28T14:23:25.327Z</time></trkpt><trkpt lat="43.0272729" lon="12.4394544"><ele>202.0</ele><time>2026-03-28T14:23:26.328Z</time></trkpt><trkpt lat="43.0271869" lon="12.4392958"><ele>203.66666666666666</ele><time>2026-03-28T14:23:27.328Z</time></trkpt><trkpt lat="43.0271038" lon="12.4391257"><ele>205.33333333333331</ele><time>2026-03-28T14:23:28.327Z</time></trkpt><trkpt lat="43.0270278" lon="12.4389452"><ele>207.0</ele><time>2026-03-28T14:23:29.328Z</time></trkpt><trkpt lat="43.0269573" lon="12.4387637"><ele>208.33333333333331</ele><time>2026-03-28T14:23:30.328Z</time></trkpt><trkpt lat="43.02689" lon="12.4385658"><ele>209.66666666666666</ele><time>2026-03-28T14:23:31.328Z</time></trkpt><trkpt lat="43.0268227" lon="12.4383752"><ele>211.0</ele><time>2026-03-28T14:23:32.328Z</time></trkpt><trkpt lat="43.0267517" lon="12.4381924"><ele>211.0</ele><time>2026-03-28T14:23:33.328Z</time></trkpt><trkpt lat="43.0266895" lon="12.4380153"><ele>211.0</ele><time>2026-03-28T14:23:34.328Z</time></trkpt><trkpt lat="43.0266227" lon="12.4378489"><ele>211.0</ele><time>2026-03-28T14:23:35.328Z</time></trkpt><trkpt lat="43.0265575" lon="12.4376815"><ele>211.0</ele><time>2026-03-28T14:23:36.328Z</time></trkpt><trkpt lat="43.0264969" lon="12.4375112"><ele>212.75</ele><time>2026-03-28T14:23:37.328Z</time></trkpt><trkpt lat="43.0264482" lon="12.4373368"><ele>214.5</ele><time>2026-03-28T14:23:38.328Z</time></trkpt><trkpt lat="43.0264112" lon="12.4371504"><ele>216.25</ele><time>2026-03-28T14:23:39.327Z</time></trkpt><trkpt lat="43.0263934" lon="12.4369578"><ele>218.0</ele><time>2026-03-28T14:23:40.328Z</time></trkpt><trkpt lat="43.0263738" lon="12.4367669"><ele>218.0</ele><time>2026-03-28T14:23:41.327Z</time></trkpt><trkpt lat="43.0263607" lon="12.4365625"><ele>218.0</ele><time>2026-03-28T14:23:42.328Z</time></trkpt><trkpt lat="43.0263461" lon="12.4363524"><ele>218.0</ele><time>2026-03-28T14:23:43.328Z</time></trkpt><trkpt lat="43.0263393" lon="12.4361446"><ele>218.0</ele><time>2026-03-28T14:23:44.328Z</time></trkpt><trkpt lat="43.0263507" lon="12.4359505"><ele>218.0</ele><time>2026-03-28T14:23:45.327Z</time></trkpt><trkpt lat="43.0263643" lon="12.4357532"><ele>218.0</ele><time>2026-03-28T14:23:46.328Z</time></trkpt><trkpt lat="43.0263784" lon="12.4355535"><ele>218.0</ele><time>2026-03-28T14:23:47.328Z</time></trkpt><trkpt lat="43.0264047" lon="12.4353666"><ele>218.66666666666669</ele><time>2026-03-28T14:23:48.327Z</time></trkpt><trkpt lat="43.0264474" lon="12.4351684"><ele>219.33333333333331</ele><time>2026-03-28T14:23:49.327Z</time></trkpt><trkpt lat="43.0265041" lon="12.434983"><ele>220.0</ele><time>2026-03-28T14:23:50.328Z</time></trkpt><trkpt lat="43.0265713" lon="12.4347786"><ele>219.66666666666666</ele><time>2026-03-28T14:23:51.328Z</time></trkpt><trkpt lat="43.0266328" lon="12.4345783"><ele>219.33333333333331</ele><time>2026-03-28T14:23:52.327Z</time></trkpt><trkpt lat="43.0266931" lon="12.4343814"><ele>219.0</ele><time>2026-03-28T14:23:53.328Z</time></trkpt><trkpt lat="43.0267559" lon="12.4341804"><ele>215.66666666666669</ele><time>2026-03-28T14:23:54.328Z</time></trkpt><trkpt lat="43.0268249" lon="12.4339781"><ele>212.33333333333334</ele><time>2026-03-28T14:23:55.327Z</time></trkpt><trkpt lat="43.0268898" lon="12.4337854"><ele>209.0</ele><time>2026-03-28T14:23:56.328Z</time></trkpt><trkpt lat="43.0269621" lon="12.4336045"><ele>209.0</ele><time>2026-03-28T14:23:57.328Z</time></trkpt><trkpt lat="43.0270325" lon="12.4334233"><ele>209.0</ele><time>2026-03-28T14:23:58.327Z</time></trkpt><trkpt lat="43.0271012" lon="12.4332409"><ele>209.0</ele><time>2026-03-28T14:23:59.328Z</time></trkpt><trkpt lat="43.0271765" lon="12.4330542"><ele>210.33333333333334</ele><time>2026-03-28T14:24:00.328Z</time></trkpt><trkpt lat="43.0272357" lon="12.4328615"><ele>211.66666666666669</ele><time>2026-03-28T14:24:01.328Z</time></trkpt><trkpt lat="43.0272867" lon="12.4326731"><ele>213.0</ele><time>2026-03-28T14:24:02.328Z</time></trkpt><trkpt lat="43.0273268" lon="12.4324745"><ele>213.0</ele><time>2026-03-28T14:24:03.327Z</time></trkpt><trkpt lat="43.0273806" lon="12.4322559"><ele>213.0</ele><time>2026-03-28T14:24:04.328Z</time></trkpt><trkpt lat="43.0273982" lon="12.4320301"><ele>213.0</ele><time>2026-03-28T14:24:05.327Z</time></trkpt><trkpt lat="43.0274188" lon="12.4318134"><ele>212.0</ele><time>2026-03-28T14:24:06.328Z</time></trkpt><trkpt lat="43.0274377" lon="12.431622"><ele>211.0</ele><time>2026-03-28T14:24:07.327Z</time></trkpt><trkpt lat="43.0274594" lon="12.4314424"><ele>210.0</ele><time>2026-03-28T14:24:08.328Z</time></trkpt><trkpt lat="43.0275174" lon="12.4312661"><ele>209.0</ele><time>2026-03-28T14:24:09.327Z</time></trkpt><trkpt lat="43.0275661" lon="12.4311139"><ele>205.25</ele><time>2026-03-28T14:24:10.328Z</time></trkpt><trkpt lat="43.0276636" lon="12.4309952"><ele>201.5</ele><time>2026-03-28T14:24:11.328Z</time></trkpt><trkpt lat="43.0277641" lon="12.4309138"><ele>197.75</ele><time>2026-03-28T14:24:12.328Z</time></trkpt><trkpt lat="43.0278967" lon="12.4308406"><ele>194.0</ele><time>2026-03-28T14:24:13.328Z</time></trkpt><trkpt lat="43.0280279" lon="12.4307685"><ele>194.0</ele><time>2026-03-28T14:24:14.328Z</time></trkpt><trkpt lat="43.0281644" lon="12.4306922"><ele>194.0</ele><time>2026-03-28T14:24:15.328Z</time></trkpt><trkpt lat="43.0283057" lon="12.4306117"><ele>194.0</ele><time>2026-03-28T14:24:16.327Z</time></trkpt><trkpt lat="43.0284499" lon="12.4305218"><ele>192.0</ele><time>2026-03-28T14:24:17.327Z</time></trkpt><trkpt lat="43.0285915" lon="12.4304131"><ele>190.0</ele><time>2026-03-28T14:24:18.328Z</time></trkpt><trkpt lat="43.0287281" lon="12.4302978"><ele>188.0</ele><time>2026-03-28T14:24:19.328Z</time></trkpt><trkpt lat="43.0288674" lon="12.4301701"><ele>188.0</ele><time>2026-03-28T14:24:20.328Z</time></trkpt><trkpt lat="43.0290087" lon="12.4300462"><ele>188.0</ele><time>2026-03-28T14:24:21.328Z</time></trkpt><trkpt lat="43.0291437" lon="12.4299307"><ele>188.0</ele><time>2026-03-28T14:24:22.328Z</time></trkpt><trkpt lat="43.0292721" lon="12.429802"><ele>187.33333333333331</ele><time>2026-03-28T14:24:23.328Z</time></trkpt><trkpt lat="43.0293827" lon="12.4296555"><ele>186.66666666666666</ele><time>2026-03-28T14:24:24.327Z</time></trkpt><trkpt lat="43.0294863" lon="12.4294981"><ele>186.0</ele><time>2026-03-28T14:24:25.328Z</time></trkpt><trkpt lat="43.0295843" lon="12.4293115"><ele>185.0</ele><time>2026-03-28T14:24:26.328Z</time></trkpt><trkpt lat="43.0296756" lon="12.4291197"><ele>184.0</ele><time>2026-03-28T14:24:27.327Z</time></trkpt><trkpt lat="43.0297668" lon="12.4289401"><ele>183.0</ele><time>2026-03-28T14:24:28.328Z</time></trkpt><trkpt lat="43.0298659" lon="12.4287823"><ele>181.0</ele><time>2026-03-28T14:24:29.327Z</time></trkpt><trkpt lat="43.0299856" lon="12.4286438"><ele>179.0</ele><time>2026-03-28T14:24:30.327Z</time></trkpt><trkpt lat="43.0301195" lon="12.4285245"><ele>177.0</ele><time>2026-03-28T14:24:31.327Z</time></trkpt><trkpt lat="43.0302664" lon="12.4284086"><ele>177.0</ele><time>2026-03-28T14:24:32.327Z</time></trkpt><trkpt lat="43.0304196" lon="12.4282914"><ele>177.0</ele><time>2026-03-28T14:24:33.327Z</time></trkpt><trkpt lat="43.0305777" lon="12.4281727"><ele>177.0</ele><time>2026-03-28T14:24:34.328Z</time></trkpt><trkpt lat="43.030733" lon="12.4280486"><ele>175.33333333333334</ele><time>2026-03-28T14:24:35.328Z</time></trkpt><trkpt lat="43.0308942" lon="12.4279413"><ele>173.66666666666669</ele><time>2026-03-28T14:24:36.328Z</time></trkpt><trkpt lat="43.0310661" lon="12.4278175"><ele>172.0</ele><time>2026-03-28T14:24:37.327Z</time></trkpt><trkpt lat="43.0312279" lon="12.4276954"><ele>172.0</ele><time>2026-03-28T14:24:38.328Z</time></trkpt><trkpt lat="43.031395" lon="12.4275848"><ele>172.0</ele><time>2026-03-28T14:24:39.328Z</time></trkpt><trkpt lat="43.0315622" lon="12.4274824"><ele>172.0</ele><time>2026-03-28T14:24:40.327Z</time></trkpt><trkpt lat="43.0317351" lon="12.4273935"><ele>172.0</ele><time>2026-03-28T14:24:41.328Z</time></trkpt><trkpt lat="43.0318988" lon="12.4272995"><ele>172.0</ele><time>2026-03-28T14:24:42.328Z</time></trkpt><trkpt lat="43.0320632" lon="12.4272042"><ele>172.0</ele><time>2026-03-28T14:24:43.328Z</time></trkpt><trkpt lat="43.0322309" lon="12.4271159"><ele>172.0</ele><time>2026-03-28T14:24:44.328Z</time></trkpt><trkpt lat="43.032396" lon="12.4270243"><ele>172.0</ele><time>2026-03-28T14:24:45.327Z</time></trkpt><trkpt lat="43.0325582" lon="12.4269197"><ele>172.0</ele><time>2026-03-28T14:24:46.328Z</time></trkpt><trkpt lat="43.0327119" lon="12.4267937"><ele>172.0</ele><time>2026-03-28T14:24:47.327Z</time></trkpt><trkpt lat="43.0328417" lon="12.4266462"><ele>172.0</ele><time>2026-03-28T14:24:48.328Z</time></trkpt><trkpt lat="43.0329497" lon="12.4264598"><ele>172.0</ele><time>2026-03-28T14:24:49.328Z</time></trkpt><trkpt lat="43.0330432" lon="12.4262541"><ele>172.0</ele><time>2026-03-28T14:24:50.328Z</time></trkpt><trkpt lat="43.0331339" lon="12.4260392"><ele>172.0</ele><time>2026-03-28T14:24:51.328Z</time></trkpt><trkpt lat="43.0332197" lon="12.4258144"><ele>172.0</ele><time>2026-03-28T14:24:52.327Z</time></trkpt><trkpt lat="43.0333072" lon="12.4255955"><ele>172.0</ele><time>2026-03-28T14:24:53.328Z</time></trkpt><trkpt lat="43.0333929" lon="12.4253656"><ele>172.0</ele><time>2026-03-28T14:24:54.328Z</time></trkpt><trkpt lat="43.033477" lon="12.42514"><ele>172.0</ele><time>2026-03-28T14:24:55.328Z</time></trkpt><trkpt lat="43.0335668" lon="12.4249077"><ele>172.0</ele><time>2026-03-28T14:24:56.328Z</time></trkpt><trkpt lat="43.0336479" lon="12.4246849"><ele>172.0</ele><time>2026-03-28T14:24:57.327Z</time></trkpt><trkpt lat="43.0337315" lon="12.4244615"><ele>172.0</ele><time>2026-03-28T14:24:58.328Z</time></trkpt><trkpt lat="43.0338094" lon="12.4242356"><ele>172.66666666666669</ele><time>2026-03-28T14:24:59.328Z</time></trkpt><trkpt lat="43.0338916" lon="12.4240137"><ele>173.33333333333334</ele><time>2026-03-28T14:25:00.328Z</time></trkpt><trkpt lat="43.033972" lon="12.4237966"><ele>174.0</ele><time>2026-03-28T14:25:01.328Z</time></trkpt><trkpt lat="43.0340548" lon="12.4235793"><ele>173.33333333333334</ele><time>2026-03-28T14:25:02.328Z</time></trkpt><trkpt lat="43.0341344" lon="12.423372"><ele>172.66666666666669</ele><time>2026-03-28T14:25:03.327Z</time></trkpt><trkpt lat="43.0342253" lon="12.4231733"><ele>172.0</ele><time>2026-03-28T14:25:04.327Z</time></trkpt><trkpt lat="43.0343376" lon="12.4229939"><ele>172.66666666666669</ele><time>2026-03-28T14:25:05.328Z</time></trkpt><trkpt lat="43.0344593" lon="12.42283"><ele>173.33333333333334</ele><time>2026-03-28T14:25:06.327Z</time></trkpt><trkpt lat="43.0345851" lon="12.4226792"><ele>174.0</ele><time>2026-03-28T14:25:07.327Z</time></trkpt><trkpt lat="43.0347204" lon="12.4225177"><ele>174.0</ele><time>2026-03-28T14:25:08.328Z</time></trkpt><trkpt lat="43.0348557" lon="12.4223716"><ele>174.0</ele><time>2026-03-28T14:25:09.328Z</time></trkpt><trkpt lat="43.0349804" lon="12.4222342"><ele>174.0</ele><time>2026-03-28T14:25:10.328Z</time></trkpt><trkpt lat="43.0350994" lon="12.422095"><ele>173.33333333333334</ele><time>2026-03-28T14:25:11.328Z</time></trkpt><trkpt lat="43.0352207" lon="12.4219525"><ele>172.66666666666669</ele><time>2026-03-28T14:25:12.328Z</time></trkpt><trkpt lat="43.0353394" lon="12.4218147"><ele>172.0</ele><time>2026-03-28T14:25:13.328Z</time></trkpt><trkpt lat="43.0354511" lon="12.421691"><ele>172.0</ele><time>2026-03-28T14:25:14.327Z</time></trkpt><trkpt lat="43.0355349" lon="12.42154"><ele>172.0</ele><time>2026-03-28T14:25:15.328Z</time></trkpt><trkpt lat="43.0355902" lon="12.421352"><ele>172.0</ele><time>2026-03-28T14:25:16.327Z</time></trkpt><trkpt lat="43.0356313" lon="12.4211575"><ele>172.0</ele><time>2026-03-28T14:25:17.328Z</time></trkpt><trkpt lat="43.0356767" lon="12.4209457"><ele>171.66666666666669</ele><time>2026-03-28T14:25:18.327Z</time></trkpt><trkpt lat="43.0357157" lon="12.4207107"><ele>171.33333333333334</ele><time>2026-03-28T14:25:19.327Z</time></trkpt><trkpt lat="43.0357521" lon="12.4204766"><ele>171.0</ele><time>2026-03-28T14:25:20.327Z</time></trkpt><trkpt lat="43.03579" lon="12.4202352"><ele>171.33333333333334</ele><time>2026-03-28T14:25:21.328Z</time></trkpt><trkpt lat="43.0358311" lon="12.4199972"><ele>171.66666666666669</ele><time>2026-03-28T14:25:22.328Z</time></trkpt><trkpt lat="43.0358784" lon="12.4197584"><ele>172.0</ele><time>2026-03-28T14:25:23.328Z</time></trkpt><trkpt lat="43.0359251" lon="12.4195129"><ele>172.0</ele><time>2026-03-28T14:25:24.327Z</time></trkpt><trkpt lat="43.0359734" lon="12.4192678"><ele>172.0</ele><time>2026-03-28T14:25:25.328Z</time></trkpt><trkpt lat="43.0360205" lon="12.4190183"><ele>172.0</ele><time>2026-03-28T14:25:26.328Z</time></trkpt><trkpt lat="43.0360694" lon="12.4187675"><ele>172.0</ele><time>2026-03-28T14:25:27.328Z</time></trkpt><trkpt lat="43.0361227" lon="12.4185214"><ele>172.0</ele><time>2026-03-28T14:25:28.327Z</time></trkpt><trkpt lat="43.0361621" lon="12.4182793"><ele>172.0</ele><time>2026-03-28T14:25:29.328Z</time></trkpt><trkpt lat="43.0362042" lon="12.4180373"><ele>171.66666666666669</ele><time>2026-03-28T14:25:30.328Z</time></trkpt><trkpt lat="43.0362412" lon="12.4177995"><ele>171.33333333333334</ele><time>2026-03-28T14:25:31.328Z</time></trkpt><trkpt lat="43.0362862" lon="12.4175622"><ele>171.0</ele><time>2026-03-28T14:25:32.328Z</time></trkpt><trkpt lat="43.0363343" lon="12.4173237"><ele>171.0</ele><time>2026-03-28T14:25:33.328Z</time></trkpt><trkpt lat="43.0363801" lon="12.4170921"><ele>171.0</ele><time>2026-03-28T14:25:34.328Z</time></trkpt><trkpt lat="43.0364229" lon="12.4168655"><ele>171.0</ele><time>2026-03-28T14:25:35.328Z</time></trkpt><trkpt lat="43.0364684" lon="12.4166546"><ele>171.0</ele><time>2026-03-28T14:25:36.328Z</time></trkpt><trkpt lat="43.0365113" lon="12.416455"><ele>171.0</ele><time>2026-03-28T14:25:37.328Z</time></trkpt><trkpt lat="43.0365525" lon="12.4162676"><ele>171.0</ele><time>2026-03-28T14:25:38.328Z</time></trkpt><trkpt lat="43.036593" lon="12.4161043"><ele>171.0</ele><time>2026-03-28T14:25:39.328Z</time></trkpt><trkpt lat="43.036605" lon="12.4159547"><ele>171.0</ele><time>2026-03-28T14:25:40.327Z</time></trkpt><trkpt lat="43.0366061" lon="12.4158193"><ele>171.0</ele><time>2026-03-28T14:25:41.327Z</time></trkpt><trkpt lat="43.0365876" lon="12.4156942"><ele>171.0</ele><time>2026-03-28T14:25:42.327Z</time></trkpt><trkpt lat="43.0365564" lon="12.4155828"><ele>171.0</ele><time>2026-03-28T14:25:43.327Z</time></trkpt><trkpt lat="43.0365045" lon="12.4154692"><ele>171.0</ele><time>2026-03-28T14:25:44.328Z</time></trkpt><trkpt lat="43.0364277" lon="12.4153621"><ele>170.75</ele><time>2026-03-28T14:25:45.328Z</time></trkpt><trkpt lat="43.0363447" lon="12.4152427"><ele>170.5</ele><time>2026-03-28T14:25:46.327Z</time></trkpt><trkpt lat="43.036246" lon="12.4151168"><ele>170.25</ele><time>2026-03-28T14:25:47.327Z</time></trkpt><trkpt lat="43.0361377" lon="12.4149764"><ele>170.0</ele><time>2026-03-28T14:25:48.327Z</time></trkpt><trkpt lat="43.0360238" lon="12.4148291"><ele>170.0</ele><time>2026-03-28T14:25:49.327Z</time></trkpt><trkpt lat="43.0359002" lon="12.4146683"><ele>170.0</ele><time>2026-03-28T14:25:50.328Z</time></trkpt><trkpt lat="43.0357669" lon="12.414504"><ele>170.0</ele><time>2026-03-28T14:25:51.328Z</time></trkpt><trkpt lat="43.0356301" lon="12.4143351"><ele>170.0</ele><time>2026-03-28T14:25:52.328Z</time></trkpt><trkpt lat="43.0355013" lon="12.4141614"><ele>170.0</ele><time>2026-03-28T14:25:53.328Z</time></trkpt><trkpt lat="43.0353654" lon="12.4139871"><ele>170.0</ele><time>2026-03-28T14:25:54.327Z</time></trkpt><trkpt lat="43.0352324" lon="12.4138229"><ele>170.33333333333331</ele><time>2026-03-28T14:25:55.328Z</time></trkpt><trkpt lat="43.0350875" lon="12.4136799"><ele>170.66666666666666</ele><time>2026-03-28T14:25:56.328Z</time></trkpt><trkpt lat="43.0349363" lon="12.4135457"><ele>171.0</ele><time>2026-03-28T14:25:57.328Z</time></trkpt><trkpt lat="43.0347699" lon="12.4134211"><ele>171.0</ele><time>2026-03-28T14:25:58.328Z</time></trkpt><trkpt lat="43.0346047" lon="12.4133097"><ele>171.0</ele><time>2026-03-28T14:25:59.328Z</time></trkpt><trkpt lat="43.0344311" lon="12.4132127"><ele>171.0</ele><time>2026-03-28T14:26:00.327Z</time></trkpt><trkpt lat="43.0342561" lon="12.4131195"><ele>171.33333333333334</ele><time>2026-03-28T14:26:01.328Z</time></trkpt><trkpt lat="43.0340765" lon="12.4130379"><ele>171.66666666666669</ele><time>2026-03-28T14:26:02.328Z</time></trkpt><trkpt lat="43.0339042" lon="12.4129472"><ele>172.0</ele><time>2026-03-28T14:26:03.328Z</time></trkpt><trkpt lat="43.033731" lon="12.4128634"><ele>171.66666666666669</ele><time>2026-03-28T14:26:04.328Z</time></trkpt><trkpt lat="43.0335646" lon="12.4127705"><ele>171.33333333333334</ele><time>2026-03-28T14:26:05.327Z</time></trkpt><trkpt lat="43.0334111" lon="12.4126713"><ele>171.0</ele><time>2026-03-28T14:26:06.328Z</time></trkpt><trkpt lat="43.0332683" lon="12.4125463"><ele>171.0</ele><time>2026-03-28T14:26:07.328Z</time></trkpt><trkpt lat="43.0331391" lon="12.4124141"><ele>171.0</ele><time>2026-03-28T14:26:08.327Z</time></trkpt><trkpt lat="43.0330191" lon="12.412271"><ele>171.0</ele><time>2026-03-28T14:26:09.327Z</time></trkpt><trkpt lat="43.0329361" lon="12.4121039"><ele>171.66666666666666</ele><time>2026-03-28T14:26:10.328Z</time></trkpt><trkpt lat="43.0328611" lon="12.4119228"><ele>172.33333333333331</ele><time>2026-03-28T14:26:11.328Z</time></trkpt><trkpt lat="43.0327976" lon="12.4117289"><ele>173.0</ele><time>2026-03-28T14:26:12.328Z</time></trkpt><trkpt lat="43.0327369" lon="12.4115238"><ele>173.0</ele><time>2026-03-28T14:26:13.327Z</time></trkpt><trkpt lat="43.0326809" lon="12.411312"><ele>173.0</ele><time>2026-03-28T14:26:14.328Z</time></trkpt><trkpt lat="43.0326201" lon="12.4110985"><ele>173.0</ele><time>2026-03-28T14:26:15.327Z</time></trkpt><trkpt lat="43.0325606" lon="12.4108861"><ele>173.0</ele><time>2026-03-28T14:26:16.328Z</time></trkpt><trkpt lat="43.0325102" lon="12.4106608"><ele>173.0</ele><time>2026-03-28T14:26:17.328Z</time></trkpt><trkpt lat="43.0324418" lon="12.4104429"><ele>173.0</ele><time>2026-03-28T14:26:18.328Z</time></trkpt><trkpt lat="43.0323768" lon="12.4102081"><ele>172.66666666666666</ele><time>2026-03-28T14:26:19.328Z</time></trkpt><trkpt lat="43.0323074" lon="12.4099738"><ele>172.33333333333334</ele><time>2026-03-28T14:26:20.328Z</time></trkpt><trkpt lat="43.032241" lon="12.4097407"><ele>172.0</ele><time>2026-03-28T14:26:21.328Z</time></trkpt><trkpt lat="43.0321757" lon="12.409512"><ele>172.0</ele><time>2026-03-28T14:26:22.328Z</time></trkpt><trkpt lat="43.0321165" lon="12.4092806"><ele>172.0</ele><time>2026-03-28T14:26:23.328Z</time></trkpt><trkpt lat="43.0320665" lon="12.4090402"><ele>172.0</ele><time>2026-03-28T14:26:24.328Z</time></trkpt><trkpt lat="43.0320397" lon="12.4088079"><ele>171.66666666666669</ele><time>2026-03-28T14:26:25.328Z</time></trkpt><trkpt lat="43.0320425" lon="12.4085763"><ele>171.33333333333334</ele><time>2026-03-28T14:26:26.328Z</time></trkpt><trkpt lat="43.0320625" lon="12.4083421"><ele>171.0</ele><time>2026-03-28T14:26:27.327Z</time></trkpt><trkpt lat="43.0320813" lon="12.4081052"><ele>171.66666666666666</ele><time>2026-03-28T14:26:28.327Z</time></trkpt><trkpt lat="43.0321215" lon="12.4078792"><ele>172.33333333333331</ele><time>2026-03-28T14:26:29.328Z</time></trkpt><trkpt lat="43.0321675" lon="12.4076497"><ele>173.0</ele><time>2026-03-28T14:26:30.327Z</time></trkpt><trkpt lat="43.0322266" lon="12.4074226"><ele>173.0</ele><time>2026-03-28T14:26:31.327Z</time></trkpt><trkpt lat="43.0322896" lon="12.4071995"><ele>173.0</ele><time>2026-03-28T14:26:32.328Z</time></trkpt><trkpt lat="43.0323534" lon="12.4069747"><ele>173.0</ele><time>2026-03-28T14:26:33.328Z</time></trkpt><trkpt lat="43.0324181" lon="12.4067495"><ele>173.33333333333331</ele><time>2026-03-28T14:26:34.328Z</time></trkpt><trkpt lat="43.0324795" lon="12.4065227"><ele>173.66666666666666</ele><time>2026-03-28T14:26:35.327Z</time></trkpt><trkpt lat="43.0325409" lon="12.4063021"><ele>174.0</ele><time>2026-03-28T14:26:36.328Z</time></trkpt><trkpt lat="43.0325999" lon="12.406071"><ele>174.0</ele><time>2026-03-28T14:26:37.328Z</time></trkpt><trkpt lat="43.032655" lon="12.405839"><ele>174.0</ele><time>2026-03-28T14:26:38.328Z</time></trkpt><trkpt lat="43.0327147" lon="12.4056028"><ele>174.0</ele><time>2026-03-28T14:26:39.328Z</time></trkpt><trkpt lat="43.0327779" lon="12.405368"><ele>174.0</ele><time>2026-03-28T14:26:40.327Z</time></trkpt><trkpt lat="43.0328386" lon="12.4051292"><ele>174.0</ele><time>2026-03-28T14:26:41.328Z</time></trkpt><trkpt lat="43.0329021" lon="12.4048919"><ele>174.0</ele><time>2026-03-28T14:26:42.327Z</time></trkpt><trkpt lat="43.0329667" lon="12.4046635"><ele>174.66666666666666</ele><time>2026-03-28T14:26:43.327Z</time></trkpt><trkpt lat="43.0330354" lon="12.4044367"><ele>175.33333333333331</ele><time>2026-03-28T14:26:44.327Z</time></trkpt><trkpt lat="43.0330996" lon="12.4042044"><ele>176.0</ele><time>2026-03-28T14:26:45.328Z</time></trkpt><trkpt lat="43.0331607" lon="12.4039824"><ele>175.66666666666666</ele><time>2026-03-28T14:26:46.328Z</time></trkpt><trkpt lat="43.0332155" lon="12.4037587"><ele>175.33333333333334</ele><time>2026-03-28T14:26:47.327Z</time></trkpt><trkpt lat="43.0332751" lon="12.4035375"><ele>175.0</ele><time>2026-03-28T14:26:48.327Z</time></trkpt><trkpt lat="43.0333393" lon="12.4033185"><ele>174.66666666666669</ele><time>2026-03-28T14:26:49.328Z</time></trkpt><trkpt lat="43.0334026" lon="12.4030945"><ele>174.33333333333334</ele><time>2026-03-28T14:26:50.327Z</time></trkpt><trkpt lat="43.0334622" lon="12.4028747"><ele>174.0</ele><time>2026-03-28T14:26:51.327Z</time></trkpt><trkpt lat="43.0335205" lon="12.4026463"><ele>174.33333333333334</ele><time>2026-03-28T14:26:52.327Z</time></trkpt><trkpt lat="43.033576" lon="12.4024316"><ele>174.66666666666669</ele><time>2026-03-28T14:26:53.328Z</time></trkpt><trkpt lat="43.0336315" lon="12.4022141"><ele>175.0</ele><time>2026-03-28T14:26:54.328Z</time></trkpt><trkpt lat="43.0336824" lon="12.4020144"><ele>175.0</ele><time>2026-03-28T14:26:55.328Z</time></trkpt><trkpt lat="43.0337321" lon="12.4018292"><ele>175.0</ele><time>2026-03-28T14:26:56.328Z</time></trkpt><trkpt lat="43.0337811" lon="12.4016262"><ele>175.0</ele><time>2026-03-28T14:26:57.328Z</time></trkpt><trkpt lat="43.0338291" lon="12.4014297"><ele>174.5</ele><time>2026-03-28T14:26:58.328Z</time></trkpt><trkpt lat="43.0338841" lon="12.4012433"><ele>174.0</ele><time>2026-03-28T14:26:59.328Z</time></trkpt><trkpt lat="43.0339409" lon="12.4010666"><ele>173.5</ele><time>2026-03-28T14:27:00.328Z</time></trkpt><trkpt lat="43.0339967" lon="12.400902"><ele>173.0</ele><time>2026-03-28T14:27:01.328Z</time></trkpt><trkpt lat="43.0340576" lon="12.4007405"><ele>173.0</ele><time>2026-03-28T14:27:02.327Z</time></trkpt><trkpt lat="43.0341136" lon="12.4005853"><ele>173.0</ele><time>2026-03-28T14:27:03.328Z</time></trkpt><trkpt lat="43.0341702" lon="12.4004357"><ele>173.0</ele><time>2026-03-28T14:27:04.328Z</time></trkpt><trkpt lat="43.034232" lon="12.4002894"><ele>173.0</ele><time>2026-03-28T14:27:05.328Z</time></trkpt><trkpt lat="43.0342942" lon="12.4001583"><ele>173.4</ele><time>2026-03-28T14:27:06.328Z</time></trkpt><trkpt lat="43.0343546" lon="12.4000331"><ele>173.8</ele><time>2026-03-28T14:27:07.327Z</time></trkpt><trkpt lat="43.0344061" lon="12.3999151"><ele>174.2</ele><time>2026-03-28T14:27:08.327Z</time></trkpt><trkpt lat="43.0344646" lon="12.399791"><ele>174.6</ele><time>2026-03-28T14:27:09.328Z</time></trkpt><trkpt lat="43.0345229" lon="12.3997034"><ele>175.0</ele><time>2026-03-28T14:27:10.327Z</time></trkpt><trkpt lat="43.0345647" lon="12.399622"><ele>175.33333333333334</ele><time>2026-03-28T14:27:11.328Z</time></trkpt><trkpt lat="43.0346063" lon="12.3995521"><ele>175.66666666666669</ele><time>2026-03-28T14:27:12.328Z</time></trkpt><trkpt lat="43.0346547" lon="12.3994912"><ele>176.0</ele><time>2026-03-28T14:27:13.328Z</time></trkpt><trkpt lat="43.0347403" lon="12.3993895"><ele>176.33333333333334</ele><time>2026-03-28T14:27:15.327Z</time></trkpt><trkpt lat="43.0348399" lon="12.399306"><ele>176.66666666666666</ele><time>2026-03-28T14:27:17.328Z</time></trkpt><trkpt lat="43.0348777" lon="12.3992182"><ele>177.0</ele><time>2026-03-28T14:27:18.328Z</time></trkpt><trkpt lat="43.0349159" lon="12.3991432"><ele>177.0</ele><time>2026-03-28T14:27:19.328Z</time></trkpt><trkpt lat="43.0348475" lon="12.3989988"><ele>177.0</ele><time>2026-03-28T14:27:21.328Z</time></trkpt><trkpt lat="43.0347896" lon="12.3989617"><ele>177.0</ele><time>2026-03-28T14:27:22.328Z</time></trkpt><trkpt lat="43.0347109" lon="12.3989476"><ele>177.0</ele><time>2026-03-28T14:27:23.328Z</time></trkpt><trkpt lat="43.0346197" lon="12.3989404"><ele>177.0</ele><time>2026-03-28T14:27:24.328Z</time></trkpt><trkpt lat="43.0345139" lon="12.398925"><ele>177.0</ele><time>2026-03-28T14:27:25.327Z</time></trkpt><trkpt lat="43.0344082" lon="12.3988845"><ele>177.0</ele><time>2026-03-28T14:27:26.328Z</time></trkpt><trkpt lat="43.0343049" lon="12.3988258"><ele>177.0</ele><time>2026-03-28T14:27:27.328Z</time></trkpt><trkpt lat="43.0342061" lon="12.3987578"><ele>177.0</ele><time>2026-03-28T14:27:28.328Z</time></trkpt><trkpt lat="43.0341105" lon="12.3986859"><ele>177.0</ele><time>2026-03-28T14:27:29.328Z</time></trkpt><trkpt lat="43.0340154" lon="12.398609"><ele>177.0</ele><time>2026-03-28T14:27:30.328Z</time></trkpt><trkpt lat="43.0339176" lon="12.3985338"><ele>177.0</ele><time>2026-03-28T14:27:31.328Z</time></trkpt><trkpt lat="43.0338136" lon="12.3984606"><ele>177.0</ele><time>2026-03-28T14:27:32.328Z</time></trkpt><trkpt lat="43.0337127" lon="12.3983931"><ele>177.0</ele><time>2026-03-28T14:27:33.328Z</time></trkpt><trkpt lat="43.0336135" lon="12.3983447"><ele>177.0</ele><time>2026-03-28T14:27:34.327Z</time></trkpt><trkpt lat="43.0335134" lon="12.3983069"><ele>177.0</ele><time>2026-03-28T14:27:35.328Z</time></trkpt><trkpt lat="43.0334097" lon="12.3982767"><ele>177.0</ele><time>2026-03-28T14:27:36.328Z</time></trkpt><trkpt lat="43.0333023" lon="12.3982665"><ele>177.0</ele><time>2026-03-28T14:27:37.328Z</time></trkpt><trkpt lat="43.0331972" lon="12.398253"><ele>177.0</ele><time>2026-03-28T14:27:38.327Z</time></trkpt><trkpt lat="43.033094" lon="12.3982313"><ele>177.0</ele><time>2026-03-28T14:27:39.328Z</time></trkpt><trkpt lat="43.0329839" lon="12.398226"><ele>177.39999999999998</ele><time>2026-03-28T14:27:40.328Z</time></trkpt><trkpt lat="43.0328728" lon="12.3982185"><ele>177.79999999999998</ele><time>2026-03-28T14:27:41.328Z</time></trkpt><trkpt lat="43.0327642" lon="12.3982188"><ele>178.2</ele><time>2026-03-28T14:27:42.328Z</time></trkpt><trkpt lat="43.032652" lon="12.39822"><ele>178.6</ele><time>2026-03-28T14:27:43.328Z</time></trkpt><trkpt lat="43.0325408" lon="12.3982211"><ele>179.0</ele><time>2026-03-28T14:27:44.327Z</time></trkpt><trkpt lat="43.0324343" lon="12.398222"><ele>179.0</ele><time>2026-03-28T14:27:45.328Z</time></trkpt><trkpt lat="43.0323165" lon="12.3982313"><ele>179.0</ele><time>2026-03-28T14:27:46.328Z</time></trkpt><trkpt lat="43.0321983" lon="12.3982341"><ele>179.0</ele><time>2026-03-28T14:27:47.328Z</time></trkpt><trkpt lat="43.0320614" lon="12.3982435"><ele>179.0</ele><time>2026-03-28T14:27:48.328Z</time></trkpt><trkpt lat="43.0319182" lon="12.3982614"><ele>179.0</ele><time>2026-03-28T14:27:49.327Z</time></trkpt><trkpt lat="43.0317652" lon="12.3982822"><ele>179.0</ele><time>2026-03-28T14:27:50.328Z</time></trkpt><trkpt lat="43.0316133" lon="12.3983113"><ele>179.0</ele><time>2026-03-28T14:27:51.328Z</time></trkpt><trkpt lat="43.031463" lon="12.3983355"><ele>178.0</ele><time>2026-03-28T14:27:52.328Z</time></trkpt><trkpt lat="43.0313168" lon="12.3983632"><ele>177.0</ele><time>2026-03-28T14:27:53.327Z</time></trkpt><trkpt lat="43.0311762" lon="12.3983994"><ele>176.0</ele><time>2026-03-28T14:27:54.327Z</time></trkpt><trkpt lat="43.031039" lon="12.3984251"><ele>175.0</ele><time>2026-03-28T14:27:55.328Z</time></trkpt><trkpt lat="43.0309052" lon="12.3984429"><ele>175.25</ele><time>2026-03-28T14:27:56.328Z</time></trkpt><trkpt lat="43.0307656" lon="12.3984647"><ele>175.5</ele><time>2026-03-28T14:27:57.328Z</time></trkpt><trkpt lat="43.0306247" lon="12.3984751"><ele>175.75</ele><time>2026-03-28T14:27:58.327Z</time></trkpt><trkpt lat="43.030478" lon="12.3984814"><ele>176.0</ele><time>2026-03-28T14:27:59.328Z</time></trkpt><trkpt lat="43.03032" lon="12.398496"><ele>176.0</ele><time>2026-03-28T14:28:00.327Z</time></trkpt><trkpt lat="43.0301662" lon="12.3984913"><ele>176.0</ele><time>2026-03-28T14:28:01.328Z</time></trkpt><trkpt lat="43.0299958" lon="12.3984818"><ele>176.0</ele><time>2026-03-28T14:28:02.328Z</time></trkpt><trkpt lat="43.0298236" lon="12.3984766"><ele>176.0</ele><time>2026-03-28T14:28:03.327Z</time></trkpt><trkpt lat="43.0296493" lon="12.3984673"><ele>176.0</ele><time>2026-03-28T14:28:04.328Z</time></trkpt><trkpt lat="43.0294835" lon="12.3984571"><ele>176.0</ele><time>2026-03-28T14:28:05.328Z</time></trkpt><trkpt lat="43.0293197" lon="12.3984402"><ele>176.0</ele><time>2026-03-28T14:28:06.327Z</time></trkpt><trkpt lat="43.0291649" lon="12.39843"><ele>176.0</ele><time>2026-03-28T14:28:07.328Z</time></trkpt><trkpt lat="43.0290207" lon="12.3984194"><ele>176.0</ele><time>2026-03-28T14:28:08.328Z</time></trkpt><trkpt lat="43.0288843" lon="12.3983981"><ele>176.0</ele><time>2026-03-28T14:28:09.328Z</time></trkpt><trkpt lat="43.0287546" lon="12.398379"><ele>176.20000000000002</ele><time>2026-03-28T14:28:10.327Z</time></trkpt><trkpt lat="43.0286365" lon="12.3983511"><ele>176.4</ele><time>2026-03-28T14:28:11.327Z</time></trkpt><trkpt lat="43.0285282" lon="12.3983243"><ele>176.6</ele><time>2026-03-28T14:28:12.328Z</time></trkpt><trkpt lat="43.0284274" lon="12.3983049"><ele>176.8</ele><time>2026-03-28T14:28:13.328Z</time></trkpt><trkpt lat="43.0283401" lon="12.3982799"><ele>177.0</ele><time>2026-03-28T14:28:14.328Z</time></trkpt><trkpt lat="43.0282508" lon="12.3982513"><ele>176.6</ele><time>2026-03-28T14:28:15.328Z</time></trkpt><trkpt lat="43.028163" lon="12.3982227"><ele>176.2</ele><time>2026-03-28T14:28:16.328Z</time></trkpt><trkpt lat="43.0280435" lon="12.3981806"><ele>175.8</ele><time>2026-03-28T14:28:18.327Z</time></trkpt><trkpt lat="43.0279727" lon="12.398175"><ele>175.4</ele><time>2026-03-28T14:28:20.327Z</time></trkpt><trkpt lat="43.0279094" lon="12.398138"><ele>175.0</ele><time>2026-03-28T14:28:27.327Z</time></trkpt><trkpt lat="43.0278066" lon="12.3980327"><ele>175.16666666666669</ele><time>2026-03-28T14:28:29.328Z</time></trkpt><trkpt lat="43.0277514" lon="12.3979632"><ele>175.33333333333334</ele><time>2026-03-28T14:28:30.328Z</time></trkpt><trkpt lat="43.0276964" lon="12.3978925"><ele>175.5</ele><time>2026-03-28T14:28:31.328Z</time></trkpt><trkpt lat="43.0276305" lon="12.3978185"><ele>175.66666666666666</ele><time>2026-03-28T14:28:32.328Z</time></trkpt><trkpt lat="43.0275568" lon="12.3977391"><ele>175.83333333333331</ele><time>2026-03-28T14:28:33.327Z</time></trkpt><trkpt lat="43.027481" lon="12.3976315"><ele>176.0</ele><time>2026-03-28T14:28:34.328Z</time></trkpt><trkpt lat="43.0273969" lon="12.3975393"><ele>175.25</ele><time>2026-03-28T14:28:35.327Z</time></trkpt><trkpt lat="43.0272925" lon="12.3974471"><ele>174.5</ele><time>2026-03-28T14:28:36.327Z</time></trkpt><trkpt lat="43.0271779" lon="12.3973766"><ele>173.75</ele><time>2026-03-28T14:28:37.327Z</time></trkpt><trkpt lat="43.0270543" lon="12.397331"><ele>173.0</ele><time>2026-03-28T14:28:38.327Z</time></trkpt><trkpt lat="43.0269181" lon="12.3973105"><ele>173.0</ele><time>2026-03-28T14:28:39.328Z</time></trkpt><trkpt lat="43.0267718" lon="12.3973032"><ele>173.0</ele><time>2026-03-28T14:28:40.327Z</time></trkpt><trkpt lat="43.0266202" lon="12.3972938"><ele>173.0</ele><time>2026-03-28T14:28:41.328Z</time></trkpt><trkpt lat="43.0264682" lon="12.397294"><ele>173.66666666666666</ele><time>2026-03-28T14:28:42.328Z</time></trkpt><trkpt lat="43.0263126" lon="12.3972927"><ele>174.33333333333334</ele><time>2026-03-28T14:28:43.327Z</time></trkpt><trkpt lat="43.0261564" lon="12.3972985"><ele>175.0</ele><time>2026-03-28T14:28:44.328Z</time></trkpt><trkpt lat="43.0260018" lon="12.3972906"><ele>175.0</ele><time>2026-03-28T14:28:45.328Z</time></trkpt><trkpt lat="43.0258455" lon="12.3972838"><ele>175.0</ele><time>2026-03-28T14:28:46.328Z</time></trkpt><trkpt lat="43.0256859" lon="12.3972692"><ele>175.0</ele><time>2026-03-28T14:28:47.328Z</time></trkpt><trkpt lat="43.0255205" lon="12.3972506"><ele>175.0</ele><time>2026-03-28T14:28:48.327Z</time></trkpt><trkpt lat="43.0253537" lon="12.397212"><ele>175.0</ele><time>2026-03-28T14:28:49.327Z</time></trkpt><trkpt lat="43.0251848" lon="12.3971674"><ele>175.0</ele><time>2026-03-28T14:28:50.328Z</time></trkpt><trkpt lat="43.0250131" lon="12.3971155"><ele>175.0</ele><time>2026-03-28T14:28:51.328Z</time></trkpt><trkpt lat="43.0248355" lon="12.3970575"><ele>175.0</ele><time>2026-03-28T14:28:52.328Z</time></trkpt><trkpt lat="43.0246607" lon="12.3969998"><ele>175.0</ele><time>2026-03-28T14:28:53.327Z</time></trkpt><trkpt lat="43.0244796" lon="12.3969364"><ele>175.0</ele><time>2026-03-28T14:28:54.327Z</time></trkpt><trkpt lat="43.0242948" lon="12.3968671"><ele>175.0</ele><time>2026-03-28T14:28:55.328Z</time></trkpt><trkpt lat="43.0241088" lon="12.3968"><ele>175.0</ele><time>2026-03-28T14:28:56.328Z</time></trkpt><trkpt lat="43.0239255" lon="12.3967197"><ele>174.66666666666669</ele><time>2026-03-28T14:28:57.328Z</time></trkpt><trkpt lat="43.0237371" lon="12.3966476"><ele>174.33333333333334</ele><time>2026-03-28T14:28:58.328Z</time></trkpt><trkpt lat="43.0235577" lon="12.3965769"><ele>174.0</ele><time>2026-03-28T14:28:59.328Z</time></trkpt><trkpt lat="43.0233719" lon="12.3965017"><ele>174.33333333333334</ele><time>2026-03-28T14:29:00.328Z</time></trkpt><trkpt lat="43.0231922" lon="12.3964185"><ele>174.66666666666669</ele><time>2026-03-28T14:29:01.328Z</time></trkpt><trkpt lat="43.0230093" lon="12.3963328"><ele>175.0</ele><time>2026-03-28T14:29:02.328Z</time></trkpt><trkpt lat="43.0228251" lon="12.3962385"><ele>175.0</ele><time>2026-03-28T14:29:03.327Z</time></trkpt><trkpt lat="43.0226396" lon="12.3961529"><ele>175.0</ele><time>2026-03-28T14:29:04.328Z</time></trkpt><trkpt lat="43.0224598" lon="12.3960497"><ele>175.0</ele><time>2026-03-28T14:29:05.327Z</time></trkpt><trkpt lat="43.0222712" lon="12.3959693"><ele>174.0</ele><time>2026-03-28T14:29:06.328Z</time></trkpt><trkpt lat="43.022083" lon="12.3958974"><ele>173.0</ele><time>2026-03-28T14:29:07.328Z</time></trkpt><trkpt lat="43.0218904" lon="12.395819"><ele>172.0</ele><time>2026-03-28T14:29:08.327Z</time></trkpt><trkpt lat="43.0216962" lon="12.3957504"><ele>172.0</ele><time>2026-03-28T14:29:09.328Z</time></trkpt><trkpt lat="43.0214974" lon="12.3956872"><ele>172.0</ele><time>2026-03-28T14:29:10.328Z</time></trkpt><trkpt lat="43.0213025" lon="12.3956211"><ele>172.0</ele><time>2026-03-28T14:29:11.328Z</time></trkpt><trkpt lat="43.0211024" lon="12.3955603"><ele>172.0</ele><time>2026-03-28T14:29:12.328Z</time></trkpt><trkpt lat="43.0209029" lon="12.3955009"><ele>172.0</ele><time>2026-03-28T14:29:13.328Z</time></trkpt><trkpt lat="43.0207043" lon="12.3954394"><ele>172.0</ele><time>2026-03-28T14:29:14.328Z</time></trkpt><trkpt lat="43.0205" lon="12.3953856"><ele>171.66666666666669</ele><time>2026-03-28T14:29:15.328Z</time></trkpt><trkpt lat="43.0202939" lon="12.3953225"><ele>171.33333333333334</ele><time>2026-03-28T14:29:16.328Z</time></trkpt><trkpt lat="43.0200954" lon="12.3952524"><ele>171.0</ele><time>2026-03-28T14:29:17.328Z</time></trkpt><trkpt lat="43.0199025" lon="12.3951731"><ele>171.66666666666666</ele><time>2026-03-28T14:29:18.328Z</time></trkpt><trkpt lat="43.0197104" lon="12.3950914"><ele>172.33333333333331</ele><time>2026-03-28T14:29:19.328Z</time></trkpt><trkpt lat="43.0195263" lon="12.3949953"><ele>173.0</ele><time>2026-03-28T14:29:20.328Z</time></trkpt><trkpt lat="43.0193476" lon="12.3948986"><ele>173.0</ele><time>2026-03-28T14:29:21.327Z</time></trkpt><trkpt lat="43.0191679" lon="12.3947992"><ele>173.0</ele><time>2026-03-28T14:29:22.328Z</time></trkpt><trkpt lat="43.0189887" lon="12.3947057"><ele>173.0</ele><time>2026-03-28T14:29:23.328Z</time></trkpt><trkpt lat="43.0188114" lon="12.3946095"><ele>172.66666666666666</ele><time>2026-03-28T14:29:24.328Z</time></trkpt><trkpt lat="43.0186338" lon="12.3945089"><ele>172.33333333333334</ele><time>2026-03-28T14:29:25.328Z</time></trkpt><trkpt lat="43.0184548" lon="12.3944105"><ele>172.0</ele><time>2026-03-28T14:29:26.328Z</time></trkpt><trkpt lat="43.0182823" lon="12.3943109"><ele>172.0</ele><time>2026-03-28T14:29:27.328Z</time></trkpt><trkpt lat="43.0181047" lon="12.3942154"><ele>172.0</ele><time>2026-03-28T14:29:28.328Z</time></trkpt><trkpt lat="43.0179254" lon="12.3941184"><ele>172.0</ele><time>2026-03-28T14:29:29.328Z</time></trkpt><trkpt lat="43.0177524" lon="12.3940179"><ele>172.0</ele><time>2026-03-28T14:29:30.327Z</time></trkpt><trkpt lat="43.0175721" lon="12.3939246"><ele>172.0</ele><time>2026-03-28T14:29:31.328Z</time></trkpt><trkpt lat="43.0174026" lon="12.3938327"><ele>172.0</ele><time>2026-03-28T14:29:32.327Z</time></trkpt><trkpt lat="43.0172308" lon="12.39373"><ele>171.66666666666669</ele><time>2026-03-28T14:29:33.327Z</time></trkpt><trkpt lat="43.0170617" lon="12.3936307"><ele>171.33333333333334</ele><time>2026-03-28T14:29:34.328Z</time></trkpt><trkpt lat="43.0168961" lon="12.393515"><ele>171.0</ele><time>2026-03-28T14:29:35.328Z</time></trkpt><trkpt lat="43.0167304" lon="12.3933927"><ele>171.33333333333334</ele><time>2026-03-28T14:29:36.327Z</time></trkpt><trkpt lat="43.016575" lon="12.3932474"><ele>171.66666666666669</ele><time>2026-03-28T14:29:37.328Z</time></trkpt><trkpt lat="43.0164024" lon="12.3931315"><ele>172.0</ele><time>2026-03-28T14:29:38.328Z</time></trkpt><trkpt lat="43.0162376" lon="12.3930078"><ele>172.0</ele><time>2026-03-28T14:29:39.328Z</time></trkpt><trkpt lat="43.0160689" lon="12.3928787"><ele>172.0</ele><time>2026-03-28T14:29:40.328Z</time></trkpt><trkpt lat="43.0159089" lon="12.392747"><ele>172.0</ele><time>2026-03-28T14:29:41.328Z</time></trkpt><trkpt lat="43.0157454" lon="12.3926171"><ele>172.0</ele><time>2026-03-28T14:29:42.328Z</time></trkpt><trkpt lat="43.0155751" lon="12.3924948"><ele>172.0</ele><time>2026-03-28T14:29:43.328Z</time></trkpt><trkpt lat="43.0154078" lon="12.3923717"><ele>172.0</ele><time>2026-03-28T14:29:44.328Z</time></trkpt><trkpt lat="43.015238" lon="12.3922474"><ele>172.0</ele><time>2026-03-28T14:29:45.328Z</time></trkpt><trkpt lat="43.0150684" lon="12.3921266"><ele>172.0</ele><time>2026-03-28T14:29:46.328Z</time></trkpt><trkpt lat="43.0149024" lon="12.3920009"><ele>172.0</ele><time>2026-03-28T14:29:47.328Z</time></trkpt><trkpt lat="43.0147351" lon="12.3918786"><ele>172.0</ele><time>2026-03-28T14:29:48.328Z</time></trkpt><trkpt lat="43.0145714" lon="12.3917533"><ele>172.0</ele><time>2026-03-28T14:29:49.327Z</time></trkpt><trkpt lat="43.0144057" lon="12.3916324"><ele>172.0</ele><time>2026-03-28T14:29:50.328Z</time></trkpt><trkpt lat="43.0142442" lon="12.3915204"><ele>172.0</ele><time>2026-03-28T14:29:51.328Z</time></trkpt><trkpt lat="43.0140856" lon="12.3914131"><ele>172.0</ele><time>2026-03-28T14:29:52.328Z</time></trkpt><trkpt lat="43.0139294" lon="12.3913129"><ele>172.0</ele><time>2026-03-28T14:29:53.328Z</time></trkpt><trkpt lat="43.0137771" lon="12.3912271"><ele>172.0</ele><time>2026-03-28T14:29:54.328Z</time></trkpt><trkpt lat="43.0136317" lon="12.3911485"><ele>172.0</ele><time>2026-03-28T14:29:55.328Z</time></trkpt><trkpt lat="43.0134926" lon="12.3910782"><ele>172.0</ele><time>2026-03-28T14:29:56.327Z</time></trkpt><trkpt lat="43.0133687" lon="12.3910169"><ele>172.0</ele><time>2026-03-28T14:29:57.327Z</time></trkpt><trkpt lat="43.0132646" lon="12.3909588"><ele>171.8</ele><time>2026-03-28T14:29:58.328Z</time></trkpt><trkpt lat="43.0131648" lon="12.3909033"><ele>171.6</ele><time>2026-03-28T14:29:59.328Z</time></trkpt><trkpt lat="43.0130891" lon="12.390828"><ele>171.4</ele><time>2026-03-28T14:30:00.328Z</time></trkpt><trkpt lat="43.0130124" lon="12.39075"><ele>171.20000000000002</ele><time>2026-03-28T14:30:01.328Z</time></trkpt><trkpt lat="43.0129404" lon="12.3906795"><ele>171.0</ele><time>2026-03-28T14:30:02.327Z</time></trkpt><trkpt lat="43.0128614" lon="12.3906087"><ele>171.0</ele><time>2026-03-28T14:30:03.327Z</time></trkpt><trkpt lat="43.0127828" lon="12.3905449"><ele>171.0</ele><time>2026-03-28T14:30:04.328Z</time></trkpt><trkpt lat="43.0126771" lon="12.3905214"><ele>171.0</ele><time>2026-03-28T14:30:05.328Z</time></trkpt><trkpt lat="43.0125706" lon="12.390494"><ele>171.0</ele><time>2026-03-28T14:30:06.327Z</time></trkpt><trkpt lat="43.0124571" lon="12.3904674"><ele>171.0</ele><time>2026-03-28T14:30:07.328Z</time></trkpt><trkpt lat="43.0123344" lon="12.3904211"><ele>171.0</ele><time>2026-03-28T14:30:08.328Z</time></trkpt><trkpt lat="43.0122074" lon="12.3903669"><ele>171.0</ele><time>2026-03-28T14:30:09.327Z</time></trkpt><trkpt lat="43.0120672" lon="12.3903137"><ele>171.0</ele><time>2026-03-28T14:30:10.328Z</time></trkpt><trkpt lat="43.0119229" lon="12.390241"><ele>171.0</ele><time>2026-03-28T14:30:11.327Z</time></trkpt><trkpt lat="43.0117664" lon="12.3901657"><ele>171.33333333333334</ele><time>2026-03-28T14:30:12.328Z</time></trkpt><trkpt lat="43.0116162" lon="12.3900848"><ele>171.66666666666669</ele><time>2026-03-28T14:30:13.328Z</time></trkpt><trkpt lat="43.0114699" lon="12.3899982"><ele>172.0</ele><time>2026-03-28T14:30:14.328Z</time></trkpt><trkpt lat="43.0113099" lon="12.389923"><ele>172.0</ele><time>2026-03-28T14:30:15.327Z</time></trkpt><trkpt lat="43.011145" lon="12.3898319"><ele>172.0</ele><time>2026-03-28T14:30:16.328Z</time></trkpt><trkpt lat="43.0109744" lon="12.3897652"><ele>172.0</ele><time>2026-03-28T14:30:17.328Z</time></trkpt><trkpt lat="43.0107971" lon="12.3897093"><ele>172.0</ele><time>2026-03-28T14:30:18.328Z</time></trkpt><trkpt lat="43.0106206" lon="12.3896724"><ele>172.0</ele><time>2026-03-28T14:30:19.328Z</time></trkpt><trkpt lat="43.0104371" lon="12.3896371"><ele>172.0</ele><time>2026-03-28T14:30:20.328Z</time></trkpt><trkpt lat="43.010252" lon="12.3896092"><ele>172.0</ele><time>2026-03-28T14:30:21.327Z</time></trkpt><trkpt lat="43.0100728" lon="12.3895742"><ele>172.0</ele><time>2026-03-28T14:30:22.328Z</time></trkpt><trkpt lat="43.009893" lon="12.3895431"><ele>172.0</ele><time>2026-03-28T14:30:23.328Z</time></trkpt><trkpt lat="43.0097112" lon="12.3895459"><ele>172.33333333333334</ele><time>2026-03-28T14:30:24.328Z</time></trkpt><trkpt lat="43.0095289" lon="12.3895568"><ele>172.66666666666666</ele><time>2026-03-28T14:30:25.328Z</time></trkpt><trkpt lat="43.009343" lon="12.3895809"><ele>173.0</ele><time>2026-03-28T14:30:26.328Z</time></trkpt><trkpt lat="43.0091578" lon="12.3896104"><ele>173.0</ele><time>2026-03-28T14:30:27.328Z</time></trkpt><trkpt lat="43.0089764" lon="12.3896542"><ele>173.0</ele><time>2026-03-28T14:30:28.327Z</time></trkpt><trkpt lat="43.0087894" lon="12.3896956"><ele>173.0</ele><time>2026-03-28T14:30:29.327Z</time></trkpt><trkpt lat="43.0086012" lon="12.3897436"><ele>173.0</ele><time>2026-03-28T14:30:30.328Z</time></trkpt><trkpt lat="43.0084156" lon="12.3897824"><ele>173.0</ele><time>2026-03-28T14:30:31.328Z</time></trkpt><trkpt lat="43.0082267" lon="12.3898258"><ele>173.0</ele><time>2026-03-28T14:30:32.327Z</time></trkpt><trkpt lat="43.0080402" lon="12.3898746"><ele>173.0</ele><time>2026-03-28T14:30:33.328Z</time></trkpt><trkpt lat="43.007855" lon="12.3899112"><ele>173.0</ele><time>2026-03-28T14:30:34.328Z</time></trkpt><trkpt lat="43.007666" lon="12.3899466"><ele>173.0</ele><time>2026-03-28T14:30:35.327Z</time></trkpt><trkpt lat="43.0074781" lon="12.3899756"><ele>172.33333333333331</ele><time>2026-03-28T14:30:36.327Z</time></trkpt><trkpt lat="43.0072856" lon="12.3900126"><ele>171.66666666666666</ele><time>2026-03-28T14:30:37.328Z</time></trkpt><trkpt lat="43.0070949" lon="12.390051"><ele>171.0</ele><time>2026-03-28T14:30:38.328Z</time></trkpt><trkpt lat="43.0069015" lon="12.3900753"><ele>171.0</ele><time>2026-03-28T14:30:39.328Z</time></trkpt><trkpt lat="43.0067121" lon="12.3900926"><ele>171.0</ele><time>2026-03-28T14:30:40.328Z</time></trkpt><trkpt lat="43.0065201" lon="12.3900924"><ele>171.0</ele><time>2026-03-28T14:30:41.327Z</time></trkpt><trkpt lat="43.0063312" lon="12.3900826"><ele>172.0</ele><time>2026-03-28T14:30:42.328Z</time></trkpt><trkpt lat="43.00615" lon="12.3900293"><ele>173.0</ele><time>2026-03-28T14:30:43.328Z</time></trkpt><trkpt lat="43.0059651" lon="12.389974"><ele>174.0</ele><time>2026-03-28T14:30:44.327Z</time></trkpt><trkpt lat="43.0057873" lon="12.3899091"><ele>174.0</ele><time>2026-03-28T14:30:45.328Z</time></trkpt><trkpt lat="43.0056141" lon="12.3898349"><ele>174.0</ele><time>2026-03-28T14:30:46.327Z</time></trkpt><trkpt lat="43.0054495" lon="12.3897569"><ele>174.0</ele><time>2026-03-28T14:30:47.328Z</time></trkpt><trkpt lat="43.0052741" lon="12.3896719"><ele>174.0</ele><time>2026-03-28T14:30:48.328Z</time></trkpt><trkpt lat="43.0050974" lon="12.3895815"><ele>174.0</ele><time>2026-03-28T14:30:49.328Z</time></trkpt><trkpt lat="43.0049199" lon="12.3894937"><ele>174.0</ele><time>2026-03-28T14:30:50.328Z</time></trkpt><trkpt lat="43.0047383" lon="12.3894144"><ele>173.66666666666666</ele><time>2026-03-28T14:30:51.328Z</time></trkpt><trkpt lat="43.00456" lon="12.3893366"><ele>173.33333333333331</ele><time>2026-03-28T14:30:52.327Z</time></trkpt><trkpt lat="43.0043791" lon="12.3892531"><ele>173.0</ele><time>2026-03-28T14:30:53.328Z</time></trkpt><trkpt lat="43.0042034" lon="12.3891689"><ele>172.33333333333331</ele><time>2026-03-28T14:30:54.328Z</time></trkpt><trkpt lat="43.0040221" lon="12.3890857"><ele>171.66666666666666</ele><time>2026-03-28T14:30:55.328Z</time></trkpt><trkpt lat="43.0038376" lon="12.3889984"><ele>171.0</ele><time>2026-03-28T14:30:56.328Z</time></trkpt><trkpt lat="43.0036556" lon="12.3889127"><ele>171.0</ele><time>2026-03-28T14:30:57.327Z</time></trkpt><trkpt lat="43.0034767" lon="12.3888252"><ele>171.0</ele><time>2026-03-28T14:30:58.328Z</time></trkpt><trkpt lat="43.0032975" lon="12.3887309"><ele>171.0</ele><time>2026-03-28T14:30:59.328Z</time></trkpt><trkpt lat="43.0031178" lon="12.388622"><ele>170.66666666666666</ele><time>2026-03-28T14:31:00.328Z</time></trkpt><trkpt lat="43.0029369" lon="12.3885136"><ele>170.33333333333331</ele><time>2026-03-28T14:31:01.327Z</time></trkpt><trkpt lat="43.0027607" lon="12.3884019"><ele>170.0</ele><time>2026-03-28T14:31:02.327Z</time></trkpt><trkpt lat="43.0025815" lon="12.3882859"><ele>170.0</ele><time>2026-03-28T14:31:03.328Z</time></trkpt><trkpt lat="43.0024046" lon="12.3881746"><ele>170.0</ele><time>2026-03-28T14:31:04.328Z</time></trkpt><trkpt lat="43.0022292" lon="12.3880653"><ele>170.0</ele><time>2026-03-28T14:31:05.328Z</time></trkpt><trkpt lat="43.0020529" lon="12.3879521"><ele>170.0</ele><time>2026-03-28T14:31:06.327Z</time></trkpt><trkpt lat="43.0018785" lon="12.3878308"><ele>170.0</ele><time>2026-03-28T14:31:07.328Z</time></trkpt><trkpt lat="43.0016985" lon="12.3877165"><ele>170.0</ele><time>2026-03-28T14:31:08.328Z</time></trkpt><trkpt lat="43.0015186" lon="12.387591"><ele>169.66666666666666</ele><time>2026-03-28T14:31:09.327Z</time></trkpt><trkpt lat="43.0013368" lon="12.3874746"><ele>169.33333333333334</ele><time>2026-03-28T14:31:10.328Z</time></trkpt><trkpt lat="43.0011526" lon="12.3873634"><ele>169.0</ele><time>2026-03-28T14:31:11.328Z</time></trkpt><trkpt lat="43.0009735" lon="12.3872414"><ele>169.66666666666669</ele><time>2026-03-28T14:31:12.328Z</time></trkpt><trkpt lat="43.0007946" lon="12.3871243"><ele>170.33333333333334</ele><time>2026-03-28T14:31:13.328Z</time></trkpt><trkpt lat="43.0006174" lon="12.3869913"><ele>171.0</ele><time>2026-03-28T14:31:14.328Z</time></trkpt><trkpt lat="43.000436" lon="12.386876"><ele>171.0</ele><time>2026-03-28T14:31:15.327Z</time></trkpt><trkpt lat="43.0002534" lon="12.3867577"><ele>171.0</ele><time>2026-03-28T14:31:16.327Z</time></trkpt><trkpt lat="43.0000732" lon="12.3866276"><ele>171.0</ele><time>2026-03-28T14:31:17.328Z</time></trkpt><trkpt lat="42.9998948" lon="12.3864994"><ele>171.0</ele><time>2026-03-28T14:31:18.327Z</time></trkpt><trkpt lat="42.9997098" lon="12.3863891"><ele>171.0</ele><time>2026-03-28T14:31:19.328Z</time></trkpt><trkpt lat="42.9995276" lon="12.3862684"><ele>171.0</ele><time>2026-03-28T14:31:20.327Z</time></trkpt><trkpt lat="42.9993427" lon="12.3861541"><ele>170.66666666666666</ele><time>2026-03-28T14:31:21.327Z</time></trkpt><trkpt lat="42.9991608" lon="12.386039"><ele>170.33333333333331</ele><time>2026-03-28T14:31:22.327Z</time></trkpt><trkpt lat="42.9989789" lon="12.3859201"><ele>170.0</ele><time>2026-03-28T14:31:23.327Z</time></trkpt><trkpt lat="42.9987911" lon="12.3857934"><ele>170.0</ele><time>2026-03-28T14:31:24.328Z</time></trkpt><trkpt lat="42.9986089" lon="12.3856794"><ele>170.0</ele><time>2026-03-28T14:31:25.328Z</time></trkpt><trkpt lat="42.9984417" lon="12.3855579"><ele>170.0</ele><time>2026-03-28T14:31:26.328Z</time></trkpt><trkpt lat="42.9982792" lon="12.3854605"><ele>170.33333333333331</ele><time>2026-03-28T14:31:27.327Z</time></trkpt><trkpt lat="42.9981326" lon="12.3853695"><ele>170.66666666666666</ele><time>2026-03-28T14:31:28.328Z</time></trkpt><trkpt lat="42.9979994" lon="12.3852856"><ele>171.0</ele><time>2026-03-28T14:31:29.328Z</time></trkpt><trkpt lat="42.997869" lon="12.385204"><ele>171.0</ele><time>2026-03-28T14:31:30.328Z</time></trkpt><trkpt lat="42.9977517" lon="12.385126"><ele>171.0</ele><time>2026-03-28T14:31:31.328Z</time></trkpt><trkpt lat="42.9976425" lon="12.385064"><ele>171.0</ele><time>2026-03-28T14:31:32.328Z</time></trkpt><trkpt lat="42.9975423" lon="12.3850016"><ele>171.0</ele><time>2026-03-28T14:31:33.328Z</time></trkpt><trkpt lat="42.9974506" lon="12.3849415"><ele>170.83333333333334</ele><time>2026-03-28T14:31:34.328Z</time></trkpt><trkpt lat="42.9973745" lon="12.3848952"><ele>170.66666666666666</ele><time>2026-03-28T14:31:35.328Z</time></trkpt><trkpt lat="42.9973034" lon="12.3848483"><ele>170.5</ele><time>2026-03-28T14:31:36.328Z</time></trkpt><trkpt lat="42.9972366" lon="12.3847873"><ele>170.33333333333331</ele><time>2026-03-28T14:31:37.328Z</time></trkpt><trkpt lat="42.9971765" lon="12.384713"><ele>170.16666666666666</ele><time>2026-03-28T14:31:38.328Z</time></trkpt><trkpt lat="42.9971114" lon="12.3846351"><ele>170.0</ele><time>2026-03-28T14:31:39.327Z</time></trkpt><trkpt lat="42.9970324" lon="12.3845829"><ele>170.4</ele><time>2026-03-28T14:31:40.327Z</time></trkpt><trkpt lat="42.9969439" lon="12.3845426"><ele>170.8</ele><time>2026-03-28T14:31:41.327Z</time></trkpt><trkpt lat="42.9968471" lon="12.3845311"><ele>171.2</ele><time>2026-03-28T14:31:42.328Z</time></trkpt><trkpt lat="42.9967393" lon="12.3845034"><ele>171.6</ele><time>2026-03-28T14:31:43.328Z</time></trkpt><trkpt lat="42.9966233" lon="12.3844644"><ele>172.0</ele><time>2026-03-28T14:31:44.327Z</time></trkpt><trkpt lat="42.9965006" lon="12.3844179"><ele>172.0</ele><time>2026-03-28T14:31:45.327Z</time></trkpt><trkpt lat="42.9963753" lon="12.384371"><ele>172.0</ele><time>2026-03-28T14:31:46.327Z</time></trkpt><trkpt lat="42.9962449" lon="12.3843178"><ele>172.0</ele><time>2026-03-28T14:31:47.327Z</time></trkpt><trkpt lat="42.9960934" lon="12.3842541"><ele>172.0</ele><time>2026-03-28T14:31:48.328Z</time></trkpt><trkpt lat="42.9959361" lon="12.3841902"><ele>171.33333333333334</ele><time>2026-03-28T14:31:49.328Z</time></trkpt><trkpt lat="42.9957724" lon="12.3841273"><ele>170.66666666666666</ele><time>2026-03-28T14:31:50.328Z</time></trkpt><trkpt lat="42.99561" lon="12.384054"><ele>170.0</ele><time>2026-03-28T14:31:51.327Z</time></trkpt><trkpt lat="42.9954431" lon="12.3839835"><ele>170.0</ele><time>2026-03-28T14:31:52.328Z</time></trkpt><trkpt lat="42.9952693" lon="12.3839126"><ele>170.0</ele><time>2026-03-28T14:31:53.328Z</time></trkpt><trkpt lat="42.9950957" lon="12.3838407"><ele>170.0</ele><time>2026-03-28T14:31:54.327Z</time></trkpt><trkpt lat="42.9949263" lon="12.3837454"><ele>169.66666666666666</ele><time>2026-03-28T14:31:55.327Z</time></trkpt><trkpt lat="42.994753" lon="12.3836709"><ele>169.33333333333334</ele><time>2026-03-28T14:31:56.328Z</time></trkpt><trkpt lat="42.9945742" lon="12.3835891"><ele>169.0</ele><time>2026-03-28T14:31:57.328Z</time></trkpt><trkpt lat="42.9943934" lon="12.3835083"><ele>169.0</ele><time>2026-03-28T14:31:58.328Z</time></trkpt><trkpt lat="42.9942138" lon="12.3834376"><ele>169.0</ele><time>2026-03-28T14:31:59.328Z</time></trkpt><trkpt lat="42.9940365" lon="12.3833495"><ele>169.0</ele><time>2026-03-28T14:32:00.327Z</time></trkpt><trkpt lat="42.9938622" lon="12.3832748"><ele>169.0</ele><time>2026-03-28T14:32:01.327Z</time></trkpt><trkpt lat="42.993684" lon="12.3832084"><ele>169.0</ele><time>2026-03-28T14:32:02.328Z</time></trkpt><trkpt lat="42.9935105" lon="12.3831316"><ele>169.0</ele><time>2026-03-28T14:32:03.328Z</time></trkpt><trkpt lat="42.9933332" lon="12.383057"><ele>169.33333333333334</ele><time>2026-03-28T14:32:04.328Z</time></trkpt><trkpt lat="42.9931635" lon="12.382982"><ele>169.66666666666666</ele><time>2026-03-28T14:32:05.328Z</time></trkpt><trkpt lat="42.9929916" lon="12.3829011"><ele>170.0</ele><time>2026-03-28T14:32:06.328Z</time></trkpt><trkpt lat="42.9928191" lon="12.3828319"><ele>170.0</ele><time>2026-03-28T14:32:07.327Z</time></trkpt><trkpt lat="42.9926448" lon="12.382769"><ele>170.0</ele><time>2026-03-28T14:32:08.328Z</time></trkpt><trkpt lat="42.9924612" lon="12.3827159"><ele>170.0</ele><time>2026-03-28T14:32:09.327Z</time></trkpt><trkpt lat="42.9922838" lon="12.3826698"><ele>170.33333333333331</ele><time>2026-03-28T14:32:10.328Z</time></trkpt><trkpt lat="42.9921" lon="12.3826554"><ele>170.66666666666666</ele><time>2026-03-28T14:32:11.328Z</time></trkpt><trkpt lat="42.9919183" lon="12.3826629"><ele>171.0</ele><time>2026-03-28T14:32:12.328Z</time></trkpt><trkpt lat="42.9917314" lon="12.3826922"><ele>170.66666666666666</ele><time>2026-03-28T14:32:13.328Z</time></trkpt><trkpt lat="42.9915425" lon="12.3827271"><ele>170.33333333333331</ele><time>2026-03-28T14:32:14.327Z</time></trkpt><trkpt lat="42.9913624" lon="12.3827563"><ele>170.0</ele><time>2026-03-28T14:32:15.328Z</time></trkpt><trkpt lat="42.9911757" lon="12.3827921"><ele>170.0</ele><time>2026-03-28T14:32:16.327Z</time></trkpt><trkpt lat="42.9909975" lon="12.3828164"><ele>170.0</ele><time>2026-03-28T14:32:17.328Z</time></trkpt><trkpt lat="42.9908115" lon="12.3828525"><ele>170.0</ele><time>2026-03-28T14:32:18.327Z</time></trkpt><trkpt lat="42.9906269" lon="12.3828832"><ele>170.33333333333331</ele><time>2026-03-28T14:32:19.328Z</time></trkpt><trkpt lat="42.9904341" lon="12.3829213"><ele>170.66666666666666</ele><time>2026-03-28T14:32:20.327Z</time></trkpt><trkpt lat="42.9902392" lon="12.382961"><ele>171.0</ele><time>2026-03-28T14:32:21.328Z</time></trkpt><trkpt lat="42.9900393" lon="12.3830035"><ele>171.0</ele><time>2026-03-28T14:32:22.328Z</time></trkpt><trkpt lat="42.9898401" lon="12.3830389"><ele>171.0</ele><time>2026-03-28T14:32:23.327Z</time></trkpt><trkpt lat="42.9896527" lon="12.383062"><ele>171.0</ele><time>2026-03-28T14:32:24.327Z</time></trkpt><trkpt lat="42.989462" lon="12.3830795"><ele>171.0</ele><time>2026-03-28T14:32:25.328Z</time></trkpt><trkpt lat="42.9892627" lon="12.3831106"><ele>171.0</ele><time>2026-03-28T14:32:26.327Z</time></trkpt><trkpt lat="42.9890635" lon="12.3831248"><ele>171.0</ele><time>2026-03-28T14:32:27.328Z</time></trkpt><trkpt lat="42.9888665" lon="12.3831196"><ele>171.0</ele><time>2026-03-28T14:32:28.328Z</time></trkpt><trkpt lat="42.9886663" lon="12.3830915"><ele>171.0</ele><time>2026-03-28T14:32:29.328Z</time></trkpt><trkpt lat="42.9884761" lon="12.3830635"><ele>171.0</ele><time>2026-03-28T14:32:30.327Z</time></trkpt><trkpt lat="42.9882805" lon="12.383035"><ele>171.0</ele><time>2026-03-28T14:32:31.327Z</time></trkpt><trkpt lat="42.9880862" lon="12.3829988"><ele>171.0</ele><time>2026-03-28T14:32:32.328Z</time></trkpt><trkpt lat="42.9878978" lon="12.3829565"><ele>171.0</ele><time>2026-03-28T14:32:33.328Z</time></trkpt><trkpt lat="42.9877022" lon="12.3829295"><ele>170.66666666666666</ele><time>2026-03-28T14:32:34.328Z</time></trkpt><trkpt lat="42.9875014" lon="12.3828988"><ele>170.33333333333331</ele><time>2026-03-28T14:32:35.328Z</time></trkpt><trkpt lat="42.9873057" lon="12.3828718"><ele>170.0</ele><time>2026-03-28T14:32:36.327Z</time></trkpt><trkpt lat="42.9871079" lon="12.3828319"><ele>170.0</ele><time>2026-03-28T14:32:37.328Z</time></trkpt><trkpt lat="42.9869101" lon="12.3827949"><ele>170.0</ele><time>2026-03-28T14:32:38.328Z</time></trkpt><trkpt lat="42.9867165" lon="12.3827569"><ele>170.0</ele><time>2026-03-28T14:32:39.328Z</time></trkpt><trkpt lat="42.9865204" lon="12.3827231"><ele>170.0</ele><time>2026-03-28T14:32:40.327Z</time></trkpt><trkpt lat="42.9863243" lon="12.3826864"><ele>170.0</ele><time>2026-03-28T14:32:41.328Z</time></trkpt><trkpt lat="42.9861282" lon="12.3826488"><ele>170.0</ele><time>2026-03-28T14:32:42.327Z</time></trkpt><trkpt lat="42.9859312" lon="12.3826162"><ele>170.0</ele><time>2026-03-28T14:32:43.328Z</time></trkpt><trkpt lat="42.985721" lon="12.3825875"><ele>170.0</ele><time>2026-03-28T14:32:44.328Z</time></trkpt><trkpt lat="42.9855105" lon="12.3825487"><ele>170.0</ele><time>2026-03-28T14:32:45.328Z</time></trkpt><trkpt lat="42.9852868" lon="12.3825102"><ele>170.0</ele><time>2026-03-28T14:32:46.327Z</time></trkpt><trkpt lat="42.9850548" lon="12.3824722"><ele>170.0</ele><time>2026-03-28T14:32:47.328Z</time></trkpt><trkpt lat="42.9848316" lon="12.3824267"><ele>169.33333333333331</ele><time>2026-03-28T14:32:48.327Z</time></trkpt><trkpt lat="42.9846066" lon="12.3823883"><ele>168.66666666666666</ele><time>2026-03-28T14:32:49.328Z</time></trkpt><trkpt lat="42.9843917" lon="12.3823284"><ele>168.0</ele><time>2026-03-28T14:32:50.328Z</time></trkpt><trkpt lat="42.9841825" lon="12.3822503"><ele>168.66666666666666</ele><time>2026-03-28T14:32:51.328Z</time></trkpt><trkpt lat="42.9839831" lon="12.3821538"><ele>169.33333333333331</ele><time>2026-03-28T14:32:52.328Z</time></trkpt><trkpt lat="42.9837906" lon="12.3820231"><ele>170.0</ele><time>2026-03-28T14:32:53.327Z</time></trkpt><trkpt lat="42.9836029" lon="12.3818909"><ele>170.0</ele><time>2026-03-28T14:32:54.327Z</time></trkpt><trkpt lat="42.9834362" lon="12.3817357"><ele>170.0</ele><time>2026-03-28T14:32:55.328Z</time></trkpt><trkpt lat="42.9832708" lon="12.3815715"><ele>170.0</ele><time>2026-03-28T14:32:56.328Z</time></trkpt><trkpt lat="42.9831214" lon="12.3813933"><ele>170.0</ele><time>2026-03-28T14:32:57.327Z</time></trkpt><trkpt lat="42.9829807" lon="12.3812088"><ele>170.0</ele><time>2026-03-28T14:32:58.328Z</time></trkpt><trkpt lat="42.9828497" lon="12.381026"><ele>170.0</ele><time>2026-03-28T14:32:59.328Z</time></trkpt><trkpt lat="42.9827161" lon="12.3808459"><ele>170.0</ele><time>2026-03-28T14:33:00.328Z</time></trkpt><trkpt lat="42.9825829" lon="12.3806623"><ele>170.0</ele><time>2026-03-28T14:33:01.328Z</time></trkpt><trkpt lat="42.9824557" lon="12.3804826"><ele>170.0</ele><time>2026-03-28T14:33:02.327Z</time></trkpt><trkpt lat="42.982326" lon="12.3802939"><ele>170.0</ele><time>2026-03-28T14:33:03.327Z</time></trkpt><trkpt lat="42.9821914" lon="12.3801044"><ele>170.0</ele><time>2026-03-28T14:33:04.328Z</time></trkpt><trkpt lat="42.9820697" lon="12.3799086"><ele>170.0</ele><time>2026-03-28T14:33:05.327Z</time></trkpt><trkpt lat="42.9819364" lon="12.3797137"><ele>170.0</ele><time>2026-03-28T14:33:06.328Z</time></trkpt><trkpt lat="42.9818093" lon="12.3795111"><ele>170.0</ele><time>2026-03-28T14:33:07.328Z</time></trkpt><trkpt lat="42.9816922" lon="12.3792983"><ele>170.0</ele><time>2026-03-28T14:33:08.327Z</time></trkpt><trkpt lat="42.9815665" lon="12.3791001"><ele>170.0</ele><time>2026-03-28T14:33:09.328Z</time></trkpt><trkpt lat="42.9814298" lon="12.3789133"><ele>170.0</ele><time>2026-03-28T14:33:10.328Z</time></trkpt><trkpt lat="42.9812843" lon="12.3787388"><ele>170.0</ele><time>2026-03-28T14:33:11.328Z</time></trkpt><trkpt lat="42.981135" lon="12.3785803"><ele>169.66666666666666</ele><time>2026-03-28T14:33:12.328Z</time></trkpt><trkpt lat="42.9809778" lon="12.3784379"><ele>169.33333333333334</ele><time>2026-03-28T14:33:13.327Z</time></trkpt><trkpt lat="42.9808114" lon="12.3783097"><ele>169.0</ele><time>2026-03-28T14:33:14.328Z</time></trkpt><trkpt lat="42.9806493" lon="12.3781809"><ele>168.66666666666669</ele><time>2026-03-28T14:33:15.328Z</time></trkpt><trkpt lat="42.9804851" lon="12.3780691"><ele>168.33333333333334</ele><time>2026-03-28T14:33:16.328Z</time></trkpt><trkpt lat="42.9803099" lon="12.3779625"><ele>168.0</ele><time>2026-03-28T14:33:17.328Z</time></trkpt><trkpt lat="42.9801336" lon="12.3778611"><ele>169.0</ele><time>2026-03-28T14:33:18.328Z</time></trkpt><trkpt lat="42.9799609" lon="12.3777599"><ele>170.0</ele><time>2026-03-28T14:33:19.327Z</time></trkpt><trkpt lat="42.9797981" lon="12.3776795"><ele>171.0</ele><time>2026-03-28T14:33:20.327Z</time></trkpt><trkpt lat="42.9796311" lon="12.3776092"><ele>171.0</ele><time>2026-03-28T14:33:21.328Z</time></trkpt><trkpt lat="42.9794718" lon="12.3775464"><ele>171.0</ele><time>2026-03-28T14:33:22.328Z</time></trkpt><trkpt lat="42.9792966" lon="12.3775198"><ele>171.0</ele><time>2026-03-28T14:33:23.327Z</time></trkpt><trkpt lat="42.9791216" lon="12.3775088"><ele>171.0</ele><time>2026-03-28T14:33:24.327Z</time></trkpt><trkpt lat="42.978948" lon="12.3775083"><ele>171.0</ele><time>2026-03-28T14:33:25.327Z</time></trkpt><trkpt lat="42.978768" lon="12.3775225"><ele>171.0</ele><time>2026-03-28T14:33:26.328Z</time></trkpt><trkpt lat="42.9785984" lon="12.3775218"><ele>171.0</ele><time>2026-03-28T14:33:27.328Z</time></trkpt><trkpt lat="42.9784234" lon="12.3775364"><ele>171.0</ele><time>2026-03-28T14:33:28.328Z</time></trkpt><trkpt lat="42.9782458" lon="12.3775523"><ele>171.0</ele><time>2026-03-28T14:33:29.328Z</time></trkpt><trkpt lat="42.9780783" lon="12.3775587"><ele>171.0</ele><time>2026-03-28T14:33:30.328Z</time></trkpt><trkpt lat="42.9779053" lon="12.3775797"><ele>171.0</ele><time>2026-03-28T14:33:31.328Z</time></trkpt><trkpt lat="42.977728" lon="12.3775861"><ele>171.0</ele><time>2026-03-28T14:33:32.328Z</time></trkpt><trkpt lat="42.9775541" lon="12.3775795"><ele>171.0</ele><time>2026-03-28T14:33:33.328Z</time></trkpt><trkpt lat="42.9773726" lon="12.3775693"><ele>171.0</ele><time>2026-03-28T14:33:34.328Z</time></trkpt><trkpt lat="42.9771944" lon="12.3775465"><ele>171.0</ele><time>2026-03-28T14:33:35.328Z</time></trkpt><trkpt lat="42.9770141" lon="12.3775196"><ele>171.0</ele><time>2026-03-28T14:33:36.328Z</time></trkpt><trkpt lat="42.9768358" lon="12.3774829"><ele>171.0</ele><time>2026-03-28T14:33:37.328Z</time></trkpt><trkpt lat="42.9766556" lon="12.3774549"><ele>171.0</ele><time>2026-03-28T14:33:38.328Z</time></trkpt><trkpt lat="42.9764886" lon="12.3774318"><ele>171.0</ele><time>2026-03-28T14:33:39.327Z</time></trkpt><trkpt lat="42.9763441" lon="12.3774002"><ele>171.0</ele><time>2026-03-28T14:33:40.328Z</time></trkpt><trkpt lat="42.9762054" lon="12.377376"><ele>171.0</ele><time>2026-03-28T14:33:41.327Z</time></trkpt><trkpt lat="42.9760692" lon="12.3773563"><ele>171.0</ele><time>2026-03-28T14:33:42.328Z</time></trkpt><trkpt lat="42.975931" lon="12.3773315"><ele>171.0</ele><time>2026-03-28T14:33:43.328Z</time></trkpt><trkpt lat="42.9757899" lon="12.3773084"><ele>171.0</ele><time>2026-03-28T14:33:44.328Z</time></trkpt><trkpt lat="42.9756416" lon="12.3772854"><ele>171.0</ele><time>2026-03-28T14:33:45.328Z</time></trkpt><trkpt lat="42.9754897" lon="12.3772649"><ele>171.0</ele><time>2026-03-28T14:33:46.327Z</time></trkpt><trkpt lat="42.9753271" lon="12.377247"><ele>171.0</ele><time>2026-03-28T14:33:47.328Z</time></trkpt><trkpt lat="42.9751581" lon="12.3772288"><ele>171.0</ele><time>2026-03-28T14:33:48.328Z</time></trkpt><trkpt lat="42.9749788" lon="12.3772186"><ele>171.0</ele><time>2026-03-28T14:33:49.328Z</time></trkpt><trkpt lat="42.9748019" lon="12.3771973"><ele>171.0</ele><time>2026-03-28T14:33:50.328Z</time></trkpt><trkpt lat="42.9746126" lon="12.3771903"><ele>171.0</ele><time>2026-03-28T14:33:51.328Z</time></trkpt><trkpt lat="42.97442" lon="12.3771839"><ele>171.0</ele><time>2026-03-28T14:33:52.328Z</time></trkpt><trkpt lat="42.9742338" lon="12.3771771"><ele>170.66666666666666</ele><time>2026-03-28T14:33:53.328Z</time></trkpt><trkpt lat="42.974043" lon="12.3771715"><ele>170.33333333333331</ele><time>2026-03-28T14:33:54.328Z</time></trkpt><trkpt lat="42.9738528" lon="12.3771735"><ele>170.0</ele><time>2026-03-28T14:33:55.328Z</time></trkpt><trkpt lat="42.973659" lon="12.3771694"><ele>170.0</ele><time>2026-03-28T14:33:56.328Z</time></trkpt><trkpt lat="42.9734679" lon="12.3771634"><ele>170.0</ele><time>2026-03-28T14:33:57.328Z</time></trkpt><trkpt lat="42.9732652" lon="12.3771545"><ele>170.0</ele><time>2026-03-28T14:33:58.328Z</time></trkpt><trkpt lat="42.9730606" lon="12.3771467"><ele>170.0</ele><time>2026-03-28T14:33:59.327Z</time></trkpt><trkpt lat="42.9728596" lon="12.3771375"><ele>170.0</ele><time>2026-03-28T14:34:00.327Z</time></trkpt><trkpt lat="42.9726613" lon="12.3771202"><ele>170.0</ele><time>2026-03-28T14:34:01.327Z</time></trkpt><trkpt lat="42.9724587" lon="12.3771137"><ele>170.0</ele><time>2026-03-28T14:34:02.327Z</time></trkpt><trkpt lat="42.9722558" lon="12.3771103"><ele>170.0</ele><time>2026-03-28T14:34:03.328Z</time></trkpt><trkpt lat="42.9720521" lon="12.3771065"><ele>170.0</ele><time>2026-03-28T14:34:04.328Z</time></trkpt><trkpt lat="42.971848" lon="12.3770978"><ele>169.66666666666666</ele><time>2026-03-28T14:34:05.328Z</time></trkpt><trkpt lat="42.9716473" lon="12.3770911"><ele>169.33333333333334</ele><time>2026-03-28T14:34:06.328Z</time></trkpt><trkpt lat="42.9714562" lon="12.3770753"><ele>169.0</ele><time>2026-03-28T14:34:07.328Z</time></trkpt><trkpt lat="42.9712607" lon="12.3770582"><ele>169.0</ele><time>2026-03-28T14:34:08.327Z</time></trkpt><trkpt lat="42.9710708" lon="12.3770389"><ele>169.0</ele><time>2026-03-28T14:34:09.328Z</time></trkpt><trkpt lat="42.9708812" lon="12.3769943"><ele>169.0</ele><time>2026-03-28T14:34:10.328Z</time></trkpt><trkpt lat="42.9707027" lon="12.3769274"><ele>169.66666666666669</ele><time>2026-03-28T14:34:11.328Z</time></trkpt><trkpt lat="42.9705238" lon="12.3768376"><ele>170.33333333333334</ele><time>2026-03-28T14:34:12.328Z</time></trkpt><trkpt lat="42.9703486" lon="12.3767364"><ele>171.0</ele><time>2026-03-28T14:34:13.328Z</time></trkpt><trkpt lat="42.9701665" lon="12.3766224"><ele>171.0</ele><time>2026-03-28T14:34:14.328Z</time></trkpt><trkpt lat="42.9699794" lon="12.3765103"><ele>171.0</ele><time>2026-03-28T14:34:15.328Z</time></trkpt><trkpt lat="42.9697923" lon="12.3763902"><ele>171.0</ele><time>2026-03-28T14:34:16.328Z</time></trkpt><trkpt lat="42.9696065" lon="12.3762677"><ele>171.0</ele><time>2026-03-28T14:34:17.328Z</time></trkpt><trkpt lat="42.969412" lon="12.3761515"><ele>171.0</ele><time>2026-03-28T14:34:18.327Z</time></trkpt><trkpt lat="42.9692157" lon="12.3760206"><ele>171.0</ele><time>2026-03-28T14:34:19.327Z</time></trkpt><trkpt lat="42.9690211" lon="12.3759005"><ele>171.0</ele><time>2026-03-28T14:34:20.328Z</time></trkpt><trkpt lat="42.9688335" lon="12.3757744"><ele>171.0</ele><time>2026-03-28T14:34:21.328Z</time></trkpt><trkpt lat="42.9686397" lon="12.3756599"><ele>171.0</ele><time>2026-03-28T14:34:22.328Z</time></trkpt><trkpt lat="42.9684484" lon="12.3755478"><ele>171.0</ele><time>2026-03-28T14:34:23.328Z</time></trkpt><trkpt lat="42.9682527" lon="12.3754342"><ele>171.0</ele><time>2026-03-28T14:34:24.328Z</time></trkpt><trkpt lat="42.9680627" lon="12.3753223"><ele>171.0</ele><time>2026-03-28T14:34:25.327Z</time></trkpt><trkpt lat="42.9678712" lon="12.3752196"><ele>171.0</ele><time>2026-03-28T14:34:26.328Z</time></trkpt><trkpt lat="42.9676835" lon="12.375113"><ele>171.0</ele><time>2026-03-28T14:34:27.328Z</time></trkpt><trkpt lat="42.967493" lon="12.3750063"><ele>171.0</ele><time>2026-03-28T14:34:28.328Z</time></trkpt><trkpt lat="42.9673017" lon="12.3749006"><ele>171.33333333333334</ele><time>2026-03-28T14:34:29.328Z</time></trkpt><trkpt lat="42.9671231" lon="12.3747888"><ele>171.66666666666669</ele><time>2026-03-28T14:34:30.328Z</time></trkpt><trkpt lat="42.9669434" lon="12.3746839"><ele>172.0</ele><time>2026-03-28T14:34:31.327Z</time></trkpt><trkpt lat="42.9667877" lon="12.3745769"><ele>171.66666666666669</ele><time>2026-03-28T14:34:32.327Z</time></trkpt><trkpt lat="42.966623" lon="12.3744834"><ele>171.33333333333334</ele><time>2026-03-28T14:34:33.328Z</time></trkpt><trkpt lat="42.9664629" lon="12.3743881"><ele>171.0</ele><time>2026-03-28T14:34:34.328Z</time></trkpt><trkpt lat="42.9663183" lon="12.3742968"><ele>171.0</ele><time>2026-03-28T14:34:35.328Z</time></trkpt><trkpt lat="42.9661925" lon="12.3741947"><ele>171.0</ele><time>2026-03-28T14:34:36.328Z</time></trkpt><trkpt lat="42.966049" lon="12.3741222"><ele>171.0</ele><time>2026-03-28T14:34:37.328Z</time></trkpt><trkpt lat="42.9659189" lon="12.3740277"><ele>171.0</ele><time>2026-03-28T14:34:38.328Z</time></trkpt><trkpt lat="42.9657892" lon="12.373946"><ele>170.66666666666666</ele><time>2026-03-28T14:34:39.328Z</time></trkpt><trkpt lat="42.9656464" lon="12.373867"><ele>170.33333333333331</ele><time>2026-03-28T14:34:40.328Z</time></trkpt><trkpt lat="42.965508" lon="12.373791"><ele>170.0</ele><time>2026-03-28T14:34:41.328Z</time></trkpt><trkpt lat="42.9653676" lon="12.3737094"><ele>170.66666666666666</ele><time>2026-03-28T14:34:42.328Z</time></trkpt><trkpt lat="42.9652309" lon="12.3736265"><ele>171.33333333333334</ele><time>2026-03-28T14:34:43.327Z</time></trkpt><trkpt lat="42.9650889" lon="12.3735405"><ele>172.0</ele><time>2026-03-28T14:34:44.328Z</time></trkpt><trkpt lat="42.9649423" lon="12.3734513"><ele>172.0</ele><time>2026-03-28T14:34:45.328Z</time></trkpt><trkpt lat="42.9648079" lon="12.3733533"><ele>172.0</ele><time>2026-03-28T14:34:46.328Z</time></trkpt><trkpt lat="42.9646709" lon="12.3732695"><ele>172.0</ele><time>2026-03-28T14:34:47.328Z</time></trkpt><trkpt lat="42.9645382" lon="12.3731779"><ele>172.0</ele><time>2026-03-28T14:34:48.328Z</time></trkpt><trkpt lat="42.9644119" lon="12.3730947"><ele>172.0</ele><time>2026-03-28T14:34:49.328Z</time></trkpt><trkpt lat="42.9642732" lon="12.3730309"><ele>172.0</ele><time>2026-03-28T14:34:50.328Z</time></trkpt><trkpt lat="42.9641342" lon="12.3729924"><ele>172.0</ele><time>2026-03-28T14:34:51.328Z</time></trkpt><trkpt lat="42.9639883" lon="12.3729749"><ele>172.25</ele><time>2026-03-28T14:34:52.328Z</time></trkpt><trkpt lat="42.9638497" lon="12.3729602"><ele>172.5</ele><time>2026-03-28T14:34:53.328Z</time></trkpt><trkpt lat="42.9637038" lon="12.3729461"><ele>172.75</ele><time>2026-03-28T14:34:54.327Z</time></trkpt><trkpt lat="42.9635543" lon="12.3729261"><ele>173.0</ele><time>2026-03-28T14:34:55.327Z</time></trkpt><trkpt lat="42.9634027" lon="12.3729149"><ele>173.0</ele><time>2026-03-28T14:34:56.328Z</time></trkpt><trkpt lat="42.9632478" lon="12.3728986"><ele>173.0</ele><time>2026-03-28T14:34:57.327Z</time></trkpt><trkpt lat="42.9630916" lon="12.3728824"><ele>173.0</ele><time>2026-03-28T14:34:58.328Z</time></trkpt><trkpt lat="42.962928" lon="12.3728655"><ele>173.0</ele><time>2026-03-28T14:34:59.328Z</time></trkpt><trkpt lat="42.9627684" lon="12.3728502"><ele>173.0</ele><time>2026-03-28T14:35:00.327Z</time></trkpt><trkpt lat="42.9626064" lon="12.3728291"><ele>173.0</ele><time>2026-03-28T14:35:01.328Z</time></trkpt><trkpt lat="42.962447" lon="12.3728114"><ele>173.0</ele><time>2026-03-28T14:35:02.328Z</time></trkpt><trkpt lat="42.9622814" lon="12.3727931"><ele>173.0</ele><time>2026-03-28T14:35:03.328Z</time></trkpt><trkpt lat="42.9621172" lon="12.3727738"><ele>173.0</ele><time>2026-03-28T14:35:04.327Z</time></trkpt><trkpt lat="42.9619598" lon="12.3727517"><ele>173.0</ele><time>2026-03-28T14:35:05.328Z</time></trkpt><trkpt lat="42.9617959" lon="12.3727336"><ele>173.0</ele><time>2026-03-28T14:35:06.328Z</time></trkpt><trkpt lat="42.961631" lon="12.3727053"><ele>173.0</ele><time>2026-03-28T14:35:07.328Z</time></trkpt><trkpt lat="42.9614649" lon="12.3726842"><ele>172.33333333333331</ele><time>2026-03-28T14:35:08.328Z</time></trkpt><trkpt lat="42.9612957" lon="12.3726548"><ele>171.66666666666666</ele><time>2026-03-28T14:35:09.328Z</time></trkpt><trkpt lat="42.9611249" lon="12.3726308"><ele>171.0</ele><time>2026-03-28T14:35:10.328Z</time></trkpt><trkpt lat="42.9609522" lon="12.3726104"><ele>170.33333333333334</ele><time>2026-03-28T14:35:11.327Z</time></trkpt><trkpt lat="42.960783" lon="12.3725856"><ele>169.66666666666669</ele><time>2026-03-28T14:35:12.327Z</time></trkpt><trkpt lat="42.9606027" lon="12.3725617"><ele>169.0</ele><time>2026-03-28T14:35:13.328Z</time></trkpt><trkpt lat="42.9604193" lon="12.3725361"><ele>169.0</ele><time>2026-03-28T14:35:14.327Z</time></trkpt><trkpt lat="42.9602382" lon="12.3725042"><ele>169.0</ele><time>2026-03-28T14:35:15.327Z</time></trkpt><trkpt lat="42.9600493" lon="12.3724812"><ele>169.0</ele><time>2026-03-28T14:35:16.328Z</time></trkpt><trkpt lat="42.9598655" lon="12.3724563"><ele>169.0</ele><time>2026-03-28T14:35:17.327Z</time></trkpt><trkpt lat="42.9596783" lon="12.3724357"><ele>169.0</ele><time>2026-03-28T14:35:18.328Z</time></trkpt><trkpt lat="42.9594926" lon="12.3724028"><ele>169.0</ele><time>2026-03-28T14:35:19.327Z</time></trkpt><trkpt lat="42.9593054" lon="12.3723719"><ele>168.66666666666669</ele><time>2026-03-28T14:35:20.328Z</time></trkpt><trkpt lat="42.9591185" lon="12.372339"><ele>168.33333333333334</ele><time>2026-03-28T14:35:21.328Z</time></trkpt><trkpt lat="42.9589355" lon="12.3722853"><ele>168.0</ele><time>2026-03-28T14:35:22.327Z</time></trkpt><trkpt lat="42.9587422" lon="12.3722594"><ele>168.0</ele><time>2026-03-28T14:35:23.328Z</time></trkpt><trkpt lat="42.9585525" lon="12.3722331"><ele>168.0</ele><time>2026-03-28T14:35:24.327Z</time></trkpt><trkpt lat="42.9583574" lon="12.372203"><ele>168.0</ele><time>2026-03-28T14:35:25.327Z</time></trkpt><trkpt lat="42.9581666" lon="12.3721714"><ele>168.33333333333334</ele><time>2026-03-28T14:35:26.328Z</time></trkpt><trkpt lat="42.9579729" lon="12.372145"><ele>168.66666666666669</ele><time>2026-03-28T14:35:27.328Z</time></trkpt><trkpt lat="42.9577721" lon="12.3721174"><ele>169.0</ele><time>2026-03-28T14:35:28.327Z</time></trkpt><trkpt lat="42.9575729" lon="12.3720868"><ele>168.66666666666669</ele><time>2026-03-28T14:35:29.328Z</time></trkpt><trkpt lat="42.9573824" lon="12.3720528"><ele>168.33333333333334</ele><time>2026-03-28T14:35:30.328Z</time></trkpt><trkpt lat="42.9571819" lon="12.3720177"><ele>168.0</ele><time>2026-03-28T14:35:31.328Z</time></trkpt><trkpt lat="42.9569838" lon="12.3719839"><ele>168.0</ele><time>2026-03-28T14:35:32.328Z</time></trkpt><trkpt lat="42.9567841" lon="12.3719508"><ele>168.0</ele><time>2026-03-28T14:35:33.328Z</time></trkpt><trkpt lat="42.9565848" lon="12.3719073"><ele>168.0</ele><time>2026-03-28T14:35:34.327Z</time></trkpt><trkpt lat="42.956386" lon="12.3718603"><ele>168.0</ele><time>2026-03-28T14:35:35.328Z</time></trkpt><trkpt lat="42.9561853" lon="12.3718015"><ele>168.0</ele><time>2026-03-28T14:35:36.328Z</time></trkpt><trkpt lat="42.9559886" lon="12.3717306"><ele>168.0</ele><time>2026-03-28T14:35:37.328Z</time></trkpt><trkpt lat="42.9557902" lon="12.3716707"><ele>168.33333333333334</ele><time>2026-03-28T14:35:38.328Z</time></trkpt><trkpt lat="42.9555931" lon="12.3716022"><ele>168.66666666666669</ele><time>2026-03-28T14:35:39.328Z</time></trkpt><trkpt lat="42.9553959" lon="12.3715268"><ele>169.0</ele><time>2026-03-28T14:35:40.328Z</time></trkpt><trkpt lat="42.9551995" lon="12.3714521"><ele>169.0</ele><time>2026-03-28T14:35:41.328Z</time></trkpt><trkpt lat="42.9550038" lon="12.3713695"><ele>169.0</ele><time>2026-03-28T14:35:42.327Z</time></trkpt><trkpt lat="42.9548098" lon="12.3712884"><ele>169.0</ele><time>2026-03-28T14:35:43.328Z</time></trkpt><trkpt lat="42.9546118" lon="12.3712058"><ele>170.0</ele><time>2026-03-28T14:35:44.328Z</time></trkpt><trkpt lat="42.9544152" lon="12.3711251"><ele>171.0</ele><time>2026-03-28T14:35:45.328Z</time></trkpt><trkpt lat="42.9542189" lon="12.3710401"><ele>172.0</ele><time>2026-03-28T14:35:46.328Z</time></trkpt><trkpt lat="42.954027" lon="12.3709491"><ele>172.0</ele><time>2026-03-28T14:35:47.327Z</time></trkpt><trkpt lat="42.9538317" lon="12.3708619"><ele>172.0</ele><time>2026-03-28T14:35:48.328Z</time></trkpt><trkpt lat="42.9536383" lon="12.3707813"><ele>172.0</ele><time>2026-03-28T14:35:49.328Z</time></trkpt><trkpt lat="42.953441" lon="12.3706887"><ele>171.66666666666669</ele><time>2026-03-28T14:35:50.328Z</time></trkpt><trkpt lat="42.9532498" lon="12.3706046"><ele>171.33333333333334</ele><time>2026-03-28T14:35:51.328Z</time></trkpt><trkpt lat="42.9530578" lon="12.3705256"><ele>171.0</ele><time>2026-03-28T14:35:52.328Z</time></trkpt><trkpt lat="42.9528672" lon="12.370446"><ele>171.66666666666666</ele><time>2026-03-28T14:35:53.328Z</time></trkpt><trkpt lat="42.9526737" lon="12.3703633"><ele>172.33333333333331</ele><time>2026-03-28T14:35:54.328Z</time></trkpt><trkpt lat="42.9524801" lon="12.3702776"><ele>173.0</ele><time>2026-03-28T14:35:55.327Z</time></trkpt><trkpt lat="42.9522887" lon="12.3701994"><ele>173.33333333333331</ele><time>2026-03-28T14:35:56.328Z</time></trkpt><trkpt lat="42.9521012" lon="12.3701081"><ele>173.66666666666666</ele><time>2026-03-28T14:35:57.328Z</time></trkpt><trkpt lat="42.9519145" lon="12.3700166"><ele>174.0</ele><time>2026-03-28T14:35:58.328Z</time></trkpt><trkpt lat="42.9517223" lon="12.3699094"><ele>174.0</ele><time>2026-03-28T14:35:59.327Z</time></trkpt><trkpt lat="42.9515312" lon="12.3698131"><ele>174.0</ele><time>2026-03-28T14:36:00.327Z</time></trkpt><trkpt lat="42.9513376" lon="12.3697087"><ele>174.0</ele><time>2026-03-28T14:36:01.328Z</time></trkpt><trkpt lat="42.9511478" lon="12.3696199"><ele>174.0</ele><time>2026-03-28T14:36:02.328Z</time></trkpt><trkpt lat="42.9509517" lon="12.3695295"><ele>174.0</ele><time>2026-03-28T14:36:03.328Z</time></trkpt><trkpt lat="42.9507576" lon="12.3694347"><ele>174.0</ele><time>2026-03-28T14:36:04.328Z</time></trkpt><trkpt lat="42.9505633" lon="12.3693468"><ele>174.33333333333334</ele><time>2026-03-28T14:36:05.327Z</time></trkpt><trkpt lat="42.9503675" lon="12.3692549"><ele>174.66666666666669</ele><time>2026-03-28T14:36:06.327Z</time></trkpt><trkpt lat="42.9501731" lon="12.3691603"><ele>175.0</ele><time>2026-03-28T14:36:07.328Z</time></trkpt><trkpt lat="42.9499799" lon="12.3690651"><ele>175.0</ele><time>2026-03-28T14:36:08.328Z</time></trkpt><trkpt lat="42.9497859" lon="12.3689678"><ele>175.0</ele><time>2026-03-28T14:36:09.327Z</time></trkpt><trkpt lat="42.9495921" lon="12.3688695"><ele>175.0</ele><time>2026-03-28T14:36:10.328Z</time></trkpt><trkpt lat="42.9493951" lon="12.368775"><ele>174.66666666666669</ele><time>2026-03-28T14:36:11.328Z</time></trkpt><trkpt lat="42.9491969" lon="12.3686787"><ele>174.33333333333334</ele><time>2026-03-28T14:36:12.328Z</time></trkpt><trkpt lat="42.9490042" lon="12.3685869"><ele>174.0</ele><time>2026-03-28T14:36:13.328Z</time></trkpt><trkpt lat="42.9488062" lon="12.3684925"><ele>174.0</ele><time>2026-03-28T14:36:14.328Z</time></trkpt><trkpt lat="42.9486098" lon="12.3684056"><ele>174.0</ele><time>2026-03-28T14:36:15.327Z</time></trkpt><trkpt lat="42.9484103" lon="12.3683137"><ele>174.0</ele><time>2026-03-28T14:36:16.327Z</time></trkpt><trkpt lat="42.9482116" lon="12.3682204"><ele>173.33333333333334</ele><time>2026-03-28T14:36:17.328Z</time></trkpt><trkpt lat="42.9480084" lon="12.3681262"><ele>172.66666666666669</ele><time>2026-03-28T14:36:18.328Z</time></trkpt><trkpt lat="42.9478097" lon="12.3680279"><ele>172.0</ele><time>2026-03-28T14:36:19.328Z</time></trkpt><trkpt lat="42.9476149" lon="12.3679303"><ele>171.66666666666669</ele><time>2026-03-28T14:36:20.328Z</time></trkpt><trkpt lat="42.947419" lon="12.3678397"><ele>171.33333333333334</ele><time>2026-03-28T14:36:21.328Z</time></trkpt><trkpt lat="42.9472211" lon="12.3677481"><ele>171.0</ele><time>2026-03-28T14:36:22.328Z</time></trkpt><trkpt lat="42.9470284" lon="12.3676425"><ele>171.0</ele><time>2026-03-28T14:36:23.328Z</time></trkpt><trkpt lat="42.9468326" lon="12.3675472"><ele>171.0</ele><time>2026-03-28T14:36:24.328Z</time></trkpt><trkpt lat="42.9466321" lon="12.3674458"><ele>171.0</ele><time>2026-03-28T14:36:25.328Z</time></trkpt><trkpt lat="42.9464356" lon="12.3673451"><ele>171.33333333333334</ele><time>2026-03-28T14:36:26.328Z</time></trkpt><trkpt lat="42.9462312" lon="12.3672448"><ele>171.66666666666669</ele><time>2026-03-28T14:36:27.328Z</time></trkpt><trkpt lat="42.9460305" lon="12.3671536"><ele>172.0</ele><time>2026-03-28T14:36:28.328Z</time></trkpt><trkpt lat="42.9458281" lon="12.3670589"><ele>172.0</ele><time>2026-03-28T14:36:29.328Z</time></trkpt><trkpt lat="42.945625" lon="12.3669614"><ele>172.0</ele><time>2026-03-28T14:36:30.328Z</time></trkpt><trkpt lat="42.9454193" lon="12.3668651"><ele>172.0</ele><time>2026-03-28T14:36:31.328Z</time></trkpt><trkpt lat="42.9452207" lon="12.3667683"><ele>173.0</ele><time>2026-03-28T14:36:32.328Z</time></trkpt><trkpt lat="42.9450174" lon="12.3666668"><ele>174.0</ele><time>2026-03-28T14:36:33.328Z</time></trkpt><trkpt lat="42.9448215" lon="12.3665634"><ele>175.0</ele><time>2026-03-28T14:36:34.328Z</time></trkpt><trkpt lat="42.9446187" lon="12.366453"><ele>175.66666666666669</ele><time>2026-03-28T14:36:35.327Z</time></trkpt><trkpt lat="42.9444236" lon="12.3663348"><ele>176.33333333333334</ele><time>2026-03-28T14:36:36.328Z</time></trkpt><trkpt lat="42.9442341" lon="12.3662084"><ele>177.0</ele><time>2026-03-28T14:36:37.328Z</time></trkpt><trkpt lat="42.9440467" lon="12.3660789"><ele>177.33333333333334</ele><time>2026-03-28T14:36:38.328Z</time></trkpt><trkpt lat="42.9438674" lon="12.3659481"><ele>177.66666666666669</ele><time>2026-03-28T14:36:39.327Z</time></trkpt><trkpt lat="42.9436851" lon="12.3658135"><ele>178.0</ele><time>2026-03-28T14:36:40.328Z</time></trkpt><trkpt lat="42.9435146" lon="12.3656669"><ele>178.66666666666669</ele><time>2026-03-28T14:36:41.328Z</time></trkpt><trkpt lat="42.9433393" lon="12.3655236"><ele>179.33333333333334</ele><time>2026-03-28T14:36:42.328Z</time></trkpt><trkpt lat="42.9431586" lon="12.3653799"><ele>180.0</ele><time>2026-03-28T14:36:43.327Z</time></trkpt><trkpt lat="42.9429785" lon="12.3652318"><ele>180.0</ele><time>2026-03-28T14:36:44.327Z</time></trkpt><trkpt lat="42.9427959" lon="12.3650878"><ele>180.0</ele><time>2026-03-28T14:36:45.328Z</time></trkpt><trkpt lat="42.9426186" lon="12.364936"><ele>180.0</ele><time>2026-03-28T14:36:46.328Z</time></trkpt><trkpt lat="42.9424373" lon="12.3647904"><ele>179.33333333333334</ele><time>2026-03-28T14:36:47.328Z</time></trkpt><trkpt lat="42.9422563" lon="12.3646389"><ele>178.66666666666669</ele><time>2026-03-28T14:36:48.328Z</time></trkpt><trkpt lat="42.9420721" lon="12.3644953"><ele>178.0</ele><time>2026-03-28T14:36:49.328Z</time></trkpt><trkpt lat="42.9418931" lon="12.3643483"><ele>178.0</ele><time>2026-03-28T14:36:50.328Z</time></trkpt><trkpt lat="42.9417168" lon="12.3642028"><ele>178.0</ele><time>2026-03-28T14:36:51.328Z</time></trkpt><trkpt lat="42.9415444" lon="12.3640635"><ele>178.0</ele><time>2026-03-28T14:36:52.328Z</time></trkpt><trkpt lat="42.9413729" lon="12.3639249"><ele>178.0</ele><time>2026-03-28T14:36:53.328Z</time></trkpt><trkpt lat="42.9412063" lon="12.3637794"><ele>178.0</ele><time>2026-03-28T14:36:54.327Z</time></trkpt><trkpt lat="42.9410331" lon="12.36364"><ele>178.0</ele><time>2026-03-28T14:36:55.328Z</time></trkpt><trkpt lat="42.9408584" lon="12.3634992"><ele>178.33333333333334</ele><time>2026-03-28T14:36:56.328Z</time></trkpt><trkpt lat="42.9406828" lon="12.3633586"><ele>178.66666666666666</ele><time>2026-03-28T14:36:57.328Z</time></trkpt><trkpt lat="42.9405106" lon="12.3632256"><ele>179.0</ele><time>2026-03-28T14:36:58.328Z</time></trkpt><trkpt lat="42.9403343" lon="12.3630831"><ele>180.0</ele><time>2026-03-28T14:36:59.328Z</time></trkpt><trkpt lat="42.940164" lon="12.3629364"><ele>181.0</ele><time>2026-03-28T14:37:00.327Z</time></trkpt><trkpt lat="42.9399903" lon="12.3627929"><ele>182.0</ele><time>2026-03-28T14:37:01.328Z</time></trkpt><trkpt lat="42.9398149" lon="12.3626472"><ele>182.66666666666666</ele><time>2026-03-28T14:37:02.328Z</time></trkpt><trkpt lat="42.9396404" lon="12.3625057"><ele>183.33333333333334</ele><time>2026-03-28T14:37:03.328Z</time></trkpt><trkpt lat="42.9394625" lon="12.362374"><ele>184.0</ele><time>2026-03-28T14:37:04.328Z</time></trkpt><trkpt lat="42.9392887" lon="12.3622344"><ele>183.33333333333334</ele><time>2026-03-28T14:37:05.327Z</time></trkpt><trkpt lat="42.9391126" lon="12.3621024"><ele>182.66666666666666</ele><time>2026-03-28T14:37:06.328Z</time></trkpt><trkpt lat="42.9389398" lon="12.3619693"><ele>182.0</ele><time>2026-03-28T14:37:07.327Z</time></trkpt><trkpt lat="42.9387717" lon="12.3618283"><ele>182.0</ele><time>2026-03-28T14:37:08.328Z</time></trkpt><trkpt lat="42.9386034" lon="12.3616867"><ele>182.0</ele><time>2026-03-28T14:37:09.327Z</time></trkpt><trkpt lat="42.9384335" lon="12.3615526"><ele>182.0</ele><time>2026-03-28T14:37:10.328Z</time></trkpt><trkpt lat="42.9382725" lon="12.3614205"><ele>183.0</ele><time>2026-03-28T14:37:11.328Z</time></trkpt><trkpt lat="42.9380968" lon="12.3612811"><ele>184.0</ele><time>2026-03-28T14:37:12.328Z</time></trkpt><trkpt lat="42.9379276" lon="12.3611453"><ele>185.0</ele><time>2026-03-28T14:37:13.328Z</time></trkpt><trkpt lat="42.9377612" lon="12.3610049"><ele>185.0</ele><time>2026-03-28T14:37:14.328Z</time></trkpt><trkpt lat="42.9375887" lon="12.3608683"><ele>185.0</ele><time>2026-03-28T14:37:15.328Z</time></trkpt><trkpt lat="42.937416" lon="12.3607355"><ele>185.0</ele><time>2026-03-28T14:37:16.328Z</time></trkpt><trkpt lat="42.9372479" lon="12.3605913"><ele>183.33333333333331</ele><time>2026-03-28T14:37:17.328Z</time></trkpt><trkpt lat="42.9370803" lon="12.3604583"><ele>181.66666666666666</ele><time>2026-03-28T14:37:18.328Z</time></trkpt><trkpt lat="42.9369157" lon="12.3603396"><ele>180.0</ele><time>2026-03-28T14:37:19.327Z</time></trkpt><trkpt lat="42.9367454" lon="12.3602412"><ele>179.66666666666666</ele><time>2026-03-28T14:37:20.327Z</time></trkpt><trkpt lat="42.9365703" lon="12.3601587"><ele>179.33333333333331</ele><time>2026-03-28T14:37:21.328Z</time></trkpt><trkpt lat="42.9363809" lon="12.3600908"><ele>179.0</ele><time>2026-03-28T14:37:22.328Z</time></trkpt><trkpt lat="42.9361911" lon="12.3600202"><ele>179.0</ele><time>2026-03-28T14:37:23.328Z</time></trkpt><trkpt lat="42.936004" lon="12.3599475"><ele>179.0</ele><time>2026-03-28T14:37:24.327Z</time></trkpt><trkpt lat="42.935812" lon="12.3598746"><ele>179.0</ele><time>2026-03-28T14:37:25.328Z</time></trkpt><trkpt lat="42.935617" lon="12.3597965"><ele>179.0</ele><time>2026-03-28T14:37:26.328Z</time></trkpt><trkpt lat="42.9354228" lon="12.3597191"><ele>179.0</ele><time>2026-03-28T14:37:27.328Z</time></trkpt><trkpt lat="42.9352295" lon="12.3596419"><ele>179.0</ele><time>2026-03-28T14:37:28.327Z</time></trkpt><trkpt lat="42.9350306" lon="12.3595624"><ele>179.66666666666666</ele><time>2026-03-28T14:37:29.328Z</time></trkpt><trkpt lat="42.9348316" lon="12.359482"><ele>180.33333333333334</ele><time>2026-03-28T14:37:30.327Z</time></trkpt><trkpt lat="42.9346331" lon="12.3594042"><ele>181.0</ele><time>2026-03-28T14:37:31.328Z</time></trkpt><trkpt lat="42.9344381" lon="12.3593251"><ele>181.0</ele><time>2026-03-28T14:37:32.328Z</time></trkpt><trkpt lat="42.9342501" lon="12.3592446"><ele>181.0</ele><time>2026-03-28T14:37:33.328Z</time></trkpt><trkpt lat="42.9340634" lon="12.3591729"><ele>181.0</ele><time>2026-03-28T14:37:34.328Z</time></trkpt><trkpt lat="42.9338928" lon="12.359097"><ele>181.33333333333334</ele><time>2026-03-28T14:37:35.328Z</time></trkpt><trkpt lat="42.9337332" lon="12.3590031"><ele>181.66666666666666</ele><time>2026-03-28T14:37:36.328Z</time></trkpt><trkpt lat="42.9335821" lon="12.3588927"><ele>182.0</ele><time>2026-03-28T14:37:37.328Z</time></trkpt><trkpt lat="42.9334448" lon="12.3587606"><ele>184.66666666666666</ele><time>2026-03-28T14:37:38.328Z</time></trkpt><trkpt lat="42.9332994" lon="12.3586261"><ele>187.33333333333334</ele><time>2026-03-28T14:37:39.328Z</time></trkpt><trkpt lat="42.9331564" lon="12.3584975"><ele>190.0</ele><time>2026-03-28T14:37:40.328Z</time></trkpt><trkpt lat="42.9330106" lon="12.3583599"><ele>190.0</ele><time>2026-03-28T14:37:41.327Z</time></trkpt><trkpt lat="42.9328639" lon="12.3582289"><ele>190.0</ele><time>2026-03-28T14:37:42.328Z</time></trkpt><trkpt lat="42.9327181" lon="12.3580966"><ele>190.0</ele><time>2026-03-28T14:37:43.328Z</time></trkpt><trkpt lat="42.9325681" lon="12.3579681"><ele>190.0</ele><time>2026-03-28T14:37:44.328Z</time></trkpt><trkpt lat="42.9324217" lon="12.3578366"><ele>190.0</ele><time>2026-03-28T14:37:45.328Z</time></trkpt><trkpt lat="42.9322743" lon="12.357708"><ele>190.0</ele><time>2026-03-28T14:37:46.327Z</time></trkpt><trkpt lat="42.9321352" lon="12.3575859"><ele>190.0</ele><time>2026-03-28T14:37:47.328Z</time></trkpt><trkpt lat="42.9320098" lon="12.3574618"><ele>190.0</ele><time>2026-03-28T14:37:48.328Z</time></trkpt><trkpt lat="42.9318858" lon="12.3573509"><ele>190.0</ele><time>2026-03-28T14:37:49.328Z</time></trkpt><trkpt lat="42.9317739" lon="12.3572356"><ele>190.0</ele><time>2026-03-28T14:37:50.328Z</time></trkpt><trkpt lat="42.9316542" lon="12.3571294"><ele>190.25</ele><time>2026-03-28T14:37:51.328Z</time></trkpt><trkpt lat="42.9315408" lon="12.3570225"><ele>190.5</ele><time>2026-03-28T14:37:52.328Z</time></trkpt><trkpt lat="42.9314246" lon="12.3569268"><ele>190.75</ele><time>2026-03-28T14:37:53.328Z</time></trkpt><trkpt lat="42.9312992" lon="12.3568255"><ele>191.0</ele><time>2026-03-28T14:37:54.328Z</time></trkpt><trkpt lat="42.931179" lon="12.3567228"><ele>191.0</ele><time>2026-03-28T14:37:55.328Z</time></trkpt><trkpt lat="42.9310603" lon="12.3566181"><ele>191.0</ele><time>2026-03-28T14:37:56.327Z</time></trkpt><trkpt lat="42.9309433" lon="12.3565125"><ele>191.0</ele><time>2026-03-28T14:37:57.327Z</time></trkpt><trkpt lat="42.9308184" lon="12.3564086"><ele>191.0</ele><time>2026-03-28T14:37:58.328Z</time></trkpt><trkpt lat="42.9307083" lon="12.3562966"><ele>191.0</ele><time>2026-03-28T14:37:59.328Z</time></trkpt><trkpt lat="42.9305978" lon="12.3561977"><ele>191.0</ele><time>2026-03-28T14:38:00.328Z</time></trkpt><trkpt lat="42.9304899" lon="12.3561057"><ele>191.0</ele><time>2026-03-28T14:38:01.328Z</time></trkpt><trkpt lat="42.9303878" lon="12.3560197"><ele>191.0</ele><time>2026-03-28T14:38:02.328Z</time></trkpt><trkpt lat="42.9302915" lon="12.3559408"><ele>191.0</ele><time>2026-03-28T14:38:03.327Z</time></trkpt><trkpt lat="42.9302064" lon="12.3558601"><ele>191.0</ele><time>2026-03-28T14:38:04.327Z</time></trkpt><trkpt lat="42.930132" lon="12.3557922"><ele>191.0</ele><time>2026-03-28T14:38:05.328Z</time></trkpt><trkpt lat="42.9300704" lon="12.3557152"><ele>191.0</ele><time>2026-03-28T14:38:06.328Z</time></trkpt><trkpt lat="42.9299999" lon="12.35566"><ele>191.0</ele><time>2026-03-28T14:38:07.328Z</time></trkpt><trkpt lat="42.9299306" lon="12.3555999"><ele>191.0</ele><time>2026-03-28T14:38:08.327Z</time></trkpt><trkpt lat="42.9298549" lon="12.3555341"><ele>191.4</ele><time>2026-03-28T14:38:09.327Z</time></trkpt><trkpt lat="42.9297708" lon="12.3554607"><ele>191.8</ele><time>2026-03-28T14:38:10.328Z</time></trkpt><trkpt lat="42.9296912" lon="12.3553839"><ele>192.20000000000002</ele><time>2026-03-28T14:38:11.328Z</time></trkpt><trkpt lat="42.9296061" lon="12.3553005"><ele>192.60000000000002</ele><time>2026-03-28T14:38:12.328Z</time></trkpt><trkpt lat="42.9295146" lon="12.3552156"><ele>193.0</ele><time>2026-03-28T14:38:13.327Z</time></trkpt><trkpt lat="42.9294227" lon="12.355135"><ele>193.0</ele><time>2026-03-28T14:38:14.328Z</time></trkpt><trkpt lat="42.9293237" lon="12.3550535"><ele>193.0</ele><time>2026-03-28T14:38:15.328Z</time></trkpt><trkpt lat="42.9292271" lon="12.3549659"><ele>193.0</ele><time>2026-03-28T14:38:16.327Z</time></trkpt><trkpt lat="42.9291231" lon="12.3548774"><ele>193.0</ele><time>2026-03-28T14:38:17.328Z</time></trkpt><trkpt lat="42.9290174" lon="12.3547827"><ele>192.5</ele><time>2026-03-28T14:38:18.328Z</time></trkpt><trkpt lat="42.9289094" lon="12.3546991"><ele>192.0</ele><time>2026-03-28T14:38:19.327Z</time></trkpt><trkpt lat="42.928801" lon="12.3546055"><ele>191.5</ele><time>2026-03-28T14:38:20.328Z</time></trkpt><trkpt lat="42.9286839" lon="12.3545068"><ele>191.0</ele><time>2026-03-28T14:38:21.328Z</time></trkpt><trkpt lat="42.9285583" lon="12.3543965"><ele>191.0</ele><time>2026-03-28T14:38:22.328Z</time></trkpt><trkpt lat="42.9284305" lon="12.3542838"><ele>191.0</ele><time>2026-03-28T14:38:23.328Z</time></trkpt><trkpt lat="42.9282981" lon="12.3541666"><ele>191.0</ele><time>2026-03-28T14:38:24.328Z</time></trkpt><trkpt lat="42.9281606" lon="12.3540345"><ele>191.0</ele><time>2026-03-28T14:38:25.328Z</time></trkpt><trkpt lat="42.9280278" lon="12.3538916"><ele>191.0</ele><time>2026-03-28T14:38:26.328Z</time></trkpt><trkpt lat="42.9278835" lon="12.3537628"><ele>191.0</ele><time>2026-03-28T14:38:27.328Z</time></trkpt><trkpt lat="42.9277349" lon="12.3536371"><ele>190.66666666666666</ele><time>2026-03-28T14:38:28.328Z</time></trkpt><trkpt lat="42.9275863" lon="12.3535211"><ele>190.33333333333334</ele><time>2026-03-28T14:38:29.327Z</time></trkpt><trkpt lat="42.9274325" lon="12.3533933"><ele>190.0</ele><time>2026-03-28T14:38:30.328Z</time></trkpt><trkpt lat="42.9272742" lon="12.353247"><ele>190.0</ele><time>2026-03-28T14:38:31.327Z</time></trkpt><trkpt lat="42.9271136" lon="12.3531109"><ele>190.0</ele><time>2026-03-28T14:38:32.328Z</time></trkpt><trkpt lat="42.9269511" lon="12.352966"><ele>190.0</ele><time>2026-03-28T14:38:33.328Z</time></trkpt><trkpt lat="42.9267906" lon="12.3528064"><ele>190.33333333333334</ele><time>2026-03-28T14:38:34.328Z</time></trkpt><trkpt lat="42.9266364" lon="12.3526632"><ele>190.66666666666666</ele><time>2026-03-28T14:38:35.327Z</time></trkpt><trkpt lat="42.9264796" lon="12.3525016"><ele>191.0</ele><time>2026-03-28T14:38:36.328Z</time></trkpt><trkpt lat="42.9263209" lon="12.3523609"><ele>191.0</ele><time>2026-03-28T14:38:37.328Z</time></trkpt><trkpt lat="42.9261644" lon="12.3522102"><ele>191.0</ele><time>2026-03-28T14:38:38.327Z</time></trkpt><trkpt lat="42.9260182" lon="12.3520656"><ele>191.0</ele><time>2026-03-28T14:38:39.328Z</time></trkpt><trkpt lat="42.9258662" lon="12.3519258"><ele>191.33333333333331</ele><time>2026-03-28T14:38:40.328Z</time></trkpt><trkpt lat="42.9257237" lon="12.3517932"><ele>191.66666666666666</ele><time>2026-03-28T14:38:41.328Z</time></trkpt><trkpt lat="42.9255942" lon="12.3516711"><ele>192.0</ele><time>2026-03-28T14:38:42.328Z</time></trkpt><trkpt lat="42.9254764" lon="12.3515454"><ele>192.0</ele><time>2026-03-28T14:38:43.328Z</time></trkpt><trkpt lat="42.9253479" lon="12.3514037"><ele>192.0</ele><time>2026-03-28T14:38:44.327Z</time></trkpt><trkpt lat="42.925244" lon="12.3512518"><ele>192.0</ele><time>2026-03-28T14:38:45.328Z</time></trkpt><trkpt lat="42.9251408" lon="12.3510758"><ele>192.33333333333331</ele><time>2026-03-28T14:38:46.327Z</time></trkpt><trkpt lat="42.9250581" lon="12.3508937"><ele>192.66666666666666</ele><time>2026-03-28T14:38:47.328Z</time></trkpt><trkpt lat="42.9249793" lon="12.3506952"><ele>193.0</ele><time>2026-03-28T14:38:48.327Z</time></trkpt><trkpt lat="42.9249135" lon="12.3504965"><ele>193.66666666666666</ele><time>2026-03-28T14:38:49.328Z</time></trkpt><trkpt lat="42.9248437" lon="12.3502871"><ele>194.33333333333331</ele><time>2026-03-28T14:38:50.327Z</time></trkpt><trkpt lat="42.924774" lon="12.350068"><ele>195.0</ele><time>2026-03-28T14:38:51.328Z</time></trkpt><trkpt lat="42.9247043" lon="12.3498426"><ele>195.0</ele><time>2026-03-28T14:38:52.328Z</time></trkpt><trkpt lat="42.9246313" lon="12.3496262"><ele>195.0</ele><time>2026-03-28T14:38:53.328Z</time></trkpt><trkpt lat="42.9245575" lon="12.3494103"><ele>195.0</ele><time>2026-03-28T14:38:54.327Z</time></trkpt><trkpt lat="42.9244873" lon="12.3492147"><ele>195.0</ele><time>2026-03-28T14:38:55.327Z</time></trkpt><trkpt lat="42.9244007" lon="12.3490517"><ele>195.0</ele><time>2026-03-28T14:38:56.327Z</time></trkpt><trkpt lat="42.9242886" lon="12.3489033"><ele>195.0</ele><time>2026-03-28T14:38:57.328Z</time></trkpt><trkpt lat="42.9241611" lon="12.3487743"><ele>194.33333333333331</ele><time>2026-03-28T14:38:58.327Z</time></trkpt><trkpt lat="42.924026" lon="12.3486367"><ele>193.66666666666666</ele><time>2026-03-28T14:38:59.328Z</time></trkpt><trkpt lat="42.9238761" lon="12.348512"><ele>193.0</ele><time>2026-03-28T14:39:00.328Z</time></trkpt><trkpt lat="42.9237276" lon="12.3483724"><ele>193.0</ele><time>2026-03-28T14:39:01.328Z</time></trkpt><trkpt lat="42.9235797" lon="12.3482461"><ele>193.0</ele><time>2026-03-28T14:39:02.327Z</time></trkpt><trkpt lat="42.9234345" lon="12.3481247"><ele>193.0</ele><time>2026-03-28T14:39:03.327Z</time></trkpt><trkpt lat="42.9233" lon="12.3480002"><ele>194.66666666666666</ele><time>2026-03-28T14:39:04.328Z</time></trkpt><trkpt lat="42.9231521" lon="12.3479251"><ele>196.33333333333331</ele><time>2026-03-28T14:39:05.327Z</time></trkpt><trkpt lat="42.9229998" lon="12.3478621"><ele>198.0</ele><time>2026-03-28T14:39:06.327Z</time></trkpt><trkpt lat="42.9228355" lon="12.3478422"><ele>198.0</ele><time>2026-03-28T14:39:07.328Z</time></trkpt><trkpt lat="42.9226634" lon="12.3478492"><ele>198.0</ele><time>2026-03-28T14:39:08.327Z</time></trkpt><trkpt lat="42.9224939" lon="12.3478519"><ele>198.0</ele><time>2026-03-28T14:39:09.328Z</time></trkpt><trkpt lat="42.9223193" lon="12.3478633"><ele>196.66666666666669</ele><time>2026-03-28T14:39:10.328Z</time></trkpt><trkpt lat="42.9221488" lon="12.3478752"><ele>195.33333333333334</ele><time>2026-03-28T14:39:11.328Z</time></trkpt><trkpt lat="42.9219942" lon="12.3478907"><ele>194.0</ele><time>2026-03-28T14:39:12.328Z</time></trkpt><trkpt lat="42.9218287" lon="12.3479078"><ele>193.0</ele><time>2026-03-28T14:39:13.327Z</time></trkpt><trkpt lat="42.9216836" lon="12.347928"><ele>192.0</ele><time>2026-03-28T14:39:14.327Z</time></trkpt><trkpt lat="42.9215438" lon="12.3479388"><ele>191.0</ele><time>2026-03-28T14:39:15.328Z</time></trkpt><trkpt lat="42.921418" lon="12.3479486"><ele>190.0</ele><time>2026-03-28T14:39:16.327Z</time></trkpt><trkpt lat="42.9212817" lon="12.3479393"><ele>190.0</ele><time>2026-03-28T14:39:17.328Z</time></trkpt><trkpt lat="42.9211481" lon="12.347909"><ele>190.0</ele><time>2026-03-28T14:39:18.328Z</time></trkpt><trkpt lat="42.9210191" lon="12.347836"><ele>190.0</ele><time>2026-03-28T14:39:19.328Z</time></trkpt><trkpt lat="42.9208894" lon="12.3477426"><ele>190.0</ele><time>2026-03-28T14:39:20.328Z</time></trkpt><trkpt lat="42.9207729" lon="12.3476236"><ele>189.66666666666669</ele><time>2026-03-28T14:39:21.328Z</time></trkpt><trkpt lat="42.9206666" lon="12.3474703"><ele>189.33333333333334</ele><time>2026-03-28T14:39:22.328Z</time></trkpt><trkpt lat="42.9205747" lon="12.3473114"><ele>189.0</ele><time>2026-03-28T14:39:23.328Z</time></trkpt><trkpt lat="42.9204923" lon="12.3471303"><ele>189.0</ele><time>2026-03-28T14:39:24.327Z</time></trkpt><trkpt lat="42.9204175" lon="12.3469429"><ele>189.0</ele><time>2026-03-28T14:39:25.328Z</time></trkpt><trkpt lat="42.9203542" lon="12.3467492"><ele>189.0</ele><time>2026-03-28T14:39:26.328Z</time></trkpt><trkpt lat="42.9202919" lon="12.3465493"><ele>189.25</ele><time>2026-03-28T14:39:27.328Z</time></trkpt><trkpt lat="42.9202365" lon="12.3463621"><ele>189.5</ele><time>2026-03-28T14:39:28.328Z</time></trkpt><trkpt lat="42.9201789" lon="12.3461854"><ele>189.75</ele><time>2026-03-28T14:39:29.327Z</time></trkpt><trkpt lat="42.9201091" lon="12.3460112"><ele>190.0</ele><time>2026-03-28T14:39:30.328Z</time></trkpt><trkpt lat="42.9200369" lon="12.3458399"><ele>185.0</ele><time>2026-03-28T14:39:31.328Z</time></trkpt><trkpt lat="42.9199466" lon="12.3456858"><ele>180.0</ele><time>2026-03-28T14:39:32.328Z</time></trkpt><trkpt lat="42.919841" lon="12.3455314"><ele>175.0</ele><time>2026-03-28T14:39:33.328Z</time></trkpt><trkpt lat="42.9197282" lon="12.3453759"><ele>175.0</ele><time>2026-03-28T14:39:34.327Z</time></trkpt><trkpt lat="42.9196131" lon="12.3452212"><ele>175.0</ele><time>2026-03-28T14:39:35.327Z</time></trkpt><trkpt lat="42.9195038" lon="12.3450564"><ele>175.0</ele><time>2026-03-28T14:39:36.328Z</time></trkpt><trkpt lat="42.91939" lon="12.3448988"><ele>175.0</ele><time>2026-03-28T14:39:37.327Z</time></trkpt><trkpt lat="42.9192723" lon="12.3447275"><ele>175.0</ele><time>2026-03-28T14:39:38.328Z</time></trkpt><trkpt lat="42.919158" lon="12.3445545"><ele>175.0</ele><time>2026-03-28T14:39:39.328Z</time></trkpt><trkpt lat="42.9190405" lon="12.3443863"><ele>172.66666666666669</ele><time>2026-03-28T14:39:40.327Z</time></trkpt><trkpt lat="42.9189247" lon="12.3442089"><ele>170.33333333333334</ele><time>2026-03-28T14:39:41.328Z</time></trkpt><trkpt lat="42.9188295" lon="12.3440025"><ele>168.0</ele><time>2026-03-28T14:39:42.328Z</time></trkpt><trkpt lat="42.918754" lon="12.3437892"><ele>168.0</ele><time>2026-03-28T14:39:43.328Z</time></trkpt><trkpt lat="42.9187015" lon="12.3435701"><ele>168.0</ele><time>2026-03-28T14:39:44.328Z</time></trkpt><trkpt lat="42.9186512" lon="12.3433359"><ele>168.0</ele><time>2026-03-28T14:39:45.327Z</time></trkpt><trkpt lat="42.9185973" lon="12.3430965"><ele>166.66666666666666</ele><time>2026-03-28T14:39:46.327Z</time></trkpt><trkpt lat="42.918546" lon="12.3428624"><ele>165.33333333333331</ele><time>2026-03-28T14:39:47.328Z</time></trkpt><trkpt lat="42.9185017" lon="12.3426414"><ele>164.0</ele><time>2026-03-28T14:39:48.328Z</time></trkpt><trkpt lat="42.9184612" lon="12.342425"><ele>164.0</ele><time>2026-03-28T14:39:49.328Z</time></trkpt><trkpt lat="42.918419" lon="12.3422218"><ele>164.0</ele><time>2026-03-28T14:39:50.327Z</time></trkpt><trkpt lat="42.9183821" lon="12.3420337"><ele>164.0</ele><time>2026-03-28T14:39:51.328Z</time></trkpt><trkpt lat="42.9183477" lon="12.34187"><ele>164.0</ele><time>2026-03-28T14:39:52.328Z</time></trkpt><trkpt lat="42.9183181" lon="12.3417171"><ele>164.5</ele><time>2026-03-28T14:39:53.327Z</time></trkpt><trkpt lat="42.9182959" lon="12.3415728"><ele>165.0</ele><time>2026-03-28T14:39:54.327Z</time></trkpt><trkpt lat="42.9182737" lon="12.3414491"><ele>165.5</ele><time>2026-03-28T14:39:55.328Z</time></trkpt><trkpt lat="42.9182607" lon="12.3413352"><ele>166.0</ele><time>2026-03-28T14:39:56.328Z</time></trkpt><trkpt lat="42.9182484" lon="12.3412393"><ele>166.5</ele><time>2026-03-28T14:39:57.327Z</time></trkpt><trkpt lat="42.9182402" lon="12.3411456"><ele>167.0</ele><time>2026-03-28T14:39:58.328Z</time></trkpt><trkpt lat="42.9182427" lon="12.3410561"><ele>167.2</ele><time>2026-03-28T14:39:59.327Z</time></trkpt><trkpt lat="42.918226" lon="12.3409524"><ele>167.39999999999998</ele><time>2026-03-28T14:40:00.327Z</time></trkpt><trkpt lat="42.9181916" lon="12.340839"><ele>167.60000000000002</ele><time>2026-03-28T14:40:01.328Z</time></trkpt><trkpt lat="42.9181589" lon="12.3407262"><ele>167.8</ele><time>2026-03-28T14:40:02.328Z</time></trkpt><trkpt lat="42.9181255" lon="12.3405764"><ele>168.0</ele><time>2026-03-28T14:40:03.328Z</time></trkpt><trkpt lat="42.9180924" lon="12.3404209"><ele>168.5</ele><time>2026-03-28T14:40:04.328Z</time></trkpt><trkpt lat="42.9180619" lon="12.3402545"><ele>169.0</ele><time>2026-03-28T14:40:05.327Z</time></trkpt><trkpt lat="42.9180193" lon="12.3400835"><ele>169.5</ele><time>2026-03-28T14:40:06.328Z</time></trkpt><trkpt lat="42.9179841" lon="12.3399136"><ele>170.0</ele><time>2026-03-28T14:40:07.327Z</time></trkpt><trkpt lat="42.9179502" lon="12.3397368"><ele>170.0</ele><time>2026-03-28T14:40:08.327Z</time></trkpt><trkpt lat="42.9179108" lon="12.3395657"><ele>170.0</ele><time>2026-03-28T14:40:09.328Z</time></trkpt><trkpt lat="42.9178781" lon="12.3393947"><ele>170.0</ele><time>2026-03-28T14:40:10.328Z</time></trkpt><trkpt lat="42.9178471" lon="12.3392252"><ele>170.0</ele><time>2026-03-28T14:40:11.328Z</time></trkpt><trkpt lat="42.9178121" lon="12.3390589"><ele>170.0</ele><time>2026-03-28T14:40:12.328Z</time></trkpt><trkpt lat="42.9177778" lon="12.3388894"><ele>170.0</ele><time>2026-03-28T14:40:13.328Z</time></trkpt><trkpt lat="42.9177508" lon="12.3387326"><ele>170.0</ele><time>2026-03-28T14:40:14.327Z</time></trkpt><trkpt lat="42.9177254" lon="12.3385834"><ele>170.0</ele><time>2026-03-28T14:40:15.328Z</time></trkpt><trkpt lat="42.9176983" lon="12.3384391"><ele>170.0</ele><time>2026-03-28T14:40:16.327Z</time></trkpt><trkpt lat="42.9176766" lon="12.3383204"><ele>170.0</ele><time>2026-03-28T14:40:17.327Z</time></trkpt><trkpt lat="42.9176577" lon="12.3382101"><ele>170.0</ele><time>2026-03-28T14:40:18.327Z</time></trkpt><trkpt lat="42.9176259" lon="12.3381037"><ele>170.0</ele><time>2026-03-28T14:40:20.328Z</time></trkpt><trkpt lat="42.9175949" lon="12.3379922"><ele>170.0</ele><time>2026-03-28T14:40:23.328Z</time></trkpt><trkpt lat="42.9175365" lon="12.3378835"><ele>170.0</ele><time>2026-03-28T14:40:25.327Z</time></trkpt><trkpt lat="42.9174254" lon="12.3378505"><ele>169.66666666666666</ele><time>2026-03-28T14:40:27.328Z</time></trkpt><trkpt lat="42.9173611" lon="12.3378692"><ele>169.33333333333331</ele><time>2026-03-28T14:40:28.328Z</time></trkpt><trkpt lat="42.917288" lon="12.3378994"><ele>169.0</ele><time>2026-03-28T14:40:29.328Z</time></trkpt><trkpt lat="42.9172005" lon="12.337917"><ele>168.66666666666666</ele><time>2026-03-28T14:40:30.328Z</time></trkpt><trkpt lat="42.9171146" lon="12.337926"><ele>168.33333333333334</ele><time>2026-03-28T14:40:31.328Z</time></trkpt><trkpt lat="42.9170189" lon="12.3379168"><ele>168.0</ele><time>2026-03-28T14:40:32.328Z</time></trkpt><trkpt lat="42.9169221" lon="12.3378908"><ele>168.0</ele><time>2026-03-28T14:40:33.328Z</time></trkpt><trkpt lat="42.9168265" lon="12.3378215"><ele>168.0</ele><time>2026-03-28T14:40:34.327Z</time></trkpt><trkpt lat="42.9167291" lon="12.3377404"><ele>168.0</ele><time>2026-03-28T14:40:35.327Z</time></trkpt><trkpt lat="42.9166309" lon="12.3376502"><ele>168.0</ele><time>2026-03-28T14:40:36.328Z</time></trkpt><trkpt lat="42.9165451" lon="12.3375461"><ele>167.5</ele><time>2026-03-28T14:40:37.328Z</time></trkpt><trkpt lat="42.9164431" lon="12.3374534"><ele>167.0</ele><time>2026-03-28T14:40:38.327Z</time></trkpt><trkpt lat="42.916348" lon="12.337381"><ele>166.5</ele><time>2026-03-28T14:40:39.327Z</time></trkpt><trkpt lat="42.9162604" lon="12.3372905"><ele>166.0</ele><time>2026-03-28T14:40:40.328Z</time></trkpt><trkpt lat="42.9161624" lon="12.3372134"><ele>166.0</ele><time>2026-03-28T14:40:41.328Z</time></trkpt><trkpt lat="42.9160523" lon="12.3371692"><ele>166.0</ele><time>2026-03-28T14:40:42.327Z</time></trkpt><trkpt lat="42.9159266" lon="12.3371427"><ele>166.0</ele><time>2026-03-28T14:40:43.328Z</time></trkpt><trkpt lat="42.9157975" lon="12.3371378"><ele>166.0</ele><time>2026-03-28T14:40:44.327Z</time></trkpt><trkpt lat="42.9156602" lon="12.3371325"><ele>165.75</ele><time>2026-03-28T14:40:45.328Z</time></trkpt><trkpt lat="42.9155266" lon="12.3371226"><ele>165.5</ele><time>2026-03-28T14:40:46.327Z</time></trkpt><trkpt lat="42.915385" lon="12.3371207"><ele>165.25</ele><time>2026-03-28T14:40:47.327Z</time></trkpt><trkpt lat="42.9152559" lon="12.3371339"><ele>165.0</ele><time>2026-03-28T14:40:48.328Z</time></trkpt><trkpt lat="42.9151231" lon="12.3371347"><ele>165.0</ele><time>2026-03-28T14:40:49.327Z</time></trkpt><trkpt lat="42.914997" lon="12.3371352"><ele>165.0</ele><time>2026-03-28T14:40:50.327Z</time></trkpt><trkpt lat="42.9148688" lon="12.3371418"><ele>165.0</ele><time>2026-03-28T14:40:51.327Z</time></trkpt><trkpt lat="42.9147366" lon="12.3371294"><ele>165.0</ele><time>2026-03-28T14:40:52.328Z</time></trkpt><trkpt lat="42.9146112" lon="12.337132"><ele>165.0</ele><time>2026-03-28T14:40:53.327Z</time></trkpt><trkpt lat="42.9144854" lon="12.3371295"><ele>165.0</ele><time>2026-03-28T14:40:54.328Z</time></trkpt><trkpt lat="42.914358" lon="12.3371281"><ele>165.0</ele><time>2026-03-28T14:40:55.328Z</time></trkpt><trkpt lat="42.9142391" lon="12.3371272"><ele>165.0</ele><time>2026-03-28T14:40:56.328Z</time></trkpt><trkpt lat="42.9141245" lon="12.3371327"><ele>165.16666666666666</ele><time>2026-03-28T14:40:57.328Z</time></trkpt><trkpt lat="42.9140198" lon="12.3371284"><ele>165.33333333333334</ele><time>2026-03-28T14:40:58.327Z</time></trkpt><trkpt lat="42.9139272" lon="12.3371311"><ele>165.5</ele><time>2026-03-28T14:40:59.328Z</time></trkpt><trkpt lat="42.9138541" lon="12.3371326"><ele>165.66666666666669</ele><time>2026-03-28T14:41:00.328Z</time></trkpt><trkpt lat="42.9137715" lon="12.3371445"><ele>165.83333333333334</ele><time>2026-03-28T14:41:02.328Z</time></trkpt><trkpt lat="42.9137017" lon="12.3371412"><ele>166.0</ele><time>2026-03-28T14:41:04.328Z</time></trkpt><trkpt lat="42.9136315" lon="12.3371299"><ele>166.0</ele><time>2026-03-28T14:41:06.328Z</time></trkpt><trkpt lat="42.9135691" lon="12.3371565"><ele>166.0</ele><time>2026-03-28T14:41:08.327Z</time></trkpt><trkpt lat="42.9135194" lon="12.3372113"><ele>166.0</ele><time>2026-03-28T14:41:10.328Z</time></trkpt><trkpt lat="42.9134571" lon="12.3372467"><ele>166.0</ele><time>2026-03-28T14:41:13.328Z</time></trkpt><trkpt lat="42.9133815" lon="12.3372472"><ele>166.0</ele><time>2026-03-28T14:41:17.327Z</time></trkpt><trkpt lat="42.9133146" lon="12.3372322"><ele>166.0</ele><time>2026-03-28T14:41:19.328Z</time></trkpt><trkpt lat="42.913257" lon="12.3371609"><ele>166.0</ele><time>2026-03-28T14:41:28.328Z</time></trkpt><trkpt lat="42.9131391" lon="12.337135"><ele>166.16666666666669</ele><time>2026-03-28T14:41:30.327Z</time></trkpt><trkpt lat="42.9130767" lon="12.3371226"><ele>166.33333333333334</ele><time>2026-03-28T14:41:31.327Z</time></trkpt><trkpt lat="42.9129666" lon="12.3371296"><ele>166.5</ele><time>2026-03-28T14:41:33.327Z</time></trkpt><trkpt lat="42.9128803" lon="12.3371208"><ele>166.66666666666666</ele><time>2026-03-28T14:41:35.328Z</time></trkpt><trkpt lat="42.9128164" lon="12.3371066"><ele>166.83333333333331</ele><time>2026-03-28T14:41:37.328Z</time></trkpt><trkpt lat="42.9127492" lon="12.337099"><ele>167.0</ele><time>2026-03-28T14:41:39.327Z</time></trkpt><trkpt lat="42.9126764" lon="12.337065"><ele>167.0</ele><time>2026-03-28T14:41:41.328Z</time></trkpt><trkpt lat="42.9125788" lon="12.3370418"><ele>167.0</ele><time>2026-03-28T14:41:43.328Z</time></trkpt><trkpt lat="42.9124682" lon="12.3370586"><ele>167.0</ele><time>2026-03-28T14:41:45.328Z</time></trkpt><trkpt lat="42.9124016" lon="12.3370872"><ele>167.0</ele><time>2026-03-28T14:41:46.328Z</time></trkpt><trkpt lat="42.912339" lon="12.3371002"><ele>167.0</ele><time>2026-03-28T14:41:47.328Z</time></trkpt><trkpt lat="42.9122388" lon="12.3370954"><ele>167.0</ele><time>2026-03-28T14:41:49.328Z</time></trkpt><trkpt lat="42.9121598" lon="12.33713"><ele>167.0</ele><time>2026-03-28T14:41:51.328Z</time></trkpt><trkpt lat="42.9121118" lon="12.3371951"><ele>167.0</ele><time>2026-03-28T14:41:54.328Z</time></trkpt><trkpt lat="42.9121207" lon="12.3372958"><ele>167.0</ele><time>2026-03-28T14:45:25.328Z</time></trkpt><trkpt lat="42.912096" lon="12.3373908"><ele>167.0</ele><time>2026-03-28T14:45:36.328Z</time></trkpt><trkpt lat="42.9120469" lon="12.3375465"><ele>167.0</ele><time>2026-03-28T14:45:38.328Z</time></trkpt><trkpt lat="42.9120222" lon="12.3376392"><ele>167.0</ele><time>2026-03-28T14:45:39.328Z</time></trkpt><trkpt lat="42.9119931" lon="12.3377393"><ele>167.0</ele><time>2026-03-28T14:45:40.328Z</time></trkpt><trkpt lat="42.9119628" lon="12.337844"><ele>167.0</ele><time>2026-03-28T14:45:41.328Z</time></trkpt><trkpt lat="42.9119252" lon="12.3379514"><ele>167.0</ele><time>2026-03-28T14:45:42.327Z</time></trkpt><trkpt lat="42.9118871" lon="12.3380675"><ele>167.0</ele><time>2026-03-28T14:45:43.328Z</time></trkpt><trkpt lat="42.9118402" lon="12.3382164"><ele>167.0</ele><time>2026-03-28T14:45:44.327Z</time></trkpt><trkpt lat="42.9117946" lon="12.3383629"><ele>166.75</ele><time>2026-03-28T14:45:45.327Z</time></trkpt><trkpt lat="42.9117511" lon="12.3385098"><ele>166.5</ele><time>2026-03-28T14:45:46.328Z</time></trkpt><trkpt lat="42.9116984" lon="12.3386542"><ele>166.25</ele><time>2026-03-28T14:45:47.328Z</time></trkpt><trkpt lat="42.9116512" lon="12.3387909"><ele>166.0</ele><time>2026-03-28T14:45:48.328Z</time></trkpt><trkpt lat="42.9116046" lon="12.3389271"><ele>167.5</ele><time>2026-03-28T14:45:49.328Z</time></trkpt><trkpt lat="42.9115533" lon="12.3390672"><ele>169.0</ele><time>2026-03-28T14:45:50.328Z</time></trkpt><trkpt lat="42.9114914" lon="12.339209"><ele>170.5</ele><time>2026-03-28T14:45:51.328Z</time></trkpt><trkpt lat="42.911435" lon="12.339354"><ele>172.0</ele><time>2026-03-28T14:45:52.328Z</time></trkpt><trkpt lat="42.9113731" lon="12.3395039"><ele>172.0</ele><time>2026-03-28T14:45:53.328Z</time></trkpt><trkpt lat="42.91131" lon="12.339648"><ele>172.0</ele><time>2026-03-28T14:45:54.328Z</time></trkpt><trkpt lat="42.911236" lon="12.3397861"><ele>172.0</ele><time>2026-03-28T14:45:55.328Z</time></trkpt><trkpt lat="42.9111618" lon="12.3399236"><ele>172.0</ele><time>2026-03-28T14:45:56.328Z</time></trkpt><trkpt lat="42.9110795" lon="12.3400469"><ele>171.25</ele><time>2026-03-28T14:45:57.328Z</time></trkpt><trkpt lat="42.9109824" lon="12.3401675"><ele>170.5</ele><time>2026-03-28T14:45:58.328Z</time></trkpt><trkpt lat="42.9108806" lon="12.3402751"><ele>169.75</ele><time>2026-03-28T14:45:59.328Z</time></trkpt><trkpt lat="42.9107619" lon="12.3403745"><ele>169.0</ele><time>2026-03-28T14:46:00.328Z</time></trkpt><trkpt lat="42.9106477" lon="12.3404732"><ele>168.79999999999998</ele><time>2026-03-28T14:46:01.328Z</time></trkpt><trkpt lat="42.9105358" lon="12.3405561"><ele>168.6</ele><time>2026-03-28T14:46:02.328Z</time></trkpt><trkpt lat="42.9104336" lon="12.3406044"><ele>168.4</ele><time>2026-03-28T14:46:03.327Z</time></trkpt><trkpt lat="42.9103289" lon="12.3406708"><ele>168.2</ele><time>2026-03-28T14:46:04.328Z</time></trkpt><trkpt lat="42.9102379" lon="12.340698"><ele>168.0</ele><time>2026-03-28T14:46:05.328Z</time></trkpt><trkpt lat="42.9101499" lon="12.3406943"><ele>169.5</ele><time>2026-03-28T14:46:06.327Z</time></trkpt><trkpt lat="42.9100626" lon="12.3406646"><ele>171.0</ele><time>2026-03-28T14:46:07.327Z</time></trkpt><trkpt lat="42.9099849" lon="12.3406233"><ele>172.5</ele><time>2026-03-28T14:46:08.328Z</time></trkpt><trkpt lat="42.9099144" lon="12.3405511"><ele>174.0</ele><time>2026-03-28T14:46:09.328Z</time></trkpt><trkpt lat="42.9098665" lon="12.3404535"><ele>175.5</ele><time>2026-03-28T14:46:10.328Z</time></trkpt><trkpt lat="42.9098245" lon="12.3403388"><ele>177.0</ele><time>2026-03-28T14:46:11.328Z</time></trkpt><trkpt lat="42.9097857" lon="12.3402198"><ele>178.0</ele><time>2026-03-28T14:46:12.327Z</time></trkpt><trkpt lat="42.9097382" lon="12.3400596"><ele>179.0</ele><time>2026-03-28T14:46:13.327Z</time></trkpt><trkpt lat="42.9096975" lon="12.3399002"><ele>180.0</ele><time>2026-03-28T14:46:14.328Z</time></trkpt><trkpt lat="42.9096488" lon="12.3397397"><ele>181.0</ele><time>2026-03-28T14:46:15.328Z</time></trkpt><trkpt lat="42.9096012" lon="12.3395657"><ele>181.5</ele><time>2026-03-28T14:46:16.328Z</time></trkpt><trkpt lat="42.9095505" lon="12.3393811"><ele>182.0</ele><time>2026-03-28T14:46:17.327Z</time></trkpt><trkpt lat="42.9095038" lon="12.3392078"><ele>182.5</ele><time>2026-03-28T14:46:18.328Z</time></trkpt><trkpt lat="42.9094632" lon="12.3390434"><ele>183.0</ele><time>2026-03-28T14:46:19.328Z</time></trkpt><trkpt lat="42.9094225" lon="12.3388787"><ele>184.2</ele><time>2026-03-28T14:46:20.328Z</time></trkpt><trkpt lat="42.9093956" lon="12.3387374"><ele>185.4</ele><time>2026-03-28T14:46:21.328Z</time></trkpt><trkpt lat="42.9093627" lon="12.3386026"><ele>186.6</ele><time>2026-03-28T14:46:22.328Z</time></trkpt><trkpt lat="42.909343" lon="12.3384698"><ele>187.79999999999998</ele><time>2026-03-28T14:46:23.327Z</time></trkpt><trkpt lat="42.9093318" lon="12.338324"><ele>189.0</ele><time>2026-03-28T14:46:24.328Z</time></trkpt><trkpt lat="42.9093219" lon="12.3381879"><ele>189.0</ele><time>2026-03-28T14:46:25.327Z</time></trkpt><trkpt lat="42.9093128" lon="12.3380659"><ele>189.0</ele><time>2026-03-28T14:46:26.327Z</time></trkpt><trkpt lat="42.9092877" lon="12.3379551"><ele>189.0</ele><time>2026-03-28T14:46:27.328Z</time></trkpt><trkpt lat="42.9092585" lon="12.3378486"><ele>189.0</ele><time>2026-03-28T14:46:28.328Z</time></trkpt><trkpt lat="42.9092036" lon="12.3377374"><ele>189.0</ele><time>2026-03-28T14:46:29.327Z</time></trkpt><trkpt lat="42.9091334" lon="12.3376218"><ele>189.0</ele><time>2026-03-28T14:46:30.328Z</time></trkpt><trkpt lat="42.909062" lon="12.3375021"><ele>189.0</ele><time>2026-03-28T14:46:31.327Z</time></trkpt><trkpt lat="42.9089822" lon="12.3373839"><ele>189.0</ele><time>2026-03-28T14:46:32.328Z</time></trkpt><trkpt lat="42.9089051" lon="12.3372615"><ele>189.0</ele><time>2026-03-28T14:46:33.328Z</time></trkpt><trkpt lat="42.9088337" lon="12.3371344"><ele>189.0</ele><time>2026-03-28T14:46:34.328Z</time></trkpt><trkpt lat="42.9087701" lon="12.3370057"><ele>189.0</ele><time>2026-03-28T14:46:35.328Z</time></trkpt><trkpt lat="42.9087256" lon="12.336886"><ele>189.0</ele><time>2026-03-28T14:46:36.328Z</time></trkpt><trkpt lat="42.908716" lon="12.336765"><ele>189.0</ele><time>2026-03-28T14:46:37.328Z</time></trkpt><trkpt lat="42.9087173" lon="12.3366306"><ele>189.0</ele><time>2026-03-28T14:46:38.327Z</time></trkpt><trkpt lat="42.9087305" lon="12.3365058"><ele>189.39999999999998</ele><time>2026-03-28T14:46:39.327Z</time></trkpt><trkpt lat="42.9087538" lon="12.336378"><ele>189.8</ele><time>2026-03-28T14:46:40.327Z</time></trkpt><trkpt lat="42.9087925" lon="12.3362461"><ele>190.2</ele><time>2026-03-28T14:46:41.328Z</time></trkpt><trkpt lat="42.9088451" lon="12.336149"><ele>190.60000000000002</ele><time>2026-03-28T14:46:42.327Z</time></trkpt><trkpt lat="42.9089056" lon="12.3360529"><ele>191.0</ele><time>2026-03-28T14:46:43.328Z</time></trkpt><trkpt lat="42.9089587" lon="12.3359616"><ele>191.0</ele><time>2026-03-28T14:46:44.328Z</time></trkpt><trkpt lat="42.9090131" lon="12.3358563"><ele>191.0</ele><time>2026-03-28T14:46:45.328Z</time></trkpt><trkpt lat="42.9090724" lon="12.33575"><ele>191.0</ele><time>2026-03-28T14:46:46.327Z</time></trkpt><trkpt lat="42.9091305" lon="12.33565"><ele>191.0</ele><time>2026-03-28T14:46:47.328Z</time></trkpt><trkpt lat="42.9091831" lon="12.3355579"><ele>191.0</ele><time>2026-03-28T14:46:48.328Z</time></trkpt><trkpt lat="42.9092293" lon="12.3354639"><ele>190.16666666666666</ele><time>2026-03-28T14:46:49.328Z</time></trkpt><trkpt lat="42.909268" lon="12.3353926"><ele>189.33333333333331</ele><time>2026-03-28T14:46:50.328Z</time></trkpt><trkpt lat="42.9093089" lon="12.3353154"><ele>188.5</ele><time>2026-03-28T14:46:51.327Z</time></trkpt><trkpt lat="42.9093366" lon="12.3352302"><ele>187.66666666666666</ele><time>2026-03-28T14:46:52.328Z</time></trkpt><trkpt lat="42.9093441" lon="12.335119"><ele>186.83333333333334</ele><time>2026-03-28T14:46:53.328Z</time></trkpt><trkpt lat="42.9093526" lon="12.3349937"><ele>186.0</ele><time>2026-03-28T14:46:54.327Z</time></trkpt><trkpt lat="42.9093218" lon="12.3348673"><ele>186.0</ele><time>2026-03-28T14:46:55.327Z</time></trkpt><trkpt lat="42.9092671" lon="12.3347543"><ele>186.0</ele><time>2026-03-28T14:46:56.328Z</time></trkpt><trkpt lat="42.9092054" lon="12.3346514"><ele>186.0</ele><time>2026-03-28T14:46:57.328Z</time></trkpt><trkpt lat="42.9091249" lon="12.3345546"><ele>186.0</ele><time>2026-03-28T14:46:58.328Z</time></trkpt><trkpt lat="42.9090295" lon="12.3344671"><ele>186.0</ele><time>2026-03-28T14:46:59.328Z</time></trkpt><trkpt lat="42.9089257" lon="12.3344091"><ele>188.0</ele><time>2026-03-28T14:47:00.327Z</time></trkpt><trkpt lat="42.9088228" lon="12.3343725"><ele>190.0</ele><time>2026-03-28T14:47:01.327Z</time></trkpt><trkpt lat="42.9087066" lon="12.3343783"><ele>192.0</ele><time>2026-03-28T14:47:02.328Z</time></trkpt><trkpt lat="42.9085955" lon="12.334412"><ele>194.0</ele><time>2026-03-28T14:47:03.328Z</time></trkpt><trkpt lat="42.9084833" lon="12.3344772"><ele>194.25</ele><time>2026-03-28T14:47:04.328Z</time></trkpt><trkpt lat="42.9083716" lon="12.3345518"><ele>194.5</ele><time>2026-03-28T14:47:05.328Z</time></trkpt><trkpt lat="42.9082521" lon="12.3346282"><ele>194.75</ele><time>2026-03-28T14:47:06.327Z</time></trkpt><trkpt lat="42.9081384" lon="12.3346917"><ele>195.0</ele><time>2026-03-28T14:47:07.328Z</time></trkpt><trkpt lat="42.9080205" lon="12.3347545"><ele>195.0</ele><time>2026-03-28T14:47:08.328Z</time></trkpt><trkpt lat="42.9079126" lon="12.334765"><ele>195.0</ele><time>2026-03-28T14:47:09.328Z</time></trkpt><trkpt lat="42.9078084" lon="12.3347779"><ele>195.0</ele><time>2026-03-28T14:47:10.328Z</time></trkpt><trkpt lat="42.9077228" lon="12.3347283"><ele>195.0</ele><time>2026-03-28T14:47:11.327Z</time></trkpt><trkpt lat="42.9076468" lon="12.3346424"><ele>195.0</ele><time>2026-03-28T14:47:12.327Z</time></trkpt><trkpt lat="42.9075762" lon="12.3345421"><ele>196.5</ele><time>2026-03-28T14:47:13.327Z</time></trkpt><trkpt lat="42.9075019" lon="12.3344212"><ele>198.0</ele><time>2026-03-28T14:47:14.328Z</time></trkpt><trkpt lat="42.9074264" lon="12.3342751"><ele>199.5</ele><time>2026-03-28T14:47:15.328Z</time></trkpt><trkpt lat="42.9073609" lon="12.3341332"><ele>201.0</ele><time>2026-03-28T14:47:16.328Z</time></trkpt><trkpt lat="42.9072995" lon="12.3339736"><ele>202.0</ele><time>2026-03-28T14:47:17.327Z</time></trkpt><trkpt lat="42.9072384" lon="12.3338315"><ele>203.0</ele><time>2026-03-28T14:47:18.327Z</time></trkpt><trkpt lat="42.9071871" lon="12.3336895"><ele>204.0</ele><time>2026-03-28T14:47:19.328Z</time></trkpt><trkpt lat="42.9071327" lon="12.3335676"><ele>205.0</ele><time>2026-03-28T14:47:20.328Z</time></trkpt><trkpt lat="42.9070919" lon="12.3334491"><ele>206.0</ele><time>2026-03-28T14:47:21.327Z</time></trkpt><trkpt lat="42.9070559" lon="12.333339"><ele>206.0</ele><time>2026-03-28T14:47:22.328Z</time></trkpt><trkpt lat="42.9070156" lon="12.3332101"><ele>206.0</ele><time>2026-03-28T14:47:23.328Z</time></trkpt><trkpt lat="42.9069823" lon="12.3330744"><ele>206.0</ele><time>2026-03-28T14:47:24.327Z</time></trkpt><trkpt lat="42.9069525" lon="12.3329312"><ele>206.0</ele><time>2026-03-28T14:47:25.328Z</time></trkpt><trkpt lat="42.9069346" lon="12.3327742"><ele>206.0</ele><time>2026-03-28T14:47:26.328Z</time></trkpt><trkpt lat="42.9069244" lon="12.332626"><ele>206.25</ele><time>2026-03-28T14:47:27.328Z</time></trkpt><trkpt lat="42.9069443" lon="12.3324707"><ele>206.5</ele><time>2026-03-28T14:47:28.328Z</time></trkpt><trkpt lat="42.9069684" lon="12.3322937"><ele>206.75</ele><time>2026-03-28T14:47:29.328Z</time></trkpt><trkpt lat="42.9070002" lon="12.33212"><ele>207.0</ele><time>2026-03-28T14:47:30.328Z</time></trkpt><trkpt lat="42.907032" lon="12.3319406"><ele>207.25</ele><time>2026-03-28T14:47:31.327Z</time></trkpt><trkpt lat="42.9070595" lon="12.3317577"><ele>207.5</ele><time>2026-03-28T14:47:32.328Z</time></trkpt><trkpt lat="42.9070877" lon="12.3315689"><ele>207.75</ele><time>2026-03-28T14:47:33.327Z</time></trkpt><trkpt lat="42.9071162" lon="12.3313881"><ele>208.0</ele><time>2026-03-28T14:47:34.328Z</time></trkpt><trkpt lat="42.9071371" lon="12.3312193"><ele>208.25</ele><time>2026-03-28T14:47:35.327Z</time></trkpt><trkpt lat="42.9071572" lon="12.3310563"><ele>208.5</ele><time>2026-03-28T14:47:36.327Z</time></trkpt><trkpt lat="42.907183" lon="12.3309018"><ele>208.75</ele><time>2026-03-28T14:47:37.327Z</time></trkpt><trkpt lat="42.9071894" lon="12.330738"><ele>209.0</ele><time>2026-03-28T14:47:38.328Z</time></trkpt><trkpt lat="42.9071581" lon="12.3305661"><ele>209.0</ele><time>2026-03-28T14:47:39.328Z</time></trkpt><trkpt lat="42.907129" lon="12.3303902"><ele>209.0</ele><time>2026-03-28T14:47:40.327Z</time></trkpt><trkpt lat="42.9070757" lon="12.3302073"><ele>209.0</ele><time>2026-03-28T14:47:41.328Z</time></trkpt><trkpt lat="42.9070131" lon="12.3300254"><ele>209.0</ele><time>2026-03-28T14:47:42.328Z</time></trkpt><trkpt lat="42.9069551" lon="12.3298487"><ele>209.33333333333334</ele><time>2026-03-28T14:47:43.328Z</time></trkpt><trkpt lat="42.9068835" lon="12.3296691"><ele>209.66666666666669</ele><time>2026-03-28T14:47:44.328Z</time></trkpt><trkpt lat="42.9068014" lon="12.3295014"><ele>210.0</ele><time>2026-03-28T14:47:45.328Z</time></trkpt><trkpt lat="42.9067082" lon="12.3293284"><ele>210.0</ele><time>2026-03-28T14:47:46.328Z</time></trkpt><trkpt lat="42.9066126" lon="12.3291661"><ele>210.0</ele><time>2026-03-28T14:47:47.327Z</time></trkpt><trkpt lat="42.9065124" lon="12.3290003"><ele>210.0</ele><time>2026-03-28T14:47:48.328Z</time></trkpt><trkpt lat="42.9063943" lon="12.3288438"><ele>208.0</ele><time>2026-03-28T14:47:49.327Z</time></trkpt><trkpt lat="42.9062655" lon="12.3286911"><ele>206.0</ele><time>2026-03-28T14:47:50.327Z</time></trkpt><trkpt lat="42.9061371" lon="12.3285464"><ele>204.0</ele><time>2026-03-28T14:47:51.327Z</time></trkpt><trkpt lat="42.9060032" lon="12.3283982"><ele>203.66666666666669</ele><time>2026-03-28T14:47:52.328Z</time></trkpt><trkpt lat="42.9058693" lon="12.3282616"><ele>203.33333333333334</ele><time>2026-03-28T14:47:53.327Z</time></trkpt><trkpt lat="42.9057257" lon="12.3281107"><ele>203.0</ele><time>2026-03-28T14:47:54.327Z</time></trkpt><trkpt lat="42.9055824" lon="12.3279705"><ele>203.0</ele><time>2026-03-28T14:47:55.327Z</time></trkpt><trkpt lat="42.9054426" lon="12.3278253"><ele>203.0</ele><time>2026-03-28T14:47:56.328Z</time></trkpt><trkpt lat="42.9053083" lon="12.3276687"><ele>203.0</ele><time>2026-03-28T14:47:57.327Z</time></trkpt><trkpt lat="42.9051708" lon="12.3275269"><ele>203.0</ele><time>2026-03-28T14:47:58.328Z</time></trkpt><trkpt lat="42.9050357" lon="12.3273816"><ele>203.0</ele><time>2026-03-28T14:47:59.328Z</time></trkpt><trkpt lat="42.9049013" lon="12.3272326"><ele>203.0</ele><time>2026-03-28T14:48:00.327Z</time></trkpt><trkpt lat="42.9047609" lon="12.3270847"><ele>203.0</ele><time>2026-03-28T14:48:01.328Z</time></trkpt><trkpt lat="42.9046309" lon="12.3269268"><ele>203.0</ele><time>2026-03-28T14:48:02.328Z</time></trkpt><trkpt lat="42.9044945" lon="12.3267835"><ele>203.0</ele><time>2026-03-28T14:48:03.327Z</time></trkpt><trkpt lat="42.904358" lon="12.3266406"><ele>203.0</ele><time>2026-03-28T14:48:04.328Z</time></trkpt><trkpt lat="42.9042261" lon="12.3265027"><ele>203.0</ele><time>2026-03-28T14:48:05.328Z</time></trkpt><trkpt lat="42.904097" lon="12.3263634"><ele>203.0</ele><time>2026-03-28T14:48:06.328Z</time></trkpt><trkpt lat="42.9039665" lon="12.3262301"><ele>203.0</ele><time>2026-03-28T14:48:07.327Z</time></trkpt><trkpt lat="42.9038428" lon="12.3260993"><ele>203.0</ele><time>2026-03-28T14:48:08.327Z</time></trkpt><trkpt lat="42.9037225" lon="12.3259643"><ele>203.0</ele><time>2026-03-28T14:48:09.328Z</time></trkpt><trkpt lat="42.9036077" lon="12.3258354"><ele>203.0</ele><time>2026-03-28T14:48:10.328Z</time></trkpt><trkpt lat="42.9034962" lon="12.325707"><ele>203.0</ele><time>2026-03-28T14:48:11.328Z</time></trkpt><trkpt lat="42.9034087" lon="12.3255678"><ele>203.0</ele><time>2026-03-28T14:48:12.328Z</time></trkpt><trkpt lat="42.9033471" lon="12.3254043"><ele>203.0</ele><time>2026-03-28T14:48:13.328Z</time></trkpt><trkpt lat="42.9033033" lon="12.3252232"><ele>204.0</ele><time>2026-03-28T14:48:14.328Z</time></trkpt><trkpt lat="42.9032688" lon="12.3250332"><ele>205.0</ele><time>2026-03-28T14:48:15.327Z</time></trkpt><trkpt lat="42.9032492" lon="12.3248275"><ele>206.0</ele><time>2026-03-28T14:48:16.328Z</time></trkpt><trkpt lat="42.9032329" lon="12.3246145"><ele>206.33333333333334</ele><time>2026-03-28T14:48:17.328Z</time></trkpt><trkpt lat="42.9032169" lon="12.3243992"><ele>206.66666666666669</ele><time>2026-03-28T14:48:18.328Z</time></trkpt><trkpt lat="42.9032027" lon="12.3241785"><ele>207.0</ele><time>2026-03-28T14:48:19.328Z</time></trkpt><trkpt lat="42.9031796" lon="12.3239578"><ele>207.0</ele><time>2026-03-28T14:48:20.326Z</time></trkpt><trkpt lat="42.9031669" lon="12.3237393"><ele>207.0</ele><time>2026-03-28T14:48:21.328Z</time></trkpt><trkpt lat="42.9031469" lon="12.3235189"><ele>207.0</ele><time>2026-03-28T14:48:22.328Z</time></trkpt><trkpt lat="42.9031416" lon="12.3233057"><ele>207.0</ele><time>2026-03-28T14:48:23.328Z</time></trkpt><trkpt lat="42.9031263" lon="12.3230898"><ele>207.0</ele><time>2026-03-28T14:48:24.328Z</time></trkpt><trkpt lat="42.9031082" lon="12.3228694"><ele>207.0</ele><time>2026-03-28T14:48:25.328Z</time></trkpt><trkpt lat="42.9030855" lon="12.3226542"><ele>207.66666666666669</ele><time>2026-03-28T14:48:26.327Z</time></trkpt><trkpt lat="42.9030702" lon="12.3224288"><ele>208.33333333333334</ele><time>2026-03-28T14:48:27.328Z</time></trkpt><trkpt lat="42.9030559" lon="12.3222073"><ele>209.0</ele><time>2026-03-28T14:48:28.328Z</time></trkpt><trkpt lat="42.9030431" lon="12.321988"><ele>209.66666666666669</ele><time>2026-03-28T14:48:29.328Z</time></trkpt><trkpt lat="42.9030246" lon="12.3217669"><ele>210.33333333333331</ele><time>2026-03-28T14:48:30.328Z</time></trkpt><trkpt lat="42.9030102" lon="12.3215605"><ele>211.0</ele><time>2026-03-28T14:48:31.327Z</time></trkpt><trkpt lat="42.9030018" lon="12.3213453"><ele>211.33333333333331</ele><time>2026-03-28T14:48:32.328Z</time></trkpt><trkpt lat="42.9029793" lon="12.3211286"><ele>211.66666666666669</ele><time>2026-03-28T14:48:33.327Z</time></trkpt><trkpt lat="42.9029595" lon="12.3209085"><ele>212.0</ele><time>2026-03-28T14:48:34.328Z</time></trkpt><trkpt lat="42.9029442" lon="12.3206904"><ele>212.0</ele><time>2026-03-28T14:48:35.327Z</time></trkpt><trkpt lat="42.9029267" lon="12.3204754"><ele>212.0</ele><time>2026-03-28T14:48:36.328Z</time></trkpt><trkpt lat="42.9029103" lon="12.320258"><ele>212.0</ele><time>2026-03-28T14:48:37.328Z</time></trkpt><trkpt lat="42.9028851" lon="12.3200405"><ele>212.0</ele><time>2026-03-28T14:48:38.328Z</time></trkpt><trkpt lat="42.9028646" lon="12.3198245"><ele>212.0</ele><time>2026-03-28T14:48:39.328Z</time></trkpt><trkpt lat="42.9028454" lon="12.3196098"><ele>212.0</ele><time>2026-03-28T14:48:40.328Z</time></trkpt><trkpt lat="42.9028237" lon="12.3193904"><ele>211.33333333333334</ele><time>2026-03-28T14:48:41.327Z</time></trkpt><trkpt lat="42.9027925" lon="12.3191694"><ele>210.66666666666669</ele><time>2026-03-28T14:48:42.328Z</time></trkpt><trkpt lat="42.9027511" lon="12.3189473"><ele>210.0</ele><time>2026-03-28T14:48:43.327Z</time></trkpt><trkpt lat="42.9026948" lon="12.3187291"><ele>208.33333333333331</ele><time>2026-03-28T14:48:44.328Z</time></trkpt><trkpt lat="42.902627" lon="12.3185149"><ele>206.66666666666666</ele><time>2026-03-28T14:48:45.328Z</time></trkpt><trkpt lat="42.9025568" lon="12.3182986"><ele>205.0</ele><time>2026-03-28T14:48:46.328Z</time></trkpt><trkpt lat="42.902492" lon="12.3180689"><ele>207.33333333333331</ele><time>2026-03-28T14:48:47.328Z</time></trkpt><trkpt lat="42.9024061" lon="12.3178376"><ele>209.66666666666669</ele><time>2026-03-28T14:48:48.328Z</time></trkpt><trkpt lat="42.9023161" lon="12.3176101"><ele>212.0</ele><time>2026-03-28T14:48:49.328Z</time></trkpt><trkpt lat="42.9022272" lon="12.3173812"><ele>210.33333333333334</ele><time>2026-03-28T14:48:50.327Z</time></trkpt><trkpt lat="42.9021401" lon="12.3171609"><ele>208.66666666666669</ele><time>2026-03-28T14:48:51.328Z</time></trkpt><trkpt lat="42.9020403" lon="12.3169322"><ele>207.0</ele><time>2026-03-28T14:48:52.327Z</time></trkpt><trkpt lat="42.9019351" lon="12.3167061"><ele>207.0</ele><time>2026-03-28T14:48:53.328Z</time></trkpt><trkpt lat="42.9018291" lon="12.3164832"><ele>207.0</ele><time>2026-03-28T14:48:54.328Z</time></trkpt><trkpt lat="42.901718" lon="12.316255"><ele>207.0</ele><time>2026-03-28T14:48:55.327Z</time></trkpt><trkpt lat="42.9016133" lon="12.316031"><ele>207.66666666666669</ele><time>2026-03-28T14:48:56.328Z</time></trkpt><trkpt lat="42.9015219" lon="12.3158275"><ele>208.33333333333334</ele><time>2026-03-28T14:48:57.328Z</time></trkpt><trkpt lat="42.9014273" lon="12.3156074"><ele>209.0</ele><time>2026-03-28T14:48:58.328Z</time></trkpt><trkpt lat="42.9013494" lon="12.3153913"><ele>209.0</ele><time>2026-03-28T14:48:59.327Z</time></trkpt><trkpt lat="42.9012824" lon="12.3151767"><ele>209.0</ele><time>2026-03-28T14:49:00.328Z</time></trkpt><trkpt lat="42.901234" lon="12.314956"><ele>209.0</ele><time>2026-03-28T14:49:01.327Z</time></trkpt><trkpt lat="42.9012085" lon="12.314731"><ele>208.0</ele><time>2026-03-28T14:49:02.327Z</time></trkpt><trkpt lat="42.9011853" lon="12.3144927"><ele>207.0</ele><time>2026-03-28T14:49:03.328Z</time></trkpt><trkpt lat="42.901164" lon="12.3142522"><ele>206.0</ele><time>2026-03-28T14:49:04.328Z</time></trkpt><trkpt lat="42.901145" lon="12.3140075"><ele>206.66666666666669</ele><time>2026-03-28T14:49:05.328Z</time></trkpt><trkpt lat="42.901119" lon="12.3137587"><ele>207.33333333333331</ele><time>2026-03-28T14:49:06.327Z</time></trkpt><trkpt lat="42.9010976" lon="12.3135136"><ele>208.0</ele><time>2026-03-28T14:49:07.328Z</time></trkpt><trkpt lat="42.901085" lon="12.3132702"><ele>208.66666666666666</ele><time>2026-03-28T14:49:08.328Z</time></trkpt><trkpt lat="42.9010657" lon="12.31304"><ele>209.33333333333331</ele><time>2026-03-28T14:49:09.328Z</time></trkpt><trkpt lat="42.9010611" lon="12.3128158"><ele>210.0</ele><time>2026-03-28T14:49:10.328Z</time></trkpt><trkpt lat="42.9010767" lon="12.3125955"><ele>210.0</ele><time>2026-03-28T14:49:11.327Z</time></trkpt><trkpt lat="42.9011111" lon="12.3123843"><ele>210.0</ele><time>2026-03-28T14:49:12.328Z</time></trkpt><trkpt lat="42.9011576" lon="12.3121827"><ele>210.0</ele><time>2026-03-28T14:49:13.328Z</time></trkpt><trkpt lat="42.9012158" lon="12.312008"><ele>211.75</ele><time>2026-03-28T14:49:14.328Z</time></trkpt><trkpt lat="42.9012663" lon="12.3118433"><ele>213.5</ele><time>2026-03-28T14:49:15.327Z</time></trkpt><trkpt lat="42.9013549" lon="12.3117282"><ele>215.25</ele><time>2026-03-28T14:49:16.328Z</time></trkpt><trkpt lat="42.9014559" lon="12.3116329"><ele>217.0</ele><time>2026-03-28T14:49:17.328Z</time></trkpt><trkpt lat="42.9015777" lon="12.3115868"><ele>217.0</ele><time>2026-03-28T14:49:18.327Z</time></trkpt><trkpt lat="42.9017062" lon="12.311566"><ele>217.0</ele><time>2026-03-28T14:49:19.328Z</time></trkpt><trkpt lat="42.9018468" lon="12.3115711"><ele>217.0</ele><time>2026-03-28T14:49:20.328Z</time></trkpt><trkpt lat="42.9020056" lon="12.3116164"><ele>217.0</ele><time>2026-03-28T14:49:21.328Z</time></trkpt><trkpt lat="42.9021402" lon="12.3116388"><ele>219.66666666666666</ele><time>2026-03-28T14:49:22.327Z</time></trkpt><trkpt lat="42.9022914" lon="12.3116843"><ele>222.33333333333331</ele><time>2026-03-28T14:49:23.328Z</time></trkpt><trkpt lat="42.9024372" lon="12.3117586"><ele>225.0</ele><time>2026-03-28T14:49:24.328Z</time></trkpt><trkpt lat="42.9025726" lon="12.3118604"><ele>227.33333333333331</ele><time>2026-03-28T14:49:25.328Z</time></trkpt><trkpt lat="42.9026997" lon="12.3119737"><ele>229.66666666666666</ele><time>2026-03-28T14:49:26.328Z</time></trkpt><trkpt lat="42.902821" lon="12.3121039"><ele>232.0</ele><time>2026-03-28T14:49:27.328Z</time></trkpt><trkpt lat="42.9029354" lon="12.312251"><ele>232.0</ele><time>2026-03-28T14:49:28.328Z</time></trkpt><trkpt lat="42.9030422" lon="12.3124103"><ele>232.0</ele><time>2026-03-28T14:49:29.327Z</time></trkpt><trkpt lat="42.9031533" lon="12.3125921"><ele>232.0</ele><time>2026-03-28T14:49:30.328Z</time></trkpt><trkpt lat="42.9032536" lon="12.3127529"><ele>232.0</ele><time>2026-03-28T14:49:31.327Z</time></trkpt><trkpt lat="42.9033528" lon="12.3129044"><ele>232.0</ele><time>2026-03-28T14:49:32.328Z</time></trkpt><trkpt lat="42.9034339" lon="12.3130527"><ele>232.0</ele><time>2026-03-28T14:49:33.328Z</time></trkpt><trkpt lat="42.9035141" lon="12.3131968"><ele>232.0</ele><time>2026-03-28T14:49:34.328Z</time></trkpt><trkpt lat="42.903572" lon="12.3133404"><ele>232.33333333333331</ele><time>2026-03-28T14:49:35.328Z</time></trkpt><trkpt lat="42.9035758" lon="12.313486"><ele>232.66666666666666</ele><time>2026-03-28T14:49:36.328Z</time></trkpt><trkpt lat="42.9035856" lon="12.3136266"><ele>233.0</ele><time>2026-03-28T14:49:37.328Z</time></trkpt><trkpt lat="42.9035981" lon="12.3137466"><ele>233.33333333333331</ele><time>2026-03-28T14:49:38.328Z</time></trkpt><trkpt lat="42.9036233" lon="12.3138452"><ele>233.66666666666666</ele><time>2026-03-28T14:49:39.328Z</time></trkpt><trkpt lat="42.9036739" lon="12.313902"><ele>234.0</ele><time>2026-03-28T14:49:40.328Z</time></trkpt><trkpt lat="42.903751" lon="12.3138992"><ele>234.0</ele><time>2026-03-28T14:49:41.327Z</time></trkpt><trkpt lat="42.9038356" lon="12.3138624"><ele>233.99999999999997</ele><time>2026-03-28T14:49:42.328Z</time></trkpt><trkpt lat="42.9039009" lon="12.3137685"><ele>233.99999999999997</ele><time>2026-03-28T14:49:43.328Z</time></trkpt><trkpt lat="42.9039702" lon="12.3136676"><ele>234.0</ele><time>2026-03-28T14:49:44.327Z</time></trkpt><trkpt lat="42.904054" lon="12.3135672"><ele>234.0</ele><time>2026-03-28T14:49:45.328Z</time></trkpt><trkpt lat="42.904153" lon="12.3134523"><ele>234.0</ele><time>2026-03-28T14:49:46.328Z</time></trkpt><trkpt lat="42.9042639" lon="12.3133603"><ele>234.0</ele><time>2026-03-28T14:49:47.328Z</time></trkpt><trkpt lat="42.904377" lon="12.313274"><ele>234.0</ele><time>2026-03-28T14:49:48.328Z</time></trkpt><trkpt lat="42.9044991" lon="12.3132003"><ele>234.0</ele><time>2026-03-28T14:49:49.328Z</time></trkpt><trkpt lat="42.9046332" lon="12.3131426"><ele>234.0</ele><time>2026-03-28T14:49:50.328Z</time></trkpt><trkpt lat="42.90477" lon="12.3130958"><ele>234.0</ele><time>2026-03-28T14:49:51.327Z</time></trkpt><trkpt lat="42.9049039" lon="12.3130629"><ele>234.0</ele><time>2026-03-28T14:49:52.328Z</time></trkpt><trkpt lat="42.9050258" lon="12.3130495"><ele>234.0</ele><time>2026-03-28T14:49:53.328Z</time></trkpt><trkpt lat="42.9051451" lon="12.3130395"><ele>236.66666666666666</ele><time>2026-03-28T14:49:54.328Z</time></trkpt><trkpt lat="42.9052412" lon="12.3130186"><ele>239.33333333333331</ele><time>2026-03-28T14:49:55.328Z</time></trkpt><trkpt lat="42.9053162" lon="12.3129508"><ele>242.0</ele><time>2026-03-28T14:49:56.327Z</time></trkpt><trkpt lat="42.9053646" lon="12.3128596"><ele>244.66666666666666</ele><time>2026-03-28T14:49:57.328Z</time></trkpt><trkpt lat="42.9053937" lon="12.3127519"><ele>247.33333333333331</ele><time>2026-03-28T14:49:58.327Z</time></trkpt><trkpt lat="42.9054101" lon="12.3126377"><ele>250.0</ele><time>2026-03-28T14:49:59.328Z</time></trkpt><trkpt lat="42.9053633" lon="12.3125298"><ele>250.0</ele><time>2026-03-28T14:50:00.327Z</time></trkpt><trkpt lat="42.9052925" lon="12.3124245"><ele>250.0</ele><time>2026-03-28T14:50:01.328Z</time></trkpt><trkpt lat="42.9051977" lon="12.3123509"><ele>250.0</ele><time>2026-03-28T14:50:02.328Z</time></trkpt><trkpt lat="42.9050877" lon="12.3123087"><ele>250.0</ele><time>2026-03-28T14:50:03.328Z</time></trkpt><trkpt lat="42.9049716" lon="12.3122612"><ele>250.0</ele><time>2026-03-28T14:50:04.328Z</time></trkpt><trkpt lat="42.9048299" lon="12.3122401"><ele>254.25</ele><time>2026-03-28T14:50:05.328Z</time></trkpt><trkpt lat="42.9047013" lon="12.3122026"><ele>258.5</ele><time>2026-03-28T14:50:06.328Z</time></trkpt><trkpt lat="42.9045604" lon="12.312177"><ele>262.75</ele><time>2026-03-28T14:50:07.328Z</time></trkpt><trkpt lat="42.904427" lon="12.3121507"><ele>267.0</ele><time>2026-03-28T14:50:08.328Z</time></trkpt><trkpt lat="42.9043036" lon="12.3121133"><ele>265.5</ele><time>2026-03-28T14:50:09.328Z</time></trkpt><trkpt lat="42.9042107" lon="12.3120405"><ele>264.0</ele><time>2026-03-28T14:50:10.328Z</time></trkpt><trkpt lat="42.9041169" lon="12.3119509"><ele>262.5</ele><time>2026-03-28T14:50:11.327Z</time></trkpt><trkpt lat="42.904054" lon="12.3118204"><ele>261.0</ele><time>2026-03-28T14:50:12.328Z</time></trkpt><trkpt lat="42.9039866" lon="12.3116797"><ele>261.0</ele><time>2026-03-28T14:50:13.328Z</time></trkpt><trkpt lat="42.9039219" lon="12.3115228"><ele>261.0</ele><time>2026-03-28T14:50:14.328Z</time></trkpt><trkpt lat="42.9038629" lon="12.3113656"><ele>261.0</ele><time>2026-03-28T14:50:15.328Z</time></trkpt><trkpt lat="42.9038247" lon="12.3112037"><ele>261.0</ele><time>2026-03-28T14:50:16.328Z</time></trkpt><trkpt lat="42.9038074" lon="12.3110619"><ele>262.2</ele><time>2026-03-28T14:50:17.328Z</time></trkpt><trkpt lat="42.9038299" lon="12.310932"><ele>263.40000000000003</ele><time>2026-03-28T14:50:18.327Z</time></trkpt><trkpt lat="42.9038679" lon="12.3108108"><ele>264.6</ele><time>2026-03-28T14:50:19.328Z</time></trkpt><trkpt lat="42.9039223" lon="12.3106727"><ele>265.8</ele><time>2026-03-28T14:50:20.328Z</time></trkpt><trkpt lat="42.903984" lon="12.3105391"><ele>267.0</ele><time>2026-03-28T14:50:21.328Z</time></trkpt><trkpt lat="42.9040276" lon="12.3103943"><ele>268.5</ele><time>2026-03-28T14:50:22.328Z</time></trkpt><trkpt lat="42.9040622" lon="12.3102559"><ele>270.0</ele><time>2026-03-28T14:50:23.328Z</time></trkpt><trkpt lat="42.9040169" lon="12.3101165"><ele>271.5</ele><time>2026-03-28T14:50:24.328Z</time></trkpt><trkpt lat="42.9039682" lon="12.3099911"><ele>273.0</ele><time>2026-03-28T14:50:25.328Z</time></trkpt><trkpt lat="42.9038854" lon="12.3098523"><ele>275.5</ele><time>2026-03-28T14:50:26.328Z</time></trkpt><trkpt lat="42.9037936" lon="12.3097253"><ele>278.0</ele><time>2026-03-28T14:50:27.328Z</time></trkpt><trkpt lat="42.903699" lon="12.3095978"><ele>280.5</ele><time>2026-03-28T14:50:28.328Z</time></trkpt><trkpt lat="42.9035937" lon="12.3094621"><ele>283.0</ele><time>2026-03-28T14:50:29.328Z</time></trkpt><trkpt lat="42.9034874" lon="12.3093212"><ele>282.5</ele><time>2026-03-28T14:50:30.328Z</time></trkpt><trkpt lat="42.9033778" lon="12.3091803"><ele>282.0</ele><time>2026-03-28T14:50:31.328Z</time></trkpt><trkpt lat="42.9032696" lon="12.3090464"><ele>281.5</ele><time>2026-03-28T14:50:32.328Z</time></trkpt><trkpt lat="42.9031622" lon="12.3089297"><ele>281.0</ele><time>2026-03-28T14:50:33.328Z</time></trkpt><trkpt lat="42.9030634" lon="12.3088464"><ele>281.0</ele><time>2026-03-28T14:50:34.328Z</time></trkpt><trkpt lat="42.902951" lon="12.3088097"><ele>281.0</ele><time>2026-03-28T14:50:35.328Z</time></trkpt><trkpt lat="42.9028355" lon="12.3087981"><ele>281.0</ele><time>2026-03-28T14:50:36.328Z</time></trkpt><trkpt lat="42.9027162" lon="12.3087694"><ele>281.0</ele><time>2026-03-28T14:50:37.328Z</time></trkpt><trkpt lat="42.9026109" lon="12.3087364"><ele>281.0</ele><time>2026-03-28T14:50:38.327Z</time></trkpt><trkpt lat="42.9025266" lon="12.3086691"><ele>281.0</ele><time>2026-03-28T14:50:39.328Z</time></trkpt><trkpt lat="42.9024823" lon="12.3085891"><ele>281.0</ele><time>2026-03-28T14:50:40.328Z</time></trkpt><trkpt lat="42.9024915" lon="12.3084216"><ele>281.0</ele><time>2026-03-28T14:50:42.328Z</time></trkpt><trkpt lat="42.9025288" lon="12.308334"><ele>281.0</ele><time>2026-03-28T14:50:43.328Z</time></trkpt><trkpt lat="42.9025884" lon="12.3082216"><ele>281.0</ele><time>2026-03-28T14:50:44.328Z</time></trkpt><trkpt lat="42.9026601" lon="12.3080948"><ele>281.0</ele><time>2026-03-28T14:50:45.328Z</time></trkpt><trkpt lat="42.9027463" lon="12.3079678"><ele>281.0</ele><time>2026-03-28T14:50:46.328Z</time></trkpt><trkpt lat="42.9028358" lon="12.3078385"><ele>281.0</ele><time>2026-03-28T14:50:47.328Z</time></trkpt><trkpt lat="42.9029226" lon="12.3076996"><ele>281.0</ele><time>2026-03-28T14:50:48.327Z</time></trkpt><trkpt lat="42.9030131" lon="12.3075653"><ele>281.0</ele><time>2026-03-28T14:50:49.327Z</time></trkpt><trkpt lat="42.9031029" lon="12.3074275"><ele>281.0</ele><time>2026-03-28T14:50:50.328Z</time></trkpt><trkpt lat="42.9031903" lon="12.3072755"><ele>281.0</ele><time>2026-03-28T14:50:51.327Z</time></trkpt><trkpt lat="42.9032844" lon="12.307125"><ele>281.0</ele><time>2026-03-28T14:50:52.328Z</time></trkpt><trkpt lat="42.903366" lon="12.306986"><ele>281.0</ele><time>2026-03-28T14:50:53.328Z</time></trkpt><trkpt lat="42.9034369" lon="12.3068418"><ele>281.0</ele><time>2026-03-28T14:50:54.327Z</time></trkpt><trkpt lat="42.9034973" lon="12.306695"><ele>281.0</ele><time>2026-03-28T14:50:55.328Z</time></trkpt><trkpt lat="42.9035367" lon="12.3065465"><ele>285.75</ele><time>2026-03-28T14:50:56.327Z</time></trkpt><trkpt lat="42.9035549" lon="12.3063878"><ele>290.5</ele><time>2026-03-28T14:50:57.328Z</time></trkpt><trkpt lat="42.9035738" lon="12.306227"><ele>295.25</ele><time>2026-03-28T14:50:58.328Z</time></trkpt><trkpt lat="42.9035216" lon="12.3060844"><ele>300.0</ele><time>2026-03-28T14:50:59.328Z</time></trkpt><trkpt lat="42.9034517" lon="12.3059527"><ele>298.5</ele><time>2026-03-28T14:51:00.328Z</time></trkpt><trkpt lat="42.9033627" lon="12.3058145"><ele>297.0</ele><time>2026-03-28T14:51:01.327Z</time></trkpt><trkpt lat="42.9032676" lon="12.3056821"><ele>295.5</ele><time>2026-03-28T14:51:02.328Z</time></trkpt><trkpt lat="42.90317" lon="12.3055404"><ele>294.0</ele><time>2026-03-28T14:51:03.327Z</time></trkpt><trkpt lat="42.9030732" lon="12.3053975"><ele>294.0</ele><time>2026-03-28T14:51:04.328Z</time></trkpt><trkpt lat="42.9029765" lon="12.3052791"><ele>294.0</ele><time>2026-03-28T14:51:05.328Z</time></trkpt><trkpt lat="42.9028644" lon="12.3051922"><ele>294.0</ele><time>2026-03-28T14:51:06.327Z</time></trkpt><trkpt lat="42.9027457" lon="12.3051332"><ele>294.0</ele><time>2026-03-28T14:51:07.327Z</time></trkpt><trkpt lat="42.9026199" lon="12.3050866"><ele>293.75</ele><time>2026-03-28T14:51:08.327Z</time></trkpt><trkpt lat="42.9025024" lon="12.3050471"><ele>293.5</ele><time>2026-03-28T14:51:09.328Z</time></trkpt><trkpt lat="42.9023928" lon="12.3049925"><ele>293.25</ele><time>2026-03-28T14:51:10.328Z</time></trkpt><trkpt lat="42.9022915" lon="12.3049201"><ele>293.0</ele><time>2026-03-28T14:51:11.327Z</time></trkpt><trkpt lat="42.9022109" lon="12.3048115"><ele>295.75</ele><time>2026-03-28T14:51:12.327Z</time></trkpt><trkpt lat="42.9021347" lon="12.3046879"><ele>298.5</ele><time>2026-03-28T14:51:13.328Z</time></trkpt><trkpt lat="42.9020537" lon="12.3045523"><ele>301.25</ele><time>2026-03-28T14:51:14.328Z</time></trkpt><trkpt lat="42.9019663" lon="12.3043999"><ele>304.0</ele><time>2026-03-28T14:51:15.328Z</time></trkpt><trkpt lat="42.9018787" lon="12.3042382"><ele>304.0</ele><time>2026-03-28T14:51:16.327Z</time></trkpt><trkpt lat="42.9017874" lon="12.3040826"><ele>304.0</ele><time>2026-03-28T14:51:17.327Z</time></trkpt><trkpt lat="42.9017091" lon="12.3039347"><ele>304.0</ele><time>2026-03-28T14:51:18.328Z</time></trkpt><trkpt lat="42.9016299" lon="12.3038021"><ele>304.0</ele><time>2026-03-28T14:51:19.327Z</time></trkpt><trkpt lat="42.9015549" lon="12.3036953"><ele>304.2</ele><time>2026-03-28T14:51:20.328Z</time></trkpt><trkpt lat="42.9014732" lon="12.3036174"><ele>304.4</ele><time>2026-03-28T14:51:21.327Z</time></trkpt><trkpt lat="42.9013779" lon="12.3035722"><ele>304.6</ele><time>2026-03-28T14:51:22.328Z</time></trkpt><trkpt lat="42.9012726" lon="12.3035655"><ele>304.8</ele><time>2026-03-28T14:51:23.328Z</time></trkpt><trkpt lat="42.9011647" lon="12.3035787"><ele>305.0</ele><time>2026-03-28T14:51:24.328Z</time></trkpt><trkpt lat="42.9010512" lon="12.3036087"><ele>305.0</ele><time>2026-03-28T14:51:25.328Z</time></trkpt><trkpt lat="42.9009352" lon="12.3036415"><ele>305.0</ele><time>2026-03-28T14:51:26.328Z</time></trkpt><trkpt lat="42.9008127" lon="12.3036787"><ele>305.0</ele><time>2026-03-28T14:51:27.327Z</time></trkpt><trkpt lat="42.9006801" lon="12.3037147"><ele>305.0</ele><time>2026-03-28T14:51:28.328Z</time></trkpt><trkpt lat="42.90055" lon="12.3037469"><ele>305.75</ele><time>2026-03-28T14:51:29.327Z</time></trkpt><trkpt lat="42.9004174" lon="12.3037685"><ele>306.5</ele><time>2026-03-28T14:51:30.328Z</time></trkpt><trkpt lat="42.9002751" lon="12.3037733"><ele>307.25</ele><time>2026-03-28T14:51:31.328Z</time></trkpt><trkpt lat="42.9001212" lon="12.3037689"><ele>308.0</ele><time>2026-03-28T14:51:32.328Z</time></trkpt><trkpt lat="42.8999611" lon="12.3037567"><ele>310.33333333333337</ele><time>2026-03-28T14:51:33.328Z</time></trkpt><trkpt lat="42.8998035" lon="12.3037376"><ele>312.6666666666667</ele><time>2026-03-28T14:51:34.327Z</time></trkpt><trkpt lat="42.8996409" lon="12.3037184"><ele>315.0</ele><time>2026-03-28T14:51:35.327Z</time></trkpt><trkpt lat="42.899473" lon="12.3037023"><ele>315.0</ele><time>2026-03-28T14:51:36.327Z</time></trkpt><trkpt lat="42.8993097" lon="12.3036876"><ele>315.0</ele><time>2026-03-28T14:51:37.327Z</time></trkpt><trkpt lat="42.8991459" lon="12.303678"><ele>315.0</ele><time>2026-03-28T14:51:38.328Z</time></trkpt><trkpt lat="42.8989897" lon="12.3036778"><ele>317.0</ele><time>2026-03-28T14:51:39.328Z</time></trkpt><trkpt lat="42.8988286" lon="12.3036983"><ele>319.0</ele><time>2026-03-28T14:51:40.328Z</time></trkpt><trkpt lat="42.8986715" lon="12.3037487"><ele>321.0</ele><time>2026-03-28T14:51:41.328Z</time></trkpt><trkpt lat="42.8985234" lon="12.3038137"><ele>326.6666666666667</ele><time>2026-03-28T14:51:42.327Z</time></trkpt><trkpt lat="42.8983702" lon="12.3039127"><ele>332.33333333333337</ele><time>2026-03-28T14:51:43.328Z</time></trkpt><trkpt lat="42.8982298" lon="12.3039989"><ele>338.0</ele><time>2026-03-28T14:51:44.328Z</time></trkpt><trkpt lat="42.8980994" lon="12.3040746"><ele>328.75</ele><time>2026-03-28T14:51:45.328Z</time></trkpt><trkpt lat="42.8979745" lon="12.3041261"><ele>319.5</ele><time>2026-03-28T14:51:46.328Z</time></trkpt><trkpt lat="42.8978542" lon="12.3041485"><ele>310.25</ele><time>2026-03-28T14:51:47.328Z</time></trkpt><trkpt lat="42.8977385" lon="12.304142"><ele>301.0</ele><time>2026-03-28T14:51:48.328Z</time></trkpt><trkpt lat="42.897629" lon="12.3041193"><ele>302.25</ele><time>2026-03-28T14:51:49.327Z</time></trkpt><trkpt lat="42.8975052" lon="12.304088"><ele>303.5</ele><time>2026-03-28T14:51:50.328Z</time></trkpt><trkpt lat="42.897374" lon="12.3040478"><ele>304.75</ele><time>2026-03-28T14:51:51.328Z</time></trkpt><trkpt lat="42.8972561" lon="12.3039911"><ele>306.0</ele><time>2026-03-28T14:51:52.328Z</time></trkpt><trkpt lat="42.897131" lon="12.3039295"><ele>310.25</ele><time>2026-03-28T14:51:53.328Z</time></trkpt><trkpt lat="42.8970122" lon="12.3038633"><ele>314.5</ele><time>2026-03-28T14:51:54.328Z</time></trkpt><trkpt lat="42.8968978" lon="12.3037769"><ele>318.75</ele><time>2026-03-28T14:51:55.328Z</time></trkpt><trkpt lat="42.8967823" lon="12.3036792"><ele>323.0</ele><time>2026-03-28T14:51:56.328Z</time></trkpt><trkpt lat="42.8966721" lon="12.3035712"><ele>323.0</ele><time>2026-03-28T14:51:57.328Z</time></trkpt><trkpt lat="42.896567" lon="12.3034651"><ele>323.0</ele><time>2026-03-28T14:51:58.327Z</time></trkpt><trkpt lat="42.8964806" lon="12.3033456"><ele>323.0</ele><time>2026-03-28T14:51:59.328Z</time></trkpt><trkpt lat="42.8963894" lon="12.3032267"><ele>323.0</ele><time>2026-03-28T14:52:00.328Z</time></trkpt><trkpt lat="42.8963109" lon="12.3030934"><ele>327.5</ele><time>2026-03-28T14:52:01.328Z</time></trkpt><trkpt lat="42.8962358" lon="12.3029466"><ele>332.0</ele><time>2026-03-28T14:52:02.328Z</time></trkpt><trkpt lat="42.8961602" lon="12.3027915"><ele>336.5</ele><time>2026-03-28T14:52:03.327Z</time></trkpt><trkpt lat="42.8960807" lon="12.3026252"><ele>341.0</ele><time>2026-03-28T14:52:04.327Z</time></trkpt><trkpt lat="42.8959975" lon="12.3024553"><ele>337.75</ele><time>2026-03-28T14:52:05.327Z</time></trkpt><trkpt lat="42.8959141" lon="12.3022863"><ele>334.5</ele><time>2026-03-28T14:52:06.328Z</time></trkpt><trkpt lat="42.8958379" lon="12.302115"><ele>331.25</ele><time>2026-03-28T14:52:07.328Z</time></trkpt><trkpt lat="42.895776" lon="12.3019442"><ele>328.0</ele><time>2026-03-28T14:52:08.327Z</time></trkpt><trkpt lat="42.8957203" lon="12.3017865"><ele>328.0</ele><time>2026-03-28T14:52:09.327Z</time></trkpt><trkpt lat="42.8956661" lon="12.3016323"><ele>328.0</ele><time>2026-03-28T14:52:10.328Z</time></trkpt><trkpt lat="42.8955925" lon="12.3014876"><ele>328.0</ele><time>2026-03-28T14:52:11.328Z</time></trkpt><trkpt lat="42.8954999" lon="12.3013571"><ele>328.0</ele><time>2026-03-28T14:52:12.328Z</time></trkpt><trkpt lat="42.8953908" lon="12.3012386"><ele>329.5</ele><time>2026-03-28T14:52:13.327Z</time></trkpt><trkpt lat="42.8952678" lon="12.3011349"><ele>331.0</ele><time>2026-03-28T14:52:14.327Z</time></trkpt><trkpt lat="42.8951387" lon="12.3010429"><ele>332.5</ele><time>2026-03-28T14:52:15.327Z</time></trkpt><trkpt lat="42.8950051" lon="12.3009579"><ele>334.0</ele><time>2026-03-28T14:52:16.328Z</time></trkpt><trkpt lat="42.8948699" lon="12.3008784"><ele>334.0</ele><time>2026-03-28T14:52:17.328Z</time></trkpt><trkpt lat="42.8947348" lon="12.3008095"><ele>334.0</ele><time>2026-03-28T14:52:18.327Z</time></trkpt><trkpt lat="42.8946017" lon="12.3007584"><ele>334.0</ele><time>2026-03-28T14:52:19.327Z</time></trkpt><trkpt lat="42.8944697" lon="12.3007378"><ele>334.0</ele><time>2026-03-28T14:52:20.327Z</time></trkpt><trkpt lat="42.894338" lon="12.3007427"><ele>334.25</ele><time>2026-03-28T14:52:21.328Z</time></trkpt><trkpt lat="42.8942168" lon="12.3007687"><ele>334.5</ele><time>2026-03-28T14:52:22.328Z</time></trkpt><trkpt lat="42.8941221" lon="12.3008891"><ele>334.75</ele><time>2026-03-28T14:52:23.327Z</time></trkpt><trkpt lat="42.8940306" lon="12.3010063"><ele>335.0</ele><time>2026-03-28T14:52:24.328Z</time></trkpt><trkpt lat="42.8939483" lon="12.3011269"><ele>335.0</ele><time>2026-03-28T14:52:25.328Z</time></trkpt><trkpt lat="42.8938523" lon="12.3012389"><ele>335.0</ele><time>2026-03-28T14:52:26.328Z</time></trkpt><trkpt lat="42.8937555" lon="12.301334"><ele>335.0</ele><time>2026-03-28T14:52:27.328Z</time></trkpt><trkpt lat="42.8936464" lon="12.3014152"><ele>335.0</ele><time>2026-03-28T14:52:28.328Z</time></trkpt><trkpt lat="42.8935348" lon="12.3014358"><ele>334.33333333333337</ele><time>2026-03-28T14:52:29.328Z</time></trkpt><trkpt lat="42.8934382" lon="12.3014232"><ele>333.6666666666667</ele><time>2026-03-28T14:52:30.327Z</time></trkpt><trkpt lat="42.8933584" lon="12.3013821"><ele>333.0</ele><time>2026-03-28T14:52:31.328Z</time></trkpt><trkpt lat="42.8933067" lon="12.3012854"><ele>332.3333333333333</ele><time>2026-03-28T14:52:32.328Z</time></trkpt><trkpt lat="42.8932787" lon="12.3011785"><ele>331.66666666666663</ele><time>2026-03-28T14:52:33.328Z</time></trkpt><trkpt lat="42.8932583" lon="12.3010608"><ele>331.0</ele><time>2026-03-28T14:52:34.328Z</time></trkpt><trkpt lat="42.8932559" lon="12.3009087"><ele>331.0</ele><time>2026-03-28T14:52:35.328Z</time></trkpt><trkpt lat="42.8932431" lon="12.3007463"><ele>331.0</ele><time>2026-03-28T14:52:36.328Z</time></trkpt><trkpt lat="42.8932159" lon="12.3005691"><ele>331.0</ele><time>2026-03-28T14:52:37.328Z</time></trkpt><trkpt lat="42.893188" lon="12.3003902"><ele>331.0</ele><time>2026-03-28T14:52:38.328Z</time></trkpt><trkpt lat="42.8931566" lon="12.3002101"><ele>332.5</ele><time>2026-03-28T14:52:39.328Z</time></trkpt><trkpt lat="42.8931191" lon="12.3000329"><ele>334.0</ele><time>2026-03-28T14:52:40.328Z</time></trkpt><trkpt lat="42.8930858" lon="12.2998529"><ele>335.5</ele><time>2026-03-28T14:52:41.327Z</time></trkpt><trkpt lat="42.893034" lon="12.2996779"><ele>337.0</ele><time>2026-03-28T14:52:42.328Z</time></trkpt><trkpt lat="42.8929764" lon="12.299514"><ele>339.25</ele><time>2026-03-28T14:52:43.328Z</time></trkpt><trkpt lat="42.8929065" lon="12.2993716"><ele>341.5</ele><time>2026-03-28T14:52:44.328Z</time></trkpt><trkpt lat="42.8928251" lon="12.2992487"><ele>343.75</ele><time>2026-03-28T14:52:45.328Z</time></trkpt><trkpt lat="42.8927389" lon="12.2991509"><ele>346.0</ele><time>2026-03-28T14:52:46.328Z</time></trkpt><trkpt lat="42.8926264" lon="12.2990986"><ele>344.6</ele><time>2026-03-28T14:52:47.328Z</time></trkpt><trkpt lat="42.8925173" lon="12.2990568"><ele>343.20000000000005</ele><time>2026-03-28T14:52:48.328Z</time></trkpt><trkpt lat="42.8924196" lon="12.2990234"><ele>341.79999999999995</ele><time>2026-03-28T14:52:49.327Z</time></trkpt><trkpt lat="42.8923365" lon="12.2989709"><ele>340.4</ele><time>2026-03-28T14:52:50.327Z</time></trkpt><trkpt lat="42.892283" lon="12.2989084"><ele>339.0</ele><time>2026-03-28T14:52:51.327Z</time></trkpt><trkpt lat="42.8922611" lon="12.2988041"><ele>339.0</ele><time>2026-03-28T14:52:52.327Z</time></trkpt><trkpt lat="42.8923039" lon="12.298714"><ele>339.0</ele><time>2026-03-28T14:52:53.328Z</time></trkpt><trkpt lat="42.8923341" lon="12.2986185"><ele>339.0</ele><time>2026-03-28T14:52:54.328Z</time></trkpt><trkpt lat="42.8923962" lon="12.2985344"><ele>339.0</ele><time>2026-03-28T14:52:55.328Z</time></trkpt><trkpt lat="42.8924647" lon="12.2984433"><ele>339.0</ele><time>2026-03-28T14:52:56.328Z</time></trkpt><trkpt lat="42.8925469" lon="12.2983473"><ele>339.0</ele><time>2026-03-28T14:52:57.328Z</time></trkpt><trkpt lat="42.89261" lon="12.2982442"><ele>340.4</ele><time>2026-03-28T14:52:58.328Z</time></trkpt><trkpt lat="42.8926619" lon="12.2981269"><ele>341.79999999999995</ele><time>2026-03-28T14:52:59.328Z</time></trkpt><trkpt lat="42.8926737" lon="12.2979989"><ele>343.20000000000005</ele><time>2026-03-28T14:53:00.328Z</time></trkpt><trkpt lat="42.8926663" lon="12.2978679"><ele>344.6</ele><time>2026-03-28T14:53:01.328Z</time></trkpt><trkpt lat="42.8926249" lon="12.2977428"><ele>346.0</ele><time>2026-03-28T14:53:02.328Z</time></trkpt><trkpt lat="42.8925678" lon="12.297612"><ele>346.0</ele><time>2026-03-28T14:53:03.327Z</time></trkpt><trkpt lat="42.8925044" lon="12.297497"><ele>346.0</ele><time>2026-03-28T14:53:04.327Z</time></trkpt><trkpt lat="42.8924245" lon="12.2973935"><ele>346.0</ele><time>2026-03-28T14:53:05.327Z</time></trkpt><trkpt lat="42.8923241" lon="12.2973064"><ele>346.0</ele><time>2026-03-28T14:53:06.328Z</time></trkpt><trkpt lat="42.8922107" lon="12.297228"><ele>350.25</ele><time>2026-03-28T14:53:07.328Z</time></trkpt><trkpt lat="42.8920898" lon="12.2971971"><ele>354.5</ele><time>2026-03-28T14:53:08.327Z</time></trkpt><trkpt lat="42.891967" lon="12.2971685"><ele>358.75</ele><time>2026-03-28T14:53:09.327Z</time></trkpt><trkpt lat="42.8918465" lon="12.297156"><ele>363.0</ele><time>2026-03-28T14:53:10.328Z</time></trkpt><trkpt lat="42.8917191" lon="12.2971657"><ele>363.25</ele><time>2026-03-28T14:53:11.327Z</time></trkpt><trkpt lat="42.8915964" lon="12.2971974"><ele>363.5</ele><time>2026-03-28T14:53:12.327Z</time></trkpt><trkpt lat="42.8914899" lon="12.2972803"><ele>363.75</ele><time>2026-03-28T14:53:13.328Z</time></trkpt><trkpt lat="42.8913812" lon="12.2973511"><ele>364.0</ele><time>2026-03-28T14:53:14.328Z</time></trkpt><trkpt lat="42.891271" lon="12.2974274"><ele>360.25</ele><time>2026-03-28T14:53:15.328Z</time></trkpt><trkpt lat="42.8911452" lon="12.2974892"><ele>356.5</ele><time>2026-03-28T14:53:16.328Z</time></trkpt><trkpt lat="42.8910163" lon="12.2975333"><ele>352.75</ele><time>2026-03-28T14:53:17.328Z</time></trkpt><trkpt lat="42.8908941" lon="12.2975599"><ele>349.0</ele><time>2026-03-28T14:53:18.328Z</time></trkpt><trkpt lat="42.8907944" lon="12.2975688"><ele>349.0</ele><time>2026-03-28T14:53:19.328Z</time></trkpt><trkpt lat="42.8907241" lon="12.2975284"><ele>349.0</ele><time>2026-03-28T14:53:20.328Z</time></trkpt><trkpt lat="42.8906511" lon="12.2974251"><ele>349.0</ele><time>2026-03-28T14:53:22.328Z</time></trkpt><trkpt lat="42.8906523" lon="12.2973352"><ele>349.0</ele><time>2026-03-28T14:53:23.328Z</time></trkpt><trkpt lat="42.8906812" lon="12.2972329"><ele>349.0</ele><time>2026-03-28T14:53:24.328Z</time></trkpt><trkpt lat="42.8907231" lon="12.297132"><ele>349.0</ele><time>2026-03-28T14:53:25.328Z</time></trkpt><trkpt lat="42.890766" lon="12.2970264"><ele>350.6</ele><time>2026-03-28T14:53:26.328Z</time></trkpt><trkpt lat="42.8908075" lon="12.296911"><ele>352.2</ele><time>2026-03-28T14:53:27.328Z</time></trkpt><trkpt lat="42.8908426" lon="12.2967757"><ele>353.8</ele><time>2026-03-28T14:53:28.328Z</time></trkpt><trkpt lat="42.8908564" lon="12.2966222"><ele>355.40000000000003</ele><time>2026-03-28T14:53:29.328Z</time></trkpt><trkpt lat="42.8908463" lon="12.2964583"><ele>357.0</ele><time>2026-03-28T14:53:30.327Z</time></trkpt><trkpt lat="42.8908034" lon="12.2962911"><ele>358.5</ele><time>2026-03-28T14:53:31.328Z</time></trkpt><trkpt lat="42.8907696" lon="12.2961302"><ele>360.0</ele><time>2026-03-28T14:53:32.328Z</time></trkpt><trkpt lat="42.890727" lon="12.2959707"><ele>361.5</ele><time>2026-03-28T14:53:33.327Z</time></trkpt><trkpt lat="42.8906845" lon="12.2958095"><ele>363.0</ele><time>2026-03-28T14:53:34.328Z</time></trkpt><trkpt lat="42.8906323" lon="12.29566"><ele>366.0</ele><time>2026-03-28T14:53:35.328Z</time></trkpt><trkpt lat="42.8905696" lon="12.2955115"><ele>369.0</ele><time>2026-03-28T14:53:36.328Z</time></trkpt><trkpt lat="42.8904935" lon="12.2953698"><ele>372.0</ele><time>2026-03-28T14:53:37.328Z</time></trkpt><trkpt lat="42.8904058" lon="12.2952378"><ele>375.0</ele><time>2026-03-28T14:53:38.328Z</time></trkpt><trkpt lat="42.8903185" lon="12.2951081"><ele>375.0</ele><time>2026-03-28T14:53:39.328Z</time></trkpt><trkpt lat="42.8902496" lon="12.2949841"><ele>375.0</ele><time>2026-03-28T14:53:40.328Z</time></trkpt><trkpt lat="42.8901939" lon="12.2948513"><ele>375.0</ele><time>2026-03-28T14:53:41.327Z</time></trkpt><trkpt lat="42.8901556" lon="12.2946977"><ele>375.0</ele><time>2026-03-28T14:53:42.327Z</time></trkpt><trkpt lat="42.890133" lon="12.2945297"><ele>377.5</ele><time>2026-03-28T14:53:43.328Z</time></trkpt><trkpt lat="42.8901096" lon="12.2943654"><ele>380.0</ele><time>2026-03-28T14:53:44.328Z</time></trkpt><trkpt lat="42.8901026" lon="12.2942043"><ele>382.5</ele><time>2026-03-28T14:53:45.327Z</time></trkpt><trkpt lat="42.8901159" lon="12.2940477"><ele>385.0</ele><time>2026-03-28T14:53:46.327Z</time></trkpt><trkpt lat="42.8901539" lon="12.2938964"><ele>385.0</ele><time>2026-03-28T14:53:47.327Z</time></trkpt><trkpt lat="42.8902051" lon="12.2937377"><ele>385.0</ele><time>2026-03-28T14:53:48.328Z</time></trkpt><trkpt lat="42.8902621" lon="12.2935801"><ele>385.0</ele><time>2026-03-28T14:53:49.328Z</time></trkpt><trkpt lat="42.8903197" lon="12.2933963"><ele>385.0</ele><time>2026-03-28T14:53:50.328Z</time></trkpt><trkpt lat="42.8903729" lon="12.2932101"><ele>383.33333333333337</ele><time>2026-03-28T14:53:51.328Z</time></trkpt><trkpt lat="42.8904234" lon="12.2930201"><ele>381.6666666666667</ele><time>2026-03-28T14:53:52.328Z</time></trkpt><trkpt lat="42.8904757" lon="12.2928186"><ele>380.0</ele><time>2026-03-28T14:53:53.327Z</time></trkpt><trkpt lat="42.8905421" lon="12.2926224"><ele>380.0</ele><time>2026-03-28T14:53:54.327Z</time></trkpt><trkpt lat="42.8906084" lon="12.2924296"><ele>380.0</ele><time>2026-03-28T14:53:55.328Z</time></trkpt><trkpt lat="42.8906828" lon="12.2922465"><ele>380.0</ele><time>2026-03-28T14:53:56.328Z</time></trkpt><trkpt lat="42.8907541" lon="12.2920688"><ele>379.0</ele><time>2026-03-28T14:53:57.328Z</time></trkpt><trkpt lat="42.8908278" lon="12.2918889"><ele>378.0</ele><time>2026-03-28T14:53:58.328Z</time></trkpt><trkpt lat="42.8908993" lon="12.2917211"><ele>377.0</ele><time>2026-03-28T14:53:59.328Z</time></trkpt><trkpt lat="42.890952" lon="12.291566"><ele>376.0</ele><time>2026-03-28T14:54:00.327Z</time></trkpt><trkpt lat="42.8909847" lon="12.2914122"><ele>376.5</ele><time>2026-03-28T14:54:01.328Z</time></trkpt><trkpt lat="42.8909733" lon="12.2912587"><ele>377.0</ele><time>2026-03-28T14:54:02.327Z</time></trkpt><trkpt lat="42.890947" lon="12.2911136"><ele>377.5</ele><time>2026-03-28T14:54:03.327Z</time></trkpt><trkpt lat="42.8909019" lon="12.2909622"><ele>378.0</ele><time>2026-03-28T14:54:04.327Z</time></trkpt><trkpt lat="42.8908597" lon="12.2908068"><ele>378.0</ele><time>2026-03-28T14:54:05.328Z</time></trkpt><trkpt lat="42.8908273" lon="12.2906393"><ele>378.0</ele><time>2026-03-28T14:54:06.328Z</time></trkpt><trkpt lat="42.890821" lon="12.2904721"><ele>378.0</ele><time>2026-03-28T14:54:07.328Z</time></trkpt><trkpt lat="42.8908375" lon="12.2903081"><ele>378.0</ele><time>2026-03-28T14:54:08.327Z</time></trkpt><trkpt lat="42.8908685" lon="12.2901421"><ele>378.0</ele><time>2026-03-28T14:54:09.328Z</time></trkpt><trkpt lat="42.8909117" lon="12.2899662"><ele>378.0</ele><time>2026-03-28T14:54:10.328Z</time></trkpt><trkpt lat="42.8909635" lon="12.2897952"><ele>378.0</ele><time>2026-03-28T14:54:11.328Z</time></trkpt><trkpt lat="42.8910036" lon="12.2896322"><ele>378.0</ele><time>2026-03-28T14:54:12.328Z</time></trkpt><trkpt lat="42.8910156" lon="12.2894828"><ele>377.75</ele><time>2026-03-28T14:54:13.328Z</time></trkpt><trkpt lat="42.8909982" lon="12.2893457"><ele>377.5</ele><time>2026-03-28T14:54:14.328Z</time></trkpt><trkpt lat="42.8909491" lon="12.2892204"><ele>377.25</ele><time>2026-03-28T14:54:15.327Z</time></trkpt><trkpt lat="42.8908639" lon="12.2891013"><ele>377.0</ele><time>2026-03-28T14:54:16.327Z</time></trkpt><trkpt lat="42.89076" lon="12.2889964"><ele>376.25</ele><time>2026-03-28T14:54:17.328Z</time></trkpt><trkpt lat="42.8906379" lon="12.2888795"><ele>375.5</ele><time>2026-03-28T14:54:18.328Z</time></trkpt><trkpt lat="42.8905121" lon="12.2887719"><ele>374.75</ele><time>2026-03-28T14:54:19.328Z</time></trkpt><trkpt lat="42.8903972" lon="12.2886637"><ele>374.0</ele><time>2026-03-28T14:54:20.328Z</time></trkpt><trkpt lat="42.8902839" lon="12.2885516"><ele>374.0</ele><time>2026-03-28T14:54:21.327Z</time></trkpt><trkpt lat="42.8901834" lon="12.2884232"><ele>374.0</ele><time>2026-03-28T14:54:22.328Z</time></trkpt><trkpt lat="42.8901007" lon="12.2882702"><ele>374.0</ele><time>2026-03-28T14:54:23.327Z</time></trkpt><trkpt lat="42.890026" lon="12.2881012"><ele>374.0</ele><time>2026-03-28T14:54:24.328Z</time></trkpt><trkpt lat="42.889956" lon="12.2879244"><ele>375.0</ele><time>2026-03-28T14:54:25.328Z</time></trkpt><trkpt lat="42.8898781" lon="12.2877449"><ele>376.0</ele><time>2026-03-28T14:54:26.327Z</time></trkpt><trkpt lat="42.8897874" lon="12.287567"><ele>377.0</ele><time>2026-03-28T14:54:27.327Z</time></trkpt><trkpt lat="42.8896798" lon="12.2874013"><ele>376.0</ele><time>2026-03-28T14:54:28.327Z</time></trkpt><trkpt lat="42.8895609" lon="12.2872274"><ele>375.0</ele><time>2026-03-28T14:54:29.328Z</time></trkpt><trkpt lat="42.8894295" lon="12.2870787"><ele>374.0</ele><time>2026-03-28T14:54:30.328Z</time></trkpt><trkpt lat="42.8892973" lon="12.2869209"><ele>377.0</ele><time>2026-03-28T14:54:31.328Z</time></trkpt><trkpt lat="42.8891706" lon="12.2867617"><ele>380.0</ele><time>2026-03-28T14:54:32.328Z</time></trkpt><trkpt lat="42.8890413" lon="12.2865984"><ele>383.0</ele><time>2026-03-28T14:54:33.328Z</time></trkpt><trkpt lat="42.8889051" lon="12.2864293"><ele>379.33333333333337</ele><time>2026-03-28T14:54:34.328Z</time></trkpt><trkpt lat="42.8887643" lon="12.2862605"><ele>375.6666666666667</ele><time>2026-03-28T14:54:35.328Z</time></trkpt><trkpt lat="42.8886312" lon="12.2860908"><ele>372.0</ele><time>2026-03-28T14:54:36.328Z</time></trkpt><trkpt lat="42.8884986" lon="12.2859183"><ele>375.6666666666667</ele><time>2026-03-28T14:54:37.327Z</time></trkpt><trkpt lat="42.8883679" lon="12.2857479"><ele>379.33333333333337</ele><time>2026-03-28T14:54:38.327Z</time></trkpt><trkpt lat="42.8882484" lon="12.2855767"><ele>383.0</ele><time>2026-03-28T14:54:39.327Z</time></trkpt><trkpt lat="42.8881513" lon="12.2854023"><ele>383.0</ele><time>2026-03-28T14:54:40.328Z</time></trkpt><trkpt lat="42.8880705" lon="12.2852233"><ele>383.0</ele><time>2026-03-28T14:54:41.328Z</time></trkpt><trkpt lat="42.8880201" lon="12.2850368"><ele>383.0</ele><time>2026-03-28T14:54:42.328Z</time></trkpt><trkpt lat="42.8879983" lon="12.2848555"><ele>383.0</ele><time>2026-03-28T14:54:43.328Z</time></trkpt><trkpt lat="42.8879883" lon="12.2846841"><ele>381.5</ele><time>2026-03-28T14:54:44.328Z</time></trkpt><trkpt lat="42.8879639" lon="12.2845238"><ele>380.0</ele><time>2026-03-28T14:54:45.328Z</time></trkpt><trkpt lat="42.8879099" lon="12.2843829"><ele>378.5</ele><time>2026-03-28T14:54:46.328Z</time></trkpt><trkpt lat="42.887829" lon="12.2842733"><ele>377.0</ele><time>2026-03-28T14:54:47.328Z</time></trkpt><trkpt lat="42.8877247" lon="12.2841971"><ele>377.0</ele><time>2026-03-28T14:54:48.328Z</time></trkpt><trkpt lat="42.8876156" lon="12.2841477"><ele>377.0</ele><time>2026-03-28T14:54:49.328Z</time></trkpt><trkpt lat="42.8874999" lon="12.2841164"><ele>377.0</ele><time>2026-03-28T14:54:50.328Z</time></trkpt><trkpt lat="42.8873764" lon="12.2840868"><ele>377.0</ele><time>2026-03-28T14:54:51.328Z</time></trkpt><trkpt lat="42.8872414" lon="12.2840564"><ele>379.5</ele><time>2026-03-28T14:54:52.328Z</time></trkpt><trkpt lat="42.8871029" lon="12.2840263"><ele>382.0</ele><time>2026-03-28T14:54:53.327Z</time></trkpt><trkpt lat="42.8869671" lon="12.2839715"><ele>384.5</ele><time>2026-03-28T14:54:54.328Z</time></trkpt><trkpt lat="42.8868339" lon="12.2838713"><ele>387.0</ele><time>2026-03-28T14:54:55.328Z</time></trkpt><trkpt lat="42.8866937" lon="12.283756"><ele>393.0</ele><time>2026-03-28T14:54:56.328Z</time></trkpt><trkpt lat="42.8865561" lon="12.2836362"><ele>399.0</ele><time>2026-03-28T14:54:57.328Z</time></trkpt><trkpt lat="42.8864126" lon="12.2835134"><ele>405.0</ele><time>2026-03-28T14:54:58.328Z</time></trkpt><trkpt lat="42.8862723" lon="12.2833919"><ele>405.0</ele><time>2026-03-28T14:54:59.327Z</time></trkpt><trkpt lat="42.8861331" lon="12.2832791"><ele>405.0</ele><time>2026-03-28T14:55:00.327Z</time></trkpt><trkpt lat="42.8859935" lon="12.2831682"><ele>405.0</ele><time>2026-03-28T14:55:01.328Z</time></trkpt><trkpt lat="42.8858453" lon="12.2830695"><ele>411.0</ele><time>2026-03-28T14:55:02.327Z</time></trkpt><trkpt lat="42.8856938" lon="12.2830114"><ele>417.0</ele><time>2026-03-28T14:55:03.327Z</time></trkpt><trkpt lat="42.8855337" lon="12.2829979"><ele>423.0</ele><time>2026-03-28T14:55:04.327Z</time></trkpt><trkpt lat="42.8853794" lon="12.2830233"><ele>423.0</ele><time>2026-03-28T14:55:05.328Z</time></trkpt><trkpt lat="42.8852171" lon="12.2830741"><ele>423.0</ele><time>2026-03-28T14:55:06.328Z</time></trkpt><trkpt lat="42.8850528" lon="12.2831483"><ele>423.0</ele><time>2026-03-28T14:55:07.328Z</time></trkpt><trkpt lat="42.8848919" lon="12.2832293"><ele>418.66666666666663</ele><time>2026-03-28T14:55:08.328Z</time></trkpt><trkpt lat="42.8847293" lon="12.28331"><ele>414.3333333333333</ele><time>2026-03-28T14:55:09.328Z</time></trkpt><trkpt lat="42.8845663" lon="12.2833672"><ele>410.0</ele><time>2026-03-28T14:55:10.328Z</time></trkpt><trkpt lat="42.8844082" lon="12.2833979"><ele>411.66666666666663</ele><time>2026-03-28T14:55:11.328Z</time></trkpt><trkpt lat="42.8842501" lon="12.2834066"><ele>413.33333333333337</ele><time>2026-03-28T14:55:12.328Z</time></trkpt><trkpt lat="42.8840997" lon="12.2833924"><ele>415.0</ele><time>2026-03-28T14:55:13.327Z</time></trkpt><trkpt lat="42.8839399" lon="12.2833461"><ele>415.0</ele><time>2026-03-28T14:55:14.328Z</time></trkpt><trkpt lat="42.883781" lon="12.2832945"><ele>415.0</ele><time>2026-03-28T14:55:15.327Z</time></trkpt><trkpt lat="42.8836142" lon="12.2832484"><ele>415.0</ele><time>2026-03-28T14:55:16.327Z</time></trkpt><trkpt lat="42.8834374" lon="12.2832202"><ele>415.33333333333337</ele><time>2026-03-28T14:55:17.328Z</time></trkpt><trkpt lat="42.8832663" lon="12.2831905"><ele>415.66666666666663</ele><time>2026-03-28T14:55:18.327Z</time></trkpt><trkpt lat="42.8830881" lon="12.2831558"><ele>416.0</ele><time>2026-03-28T14:55:19.327Z</time></trkpt><trkpt lat="42.8829078" lon="12.2831239"><ele>419.66666666666663</ele><time>2026-03-28T14:55:20.328Z</time></trkpt><trkpt lat="42.8827285" lon="12.2830782"><ele>423.33333333333337</ele><time>2026-03-28T14:55:21.328Z</time></trkpt><trkpt lat="42.8825436" lon="12.2830385"><ele>427.0</ele><time>2026-03-28T14:55:22.327Z</time></trkpt><trkpt lat="42.8823595" lon="12.282987"><ele>427.0</ele><time>2026-03-28T14:55:23.328Z</time></trkpt><trkpt lat="42.8821842" lon="12.2829272"><ele>427.0</ele><time>2026-03-28T14:55:24.328Z</time></trkpt><trkpt lat="42.8820055" lon="12.2828698"><ele>427.0</ele><time>2026-03-28T14:55:25.328Z</time></trkpt><trkpt lat="42.8818284" lon="12.2828058"><ele>425.6666666666667</ele><time>2026-03-28T14:55:26.328Z</time></trkpt><trkpt lat="42.8816485" lon="12.2827726"><ele>424.33333333333337</ele><time>2026-03-28T14:55:27.328Z</time></trkpt><trkpt lat="42.8814675" lon="12.2827721"><ele>423.0</ele><time>2026-03-28T14:55:28.328Z</time></trkpt><trkpt lat="42.8812839" lon="12.2827714"><ele>423.0</ele><time>2026-03-28T14:55:29.328Z</time></trkpt><trkpt lat="42.881104" lon="12.2827871"><ele>423.0</ele><time>2026-03-28T14:55:30.328Z</time></trkpt><trkpt lat="42.8809241" lon="12.282803"><ele>423.0</ele><time>2026-03-28T14:55:31.328Z</time></trkpt><trkpt lat="42.880741" lon="12.2828289"><ele>422.33333333333337</ele><time>2026-03-28T14:55:32.328Z</time></trkpt><trkpt lat="42.8805585" lon="12.2828595"><ele>421.6666666666667</ele><time>2026-03-28T14:55:33.328Z</time></trkpt><trkpt lat="42.8803789" lon="12.2828894"><ele>421.0</ele><time>2026-03-28T14:55:34.328Z</time></trkpt><trkpt lat="42.8802032" lon="12.2829206"><ele>421.0</ele><time>2026-03-28T14:55:35.327Z</time></trkpt><trkpt lat="42.880031" lon="12.2829399"><ele>421.0</ele><time>2026-03-28T14:55:36.328Z</time></trkpt><trkpt lat="42.8798667" lon="12.2829367"><ele>421.0</ele><time>2026-03-28T14:55:37.327Z</time></trkpt><trkpt lat="42.8797052" lon="12.2829133"><ele>421.0</ele><time>2026-03-28T14:55:38.328Z</time></trkpt><trkpt lat="42.8795425" lon="12.2828624"><ele>421.0</ele><time>2026-03-28T14:55:39.327Z</time></trkpt><trkpt lat="42.879382" lon="12.282787"><ele>421.0</ele><time>2026-03-28T14:55:40.328Z</time></trkpt><trkpt lat="42.8792323" lon="12.2826977"><ele>419.33333333333337</ele><time>2026-03-28T14:55:41.328Z</time></trkpt><trkpt lat="42.8790837" lon="12.282578"><ele>417.66666666666663</ele><time>2026-03-28T14:55:42.328Z</time></trkpt><trkpt lat="42.8789541" lon="12.2824497"><ele>416.0</ele><time>2026-03-28T14:55:43.328Z</time></trkpt><trkpt lat="42.8788604" lon="12.2822847"><ele>415.3333333333333</ele><time>2026-03-28T14:55:44.327Z</time></trkpt><trkpt lat="42.8787846" lon="12.2820919"><ele>414.66666666666663</ele><time>2026-03-28T14:55:45.327Z</time></trkpt><trkpt lat="42.8787162" lon="12.2818802"><ele>414.0</ele><time>2026-03-28T14:55:46.327Z</time></trkpt><trkpt lat="42.8786495" lon="12.281667"><ele>414.0</ele><time>2026-03-28T14:55:47.328Z</time></trkpt><trkpt lat="42.8785807" lon="12.2814504"><ele>414.0</ele><time>2026-03-28T14:55:48.328Z</time></trkpt><trkpt lat="42.8784904" lon="12.2812548"><ele>414.0</ele><time>2026-03-28T14:55:49.327Z</time></trkpt><trkpt lat="42.8783783" lon="12.2810853"><ele>412.0</ele><time>2026-03-28T14:55:50.328Z</time></trkpt><trkpt lat="42.8782467" lon="12.2809375"><ele>410.0</ele><time>2026-03-28T14:55:51.327Z</time></trkpt><trkpt lat="42.8781036" lon="12.2808135"><ele>408.0</ele><time>2026-03-28T14:55:52.328Z</time></trkpt><trkpt lat="42.8779512" lon="12.2807056"><ele>408.0</ele><time>2026-03-28T14:55:53.327Z</time></trkpt><trkpt lat="42.8777986" lon="12.2806016"><ele>408.0</ele><time>2026-03-28T14:55:54.328Z</time></trkpt><trkpt lat="42.8776335" lon="12.2805051"><ele>408.0</ele><time>2026-03-28T14:55:55.327Z</time></trkpt><trkpt lat="42.8774639" lon="12.2804029"><ele>408.33333333333337</ele><time>2026-03-28T14:55:56.327Z</time></trkpt><trkpt lat="42.8772979" lon="12.2802916"><ele>408.6666666666667</ele><time>2026-03-28T14:55:57.328Z</time></trkpt><trkpt lat="42.8771298" lon="12.2801844"><ele>409.0</ele><time>2026-03-28T14:55:58.328Z</time></trkpt><trkpt lat="42.8769557" lon="12.2800833"><ele>409.0</ele><time>2026-03-28T14:55:59.327Z</time></trkpt><trkpt lat="42.8767787" lon="12.2799775"><ele>409.0</ele><time>2026-03-28T14:56:00.328Z</time></trkpt><trkpt lat="42.8766037" lon="12.2798684"><ele>409.0</ele><time>2026-03-28T14:56:01.328Z</time></trkpt><trkpt lat="42.8764299" lon="12.2797507"><ele>408.0</ele><time>2026-03-28T14:56:02.328Z</time></trkpt><trkpt lat="42.8762534" lon="12.2796384"><ele>407.0</ele><time>2026-03-28T14:56:03.328Z</time></trkpt><trkpt lat="42.8760768" lon="12.2795244"><ele>406.0</ele><time>2026-03-28T14:56:04.327Z</time></trkpt><trkpt lat="42.8759051" lon="12.2794184"><ele>406.0</ele><time>2026-03-28T14:56:05.327Z</time></trkpt><trkpt lat="42.8757319" lon="12.2792927"><ele>406.0</ele><time>2026-03-28T14:56:06.328Z</time></trkpt><trkpt lat="42.8755555" lon="12.2791727"><ele>406.0</ele><time>2026-03-28T14:56:07.328Z</time></trkpt><trkpt lat="42.8753966" lon="12.2790732"><ele>406.0</ele><time>2026-03-28T14:56:08.327Z</time></trkpt><trkpt lat="42.8752388" lon="12.2789734"><ele>406.0</ele><time>2026-03-28T14:56:09.327Z</time></trkpt><trkpt lat="42.8750875" lon="12.2788652"><ele>406.0</ele><time>2026-03-28T14:56:10.328Z</time></trkpt><trkpt lat="42.8749482" lon="12.2787501"><ele>405.0</ele><time>2026-03-28T14:56:11.327Z</time></trkpt><trkpt lat="42.8748203" lon="12.2786137"><ele>404.0</ele><time>2026-03-28T14:56:12.327Z</time></trkpt><trkpt lat="42.8747013" lon="12.2784579"><ele>403.0</ele><time>2026-03-28T14:56:13.328Z</time></trkpt><trkpt lat="42.8745877" lon="12.2782852"><ele>403.0</ele><time>2026-03-28T14:56:14.328Z</time></trkpt><trkpt lat="42.874473" lon="12.2781098"><ele>403.0</ele><time>2026-03-28T14:56:15.327Z</time></trkpt><trkpt lat="42.8743624" lon="12.2779246"><ele>403.0</ele><time>2026-03-28T14:56:16.327Z</time></trkpt><trkpt lat="42.8742737" lon="12.2777352"><ele>403.75</ele><time>2026-03-28T14:56:17.328Z</time></trkpt><trkpt lat="42.8742014" lon="12.2775527"><ele>404.5</ele><time>2026-03-28T14:56:18.328Z</time></trkpt><trkpt lat="42.8741295" lon="12.2773889"><ele>405.25</ele><time>2026-03-28T14:56:19.327Z</time></trkpt><trkpt lat="42.8740451" lon="12.2772687"><ele>406.0</ele><time>2026-03-28T14:56:20.328Z</time></trkpt><trkpt lat="42.8739447" lon="12.2771765"><ele>403.75</ele><time>2026-03-28T14:56:21.328Z</time></trkpt><trkpt lat="42.8738303" lon="12.2771125"><ele>401.5</ele><time>2026-03-28T14:56:22.328Z</time></trkpt><trkpt lat="42.8737136" lon="12.2770514"><ele>399.25</ele><time>2026-03-28T14:56:23.328Z</time></trkpt><trkpt lat="42.8736068" lon="12.2769701"><ele>397.0</ele><time>2026-03-28T14:56:24.328Z</time></trkpt><trkpt lat="42.8735095" lon="12.2768306"><ele>396.6666666666667</ele><time>2026-03-28T14:56:25.328Z</time></trkpt><trkpt lat="42.8734316" lon="12.2766667"><ele>396.33333333333337</ele><time>2026-03-28T14:56:26.328Z</time></trkpt><trkpt lat="42.8733509" lon="12.276476"><ele>396.0</ele><time>2026-03-28T14:56:27.328Z</time></trkpt><trkpt lat="42.8732713" lon="12.2762916"><ele>396.0</ele><time>2026-03-28T14:56:28.328Z</time></trkpt><trkpt lat="42.8731974" lon="12.2760882"><ele>396.0</ele><time>2026-03-28T14:56:29.328Z</time></trkpt><trkpt lat="42.8731226" lon="12.2758808"><ele>396.0</ele><time>2026-03-28T14:56:30.328Z</time></trkpt><trkpt lat="42.8730487" lon="12.2756671"><ele>394.66666666666663</ele><time>2026-03-28T14:56:31.328Z</time></trkpt><trkpt lat="42.8729709" lon="12.2754488"><ele>393.3333333333333</ele><time>2026-03-28T14:56:32.327Z</time></trkpt><trkpt lat="42.8728929" lon="12.2752321"><ele>392.0</ele><time>2026-03-28T14:56:33.327Z</time></trkpt><trkpt lat="42.8728373" lon="12.2750197"><ele>392.0</ele><time>2026-03-28T14:56:34.327Z</time></trkpt><trkpt lat="42.8727949" lon="12.2748037"><ele>392.0</ele><time>2026-03-28T14:56:35.328Z</time></trkpt><trkpt lat="42.872773" lon="12.2745914"><ele>392.0</ele><time>2026-03-28T14:56:36.327Z</time></trkpt><trkpt lat="42.8727694" lon="12.2743545"><ele>393.0</ele><time>2026-03-28T14:56:37.328Z</time></trkpt><trkpt lat="42.8727718" lon="12.2741355"><ele>394.0</ele><time>2026-03-28T14:56:38.327Z</time></trkpt><trkpt lat="42.8727865" lon="12.2739216"><ele>395.0</ele><time>2026-03-28T14:56:39.328Z</time></trkpt><trkpt lat="42.8728029" lon="12.2737169"><ele>396.5</ele><time>2026-03-28T14:56:40.328Z</time></trkpt><trkpt lat="42.8728103" lon="12.2735174"><ele>398.0</ele><time>2026-03-28T14:56:41.328Z</time></trkpt><trkpt lat="42.8728088" lon="12.2733136"><ele>399.5</ele><time>2026-03-28T14:56:42.328Z</time></trkpt><trkpt lat="42.8728021" lon="12.2731099"><ele>401.0</ele><time>2026-03-28T14:56:43.328Z</time></trkpt><trkpt lat="42.872786" lon="12.272894"><ele>404.0</ele><time>2026-03-28T14:56:44.328Z</time></trkpt><trkpt lat="42.8727662" lon="12.2726758"><ele>407.0</ele><time>2026-03-28T14:56:45.328Z</time></trkpt><trkpt lat="42.8727489" lon="12.272464"><ele>410.0</ele><time>2026-03-28T14:56:46.328Z</time></trkpt><trkpt lat="42.8727352" lon="12.2722485"><ele>411.0</ele><time>2026-03-28T14:56:47.327Z</time></trkpt><trkpt lat="42.8727338" lon="12.2720398"><ele>412.0</ele><time>2026-03-28T14:56:48.328Z</time></trkpt><trkpt lat="42.8727502" lon="12.2718454"><ele>413.0</ele><time>2026-03-28T14:56:49.327Z</time></trkpt><trkpt lat="42.8727569" lon="12.271665"><ele>414.0</ele><time>2026-03-28T14:56:50.328Z</time></trkpt><trkpt lat="42.8727441" lon="12.2715009"><ele>415.0</ele><time>2026-03-28T14:56:51.328Z</time></trkpt><trkpt lat="42.8726898" lon="12.2713503"><ele>416.0</ele><time>2026-03-28T14:56:52.328Z</time></trkpt><trkpt lat="42.8726165" lon="12.2712193"><ele>417.0</ele><time>2026-03-28T14:56:53.328Z</time></trkpt><trkpt lat="42.8725231" lon="12.2711161"><ele>418.0</ele><time>2026-03-28T14:56:54.328Z</time></trkpt><trkpt lat="42.8724123" lon="12.2710409"><ele>419.25</ele><time>2026-03-28T14:56:55.328Z</time></trkpt><trkpt lat="42.8722903" lon="12.2709802"><ele>420.5</ele><time>2026-03-28T14:56:56.328Z</time></trkpt><trkpt lat="42.8721551" lon="12.27092"><ele>421.75</ele><time>2026-03-28T14:56:57.328Z</time></trkpt><trkpt lat="42.8720238" lon="12.2708551"><ele>423.0</ele><time>2026-03-28T14:56:58.328Z</time></trkpt><trkpt lat="42.8718836" lon="12.2707985"><ele>422.33333333333337</ele><time>2026-03-28T14:56:59.327Z</time></trkpt><trkpt lat="42.8717335" lon="12.270756"><ele>421.6666666666667</ele><time>2026-03-28T14:57:00.327Z</time></trkpt><trkpt lat="42.8715902" lon="12.270721"><ele>421.0</ele><time>2026-03-28T14:57:01.328Z</time></trkpt><trkpt lat="42.8714351" lon="12.2706825"><ele>421.0</ele><time>2026-03-28T14:57:02.328Z</time></trkpt><trkpt lat="42.8712773" lon="12.2706313"><ele>421.0</ele><time>2026-03-28T14:57:03.327Z</time></trkpt><trkpt lat="42.8711256" lon="12.2705681"><ele>421.0</ele><time>2026-03-28T14:57:04.328Z</time></trkpt><trkpt lat="42.8709701" lon="12.270496"><ele>422.6666666666667</ele><time>2026-03-28T14:57:05.328Z</time></trkpt><trkpt lat="42.8708176" lon="12.2704106"><ele>424.33333333333337</ele><time>2026-03-28T14:57:06.327Z</time></trkpt><trkpt lat="42.8706731" lon="12.2703176"><ele>426.0</ele><time>2026-03-28T14:57:07.328Z</time></trkpt><trkpt lat="42.8705241" lon="12.2702303"><ele>426.0</ele><time>2026-03-28T14:57:08.327Z</time></trkpt><trkpt lat="42.8703749" lon="12.2701633"><ele>426.0</ele><time>2026-03-28T14:57:09.328Z</time></trkpt><trkpt lat="42.8702321" lon="12.2701123"><ele>426.0</ele><time>2026-03-28T14:57:10.328Z</time></trkpt><trkpt lat="42.870093" lon="12.2700789"><ele>426.0</ele><time>2026-03-28T14:57:11.328Z</time></trkpt><trkpt lat="42.8699564" lon="12.2700661"><ele>428.0</ele><time>2026-03-28T14:57:12.328Z</time></trkpt><trkpt lat="42.8698201" lon="12.2700849"><ele>430.0</ele><time>2026-03-28T14:57:13.327Z</time></trkpt><trkpt lat="42.8696944" lon="12.2701277"><ele>432.0</ele><time>2026-03-28T14:57:14.328Z</time></trkpt><trkpt lat="42.8695679" lon="12.2702016"><ele>434.0</ele><time>2026-03-28T14:57:15.328Z</time></trkpt><trkpt lat="42.8694409" lon="12.2702973"><ele>434.0</ele><time>2026-03-28T14:57:16.328Z</time></trkpt><trkpt lat="42.8693145" lon="12.2703926"><ele>434.0</ele><time>2026-03-28T14:57:17.328Z</time></trkpt><trkpt lat="42.8691932" lon="12.2704729"><ele>434.0</ele><time>2026-03-28T14:57:18.328Z</time></trkpt><trkpt lat="42.8690811" lon="12.2705315"><ele>434.0</ele><time>2026-03-28T14:57:19.328Z</time></trkpt><trkpt lat="42.8689709" lon="12.2705572"><ele>436.0</ele><time>2026-03-28T14:57:20.328Z</time></trkpt><trkpt lat="42.8688637" lon="12.2705365"><ele>438.0</ele><time>2026-03-28T14:57:21.328Z</time></trkpt><trkpt lat="42.8687582" lon="12.2704779"><ele>440.0</ele><time>2026-03-28T14:57:22.328Z</time></trkpt><trkpt lat="42.8686786" lon="12.2703633"><ele>442.0</ele><time>2026-03-28T14:57:23.328Z</time></trkpt><trkpt lat="42.8686057" lon="12.2702463"><ele>442.0</ele><time>2026-03-28T14:57:24.328Z</time></trkpt><trkpt lat="42.8685717" lon="12.2701109"><ele>442.00000000000006</ele><time>2026-03-28T14:57:25.328Z</time></trkpt><trkpt lat="42.8685654" lon="12.2699799"><ele>442.00000000000006</ele><time>2026-03-28T14:57:26.327Z</time></trkpt><trkpt lat="42.8685881" lon="12.2698555"><ele>442.0</ele><time>2026-03-28T14:57:27.328Z</time></trkpt><trkpt lat="42.8686161" lon="12.2697322"><ele>442.0</ele><time>2026-03-28T14:57:28.328Z</time></trkpt><trkpt lat="42.8686369" lon="12.2696223"><ele>443.6</ele><time>2026-03-28T14:57:29.328Z</time></trkpt><trkpt lat="42.8686521" lon="12.2695071"><ele>445.20000000000005</ele><time>2026-03-28T14:57:30.328Z</time></trkpt><trkpt lat="42.8686532" lon="12.269385"><ele>446.8</ele><time>2026-03-28T14:57:31.328Z</time></trkpt><trkpt lat="42.8686398" lon="12.2692549"><ele>448.4</ele><time>2026-03-28T14:57:32.328Z</time></trkpt><trkpt lat="42.8685942" lon="12.2691282"><ele>450.0</ele><time>2026-03-28T14:57:33.328Z</time></trkpt><trkpt lat="42.8685339" lon="12.2690171"><ele>451.0</ele><time>2026-03-28T14:57:34.328Z</time></trkpt><trkpt lat="42.8684491" lon="12.2689124"><ele>452.0</ele><time>2026-03-28T14:57:35.328Z</time></trkpt><trkpt lat="42.868359" lon="12.2688037"><ele>453.0</ele><time>2026-03-28T14:57:36.327Z</time></trkpt><trkpt lat="42.8682693" lon="12.2687064"><ele>454.0</ele><time>2026-03-28T14:57:37.328Z</time></trkpt><trkpt lat="42.8681897" lon="12.2686062"><ele>454.0</ele><time>2026-03-28T14:57:38.327Z</time></trkpt><trkpt lat="42.8681289" lon="12.2684923"><ele>454.0</ele><time>2026-03-28T14:57:39.328Z</time></trkpt><trkpt lat="42.868085" lon="12.2683809"><ele>454.0</ele><time>2026-03-28T14:57:40.328Z</time></trkpt><trkpt lat="42.8680542" lon="12.2682517"><ele>454.0</ele><time>2026-03-28T14:57:41.327Z</time></trkpt><trkpt lat="42.8680473" lon="12.2681068"><ele>454.0</ele><time>2026-03-28T14:57:42.328Z</time></trkpt><trkpt lat="42.8680487" lon="12.2679534"><ele>454.75</ele><time>2026-03-28T14:57:43.328Z</time></trkpt><trkpt lat="42.8680601" lon="12.2677965"><ele>455.5</ele><time>2026-03-28T14:57:44.328Z</time></trkpt><trkpt lat="42.8680735" lon="12.2676373"><ele>456.25</ele><time>2026-03-28T14:57:45.328Z</time></trkpt><trkpt lat="42.868084" lon="12.2674786"><ele>457.0</ele><time>2026-03-28T14:57:46.328Z</time></trkpt><trkpt lat="42.8681005" lon="12.2673231"><ele>457.5</ele><time>2026-03-28T14:57:47.328Z</time></trkpt><trkpt lat="42.8681033" lon="12.2671635"><ele>458.0</ele><time>2026-03-28T14:57:48.327Z</time></trkpt><trkpt lat="42.8680967" lon="12.2670059"><ele>458.5</ele><time>2026-03-28T14:57:49.328Z</time></trkpt><trkpt lat="42.8680691" lon="12.2668511"><ele>459.0</ele><time>2026-03-28T14:57:50.327Z</time></trkpt><trkpt lat="42.8680345" lon="12.2666914"><ele>459.0</ele><time>2026-03-28T14:57:51.327Z</time></trkpt><trkpt lat="42.8679973" lon="12.2665343"><ele>459.0</ele><time>2026-03-28T14:57:52.327Z</time></trkpt><trkpt lat="42.8679592" lon="12.2663874"><ele>459.0</ele><time>2026-03-28T14:57:53.328Z</time></trkpt><trkpt lat="42.8679269" lon="12.2662514"><ele>459.0</ele><time>2026-03-28T14:57:54.328Z</time></trkpt><trkpt lat="42.8678977" lon="12.2661346"><ele>459.0</ele><time>2026-03-28T14:57:55.328Z</time></trkpt><trkpt lat="42.8678703" lon="12.2660403"><ele>458.6666666666667</ele><time>2026-03-28T14:57:56.327Z</time></trkpt><trkpt lat="42.8678472" lon="12.2659493"><ele>458.33333333333337</ele><time>2026-03-28T14:57:58.328Z</time></trkpt><trkpt lat="42.867802" lon="12.2658353"><ele>458.0</ele><time>2026-03-28T14:58:04.328Z</time></trkpt><trkpt lat="42.8677583" lon="12.2656765"><ele>457.6666666666667</ele><time>2026-03-28T14:58:06.328Z</time></trkpt><trkpt lat="42.8677359" lon="12.2655772"><ele>457.33333333333337</ele><time>2026-03-28T14:58:07.327Z</time></trkpt><trkpt lat="42.8677124" lon="12.2654781"><ele>457.0</ele><time>2026-03-28T14:58:08.327Z</time></trkpt><trkpt lat="42.8676819" lon="12.2653879"><ele>455.20000000000005</ele><time>2026-03-28T14:58:09.328Z</time></trkpt><trkpt lat="42.8676498" lon="12.2652882"><ele>453.40000000000003</ele><time>2026-03-28T14:58:10.328Z</time></trkpt><trkpt lat="42.8676142" lon="12.2651748"><ele>451.59999999999997</ele><time>2026-03-28T14:58:11.328Z</time></trkpt><trkpt lat="42.8675743" lon="12.2650636"><ele>449.79999999999995</ele><time>2026-03-28T14:58:12.328Z</time></trkpt><trkpt lat="42.8675341" lon="12.264949"><ele>448.0</ele><time>2026-03-28T14:58:13.328Z</time></trkpt><trkpt lat="42.8674793" lon="12.264837"><ele>446.0</ele><time>2026-03-28T14:58:14.328Z</time></trkpt><trkpt lat="42.8674117" lon="12.2647233"><ele>443.99999999999994</ele><time>2026-03-28T14:58:15.328Z</time></trkpt><trkpt lat="42.867331" lon="12.2646282"><ele>441.99999999999994</ele><time>2026-03-28T14:58:16.328Z</time></trkpt><trkpt lat="42.8672368" lon="12.2645488"><ele>440.0</ele><time>2026-03-28T14:58:17.328Z</time></trkpt><trkpt lat="42.8671414" lon="12.2644762"><ele>438.0</ele><time>2026-03-28T14:58:18.327Z</time></trkpt><trkpt lat="42.8670383" lon="12.2643844"><ele>438.0</ele><time>2026-03-28T14:58:19.328Z</time></trkpt><trkpt lat="42.8669212" lon="12.2642984"><ele>438.0</ele><time>2026-03-28T14:58:20.328Z</time></trkpt><trkpt lat="42.8668062" lon="12.264208"><ele>438.0</ele><time>2026-03-28T14:58:21.328Z</time></trkpt><trkpt lat="42.8666787" lon="12.2641217"><ele>438.0</ele><time>2026-03-28T14:58:22.327Z</time></trkpt><trkpt lat="42.8665532" lon="12.2640385"><ele>438.5</ele><time>2026-03-28T14:58:23.328Z</time></trkpt><trkpt lat="42.8664255" lon="12.2639567"><ele>439.0</ele><time>2026-03-28T14:58:24.328Z</time></trkpt><trkpt lat="42.8663" lon="12.2638621"><ele>439.5</ele><time>2026-03-28T14:58:25.328Z</time></trkpt><trkpt lat="42.8661805" lon="12.2637675"><ele>440.0</ele><time>2026-03-28T14:58:26.328Z</time></trkpt><trkpt lat="42.8660677" lon="12.2636548"><ele>441.0</ele><time>2026-03-28T14:58:27.327Z</time></trkpt><trkpt lat="42.8659669" lon="12.2635101"><ele>442.0</ele><time>2026-03-28T14:58:28.327Z</time></trkpt><trkpt lat="42.8658604" lon="12.2633649"><ele>443.0</ele><time>2026-03-28T14:58:29.328Z</time></trkpt><trkpt lat="42.865749" lon="12.2632051"><ele>439.66666666666663</ele><time>2026-03-28T14:58:30.328Z</time></trkpt><trkpt lat="42.8656385" lon="12.2630464"><ele>436.33333333333337</ele><time>2026-03-28T14:58:31.328Z</time></trkpt><trkpt lat="42.8655359" lon="12.2628847"><ele>433.0</ele><time>2026-03-28T14:58:32.328Z</time></trkpt><trkpt lat="42.865447" lon="12.2627106"><ele>433.0</ele><time>2026-03-28T14:58:33.328Z</time></trkpt><trkpt lat="42.8653601" lon="12.2625369"><ele>433.0</ele><time>2026-03-28T14:58:34.328Z</time></trkpt><trkpt lat="42.865278" lon="12.2623536"><ele>433.0</ele><time>2026-03-28T14:58:35.328Z</time></trkpt><trkpt lat="42.8652017" lon="12.2621668"><ele>431.5</ele><time>2026-03-28T14:58:36.328Z</time></trkpt><trkpt lat="42.8651353" lon="12.2619798"><ele>430.0</ele><time>2026-03-28T14:58:37.327Z</time></trkpt><trkpt lat="42.8650744" lon="12.261806"><ele>428.5</ele><time>2026-03-28T14:58:38.328Z</time></trkpt><trkpt lat="42.8650064" lon="12.2616482"><ele>427.0</ele><time>2026-03-28T14:58:39.328Z</time></trkpt><trkpt lat="42.8649264" lon="12.2615143"><ele>427.75</ele><time>2026-03-28T14:58:40.328Z</time></trkpt><trkpt lat="42.8648324" lon="12.2613986"><ele>428.5</ele><time>2026-03-28T14:58:41.328Z</time></trkpt><trkpt lat="42.864719" lon="12.2612932"><ele>429.25</ele><time>2026-03-28T14:58:42.328Z</time></trkpt><trkpt lat="42.8645782" lon="12.2612066"><ele>430.0</ele><time>2026-03-28T14:58:43.328Z</time></trkpt><trkpt lat="42.8644276" lon="12.2611318"><ele>433.0</ele><time>2026-03-28T14:58:44.328Z</time></trkpt><trkpt lat="42.8642752" lon="12.2610565"><ele>436.0</ele><time>2026-03-28T14:58:45.328Z</time></trkpt><trkpt lat="42.8641076" lon="12.2609815"><ele>439.0</ele><time>2026-03-28T14:58:46.328Z</time></trkpt><trkpt lat="42.8639393" lon="12.2608981"><ele>439.0</ele><time>2026-03-28T14:58:47.328Z</time></trkpt><trkpt lat="42.8637622" lon="12.2608219"><ele>439.0</ele><time>2026-03-28T14:58:48.328Z</time></trkpt><trkpt lat="42.8635686" lon="12.260745"><ele>439.0</ele><time>2026-03-28T14:58:49.328Z</time></trkpt><trkpt lat="42.8633746" lon="12.2606634"><ele>436.6666666666667</ele><time>2026-03-28T14:58:50.327Z</time></trkpt><trkpt lat="42.8631767" lon="12.260588"><ele>434.33333333333337</ele><time>2026-03-28T14:58:51.327Z</time></trkpt><trkpt lat="42.8629827" lon="12.2605141"><ele>432.0</ele><time>2026-03-28T14:58:52.327Z</time></trkpt><trkpt lat="42.8628022" lon="12.2604422"><ele>432.0</ele><time>2026-03-28T14:58:53.327Z</time></trkpt><trkpt lat="42.8626349" lon="12.2603782"><ele>432.0</ele><time>2026-03-28T14:58:54.328Z</time></trkpt><trkpt lat="42.8624827" lon="12.2603188"><ele>432.0</ele><time>2026-03-28T14:58:55.328Z</time></trkpt><trkpt lat="42.8623355" lon="12.2602829"><ele>434.25</ele><time>2026-03-28T14:58:56.328Z</time></trkpt><trkpt lat="42.8621985" lon="12.2602733"><ele>436.5</ele><time>2026-03-28T14:58:57.328Z</time></trkpt><trkpt lat="42.8620676" lon="12.2603038"><ele>438.75</ele><time>2026-03-28T14:58:58.328Z</time></trkpt><trkpt lat="42.8619554" lon="12.2603707"><ele>441.0</ele><time>2026-03-28T14:58:59.328Z</time></trkpt><trkpt lat="42.8618692" lon="12.2604697"><ele>441.0</ele><time>2026-03-28T14:59:00.328Z</time></trkpt><trkpt lat="42.8618147" lon="12.2605928"><ele>441.0</ele><time>2026-03-28T14:59:01.328Z</time></trkpt><trkpt lat="42.8617882" lon="12.2607371"><ele>441.0</ele><time>2026-03-28T14:59:02.328Z</time></trkpt><trkpt lat="42.8618101" lon="12.2608875"><ele>441.0</ele><time>2026-03-28T14:59:03.328Z</time></trkpt><trkpt lat="42.8618642" lon="12.2610279"><ele>441.0</ele><time>2026-03-28T14:59:04.328Z</time></trkpt><trkpt lat="42.8619325" lon="12.2611758"><ele>441.0</ele><time>2026-03-28T14:59:05.328Z</time></trkpt><trkpt lat="42.8620206" lon="12.2613189"><ele>441.0</ele><time>2026-03-28T14:59:06.328Z</time></trkpt><trkpt lat="42.862088" lon="12.2614944"><ele>441.0</ele><time>2026-03-28T14:59:07.328Z</time></trkpt><trkpt lat="42.8621408" lon="12.2616835"><ele>441.0</ele><time>2026-03-28T14:59:08.328Z</time></trkpt><trkpt lat="42.8621822" lon="12.261882"><ele>441.0</ele><time>2026-03-28T14:59:09.328Z</time></trkpt><trkpt lat="42.8621853" lon="12.2620663"><ele>441.0</ele><time>2026-03-28T14:59:10.328Z</time></trkpt><trkpt lat="42.862189" lon="12.2622533"><ele>441.0</ele><time>2026-03-28T14:59:11.327Z</time></trkpt><trkpt lat="42.8621259" lon="12.262424"><ele>441.0</ele><time>2026-03-28T14:59:12.327Z</time></trkpt><trkpt lat="42.8620703" lon="12.2625955"><ele>441.25</ele><time>2026-03-28T14:59:13.328Z</time></trkpt><trkpt lat="42.8619769" lon="12.2627162"><ele>441.5</ele><time>2026-03-28T14:59:14.328Z</time></trkpt><trkpt lat="42.8618825" lon="12.2628319"><ele>441.75</ele><time>2026-03-28T14:59:15.328Z</time></trkpt><trkpt lat="42.8617875" lon="12.2629079"><ele>442.0</ele><time>2026-03-28T14:59:16.328Z</time></trkpt><trkpt lat="42.8616998" lon="12.262926"><ele>445.0</ele><time>2026-03-28T14:59:17.327Z</time></trkpt><trkpt lat="42.8616155" lon="12.2629073"><ele>448.00000000000006</ele><time>2026-03-28T14:59:18.328Z</time></trkpt><trkpt lat="42.8615372" lon="12.262844"><ele>451.00000000000006</ele><time>2026-03-28T14:59:19.327Z</time></trkpt><trkpt lat="42.8614669" lon="12.2627466"><ele>454.0</ele><time>2026-03-28T14:59:20.328Z</time></trkpt><trkpt lat="42.86138" lon="12.2626249"><ele>457.0</ele><time>2026-03-28T14:59:21.328Z</time></trkpt><trkpt lat="42.8612952" lon="12.2624952"><ele>457.0</ele><time>2026-03-28T14:59:22.328Z</time></trkpt><trkpt lat="42.8612079" lon="12.262348"><ele>457.0</ele><time>2026-03-28T14:59:23.328Z</time></trkpt><trkpt lat="42.8611176" lon="12.2622021"><ele>457.0</ele><time>2026-03-28T14:59:24.328Z</time></trkpt><trkpt lat="42.8610308" lon="12.2620263"><ele>457.0</ele><time>2026-03-28T14:59:25.328Z</time></trkpt><trkpt lat="42.860939" lon="12.2618582"><ele>457.33333333333337</ele><time>2026-03-28T14:59:26.327Z</time></trkpt><trkpt lat="42.8608409" lon="12.2616877"><ele>457.66666666666663</ele><time>2026-03-28T14:59:27.327Z</time></trkpt><trkpt lat="42.8607415" lon="12.2615097"><ele>458.0</ele><time>2026-03-28T14:59:28.328Z</time></trkpt><trkpt lat="42.8606423" lon="12.2613385"><ele>458.3333333333333</ele><time>2026-03-28T14:59:29.327Z</time></trkpt><trkpt lat="42.8605413" lon="12.261171"><ele>458.66666666666663</ele><time>2026-03-28T14:59:30.328Z</time></trkpt><trkpt lat="42.8604323" lon="12.261008"><ele>459.0</ele><time>2026-03-28T14:59:31.327Z</time></trkpt><trkpt lat="42.86032" lon="12.2608442"><ele>459.0</ele><time>2026-03-28T14:59:32.328Z</time></trkpt><trkpt lat="42.8601873" lon="12.2607007"><ele>459.0</ele><time>2026-03-28T14:59:33.327Z</time></trkpt><trkpt lat="42.8600463" lon="12.2605743"><ele>459.0</ele><time>2026-03-28T14:59:34.328Z</time></trkpt><trkpt lat="42.8599005" lon="12.2604476"><ele>459.0</ele><time>2026-03-28T14:59:35.328Z</time></trkpt><trkpt lat="42.85976" lon="12.2603279"><ele>459.0</ele><time>2026-03-28T14:59:36.327Z</time></trkpt><trkpt lat="42.8596217" lon="12.2601979"><ele>459.0</ele><time>2026-03-28T14:59:37.328Z</time></trkpt><trkpt lat="42.8594923" lon="12.2600515"><ele>459.0</ele><time>2026-03-28T14:59:38.328Z</time></trkpt><trkpt lat="42.8593707" lon="12.2598848"><ele>459.0</ele><time>2026-03-28T14:59:39.328Z</time></trkpt><trkpt lat="42.8592626" lon="12.2597111"><ele>459.0</ele><time>2026-03-28T14:59:40.327Z</time></trkpt><trkpt lat="42.859156" lon="12.2595364"><ele>459.0</ele><time>2026-03-28T14:59:41.328Z</time></trkpt><trkpt lat="42.8590576" lon="12.2593664"><ele>459.0</ele><time>2026-03-28T14:59:42.328Z</time></trkpt><trkpt lat="42.8589649" lon="12.2592118"><ele>459.0</ele><time>2026-03-28T14:59:43.328Z</time></trkpt><trkpt lat="42.858885" lon="12.259059"><ele>459.0</ele><time>2026-03-28T14:59:44.327Z</time></trkpt><trkpt lat="42.8588341" lon="12.2588966"><ele>459.75</ele><time>2026-03-28T14:59:45.328Z</time></trkpt><trkpt lat="42.8588046" lon="12.258725"><ele>460.5</ele><time>2026-03-28T14:59:46.328Z</time></trkpt><trkpt lat="42.8587905" lon="12.2585449"><ele>461.25</ele><time>2026-03-28T14:59:47.327Z</time></trkpt><trkpt lat="42.8587898" lon="12.2583535"><ele>462.0</ele><time>2026-03-28T14:59:48.328Z</time></trkpt><trkpt lat="42.8588078" lon="12.2581469"><ele>464.0</ele><time>2026-03-28T14:59:49.328Z</time></trkpt><trkpt lat="42.8588162" lon="12.2579361"><ele>466.0</ele><time>2026-03-28T14:59:50.327Z</time></trkpt><trkpt lat="42.8588289" lon="12.2577166"><ele>468.0</ele><time>2026-03-28T14:59:51.328Z</time></trkpt><trkpt lat="42.8588445" lon="12.257484"><ele>469.0</ele><time>2026-03-28T14:59:52.328Z</time></trkpt><trkpt lat="42.8588695" lon="12.2572587"><ele>470.0</ele><time>2026-03-28T14:59:53.328Z</time></trkpt><trkpt lat="42.8589063" lon="12.2570416"><ele>471.0</ele><time>2026-03-28T14:59:54.328Z</time></trkpt><trkpt lat="42.8589454" lon="12.2568313"><ele>471.0</ele><time>2026-03-28T14:59:55.327Z</time></trkpt><trkpt lat="42.8589979" lon="12.2566147"><ele>471.0</ele><time>2026-03-28T14:59:56.327Z</time></trkpt><trkpt lat="42.8590496" lon="12.2563914"><ele>471.0</ele><time>2026-03-28T14:59:57.328Z</time></trkpt><trkpt lat="42.8591069" lon="12.2561724"><ele>471.66666666666663</ele><time>2026-03-28T14:59:58.328Z</time></trkpt><trkpt lat="42.8591626" lon="12.2559458"><ele>472.3333333333333</ele><time>2026-03-28T14:59:59.328Z</time></trkpt><trkpt lat="42.8592114" lon="12.255718"><ele>473.0</ele><time>2026-03-28T15:00:00.328Z</time></trkpt><trkpt lat="42.8592433" lon="12.2554809"><ele>473.0</ele><time>2026-03-28T15:00:01.327Z</time></trkpt><trkpt lat="42.8592665" lon="12.2552514"><ele>473.0</ele><time>2026-03-28T15:00:02.328Z</time></trkpt><trkpt lat="42.85929" lon="12.2550133"><ele>473.0</ele><time>2026-03-28T15:00:03.328Z</time></trkpt><trkpt lat="42.8593255" lon="12.2547807"><ele>471.66666666666663</ele><time>2026-03-28T15:00:04.327Z</time></trkpt><trkpt lat="42.8593508" lon="12.2545523"><ele>470.33333333333337</ele><time>2026-03-28T15:00:05.327Z</time></trkpt><trkpt lat="42.8593767" lon="12.254328"><ele>469.0</ele><time>2026-03-28T15:00:06.328Z</time></trkpt><trkpt lat="42.8593901" lon="12.2541074"><ele>470.6666666666667</ele><time>2026-03-28T15:00:07.328Z</time></trkpt><trkpt lat="42.8593811" lon="12.253881"><ele>472.33333333333337</ele><time>2026-03-28T15:00:08.328Z</time></trkpt><trkpt lat="42.8593541" lon="12.2536502"><ele>474.0</ele><time>2026-03-28T15:00:09.327Z</time></trkpt><trkpt lat="42.8593155" lon="12.2534117"><ele>473.33333333333337</ele><time>2026-03-28T15:00:10.328Z</time></trkpt><trkpt lat="42.8592715" lon="12.2531682"><ele>472.6666666666667</ele><time>2026-03-28T15:00:11.327Z</time></trkpt><trkpt lat="42.8592299" lon="12.252924"><ele>472.0</ele><time>2026-03-28T15:00:12.328Z</time></trkpt><trkpt lat="42.8591879" lon="12.2526791"><ele>473.6666666666667</ele><time>2026-03-28T15:00:13.328Z</time></trkpt><trkpt lat="42.8591481" lon="12.2524419"><ele>475.33333333333337</ele><time>2026-03-28T15:00:14.328Z</time></trkpt><trkpt lat="42.8591094" lon="12.2522154"><ele>477.0</ele><time>2026-03-28T15:00:15.328Z</time></trkpt><trkpt lat="42.8590691" lon="12.2520006"><ele>477.0</ele><time>2026-03-28T15:00:16.328Z</time></trkpt><trkpt lat="42.8590245" lon="12.2517885"><ele>477.0</ele><time>2026-03-28T15:00:17.328Z</time></trkpt><trkpt lat="42.8589719" lon="12.2515933"><ele>477.0</ele><time>2026-03-28T15:00:18.328Z</time></trkpt><trkpt lat="42.8589207" lon="12.2514066"><ele>477.25</ele><time>2026-03-28T15:00:19.328Z</time></trkpt><trkpt lat="42.8588705" lon="12.2512338"><ele>477.5</ele><time>2026-03-28T15:00:20.327Z</time></trkpt><trkpt lat="42.8588533" lon="12.2510683"><ele>477.75</ele><time>2026-03-28T15:00:21.328Z</time></trkpt><trkpt lat="42.858872" lon="12.2509158"><ele>478.0</ele><time>2026-03-28T15:00:22.328Z</time></trkpt><trkpt lat="42.8589058" lon="12.2507849"><ele>478.0</ele><time>2026-03-28T15:00:23.328Z</time></trkpt><trkpt lat="42.8589847" lon="12.2506744"><ele>478.0</ele><time>2026-03-28T15:00:24.328Z</time></trkpt><trkpt lat="42.8590862" lon="12.2505668"><ele>478.0</ele><time>2026-03-28T15:00:25.328Z</time></trkpt><trkpt lat="42.8591954" lon="12.2504728"><ele>478.0</ele><time>2026-03-28T15:00:26.327Z</time></trkpt><trkpt lat="42.8593105" lon="12.2503559"><ele>480.33333333333337</ele><time>2026-03-28T15:00:27.327Z</time></trkpt><trkpt lat="42.8594296" lon="12.250222"><ele>482.66666666666663</ele><time>2026-03-28T15:00:28.327Z</time></trkpt><trkpt lat="42.8595365" lon="12.2500656"><ele>485.0</ele><time>2026-03-28T15:00:29.328Z</time></trkpt><trkpt lat="42.8596174" lon="12.2498936"><ele>487.0</ele><time>2026-03-28T15:00:30.328Z</time></trkpt><trkpt lat="42.8596847" lon="12.2497304"><ele>489.0</ele><time>2026-03-28T15:00:31.328Z</time></trkpt><trkpt lat="42.8597362" lon="12.2495712"><ele>491.0</ele><time>2026-03-28T15:00:32.328Z</time></trkpt><trkpt lat="42.8597647" lon="12.2494112"><ele>493.0</ele><time>2026-03-28T15:00:33.328Z</time></trkpt><trkpt lat="42.8597568" lon="12.2492565"><ele>493.0</ele><time>2026-03-28T15:00:34.328Z</time></trkpt><trkpt lat="42.8597047" lon="12.2491088"><ele>493.0</ele><time>2026-03-28T15:00:35.327Z</time></trkpt><trkpt lat="42.8596219" lon="12.2489689"><ele>493.0</ele><time>2026-03-28T15:00:36.328Z</time></trkpt><trkpt lat="42.8595227" lon="12.2488328"><ele>493.0</ele><time>2026-03-28T15:00:37.328Z</time></trkpt><trkpt lat="42.8594079" lon="12.2486887"><ele>494.6666666666667</ele><time>2026-03-28T15:00:38.327Z</time></trkpt><trkpt lat="42.8593019" lon="12.2485402"><ele>496.33333333333337</ele><time>2026-03-28T15:00:39.327Z</time></trkpt><trkpt lat="42.859186" lon="12.248405"><ele>498.0</ele><time>2026-03-28T15:00:40.328Z</time></trkpt><trkpt lat="42.8590771" lon="12.2482607"><ele>497.33333333333337</ele><time>2026-03-28T15:00:41.328Z</time></trkpt><trkpt lat="42.8589715" lon="12.2481063"><ele>496.6666666666667</ele><time>2026-03-28T15:00:42.328Z</time></trkpt><trkpt lat="42.858874" lon="12.2479392"><ele>496.0</ele><time>2026-03-28T15:00:43.328Z</time></trkpt><trkpt lat="42.8587842" lon="12.2477611"><ele>496.0</ele><time>2026-03-28T15:00:44.328Z</time></trkpt><trkpt lat="42.858704" lon="12.2475772"><ele>496.0</ele><time>2026-03-28T15:00:45.328Z</time></trkpt><trkpt lat="42.8586411" lon="12.2474035"><ele>496.0</ele><time>2026-03-28T15:00:46.328Z</time></trkpt><trkpt lat="42.8586152" lon="12.2472328"><ele>496.0</ele><time>2026-03-28T15:00:47.327Z</time></trkpt><trkpt lat="42.8586109" lon="12.2470661"><ele>495.5</ele><time>2026-03-28T15:00:48.328Z</time></trkpt><trkpt lat="42.858637" lon="12.246893"><ele>495.0</ele><time>2026-03-28T15:00:49.328Z</time></trkpt><trkpt lat="42.8586884" lon="12.2467134"><ele>494.5</ele><time>2026-03-28T15:00:50.327Z</time></trkpt><trkpt lat="42.8587646" lon="12.2465325"><ele>494.0</ele><time>2026-03-28T15:00:51.328Z</time></trkpt><trkpt lat="42.8588437" lon="12.2463482"><ele>494.0</ele><time>2026-03-28T15:00:52.328Z</time></trkpt><trkpt lat="42.8589281" lon="12.2461722"><ele>494.0</ele><time>2026-03-28T15:00:53.328Z</time></trkpt><trkpt lat="42.8590289" lon="12.2460191"><ele>494.0</ele><time>2026-03-28T15:00:54.328Z</time></trkpt><trkpt lat="42.8591498" lon="12.2458963"><ele>494.0</ele><time>2026-03-28T15:00:55.328Z</time></trkpt><trkpt lat="42.8592759" lon="12.2457947"><ele>494.0</ele><time>2026-03-28T15:00:56.327Z</time></trkpt><trkpt lat="42.859418" lon="12.2457078"><ele>494.0</ele><time>2026-03-28T15:00:57.328Z</time></trkpt><trkpt lat="42.8595637" lon="12.2456285"><ele>494.25</ele><time>2026-03-28T15:00:58.328Z</time></trkpt><trkpt lat="42.8597155" lon="12.2455628"><ele>494.5</ele><time>2026-03-28T15:00:59.328Z</time></trkpt><trkpt lat="42.8598564" lon="12.2455067"><ele>494.75</ele><time>2026-03-28T15:01:00.328Z</time></trkpt><trkpt lat="42.8599684" lon="12.2454155"><ele>495.0</ele><time>2026-03-28T15:01:01.328Z</time></trkpt><trkpt lat="42.8600526" lon="12.2453191"><ele>495.0</ele><time>2026-03-28T15:01:02.327Z</time></trkpt><trkpt lat="42.8600975" lon="12.2451716"><ele>495.0</ele><time>2026-03-28T15:01:03.328Z</time></trkpt><trkpt lat="42.8601209" lon="12.2450148"><ele>495.0</ele><time>2026-03-28T15:01:04.328Z</time></trkpt><trkpt lat="42.860151" lon="12.2448465"><ele>495.0</ele><time>2026-03-28T15:01:05.328Z</time></trkpt><trkpt lat="42.8601446" lon="12.2446504"><ele>494.25</ele><time>2026-03-28T15:01:06.328Z</time></trkpt><trkpt lat="42.8601466" lon="12.2444674"><ele>493.5</ele><time>2026-03-28T15:01:07.328Z</time></trkpt><trkpt lat="42.8601506" lon="12.2442866"><ele>492.75</ele><time>2026-03-28T15:01:08.327Z</time></trkpt><trkpt lat="42.8601596" lon="12.2440996"><ele>492.0</ele><time>2026-03-28T15:01:09.328Z</time></trkpt><trkpt lat="42.8602037" lon="12.243935"><ele>494.0</ele><time>2026-03-28T15:01:10.328Z</time></trkpt><trkpt lat="42.8602573" lon="12.2437701"><ele>496.0</ele><time>2026-03-28T15:01:11.328Z</time></trkpt><trkpt lat="42.8603241" lon="12.2436163"><ele>498.0</ele><time>2026-03-28T15:01:12.328Z</time></trkpt><trkpt lat="42.8604428" lon="12.2435224"><ele>500.0</ele><time>2026-03-28T15:01:13.328Z</time></trkpt><trkpt lat="42.8605478" lon="12.2434308"><ele>500.0</ele><time>2026-03-28T15:01:14.327Z</time></trkpt><trkpt lat="42.8606738" lon="12.2433605"><ele>500.0</ele><time>2026-03-28T15:01:15.328Z</time></trkpt><trkpt lat="42.8607979" lon="12.2433086"><ele>500.0</ele><time>2026-03-28T15:01:16.328Z</time></trkpt><trkpt lat="42.8609064" lon="12.2432485"><ele>500.0</ele><time>2026-03-28T15:01:17.328Z</time></trkpt><trkpt lat="42.8610091" lon="12.2431802"><ele>503.8</ele><time>2026-03-28T15:01:18.328Z</time></trkpt><trkpt lat="42.861067" lon="12.2430486"><ele>507.6</ele><time>2026-03-28T15:01:19.328Z</time></trkpt><trkpt lat="42.8611053" lon="12.2429008"><ele>511.4</ele><time>2026-03-28T15:01:20.328Z</time></trkpt><trkpt lat="42.8611221" lon="12.2427553"><ele>515.2</ele><time>2026-03-28T15:01:21.327Z</time></trkpt><trkpt lat="42.8611274" lon="12.2426066"><ele>519.0</ele><time>2026-03-28T15:01:22.328Z</time></trkpt><trkpt lat="42.8611462" lon="12.2424726"><ele>519.0</ele><time>2026-03-28T15:01:23.327Z</time></trkpt><trkpt lat="42.8611922" lon="12.2423681"><ele>519.0</ele><time>2026-03-28T15:01:24.328Z</time></trkpt><trkpt lat="42.8612672" lon="12.2423198"><ele>519.0</ele><time>2026-03-28T15:01:25.327Z</time></trkpt><trkpt lat="42.861354" lon="12.2423123"><ele>519.0</ele><time>2026-03-28T15:01:26.328Z</time></trkpt><trkpt lat="42.8614595" lon="12.2423209"><ele>519.0</ele><time>2026-03-28T15:01:27.327Z</time></trkpt><trkpt lat="42.861571" lon="12.2423305"><ele>519.0</ele><time>2026-03-28T15:01:28.328Z</time></trkpt><trkpt lat="42.861683" lon="12.2423242"><ele>519.0</ele><time>2026-03-28T15:01:29.328Z</time></trkpt><trkpt lat="42.8617955" lon="12.2422877"><ele>519.0</ele><time>2026-03-28T15:01:30.327Z</time></trkpt><trkpt lat="42.8618967" lon="12.242199"><ele>519.0</ele><time>2026-03-28T15:01:31.328Z</time></trkpt><trkpt lat="42.8619875" lon="12.2420862"><ele>521.75</ele><time>2026-03-28T15:01:32.328Z</time></trkpt><trkpt lat="42.8620769" lon="12.2419493"><ele>524.5</ele><time>2026-03-28T15:01:33.328Z</time></trkpt><trkpt lat="42.8621665" lon="12.2418213"><ele>527.25</ele><time>2026-03-28T15:01:34.328Z</time></trkpt><trkpt lat="42.8622693" lon="12.2417102"><ele>530.0</ele><time>2026-03-28T15:01:35.327Z</time></trkpt><trkpt lat="42.8623768" lon="12.2416011"><ele>530.0</ele><time>2026-03-28T15:01:36.328Z</time></trkpt><trkpt lat="42.8624914" lon="12.2414855"><ele>530.0</ele><time>2026-03-28T15:01:37.327Z</time></trkpt><trkpt lat="42.8626203" lon="12.2413794"><ele>530.0</ele><time>2026-03-28T15:01:38.327Z</time></trkpt><trkpt lat="42.8627552" lon="12.2412715"><ele>530.0</ele><time>2026-03-28T15:01:39.327Z</time></trkpt><trkpt lat="42.8628958" lon="12.2411697"><ele>530.3333333333333</ele><time>2026-03-28T15:01:40.328Z</time></trkpt><trkpt lat="42.8630329" lon="12.2410683"><ele>530.6666666666666</ele><time>2026-03-28T15:01:41.327Z</time></trkpt><trkpt lat="42.8631727" lon="12.240962"><ele>531.0</ele><time>2026-03-28T15:01:42.328Z</time></trkpt><trkpt lat="42.8633121" lon="12.240864"><ele>533.0</ele><time>2026-03-28T15:01:43.327Z</time></trkpt><trkpt lat="42.8634525" lon="12.2407707"><ele>535.0</ele><time>2026-03-28T15:01:44.328Z</time></trkpt><trkpt lat="42.8635937" lon="12.240672"><ele>537.0</ele><time>2026-03-28T15:01:45.328Z</time></trkpt><trkpt lat="42.8637375" lon="12.2405686"><ele>537.0</ele><time>2026-03-28T15:01:46.327Z</time></trkpt><trkpt lat="42.8638881" lon="12.24047"><ele>537.0</ele><time>2026-03-28T15:01:47.328Z</time></trkpt><trkpt lat="42.8640322" lon="12.2403739"><ele>537.0</ele><time>2026-03-28T15:01:48.328Z</time></trkpt><trkpt lat="42.8641629" lon="12.2402673"><ele>538.0</ele><time>2026-03-28T15:01:49.328Z</time></trkpt><trkpt lat="42.8642927" lon="12.2401454"><ele>539.0</ele><time>2026-03-28T15:01:50.328Z</time></trkpt><trkpt lat="42.8644124" lon="12.2400172"><ele>540.0</ele><time>2026-03-28T15:01:51.328Z</time></trkpt><trkpt lat="42.8644857" lon="12.2398549"><ele>541.0</ele><time>2026-03-28T15:01:52.328Z</time></trkpt><trkpt lat="42.864539" lon="12.2396752"><ele>541.0</ele><time>2026-03-28T15:01:53.328Z</time></trkpt><trkpt lat="42.8645796" lon="12.2394955"><ele>541.0</ele><time>2026-03-28T15:01:54.327Z</time></trkpt><trkpt lat="42.864592" lon="12.2392854"><ele>541.0</ele><time>2026-03-28T15:01:55.327Z</time></trkpt><trkpt lat="42.8646029" lon="12.2390797"><ele>541.0</ele><time>2026-03-28T15:01:56.328Z</time></trkpt><trkpt lat="42.8646135" lon="12.2388785"><ele>540.25</ele><time>2026-03-28T15:01:57.328Z</time></trkpt><trkpt lat="42.8646304" lon="12.2386806"><ele>539.5</ele><time>2026-03-28T15:01:58.328Z</time></trkpt><trkpt lat="42.8646411" lon="12.2384762"><ele>538.75</ele><time>2026-03-28T15:01:59.328Z</time></trkpt><trkpt lat="42.8646638" lon="12.2382787"><ele>538.0</ele><time>2026-03-28T15:02:00.328Z</time></trkpt><trkpt lat="42.8646958" lon="12.2380804"><ele>541.0</ele><time>2026-03-28T15:02:01.328Z</time></trkpt><trkpt lat="42.8647514" lon="12.2378896"><ele>544.0</ele><time>2026-03-28T15:02:02.328Z</time></trkpt><trkpt lat="42.8648209" lon="12.2376845"><ele>547.0</ele><time>2026-03-28T15:02:03.328Z</time></trkpt><trkpt lat="42.8648888" lon="12.2374788"><ele>548.0</ele><time>2026-03-28T15:02:04.327Z</time></trkpt><trkpt lat="42.8649646" lon="12.237262"><ele>549.0</ele><time>2026-03-28T15:02:05.328Z</time></trkpt><trkpt lat="42.8650485" lon="12.2370483"><ele>550.0</ele><time>2026-03-28T15:02:06.328Z</time></trkpt><trkpt lat="42.8651326" lon="12.2368346"><ele>552.3333333333334</ele><time>2026-03-28T15:02:07.328Z</time></trkpt><trkpt lat="42.865212" lon="12.2366316"><ele>554.6666666666666</ele><time>2026-03-28T15:02:08.327Z</time></trkpt><trkpt lat="42.865294" lon="12.2364465"><ele>557.0</ele><time>2026-03-28T15:02:09.328Z</time></trkpt><trkpt lat="42.8653706" lon="12.236272"><ele>558.5</ele><time>2026-03-28T15:02:10.327Z</time></trkpt><trkpt lat="42.8654232" lon="12.2361105"><ele>560.0</ele><time>2026-03-28T15:02:11.327Z</time></trkpt><trkpt lat="42.8654542" lon="12.235963"><ele>561.5</ele><time>2026-03-28T15:02:12.328Z</time></trkpt><trkpt lat="42.8654591" lon="12.2358193"><ele>563.0</ele><time>2026-03-28T15:02:13.328Z</time></trkpt><trkpt lat="42.8654261" lon="12.235676"><ele>562.25</ele><time>2026-03-28T15:02:14.328Z</time></trkpt><trkpt lat="42.8653827" lon="12.2355566"><ele>561.5</ele><time>2026-03-28T15:02:15.327Z</time></trkpt><trkpt lat="42.8652848" lon="12.2354327"><ele>560.75</ele><time>2026-03-28T15:02:16.328Z</time></trkpt><trkpt lat="42.8651926" lon="12.2353074"><ele>560.0</ele><time>2026-03-28T15:02:17.328Z</time></trkpt><trkpt lat="42.8651113" lon="12.2351695"><ele>560.0</ele><time>2026-03-28T15:02:18.328Z</time></trkpt><trkpt lat="42.8650258" lon="12.2350303"><ele>560.0</ele><time>2026-03-28T15:02:19.328Z</time></trkpt><trkpt lat="42.8649796" lon="12.2348613"><ele>560.0</ele><time>2026-03-28T15:02:20.327Z</time></trkpt><trkpt lat="42.8649643" lon="12.2346639"><ele>560.0</ele><time>2026-03-28T15:02:21.328Z</time></trkpt><trkpt lat="42.8649328" lon="12.2344689"><ele>561.25</ele><time>2026-03-28T15:02:22.328Z</time></trkpt><trkpt lat="42.8649107" lon="12.2342826"><ele>562.5</ele><time>2026-03-28T15:02:23.328Z</time></trkpt><trkpt lat="42.8648984" lon="12.2341124"><ele>563.75</ele><time>2026-03-28T15:02:24.328Z</time></trkpt><trkpt lat="42.8649229" lon="12.2339593"><ele>565.0</ele><time>2026-03-28T15:02:25.328Z</time></trkpt><trkpt lat="42.8649674" lon="12.2338129"><ele>565.25</ele><time>2026-03-28T15:02:26.328Z</time></trkpt><trkpt lat="42.8650404" lon="12.2336872"><ele>565.5</ele><time>2026-03-28T15:02:27.327Z</time></trkpt><trkpt lat="42.8651221" lon="12.233549"><ele>565.75</ele><time>2026-03-28T15:02:28.328Z</time></trkpt><trkpt lat="42.8651882" lon="12.2333793"><ele>566.0</ele><time>2026-03-28T15:02:29.328Z</time></trkpt><trkpt lat="42.86524" lon="12.2332"><ele>568.25</ele><time>2026-03-28T15:02:30.328Z</time></trkpt><trkpt lat="42.865271" lon="12.2330209"><ele>570.5</ele><time>2026-03-28T15:02:31.328Z</time></trkpt><trkpt lat="42.865295" lon="12.2328587"><ele>572.75</ele><time>2026-03-28T15:02:32.328Z</time></trkpt><trkpt lat="42.8653189" lon="12.2327115"><ele>575.0</ele><time>2026-03-28T15:02:33.328Z</time></trkpt><trkpt lat="42.865368" lon="12.232603"><ele>575.0</ele><time>2026-03-28T15:02:34.328Z</time></trkpt><trkpt lat="42.8654409" lon="12.2325325"><ele>575.0</ele><time>2026-03-28T15:02:35.328Z</time></trkpt><trkpt lat="42.86553" lon="12.2325092"><ele>575.0</ele><time>2026-03-28T15:02:36.327Z</time></trkpt><trkpt lat="42.8656396" lon="12.2325002"><ele>575.0</ele><time>2026-03-28T15:02:37.328Z</time></trkpt><trkpt lat="42.8657603" lon="12.2325038"><ele>575.0</ele><time>2026-03-28T15:02:38.328Z</time></trkpt><trkpt lat="42.8658987" lon="12.2325166"><ele>575.0</ele><time>2026-03-28T15:02:39.328Z</time></trkpt><trkpt lat="42.8660369" lon="12.2325375"><ele>575.0</ele><time>2026-03-28T15:02:40.328Z</time></trkpt><trkpt lat="42.866178" lon="12.232564"><ele>575.0</ele><time>2026-03-28T15:02:41.328Z</time></trkpt><trkpt lat="42.8663201" lon="12.2325943"><ele>575.0</ele><time>2026-03-28T15:02:42.327Z</time></trkpt><trkpt lat="42.8664503" lon="12.2326016"><ele>575.0</ele><time>2026-03-28T15:02:43.327Z</time></trkpt><trkpt lat="42.8665834" lon="12.2326023"><ele>575.0</ele><time>2026-03-28T15:02:44.328Z</time></trkpt><trkpt lat="42.866693" lon="12.2325362"><ele>575.0</ele><time>2026-03-28T15:02:45.328Z</time></trkpt><trkpt lat="42.8667751" lon="12.2324257"><ele>575.0</ele><time>2026-03-28T15:02:46.328Z</time></trkpt><trkpt lat="42.8668439" lon="12.2323024"><ele>574.2</ele><time>2026-03-28T15:02:47.328Z</time></trkpt><trkpt lat="42.8669089" lon="12.2321639"><ele>573.4</ele><time>2026-03-28T15:02:48.328Z</time></trkpt><trkpt lat="42.8669507" lon="12.232019"><ele>572.6</ele><time>2026-03-28T15:02:49.327Z</time></trkpt><trkpt lat="42.8669676" lon="12.2318764"><ele>571.8</ele><time>2026-03-28T15:02:50.328Z</time></trkpt><trkpt lat="42.8669613" lon="12.2317492"><ele>571.0</ele><time>2026-03-28T15:02:51.328Z</time></trkpt><trkpt lat="42.8669132" lon="12.2316248"><ele>571.0</ele><time>2026-03-28T15:02:52.328Z</time></trkpt><trkpt lat="42.8668529" lon="12.2315123"><ele>571.0</ele><time>2026-03-28T15:02:53.328Z</time></trkpt><trkpt lat="42.8667679" lon="12.2313945"><ele>571.0</ele><time>2026-03-28T15:02:54.328Z</time></trkpt><trkpt lat="42.8666714" lon="12.2312715"><ele>571.0</ele><time>2026-03-28T15:02:55.327Z</time></trkpt><trkpt lat="42.8665819" lon="12.231141"><ele>575.75</ele><time>2026-03-28T15:02:56.327Z</time></trkpt><trkpt lat="42.8664829" lon="12.2310013"><ele>580.5</ele><time>2026-03-28T15:02:57.328Z</time></trkpt><trkpt lat="42.8663829" lon="12.23086"><ele>585.25</ele><time>2026-03-28T15:02:58.327Z</time></trkpt><trkpt lat="42.8662807" lon="12.2307237"><ele>590.0</ele><time>2026-03-28T15:02:59.328Z</time></trkpt><trkpt lat="42.8661957" lon="12.2305895"><ele>591.0</ele><time>2026-03-28T15:03:00.328Z</time></trkpt><trkpt lat="42.8661173" lon="12.2304735"><ele>592.0</ele><time>2026-03-28T15:03:01.328Z</time></trkpt><trkpt lat="42.8660603" lon="12.2303371"><ele>593.0</ele><time>2026-03-28T15:03:02.328Z</time></trkpt><trkpt lat="42.8660393" lon="12.2301929"><ele>594.0</ele><time>2026-03-28T15:03:03.328Z</time></trkpt><trkpt lat="42.8660465" lon="12.2300457"><ele>595.0</ele><time>2026-03-28T15:03:04.328Z</time></trkpt><trkpt lat="42.8660757" lon="12.2299154"><ele>595.0</ele><time>2026-03-28T15:03:05.327Z</time></trkpt><trkpt lat="42.8661662" lon="12.2298375"><ele>595.0</ele><time>2026-03-28T15:03:06.328Z</time></trkpt><trkpt lat="42.866274" lon="12.2297883"><ele>595.0</ele><time>2026-03-28T15:03:07.328Z</time></trkpt><trkpt lat="42.866396" lon="12.2297529"><ele>595.0</ele><time>2026-03-28T15:03:08.328Z</time></trkpt><trkpt lat="42.8665269" lon="12.2297183"><ele>595.0</ele><time>2026-03-28T15:03:09.327Z</time></trkpt><trkpt lat="42.8666595" lon="12.229692"><ele>595.0</ele><time>2026-03-28T15:03:10.328Z</time></trkpt><trkpt lat="42.8667947" lon="12.2296705"><ele>595.0</ele><time>2026-03-28T15:03:11.328Z</time></trkpt><trkpt lat="42.8669292" lon="12.2296453"><ele>595.0</ele><time>2026-03-28T15:03:12.328Z</time></trkpt><trkpt lat="42.8670389" lon="12.2296119"><ele>594.8</ele><time>2026-03-28T15:03:13.328Z</time></trkpt><trkpt lat="42.867128" lon="12.229569"><ele>594.6</ele><time>2026-03-28T15:03:14.327Z</time></trkpt><trkpt lat="42.8671936" lon="12.229487"><ele>594.4</ele><time>2026-03-28T15:03:15.328Z</time></trkpt><trkpt lat="42.8672602" lon="12.2294045"><ele>594.2</ele><time>2026-03-28T15:03:16.327Z</time></trkpt><trkpt lat="42.8672615" lon="12.2292753"><ele>594.0</ele><time>2026-03-28T15:03:17.327Z</time></trkpt><trkpt lat="42.8672445" lon="12.2291506"><ele>594.0</ele><time>2026-03-28T15:03:18.327Z</time></trkpt><trkpt lat="42.867226" lon="12.2290191"><ele>594.0</ele><time>2026-03-28T15:03:19.328Z</time></trkpt><trkpt lat="42.8671705" lon="12.2288898"><ele>594.0</ele><time>2026-03-28T15:03:20.328Z</time></trkpt><trkpt lat="42.8671046" lon="12.2287592"><ele>594.0</ele><time>2026-03-28T15:03:21.327Z</time></trkpt><trkpt lat="42.8670258" lon="12.2286293"><ele>594.0</ele><time>2026-03-28T15:03:22.328Z</time></trkpt><trkpt lat="42.8669492" lon="12.228487"><ele>596.25</ele><time>2026-03-28T15:03:23.328Z</time></trkpt><trkpt lat="42.8668846" lon="12.2283492"><ele>598.5</ele><time>2026-03-28T15:03:24.328Z</time></trkpt><trkpt lat="42.8668614" lon="12.2281939"><ele>600.75</ele><time>2026-03-28T15:03:25.328Z</time></trkpt><trkpt lat="42.8668386" lon="12.2280285"><ele>603.0</ele><time>2026-03-28T15:03:26.327Z</time></trkpt><trkpt lat="42.8668302" lon="12.2278477"><ele>607.25</ele><time>2026-03-28T15:03:27.328Z</time></trkpt><trkpt lat="42.8668362" lon="12.2276725"><ele>611.5</ele><time>2026-03-28T15:03:28.327Z</time></trkpt><trkpt lat="42.866846" lon="12.2274879"><ele>615.75</ele><time>2026-03-28T15:03:29.327Z</time></trkpt><trkpt lat="42.8669025" lon="12.2273373"><ele>620.0</ele><time>2026-03-28T15:03:30.328Z</time></trkpt><trkpt lat="42.8669591" lon="12.227193"><ele>622.5</ele><time>2026-03-28T15:03:31.328Z</time></trkpt><trkpt lat="42.8669889" lon="12.2270475"><ele>625.0</ele><time>2026-03-28T15:03:32.328Z</time></trkpt><trkpt lat="42.8669998" lon="12.2268985"><ele>627.5</ele><time>2026-03-28T15:03:33.327Z</time></trkpt><trkpt lat="42.8669815" lon="12.2267363"><ele>630.0</ele><time>2026-03-28T15:03:34.327Z</time></trkpt><trkpt lat="42.8669579" lon="12.2265782"><ele>632.6</ele><time>2026-03-28T15:03:35.328Z</time></trkpt><trkpt lat="42.8669319" lon="12.2264239"><ele>635.2</ele><time>2026-03-28T15:03:36.327Z</time></trkpt><trkpt lat="42.8669076" lon="12.2262855"><ele>637.8</ele><time>2026-03-28T15:03:37.328Z</time></trkpt><trkpt lat="42.8668833" lon="12.2261738"><ele>640.4</ele><time>2026-03-28T15:03:38.328Z</time></trkpt><trkpt lat="42.8668501" lon="12.2260723"><ele>643.0</ele><time>2026-03-28T15:03:39.328Z</time></trkpt><trkpt lat="42.8667986" lon="12.2259945"><ele>639.1999999999999</ele><time>2026-03-28T15:03:40.327Z</time></trkpt><trkpt lat="42.8667266" lon="12.2259339"><ele>635.4</ele><time>2026-03-28T15:03:41.327Z</time></trkpt><trkpt lat="42.8666325" lon="12.2259148"><ele>631.5999999999999</ele><time>2026-03-28T15:03:42.327Z</time></trkpt><trkpt lat="42.866527" lon="12.2259281"><ele>627.8</ele><time>2026-03-28T15:03:43.328Z</time></trkpt><trkpt lat="42.8664048" lon="12.2259441"><ele>624.0</ele><time>2026-03-28T15:03:44.328Z</time></trkpt><trkpt lat="42.866286" lon="12.2259422"><ele>624.0</ele><time>2026-03-28T15:03:45.327Z</time></trkpt><trkpt lat="42.8661643" lon="12.2259465"><ele>624.0</ele><time>2026-03-28T15:03:46.328Z</time></trkpt><trkpt lat="42.866036" lon="12.225949"><ele>624.0</ele><time>2026-03-28T15:03:47.328Z</time></trkpt><trkpt lat="42.8659033" lon="12.2259597"><ele>624.0</ele><time>2026-03-28T15:03:48.328Z</time></trkpt><trkpt lat="42.8657678" lon="12.2259843"><ele>624.2</ele><time>2026-03-28T15:03:49.328Z</time></trkpt><trkpt lat="42.8656478" lon="12.2260204"><ele>624.4</ele><time>2026-03-28T15:03:50.328Z</time></trkpt><trkpt lat="42.8655442" lon="12.2260464"><ele>624.6</ele><time>2026-03-28T15:03:51.327Z</time></trkpt><trkpt lat="42.8654476" lon="12.2260369"><ele>624.8</ele><time>2026-03-28T15:03:52.328Z</time></trkpt><trkpt lat="42.8653598" lon="12.2259804"><ele>625.0</ele><time>2026-03-28T15:03:53.328Z</time></trkpt><trkpt lat="42.8652906" lon="12.225897"><ele>625.0</ele><time>2026-03-28T15:03:54.328Z</time></trkpt><trkpt lat="42.865244" lon="12.2257835"><ele>625.0</ele><time>2026-03-28T15:03:55.328Z</time></trkpt><trkpt lat="42.8652137" lon="12.2256444"><ele>625.0</ele><time>2026-03-28T15:03:56.328Z</time></trkpt><trkpt lat="42.8652005" lon="12.2254717"><ele>625.0</ele><time>2026-03-28T15:03:57.328Z</time></trkpt><trkpt lat="42.86519" lon="12.2252848"><ele>627.0</ele><time>2026-03-28T15:03:58.328Z</time></trkpt><trkpt lat="42.8651792" lon="12.2251015"><ele>629.0</ele><time>2026-03-28T15:03:59.328Z</time></trkpt><trkpt lat="42.8651599" lon="12.2249286"><ele>631.0</ele><time>2026-03-28T15:04:00.328Z</time></trkpt><trkpt lat="42.8651347" lon="12.2247575"><ele>633.0</ele><time>2026-03-28T15:04:01.328Z</time></trkpt><trkpt lat="42.8650977" lon="12.2245763"><ele>633.0</ele><time>2026-03-28T15:04:02.327Z</time></trkpt><trkpt lat="42.8650561" lon="12.2244015"><ele>633.0</ele><time>2026-03-28T15:04:03.327Z</time></trkpt><trkpt lat="42.8649962" lon="12.22424"><ele>633.0</ele><time>2026-03-28T15:04:04.327Z</time></trkpt><trkpt lat="42.8649205" lon="12.2241016"><ele>633.0</ele><time>2026-03-28T15:04:05.327Z</time></trkpt><trkpt lat="42.8648265" lon="12.2239859"><ele>635.75</ele><time>2026-03-28T15:04:06.328Z</time></trkpt><trkpt lat="42.8647114" lon="12.2238957"><ele>638.5</ele><time>2026-03-28T15:04:07.328Z</time></trkpt><trkpt lat="42.86458" lon="12.2238195"><ele>641.25</ele><time>2026-03-28T15:04:08.328Z</time></trkpt><trkpt lat="42.8644415" lon="12.2237571"><ele>644.0</ele><time>2026-03-28T15:04:09.327Z</time></trkpt><trkpt lat="42.8642998" lon="12.2237032"><ele>643.0</ele><time>2026-03-28T15:04:10.328Z</time></trkpt><trkpt lat="42.8641456" lon="12.2236666"><ele>642.0</ele><time>2026-03-28T15:04:11.328Z</time></trkpt><trkpt lat="42.863985" lon="12.2236375"><ele>641.0</ele><time>2026-03-28T15:04:12.327Z</time></trkpt><trkpt lat="42.8638258" lon="12.2236211"><ele>641.0</ele><time>2026-03-28T15:04:13.328Z</time></trkpt><trkpt lat="42.8636722" lon="12.2236164"><ele>641.0</ele><time>2026-03-28T15:04:14.328Z</time></trkpt><trkpt lat="42.8635337" lon="12.2236195"><ele>641.0</ele><time>2026-03-28T15:04:15.328Z</time></trkpt><trkpt lat="42.863394" lon="12.2236738"><ele>641.0</ele><time>2026-03-28T15:04:16.328Z</time></trkpt><trkpt lat="42.8632664" lon="12.2237703"><ele>641.75</ele><time>2026-03-28T15:04:17.328Z</time></trkpt><trkpt lat="42.8631565" lon="12.2238843"><ele>642.5</ele><time>2026-03-28T15:04:18.327Z</time></trkpt><trkpt lat="42.8630651" lon="12.2240034"><ele>643.25</ele><time>2026-03-28T15:04:19.327Z</time></trkpt><trkpt lat="42.8629901" lon="12.2241121"><ele>644.0</ele><time>2026-03-28T15:04:20.328Z</time></trkpt><trkpt lat="42.8629173" lon="12.2241959"><ele>645.8333333333333</ele><time>2026-03-28T15:04:21.327Z</time></trkpt><trkpt lat="42.8628419" lon="12.2242398"><ele>647.6666666666666</ele><time>2026-03-28T15:04:22.327Z</time></trkpt><trkpt lat="42.8627641" lon="12.2242358"><ele>649.5</ele><time>2026-03-28T15:04:23.328Z</time></trkpt><trkpt lat="42.8626972" lon="12.2241835"><ele>651.3333333333334</ele><time>2026-03-28T15:04:24.328Z</time></trkpt><trkpt lat="42.8626358" lon="12.2240869"><ele>653.1666666666667</ele><time>2026-03-28T15:04:25.328Z</time></trkpt><trkpt lat="42.8625783" lon="12.2239705"><ele>655.0</ele><time>2026-03-28T15:04:26.328Z</time></trkpt><trkpt lat="42.8625083" lon="12.2238501"><ele>655.0</ele><time>2026-03-28T15:04:27.328Z</time></trkpt><trkpt lat="42.8624201" lon="12.2237341"><ele>655.0</ele><time>2026-03-28T15:04:28.328Z</time></trkpt><trkpt lat="42.8623148" lon="12.2236385"><ele>655.0</ele><time>2026-03-28T15:04:29.327Z</time></trkpt><trkpt lat="42.8622108" lon="12.2235514"><ele>655.0</ele><time>2026-03-28T15:04:30.328Z</time></trkpt><trkpt lat="42.8621011" lon="12.2234744"><ele>655.0</ele><time>2026-03-28T15:04:31.328Z</time></trkpt><trkpt lat="42.8619816" lon="12.2234105"><ele>655.0</ele><time>2026-03-28T15:04:32.328Z</time></trkpt><trkpt lat="42.861854" lon="12.223399"><ele>655.0</ele><time>2026-03-28T15:04:33.328Z</time></trkpt><trkpt lat="42.8617224" lon="12.2234139"><ele>655.0</ele><time>2026-03-28T15:04:34.328Z</time></trkpt><trkpt lat="42.861597" lon="12.2234486"><ele>654.75</ele><time>2026-03-28T15:04:35.328Z</time></trkpt><trkpt lat="42.861484" lon="12.223461"><ele>654.5</ele><time>2026-03-28T15:04:36.328Z</time></trkpt><trkpt lat="42.8613717" lon="12.2234362"><ele>654.25</ele><time>2026-03-28T15:04:37.327Z</time></trkpt><trkpt lat="42.8612594" lon="12.2233621"><ele>654.0</ele><time>2026-03-28T15:04:38.327Z</time></trkpt><trkpt lat="42.8611576" lon="12.2232583"><ele>656.25</ele><time>2026-03-28T15:04:39.328Z</time></trkpt><trkpt lat="42.861061" lon="12.223129"><ele>658.5</ele><time>2026-03-28T15:04:40.328Z</time></trkpt><trkpt lat="42.8609733" lon="12.2229858"><ele>660.75</ele><time>2026-03-28T15:04:41.328Z</time></trkpt><trkpt lat="42.8608903" lon="12.2228452"><ele>663.0</ele><time>2026-03-28T15:04:42.328Z</time></trkpt><trkpt lat="42.8608207" lon="12.2227145"><ele>663.0</ele><time>2026-03-28T15:04:43.327Z</time></trkpt><trkpt lat="42.8607339" lon="12.2226262"><ele>663.0</ele><time>2026-03-28T15:04:44.328Z</time></trkpt><trkpt lat="42.8606328" lon="12.2225763"><ele>663.0</ele><time>2026-03-28T15:04:45.327Z</time></trkpt><trkpt lat="42.8605162" lon="12.22257"><ele>663.0</ele><time>2026-03-28T15:04:46.328Z</time></trkpt><trkpt lat="42.8603903" lon="12.2225729"><ele>663.0</ele><time>2026-03-28T15:04:47.328Z</time></trkpt><trkpt lat="42.8602563" lon="12.2225605"><ele>663.0</ele><time>2026-03-28T15:04:48.328Z</time></trkpt><trkpt lat="42.8601068" lon="12.2225387"><ele>663.0</ele><time>2026-03-28T15:04:49.328Z</time></trkpt><trkpt lat="42.8599659" lon="12.2225124"><ele>663.0</ele><time>2026-03-28T15:04:50.328Z</time></trkpt><trkpt lat="42.8598349" lon="12.2224697"><ele>662.75</ele><time>2026-03-28T15:04:51.327Z</time></trkpt><trkpt lat="42.8597288" lon="12.2224041"><ele>662.5</ele><time>2026-03-28T15:04:52.328Z</time></trkpt><trkpt lat="42.8596378" lon="12.2223084"><ele>662.25</ele><time>2026-03-28T15:04:53.328Z</time></trkpt><trkpt lat="42.8595704" lon="12.222181"><ele>662.0</ele><time>2026-03-28T15:04:54.328Z</time></trkpt><trkpt lat="42.8595171" lon="12.2220452"><ele>663.8</ele><time>2026-03-28T15:04:55.327Z</time></trkpt><trkpt lat="42.8594661" lon="12.221918"><ele>665.6</ele><time>2026-03-28T15:04:56.328Z</time></trkpt><trkpt lat="42.8594026" lon="12.2218048"><ele>667.4</ele><time>2026-03-28T15:04:57.328Z</time></trkpt><trkpt lat="42.8593182" lon="12.2217084"><ele>669.1999999999999</ele><time>2026-03-28T15:04:58.328Z</time></trkpt><trkpt lat="42.8592357" lon="12.221619"><ele>671.0</ele><time>2026-03-28T15:04:59.328Z</time></trkpt><trkpt lat="42.8591353" lon="12.2216981"><ele>671.0</ele><time>2026-03-28T15:05:00.327Z</time></trkpt><trkpt lat="42.8590661" lon="12.2217579"><ele>671.0</ele><time>2026-03-28T15:05:01.327Z</time></trkpt><trkpt lat="42.8589919" lon="12.2218425"><ele>671.0</ele><time>2026-03-28T15:05:02.327Z</time></trkpt><trkpt lat="42.8589127" lon="12.2218957"><ele>671.0</ele><time>2026-03-28T15:05:03.328Z</time></trkpt><trkpt lat="42.8588328" lon="12.2219025"><ele>671.0</ele><time>2026-03-28T15:05:04.327Z</time></trkpt><trkpt lat="42.858759" lon="12.221862"><ele>671.0</ele><time>2026-03-28T15:05:05.328Z</time></trkpt><trkpt lat="42.8586846" lon="12.221767"><ele>671.0</ele><time>2026-03-28T15:05:06.328Z</time></trkpt><trkpt lat="42.8586013" lon="12.221653"><ele>671.0</ele><time>2026-03-28T15:05:07.327Z</time></trkpt><trkpt lat="42.8585254" lon="12.2215229"><ele>671.0</ele><time>2026-03-28T15:05:08.327Z</time></trkpt><trkpt lat="42.858438" lon="12.2214035"><ele>671.0</ele><time>2026-03-28T15:05:09.328Z</time></trkpt><trkpt lat="42.8583434" lon="12.2212882"><ele>673.8</ele><time>2026-03-28T15:05:10.327Z</time></trkpt><trkpt lat="42.8582416" lon="12.2211852"><ele>676.5999999999999</ele><time>2026-03-28T15:05:11.327Z</time></trkpt><trkpt lat="42.8581448" lon="12.2211225"><ele>679.4</ele><time>2026-03-28T15:05:12.328Z</time></trkpt><trkpt lat="42.8580424" lon="12.221096"><ele>682.2</ele><time>2026-03-28T15:05:13.328Z</time></trkpt><trkpt lat="42.8579558" lon="12.2211532"><ele>685.0</ele><time>2026-03-28T15:05:14.328Z</time></trkpt><trkpt lat="42.857874" lon="12.221261"><ele>685.0</ele><time>2026-03-28T15:05:15.328Z</time></trkpt><trkpt lat="42.8577943" lon="12.2213803"><ele>685.0</ele><time>2026-03-28T15:05:16.328Z</time></trkpt><trkpt lat="42.8577248" lon="12.2215129"><ele>685.0</ele><time>2026-03-28T15:05:17.327Z</time></trkpt><trkpt lat="42.8576755" lon="12.2216594"><ele>685.0</ele><time>2026-03-28T15:05:18.328Z</time></trkpt><trkpt lat="42.8576276" lon="12.2218212"><ele>684.2</ele><time>2026-03-28T15:05:19.328Z</time></trkpt><trkpt lat="42.8576002" lon="12.2219823"><ele>683.4</ele><time>2026-03-28T15:05:20.328Z</time></trkpt><trkpt lat="42.8575756" lon="12.2221076"><ele>682.5999999999999</ele><time>2026-03-28T15:05:21.328Z</time></trkpt><trkpt lat="42.8575611" lon="12.2222446"><ele>681.8</ele><time>2026-03-28T15:05:22.328Z</time></trkpt><trkpt lat="42.8575319" lon="12.222344"><ele>681.0</ele><time>2026-03-28T15:05:23.327Z</time></trkpt><trkpt lat="42.8574464" lon="12.2224171"><ele>681.0</ele><time>2026-03-28T15:05:25.328Z</time></trkpt><trkpt lat="42.8573758" lon="12.2223154"><ele>681.0</ele><time>2026-03-28T15:05:27.327Z</time></trkpt><trkpt lat="42.8573736" lon="12.2222101"><ele>681.0</ele><time>2026-03-28T15:05:28.328Z</time></trkpt><trkpt lat="42.8573874" lon="12.2220866"><ele>681.0</ele><time>2026-03-28T15:05:29.327Z</time></trkpt><trkpt lat="42.8574132" lon="12.2219614"><ele>681.0</ele><time>2026-03-28T15:05:30.327Z</time></trkpt><trkpt lat="42.8574343" lon="12.2218261"><ele>681.0</ele><time>2026-03-28T15:05:31.328Z</time></trkpt><trkpt lat="42.8574664" lon="12.2216704"><ele>681.0</ele><time>2026-03-28T15:05:32.328Z</time></trkpt><trkpt lat="42.8574973" lon="12.2214974"><ele>681.0</ele><time>2026-03-28T15:05:33.327Z</time></trkpt><trkpt lat="42.8575273" lon="12.2213164"><ele>681.0</ele><time>2026-03-28T15:05:34.328Z</time></trkpt><trkpt lat="42.8575562" lon="12.2211401"><ele>682.5</ele><time>2026-03-28T15:05:35.328Z</time></trkpt><trkpt lat="42.8575824" lon="12.2209633"><ele>684.0</ele><time>2026-03-28T15:05:36.328Z</time></trkpt><trkpt lat="42.8576114" lon="12.2207952"><ele>685.5</ele><time>2026-03-28T15:05:37.328Z</time></trkpt><trkpt lat="42.8576426" lon="12.2206281"><ele>687.0</ele><time>2026-03-28T15:05:38.328Z</time></trkpt><trkpt lat="42.8576621" lon="12.220469"><ele>687.0</ele><time>2026-03-28T15:05:39.328Z</time></trkpt><trkpt lat="42.857685" lon="12.2203297"><ele>687.0</ele><time>2026-03-28T15:05:40.328Z</time></trkpt><trkpt lat="42.8576759" lon="12.2202025"><ele>687.0</ele><time>2026-03-28T15:05:41.328Z</time></trkpt><trkpt lat="42.8576412" lon="12.2200833"><ele>687.0</ele><time>2026-03-28T15:05:42.328Z</time></trkpt><trkpt lat="42.8575804" lon="12.2199816"><ele>687.0</ele><time>2026-03-28T15:05:43.327Z</time></trkpt><trkpt lat="42.8574825" lon="12.2199198"><ele>687.25</ele><time>2026-03-28T15:05:44.328Z</time></trkpt><trkpt lat="42.8573782" lon="12.2199006"><ele>687.5</ele><time>2026-03-28T15:05:45.327Z</time></trkpt><trkpt lat="42.8572715" lon="12.2199309"><ele>687.75</ele><time>2026-03-28T15:05:46.328Z</time></trkpt><trkpt lat="42.8571641" lon="12.2200049"><ele>688.0</ele><time>2026-03-28T15:05:47.328Z</time></trkpt><trkpt lat="42.8570738" lon="12.2201162"><ele>688.0</ele><time>2026-03-28T15:05:48.328Z</time></trkpt><trkpt lat="42.8570009" lon="12.2202585"><ele>688.0</ele><time>2026-03-28T15:05:49.327Z</time></trkpt><trkpt lat="42.8569387" lon="12.2204149"><ele>688.0</ele><time>2026-03-28T15:05:50.328Z</time></trkpt><trkpt lat="42.8568767" lon="12.2205603"><ele>688.0</ele><time>2026-03-28T15:05:51.328Z</time></trkpt><trkpt lat="42.8568063" lon="12.2206804"><ele>687.8333333333334</ele><time>2026-03-28T15:05:52.328Z</time></trkpt><trkpt lat="42.8567198" lon="12.2207321"><ele>687.6666666666667</ele><time>2026-03-28T15:05:53.328Z</time></trkpt><trkpt lat="42.856633" lon="12.2207455"><ele>687.5</ele><time>2026-03-28T15:05:54.328Z</time></trkpt><trkpt lat="42.856555" lon="12.2207217"><ele>687.3333333333334</ele><time>2026-03-28T15:05:55.327Z</time></trkpt><trkpt lat="42.856487" lon="12.2206604"><ele>687.1666666666666</ele><time>2026-03-28T15:05:56.327Z</time></trkpt><trkpt lat="42.8564368" lon="12.2205596"><ele>687.0</ele><time>2026-03-28T15:05:57.328Z</time></trkpt><trkpt lat="42.856385" lon="12.2204382"><ele>687.0</ele><time>2026-03-28T15:05:58.328Z</time></trkpt><trkpt lat="42.8563511" lon="12.2202947"><ele>687.0</ele><time>2026-03-28T15:05:59.328Z</time></trkpt><trkpt lat="42.8563213" lon="12.2201429"><ele>687.0</ele><time>2026-03-28T15:06:00.328Z</time></trkpt><trkpt lat="42.8562852" lon="12.2200009"><ele>687.0</ele><time>2026-03-28T15:06:01.328Z</time></trkpt><trkpt lat="42.8562389" lon="12.2198689"><ele>687.0</ele><time>2026-03-28T15:06:02.328Z</time></trkpt><trkpt lat="42.8561835" lon="12.2197466"><ele>687.0</ele><time>2026-03-28T15:06:03.328Z</time></trkpt><trkpt lat="42.8560966" lon="12.2196628"><ele>687.0</ele><time>2026-03-28T15:06:04.328Z</time></trkpt><trkpt lat="42.8559917" lon="12.2196104"><ele>687.0</ele><time>2026-03-28T15:06:05.328Z</time></trkpt><trkpt lat="42.8558663" lon="12.2195832"><ele>687.0</ele><time>2026-03-28T15:06:06.327Z</time></trkpt><trkpt lat="42.8557435" lon="12.2195634"><ele>687.0</ele><time>2026-03-28T15:06:07.328Z</time></trkpt><trkpt lat="42.8556195" lon="12.2195454"><ele>687.0</ele><time>2026-03-28T15:06:08.328Z</time></trkpt><trkpt lat="42.8555032" lon="12.2195345"><ele>687.0</ele><time>2026-03-28T15:06:09.328Z</time></trkpt><trkpt lat="42.8553804" lon="12.2195412"><ele>687.0</ele><time>2026-03-28T15:06:10.328Z</time></trkpt><trkpt lat="42.8552607" lon="12.2195743"><ele>687.0</ele><time>2026-03-28T15:06:11.327Z</time></trkpt><trkpt lat="42.8551458" lon="12.2196367"><ele>687.0</ele><time>2026-03-28T15:06:12.328Z</time></trkpt><trkpt lat="42.85503" lon="12.2197283"><ele>687.0</ele><time>2026-03-28T15:06:13.328Z</time></trkpt><trkpt lat="42.8549225" lon="12.2198461"><ele>687.0</ele><time>2026-03-28T15:06:14.328Z</time></trkpt><trkpt lat="42.8548309" lon="12.2199634"><ele>691.25</ele><time>2026-03-28T15:06:15.328Z</time></trkpt><trkpt lat="42.854741" lon="12.2200562"><ele>695.5</ele><time>2026-03-28T15:06:16.327Z</time></trkpt><trkpt lat="42.8546437" lon="12.2201181"><ele>699.75</ele><time>2026-03-28T15:06:17.328Z</time></trkpt><trkpt lat="42.8545335" lon="12.2201393"><ele>704.0</ele><time>2026-03-28T15:06:18.327Z</time></trkpt><trkpt lat="42.8544146" lon="12.2201225"><ele>704.0</ele><time>2026-03-28T15:06:19.328Z</time></trkpt><trkpt lat="42.854307" lon="12.2200754"><ele>704.0</ele><time>2026-03-28T15:06:20.327Z</time></trkpt><trkpt lat="42.8542082" lon="12.2199755"><ele>704.0</ele><time>2026-03-28T15:06:21.328Z</time></trkpt><trkpt lat="42.8541209" lon="12.2198616"><ele>704.0</ele><time>2026-03-28T15:06:22.328Z</time></trkpt><trkpt lat="42.8540498" lon="12.2197189"><ele>703.6</ele><time>2026-03-28T15:06:23.328Z</time></trkpt><trkpt lat="42.8539805" lon="12.2196045"><ele>703.2</ele><time>2026-03-28T15:06:24.328Z</time></trkpt><trkpt lat="42.8538934" lon="12.2195154"><ele>702.8000000000001</ele><time>2026-03-28T15:06:25.328Z</time></trkpt><trkpt lat="42.8537957" lon="12.2194629"><ele>702.4000000000001</ele><time>2026-03-28T15:06:26.328Z</time></trkpt><trkpt lat="42.8536814" lon="12.2194263"><ele>702.0</ele><time>2026-03-28T15:06:27.327Z</time></trkpt><trkpt lat="42.8535527" lon="12.2194107"><ele>703.0</ele><time>2026-03-28T15:06:28.327Z</time></trkpt><trkpt lat="42.8534142" lon="12.2193861"><ele>704.0</ele><time>2026-03-28T15:06:29.328Z</time></trkpt><trkpt lat="42.853266" lon="12.2193617"><ele>705.0</ele><time>2026-03-28T15:06:30.328Z</time></trkpt><trkpt lat="42.8531149" lon="12.2193339"><ele>706.0</ele><time>2026-03-28T15:06:31.328Z</time></trkpt><trkpt lat="42.8529704" lon="12.2193037"><ele>706.0</ele><time>2026-03-28T15:06:32.328Z</time></trkpt><trkpt lat="42.8528227" lon="12.2192751"><ele>706.0</ele><time>2026-03-28T15:06:33.328Z</time></trkpt><trkpt lat="42.8526745" lon="12.2192456"><ele>706.0</ele><time>2026-03-28T15:06:34.328Z</time></trkpt><trkpt lat="42.8525207" lon="12.219216"><ele>708.0</ele><time>2026-03-28T15:06:35.328Z</time></trkpt><trkpt lat="42.8523733" lon="12.2191788"><ele>710.0</ele><time>2026-03-28T15:06:36.327Z</time></trkpt><trkpt lat="42.8522265" lon="12.2191476"><ele>712.0</ele><time>2026-03-28T15:06:37.327Z</time></trkpt><trkpt lat="42.8520751" lon="12.2191146"><ele>712.0</ele><time>2026-03-28T15:06:38.328Z</time></trkpt><trkpt lat="42.8519224" lon="12.2190821"><ele>712.0</ele><time>2026-03-28T15:06:39.328Z</time></trkpt><trkpt lat="42.8517712" lon="12.2190525"><ele>712.0</ele><time>2026-03-28T15:06:40.328Z</time></trkpt><trkpt lat="42.8516203" lon="12.2190213"><ele>712.5</ele><time>2026-03-28T15:06:41.328Z</time></trkpt><trkpt lat="42.8514768" lon="12.2189959"><ele>713.0</ele><time>2026-03-28T15:06:42.328Z</time></trkpt><trkpt lat="42.8513462" lon="12.2189581"><ele>713.5</ele><time>2026-03-28T15:06:43.327Z</time></trkpt><trkpt lat="42.8512252" lon="12.2189419"><ele>714.0</ele><time>2026-03-28T15:06:44.327Z</time></trkpt><trkpt lat="42.8511135" lon="12.2189536"><ele>714.0</ele><time>2026-03-28T15:06:45.327Z</time></trkpt><trkpt lat="42.851022" lon="12.2189886"><ele>714.0</ele><time>2026-03-28T15:06:46.327Z</time></trkpt><trkpt lat="42.8509504" lon="12.2190569"><ele>714.0</ele><time>2026-03-28T15:06:47.328Z</time></trkpt><trkpt lat="42.8508967" lon="12.2191726"><ele>714.0</ele><time>2026-03-28T15:06:48.328Z</time></trkpt><trkpt lat="42.8508749" lon="12.2193066"><ele>714.0</ele><time>2026-03-28T15:06:49.328Z</time></trkpt><trkpt lat="42.8508711" lon="12.2194686"><ele>711.75</ele><time>2026-03-28T15:06:50.328Z</time></trkpt><trkpt lat="42.8508814" lon="12.2196403"><ele>709.5</ele><time>2026-03-28T15:06:51.328Z</time></trkpt><trkpt lat="42.8508941" lon="12.2198248"><ele>707.25</ele><time>2026-03-28T15:06:52.327Z</time></trkpt><trkpt lat="42.8509013" lon="12.2199955"><ele>705.0</ele><time>2026-03-28T15:06:53.328Z</time></trkpt><trkpt lat="42.85089" lon="12.2201593"><ele>705.0</ele><time>2026-03-28T15:06:54.327Z</time></trkpt><trkpt lat="42.8508503" lon="12.2203019"><ele>705.0</ele><time>2026-03-28T15:06:55.328Z</time></trkpt><trkpt lat="42.8507868" lon="12.2204383"><ele>705.0</ele><time>2026-03-28T15:06:56.328Z</time></trkpt><trkpt lat="42.8506931" lon="12.2205586"><ele>705.0</ele><time>2026-03-28T15:06:57.328Z</time></trkpt><trkpt lat="42.8505787" lon="12.2206658"><ele>705.3333333333334</ele><time>2026-03-28T15:06:58.328Z</time></trkpt><trkpt lat="42.8504464" lon="12.2207629"><ele>705.6666666666667</ele><time>2026-03-28T15:06:59.327Z</time></trkpt><trkpt lat="42.8503007" lon="12.2208415"><ele>706.0</ele><time>2026-03-28T15:07:00.327Z</time></trkpt><trkpt lat="42.8501495" lon="12.2209072"><ele>707.6666666666667</ele><time>2026-03-28T15:07:01.328Z</time></trkpt><trkpt lat="42.8499978" lon="12.2209702"><ele>709.3333333333334</ele><time>2026-03-28T15:07:02.328Z</time></trkpt><trkpt lat="42.8498517" lon="12.2210286"><ele>711.0</ele><time>2026-03-28T15:07:03.328Z</time></trkpt><trkpt lat="42.8497015" lon="12.2210819"><ele>711.0</ele><time>2026-03-28T15:07:04.327Z</time></trkpt><trkpt lat="42.8495499" lon="12.2211402"><ele>711.0</ele><time>2026-03-28T15:07:05.327Z</time></trkpt><trkpt lat="42.8493863" lon="12.2212063"><ele>711.0</ele><time>2026-03-28T15:07:06.328Z</time></trkpt><trkpt lat="42.8492252" lon="12.2212668"><ele>711.3333333333334</ele><time>2026-03-28T15:07:07.328Z</time></trkpt><trkpt lat="42.849063" lon="12.221339"><ele>711.6666666666667</ele><time>2026-03-28T15:07:08.328Z</time></trkpt><trkpt lat="42.8489024" lon="12.2214101"><ele>712.0</ele><time>2026-03-28T15:07:09.327Z</time></trkpt><trkpt lat="42.8487652" lon="12.2214603"><ele>711.5</ele><time>2026-03-28T15:07:10.328Z</time></trkpt><trkpt lat="42.8486255" lon="12.2215211"><ele>711.0</ele><time>2026-03-28T15:07:11.328Z</time></trkpt><trkpt lat="42.8484854" lon="12.2215772"><ele>710.5</ele><time>2026-03-28T15:07:12.328Z</time></trkpt><trkpt lat="42.8483453" lon="12.2215796"><ele>710.0</ele><time>2026-03-28T15:07:13.328Z</time></trkpt><trkpt lat="42.8482055" lon="12.221574"><ele>710.0</ele><time>2026-03-28T15:07:14.328Z</time></trkpt><trkpt lat="42.8480555" lon="12.2215618"><ele>710.0</ele><time>2026-03-28T15:07:15.328Z</time></trkpt><trkpt lat="42.8479049" lon="12.2215465"><ele>710.0</ele><time>2026-03-28T15:07:16.327Z</time></trkpt><trkpt lat="42.847747" lon="12.2215348"><ele>709.6666666666666</ele><time>2026-03-28T15:07:17.328Z</time></trkpt><trkpt lat="42.8475925" lon="12.2215241"><ele>709.3333333333334</ele><time>2026-03-28T15:07:18.327Z</time></trkpt><trkpt lat="42.8474345" lon="12.2215122"><ele>709.0</ele><time>2026-03-28T15:07:19.328Z</time></trkpt><trkpt lat="42.8472628" lon="12.2214977"><ele>708.5</ele><time>2026-03-28T15:07:20.327Z</time></trkpt><trkpt lat="42.84711" lon="12.2214648"><ele>708.0</ele><time>2026-03-28T15:07:21.328Z</time></trkpt><trkpt lat="42.8469667" lon="12.2214199"><ele>707.5</ele><time>2026-03-28T15:07:22.328Z</time></trkpt><trkpt lat="42.8468376" lon="12.2213605"><ele>707.0</ele><time>2026-03-28T15:07:23.328Z</time></trkpt><trkpt lat="42.8467205" lon="12.2213265"><ele>706.4000000000001</ele><time>2026-03-28T15:07:24.328Z</time></trkpt><trkpt lat="42.8466167" lon="12.2213183"><ele>705.8000000000001</ele><time>2026-03-28T15:07:25.328Z</time></trkpt><trkpt lat="42.8465239" lon="12.2213612"><ele>705.2</ele><time>2026-03-28T15:07:26.327Z</time></trkpt><trkpt lat="42.8464588" lon="12.221445"><ele>704.6</ele><time>2026-03-28T15:07:27.328Z</time></trkpt><trkpt lat="42.8464218" lon="12.2215627"><ele>704.0</ele><time>2026-03-28T15:07:28.328Z</time></trkpt><trkpt lat="42.8464066" lon="12.2216845"><ele>706.75</ele><time>2026-03-28T15:07:29.327Z</time></trkpt><trkpt lat="42.8464293" lon="12.2218274"><ele>709.5</ele><time>2026-03-28T15:07:30.328Z</time></trkpt><trkpt lat="42.8464711" lon="12.2219827"><ele>712.25</ele><time>2026-03-28T15:07:31.328Z</time></trkpt><trkpt lat="42.8465284" lon="12.2221416"><ele>715.0</ele><time>2026-03-28T15:07:32.328Z</time></trkpt><trkpt lat="42.8465914" lon="12.2222958"><ele>715.6</ele><time>2026-03-28T15:07:33.328Z</time></trkpt><trkpt lat="42.8466518" lon="12.2224405"><ele>716.2</ele><time>2026-03-28T15:07:34.328Z</time></trkpt><trkpt lat="42.8466853" lon="12.2225837"><ele>716.8</ele><time>2026-03-28T15:07:35.327Z</time></trkpt><trkpt lat="42.8466893" lon="12.2227241"><ele>717.4</ele><time>2026-03-28T15:07:36.328Z</time></trkpt><trkpt lat="42.8466475" lon="12.2228537"><ele>718.0</ele><time>2026-03-28T15:07:37.328Z</time></trkpt><trkpt lat="42.8465759" lon="12.2229692"><ele>718.0</ele><time>2026-03-28T15:07:38.328Z</time></trkpt><trkpt lat="42.8464885" lon="12.2230585"><ele>718.0</ele><time>2026-03-28T15:07:39.328Z</time></trkpt><trkpt lat="42.8463876" lon="12.2230983"><ele>718.0</ele><time>2026-03-28T15:07:40.328Z</time></trkpt><trkpt lat="42.8462751" lon="12.223093"><ele>718.0</ele><time>2026-03-28T15:07:41.328Z</time></trkpt><trkpt lat="42.8461536" lon="12.2230583"><ele>718.0</ele><time>2026-03-28T15:07:42.328Z</time></trkpt><trkpt lat="42.8460116" lon="12.2229758"><ele>718.0</ele><time>2026-03-28T15:07:43.328Z</time></trkpt><trkpt lat="42.8458936" lon="12.2228539"><ele>718.0</ele><time>2026-03-28T15:07:44.328Z</time></trkpt><trkpt lat="42.845782" lon="12.2227328"><ele>718.0</ele><time>2026-03-28T15:07:45.328Z</time></trkpt><trkpt lat="42.8456672" lon="12.2226101"><ele>716.5</ele><time>2026-03-28T15:07:46.327Z</time></trkpt><trkpt lat="42.8455583" lon="12.2224968"><ele>715.0</ele><time>2026-03-28T15:07:47.327Z</time></trkpt><trkpt lat="42.8454395" lon="12.2224028"><ele>713.5</ele><time>2026-03-28T15:07:48.328Z</time></trkpt><trkpt lat="42.8453106" lon="12.2223515"><ele>712.0</ele><time>2026-03-28T15:07:49.328Z</time></trkpt><trkpt lat="42.845208" lon="12.2223376"><ele>712.1666666666667</ele><time>2026-03-28T15:07:50.328Z</time></trkpt><trkpt lat="42.8451025" lon="12.2223594"><ele>712.3333333333334</ele><time>2026-03-28T15:07:51.328Z</time></trkpt><trkpt lat="42.8450323" lon="12.2224221"><ele>712.5</ele><time>2026-03-28T15:07:52.328Z</time></trkpt><trkpt lat="42.8449847" lon="12.2225183"><ele>712.6666666666666</ele><time>2026-03-28T15:07:53.328Z</time></trkpt><trkpt lat="42.8449483" lon="12.2226123"><ele>712.8333333333333</ele><time>2026-03-28T15:07:54.327Z</time></trkpt><trkpt lat="42.8449469" lon="12.2227216"><ele>713.0</ele><time>2026-03-28T15:07:55.328Z</time></trkpt><trkpt lat="42.8449467" lon="12.222845"><ele>713.0</ele><time>2026-03-28T15:07:56.328Z</time></trkpt><trkpt lat="42.8449546" lon="12.222982"><ele>713.0</ele><time>2026-03-28T15:07:57.327Z</time></trkpt><trkpt lat="42.8449758" lon="12.223137"><ele>713.0</ele><time>2026-03-28T15:07:58.328Z</time></trkpt><trkpt lat="42.8450062" lon="12.2232916"><ele>713.0</ele><time>2026-03-28T15:07:59.328Z</time></trkpt><trkpt lat="42.8450295" lon="12.2234312"><ele>713.0</ele><time>2026-03-28T15:08:00.328Z</time></trkpt><trkpt lat="42.8450436" lon="12.2235643"><ele>714.1666666666666</ele><time>2026-03-28T15:08:01.328Z</time></trkpt><trkpt lat="42.8450344" lon="12.2236835"><ele>715.3333333333333</ele><time>2026-03-28T15:08:02.328Z</time></trkpt><trkpt lat="42.8449864" lon="12.2237628"><ele>716.5</ele><time>2026-03-28T15:08:03.328Z</time></trkpt><trkpt lat="42.8449213" lon="12.22381"><ele>717.6666666666666</ele><time>2026-03-28T15:08:04.328Z</time></trkpt><trkpt lat="42.8448402" lon="12.2238145"><ele>718.8333333333334</ele><time>2026-03-28T15:08:05.327Z</time></trkpt><trkpt lat="42.8447465" lon="12.2237706"><ele>720.0</ele><time>2026-03-28T15:08:06.328Z</time></trkpt><trkpt lat="42.8446465" lon="12.2236915"><ele>720.0</ele><time>2026-03-28T15:08:07.328Z</time></trkpt><trkpt lat="42.8445514" lon="12.2235853"><ele>720.0</ele><time>2026-03-28T15:08:08.327Z</time></trkpt><trkpt lat="42.8444645" lon="12.2234779"><ele>720.0</ele><time>2026-03-28T15:08:09.328Z</time></trkpt><trkpt lat="42.8443818" lon="12.2233679"><ele>720.0</ele><time>2026-03-28T15:08:10.327Z</time></trkpt><trkpt lat="42.8443" lon="12.2232707"><ele>718.0</ele><time>2026-03-28T15:08:11.328Z</time></trkpt><trkpt lat="42.8442121" lon="12.223193"><ele>716.0</ele><time>2026-03-28T15:08:12.328Z</time></trkpt><trkpt lat="42.8441164" lon="12.2231546"><ele>714.0</ele><time>2026-03-28T15:08:13.328Z</time></trkpt><trkpt lat="42.8440176" lon="12.2231523"><ele>712.0</ele><time>2026-03-28T15:08:14.328Z</time></trkpt><trkpt lat="42.8439213" lon="12.223194"><ele>710.0</ele><time>2026-03-28T15:08:15.327Z</time></trkpt><trkpt lat="42.8438181" lon="12.2232635"><ele>710.0</ele><time>2026-03-28T15:08:16.328Z</time></trkpt><trkpt lat="42.8437178" lon="12.2233713"><ele>710.0</ele><time>2026-03-28T15:08:17.328Z</time></trkpt><trkpt lat="42.8436222" lon="12.2234859"><ele>710.0</ele><time>2026-03-28T15:08:18.328Z</time></trkpt><trkpt lat="42.8435349" lon="12.2236291"><ele>710.0</ele><time>2026-03-28T15:08:19.328Z</time></trkpt><trkpt lat="42.8434425" lon="12.2237644"><ele>709.5</ele><time>2026-03-28T15:08:20.327Z</time></trkpt><trkpt lat="42.8433524" lon="12.2239145"><ele>709.0</ele><time>2026-03-28T15:08:21.327Z</time></trkpt><trkpt lat="42.8432558" lon="12.2240512"><ele>708.5</ele><time>2026-03-28T15:08:22.328Z</time></trkpt><trkpt lat="42.8431616" lon="12.2241619"><ele>708.0</ele><time>2026-03-28T15:08:23.328Z</time></trkpt><trkpt lat="42.8430709" lon="12.2242317"><ele>707.8</ele><time>2026-03-28T15:08:24.327Z</time></trkpt><trkpt lat="42.8429769" lon="12.2242592"><ele>707.5999999999999</ele><time>2026-03-28T15:08:25.328Z</time></trkpt><trkpt lat="42.8428771" lon="12.2242456"><ele>707.4000000000001</ele><time>2026-03-28T15:08:26.328Z</time></trkpt><trkpt lat="42.8427781" lon="12.2242047"><ele>707.2</ele><time>2026-03-28T15:08:27.328Z</time></trkpt><trkpt lat="42.8426763" lon="12.2241472"><ele>707.0</ele><time>2026-03-28T15:08:28.327Z</time></trkpt><trkpt lat="42.8425649" lon="12.2240888"><ele>706.0</ele><time>2026-03-28T15:08:29.327Z</time></trkpt><trkpt lat="42.8424497" lon="12.2240204"><ele>705.0</ele><time>2026-03-28T15:08:30.328Z</time></trkpt><trkpt lat="42.8423361" lon="12.2239462"><ele>704.0</ele><time>2026-03-28T15:08:31.327Z</time></trkpt><trkpt lat="42.8422207" lon="12.2238605"><ele>703.0</ele><time>2026-03-28T15:08:32.328Z</time></trkpt><trkpt lat="42.8421059" lon="12.2237704"><ele>703.0</ele><time>2026-03-28T15:08:33.328Z</time></trkpt><trkpt lat="42.8420098" lon="12.2236697"><ele>703.0</ele><time>2026-03-28T15:08:34.327Z</time></trkpt><trkpt lat="42.8419175" lon="12.2235717"><ele>703.0</ele><time>2026-03-28T15:08:35.328Z</time></trkpt><trkpt lat="42.8418245" lon="12.2234789"><ele>703.0</ele><time>2026-03-28T15:08:36.327Z</time></trkpt><trkpt lat="42.841719" lon="12.2234189"><ele>705.2</ele><time>2026-03-28T15:08:37.327Z</time></trkpt><trkpt lat="42.8416179" lon="12.2233676"><ele>707.4</ele><time>2026-03-28T15:08:38.327Z</time></trkpt><trkpt lat="42.841512" lon="12.2233473"><ele>709.6</ele><time>2026-03-28T15:08:39.328Z</time></trkpt><trkpt lat="42.8413961" lon="12.2233629"><ele>711.8000000000001</ele><time>2026-03-28T15:08:40.328Z</time></trkpt><trkpt lat="42.8412895" lon="12.2234249"><ele>714.0</ele><time>2026-03-28T15:08:41.328Z</time></trkpt><trkpt lat="42.8411696" lon="12.2235037"><ele>714.0</ele><time>2026-03-28T15:08:42.328Z</time></trkpt><trkpt lat="42.8410506" lon="12.2235883"><ele>714.0</ele><time>2026-03-28T15:08:43.328Z</time></trkpt><trkpt lat="42.840929" lon="12.2236791"><ele>714.0</ele><time>2026-03-28T15:08:44.327Z</time></trkpt><trkpt lat="42.8408215" lon="12.2237569"><ele>714.0</ele><time>2026-03-28T15:08:45.328Z</time></trkpt><trkpt lat="42.840718" lon="12.223843"><ele>713.5</ele><time>2026-03-28T15:08:46.328Z</time></trkpt><trkpt lat="42.8406146" lon="12.2239469"><ele>713.0</ele><time>2026-03-28T15:08:47.328Z</time></trkpt><trkpt lat="42.8405195" lon="12.2240723"><ele>712.5</ele><time>2026-03-28T15:08:48.327Z</time></trkpt><trkpt lat="42.840427" lon="12.2242008"><ele>712.0</ele><time>2026-03-28T15:08:49.327Z</time></trkpt><trkpt lat="42.8403459" lon="12.2243317"><ele>714.25</ele><time>2026-03-28T15:08:50.328Z</time></trkpt><trkpt lat="42.8402522" lon="12.2244655"><ele>716.5</ele><time>2026-03-28T15:08:51.328Z</time></trkpt><trkpt lat="42.8401553" lon="12.2245975"><ele>718.75</ele><time>2026-03-28T15:08:52.328Z</time></trkpt><trkpt lat="42.8400439" lon="12.2246942"><ele>721.0</ele><time>2026-03-28T15:08:53.328Z</time></trkpt><trkpt lat="42.8399211" lon="12.2247643"><ele>721.25</ele><time>2026-03-28T15:08:54.328Z</time></trkpt><trkpt lat="42.8397973" lon="12.2248141"><ele>721.5</ele><time>2026-03-28T15:08:55.328Z</time></trkpt><trkpt lat="42.8396688" lon="12.2248309"><ele>721.75</ele><time>2026-03-28T15:08:56.327Z</time></trkpt><trkpt lat="42.8395362" lon="12.224804"><ele>722.0</ele><time>2026-03-28T15:08:57.327Z</time></trkpt><trkpt lat="42.8394106" lon="12.2247537"><ele>721.5</ele><time>2026-03-28T15:08:58.328Z</time></trkpt><trkpt lat="42.8392872" lon="12.2246687"><ele>721.0</ele><time>2026-03-28T15:08:59.328Z</time></trkpt><trkpt lat="42.8391598" lon="12.2245667"><ele>720.5</ele><time>2026-03-28T15:09:00.328Z</time></trkpt><trkpt lat="42.8390346" lon="12.2244451"><ele>720.0</ele><time>2026-03-28T15:09:01.327Z</time></trkpt><trkpt lat="42.8389032" lon="12.2243241"><ele>720.0</ele><time>2026-03-28T15:09:02.328Z</time></trkpt><trkpt lat="42.8387574" lon="12.224214"><ele>720.0</ele><time>2026-03-28T15:09:03.328Z</time></trkpt><trkpt lat="42.8386104" lon="12.2240995"><ele>720.0</ele><time>2026-03-28T15:09:04.328Z</time></trkpt><trkpt lat="42.8384615" lon="12.2239749"><ele>721.0</ele><time>2026-03-28T15:09:05.327Z</time></trkpt><trkpt lat="42.8383093" lon="12.2238619"><ele>722.0</ele><time>2026-03-28T15:09:06.328Z</time></trkpt><trkpt lat="42.8381567" lon="12.2237456"><ele>723.0</ele><time>2026-03-28T15:09:07.328Z</time></trkpt><trkpt lat="42.8380039" lon="12.2236451"><ele>723.0</ele><time>2026-03-28T15:09:08.328Z</time></trkpt><trkpt lat="42.8378671" lon="12.2235564"><ele>723.0</ele><time>2026-03-28T15:09:09.327Z</time></trkpt><trkpt lat="42.8377276" lon="12.2234691"><ele>723.0</ele><time>2026-03-28T15:09:10.327Z</time></trkpt><trkpt lat="42.8376063" lon="12.2233841"><ele>723.0</ele><time>2026-03-28T15:09:11.327Z</time></trkpt><trkpt lat="42.8374899" lon="12.2232768"><ele>723.25</ele><time>2026-03-28T15:09:12.328Z</time></trkpt><trkpt lat="42.8373682" lon="12.2231755"><ele>723.5</ele><time>2026-03-28T15:09:13.327Z</time></trkpt><trkpt lat="42.8372503" lon="12.2230597"><ele>723.75</ele><time>2026-03-28T15:09:14.328Z</time></trkpt><trkpt lat="42.8371404" lon="12.2229413"><ele>724.0</ele><time>2026-03-28T15:09:15.328Z</time></trkpt><trkpt lat="42.8370298" lon="12.2228163"><ele>723.25</ele><time>2026-03-28T15:09:16.327Z</time></trkpt><trkpt lat="42.8369118" lon="12.2227025"><ele>722.5</ele><time>2026-03-28T15:09:17.328Z</time></trkpt><trkpt lat="42.8367993" lon="12.2225818"><ele>721.75</ele><time>2026-03-28T15:09:18.328Z</time></trkpt><trkpt lat="42.8366854" lon="12.2224475"><ele>721.0</ele><time>2026-03-28T15:09:19.328Z</time></trkpt><trkpt lat="42.8365662" lon="12.2223209"><ele>718.0</ele><time>2026-03-28T15:09:20.327Z</time></trkpt><trkpt lat="42.8364432" lon="12.2221962"><ele>715.0</ele><time>2026-03-28T15:09:21.328Z</time></trkpt><trkpt lat="42.8363257" lon="12.2220706"><ele>712.0</ele><time>2026-03-28T15:09:22.328Z</time></trkpt><trkpt lat="42.8362113" lon="12.2219435"><ele>712.0</ele><time>2026-03-28T15:09:23.328Z</time></trkpt><trkpt lat="42.8360987" lon="12.2218253"><ele>712.0</ele><time>2026-03-28T15:09:24.328Z</time></trkpt><trkpt lat="42.8359974" lon="12.2217056"><ele>712.0</ele><time>2026-03-28T15:09:25.328Z</time></trkpt><trkpt lat="42.8358994" lon="12.2215893"><ele>712.0</ele><time>2026-03-28T15:09:26.328Z</time></trkpt><trkpt lat="42.8358151" lon="12.2214531"><ele>712.5</ele><time>2026-03-28T15:09:27.328Z</time></trkpt><trkpt lat="42.8357497" lon="12.2213063"><ele>713.0</ele><time>2026-03-28T15:09:28.328Z</time></trkpt><trkpt lat="42.835698" lon="12.2211393"><ele>713.5</ele><time>2026-03-28T15:09:29.327Z</time></trkpt><trkpt lat="42.8356469" lon="12.2209749"><ele>714.0</ele><time>2026-03-28T15:09:30.327Z</time></trkpt><trkpt lat="42.8355988" lon="12.2208101"><ele>711.25</ele><time>2026-03-28T15:09:31.327Z</time></trkpt><trkpt lat="42.8355502" lon="12.2206367"><ele>708.5</ele><time>2026-03-28T15:09:32.328Z</time></trkpt><trkpt lat="42.8355006" lon="12.2204749"><ele>705.75</ele><time>2026-03-28T15:09:33.328Z</time></trkpt><trkpt lat="42.8354446" lon="12.2203327"><ele>703.0</ele><time>2026-03-28T15:09:34.328Z</time></trkpt><trkpt lat="42.8353822" lon="12.2202058"><ele>703.0</ele><time>2026-03-28T15:09:35.328Z</time></trkpt><trkpt lat="42.8353056" lon="12.2201034"><ele>703.0</ele><time>2026-03-28T15:09:36.328Z</time></trkpt><trkpt lat="42.8352115" lon="12.2200236"><ele>703.0</ele><time>2026-03-28T15:09:37.327Z</time></trkpt><trkpt lat="42.8351122" lon="12.2199642"><ele>703.0</ele><time>2026-03-28T15:09:38.327Z</time></trkpt><trkpt lat="42.8350223" lon="12.2199071"><ele>703.0</ele><time>2026-03-28T15:09:39.327Z</time></trkpt><trkpt lat="42.8349393" lon="12.2198291"><ele>704.1666666666667</ele><time>2026-03-28T15:09:40.328Z</time></trkpt><trkpt lat="42.8348805" lon="12.2197401"><ele>705.3333333333334</ele><time>2026-03-28T15:09:41.328Z</time></trkpt><trkpt lat="42.8348462" lon="12.2196336"><ele>706.5</ele><time>2026-03-28T15:09:42.327Z</time></trkpt><trkpt lat="42.8348323" lon="12.2195216"><ele>707.6666666666666</ele><time>2026-03-28T15:09:43.327Z</time></trkpt><trkpt lat="42.834845" lon="12.2193912"><ele>708.8333333333333</ele><time>2026-03-28T15:09:44.328Z</time></trkpt><trkpt lat="42.8348632" lon="12.2192678"><ele>710.0</ele><time>2026-03-28T15:09:45.327Z</time></trkpt><trkpt lat="42.834862" lon="12.2191393"><ele>710.0</ele><time>2026-03-28T15:09:46.327Z</time></trkpt><trkpt lat="42.8348461" lon="12.2190257"><ele>710.0</ele><time>2026-03-28T15:09:47.328Z</time></trkpt><trkpt lat="42.8348163" lon="12.2189019"><ele>710.0</ele><time>2026-03-28T15:09:48.327Z</time></trkpt><trkpt lat="42.8347788" lon="12.2187748"><ele>710.0</ele><time>2026-03-28T15:09:49.328Z</time></trkpt><trkpt lat="42.8347388" lon="12.2186429"><ele>710.0</ele><time>2026-03-28T15:09:50.327Z</time></trkpt><trkpt lat="42.8347005" lon="12.2185145"><ele>708.25</ele><time>2026-03-28T15:09:51.328Z</time></trkpt><trkpt lat="42.8346576" lon="12.2183769"><ele>706.5</ele><time>2026-03-28T15:09:52.328Z</time></trkpt><trkpt lat="42.8346079" lon="12.2182404"><ele>704.75</ele><time>2026-03-28T15:09:53.327Z</time></trkpt><trkpt lat="42.8345649" lon="12.2180971"><ele>703.0</ele><time>2026-03-28T15:09:54.328Z</time></trkpt><trkpt lat="42.8345097" lon="12.2179508"><ele>704.0</ele><time>2026-03-28T15:09:55.328Z</time></trkpt><trkpt lat="42.8344551" lon="12.2177973"><ele>705.0</ele><time>2026-03-28T15:09:56.328Z</time></trkpt><trkpt lat="42.8343852" lon="12.2176477"><ele>706.0</ele><time>2026-03-28T15:09:57.328Z</time></trkpt><trkpt lat="42.8343097" lon="12.217498"><ele>707.0</ele><time>2026-03-28T15:09:58.328Z</time></trkpt><trkpt lat="42.8342334" lon="12.2173474"><ele>706.5</ele><time>2026-03-28T15:09:59.328Z</time></trkpt><trkpt lat="42.8341504" lon="12.2172007"><ele>706.0</ele><time>2026-03-28T15:10:00.328Z</time></trkpt><trkpt lat="42.8340773" lon="12.2170503"><ele>705.5</ele><time>2026-03-28T15:10:01.328Z</time></trkpt><trkpt lat="42.8340071" lon="12.2169068"><ele>705.0</ele><time>2026-03-28T15:10:02.327Z</time></trkpt><trkpt lat="42.8339367" lon="12.2167663"><ele>705.0</ele><time>2026-03-28T15:10:03.328Z</time></trkpt><trkpt lat="42.8338676" lon="12.2166334"><ele>705.0</ele><time>2026-03-28T15:10:04.327Z</time></trkpt><trkpt lat="42.8337954" lon="12.2165096"><ele>705.0</ele><time>2026-03-28T15:10:05.328Z</time></trkpt><trkpt lat="42.8337091" lon="12.2163963"><ele>705.0</ele><time>2026-03-28T15:10:06.327Z</time></trkpt><trkpt lat="42.833625" lon="12.2162837"><ele>702.25</ele><time>2026-03-28T15:10:07.328Z</time></trkpt><trkpt lat="42.8335433" lon="12.2161587"><ele>699.5</ele><time>2026-03-28T15:10:08.327Z</time></trkpt><trkpt lat="42.8334629" lon="12.2160313"><ele>696.75</ele><time>2026-03-28T15:10:09.328Z</time></trkpt><trkpt lat="42.833387" lon="12.2159023"><ele>694.0</ele><time>2026-03-28T15:10:10.328Z</time></trkpt><trkpt lat="42.8333347" lon="12.2157513"><ele>697.2</ele><time>2026-03-28T15:10:11.328Z</time></trkpt><trkpt lat="42.8332876" lon="12.2156063"><ele>700.4000000000001</ele><time>2026-03-28T15:10:12.328Z</time></trkpt><trkpt lat="42.8332535" lon="12.2154703"><ele>703.6</ele><time>2026-03-28T15:10:13.328Z</time></trkpt><trkpt lat="42.8332204" lon="12.2153491"><ele>706.8</ele><time>2026-03-28T15:10:14.328Z</time></trkpt><trkpt lat="42.8331704" lon="12.2152369"><ele>710.0</ele><time>2026-03-28T15:10:15.328Z</time></trkpt><trkpt lat="42.8331016" lon="12.2151438"><ele>710.0</ele><time>2026-03-28T15:10:16.328Z</time></trkpt><trkpt lat="42.8330035" lon="12.2150805"><ele>710.0</ele><time>2026-03-28T15:10:17.328Z</time></trkpt><trkpt lat="42.8329046" lon="12.2150235"><ele>710.0</ele><time>2026-03-28T15:10:18.328Z</time></trkpt><trkpt lat="42.8327788" lon="12.2149891"><ele>710.0</ele><time>2026-03-28T15:10:19.328Z</time></trkpt><trkpt lat="42.8326482" lon="12.2149687"><ele>712.75</ele><time>2026-03-28T15:10:20.328Z</time></trkpt><trkpt lat="42.8325074" lon="12.2149606"><ele>715.5</ele><time>2026-03-28T15:10:21.327Z</time></trkpt><trkpt lat="42.8323677" lon="12.2149674"><ele>718.25</ele><time>2026-03-28T15:10:22.328Z</time></trkpt><trkpt lat="42.8322412" lon="12.2149656"><ele>721.0</ele><time>2026-03-28T15:10:23.328Z</time></trkpt><trkpt lat="42.8321237" lon="12.2149723"><ele>721.0</ele><time>2026-03-28T15:10:24.328Z</time></trkpt><trkpt lat="42.8320208" lon="12.2149675"><ele>721.0</ele><time>2026-03-28T15:10:25.328Z</time></trkpt><trkpt lat="42.8319332" lon="12.2149486"><ele>721.0</ele><time>2026-03-28T15:10:26.328Z</time></trkpt><trkpt lat="42.8318496" lon="12.2149141"><ele>721.0</ele><time>2026-03-28T15:10:27.328Z</time></trkpt><trkpt lat="42.8317845" lon="12.2148501"><ele>721.0</ele><time>2026-03-28T15:10:28.328Z</time></trkpt><trkpt lat="42.8317359" lon="12.2147452"><ele>722.0</ele><time>2026-03-28T15:10:29.328Z</time></trkpt><trkpt lat="42.83169" lon="12.2146296"><ele>723.0</ele><time>2026-03-28T15:10:30.328Z</time></trkpt><trkpt lat="42.8316455" lon="12.2145062"><ele>724.0</ele><time>2026-03-28T15:10:31.328Z</time></trkpt><trkpt lat="42.8315958" lon="12.2143992"><ele>725.0</ele><time>2026-03-28T15:10:32.328Z</time></trkpt><trkpt lat="42.8315161" lon="12.2143143"><ele>726.0</ele><time>2026-03-28T15:10:33.328Z</time></trkpt><trkpt lat="42.8314299" lon="12.214244"><ele>726.0</ele><time>2026-03-28T15:10:34.327Z</time></trkpt><trkpt lat="42.8313104" lon="12.2142021"><ele>726.0</ele><time>2026-03-28T15:10:35.328Z</time></trkpt><trkpt lat="42.8311932" lon="12.214174"><ele>726.0</ele><time>2026-03-28T15:10:36.327Z</time></trkpt><trkpt lat="42.8310751" lon="12.2141614"><ele>726.0</ele><time>2026-03-28T15:10:37.327Z</time></trkpt><trkpt lat="42.830962" lon="12.21416"><ele>729.75</ele><time>2026-03-28T15:10:38.328Z</time></trkpt><trkpt lat="42.8308438" lon="12.2141662"><ele>733.5</ele><time>2026-03-28T15:10:39.328Z</time></trkpt><trkpt lat="42.8307195" lon="12.2141758"><ele>737.25</ele><time>2026-03-28T15:10:40.328Z</time></trkpt><trkpt lat="42.8306034" lon="12.2141828"><ele>741.0</ele><time>2026-03-28T15:10:41.327Z</time></trkpt><trkpt lat="42.830497" lon="12.2141412"><ele>741.0</ele><time>2026-03-28T15:10:42.328Z</time></trkpt><trkpt lat="42.8303932" lon="12.2140753"><ele>741.0</ele><time>2026-03-28T15:10:43.328Z</time></trkpt><trkpt lat="42.8302938" lon="12.213985"><ele>741.0</ele><time>2026-03-28T15:10:44.328Z</time></trkpt><trkpt lat="42.8302054" lon="12.2138581"><ele>741.0</ele><time>2026-03-28T15:10:45.328Z</time></trkpt><trkpt lat="42.8301094" lon="12.2137213"><ele>741.25</ele><time>2026-03-28T15:10:46.328Z</time></trkpt><trkpt lat="42.830026" lon="12.2135907"><ele>741.5</ele><time>2026-03-28T15:10:47.328Z</time></trkpt><trkpt lat="42.8299439" lon="12.2134718"><ele>741.75</ele><time>2026-03-28T15:10:48.328Z</time></trkpt><trkpt lat="42.8298571" lon="12.2133564"><ele>742.0</ele><time>2026-03-28T15:10:49.328Z</time></trkpt><trkpt lat="42.8297472" lon="12.2132756"><ele>742.0</ele><time>2026-03-28T15:10:50.328Z</time></trkpt><trkpt lat="42.8296298" lon="12.213206"><ele>742.0</ele><time>2026-03-28T15:10:51.327Z</time></trkpt><trkpt lat="42.8295102" lon="12.213137"><ele>742.0</ele><time>2026-03-28T15:10:52.327Z</time></trkpt><trkpt lat="42.8293945" lon="12.2130346"><ele>742.0</ele><time>2026-03-28T15:10:53.328Z</time></trkpt><trkpt lat="42.8293026" lon="12.21291"><ele>743.75</ele><time>2026-03-28T15:10:54.328Z</time></trkpt><trkpt lat="42.8292228" lon="12.2127632"><ele>745.5</ele><time>2026-03-28T15:10:55.328Z</time></trkpt><trkpt lat="42.8291351" lon="12.2126179"><ele>747.25</ele><time>2026-03-28T15:10:56.328Z</time></trkpt><trkpt lat="42.8290308" lon="12.2124962"><ele>749.0</ele><time>2026-03-28T15:10:57.327Z</time></trkpt><trkpt lat="42.8289239" lon="12.212379"><ele>747.4000000000001</ele><time>2026-03-28T15:10:58.327Z</time></trkpt><trkpt lat="42.8288322" lon="12.2122602"><ele>745.8</ele><time>2026-03-28T15:10:59.328Z</time></trkpt><trkpt lat="42.8287512" lon="12.2121404"><ele>744.2</ele><time>2026-03-28T15:11:00.328Z</time></trkpt><trkpt lat="42.8287347" lon="12.2120148"><ele>742.5999999999999</ele><time>2026-03-28T15:11:01.328Z</time></trkpt><trkpt lat="42.8287001" lon="12.2119045"><ele>741.0</ele><time>2026-03-28T15:11:02.327Z</time></trkpt><trkpt lat="42.8286665" lon="12.2118016"><ele>741.0</ele><time>2026-03-28T15:11:03.328Z</time></trkpt><trkpt lat="42.8285995" lon="12.2117669"><ele>741.0</ele><time>2026-03-28T15:11:04.327Z</time></trkpt><trkpt lat="42.8285182" lon="12.2117755"><ele>741.0</ele><time>2026-03-28T15:11:05.328Z</time></trkpt><trkpt lat="42.8284515" lon="12.2118358"><ele>741.0</ele><time>2026-03-28T15:11:06.328Z</time></trkpt><trkpt lat="42.8284065" lon="12.2119359"><ele>741.0</ele><time>2026-03-28T15:11:07.328Z</time></trkpt><trkpt lat="42.82838" lon="12.2120608"><ele>741.0</ele><time>2026-03-28T15:11:08.328Z</time></trkpt><trkpt lat="42.8283462" lon="12.2121943"><ele>743.1999999999999</ele><time>2026-03-28T15:11:09.328Z</time></trkpt><trkpt lat="42.8283143" lon="12.2123093"><ele>745.4</ele><time>2026-03-28T15:11:10.328Z</time></trkpt><trkpt lat="42.8282082" lon="12.2123666"><ele>747.6</ele><time>2026-03-28T15:11:11.328Z</time></trkpt><trkpt lat="42.8281081" lon="12.2124021"><ele>749.8</ele><time>2026-03-28T15:11:12.327Z</time></trkpt><trkpt lat="42.8280058" lon="12.212438"><ele>752.0</ele><time>2026-03-28T15:11:13.328Z</time></trkpt><trkpt lat="42.827898" lon="12.2124715"><ele>753.6</ele><time>2026-03-28T15:11:14.327Z</time></trkpt><trkpt lat="42.8278187" lon="12.2125268"><ele>755.2</ele><time>2026-03-28T15:11:15.328Z</time></trkpt><trkpt lat="42.827751" lon="12.2126158"><ele>756.8</ele><time>2026-03-28T15:11:16.328Z</time></trkpt><trkpt lat="42.8277071" lon="12.2127368"><ele>758.4</ele><time>2026-03-28T15:11:17.328Z</time></trkpt><trkpt lat="42.8276882" lon="12.2128631"><ele>760.0</ele><time>2026-03-28T15:11:18.327Z</time></trkpt><trkpt lat="42.8276921" lon="12.2130058"><ele>760.0</ele><time>2026-03-28T15:11:19.327Z</time></trkpt><trkpt lat="42.8277137" lon="12.2131556"><ele>760.0</ele><time>2026-03-28T15:11:20.328Z</time></trkpt><trkpt lat="42.8277419" lon="12.213295"><ele>760.0</ele><time>2026-03-28T15:11:21.327Z</time></trkpt><trkpt lat="42.8277559" lon="12.2134182"><ele>760.0</ele><time>2026-03-28T15:11:22.328Z</time></trkpt><trkpt lat="42.8277437" lon="12.2135359"><ele>760.0</ele><time>2026-03-28T15:11:23.327Z</time></trkpt><trkpt lat="42.8277041" lon="12.2136436"><ele>763.0</ele><time>2026-03-28T15:11:24.328Z</time></trkpt><trkpt lat="42.8276388" lon="12.2137313"><ele>766.0</ele><time>2026-03-28T15:11:25.327Z</time></trkpt><trkpt lat="42.8275526" lon="12.2138017"><ele>769.0</ele><time>2026-03-28T15:11:26.328Z</time></trkpt><trkpt lat="42.8274544" lon="12.213843"><ele>772.0</ele><time>2026-03-28T15:11:27.328Z</time></trkpt><trkpt lat="42.8273458" lon="12.2138437"><ele>775.0</ele><time>2026-03-28T15:11:28.328Z</time></trkpt><trkpt lat="42.8272358" lon="12.2138078"><ele>775.0</ele><time>2026-03-28T15:11:29.327Z</time></trkpt><trkpt lat="42.8271369" lon="12.2137263"><ele>775.0</ele><time>2026-03-28T15:11:30.328Z</time></trkpt><trkpt lat="42.8270574" lon="12.2136031"><ele>775.0</ele><time>2026-03-28T15:11:31.327Z</time></trkpt><trkpt lat="42.8269901" lon="12.2134692"><ele>775.0</ele><time>2026-03-28T15:11:32.328Z</time></trkpt><trkpt lat="42.8269286" lon="12.2133589"><ele>775.0</ele><time>2026-03-28T15:11:33.328Z</time></trkpt><trkpt lat="42.8268539" lon="12.213274"><ele>775.0</ele><time>2026-03-28T15:11:34.328Z</time></trkpt><trkpt lat="42.8267723" lon="12.2132397"><ele>775.0</ele><time>2026-03-28T15:11:35.328Z</time></trkpt><trkpt lat="42.8266899" lon="12.2132432"><ele>775.0</ele><time>2026-03-28T15:11:36.328Z</time></trkpt><trkpt lat="42.8266078" lon="12.2132864"><ele>775.0</ele><time>2026-03-28T15:11:37.328Z</time></trkpt><trkpt lat="42.8265227" lon="12.2133757"><ele>776.6</ele><time>2026-03-28T15:11:38.328Z</time></trkpt><trkpt lat="42.826447" lon="12.213478"><ele>778.2</ele><time>2026-03-28T15:11:39.328Z</time></trkpt><trkpt lat="42.826359" lon="12.2135966"><ele>779.8</ele><time>2026-03-28T15:11:40.328Z</time></trkpt><trkpt lat="42.8262849" lon="12.2136932"><ele>781.4</ele><time>2026-03-28T15:11:41.328Z</time></trkpt><trkpt lat="42.8262144" lon="12.2137857"><ele>783.0</ele><time>2026-03-28T15:11:42.328Z</time></trkpt><trkpt lat="42.8261274" lon="12.2138566"><ele>783.0</ele><time>2026-03-28T15:11:43.328Z</time></trkpt><trkpt lat="42.8260348" lon="12.2138836"><ele>783.0</ele><time>2026-03-28T15:11:44.328Z</time></trkpt><trkpt lat="42.8259305" lon="12.2138715"><ele>783.0</ele><time>2026-03-28T15:11:45.328Z</time></trkpt><trkpt lat="42.8258225" lon="12.2138321"><ele>783.0</ele><time>2026-03-28T15:11:46.328Z</time></trkpt><trkpt lat="42.8257128" lon="12.213757"><ele>783.0</ele><time>2026-03-28T15:11:47.327Z</time></trkpt><trkpt lat="42.8256077" lon="12.2136803"><ele>786.75</ele><time>2026-03-28T15:11:48.328Z</time></trkpt><trkpt lat="42.8254997" lon="12.2136151"><ele>790.5</ele><time>2026-03-28T15:11:49.328Z</time></trkpt><trkpt lat="42.8253886" lon="12.2135573"><ele>794.25</ele><time>2026-03-28T15:11:50.328Z</time></trkpt><trkpt lat="42.8252721" lon="12.2135289"><ele>798.0</ele><time>2026-03-28T15:11:51.327Z</time></trkpt><trkpt lat="42.8251494" lon="12.2135186"><ele>798.75</ele><time>2026-03-28T15:11:52.328Z</time></trkpt><trkpt lat="42.8250269" lon="12.2135693"><ele>799.5</ele><time>2026-03-28T15:11:53.328Z</time></trkpt><trkpt lat="42.8249237" lon="12.2136352"><ele>800.25</ele><time>2026-03-28T15:11:54.328Z</time></trkpt><trkpt lat="42.82482" lon="12.2137026"><ele>801.0</ele><time>2026-03-28T15:11:55.328Z</time></trkpt><trkpt lat="42.824714" lon="12.2137787"><ele>801.0</ele><time>2026-03-28T15:11:56.328Z</time></trkpt><trkpt lat="42.8246245" lon="12.213773"><ele>801.0</ele><time>2026-03-28T15:11:57.328Z</time></trkpt><trkpt lat="42.8245262" lon="12.2137497"><ele>801.0</ele><time>2026-03-28T15:11:58.327Z</time></trkpt><trkpt lat="42.8244405" lon="12.2136806"><ele>801.0</ele><time>2026-03-28T15:11:59.327Z</time></trkpt><trkpt lat="42.824357" lon="12.2135913"><ele>801.0</ele><time>2026-03-28T15:12:00.327Z</time></trkpt><trkpt lat="42.8242834" lon="12.213464"><ele>801.5</ele><time>2026-03-28T15:12:01.328Z</time></trkpt><trkpt lat="42.8241992" lon="12.2133347"><ele>802.0</ele><time>2026-03-28T15:12:02.328Z</time></trkpt><trkpt lat="42.8241103" lon="12.2131897"><ele>802.5</ele><time>2026-03-28T15:12:03.328Z</time></trkpt><trkpt lat="42.8239993" lon="12.213062"><ele>803.0</ele><time>2026-03-28T15:12:04.327Z</time></trkpt><trkpt lat="42.8238749" lon="12.2129578"><ele>803.0</ele><time>2026-03-28T15:12:05.328Z</time></trkpt><trkpt lat="42.8237665" lon="12.212847"><ele>803.0</ele><time>2026-03-28T15:12:06.328Z</time></trkpt><trkpt lat="42.8236553" lon="12.2127513"><ele>803.0</ele><time>2026-03-28T15:12:07.328Z</time></trkpt><trkpt lat="42.8235597" lon="12.2126343"><ele>803.0</ele><time>2026-03-28T15:12:08.327Z</time></trkpt><trkpt lat="42.8234859" lon="12.2124952"><ele>802.25</ele><time>2026-03-28T15:12:09.327Z</time></trkpt><trkpt lat="42.8234253" lon="12.2123474"><ele>801.5</ele><time>2026-03-28T15:12:10.328Z</time></trkpt><trkpt lat="42.8233706" lon="12.2122023"><ele>800.75</ele><time>2026-03-28T15:12:11.328Z</time></trkpt><trkpt lat="42.823308" lon="12.2120636"><ele>800.0</ele><time>2026-03-28T15:12:12.328Z</time></trkpt><trkpt lat="42.8232389" lon="12.2119542"><ele>800.0</ele><time>2026-03-28T15:12:13.328Z</time></trkpt><trkpt lat="42.8231426" lon="12.2118887"><ele>800.0</ele><time>2026-03-28T15:12:14.328Z</time></trkpt><trkpt lat="42.8230271" lon="12.211866"><ele>800.0</ele><time>2026-03-28T15:12:15.327Z</time></trkpt><trkpt lat="42.8228951" lon="12.2118838"><ele>800.0</ele><time>2026-03-28T15:12:16.328Z</time></trkpt><trkpt lat="42.8227598" lon="12.2119102"><ele>802.0</ele><time>2026-03-28T15:12:17.327Z</time></trkpt><trkpt lat="42.8226178" lon="12.2119368"><ele>804.0</ele><time>2026-03-28T15:12:18.327Z</time></trkpt><trkpt lat="42.8224793" lon="12.211957"><ele>806.0</ele><time>2026-03-28T15:12:19.328Z</time></trkpt><trkpt lat="42.8223336" lon="12.2119795"><ele>808.0</ele><time>2026-03-28T15:12:20.328Z</time></trkpt><trkpt lat="42.8221828" lon="12.2120124"><ele>808.0</ele><time>2026-03-28T15:12:21.327Z</time></trkpt><trkpt lat="42.8220384" lon="12.2120606"><ele>808.0</ele><time>2026-03-28T15:12:22.328Z</time></trkpt><trkpt lat="42.8219004" lon="12.2121308"><ele>808.0</ele><time>2026-03-28T15:12:23.327Z</time></trkpt><trkpt lat="42.8217618" lon="12.2122086"><ele>808.0</ele><time>2026-03-28T15:12:24.327Z</time></trkpt><trkpt lat="42.8216212" lon="12.2122786"><ele>809.0</ele><time>2026-03-28T15:12:25.328Z</time></trkpt><trkpt lat="42.8214748" lon="12.2123049"><ele>810.0</ele><time>2026-03-28T15:12:26.327Z</time></trkpt><trkpt lat="42.8213236" lon="12.2123113"><ele>811.0</ele><time>2026-03-28T15:12:27.327Z</time></trkpt><trkpt lat="42.8211741" lon="12.2122785"><ele>811.0</ele><time>2026-03-28T15:12:28.328Z</time></trkpt><trkpt lat="42.8210186" lon="12.2122323"><ele>811.0</ele><time>2026-03-28T15:12:29.327Z</time></trkpt><trkpt lat="42.8208662" lon="12.212179"><ele>811.0</ele><time>2026-03-28T15:12:30.328Z</time></trkpt><trkpt lat="42.8207169" lon="12.2121105"><ele>810.6666666666666</ele><time>2026-03-28T15:12:31.328Z</time></trkpt><trkpt lat="42.8205725" lon="12.2120239"><ele>810.3333333333333</ele><time>2026-03-28T15:12:32.328Z</time></trkpt><trkpt lat="42.8204297" lon="12.2119237"><ele>810.0</ele><time>2026-03-28T15:12:33.328Z</time></trkpt><trkpt lat="42.8202946" lon="12.2118055"><ele>810.0</ele><time>2026-03-28T15:12:34.328Z</time></trkpt><trkpt lat="42.8201802" lon="12.2116757"><ele>810.0</ele><time>2026-03-28T15:12:35.328Z</time></trkpt><trkpt lat="42.8200644" lon="12.211555"><ele>810.0</ele><time>2026-03-28T15:12:36.327Z</time></trkpt><trkpt lat="42.8199517" lon="12.2114514"><ele>810.0</ele><time>2026-03-28T15:12:37.328Z</time></trkpt><trkpt lat="42.8198393" lon="12.2113565"><ele>810.0</ele><time>2026-03-28T15:12:38.327Z</time></trkpt><trkpt lat="42.8197148" lon="12.2113"><ele>810.0</ele><time>2026-03-28T15:12:39.328Z</time></trkpt><trkpt lat="42.8195873" lon="12.2112747"><ele>810.0</ele><time>2026-03-28T15:12:40.328Z</time></trkpt><trkpt lat="42.8194528" lon="12.2112839"><ele>810.0</ele><time>2026-03-28T15:12:41.328Z</time></trkpt><trkpt lat="42.8193225" lon="12.2113207"><ele>812.0</ele><time>2026-03-28T15:12:42.328Z</time></trkpt><trkpt lat="42.8191898" lon="12.2113674"><ele>814.0</ele><time>2026-03-28T15:12:43.327Z</time></trkpt><trkpt lat="42.8190449" lon="12.2114406"><ele>816.0</ele><time>2026-03-28T15:12:44.328Z</time></trkpt><trkpt lat="42.818899" lon="12.2115241"><ele>813.75</ele><time>2026-03-28T15:12:45.327Z</time></trkpt><trkpt lat="42.8187677" lon="12.2116157"><ele>811.5</ele><time>2026-03-28T15:12:46.327Z</time></trkpt><trkpt lat="42.8186345" lon="12.2117233"><ele>809.25</ele><time>2026-03-28T15:12:47.328Z</time></trkpt><trkpt lat="42.818509" lon="12.2118053"><ele>807.0</ele><time>2026-03-28T15:12:48.328Z</time></trkpt><trkpt lat="42.8183724" lon="12.2118896"><ele>807.0</ele><time>2026-03-28T15:12:49.327Z</time></trkpt><trkpt lat="42.8182348" lon="12.2119346"><ele>807.0</ele><time>2026-03-28T15:12:50.328Z</time></trkpt><trkpt lat="42.8180907" lon="12.2119513"><ele>807.0</ele><time>2026-03-28T15:12:51.327Z</time></trkpt><trkpt lat="42.817942" lon="12.2119491"><ele>807.0</ele><time>2026-03-28T15:12:52.328Z</time></trkpt><trkpt lat="42.8177911" lon="12.211926"><ele>805.0</ele><time>2026-03-28T15:12:53.327Z</time></trkpt><trkpt lat="42.8176489" lon="12.2118649"><ele>803.0</ele><time>2026-03-28T15:12:54.327Z</time></trkpt><trkpt lat="42.8174962" lon="12.2117918"><ele>801.0</ele><time>2026-03-28T15:12:55.327Z</time></trkpt><trkpt lat="42.817339" lon="12.2117172"><ele>801.0</ele><time>2026-03-28T15:12:56.327Z</time></trkpt><trkpt lat="42.8171812" lon="12.2116424"><ele>801.0</ele><time>2026-03-28T15:12:57.328Z</time></trkpt><trkpt lat="42.817023" lon="12.2115599"><ele>801.0</ele><time>2026-03-28T15:12:58.327Z</time></trkpt><trkpt lat="42.8168585" lon="12.2114753"><ele>801.0</ele><time>2026-03-28T15:12:59.328Z</time></trkpt><trkpt lat="42.8166945" lon="12.2113937"><ele>801.0</ele><time>2026-03-28T15:13:00.328Z</time></trkpt><trkpt lat="42.8165391" lon="12.2113071"><ele>801.0</ele><time>2026-03-28T15:13:01.328Z</time></trkpt><trkpt lat="42.8163916" lon="12.2112172"><ele>801.0</ele><time>2026-03-28T15:13:02.327Z</time></trkpt><trkpt lat="42.8162597" lon="12.2111544"><ele>801.0</ele><time>2026-03-28T15:13:03.328Z</time></trkpt><trkpt lat="42.8161548" lon="12.2110911"><ele>801.0</ele><time>2026-03-28T15:13:04.328Z</time></trkpt><trkpt lat="42.8160393" lon="12.2110617"><ele>801.0</ele><time>2026-03-28T15:13:05.328Z</time></trkpt><trkpt lat="42.8159383" lon="12.211085"><ele>800.0</ele><time>2026-03-28T15:13:06.327Z</time></trkpt><trkpt lat="42.8158441" lon="12.2111541"><ele>799.0</ele><time>2026-03-28T15:13:07.328Z</time></trkpt><trkpt lat="42.8157459" lon="12.2112415"><ele>798.0</ele><time>2026-03-28T15:13:08.327Z</time></trkpt><trkpt lat="42.8156356" lon="12.211359"><ele>797.0</ele><time>2026-03-28T15:13:09.328Z</time></trkpt><trkpt lat="42.8155362" lon="12.211493"><ele>794.75</ele><time>2026-03-28T15:13:10.328Z</time></trkpt><trkpt lat="42.8154401" lon="12.2116348"><ele>792.5</ele><time>2026-03-28T15:13:11.328Z</time></trkpt><trkpt lat="42.8153626" lon="12.2118016"><ele>790.25</ele><time>2026-03-28T15:13:12.328Z</time></trkpt><trkpt lat="42.8152886" lon="12.2119932"><ele>788.0</ele><time>2026-03-28T15:13:13.328Z</time></trkpt><trkpt lat="42.8152242" lon="12.2121961"><ele>788.3333333333334</ele><time>2026-03-28T15:13:14.328Z</time></trkpt><trkpt lat="42.8151603" lon="12.2124065"><ele>788.6666666666667</ele><time>2026-03-28T15:13:15.328Z</time></trkpt><trkpt lat="42.8151019" lon="12.2126119"><ele>789.0</ele><time>2026-03-28T15:13:16.327Z</time></trkpt><trkpt lat="42.8150331" lon="12.2128096"><ele>789.0</ele><time>2026-03-28T15:13:17.328Z</time></trkpt><trkpt lat="42.814953" lon="12.2129878"><ele>789.0</ele><time>2026-03-28T15:13:18.328Z</time></trkpt><trkpt lat="42.8148687" lon="12.2131578"><ele>789.0</ele><time>2026-03-28T15:13:19.328Z</time></trkpt><trkpt lat="42.8147791" lon="12.2133074"><ele>789.0</ele><time>2026-03-28T15:13:20.327Z</time></trkpt><trkpt lat="42.8146797" lon="12.2134222"><ele>788.75</ele><time>2026-03-28T15:13:21.328Z</time></trkpt><trkpt lat="42.8145745" lon="12.2134956"><ele>788.5</ele><time>2026-03-28T15:13:22.328Z</time></trkpt><trkpt lat="42.8144586" lon="12.213535"><ele>788.25</ele><time>2026-03-28T15:13:23.328Z</time></trkpt><trkpt lat="42.8143337" lon="12.2135458"><ele>788.0</ele><time>2026-03-28T15:13:24.328Z</time></trkpt><trkpt lat="42.8142106" lon="12.21352"><ele>788.0</ele><time>2026-03-28T15:13:25.328Z</time></trkpt><trkpt lat="42.814095" lon="12.2135287"><ele>788.0</ele><time>2026-03-28T15:13:26.327Z</time></trkpt><trkpt lat="42.8139936" lon="12.2135589"><ele>788.0</ele><time>2026-03-28T15:13:27.328Z</time></trkpt><trkpt lat="42.813911" lon="12.2136535"><ele>788.0</ele><time>2026-03-28T15:13:28.328Z</time></trkpt><trkpt lat="42.8138337" lon="12.2137558"><ele>788.0</ele><time>2026-03-28T15:13:29.328Z</time></trkpt><trkpt lat="42.8137936" lon="12.2139344"><ele>786.75</ele><time>2026-03-28T15:13:30.327Z</time></trkpt><trkpt lat="42.813752" lon="12.214116"><ele>785.5</ele><time>2026-03-28T15:13:31.328Z</time></trkpt><trkpt lat="42.813736" lon="12.214315"><ele>784.25</ele><time>2026-03-28T15:13:32.328Z</time></trkpt><trkpt lat="42.8137378" lon="12.2145337"><ele>783.0</ele><time>2026-03-28T15:13:33.328Z</time></trkpt><trkpt lat="42.8137341" lon="12.214736"><ele>779.6666666666667</ele><time>2026-03-28T15:13:34.328Z</time></trkpt><trkpt lat="42.8137184" lon="12.2149467"><ele>776.3333333333334</ele><time>2026-03-28T15:13:35.328Z</time></trkpt><trkpt lat="42.8136711" lon="12.21514"><ele>773.0</ele><time>2026-03-28T15:13:36.328Z</time></trkpt><trkpt lat="42.813596" lon="12.2153193"><ele>773.0</ele><time>2026-03-28T15:13:37.327Z</time></trkpt><trkpt lat="42.8135213" lon="12.2154908"><ele>773.0</ele><time>2026-03-28T15:13:38.328Z</time></trkpt><trkpt lat="42.8134479" lon="12.2156375"><ele>773.0</ele><time>2026-03-28T15:13:39.327Z</time></trkpt><trkpt lat="42.8133633" lon="12.2157622"><ele>773.0</ele><time>2026-03-28T15:13:40.328Z</time></trkpt><trkpt lat="42.8132627" lon="12.2158518"><ele>773.75</ele><time>2026-03-28T15:13:41.328Z</time></trkpt><trkpt lat="42.8131583" lon="12.2159353"><ele>774.5</ele><time>2026-03-28T15:13:42.328Z</time></trkpt><trkpt lat="42.813037" lon="12.2159878"><ele>775.25</ele><time>2026-03-28T15:13:43.328Z</time></trkpt><trkpt lat="42.8129028" lon="12.2160175"><ele>776.0</ele><time>2026-03-28T15:13:44.328Z</time></trkpt><trkpt lat="42.8127673" lon="12.2160259"><ele>776.25</ele><time>2026-03-28T15:13:45.327Z</time></trkpt><trkpt lat="42.8126182" lon="12.2160286"><ele>776.5</ele><time>2026-03-28T15:13:46.328Z</time></trkpt><trkpt lat="42.8124758" lon="12.2160189"><ele>776.75</ele><time>2026-03-28T15:13:47.327Z</time></trkpt><trkpt lat="42.8123288" lon="12.2159676"><ele>777.0</ele><time>2026-03-28T15:13:48.327Z</time></trkpt><trkpt lat="42.812189" lon="12.215899"><ele>777.0</ele><time>2026-03-28T15:13:49.328Z</time></trkpt><trkpt lat="42.8120616" lon="12.2157934"><ele>777.0</ele><time>2026-03-28T15:13:50.328Z</time></trkpt><trkpt lat="42.8119508" lon="12.2156762"><ele>777.0</ele><time>2026-03-28T15:13:51.328Z</time></trkpt><trkpt lat="42.8118693" lon="12.2155338"><ele>777.0</ele><time>2026-03-28T15:13:52.328Z</time></trkpt><trkpt lat="42.8118095" lon="12.2153687"><ele>775.0</ele><time>2026-03-28T15:13:53.328Z</time></trkpt><trkpt lat="42.8117657" lon="12.215181"><ele>773.0</ele><time>2026-03-28T15:13:54.327Z</time></trkpt><trkpt lat="42.8117163" lon="12.2149772"><ele>771.0</ele><time>2026-03-28T15:13:55.327Z</time></trkpt><trkpt lat="42.8116645" lon="12.2147698"><ele>771.0</ele><time>2026-03-28T15:13:56.328Z</time></trkpt><trkpt lat="42.8116093" lon="12.2145564"><ele>771.0</ele><time>2026-03-28T15:13:57.327Z</time></trkpt><trkpt lat="42.8115549" lon="12.2143488"><ele>771.0</ele><time>2026-03-28T15:13:58.328Z</time></trkpt><trkpt lat="42.8115168" lon="12.2141615"><ele>771.0</ele><time>2026-03-28T15:13:59.328Z</time></trkpt><trkpt lat="42.8114988" lon="12.2139911"><ele>771.0</ele><time>2026-03-28T15:14:00.327Z</time></trkpt><trkpt lat="42.8115007" lon="12.2138246"><ele>771.0</ele><time>2026-03-28T15:14:01.328Z</time></trkpt><trkpt lat="42.8115301" lon="12.2136531"><ele>771.0</ele><time>2026-03-28T15:14:02.327Z</time></trkpt><trkpt lat="42.8115846" lon="12.2134811"><ele>770.25</ele><time>2026-03-28T15:14:03.327Z</time></trkpt><trkpt lat="42.8116474" lon="12.2133187"><ele>769.5</ele><time>2026-03-28T15:14:04.328Z</time></trkpt><trkpt lat="42.8117147" lon="12.2131579"><ele>768.75</ele><time>2026-03-28T15:14:05.328Z</time></trkpt><trkpt lat="42.8117718" lon="12.2130026"><ele>768.0</ele><time>2026-03-28T15:14:06.328Z</time></trkpt><trkpt lat="42.8117986" lon="12.2128477"><ele>766.75</ele><time>2026-03-28T15:14:07.327Z</time></trkpt><trkpt lat="42.8117805" lon="12.2126866"><ele>765.5</ele><time>2026-03-28T15:14:08.328Z</time></trkpt><trkpt lat="42.8117346" lon="12.2125301"><ele>764.25</ele><time>2026-03-28T15:14:09.328Z</time></trkpt><trkpt lat="42.8116617" lon="12.2123819"><ele>763.0</ele><time>2026-03-28T15:14:10.328Z</time></trkpt><trkpt lat="42.8115803" lon="12.2122383"><ele>762.0</ele><time>2026-03-28T15:14:11.328Z</time></trkpt><trkpt lat="42.8114736" lon="12.2121124"><ele>761.0</ele><time>2026-03-28T15:14:12.328Z</time></trkpt><trkpt lat="42.8113495" lon="12.212007"><ele>760.0</ele><time>2026-03-28T15:14:13.327Z</time></trkpt><trkpt lat="42.8112207" lon="12.2119267"><ele>759.0</ele><time>2026-03-28T15:14:14.328Z</time></trkpt><trkpt lat="42.8110789" lon="12.2118782"><ele>760.3333333333334</ele><time>2026-03-28T15:14:15.327Z</time></trkpt><trkpt lat="42.8109385" lon="12.2118525"><ele>761.6666666666667</ele><time>2026-03-28T15:14:16.328Z</time></trkpt><trkpt lat="42.8107783" lon="12.2118933"><ele>763.0</ele><time>2026-03-28T15:14:17.328Z</time></trkpt><trkpt lat="42.8106236" lon="12.211934"><ele>763.0</ele><time>2026-03-28T15:14:18.327Z</time></trkpt><trkpt lat="42.810452" lon="12.2119524"><ele>763.0</ele><time>2026-03-28T15:14:19.328Z</time></trkpt><trkpt lat="42.8102887" lon="12.2119549"><ele>763.0</ele><time>2026-03-28T15:14:20.327Z</time></trkpt><trkpt lat="42.8101368" lon="12.2119546"><ele>761.6666666666667</ele><time>2026-03-28T15:14:21.328Z</time></trkpt><trkpt lat="42.8099811" lon="12.2119295"><ele>760.3333333333334</ele><time>2026-03-28T15:14:22.327Z</time></trkpt><trkpt lat="42.8098355" lon="12.2118636"><ele>759.0</ele><time>2026-03-28T15:14:23.327Z</time></trkpt><trkpt lat="42.8096756" lon="12.2117944"><ele>759.0</ele><time>2026-03-28T15:14:24.328Z</time></trkpt><trkpt lat="42.8095128" lon="12.2117254"><ele>759.0</ele><time>2026-03-28T15:14:25.327Z</time></trkpt><trkpt lat="42.8093424" lon="12.2116522"><ele>759.0</ele><time>2026-03-28T15:14:26.328Z</time></trkpt><trkpt lat="42.8091749" lon="12.2115856"><ele>758.0</ele><time>2026-03-28T15:14:27.328Z</time></trkpt><trkpt lat="42.8090056" lon="12.2115202"><ele>757.0</ele><time>2026-03-28T15:14:28.328Z</time></trkpt><trkpt lat="42.8088378" lon="12.2114451"><ele>756.0</ele><time>2026-03-28T15:14:29.328Z</time></trkpt><trkpt lat="42.8086718" lon="12.2113652"><ele>754.3333333333334</ele><time>2026-03-28T15:14:30.328Z</time></trkpt><trkpt lat="42.8085134" lon="12.2112669"><ele>752.6666666666667</ele><time>2026-03-28T15:14:31.328Z</time></trkpt><trkpt lat="42.8083608" lon="12.2111422"><ele>751.0</ele><time>2026-03-28T15:14:32.328Z</time></trkpt><trkpt lat="42.8082021" lon="12.211024"><ele>748.3333333333334</ele><time>2026-03-28T15:14:33.328Z</time></trkpt><trkpt lat="42.808039" lon="12.2109011"><ele>745.6666666666666</ele><time>2026-03-28T15:14:34.327Z</time></trkpt><trkpt lat="42.8078956" lon="12.2107722"><ele>743.0</ele><time>2026-03-28T15:14:35.328Z</time></trkpt><trkpt lat="42.807758" lon="12.2106353"><ele>741.0</ele><time>2026-03-28T15:14:36.328Z</time></trkpt><trkpt lat="42.8076374" lon="12.2104922"><ele>739.0</ele><time>2026-03-28T15:14:37.328Z</time></trkpt><trkpt lat="42.8075262" lon="12.2103495"><ele>737.0</ele><time>2026-03-28T15:14:38.328Z</time></trkpt><trkpt lat="42.8074081" lon="12.2102294"><ele>737.0</ele><time>2026-03-28T15:14:39.328Z</time></trkpt><trkpt lat="42.8072826" lon="12.2101247"><ele>737.0</ele><time>2026-03-28T15:14:40.328Z</time></trkpt><trkpt lat="42.8071496" lon="12.2100287"><ele>737.0</ele><time>2026-03-28T15:14:41.328Z</time></trkpt><trkpt lat="42.807014" lon="12.2099443"><ele>737.0</ele><time>2026-03-28T15:14:42.327Z</time></trkpt><trkpt lat="42.8068765" lon="12.2098663"><ele>736.75</ele><time>2026-03-28T15:14:43.328Z</time></trkpt><trkpt lat="42.8067397" lon="12.2097925"><ele>736.5</ele><time>2026-03-28T15:14:44.328Z</time></trkpt><trkpt lat="42.8066226" lon="12.209692"><ele>736.25</ele><time>2026-03-28T15:14:45.328Z</time></trkpt><trkpt lat="42.8065083" lon="12.2095651"><ele>736.0</ele><time>2026-03-28T15:14:46.328Z</time></trkpt><trkpt lat="42.8064131" lon="12.209404"><ele>736.0</ele><time>2026-03-28T15:14:47.328Z</time></trkpt><trkpt lat="42.8063261" lon="12.2092378"><ele>736.0</ele><time>2026-03-28T15:14:48.328Z</time></trkpt><trkpt lat="42.8062331" lon="12.2090806"><ele>736.0</ele><time>2026-03-28T15:14:49.327Z</time></trkpt><trkpt lat="42.8061113" lon="12.2089476"><ele>733.0</ele><time>2026-03-28T15:14:50.327Z</time></trkpt><trkpt lat="42.8059641" lon="12.2088389"><ele>730.0</ele><time>2026-03-28T15:14:51.327Z</time></trkpt><trkpt lat="42.8058095" lon="12.2087396"><ele>727.0</ele><time>2026-03-28T15:14:52.327Z</time></trkpt><trkpt lat="42.8056479" lon="12.2086467"><ele>727.0</ele><time>2026-03-28T15:14:53.328Z</time></trkpt><trkpt lat="42.8054891" lon="12.208543"><ele>727.0</ele><time>2026-03-28T15:14:54.328Z</time></trkpt><trkpt lat="42.8053153" lon="12.2084352"><ele>727.0</ele><time>2026-03-28T15:14:55.328Z</time></trkpt><trkpt lat="42.8051452" lon="12.2083344"><ele>724.6666666666667</ele><time>2026-03-28T15:14:56.328Z</time></trkpt><trkpt lat="42.8049779" lon="12.2082388"><ele>722.3333333333334</ele><time>2026-03-28T15:14:57.328Z</time></trkpt><trkpt lat="42.8048145" lon="12.2081384"><ele>720.0</ele><time>2026-03-28T15:14:58.328Z</time></trkpt><trkpt lat="42.8046498" lon="12.2080507"><ele>720.0</ele><time>2026-03-28T15:14:59.328Z</time></trkpt><trkpt lat="42.8044863" lon="12.2079688"><ele>720.0</ele><time>2026-03-28T15:15:00.327Z</time></trkpt><trkpt lat="42.8043302" lon="12.2079138"><ele>720.0</ele><time>2026-03-28T15:15:01.327Z</time></trkpt><trkpt lat="42.8041711" lon="12.2078668"><ele>716.6666666666666</ele><time>2026-03-28T15:15:02.328Z</time></trkpt><trkpt lat="42.8040056" lon="12.2078618"><ele>713.3333333333333</ele><time>2026-03-28T15:15:03.328Z</time></trkpt><trkpt lat="42.8038313" lon="12.2078809"><ele>710.0</ele><time>2026-03-28T15:15:04.328Z</time></trkpt><trkpt lat="42.8036598" lon="12.2079147"><ele>710.3333333333333</ele><time>2026-03-28T15:15:05.328Z</time></trkpt><trkpt lat="42.8034955" lon="12.2079546"><ele>710.6666666666666</ele><time>2026-03-28T15:15:06.328Z</time></trkpt><trkpt lat="42.8033381" lon="12.2079914"><ele>711.0</ele><time>2026-03-28T15:15:07.328Z</time></trkpt><trkpt lat="42.8031844" lon="12.2080191"><ele>711.0</ele><time>2026-03-28T15:15:08.328Z</time></trkpt><trkpt lat="42.8030294" lon="12.2080207"><ele>711.0</ele><time>2026-03-28T15:15:09.328Z</time></trkpt><trkpt lat="42.8028729" lon="12.2079852"><ele>711.0</ele><time>2026-03-28T15:15:10.327Z</time></trkpt><trkpt lat="42.8027226" lon="12.2079079"><ele>709.3333333333334</ele><time>2026-03-28T15:15:11.328Z</time></trkpt><trkpt lat="42.8025835" lon="12.2077993"><ele>707.6666666666667</ele><time>2026-03-28T15:15:12.328Z</time></trkpt><trkpt lat="42.8024573" lon="12.2076718"><ele>706.0</ele><time>2026-03-28T15:15:13.328Z</time></trkpt><trkpt lat="42.802332" lon="12.207548"><ele>706.0</ele><time>2026-03-28T15:15:14.328Z</time></trkpt><trkpt lat="42.8022081" lon="12.2074403"><ele>706.0</ele><time>2026-03-28T15:15:15.328Z</time></trkpt><trkpt lat="42.8020736" lon="12.2073549"><ele>706.0</ele><time>2026-03-28T15:15:16.327Z</time></trkpt><trkpt lat="42.8019256" lon="12.2073028"><ele>706.0</ele><time>2026-03-28T15:15:17.328Z</time></trkpt><trkpt lat="42.8017719" lon="12.2072685"><ele>703.5</ele><time>2026-03-28T15:15:18.328Z</time></trkpt><trkpt lat="42.8016128" lon="12.2072431"><ele>701.0</ele><time>2026-03-28T15:15:19.327Z</time></trkpt><trkpt lat="42.8014695" lon="12.2072079"><ele>698.5</ele><time>2026-03-28T15:15:20.328Z</time></trkpt><trkpt lat="42.8013381" lon="12.2071487"><ele>696.0</ele><time>2026-03-28T15:15:21.328Z</time></trkpt><trkpt lat="42.8012292" lon="12.2070552"><ele>696.0</ele><time>2026-03-28T15:15:22.328Z</time></trkpt><trkpt lat="42.8011555" lon="12.2069289"><ele>696.0</ele><time>2026-03-28T15:15:23.328Z</time></trkpt><trkpt lat="42.8011107" lon="12.2067816"><ele>696.0</ele><time>2026-03-28T15:15:24.327Z</time></trkpt><trkpt lat="42.8010884" lon="12.2066125"><ele>696.0</ele><time>2026-03-28T15:15:25.328Z</time></trkpt><trkpt lat="42.8010749" lon="12.2064282"><ele>696.5</ele><time>2026-03-28T15:15:26.328Z</time></trkpt><trkpt lat="42.801067" lon="12.2062502"><ele>697.0</ele><time>2026-03-28T15:15:27.328Z</time></trkpt><trkpt lat="42.8010408" lon="12.2060829"><ele>697.5</ele><time>2026-03-28T15:15:28.328Z</time></trkpt><trkpt lat="42.8009964" lon="12.2059414"><ele>698.0</ele><time>2026-03-28T15:15:29.328Z</time></trkpt><trkpt lat="42.8009247" lon="12.2058355"><ele>698.0</ele><time>2026-03-28T15:15:30.328Z</time></trkpt><trkpt lat="42.8008262" lon="12.2057677"><ele>698.0</ele><time>2026-03-28T15:15:31.328Z</time></trkpt><trkpt lat="42.8007006" lon="12.2057286"><ele>698.0</ele><time>2026-03-28T15:15:32.327Z</time></trkpt><trkpt lat="42.8005592" lon="12.2057004"><ele>698.0</ele><time>2026-03-28T15:15:33.328Z</time></trkpt><trkpt lat="42.8003998" lon="12.2056838"><ele>698.0</ele><time>2026-03-28T15:15:34.328Z</time></trkpt><trkpt lat="42.8002371" lon="12.2056751"><ele>698.0</ele><time>2026-03-28T15:15:35.328Z</time></trkpt><trkpt lat="42.8000719" lon="12.2056759"><ele>698.0</ele><time>2026-03-28T15:15:36.328Z</time></trkpt><trkpt lat="42.7998953" lon="12.2056779"><ele>698.3333333333333</ele><time>2026-03-28T15:15:37.328Z</time></trkpt><trkpt lat="42.7997277" lon="12.2056703"><ele>698.6666666666666</ele><time>2026-03-28T15:15:38.328Z</time></trkpt><trkpt lat="42.7995694" lon="12.2056657"><ele>699.0</ele><time>2026-03-28T15:15:39.328Z</time></trkpt><trkpt lat="42.7994137" lon="12.2056521"><ele>697.75</ele><time>2026-03-28T15:15:40.327Z</time></trkpt><trkpt lat="42.799274" lon="12.2056181"><ele>696.5</ele><time>2026-03-28T15:15:41.328Z</time></trkpt><trkpt lat="42.7991549" lon="12.2055526"><ele>695.25</ele><time>2026-03-28T15:15:42.328Z</time></trkpt><trkpt lat="42.7990585" lon="12.2054549"><ele>694.0</ele><time>2026-03-28T15:15:43.327Z</time></trkpt><trkpt lat="42.798982" lon="12.2053207"><ele>694.0</ele><time>2026-03-28T15:15:44.328Z</time></trkpt><trkpt lat="42.7989151" lon="12.2051617"><ele>694.0</ele><time>2026-03-28T15:15:45.327Z</time></trkpt><trkpt lat="42.7988559" lon="12.2049818"><ele>694.0</ele><time>2026-03-28T15:15:46.328Z</time></trkpt><trkpt lat="42.7988147" lon="12.2047979"><ele>694.0</ele><time>2026-03-28T15:15:47.328Z</time></trkpt><trkpt lat="42.7987906" lon="12.2046117"><ele>694.0</ele><time>2026-03-28T15:15:48.328Z</time></trkpt><trkpt lat="42.7987988" lon="12.2044245"><ele>694.0</ele><time>2026-03-28T15:15:49.328Z</time></trkpt><trkpt lat="42.7988274" lon="12.2042488"><ele>694.0</ele><time>2026-03-28T15:15:50.328Z</time></trkpt><trkpt lat="42.7988563" lon="12.204083"><ele>694.0</ele><time>2026-03-28T15:15:51.327Z</time></trkpt><trkpt lat="42.7988569" lon="12.2039281"><ele>694.0</ele><time>2026-03-28T15:15:52.328Z</time></trkpt><trkpt lat="42.7988231" lon="12.2037668"><ele>694.0</ele><time>2026-03-28T15:15:53.328Z</time></trkpt><trkpt lat="42.7987608" lon="12.2036151"><ele>694.0</ele><time>2026-03-28T15:15:54.327Z</time></trkpt><trkpt lat="42.798668" lon="12.2034673"><ele>694.0</ele><time>2026-03-28T15:15:55.327Z</time></trkpt><trkpt lat="42.7985658" lon="12.2033212"><ele>694.25</ele><time>2026-03-28T15:15:56.328Z</time></trkpt><trkpt lat="42.7984711" lon="12.2031785"><ele>694.5</ele><time>2026-03-28T15:15:57.328Z</time></trkpt><trkpt lat="42.7983705" lon="12.2030728"><ele>694.75</ele><time>2026-03-28T15:15:58.328Z</time></trkpt><trkpt lat="42.7982572" lon="12.2029975"><ele>695.0</ele><time>2026-03-28T15:15:59.327Z</time></trkpt><trkpt lat="42.7981364" lon="12.20296"><ele>696.75</ele><time>2026-03-28T15:16:00.327Z</time></trkpt><trkpt lat="42.7979991" lon="12.2029712"><ele>698.5</ele><time>2026-03-28T15:16:01.328Z</time></trkpt><trkpt lat="42.7978633" lon="12.2030038"><ele>700.25</ele><time>2026-03-28T15:16:02.327Z</time></trkpt><trkpt lat="42.7977305" lon="12.2030604"><ele>702.0</ele><time>2026-03-28T15:16:03.328Z</time></trkpt><trkpt lat="42.7975985" lon="12.2031129"><ele>702.5</ele><time>2026-03-28T15:16:04.327Z</time></trkpt><trkpt lat="42.7974738" lon="12.2031631"><ele>703.0</ele><time>2026-03-28T15:16:05.328Z</time></trkpt><trkpt lat="42.7973514" lon="12.2031836"><ele>703.5</ele><time>2026-03-28T15:16:06.327Z</time></trkpt><trkpt lat="42.7972479" lon="12.2031608"><ele>704.0</ele><time>2026-03-28T15:16:07.328Z</time></trkpt><trkpt lat="42.7971593" lon="12.2030888"><ele>704.0</ele><time>2026-03-28T15:16:08.328Z</time></trkpt><trkpt lat="42.797083" lon="12.2029875"><ele>704.0</ele><time>2026-03-28T15:16:09.328Z</time></trkpt><trkpt lat="42.7970224" lon="12.2028535"><ele>704.0</ele><time>2026-03-28T15:16:10.328Z</time></trkpt><trkpt lat="42.7969825" lon="12.2027162"><ele>704.0</ele><time>2026-03-28T15:16:11.327Z</time></trkpt><trkpt lat="42.7969612" lon="12.2025703"><ele>704.0</ele><time>2026-03-28T15:16:12.328Z</time></trkpt><trkpt lat="42.7969495" lon="12.2024377"><ele>703.4000000000001</ele><time>2026-03-28T15:16:13.328Z</time></trkpt><trkpt lat="42.7969275" lon="12.202313"><ele>702.8</ele><time>2026-03-28T15:16:14.328Z</time></trkpt><trkpt lat="42.7968824" lon="12.2022024"><ele>702.2</ele><time>2026-03-28T15:16:15.328Z</time></trkpt><trkpt lat="42.7968158" lon="12.2021043"><ele>701.5999999999999</ele><time>2026-03-28T15:16:16.328Z</time></trkpt><trkpt lat="42.7967313" lon="12.2020239"><ele>701.0</ele><time>2026-03-28T15:16:17.328Z</time></trkpt><trkpt lat="42.7966279" lon="12.2019648"><ele>701.0</ele><time>2026-03-28T15:16:18.328Z</time></trkpt><trkpt lat="42.7965131" lon="12.2019272"><ele>701.0</ele><time>2026-03-28T15:16:19.328Z</time></trkpt><trkpt lat="42.796401" lon="12.2019067"><ele>701.0</ele><time>2026-03-28T15:16:20.328Z</time></trkpt><trkpt lat="42.7962926" lon="12.2018901"><ele>701.0</ele><time>2026-03-28T15:16:21.327Z</time></trkpt><trkpt lat="42.7961974" lon="12.2018616"><ele>701.0</ele><time>2026-03-28T15:16:22.327Z</time></trkpt><trkpt lat="42.7961251" lon="12.2018113"><ele>701.0</ele><time>2026-03-28T15:16:23.328Z</time></trkpt><trkpt lat="42.7960716" lon="12.2017431"><ele>701.0</ele><time>2026-03-28T15:16:24.328Z</time></trkpt><trkpt lat="42.7960423" lon="12.2016577"><ele>701.0</ele><time>2026-03-28T15:16:25.328Z</time></trkpt><trkpt lat="42.7960338" lon="12.2015604"><ele>701.0</ele><time>2026-03-28T15:16:26.328Z</time></trkpt><trkpt lat="42.7960266" lon="12.201436"><ele>701.0</ele><time>2026-03-28T15:16:27.328Z</time></trkpt><trkpt lat="42.7960058" lon="12.2013101"><ele>701.0</ele><time>2026-03-28T15:16:28.328Z</time></trkpt><trkpt lat="42.7959657" lon="12.2011842"><ele>699.8</ele><time>2026-03-28T15:16:29.327Z</time></trkpt><trkpt lat="42.7959055" lon="12.2010733"><ele>698.5999999999999</ele><time>2026-03-28T15:16:30.328Z</time></trkpt><trkpt lat="42.7958177" lon="12.2009804"><ele>697.4</ele><time>2026-03-28T15:16:31.328Z</time></trkpt><trkpt lat="42.7957143" lon="12.2009185"><ele>696.2</ele><time>2026-03-28T15:16:32.328Z</time></trkpt><trkpt lat="42.7955993" lon="12.2009029"><ele>695.0</ele><time>2026-03-28T15:16:33.328Z</time></trkpt><trkpt lat="42.7954798" lon="12.2009197"><ele>695.0</ele><time>2026-03-28T15:16:34.328Z</time></trkpt><trkpt lat="42.7953624" lon="12.200938"><ele>695.0</ele><time>2026-03-28T15:16:35.327Z</time></trkpt><trkpt lat="42.795247" lon="12.200949"><ele>695.0</ele><time>2026-03-28T15:16:36.328Z</time></trkpt><trkpt lat="42.7951374" lon="12.2009393"><ele>695.0</ele><time>2026-03-28T15:16:37.328Z</time></trkpt><trkpt lat="42.7950288" lon="12.2009135"><ele>693.2</ele><time>2026-03-28T15:16:38.327Z</time></trkpt><trkpt lat="42.7949259" lon="12.2008761"><ele>691.4</ele><time>2026-03-28T15:16:39.328Z</time></trkpt><trkpt lat="42.7948242" lon="12.2008375"><ele>689.5999999999999</ele><time>2026-03-28T15:16:40.327Z</time></trkpt><trkpt lat="42.7947212" lon="12.200821"><ele>687.8</ele><time>2026-03-28T15:16:41.328Z</time></trkpt><trkpt lat="42.7946135" lon="12.200837"><ele>686.0</ele><time>2026-03-28T15:16:42.327Z</time></trkpt><trkpt lat="42.7945092" lon="12.2008748"><ele>686.0</ele><time>2026-03-28T15:16:43.327Z</time></trkpt><trkpt lat="42.794406" lon="12.2009012"><ele>686.0</ele><time>2026-03-28T15:16:44.327Z</time></trkpt><trkpt lat="42.7942953" lon="12.2008952"><ele>686.0</ele><time>2026-03-28T15:16:45.328Z</time></trkpt><trkpt lat="42.794179" lon="12.2008698"><ele>686.0</ele><time>2026-03-28T15:16:46.328Z</time></trkpt><trkpt lat="42.7940485" lon="12.200841"><ele>684.5</ele><time>2026-03-28T15:16:47.328Z</time></trkpt><trkpt lat="42.7939186" lon="12.2008046"><ele>683.0</ele><time>2026-03-28T15:16:48.328Z</time></trkpt><trkpt lat="42.7937907" lon="12.2007649"><ele>681.5</ele><time>2026-03-28T15:16:49.327Z</time></trkpt><trkpt lat="42.7936658" lon="12.2007268"><ele>680.0</ele><time>2026-03-28T15:16:50.328Z</time></trkpt><trkpt lat="42.7935387" lon="12.2006778"><ele>681.0</ele><time>2026-03-28T15:16:51.327Z</time></trkpt><trkpt lat="42.7934155" lon="12.2006023"><ele>682.0</ele><time>2026-03-28T15:16:52.328Z</time></trkpt><trkpt lat="42.7933019" lon="12.2005157"><ele>683.0</ele><time>2026-03-28T15:16:53.327Z</time></trkpt><trkpt lat="42.7931892" lon="12.2004265"><ele>684.0</ele><time>2026-03-28T15:16:54.328Z</time></trkpt><trkpt lat="42.793076" lon="12.2003331"><ele>684.0</ele><time>2026-03-28T15:16:55.327Z</time></trkpt><trkpt lat="42.7929577" lon="12.2002403"><ele>684.0</ele><time>2026-03-28T15:16:56.327Z</time></trkpt><trkpt lat="42.7928295" lon="12.2001573"><ele>684.0</ele><time>2026-03-28T15:16:57.328Z</time></trkpt><trkpt lat="42.7926989" lon="12.2000782"><ele>684.0</ele><time>2026-03-28T15:16:58.328Z</time></trkpt><trkpt lat="42.7925517" lon="12.2000171"><ele>681.0</ele><time>2026-03-28T15:16:59.328Z</time></trkpt><trkpt lat="42.7924045" lon="12.1999739"><ele>678.0</ele><time>2026-03-28T15:17:00.328Z</time></trkpt><trkpt lat="42.7922615" lon="12.1999453"><ele>675.0</ele><time>2026-03-28T15:17:01.328Z</time></trkpt><trkpt lat="42.7921282" lon="12.1999123"><ele>672.0</ele><time>2026-03-28T15:17:02.328Z</time></trkpt><trkpt lat="42.7919964" lon="12.1998588"><ele>672.75</ele><time>2026-03-28T15:17:03.328Z</time></trkpt><trkpt lat="42.7918723" lon="12.1998031"><ele>673.5</ele><time>2026-03-28T15:17:04.327Z</time></trkpt><trkpt lat="42.7917583" lon="12.1997366"><ele>674.25</ele><time>2026-03-28T15:17:05.327Z</time></trkpt><trkpt lat="42.791674" lon="12.1996297"><ele>675.0</ele><time>2026-03-28T15:17:06.328Z</time></trkpt><trkpt lat="42.7915941" lon="12.1995115"><ele>672.0</ele><time>2026-03-28T15:17:07.328Z</time></trkpt><trkpt lat="42.7915237" lon="12.199405"><ele>669.0</ele><time>2026-03-28T15:17:08.327Z</time></trkpt><trkpt lat="42.7914444" lon="12.1993194"><ele>666.0</ele><time>2026-03-28T15:17:09.328Z</time></trkpt><trkpt lat="42.7913594" lon="12.1992471"><ele>663.0</ele><time>2026-03-28T15:17:10.328Z</time></trkpt><trkpt lat="42.7912563" lon="12.1992145"><ele>660.0</ele><time>2026-03-28T15:17:11.328Z</time></trkpt><trkpt lat="42.7911464" lon="12.1992293"><ele>660.0</ele><time>2026-03-28T15:17:12.327Z</time></trkpt><trkpt lat="42.7910374" lon="12.1992815"><ele>660.0</ele><time>2026-03-28T15:17:13.328Z</time></trkpt><trkpt lat="42.7909398" lon="12.1993543"><ele>660.0</ele><time>2026-03-28T15:17:14.327Z</time></trkpt><trkpt lat="42.790854" lon="12.1994315"><ele>660.0</ele><time>2026-03-28T15:17:15.327Z</time></trkpt><trkpt lat="42.7907572" lon="12.1994713"><ele>660.0</ele><time>2026-03-28T15:17:16.327Z</time></trkpt><trkpt lat="42.7906611" lon="12.1994713"><ele>658.25</ele><time>2026-03-28T15:17:17.327Z</time></trkpt><trkpt lat="42.7905685" lon="12.1994245"><ele>656.5</ele><time>2026-03-28T15:17:18.328Z</time></trkpt><trkpt lat="42.7904798" lon="12.1993422"><ele>654.75</ele><time>2026-03-28T15:17:19.327Z</time></trkpt><trkpt lat="42.7903787" lon="12.1992353"><ele>653.0</ele><time>2026-03-28T15:17:20.327Z</time></trkpt><trkpt lat="42.7902734" lon="12.19912"><ele>652.0</ele><time>2026-03-28T15:17:21.327Z</time></trkpt><trkpt lat="42.7901637" lon="12.1990186"><ele>651.0</ele><time>2026-03-28T15:17:22.327Z</time></trkpt><trkpt lat="42.7900542" lon="12.1989117"><ele>650.0</ele><time>2026-03-28T15:17:23.328Z</time></trkpt><trkpt lat="42.7899427" lon="12.1988093"><ele>649.0</ele><time>2026-03-28T15:17:24.327Z</time></trkpt><trkpt lat="42.7898328" lon="12.198714"><ele>645.75</ele><time>2026-03-28T15:17:25.327Z</time></trkpt><trkpt lat="42.7897241" lon="12.1986266"><ele>642.5</ele><time>2026-03-28T15:17:26.328Z</time></trkpt><trkpt lat="42.7896019" lon="12.1985724"><ele>639.25</ele><time>2026-03-28T15:17:27.328Z</time></trkpt><trkpt lat="42.7894954" lon="12.198546"><ele>636.0</ele><time>2026-03-28T15:17:28.328Z</time></trkpt><trkpt lat="42.7893968" lon="12.198566"><ele>635.6</ele><time>2026-03-28T15:17:29.327Z</time></trkpt><trkpt lat="42.7893191" lon="12.1986386"><ele>635.2</ele><time>2026-03-28T15:17:30.328Z</time></trkpt><trkpt lat="42.7892645" lon="12.1987417"><ele>634.8</ele><time>2026-03-28T15:17:31.327Z</time></trkpt><trkpt lat="42.7892367" lon="12.1988509"><ele>634.4</ele><time>2026-03-28T15:17:32.328Z</time></trkpt><trkpt lat="42.7892321" lon="12.1989821"><ele>634.0</ele><time>2026-03-28T15:17:33.327Z</time></trkpt><trkpt lat="42.7892456" lon="12.1991309"><ele>635.0</ele><time>2026-03-28T15:17:34.328Z</time></trkpt><trkpt lat="42.7892816" lon="12.1992774"><ele>636.0</ele><time>2026-03-28T15:17:35.328Z</time></trkpt><trkpt lat="42.7893345" lon="12.1994209"><ele>637.0</ele><time>2026-03-28T15:17:36.328Z</time></trkpt><trkpt lat="42.789386" lon="12.1995396"><ele>638.0</ele><time>2026-03-28T15:17:37.327Z</time></trkpt><trkpt lat="42.789428" lon="12.1996584"><ele>639.0</ele><time>2026-03-28T15:17:38.328Z</time></trkpt><trkpt lat="42.7894639" lon="12.1997595"><ele>639.1666666666666</ele><time>2026-03-28T15:17:39.328Z</time></trkpt><trkpt lat="42.7894747" lon="12.1998643"><ele>639.3333333333334</ele><time>2026-03-28T15:17:40.327Z</time></trkpt><trkpt lat="42.7894589" lon="12.1999646"><ele>639.5</ele><time>2026-03-28T15:17:41.328Z</time></trkpt><trkpt lat="42.7893789" lon="12.2000408"><ele>639.6666666666667</ele><time>2026-03-28T15:17:42.328Z</time></trkpt><trkpt lat="42.7892953" lon="12.2001041"><ele>639.8333333333334</ele><time>2026-03-28T15:17:43.327Z</time></trkpt><trkpt lat="42.7892079" lon="12.2001552"><ele>640.0</ele><time>2026-03-28T15:17:44.328Z</time></trkpt><trkpt lat="42.7890873" lon="12.2001582"><ele>640.0</ele><time>2026-03-28T15:17:45.328Z</time></trkpt><trkpt lat="42.7889673" lon="12.2001299"><ele>640.0</ele><time>2026-03-28T15:17:46.327Z</time></trkpt><trkpt lat="42.7888493" lon="12.2000873"><ele>640.0</ele><time>2026-03-28T15:17:47.328Z</time></trkpt><trkpt lat="42.7887323" lon="12.20002"><ele>640.0</ele><time>2026-03-28T15:17:48.328Z</time></trkpt><trkpt lat="42.7886209" lon="12.1999274"><ele>640.5</ele><time>2026-03-28T15:17:49.328Z</time></trkpt><trkpt lat="42.7885072" lon="12.1998396"><ele>641.0</ele><time>2026-03-28T15:17:50.328Z</time></trkpt><trkpt lat="42.7883991" lon="12.1997338"><ele>641.5</ele><time>2026-03-28T15:17:51.328Z</time></trkpt><trkpt lat="42.7882845" lon="12.1996502"><ele>642.0</ele><time>2026-03-28T15:17:52.328Z</time></trkpt><trkpt lat="42.7881596" lon="12.1995728"><ele>642.0</ele><time>2026-03-28T15:17:53.328Z</time></trkpt><trkpt lat="42.7880274" lon="12.1994915"><ele>642.0</ele><time>2026-03-28T15:17:54.327Z</time></trkpt><trkpt lat="42.787898" lon="12.1994513"><ele>642.0</ele><time>2026-03-28T15:17:55.328Z</time></trkpt><trkpt lat="42.7877669" lon="12.1994071"><ele>642.0</ele><time>2026-03-28T15:17:56.327Z</time></trkpt><trkpt lat="42.7876689" lon="12.1993335"><ele>642.0</ele><time>2026-03-28T15:17:57.328Z</time></trkpt><trkpt lat="42.7875692" lon="12.199249"><ele>642.0</ele><time>2026-03-28T15:17:58.328Z</time></trkpt><trkpt lat="42.7874945" lon="12.1991426"><ele>642.0</ele><time>2026-03-28T15:17:59.328Z</time></trkpt><trkpt lat="42.787429" lon="12.1990233"><ele>642.0</ele><time>2026-03-28T15:18:00.328Z</time></trkpt><trkpt lat="42.7873753" lon="12.1988862"><ele>642.0</ele><time>2026-03-28T15:18:01.327Z</time></trkpt><trkpt lat="42.7873268" lon="12.198757"><ele>638.6</ele><time>2026-03-28T15:18:02.328Z</time></trkpt><trkpt lat="42.7872726" lon="12.1986452"><ele>635.2</ele><time>2026-03-28T15:18:03.328Z</time></trkpt><trkpt lat="42.7871911" lon="12.1985646"><ele>631.8</ele><time>2026-03-28T15:18:04.328Z</time></trkpt><trkpt lat="42.7871075" lon="12.1984899"><ele>628.4</ele><time>2026-03-28T15:18:05.328Z</time></trkpt><trkpt lat="42.7869933" lon="12.1984425"><ele>625.0</ele><time>2026-03-28T15:18:06.327Z</time></trkpt><trkpt lat="42.7868729" lon="12.1984252"><ele>628.0</ele><time>2026-03-28T15:18:07.328Z</time></trkpt><trkpt lat="42.7867415" lon="12.1984185"><ele>631.0</ele><time>2026-03-28T15:18:08.328Z</time></trkpt><trkpt lat="42.7865983" lon="12.1984255"><ele>634.0</ele><time>2026-03-28T15:18:09.328Z</time></trkpt><trkpt lat="42.7864627" lon="12.1984319"><ele>637.0</ele><time>2026-03-28T15:18:10.328Z</time></trkpt><trkpt lat="42.786323" lon="12.1984377"><ele>637.0</ele><time>2026-03-28T15:18:11.328Z</time></trkpt><trkpt lat="42.7861894" lon="12.1984532"><ele>637.0</ele><time>2026-03-28T15:18:12.328Z</time></trkpt><trkpt lat="42.7860585" lon="12.1984747"><ele>637.0</ele><time>2026-03-28T15:18:13.327Z</time></trkpt><trkpt lat="42.7859255" lon="12.1985198"><ele>637.0</ele><time>2026-03-28T15:18:14.328Z</time></trkpt><trkpt lat="42.785802" lon="12.1985907"><ele>636.5</ele><time>2026-03-28T15:18:15.328Z</time></trkpt><trkpt lat="42.7856863" lon="12.1986824"><ele>636.0</ele><time>2026-03-28T15:18:16.328Z</time></trkpt><trkpt lat="42.7855636" lon="12.1987764"><ele>635.5</ele><time>2026-03-28T15:18:17.328Z</time></trkpt><trkpt lat="42.7854341" lon="12.198852"><ele>635.0</ele><time>2026-03-28T15:18:18.327Z</time></trkpt><trkpt lat="42.7852998" lon="12.1989131"><ele>632.5</ele><time>2026-03-28T15:18:19.328Z</time></trkpt><trkpt lat="42.7851572" lon="12.1989511"><ele>630.0</ele><time>2026-03-28T15:18:20.328Z</time></trkpt><trkpt lat="42.7850086" lon="12.1989882"><ele>627.5</ele><time>2026-03-28T15:18:21.328Z</time></trkpt><trkpt lat="42.784862" lon="12.1990437"><ele>625.0</ele><time>2026-03-28T15:18:22.328Z</time></trkpt><trkpt lat="42.7847185" lon="12.1991118"><ele>633.0</ele><time>2026-03-28T15:18:23.328Z</time></trkpt><trkpt lat="42.7845554" lon="12.1991367"><ele>641.0</ele><time>2026-03-28T15:18:24.327Z</time></trkpt><trkpt lat="42.7844031" lon="12.1991498"><ele>649.0</ele><time>2026-03-28T15:18:25.328Z</time></trkpt><trkpt lat="42.7842573" lon="12.1991505"><ele>649.0</ele><time>2026-03-28T15:18:26.328Z</time></trkpt><trkpt lat="42.7841041" lon="12.1991501"><ele>649.0</ele><time>2026-03-28T15:18:27.328Z</time></trkpt><trkpt lat="42.7839655" lon="12.199154"><ele>649.0</ele><time>2026-03-28T15:18:28.327Z</time></trkpt><trkpt lat="42.7838286" lon="12.1991595"><ele>649.0</ele><time>2026-03-28T15:18:29.328Z</time></trkpt><trkpt lat="42.7837047" lon="12.1991587"><ele>649.0</ele><time>2026-03-28T15:18:30.328Z</time></trkpt><trkpt lat="42.7835803" lon="12.1991534"><ele>649.0</ele><time>2026-03-28T15:18:31.328Z</time></trkpt><trkpt lat="42.7834607" lon="12.1991819"><ele>649.0</ele><time>2026-03-28T15:18:32.328Z</time></trkpt><trkpt lat="42.7833841" lon="12.1992421"><ele>649.0</ele><time>2026-03-28T15:18:33.328Z</time></trkpt><trkpt lat="42.7833049" lon="12.1993387"><ele>649.0</ele><time>2026-03-28T15:18:34.328Z</time></trkpt><trkpt lat="42.783255" lon="12.199477"><ele>648.5</ele><time>2026-03-28T15:18:35.328Z</time></trkpt><trkpt lat="42.7832101" lon="12.1996418"><ele>648.0</ele><time>2026-03-28T15:18:36.327Z</time></trkpt><trkpt lat="42.7831724" lon="12.1998201"><ele>647.5</ele><time>2026-03-28T15:18:37.328Z</time></trkpt><trkpt lat="42.7831221" lon="12.1999889"><ele>647.0</ele><time>2026-03-28T15:18:38.328Z</time></trkpt><trkpt lat="42.7830646" lon="12.2001652"><ele>644.75</ele><time>2026-03-28T15:18:39.328Z</time></trkpt><trkpt lat="42.7829729" lon="12.2003061"><ele>642.5</ele><time>2026-03-28T15:18:40.328Z</time></trkpt><trkpt lat="42.7828804" lon="12.2004363"><ele>640.25</ele><time>2026-03-28T15:18:41.328Z</time></trkpt><trkpt lat="42.7827515" lon="12.2004924"><ele>638.0</ele><time>2026-03-28T15:18:42.328Z</time></trkpt><trkpt lat="42.7826181" lon="12.2005562"><ele>638.0</ele><time>2026-03-28T15:18:43.328Z</time></trkpt><trkpt lat="42.7824753" lon="12.200632"><ele>638.0</ele><time>2026-03-28T15:18:44.328Z</time></trkpt><trkpt lat="42.7823454" lon="12.2007495"><ele>638.0</ele><time>2026-03-28T15:18:45.327Z</time></trkpt><trkpt lat="42.7822215" lon="12.2008761"><ele>638.6666666666666</ele><time>2026-03-28T15:18:46.328Z</time></trkpt><trkpt lat="42.7821058" lon="12.2010137"><ele>639.3333333333334</ele><time>2026-03-28T15:18:47.328Z</time></trkpt><trkpt lat="42.7819673" lon="12.2011298"><ele>640.0</ele><time>2026-03-28T15:18:48.328Z</time></trkpt><trkpt lat="42.7818277" lon="12.2012454"><ele>640.0</ele><time>2026-03-28T15:18:49.327Z</time></trkpt><trkpt lat="42.7816815" lon="12.2013393"><ele>640.0</ele><time>2026-03-28T15:18:50.328Z</time></trkpt><trkpt lat="42.7815278" lon="12.201421"><ele>640.0</ele><time>2026-03-28T15:18:51.327Z</time></trkpt><trkpt lat="42.7813717" lon="12.2015008"><ele>642.6666666666667</ele><time>2026-03-28T15:18:52.327Z</time></trkpt><trkpt lat="42.7812033" lon="12.2015595"><ele>645.3333333333334</ele><time>2026-03-28T15:18:53.327Z</time></trkpt><trkpt lat="42.7810466" lon="12.2015997"><ele>648.0</ele><time>2026-03-28T15:18:54.328Z</time></trkpt><trkpt lat="42.7808961" lon="12.2016061"><ele>648.0</ele><time>2026-03-28T15:18:55.327Z</time></trkpt><trkpt lat="42.7807574" lon="12.2015929"><ele>648.0</ele><time>2026-03-28T15:18:56.327Z</time></trkpt><trkpt lat="42.7806251" lon="12.201594"><ele>648.0</ele><time>2026-03-28T15:18:57.328Z</time></trkpt><trkpt lat="42.7804882" lon="12.20162"><ele>648.0</ele><time>2026-03-28T15:18:58.327Z</time></trkpt><trkpt lat="42.7803597" lon="12.2016552"><ele>648.0</ele><time>2026-03-28T15:18:59.328Z</time></trkpt><trkpt lat="42.7802342" lon="12.2017114"><ele>648.0</ele><time>2026-03-28T15:19:00.328Z</time></trkpt><trkpt lat="42.7801246" lon="12.2017948"><ele>648.0</ele><time>2026-03-28T15:19:01.328Z</time></trkpt><trkpt lat="42.7800293" lon="12.201881"><ele>648.0</ele><time>2026-03-28T15:19:02.328Z</time></trkpt><trkpt lat="42.7799393" lon="12.2019914"><ele>649.0</ele><time>2026-03-28T15:19:03.328Z</time></trkpt><trkpt lat="42.7798888" lon="12.2022107"><ele>650.0</ele><time>2026-03-28T15:19:04.328Z</time></trkpt><trkpt lat="42.7798148" lon="12.2023707"><ele>651.0</ele><time>2026-03-28T15:19:05.328Z</time></trkpt><trkpt lat="42.7797252" lon="12.2025394"><ele>651.0</ele><time>2026-03-28T15:19:06.327Z</time></trkpt><trkpt lat="42.7796316" lon="12.202712"><ele>651.0</ele><time>2026-03-28T15:19:07.328Z</time></trkpt><trkpt lat="42.779534" lon="12.202883"><ele>651.0</ele><time>2026-03-28T15:19:08.327Z</time></trkpt><trkpt lat="42.7794568" lon="12.2030555"><ele>653.25</ele><time>2026-03-28T15:19:09.328Z</time></trkpt><trkpt lat="42.7793785" lon="12.2032167"><ele>655.5</ele><time>2026-03-28T15:19:10.328Z</time></trkpt><trkpt lat="42.7792994" lon="12.2033621"><ele>657.75</ele><time>2026-03-28T15:19:11.328Z</time></trkpt><trkpt lat="42.7792252" lon="12.2034892"><ele>660.0</ele><time>2026-03-28T15:19:12.328Z</time></trkpt><trkpt lat="42.7791187" lon="12.2035692"><ele>655.0</ele><time>2026-03-28T15:19:13.328Z</time></trkpt><trkpt lat="42.7789929" lon="12.2036112"><ele>650.0</ele><time>2026-03-28T15:19:14.327Z</time></trkpt><trkpt lat="42.778857" lon="12.2036448"><ele>645.0</ele><time>2026-03-28T15:19:15.327Z</time></trkpt><trkpt lat="42.7787228" lon="12.2036799"><ele>640.0</ele><time>2026-03-28T15:19:16.327Z</time></trkpt><trkpt lat="42.7785815" lon="12.203707"><ele>637.5</ele><time>2026-03-28T15:19:17.328Z</time></trkpt><trkpt lat="42.7784418" lon="12.203743"><ele>635.0</ele><time>2026-03-28T15:19:18.328Z</time></trkpt><trkpt lat="42.7783024" lon="12.2037709"><ele>632.5</ele><time>2026-03-28T15:19:19.327Z</time></trkpt><trkpt lat="42.7781776" lon="12.2038013"><ele>630.0</ele><time>2026-03-28T15:19:20.328Z</time></trkpt><trkpt lat="42.7780461" lon="12.2038339"><ele>630.0</ele><time>2026-03-28T15:19:21.328Z</time></trkpt><trkpt lat="42.7779348" lon="12.2038992"><ele>630.0</ele><time>2026-03-28T15:19:22.328Z</time></trkpt><trkpt lat="42.7778223" lon="12.2039885"><ele>630.0</ele><time>2026-03-28T15:19:23.328Z</time></trkpt><trkpt lat="42.7777436" lon="12.204126"><ele>630.0</ele><time>2026-03-28T15:19:24.328Z</time></trkpt><trkpt lat="42.7776713" lon="12.2042849"><ele>630.25</ele><time>2026-03-28T15:19:25.328Z</time></trkpt><trkpt lat="42.777597" lon="12.2044475"><ele>630.5</ele><time>2026-03-28T15:19:26.328Z</time></trkpt><trkpt lat="42.7775131" lon="12.2046115"><ele>630.75</ele><time>2026-03-28T15:19:27.328Z</time></trkpt><trkpt lat="42.7774259" lon="12.2047768"><ele>631.0</ele><time>2026-03-28T15:19:28.328Z</time></trkpt><trkpt lat="42.7773364" lon="12.2049476"><ele>631.0</ele><time>2026-03-28T15:19:29.327Z</time></trkpt><trkpt lat="42.7772405" lon="12.2051074"><ele>631.0</ele><time>2026-03-28T15:19:30.328Z</time></trkpt><trkpt lat="42.7771444" lon="12.2052818"><ele>631.0</ele><time>2026-03-28T15:19:31.328Z</time></trkpt><trkpt lat="42.7770469" lon="12.2054447"><ele>631.0</ele><time>2026-03-28T15:19:32.328Z</time></trkpt><trkpt lat="42.7769495" lon="12.2056033"><ele>631.0</ele><time>2026-03-28T15:19:33.328Z</time></trkpt><trkpt lat="42.7768639" lon="12.2057607"><ele>631.0</ele><time>2026-03-28T15:19:34.328Z</time></trkpt><trkpt lat="42.7767819" lon="12.2059133"><ele>631.0</ele><time>2026-03-28T15:19:35.328Z</time></trkpt><trkpt lat="42.7766991" lon="12.2060501"><ele>632.25</ele><time>2026-03-28T15:19:36.327Z</time></trkpt><trkpt lat="42.7766088" lon="12.2061723"><ele>633.5</ele><time>2026-03-28T15:19:37.328Z</time></trkpt><trkpt lat="42.7765104" lon="12.2062548"><ele>634.75</ele><time>2026-03-28T15:19:38.327Z</time></trkpt><trkpt lat="42.7764091" lon="12.2063212"><ele>636.0</ele><time>2026-03-28T15:19:39.328Z</time></trkpt><trkpt lat="42.7762829" lon="12.2063569"><ele>636.0</ele><time>2026-03-28T15:19:40.328Z</time></trkpt><trkpt lat="42.7761579" lon="12.2063608"><ele>636.0</ele><time>2026-03-28T15:19:41.327Z</time></trkpt><trkpt lat="42.7760355" lon="12.2063526"><ele>636.0</ele><time>2026-03-28T15:19:42.327Z</time></trkpt><trkpt lat="42.7759018" lon="12.2062995"><ele>636.0</ele><time>2026-03-28T15:19:43.327Z</time></trkpt><trkpt lat="42.7757701" lon="12.2062522"><ele>636.0</ele><time>2026-03-28T15:19:44.327Z</time></trkpt><trkpt lat="42.7756439" lon="12.206173"><ele>636.0</ele><time>2026-03-28T15:19:45.327Z</time></trkpt><trkpt lat="42.7755223" lon="12.2060758"><ele>636.0</ele><time>2026-03-28T15:19:46.327Z</time></trkpt><trkpt lat="42.7754117" lon="12.2059789"><ele>636.0</ele><time>2026-03-28T15:19:47.327Z</time></trkpt><trkpt lat="42.7753096" lon="12.2058933"><ele>636.0</ele><time>2026-03-28T15:19:48.328Z</time></trkpt><trkpt lat="42.7752091" lon="12.2058151"><ele>636.0</ele><time>2026-03-28T15:19:49.327Z</time></trkpt><trkpt lat="42.7751049" lon="12.2057639"><ele>636.0</ele><time>2026-03-28T15:19:50.328Z</time></trkpt><trkpt lat="42.7749947" lon="12.2057428"><ele>636.0</ele><time>2026-03-28T15:19:51.327Z</time></trkpt><trkpt lat="42.7748787" lon="12.2057904"><ele>633.8</ele><time>2026-03-28T15:19:52.328Z</time></trkpt><trkpt lat="42.7747759" lon="12.2058577"><ele>631.6</ele><time>2026-03-28T15:19:53.328Z</time></trkpt><trkpt lat="42.7746726" lon="12.2059072"><ele>629.4</ele><time>2026-03-28T15:19:54.328Z</time></trkpt><trkpt lat="42.7745763" lon="12.2059211"><ele>627.2</ele><time>2026-03-28T15:19:55.327Z</time></trkpt><trkpt lat="42.7744833" lon="12.2058705"><ele>625.0</ele><time>2026-03-28T15:19:56.327Z</time></trkpt><trkpt lat="42.7743938" lon="12.2058024"><ele>624.25</ele><time>2026-03-28T15:19:57.328Z</time></trkpt><trkpt lat="42.7743175" lon="12.2057095"><ele>623.5</ele><time>2026-03-28T15:19:58.328Z</time></trkpt><trkpt lat="42.7742407" lon="12.205578"><ele>622.75</ele><time>2026-03-28T15:19:59.328Z</time></trkpt><trkpt lat="42.7741481" lon="12.2054661"><ele>622.0</ele><time>2026-03-28T15:20:00.328Z</time></trkpt><trkpt lat="42.7740464" lon="12.2053711"><ele>621.0</ele><time>2026-03-28T15:20:01.328Z</time></trkpt><trkpt lat="42.7739403" lon="12.2053029"><ele>620.0</ele><time>2026-03-28T15:20:02.327Z</time></trkpt><trkpt lat="42.7738211" lon="12.2052819"><ele>619.0</ele><time>2026-03-28T15:20:03.328Z</time></trkpt><trkpt lat="42.7737015" lon="12.2052712"><ele>618.0</ele><time>2026-03-28T15:20:04.328Z</time></trkpt><trkpt lat="42.773569" lon="12.2052778"><ele>620.25</ele><time>2026-03-28T15:20:05.328Z</time></trkpt><trkpt lat="42.7734476" lon="12.2052919"><ele>622.5</ele><time>2026-03-28T15:20:06.328Z</time></trkpt><trkpt lat="42.7733237" lon="12.2053326"><ele>624.75</ele><time>2026-03-28T15:20:07.328Z</time></trkpt><trkpt lat="42.7732019" lon="12.2053895"><ele>627.0</ele><time>2026-03-28T15:20:08.327Z</time></trkpt><trkpt lat="42.7730926" lon="12.2054651"><ele>627.0</ele><time>2026-03-28T15:20:09.327Z</time></trkpt><trkpt lat="42.7729973" lon="12.2055555"><ele>627.0</ele><time>2026-03-28T15:20:10.328Z</time></trkpt><trkpt lat="42.772912" lon="12.2056603"><ele>627.0</ele><time>2026-03-28T15:20:11.327Z</time></trkpt><trkpt lat="42.7728478" lon="12.2058026"><ele>627.0</ele><time>2026-03-28T15:20:12.328Z</time></trkpt><trkpt lat="42.7727867" lon="12.2059701"><ele>626.75</ele><time>2026-03-28T15:20:13.328Z</time></trkpt><trkpt lat="42.7727306" lon="12.2061376"><ele>626.5</ele><time>2026-03-28T15:20:14.328Z</time></trkpt><trkpt lat="42.7726798" lon="12.2063029"><ele>626.25</ele><time>2026-03-28T15:20:15.328Z</time></trkpt><trkpt lat="42.7726314" lon="12.2064701"><ele>626.0</ele><time>2026-03-28T15:20:16.328Z</time></trkpt><trkpt lat="42.7725826" lon="12.2066108"><ele>627.2</ele><time>2026-03-28T15:20:17.328Z</time></trkpt><trkpt lat="42.7725199" lon="12.2067362"><ele>628.4000000000001</ele><time>2026-03-28T15:20:18.328Z</time></trkpt><trkpt lat="42.7724494" lon="12.2068466"><ele>629.6</ele><time>2026-03-28T15:20:19.328Z</time></trkpt><trkpt lat="42.7723429" lon="12.2068991"><ele>630.8000000000001</ele><time>2026-03-28T15:20:20.328Z</time></trkpt><trkpt lat="42.7722275" lon="12.2069253"><ele>632.0</ele><time>2026-03-28T15:20:21.327Z</time></trkpt><trkpt lat="42.7721152" lon="12.2069224"><ele>632.0</ele><time>2026-03-28T15:20:22.328Z</time></trkpt><trkpt lat="42.7720094" lon="12.2068688"><ele>632.0</ele><time>2026-03-28T15:20:23.328Z</time></trkpt><trkpt lat="42.7719116" lon="12.2067922"><ele>632.0</ele><time>2026-03-28T15:20:24.328Z</time></trkpt><trkpt lat="42.7718215" lon="12.2066836"><ele>632.0</ele><time>2026-03-28T15:20:25.328Z</time></trkpt><trkpt lat="42.7717521" lon="12.2065372"><ele>632.75</ele><time>2026-03-28T15:20:26.328Z</time></trkpt><trkpt lat="42.7716813" lon="12.2063869"><ele>633.5</ele><time>2026-03-28T15:20:27.327Z</time></trkpt><trkpt lat="42.7716131" lon="12.2062419"><ele>634.25</ele><time>2026-03-28T15:20:28.328Z</time></trkpt><trkpt lat="42.7715283" lon="12.2061121"><ele>635.0</ele><time>2026-03-28T15:20:29.328Z</time></trkpt><trkpt lat="42.7714474" lon="12.205984"><ele>635.0</ele><time>2026-03-28T15:20:30.328Z</time></trkpt><trkpt lat="42.7713861" lon="12.2058405"><ele>635.0</ele><time>2026-03-28T15:20:31.328Z</time></trkpt><trkpt lat="42.7713295" lon="12.2056915"><ele>635.0</ele><time>2026-03-28T15:20:32.328Z</time></trkpt><trkpt lat="42.7712935" lon="12.2055312"><ele>635.0</ele><time>2026-03-28T15:20:33.328Z</time></trkpt><trkpt lat="42.7712827" lon="12.2053716"><ele>634.25</ele><time>2026-03-28T15:20:34.328Z</time></trkpt><trkpt lat="42.7712706" lon="12.2052187"><ele>633.5</ele><time>2026-03-28T15:20:35.328Z</time></trkpt><trkpt lat="42.7712425" lon="12.2050696"><ele>632.75</ele><time>2026-03-28T15:20:36.327Z</time></trkpt><trkpt lat="42.771185" lon="12.204938"><ele>632.0</ele><time>2026-03-28T15:20:37.327Z</time></trkpt><trkpt lat="42.7710919" lon="12.204832"><ele>629.75</ele><time>2026-03-28T15:20:38.328Z</time></trkpt><trkpt lat="42.7709794" lon="12.2047193"><ele>627.5</ele><time>2026-03-28T15:20:39.328Z</time></trkpt><trkpt lat="42.7708541" lon="12.2046053"><ele>625.25</ele><time>2026-03-28T15:20:40.328Z</time></trkpt><trkpt lat="42.7707213" lon="12.2044878"><ele>623.0</ele><time>2026-03-28T15:20:41.327Z</time></trkpt><trkpt lat="42.7706036" lon="12.204368"><ele>623.0</ele><time>2026-03-28T15:20:42.328Z</time></trkpt><trkpt lat="42.7704769" lon="12.2042626"><ele>623.0</ele><time>2026-03-28T15:20:43.328Z</time></trkpt><trkpt lat="42.7703526" lon="12.2041506"><ele>623.0</ele><time>2026-03-28T15:20:44.328Z</time></trkpt><trkpt lat="42.7702196" lon="12.2040439"><ele>625.3333333333333</ele><time>2026-03-28T15:20:45.327Z</time></trkpt><trkpt lat="42.7700859" lon="12.2039352"><ele>627.6666666666666</ele><time>2026-03-28T15:20:46.327Z</time></trkpt><trkpt lat="42.7699537" lon="12.2038147"><ele>630.0</ele><time>2026-03-28T15:20:47.328Z</time></trkpt><trkpt lat="42.769824" lon="12.2037031"><ele>630.0</ele><time>2026-03-28T15:20:48.327Z</time></trkpt><trkpt lat="42.7696993" lon="12.203597"><ele>630.0</ele><time>2026-03-28T15:20:49.328Z</time></trkpt><trkpt lat="42.7695783" lon="12.2035031"><ele>630.0</ele><time>2026-03-28T15:20:50.328Z</time></trkpt><trkpt lat="42.7694768" lon="12.2034139"><ele>630.0</ele><time>2026-03-28T15:20:51.327Z</time></trkpt><trkpt lat="42.769393" lon="12.2033248"><ele>629.5</ele><time>2026-03-28T15:20:52.328Z</time></trkpt><trkpt lat="42.7693481" lon="12.2032289"><ele>629.0</ele><time>2026-03-28T15:20:53.327Z</time></trkpt><trkpt lat="42.7693348" lon="12.2031279"><ele>628.5</ele><time>2026-03-28T15:20:54.328Z</time></trkpt><trkpt lat="42.7693551" lon="12.2030274"><ele>628.0</ele><time>2026-03-28T15:20:55.328Z</time></trkpt><trkpt lat="42.769398" lon="12.2029357"><ele>627.5</ele><time>2026-03-28T15:20:56.327Z</time></trkpt><trkpt lat="42.7694236" lon="12.2028251"><ele>627.0</ele><time>2026-03-28T15:20:57.328Z</time></trkpt><trkpt lat="42.7694265" lon="12.2027046"><ele>627.0</ele><time>2026-03-28T15:20:58.328Z</time></trkpt><trkpt lat="42.769404" lon="12.2025838"><ele>627.0</ele><time>2026-03-28T15:20:59.327Z</time></trkpt><trkpt lat="42.7693618" lon="12.2024705"><ele>627.0</ele><time>2026-03-28T15:21:00.328Z</time></trkpt><trkpt lat="42.7693047" lon="12.2023527"><ele>627.0</ele><time>2026-03-28T15:21:01.328Z</time></trkpt><trkpt lat="42.769242" lon="12.2022383"><ele>627.0</ele><time>2026-03-28T15:21:02.328Z</time></trkpt><trkpt lat="42.7691845" lon="12.2021175"><ele>631.6</ele><time>2026-03-28T15:21:03.327Z</time></trkpt><trkpt lat="42.7691491" lon="12.2019839"><ele>636.2</ele><time>2026-03-28T15:21:04.328Z</time></trkpt><trkpt lat="42.7691475" lon="12.2018389"><ele>640.8</ele><time>2026-03-28T15:21:05.327Z</time></trkpt><trkpt lat="42.7691507" lon="12.2016865"><ele>645.4</ele><time>2026-03-28T15:21:06.328Z</time></trkpt><trkpt lat="42.7691652" lon="12.2015308"><ele>650.0</ele><time>2026-03-28T15:21:07.328Z</time></trkpt><trkpt lat="42.7691461" lon="12.2013713"><ele>650.5</ele><time>2026-03-28T15:21:08.327Z</time></trkpt><trkpt lat="42.769131" lon="12.2012034"><ele>651.0</ele><time>2026-03-28T15:21:09.328Z</time></trkpt><trkpt lat="42.7691144" lon="12.2010317"><ele>651.5</ele><time>2026-03-28T15:21:10.328Z</time></trkpt><trkpt lat="42.7691276" lon="12.2008581"><ele>652.0</ele><time>2026-03-28T15:21:11.328Z</time></trkpt><trkpt lat="42.7691732" lon="12.2006891"><ele>652.25</ele><time>2026-03-28T15:21:12.327Z</time></trkpt><trkpt lat="42.7692138" lon="12.2005381"><ele>652.5</ele><time>2026-03-28T15:21:13.328Z</time></trkpt><trkpt lat="42.76921" lon="12.200376"><ele>652.75</ele><time>2026-03-28T15:21:14.327Z</time></trkpt><trkpt lat="42.7691915" lon="12.2002141"><ele>653.0</ele><time>2026-03-28T15:21:15.328Z</time></trkpt><trkpt lat="42.7691668" lon="12.2000448"><ele>653.0</ele><time>2026-03-28T15:21:16.328Z</time></trkpt><trkpt lat="42.769145" lon="12.1998691"><ele>653.0</ele><time>2026-03-28T15:21:17.328Z</time></trkpt><trkpt lat="42.7691226" lon="12.1996991"><ele>653.0</ele><time>2026-03-28T15:21:18.328Z</time></trkpt><trkpt lat="42.7691049" lon="12.1995371"><ele>653.0</ele><time>2026-03-28T15:21:19.327Z</time></trkpt><trkpt lat="42.7691121" lon="12.1993767"><ele>652.75</ele><time>2026-03-28T15:21:20.328Z</time></trkpt><trkpt lat="42.7691282" lon="12.1992173"><ele>652.5</ele><time>2026-03-28T15:21:21.327Z</time></trkpt><trkpt lat="42.7691574" lon="12.199053"><ele>652.25</ele><time>2026-03-28T15:21:22.328Z</time></trkpt><trkpt lat="42.769224" lon="12.198901"><ele>652.0</ele><time>2026-03-28T15:21:23.327Z</time></trkpt><trkpt lat="42.7693069" lon="12.1987641"><ele>648.0</ele><time>2026-03-28T15:21:24.327Z</time></trkpt><trkpt lat="42.7694146" lon="12.1986425"><ele>644.0</ele><time>2026-03-28T15:21:25.328Z</time></trkpt><trkpt lat="42.7695333" lon="12.1985408"><ele>640.0</ele><time>2026-03-28T15:21:26.328Z</time></trkpt><trkpt lat="42.7696544" lon="12.1984625"><ele>636.0</ele><time>2026-03-28T15:21:27.328Z</time></trkpt><trkpt lat="42.7697744" lon="12.1983997"><ele>636.0</ele><time>2026-03-28T15:21:28.327Z</time></trkpt><trkpt lat="42.7698841" lon="12.1983362"><ele>636.0</ele><time>2026-03-28T15:21:29.328Z</time></trkpt><trkpt lat="42.7699784" lon="12.1982691"><ele>636.0</ele><time>2026-03-28T15:21:30.328Z</time></trkpt><trkpt lat="42.7700455" lon="12.1981867"><ele>636.0</ele><time>2026-03-28T15:21:31.327Z</time></trkpt><trkpt lat="42.7701013" lon="12.1980936"><ele>636.0</ele><time>2026-03-28T15:21:32.327Z</time></trkpt><trkpt lat="42.7701025" lon="12.1979159"><ele>635.75</ele><time>2026-03-28T15:21:33.327Z</time></trkpt><trkpt lat="42.7700715" lon="12.1977354"><ele>635.5</ele><time>2026-03-28T15:21:34.328Z</time></trkpt><trkpt lat="42.7700434" lon="12.1975706"><ele>635.25</ele><time>2026-03-28T15:21:35.327Z</time></trkpt><trkpt lat="42.7700159" lon="12.197393"><ele>635.0</ele><time>2026-03-28T15:21:36.328Z</time></trkpt><trkpt lat="42.7699752" lon="12.1972105"><ele>635.0</ele><time>2026-03-28T15:21:37.328Z</time></trkpt><trkpt lat="42.7699511" lon="12.1970344"><ele>635.0</ele><time>2026-03-28T15:21:38.328Z</time></trkpt><trkpt lat="42.7699286" lon="12.1968614"><ele>635.0</ele><time>2026-03-28T15:21:39.328Z</time></trkpt><trkpt lat="42.7699158" lon="12.1966876"><ele>635.0</ele><time>2026-03-28T15:21:40.328Z</time></trkpt><trkpt lat="42.7699197" lon="12.1965217"><ele>633.0</ele><time>2026-03-28T15:21:41.328Z</time></trkpt><trkpt lat="42.7699249" lon="12.1963611"><ele>631.0</ele><time>2026-03-28T15:21:42.328Z</time></trkpt><trkpt lat="42.7699193" lon="12.1962087"><ele>629.0</ele><time>2026-03-28T15:21:43.328Z</time></trkpt><trkpt lat="42.7698941" lon="12.1960688"><ele>627.0</ele><time>2026-03-28T15:21:44.328Z</time></trkpt><trkpt lat="42.7698424" lon="12.1959338"><ele>625.0</ele><time>2026-03-28T15:21:45.328Z</time></trkpt><trkpt lat="42.7697659" lon="12.1958028"><ele>625.0</ele><time>2026-03-28T15:21:46.327Z</time></trkpt><trkpt lat="42.7696638" lon="12.1956766"><ele>625.0</ele><time>2026-03-28T15:21:47.327Z</time></trkpt><trkpt lat="42.769551" lon="12.1955526"><ele>625.0</ele><time>2026-03-28T15:21:48.327Z</time></trkpt><trkpt lat="42.7694387" lon="12.1954352"><ele>625.0</ele><time>2026-03-28T15:21:49.328Z</time></trkpt><trkpt lat="42.7693202" lon="12.1953233"><ele>625.25</ele><time>2026-03-28T15:21:50.328Z</time></trkpt><trkpt lat="42.7691993" lon="12.1952191"><ele>625.5</ele><time>2026-03-28T15:21:51.328Z</time></trkpt><trkpt lat="42.7690801" lon="12.1951213"><ele>625.75</ele><time>2026-03-28T15:21:52.328Z</time></trkpt><trkpt lat="42.7689591" lon="12.1950405"><ele>626.0</ele><time>2026-03-28T15:21:53.328Z</time></trkpt><trkpt lat="42.7688368" lon="12.1949767"><ele>626.0</ele><time>2026-03-28T15:21:54.328Z</time></trkpt><trkpt lat="42.7687112" lon="12.1949466"><ele>626.0</ele><time>2026-03-28T15:21:55.328Z</time></trkpt><trkpt lat="42.7685779" lon="12.1949688"><ele>626.0</ele><time>2026-03-28T15:21:56.328Z</time></trkpt><trkpt lat="42.768458" lon="12.1950146"><ele>626.0</ele><time>2026-03-28T15:21:57.327Z</time></trkpt><trkpt lat="42.7683573" lon="12.1950887"><ele>625.8</ele><time>2026-03-28T15:21:58.327Z</time></trkpt><trkpt lat="42.7682699" lon="12.1952037"><ele>625.6</ele><time>2026-03-28T15:21:59.327Z</time></trkpt><trkpt lat="42.7682112" lon="12.1953304"><ele>625.4</ele><time>2026-03-28T15:22:00.328Z</time></trkpt><trkpt lat="42.7681633" lon="12.195467"><ele>625.2</ele><time>2026-03-28T15:22:01.328Z</time></trkpt><trkpt lat="42.7681336" lon="12.1956"><ele>625.0</ele><time>2026-03-28T15:22:02.328Z</time></trkpt><trkpt lat="42.7680766" lon="12.1957337"><ele>624.25</ele><time>2026-03-28T15:22:03.328Z</time></trkpt><trkpt lat="42.7679729" lon="12.1958166"><ele>623.5</ele><time>2026-03-28T15:22:04.328Z</time></trkpt><trkpt lat="42.7678534" lon="12.1958895"><ele>622.75</ele><time>2026-03-28T15:22:05.328Z</time></trkpt><trkpt lat="42.7677209" lon="12.19596"><ele>622.0</ele><time>2026-03-28T15:22:06.328Z</time></trkpt><trkpt lat="42.7675862" lon="12.1960237"><ele>622.0</ele><time>2026-03-28T15:22:07.328Z</time></trkpt><trkpt lat="42.7674481" lon="12.1960741"><ele>622.0</ele><time>2026-03-28T15:22:08.328Z</time></trkpt><trkpt lat="42.7673049" lon="12.196111"><ele>622.0</ele><time>2026-03-28T15:22:09.328Z</time></trkpt><trkpt lat="42.7671409" lon="12.1961178"><ele>622.0</ele><time>2026-03-28T15:22:10.328Z</time></trkpt><trkpt lat="42.7669805" lon="12.196118"><ele>622.0</ele><time>2026-03-28T15:22:11.328Z</time></trkpt><trkpt lat="42.7668215" lon="12.1960959"><ele>622.0</ele><time>2026-03-28T15:22:12.328Z</time></trkpt><trkpt lat="42.7666817" lon="12.1960726"><ele>621.0</ele><time>2026-03-28T15:22:13.328Z</time></trkpt><trkpt lat="42.7665334" lon="12.1960708"><ele>620.0</ele><time>2026-03-28T15:22:14.328Z</time></trkpt><trkpt lat="42.7664029" lon="12.1960904"><ele>619.0</ele><time>2026-03-28T15:22:15.327Z</time></trkpt><trkpt lat="42.766263" lon="12.1961317"><ele>618.0</ele><time>2026-03-28T15:22:16.327Z</time></trkpt><trkpt lat="42.7661297" lon="12.1961901"><ele>618.3333333333334</ele><time>2026-03-28T15:22:17.327Z</time></trkpt><trkpt lat="42.7660002" lon="12.1962889"><ele>618.6666666666667</ele><time>2026-03-28T15:22:18.328Z</time></trkpt><trkpt lat="42.7658756" lon="12.1963974"><ele>619.0</ele><time>2026-03-28T15:22:19.328Z</time></trkpt><trkpt lat="42.7657372" lon="12.1965073"><ele>619.0</ele><time>2026-03-28T15:22:20.328Z</time></trkpt><trkpt lat="42.7655953" lon="12.196608"><ele>619.0</ele><time>2026-03-28T15:22:21.328Z</time></trkpt><trkpt lat="42.7654538" lon="12.1967099"><ele>619.0</ele><time>2026-03-28T15:22:22.328Z</time></trkpt><trkpt lat="42.765315" lon="12.1968178"><ele>614.0</ele><time>2026-03-28T15:22:23.327Z</time></trkpt><trkpt lat="42.7651601" lon="12.1969092"><ele>609.0</ele><time>2026-03-28T15:22:24.328Z</time></trkpt><trkpt lat="42.7650088" lon="12.1969919"><ele>604.0</ele><time>2026-03-28T15:22:25.328Z</time></trkpt><trkpt lat="42.7648507" lon="12.1970814"><ele>604.0</ele><time>2026-03-28T15:22:26.328Z</time></trkpt><trkpt lat="42.7646915" lon="12.1971505"><ele>604.0</ele><time>2026-03-28T15:22:27.328Z</time></trkpt><trkpt lat="42.7645372" lon="12.1972281"><ele>604.0</ele><time>2026-03-28T15:22:28.328Z</time></trkpt><trkpt lat="42.7643868" lon="12.1973038"><ele>603.75</ele><time>2026-03-28T15:22:29.327Z</time></trkpt><trkpt lat="42.7642459" lon="12.1973808"><ele>603.5</ele><time>2026-03-28T15:22:30.328Z</time></trkpt><trkpt lat="42.7641187" lon="12.1974156"><ele>603.25</ele><time>2026-03-28T15:22:31.327Z</time></trkpt><trkpt lat="42.7639983" lon="12.1974838"><ele>603.0</ele><time>2026-03-28T15:22:32.327Z</time></trkpt><trkpt lat="42.7638891" lon="12.1975417"><ele>603.0</ele><time>2026-03-28T15:22:33.327Z</time></trkpt><trkpt lat="42.7637774" lon="12.197564"><ele>603.0</ele><time>2026-03-28T15:22:34.327Z</time></trkpt><trkpt lat="42.76367" lon="12.1975413"><ele>603.0</ele><time>2026-03-28T15:22:35.328Z</time></trkpt><trkpt lat="42.7635686" lon="12.1974891"><ele>603.0</ele><time>2026-03-28T15:22:36.328Z</time></trkpt><trkpt lat="42.7634673" lon="12.1974201"><ele>603.0</ele><time>2026-03-28T15:22:37.328Z</time></trkpt><trkpt lat="42.7633649" lon="12.1973514"><ele>598.5</ele><time>2026-03-28T15:22:38.328Z</time></trkpt><trkpt lat="42.7632553" lon="12.1972782"><ele>594.0</ele><time>2026-03-28T15:22:39.328Z</time></trkpt><trkpt lat="42.763132" lon="12.1972745"><ele>589.5</ele><time>2026-03-28T15:22:40.328Z</time></trkpt><trkpt lat="42.7630204" lon="12.1972854"><ele>585.0</ele><time>2026-03-28T15:22:41.328Z</time></trkpt><trkpt lat="42.7629012" lon="12.1973326"><ele>585.25</ele><time>2026-03-28T15:22:42.328Z</time></trkpt><trkpt lat="42.7627877" lon="12.1974134"><ele>585.5</ele><time>2026-03-28T15:22:43.328Z</time></trkpt><trkpt lat="42.7626815" lon="12.1975219"><ele>585.75</ele><time>2026-03-28T15:22:44.328Z</time></trkpt><trkpt lat="42.7625934" lon="12.1976518"><ele>586.0</ele><time>2026-03-28T15:22:45.328Z</time></trkpt><trkpt lat="42.7625206" lon="12.197796"><ele>586.0</ele><time>2026-03-28T15:22:46.328Z</time></trkpt><trkpt lat="42.7624865" lon="12.1979655"><ele>586.0</ele><time>2026-03-28T15:22:47.328Z</time></trkpt><trkpt lat="42.7624575" lon="12.1981391"><ele>586.0</ele><time>2026-03-28T15:22:48.328Z</time></trkpt><trkpt lat="42.7624307" lon="12.198292"><ele>586.0</ele><time>2026-03-28T15:22:49.327Z</time></trkpt><trkpt lat="42.7623891" lon="12.1984345"><ele>587.75</ele><time>2026-03-28T15:22:50.328Z</time></trkpt><trkpt lat="42.7623143" lon="12.1985508"><ele>589.5</ele><time>2026-03-28T15:22:51.327Z</time></trkpt><trkpt lat="42.7622185" lon="12.1986385"><ele>591.25</ele><time>2026-03-28T15:22:52.328Z</time></trkpt><trkpt lat="42.7621124" lon="12.1987036"><ele>593.0</ele><time>2026-03-28T15:22:53.328Z</time></trkpt><trkpt lat="42.7620113" lon="12.1987645"><ele>593.0</ele><time>2026-03-28T15:22:54.327Z</time></trkpt><trkpt lat="42.7619306" lon="12.1988192"><ele>593.0</ele><time>2026-03-28T15:22:55.328Z</time></trkpt><trkpt lat="42.7618508" lon="12.198894"><ele>593.0</ele><time>2026-03-28T15:22:56.328Z</time></trkpt><trkpt lat="42.7618025" lon="12.1990001"><ele>593.0</ele><time>2026-03-28T15:22:57.328Z</time></trkpt><trkpt lat="42.7618224" lon="12.1991339"><ele>593.0</ele><time>2026-03-28T15:22:58.327Z</time></trkpt><trkpt lat="42.7618559" lon="12.1992429"><ele>593.6</ele><time>2026-03-28T15:22:59.328Z</time></trkpt><trkpt lat="42.7618784" lon="12.1993708"><ele>594.1999999999999</ele><time>2026-03-28T15:23:00.328Z</time></trkpt><trkpt lat="42.7618831" lon="12.199489"><ele>594.8</ele><time>2026-03-28T15:23:01.328Z</time></trkpt><trkpt lat="42.7618364" lon="12.1996055"><ele>595.4</ele><time>2026-03-28T15:23:02.327Z</time></trkpt><trkpt lat="42.7617742" lon="12.1997111"><ele>596.0</ele><time>2026-03-28T15:23:03.328Z</time></trkpt><trkpt lat="42.7616986" lon="12.1998201"><ele>593.0</ele><time>2026-03-28T15:23:04.327Z</time></trkpt><trkpt lat="42.7616251" lon="12.1999302"><ele>590.0</ele><time>2026-03-28T15:23:05.328Z</time></trkpt><trkpt lat="42.7615599" lon="12.2000162"><ele>587.0</ele><time>2026-03-28T15:23:06.328Z</time></trkpt><trkpt lat="42.7614947" lon="12.2000935"><ele>584.0</ele><time>2026-03-28T15:23:07.328Z</time></trkpt><trkpt lat="42.7614203" lon="12.2001607"><ele>581.0</ele><time>2026-03-28T15:23:08.328Z</time></trkpt><trkpt lat="42.7613184" lon="12.2001739"><ele>581.0</ele><time>2026-03-28T15:23:09.328Z</time></trkpt><trkpt lat="42.7612161" lon="12.2001692"><ele>581.0</ele><time>2026-03-28T15:23:10.328Z</time></trkpt><trkpt lat="42.7611095" lon="12.2001435"><ele>581.0</ele><time>2026-03-28T15:23:11.328Z</time></trkpt><trkpt lat="42.7610117" lon="12.2000982"><ele>581.0</ele><time>2026-03-28T15:23:12.328Z</time></trkpt><trkpt lat="42.7609197" lon="12.2000423"><ele>581.0</ele><time>2026-03-28T15:23:13.328Z</time></trkpt><trkpt lat="42.7608319" lon="12.199957"><ele>579.3333333333333</ele><time>2026-03-28T15:23:14.328Z</time></trkpt><trkpt lat="42.7607733" lon="12.1998486"><ele>577.6666666666666</ele><time>2026-03-28T15:23:15.328Z</time></trkpt><trkpt lat="42.760742" lon="12.1997404"><ele>576.0</ele><time>2026-03-28T15:23:16.327Z</time></trkpt><trkpt lat="42.7607502" lon="12.1996372"><ele>574.3333333333334</ele><time>2026-03-28T15:23:17.328Z</time></trkpt><trkpt lat="42.7607712" lon="12.1995554"><ele>572.6666666666667</ele><time>2026-03-28T15:23:18.328Z</time></trkpt><trkpt lat="42.7608914" lon="12.1995076"><ele>571.0</ele><time>2026-03-28T15:23:20.328Z</time></trkpt><trkpt lat="42.7609637" lon="12.1995053"><ele>572.6666666666667</ele><time>2026-03-28T15:23:21.328Z</time></trkpt><trkpt lat="42.7610445" lon="12.1995081"><ele>574.3333333333334</ele><time>2026-03-28T15:23:22.327Z</time></trkpt><trkpt lat="42.7611342" lon="12.1995021"><ele>576.0</ele><time>2026-03-28T15:23:23.328Z</time></trkpt><trkpt lat="42.7612126" lon="12.1994806"><ele>577.6666666666666</ele><time>2026-03-28T15:23:24.327Z</time></trkpt><trkpt lat="42.7612842" lon="12.1994547"><ele>579.3333333333333</ele><time>2026-03-28T15:23:25.328Z</time></trkpt><trkpt lat="42.7613274" lon="12.1993731"><ele>581.0</ele><time>2026-03-28T15:23:26.327Z</time></trkpt><trkpt lat="42.7613532" lon="12.1992829"><ele>581.0</ele><time>2026-03-28T15:23:27.328Z</time></trkpt><trkpt lat="42.7613627" lon="12.1991578"><ele>581.0</ele><time>2026-03-28T15:23:28.328Z</time></trkpt><trkpt lat="42.7613428" lon="12.199019"><ele>581.0</ele><time>2026-03-28T15:23:29.328Z</time></trkpt><trkpt lat="42.7613269" lon="12.198877"><ele>581.0</ele><time>2026-03-28T15:23:30.328Z</time></trkpt><trkpt lat="42.7613081" lon="12.198731"><ele>581.0</ele><time>2026-03-28T15:23:31.327Z</time></trkpt><trkpt lat="42.7612891" lon="12.1985885"><ele>580.2</ele><time>2026-03-28T15:23:32.328Z</time></trkpt><trkpt lat="42.7612744" lon="12.1984482"><ele>579.4000000000001</ele><time>2026-03-28T15:23:33.327Z</time></trkpt><trkpt lat="42.7612664" lon="12.1983099"><ele>578.6</ele><time>2026-03-28T15:23:34.328Z</time></trkpt><trkpt lat="42.7612423" lon="12.1981828"><ele>577.8000000000001</ele><time>2026-03-28T15:23:35.327Z</time></trkpt><trkpt lat="42.7612022" lon="12.1980573"><ele>577.0</ele><time>2026-03-28T15:23:36.327Z</time></trkpt><trkpt lat="42.761149" lon="12.1979356"><ele>575.5</ele><time>2026-03-28T15:23:37.328Z</time></trkpt><trkpt lat="42.7610663" lon="12.197828"><ele>574.0</ele><time>2026-03-28T15:23:38.327Z</time></trkpt><trkpt lat="42.7609645" lon="12.1977273"><ele>572.5</ele><time>2026-03-28T15:23:39.328Z</time></trkpt><trkpt lat="42.7608572" lon="12.1976354"><ele>571.0</ele><time>2026-03-28T15:23:40.327Z</time></trkpt><trkpt lat="42.7607423" lon="12.197551"><ele>568.75</ele><time>2026-03-28T15:23:41.328Z</time></trkpt><trkpt lat="42.7606169" lon="12.1974643"><ele>566.5</ele><time>2026-03-28T15:23:42.328Z</time></trkpt><trkpt lat="42.7604919" lon="12.1973829"><ele>564.25</ele><time>2026-03-28T15:23:43.328Z</time></trkpt><trkpt lat="42.7603731" lon="12.1972971"><ele>562.0</ele><time>2026-03-28T15:23:44.328Z</time></trkpt><trkpt lat="42.7602537" lon="12.1972196"><ele>561.0</ele><time>2026-03-28T15:23:45.328Z</time></trkpt><trkpt lat="42.7601231" lon="12.1971683"><ele>560.0</ele><time>2026-03-28T15:23:46.328Z</time></trkpt><trkpt lat="42.759985" lon="12.1971387"><ele>559.0</ele><time>2026-03-28T15:23:47.327Z</time></trkpt><trkpt lat="42.75985" lon="12.1971237"><ele>558.0</ele><time>2026-03-28T15:23:48.328Z</time></trkpt><trkpt lat="42.7597056" lon="12.1971239"><ele>558.0</ele><time>2026-03-28T15:23:49.328Z</time></trkpt><trkpt lat="42.7595546" lon="12.1971371"><ele>558.0</ele><time>2026-03-28T15:23:50.328Z</time></trkpt><trkpt lat="42.7594031" lon="12.1971572"><ele>558.0</ele><time>2026-03-28T15:23:51.327Z</time></trkpt><trkpt lat="42.7592582" lon="12.197168"><ele>558.0</ele><time>2026-03-28T15:23:52.327Z</time></trkpt><trkpt lat="42.7591122" lon="12.197169"><ele>557.5</ele><time>2026-03-28T15:23:53.327Z</time></trkpt><trkpt lat="42.7589681" lon="12.1971512"><ele>557.0</ele><time>2026-03-28T15:23:54.328Z</time></trkpt><trkpt lat="42.7588258" lon="12.1971147"><ele>556.5</ele><time>2026-03-28T15:23:55.328Z</time></trkpt><trkpt lat="42.7586748" lon="12.197072"><ele>556.0</ele><time>2026-03-28T15:23:56.328Z</time></trkpt><trkpt lat="42.7585253" lon="12.1970217"><ele>556.0</ele><time>2026-03-28T15:23:57.328Z</time></trkpt><trkpt lat="42.7583756" lon="12.1969574"><ele>556.0</ele><time>2026-03-28T15:23:58.328Z</time></trkpt><trkpt lat="42.758232" lon="12.1968864"><ele>556.0</ele><time>2026-03-28T15:23:59.328Z</time></trkpt><trkpt lat="42.7580946" lon="12.1968308"><ele>556.0</ele><time>2026-03-28T15:24:00.328Z</time></trkpt><trkpt lat="42.7579629" lon="12.1967916"><ele>556.0</ele><time>2026-03-28T15:24:01.328Z</time></trkpt><trkpt lat="42.7578388" lon="12.1967652"><ele>556.0</ele><time>2026-03-28T15:24:02.328Z</time></trkpt><trkpt lat="42.7577106" lon="12.1967623"><ele>556.0</ele><time>2026-03-28T15:24:03.328Z</time></trkpt><trkpt lat="42.7575873" lon="12.1967816"><ele>557.25</ele><time>2026-03-28T15:24:04.327Z</time></trkpt><trkpt lat="42.7574632" lon="12.1968195"><ele>558.5</ele><time>2026-03-28T15:24:05.328Z</time></trkpt><trkpt lat="42.7573388" lon="12.1968586"><ele>559.75</ele><time>2026-03-28T15:24:06.328Z</time></trkpt><trkpt lat="42.7572193" lon="12.1969003"><ele>561.0</ele><time>2026-03-28T15:24:07.327Z</time></trkpt><trkpt lat="42.757101" lon="12.1969376"><ele>561.0</ele><time>2026-03-28T15:24:08.328Z</time></trkpt><trkpt lat="42.7569925" lon="12.1969726"><ele>561.0</ele><time>2026-03-28T15:24:09.328Z</time></trkpt><trkpt lat="42.7568881" lon="12.1970172"><ele>561.0</ele><time>2026-03-28T15:24:10.328Z</time></trkpt><trkpt lat="42.75679" lon="12.1970603"><ele>561.0</ele><time>2026-03-28T15:24:11.328Z</time></trkpt><trkpt lat="42.7567004" lon="12.1970979"><ele>561.0</ele><time>2026-03-28T15:24:12.327Z</time></trkpt><trkpt lat="42.7566166" lon="12.1971255"><ele>561.5</ele><time>2026-03-28T15:24:13.327Z</time></trkpt><trkpt lat="42.7565389" lon="12.1971439"><ele>562.0</ele><time>2026-03-28T15:24:14.328Z</time></trkpt><trkpt lat="42.7564615" lon="12.1971482"><ele>562.5</ele><time>2026-03-28T15:24:15.328Z</time></trkpt><trkpt lat="42.7563779" lon="12.1971276"><ele>563.0</ele><time>2026-03-28T15:24:16.328Z</time></trkpt><trkpt lat="42.7562902" lon="12.1970961"><ele>563.5</ele><time>2026-03-28T15:24:17.327Z</time></trkpt><trkpt lat="42.7561942" lon="12.1970379"><ele>564.0</ele><time>2026-03-28T15:24:18.328Z</time></trkpt><trkpt lat="42.7560916" lon="12.1969832"><ele>562.5</ele><time>2026-03-28T15:24:19.328Z</time></trkpt><trkpt lat="42.7559805" lon="12.1969339"><ele>561.0</ele><time>2026-03-28T15:24:20.327Z</time></trkpt><trkpt lat="42.7558678" lon="12.1968764"><ele>559.5</ele><time>2026-03-28T15:24:21.328Z</time></trkpt><trkpt lat="42.755754" lon="12.1968221"><ele>558.0</ele><time>2026-03-28T15:24:22.328Z</time></trkpt><trkpt lat="42.7556442" lon="12.1967713"><ele>558.0</ele><time>2026-03-28T15:24:23.328Z</time></trkpt><trkpt lat="42.7555301" lon="12.1967196"><ele>558.0</ele><time>2026-03-28T15:24:24.328Z</time></trkpt><trkpt lat="42.7554176" lon="12.1966714"><ele>558.0</ele><time>2026-03-28T15:24:25.327Z</time></trkpt><trkpt lat="42.7553047" lon="12.196624"><ele>558.0</ele><time>2026-03-28T15:24:26.328Z</time></trkpt><trkpt lat="42.755192" lon="12.1965822"><ele>557.6</ele><time>2026-03-28T15:24:27.327Z</time></trkpt><trkpt lat="42.7550959" lon="12.1965391"><ele>557.1999999999999</ele><time>2026-03-28T15:24:28.328Z</time></trkpt><trkpt lat="42.7550003" lon="12.1964909"><ele>556.8</ele><time>2026-03-28T15:24:29.328Z</time></trkpt><trkpt lat="42.7549101" lon="12.1964513"><ele>556.4</ele><time>2026-03-28T15:24:30.328Z</time></trkpt><trkpt lat="42.7548183" lon="12.1964283"><ele>556.0</ele><time>2026-03-28T15:24:31.327Z</time></trkpt><trkpt lat="42.7547386" lon="12.1964012"><ele>556.0</ele><time>2026-03-28T15:24:32.327Z</time></trkpt><trkpt lat="42.7546748" lon="12.1963754"><ele>556.0</ele><time>2026-03-28T15:24:33.328Z</time></trkpt><trkpt lat="42.7546113" lon="12.1963515"><ele>556.0</ele><time>2026-03-28T15:24:35.327Z</time></trkpt><trkpt lat="42.754531" lon="12.1963135"><ele>556.0</ele><time>2026-03-28T15:25:03.328Z</time></trkpt><trkpt lat="42.7544689" lon="12.1961721"><ele>556.0</ele><time>2026-03-28T15:25:05.327Z</time></trkpt><trkpt lat="42.7544647" lon="12.1960787"><ele>556.0</ele><time>2026-03-28T15:25:06.328Z</time></trkpt><trkpt lat="42.7544679" lon="12.1959927"><ele>556.0</ele><time>2026-03-28T15:25:07.328Z</time></trkpt><trkpt lat="42.7544878" lon="12.1958868"><ele>556.0</ele><time>2026-03-28T15:25:08.328Z</time></trkpt><trkpt lat="42.7545062" lon="12.1957728"><ele>556.0</ele><time>2026-03-28T15:25:09.328Z</time></trkpt><trkpt lat="42.754542" lon="12.1956434"><ele>556.0</ele><time>2026-03-28T15:25:10.328Z</time></trkpt><trkpt lat="42.7545674" lon="12.1955068"><ele>556.0</ele><time>2026-03-28T15:25:11.328Z</time></trkpt><trkpt lat="42.7546007" lon="12.1953815"><ele>555.8333333333334</ele><time>2026-03-28T15:25:12.327Z</time></trkpt><trkpt lat="42.7546321" lon="12.1952657"><ele>555.6666666666667</ele><time>2026-03-28T15:25:13.328Z</time></trkpt><trkpt lat="42.7546558" lon="12.1951549"><ele>555.5</ele><time>2026-03-28T15:25:14.327Z</time></trkpt><trkpt lat="42.7546553" lon="12.195041"><ele>555.3333333333334</ele><time>2026-03-28T15:25:15.328Z</time></trkpt><trkpt lat="42.7546333" lon="12.1949366"><ele>555.1666666666666</ele><time>2026-03-28T15:25:16.328Z</time></trkpt><trkpt lat="42.7545862" lon="12.1948379"><ele>555.0</ele><time>2026-03-28T15:25:17.327Z</time></trkpt><trkpt lat="42.7545036" lon="12.1947638"><ele>553.8</ele><time>2026-03-28T15:25:18.328Z</time></trkpt><trkpt lat="42.7544086" lon="12.1947001"><ele>552.6</ele><time>2026-03-28T15:25:19.328Z</time></trkpt><trkpt lat="42.7543083" lon="12.1946441"><ele>551.4</ele><time>2026-03-28T15:25:20.327Z</time></trkpt><trkpt lat="42.7542078" lon="12.1945819"><ele>550.2</ele><time>2026-03-28T15:25:21.328Z</time></trkpt><trkpt lat="42.754109" lon="12.1945303"><ele>549.0</ele><time>2026-03-28T15:25:22.328Z</time></trkpt><trkpt lat="42.7540136" lon="12.1944878"><ele>548.0</ele><time>2026-03-28T15:25:23.328Z</time></trkpt><trkpt lat="42.7539252" lon="12.1944452"><ele>547.0</ele><time>2026-03-28T15:25:24.328Z</time></trkpt><trkpt lat="42.7538556" lon="12.1943913"><ele>546.0</ele><time>2026-03-28T15:25:25.328Z</time></trkpt><trkpt lat="42.7538047" lon="12.1943186"><ele>545.0</ele><time>2026-03-28T15:25:26.328Z</time></trkpt><trkpt lat="42.7537939" lon="12.1942258"><ele>544.0</ele><time>2026-03-28T15:25:27.328Z</time></trkpt><trkpt lat="42.7538147" lon="12.1941361"><ele>543.0</ele><time>2026-03-28T15:25:28.327Z</time></trkpt><trkpt lat="42.7538706" lon="12.1940557"><ele>541.5</ele><time>2026-03-28T15:25:29.328Z</time></trkpt><trkpt lat="42.7539447" lon="12.1939785"><ele>540.0</ele><time>2026-03-28T15:25:30.328Z</time></trkpt><trkpt lat="42.7540394" lon="12.193902"><ele>538.5</ele><time>2026-03-28T15:25:31.327Z</time></trkpt><trkpt lat="42.7541483" lon="12.1938276"><ele>537.0</ele><time>2026-03-28T15:25:32.328Z</time></trkpt><trkpt lat="42.7542562" lon="12.1937359"><ele>537.0</ele><time>2026-03-28T15:25:33.328Z</time></trkpt><trkpt lat="42.7543555" lon="12.1936039"><ele>537.0</ele><time>2026-03-28T15:25:34.327Z</time></trkpt><trkpt lat="42.7544335" lon="12.1934472"><ele>537.0</ele><time>2026-03-28T15:25:35.327Z</time></trkpt><trkpt lat="42.7544985" lon="12.1932803"><ele>537.0</ele><time>2026-03-28T15:25:36.328Z</time></trkpt><trkpt lat="42.7545644" lon="12.193119"><ele>536.0</ele><time>2026-03-28T15:25:37.327Z</time></trkpt><trkpt lat="42.7546354" lon="12.1929691"><ele>535.0</ele><time>2026-03-28T15:25:38.328Z</time></trkpt><trkpt lat="42.7547166" lon="12.1928289"><ele>534.0</ele><time>2026-03-28T15:25:39.328Z</time></trkpt><trkpt lat="42.7548021" lon="12.1927052"><ele>533.0</ele><time>2026-03-28T15:25:40.328Z</time></trkpt><trkpt lat="42.7548766" lon="12.1925832"><ele>533.0</ele><time>2026-03-28T15:25:41.328Z</time></trkpt><trkpt lat="42.7549296" lon="12.1924478"><ele>533.0</ele><time>2026-03-28T15:25:42.328Z</time></trkpt><trkpt lat="42.7549676" lon="12.192315"><ele>533.0</ele><time>2026-03-28T15:25:43.328Z</time></trkpt><trkpt lat="42.7549584" lon="12.1921561"><ele>533.0</ele><time>2026-03-28T15:25:44.328Z</time></trkpt><trkpt lat="42.7549404" lon="12.1919984"><ele>532.5</ele><time>2026-03-28T15:25:45.328Z</time></trkpt><trkpt lat="42.7549274" lon="12.1918346"><ele>532.0</ele><time>2026-03-28T15:25:46.327Z</time></trkpt><trkpt lat="42.7549368" lon="12.1916738"><ele>531.5</ele><time>2026-03-28T15:25:47.328Z</time></trkpt><trkpt lat="42.7550011" lon="12.1915318"><ele>531.0</ele><time>2026-03-28T15:25:48.327Z</time></trkpt><trkpt lat="42.7550567" lon="12.1913903"><ele>530.6</ele><time>2026-03-28T15:25:49.327Z</time></trkpt><trkpt lat="42.7551067" lon="12.1912599"><ele>530.2</ele><time>2026-03-28T15:25:50.328Z</time></trkpt><trkpt lat="42.7551269" lon="12.1911289"><ele>529.8</ele><time>2026-03-28T15:25:51.328Z</time></trkpt><trkpt lat="42.7551347" lon="12.190995"><ele>529.4</ele><time>2026-03-28T15:25:52.328Z</time></trkpt><trkpt lat="42.7550666" lon="12.1908526"><ele>529.0</ele><time>2026-03-28T15:25:53.328Z</time></trkpt><trkpt lat="42.754983" lon="12.1907037"><ele>526.6666666666667</ele><time>2026-03-28T15:25:54.328Z</time></trkpt><trkpt lat="42.75488" lon="12.190535"><ele>524.3333333333334</ele><time>2026-03-28T15:25:55.328Z</time></trkpt><trkpt lat="42.754777" lon="12.1903671"><ele>522.0</ele><time>2026-03-28T15:25:56.327Z</time></trkpt><trkpt lat="42.75467" lon="12.1901887"><ele>522.0</ele><time>2026-03-28T15:25:57.328Z</time></trkpt><trkpt lat="42.7545623" lon="12.1900095"><ele>522.0</ele><time>2026-03-28T15:25:58.328Z</time></trkpt><trkpt lat="42.7544382" lon="12.1898203"><ele>522.0</ele><time>2026-03-28T15:25:59.328Z</time></trkpt><trkpt lat="42.7543175" lon="12.1896247"><ele>522.3333333333334</ele><time>2026-03-28T15:26:00.328Z</time></trkpt><trkpt lat="42.7541997" lon="12.1894312"><ele>522.6666666666667</ele><time>2026-03-28T15:26:01.328Z</time></trkpt><trkpt lat="42.7540754" lon="12.1892303"><ele>523.0</ele><time>2026-03-28T15:26:02.328Z</time></trkpt><trkpt lat="42.7539465" lon="12.1890388"><ele>522.6666666666667</ele><time>2026-03-28T15:26:03.328Z</time></trkpt><trkpt lat="42.7538349" lon="12.188826"><ele>522.3333333333334</ele><time>2026-03-28T15:26:04.328Z</time></trkpt><trkpt lat="42.7537133" lon="12.1886249"><ele>522.0</ele><time>2026-03-28T15:26:05.328Z</time></trkpt><trkpt lat="42.7535737" lon="12.1884686"><ele>521.6666666666666</ele><time>2026-03-28T15:26:06.327Z</time></trkpt><trkpt lat="42.753438" lon="12.1883149"><ele>521.3333333333333</ele><time>2026-03-28T15:26:07.328Z</time></trkpt><trkpt lat="42.753293" lon="12.188177"><ele>521.0</ele><time>2026-03-28T15:26:08.328Z</time></trkpt><trkpt lat="42.7531483" lon="12.1880259"><ele>521.6666666666666</ele><time>2026-03-28T15:26:09.328Z</time></trkpt><trkpt lat="42.7530182" lon="12.1878639"><ele>522.3333333333334</ele><time>2026-03-28T15:26:10.328Z</time></trkpt><trkpt lat="42.7528801" lon="12.1876961"><ele>523.0</ele><time>2026-03-28T15:26:11.328Z</time></trkpt><trkpt lat="42.7527479" lon="12.1875272"><ele>521.0</ele><time>2026-03-28T15:26:12.328Z</time></trkpt><trkpt lat="42.7526093" lon="12.1873561"><ele>519.0</ele><time>2026-03-28T15:26:13.328Z</time></trkpt><trkpt lat="42.7524712" lon="12.18719"><ele>517.0</ele><time>2026-03-28T15:26:14.327Z</time></trkpt><trkpt lat="42.7523372" lon="12.1870344"><ele>517.0</ele><time>2026-03-28T15:26:15.328Z</time></trkpt><trkpt lat="42.7522335" lon="12.1868767"><ele>517.0</ele><time>2026-03-28T15:26:16.327Z</time></trkpt><trkpt lat="42.7521551" lon="12.1867264"><ele>517.0</ele><time>2026-03-28T15:26:17.328Z</time></trkpt><trkpt lat="42.7520981" lon="12.186566"><ele>517.0</ele><time>2026-03-28T15:26:18.328Z</time></trkpt><trkpt lat="42.7520794" lon="12.1863891"><ele>516.75</ele><time>2026-03-28T15:26:19.327Z</time></trkpt><trkpt lat="42.7520703" lon="12.1862063"><ele>516.5</ele><time>2026-03-28T15:26:20.328Z</time></trkpt><trkpt lat="42.7520595" lon="12.1860119"><ele>516.25</ele><time>2026-03-28T15:26:21.328Z</time></trkpt><trkpt lat="42.7520604" lon="12.1858215"><ele>516.0</ele><time>2026-03-28T15:26:22.327Z</time></trkpt><trkpt lat="42.7520541" lon="12.1856321"><ele>514.25</ele><time>2026-03-28T15:26:23.328Z</time></trkpt><trkpt lat="42.7520174" lon="12.1854714"><ele>512.5</ele><time>2026-03-28T15:26:24.327Z</time></trkpt><trkpt lat="42.7519597" lon="12.1853172"><ele>510.75</ele><time>2026-03-28T15:26:25.328Z</time></trkpt><trkpt lat="42.7518658" lon="12.1851837"><ele>509.0</ele><time>2026-03-28T15:26:26.328Z</time></trkpt><trkpt lat="42.7517536" lon="12.1850825"><ele>509.0</ele><time>2026-03-28T15:26:27.328Z</time></trkpt><trkpt lat="42.7516184" lon="12.1850037"><ele>509.0</ele><time>2026-03-28T15:26:28.327Z</time></trkpt><trkpt lat="42.7514469" lon="12.1849569"><ele>509.0</ele><time>2026-03-28T15:26:29.327Z</time></trkpt><trkpt lat="42.7512717" lon="12.1849073"><ele>509.0</ele><time>2026-03-28T15:26:30.328Z</time></trkpt><trkpt lat="42.7510966" lon="12.1848633"><ele>509.0</ele><time>2026-03-28T15:26:31.328Z</time></trkpt><trkpt lat="42.750924" lon="12.1848124"><ele>509.0</ele><time>2026-03-28T15:26:32.328Z</time></trkpt><trkpt lat="42.7507435" lon="12.1847615"><ele>509.0</ele><time>2026-03-28T15:26:33.327Z</time></trkpt><trkpt lat="42.7505623" lon="12.1847099"><ele>509.0</ele><time>2026-03-28T15:26:34.328Z</time></trkpt><trkpt lat="42.7503841" lon="12.1846387"><ele>509.0</ele><time>2026-03-28T15:26:35.328Z</time></trkpt><trkpt lat="42.7502115" lon="12.1845735"><ele>508.66666666666663</ele><time>2026-03-28T15:26:36.327Z</time></trkpt><trkpt lat="42.7500337" lon="12.1845174"><ele>508.33333333333337</ele><time>2026-03-28T15:26:37.328Z</time></trkpt><trkpt lat="42.749847" lon="12.1844628"><ele>508.0</ele><time>2026-03-28T15:26:38.327Z</time></trkpt><trkpt lat="42.749664" lon="12.1844205"><ele>508.0</ele><time>2026-03-28T15:26:39.327Z</time></trkpt><trkpt lat="42.7494808" lon="12.1843769"><ele>508.0</ele><time>2026-03-28T15:26:40.327Z</time></trkpt><trkpt lat="42.7493119" lon="12.1843255"><ele>508.0</ele><time>2026-03-28T15:26:41.328Z</time></trkpt><trkpt lat="42.7491441" lon="12.1842636"><ele>505.0</ele><time>2026-03-28T15:26:42.327Z</time></trkpt><trkpt lat="42.7489778" lon="12.1841959"><ele>502.0</ele><time>2026-03-28T15:26:43.328Z</time></trkpt><trkpt lat="42.7488228" lon="12.1841075"><ele>499.0</ele><time>2026-03-28T15:26:44.328Z</time></trkpt><trkpt lat="42.7486743" lon="12.1840138"><ele>497.5</ele><time>2026-03-28T15:26:45.328Z</time></trkpt><trkpt lat="42.7485346" lon="12.1839133"><ele>496.0</ele><time>2026-03-28T15:26:46.328Z</time></trkpt><trkpt lat="42.7484104" lon="12.1838186"><ele>494.5</ele><time>2026-03-28T15:26:47.327Z</time></trkpt><trkpt lat="42.7483032" lon="12.1837223"><ele>493.0</ele><time>2026-03-28T15:26:48.328Z</time></trkpt><trkpt lat="42.748216" lon="12.1836245"><ele>493.0</ele><time>2026-03-28T15:26:49.328Z</time></trkpt><trkpt lat="42.7481505" lon="12.1835195"><ele>492.99999999999994</ele><time>2026-03-28T15:26:50.327Z</time></trkpt><trkpt lat="42.7481179" lon="12.1834029"><ele>492.99999999999994</ele><time>2026-03-28T15:26:51.327Z</time></trkpt><trkpt lat="42.7481241" lon="12.1832809"><ele>493.0</ele><time>2026-03-28T15:26:52.328Z</time></trkpt><trkpt lat="42.7481425" lon="12.1831683"><ele>493.0</ele><time>2026-03-28T15:26:53.328Z</time></trkpt><trkpt lat="42.7482132" lon="12.1830888"><ele>492.5</ele><time>2026-03-28T15:26:54.328Z</time></trkpt><trkpt lat="42.7483087" lon="12.1830179"><ele>492.0</ele><time>2026-03-28T15:26:55.328Z</time></trkpt><trkpt lat="42.7484009" lon="12.1829423"><ele>491.5</ele><time>2026-03-28T15:26:56.328Z</time></trkpt><trkpt lat="42.7485009" lon="12.1828567"><ele>491.0</ele><time>2026-03-28T15:26:57.327Z</time></trkpt><trkpt lat="42.7486184" lon="12.1827631"><ele>491.0</ele><time>2026-03-28T15:26:58.328Z</time></trkpt><trkpt lat="42.7487422" lon="12.1826497"><ele>491.0</ele><time>2026-03-28T15:26:59.328Z</time></trkpt><trkpt lat="42.7488731" lon="12.1825466"><ele>491.0</ele><time>2026-03-28T15:27:00.328Z</time></trkpt><trkpt lat="42.748992" lon="12.1824378"><ele>491.0</ele><time>2026-03-28T15:27:01.327Z</time></trkpt><trkpt lat="42.7491011" lon="12.1823422"><ele>489.4</ele><time>2026-03-28T15:27:02.328Z</time></trkpt><trkpt lat="42.7491718" lon="12.182256"><ele>487.8</ele><time>2026-03-28T15:27:03.328Z</time></trkpt><trkpt lat="42.7492007" lon="12.1821418"><ele>486.19999999999993</ele><time>2026-03-28T15:27:04.328Z</time></trkpt><trkpt lat="42.7491954" lon="12.1820126"><ele>484.59999999999997</ele><time>2026-03-28T15:27:05.328Z</time></trkpt><trkpt lat="42.7491363" lon="12.1818695"><ele>483.0</ele><time>2026-03-28T15:27:06.327Z</time></trkpt><trkpt lat="42.7490757" lon="12.1817309"><ele>483.0</ele><time>2026-03-28T15:27:07.328Z</time></trkpt><trkpt lat="42.7490156" lon="12.1815849"><ele>483.0</ele><time>2026-03-28T15:27:08.327Z</time></trkpt><trkpt lat="42.7489527" lon="12.1814408"><ele>483.0</ele><time>2026-03-28T15:27:09.327Z</time></trkpt><trkpt lat="42.7489195" lon="12.1812874"><ele>483.0</ele><time>2026-03-28T15:27:10.327Z</time></trkpt><trkpt lat="42.748897" lon="12.1811237"><ele>481.25</ele><time>2026-03-28T15:27:11.328Z</time></trkpt><trkpt lat="42.7489041" lon="12.1809386"><ele>479.5</ele><time>2026-03-28T15:27:12.328Z</time></trkpt><trkpt lat="42.7489246" lon="12.1807443"><ele>477.75</ele><time>2026-03-28T15:27:13.328Z</time></trkpt><trkpt lat="42.7489458" lon="12.1805449"><ele>476.0</ele><time>2026-03-28T15:27:14.327Z</time></trkpt><trkpt lat="42.7489627" lon="12.1803538"><ele>475.0</ele><time>2026-03-28T15:27:15.328Z</time></trkpt><trkpt lat="42.7489758" lon="12.1801744"><ele>474.0</ele><time>2026-03-28T15:27:16.328Z</time></trkpt><trkpt lat="42.7489892" lon="12.1800181"><ele>473.0</ele><time>2026-03-28T15:27:17.327Z</time></trkpt><trkpt lat="42.7489938" lon="12.1798801"><ele>472.0</ele><time>2026-03-28T15:27:18.328Z</time></trkpt><trkpt lat="42.7489507" lon="12.1797645"><ele>471.0</ele><time>2026-03-28T15:27:19.328Z</time></trkpt><trkpt lat="42.7488847" lon="12.1796762"><ele>468.5</ele><time>2026-03-28T15:27:20.328Z</time></trkpt><trkpt lat="42.7487959" lon="12.1796158"><ele>466.0</ele><time>2026-03-28T15:27:21.328Z</time></trkpt><trkpt lat="42.7486765" lon="12.1795655"><ele>463.5</ele><time>2026-03-28T15:27:22.327Z</time></trkpt><trkpt lat="42.7485478" lon="12.1795175"><ele>461.0</ele><time>2026-03-28T15:27:23.328Z</time></trkpt><trkpt lat="42.7484097" lon="12.1794573"><ele>461.0</ele><time>2026-03-28T15:27:24.327Z</time></trkpt><trkpt lat="42.7482592" lon="12.1794003"><ele>461.0</ele><time>2026-03-28T15:27:25.327Z</time></trkpt><trkpt lat="42.748133" lon="12.179361"><ele>461.0</ele><time>2026-03-28T15:27:26.327Z</time></trkpt><trkpt lat="42.7480273" lon="12.1793386"><ele>461.0</ele><time>2026-03-28T15:27:27.327Z</time></trkpt><trkpt lat="42.7479526" lon="12.1793703"><ele>461.0</ele><time>2026-03-28T15:27:28.327Z</time></trkpt><trkpt lat="42.7479008" lon="12.1794369"><ele>461.0</ele><time>2026-03-28T15:27:29.328Z</time></trkpt><trkpt lat="42.7478549" lon="12.1795234"><ele>461.0</ele><time>2026-03-28T15:27:30.327Z</time></trkpt><trkpt lat="42.7478772" lon="12.179642"><ele>461.0</ele><time>2026-03-28T15:27:31.328Z</time></trkpt><trkpt lat="42.7479177" lon="12.1797735"><ele>461.0</ele><time>2026-03-28T15:27:32.328Z</time></trkpt><trkpt lat="42.7479598" lon="12.1799225"><ele>462.5</ele><time>2026-03-28T15:27:33.328Z</time></trkpt><trkpt lat="42.7480069" lon="12.1800786"><ele>464.0</ele><time>2026-03-28T15:27:34.328Z</time></trkpt><trkpt lat="42.7480577" lon="12.1802391"><ele>465.5</ele><time>2026-03-28T15:27:35.328Z</time></trkpt><trkpt lat="42.74811" lon="12.180404"><ele>467.0</ele><time>2026-03-28T15:27:36.328Z</time></trkpt><trkpt lat="42.7481702" lon="12.1805721"><ele>466.8</ele><time>2026-03-28T15:27:37.328Z</time></trkpt><trkpt lat="42.7482218" lon="12.1807273"><ele>466.6</ele><time>2026-03-28T15:27:38.327Z</time></trkpt><trkpt lat="42.748261" lon="12.1808737"><ele>466.40000000000003</ele><time>2026-03-28T15:27:39.328Z</time></trkpt><trkpt lat="42.7482869" lon="12.1810161"><ele>466.20000000000005</ele><time>2026-03-28T15:27:40.328Z</time></trkpt><trkpt lat="42.7482788" lon="12.1811379"><ele>466.0</ele><time>2026-03-28T15:27:41.328Z</time></trkpt><trkpt lat="42.7482628" lon="12.1812496"><ele>466.0</ele><time>2026-03-28T15:27:42.328Z</time></trkpt><trkpt lat="42.7482191" lon="12.181336"><ele>466.0</ele><time>2026-03-28T15:27:43.328Z</time></trkpt><trkpt lat="42.7481222" lon="12.1813344"><ele>466.0</ele><time>2026-03-28T15:27:44.327Z</time></trkpt><trkpt lat="42.7480297" lon="12.1812963"><ele>466.0</ele><time>2026-03-28T15:27:45.328Z</time></trkpt><trkpt lat="42.7479414" lon="12.1812577"><ele>466.0</ele><time>2026-03-28T15:27:46.327Z</time></trkpt><trkpt lat="42.7478271" lon="12.1811682"><ele>464.0</ele><time>2026-03-28T15:27:47.327Z</time></trkpt><trkpt lat="42.7476966" lon="12.1810846"><ele>462.0</ele><time>2026-03-28T15:27:48.328Z</time></trkpt><trkpt lat="42.7475636" lon="12.180997"><ele>460.0</ele><time>2026-03-28T15:27:49.327Z</time></trkpt><trkpt lat="42.7474147" lon="12.1809204"><ele>460.0</ele><time>2026-03-28T15:27:50.328Z</time></trkpt><trkpt lat="42.7472597" lon="12.1808542"><ele>460.0</ele><time>2026-03-28T15:27:51.328Z</time></trkpt><trkpt lat="42.7470887" lon="12.1807974"><ele>460.0</ele><time>2026-03-28T15:27:52.327Z</time></trkpt><trkpt lat="42.7469197" lon="12.1807323"><ele>453.0</ele><time>2026-03-28T15:27:53.327Z</time></trkpt><trkpt lat="42.7467427" lon="12.1806814"><ele>446.0</ele><time>2026-03-28T15:27:54.328Z</time></trkpt><trkpt lat="42.7465704" lon="12.1806063"><ele>439.0</ele><time>2026-03-28T15:27:55.328Z</time></trkpt><trkpt lat="42.7463913" lon="12.1805274"><ele>439.0</ele><time>2026-03-28T15:27:56.327Z</time></trkpt><trkpt lat="42.7462195" lon="12.1804359"><ele>439.0</ele><time>2026-03-28T15:27:57.328Z</time></trkpt><trkpt lat="42.7460577" lon="12.1803346"><ele>439.0</ele><time>2026-03-28T15:27:58.328Z</time></trkpt><trkpt lat="42.7459047" lon="12.1802235"><ele>439.33333333333337</ele><time>2026-03-28T15:27:59.328Z</time></trkpt><trkpt lat="42.7457539" lon="12.18014"><ele>439.66666666666663</ele><time>2026-03-28T15:28:00.327Z</time></trkpt><trkpt lat="42.7456061" lon="12.1800715"><ele>440.0</ele><time>2026-03-28T15:28:01.328Z</time></trkpt><trkpt lat="42.7454715" lon="12.1800085"><ele>440.0</ele><time>2026-03-28T15:28:02.328Z</time></trkpt><trkpt lat="42.7453347" lon="12.1799675"><ele>440.0</ele><time>2026-03-28T15:28:03.328Z</time></trkpt><trkpt lat="42.7451928" lon="12.1799423"><ele>440.0</ele><time>2026-03-28T15:28:04.328Z</time></trkpt><trkpt lat="42.74507" lon="12.1799942"><ele>440.0</ele><time>2026-03-28T15:28:05.328Z</time></trkpt><trkpt lat="42.7449497" lon="12.1800484"><ele>440.8</ele><time>2026-03-28T15:28:06.328Z</time></trkpt><trkpt lat="42.744828" lon="12.180116"><ele>441.6</ele><time>2026-03-28T15:28:07.327Z</time></trkpt><trkpt lat="42.744722" lon="12.1801582"><ele>442.4</ele><time>2026-03-28T15:28:08.328Z</time></trkpt><trkpt lat="42.7446278" lon="12.1801701"><ele>443.2</ele><time>2026-03-28T15:28:09.328Z</time></trkpt><trkpt lat="42.7445505" lon="12.1801471"><ele>444.0</ele><time>2026-03-28T15:28:10.327Z</time></trkpt><trkpt lat="42.7444826" lon="12.1800627"><ele>444.0</ele><time>2026-03-28T15:28:11.328Z</time></trkpt><trkpt lat="42.744461" lon="12.1799428"><ele>444.0</ele><time>2026-03-28T15:28:12.327Z</time></trkpt><trkpt lat="42.7445033" lon="12.1798091"><ele>444.0</ele><time>2026-03-28T15:28:13.328Z</time></trkpt><trkpt lat="42.7445445" lon="12.1796729"><ele>444.0</ele><time>2026-03-28T15:28:14.328Z</time></trkpt><trkpt lat="42.7446235" lon="12.179563"><ele>444.0</ele><time>2026-03-28T15:28:15.328Z</time></trkpt><trkpt lat="42.744719" lon="12.1794849"><ele>440.0</ele><time>2026-03-28T15:28:16.328Z</time></trkpt><trkpt lat="42.7448424" lon="12.179471"><ele>436.0</ele><time>2026-03-28T15:28:17.328Z</time></trkpt><trkpt lat="42.7449721" lon="12.1794786"><ele>432.0</ele><time>2026-03-28T15:28:18.328Z</time></trkpt><trkpt lat="42.7451054" lon="12.1795077"><ele>428.0</ele><time>2026-03-28T15:28:19.327Z</time></trkpt><trkpt lat="42.7452569" lon="12.1795602"><ele>426.66666666666663</ele><time>2026-03-28T15:28:20.327Z</time></trkpt><trkpt lat="42.745395" lon="12.1796178"><ele>425.33333333333337</ele><time>2026-03-28T15:28:21.328Z</time></trkpt><trkpt lat="42.7455384" lon="12.1796799"><ele>424.0</ele><time>2026-03-28T15:28:22.328Z</time></trkpt><trkpt lat="42.745688" lon="12.1797532"><ele>424.0</ele><time>2026-03-28T15:28:23.327Z</time></trkpt><trkpt lat="42.7458429" lon="12.179815"><ele>424.0</ele><time>2026-03-28T15:28:24.328Z</time></trkpt><trkpt lat="42.7459984" lon="12.1798805"><ele>424.0</ele><time>2026-03-28T15:28:25.328Z</time></trkpt><trkpt lat="42.7461548" lon="12.1799616"><ele>427.75</ele><time>2026-03-28T15:28:26.328Z</time></trkpt><trkpt lat="42.746303" lon="12.1800276"><ele>431.5</ele><time>2026-03-28T15:28:27.328Z</time></trkpt><trkpt lat="42.7464373" lon="12.1800887"><ele>435.25</ele><time>2026-03-28T15:28:28.328Z</time></trkpt><trkpt lat="42.7465456" lon="12.1801501"><ele>439.0</ele><time>2026-03-28T15:28:29.328Z</time></trkpt><trkpt lat="42.746653" lon="12.1802043"><ele>439.00000000000006</ele><time>2026-03-28T15:28:30.328Z</time></trkpt><trkpt lat="42.746733" lon="12.1801871"><ele>439.0</ele><time>2026-03-28T15:28:31.328Z</time></trkpt><trkpt lat="42.7468048" lon="12.1801291"><ele>439.0</ele><time>2026-03-28T15:28:32.327Z</time></trkpt><trkpt lat="42.7468427" lon="12.1800388"><ele>439.0</ele><time>2026-03-28T15:28:33.327Z</time></trkpt><trkpt lat="42.7468363" lon="12.1799204"><ele>439.00000000000006</ele><time>2026-03-28T15:28:34.327Z</time></trkpt><trkpt lat="42.7467796" lon="12.1798158"><ele>439.0</ele><time>2026-03-28T15:28:35.328Z</time></trkpt><trkpt lat="42.746712" lon="12.1797014"><ele>439.75</ele><time>2026-03-28T15:28:36.328Z</time></trkpt><trkpt lat="42.7466248" lon="12.179582"><ele>440.5</ele><time>2026-03-28T15:28:37.328Z</time></trkpt><trkpt lat="42.7465299" lon="12.1794506"><ele>441.25</ele><time>2026-03-28T15:28:38.328Z</time></trkpt><trkpt lat="42.7464234" lon="12.1792974"><ele>442.0</ele><time>2026-03-28T15:28:39.327Z</time></trkpt><trkpt lat="42.7462988" lon="12.1791541"><ele>443.0</ele><time>2026-03-28T15:28:40.328Z</time></trkpt><trkpt lat="42.7461793" lon="12.1790049"><ele>444.0</ele><time>2026-03-28T15:28:41.328Z</time></trkpt><trkpt lat="42.7460674" lon="12.1788398"><ele>445.0</ele><time>2026-03-28T15:28:42.328Z</time></trkpt><trkpt lat="42.7459746" lon="12.1786662"><ele>436.6666666666667</ele><time>2026-03-28T15:28:43.328Z</time></trkpt><trkpt lat="42.7458953" lon="12.1784884"><ele>428.33333333333337</ele><time>2026-03-28T15:28:44.327Z</time></trkpt><trkpt lat="42.7458294" lon="12.1783075"><ele>420.0</ele><time>2026-03-28T15:28:45.328Z</time></trkpt><trkpt lat="42.7457812" lon="12.1781083"><ele>419.25</ele><time>2026-03-28T15:28:46.327Z</time></trkpt><trkpt lat="42.7457586" lon="12.1779254"><ele>418.5</ele><time>2026-03-28T15:28:47.328Z</time></trkpt><trkpt lat="42.7457591" lon="12.1777328"><ele>417.75</ele><time>2026-03-28T15:28:48.328Z</time></trkpt><trkpt lat="42.7457783" lon="12.1775402"><ele>417.0</ele><time>2026-03-28T15:28:49.328Z</time></trkpt><trkpt lat="42.7457924" lon="12.1773573"><ele>415.25</ele><time>2026-03-28T15:28:50.328Z</time></trkpt><trkpt lat="42.7457899" lon="12.1771759"><ele>413.5</ele><time>2026-03-28T15:28:51.328Z</time></trkpt><trkpt lat="42.7457916" lon="12.1769982"><ele>411.75</ele><time>2026-03-28T15:28:52.328Z</time></trkpt><trkpt lat="42.7458152" lon="12.1768268"><ele>410.0</ele><time>2026-03-28T15:28:53.327Z</time></trkpt><trkpt lat="42.745866" lon="12.1766583"><ele>410.0</ele><time>2026-03-28T15:28:54.328Z</time></trkpt><trkpt lat="42.7459436" lon="12.1765032"><ele>410.0</ele><time>2026-03-28T15:28:55.327Z</time></trkpt><trkpt lat="42.7460353" lon="12.176361"><ele>410.0</ele><time>2026-03-28T15:28:56.328Z</time></trkpt><trkpt lat="42.7461245" lon="12.1762276"><ele>410.0</ele><time>2026-03-28T15:28:57.328Z</time></trkpt><trkpt lat="42.7462055" lon="12.1760848"><ele>410.0</ele><time>2026-03-28T15:28:58.328Z</time></trkpt><trkpt lat="42.7462334" lon="12.1759065"><ele>410.0</ele><time>2026-03-28T15:28:59.327Z</time></trkpt><trkpt lat="42.7462545" lon="12.1757189"><ele>410.0</ele><time>2026-03-28T15:29:00.328Z</time></trkpt><trkpt lat="42.7462838" lon="12.1755319"><ele>410.0</ele><time>2026-03-28T15:29:01.328Z</time></trkpt><trkpt lat="42.7463301" lon="12.1753483"><ele>407.75</ele><time>2026-03-28T15:29:02.328Z</time></trkpt><trkpt lat="42.7463831" lon="12.1751627"><ele>405.5</ele><time>2026-03-28T15:29:03.328Z</time></trkpt><trkpt lat="42.7464359" lon="12.1749853"><ele>403.25</ele><time>2026-03-28T15:29:04.328Z</time></trkpt><trkpt lat="42.7464943" lon="12.1748166"><ele>401.0</ele><time>2026-03-28T15:29:05.328Z</time></trkpt><trkpt lat="42.7465471" lon="12.1746533"><ele>398.5</ele><time>2026-03-28T15:29:06.328Z</time></trkpt><trkpt lat="42.7466211" lon="12.1745262"><ele>396.0</ele><time>2026-03-28T15:29:07.328Z</time></trkpt><trkpt lat="42.7467099" lon="12.1744238"><ele>393.5</ele><time>2026-03-28T15:29:08.328Z</time></trkpt><trkpt lat="42.7468098" lon="12.1743709"><ele>391.0</ele><time>2026-03-28T15:29:09.328Z</time></trkpt><trkpt lat="42.7469244" lon="12.1743433"><ele>389.25</ele><time>2026-03-28T15:29:10.328Z</time></trkpt><trkpt lat="42.7470346" lon="12.1743567"><ele>387.5</ele><time>2026-03-28T15:29:11.328Z</time></trkpt><trkpt lat="42.7471553" lon="12.1744123"><ele>385.75</ele><time>2026-03-28T15:29:12.327Z</time></trkpt><trkpt lat="42.7472879" lon="12.1744802"><ele>384.0</ele><time>2026-03-28T15:29:13.328Z</time></trkpt><trkpt lat="42.7474212" lon="12.1745507"><ele>384.0</ele><time>2026-03-28T15:29:14.328Z</time></trkpt><trkpt lat="42.7475613" lon="12.174633"><ele>384.0</ele><time>2026-03-28T15:29:15.328Z</time></trkpt><trkpt lat="42.7476961" lon="12.1747311"><ele>384.0</ele><time>2026-03-28T15:29:16.328Z</time></trkpt><trkpt lat="42.7478226" lon="12.1748389"><ele>385.0</ele><time>2026-03-28T15:29:17.328Z</time></trkpt><trkpt lat="42.7479425" lon="12.1749358"><ele>386.0</ele><time>2026-03-28T15:29:18.328Z</time></trkpt><trkpt lat="42.7480664" lon="12.1750124"><ele>387.0</ele><time>2026-03-28T15:29:19.328Z</time></trkpt><trkpt lat="42.7482021" lon="12.1750583"><ele>388.0</ele><time>2026-03-28T15:29:20.328Z</time></trkpt><trkpt lat="42.7483548" lon="12.1750827"><ele>388.0</ele><time>2026-03-28T15:29:21.328Z</time></trkpt><trkpt lat="42.748509" lon="12.1750596"><ele>388.0</ele><time>2026-03-28T15:29:22.328Z</time></trkpt><trkpt lat="42.748669" lon="12.1750258"><ele>388.0</ele><time>2026-03-28T15:29:23.328Z</time></trkpt><trkpt lat="42.7488341" lon="12.1749971"><ele>386.25</ele><time>2026-03-28T15:29:24.328Z</time></trkpt><trkpt lat="42.7489918" lon="12.1749734"><ele>384.5</ele><time>2026-03-28T15:29:25.328Z</time></trkpt><trkpt lat="42.7491263" lon="12.1749511"><ele>382.75</ele><time>2026-03-28T15:29:26.327Z</time></trkpt><trkpt lat="42.7492415" lon="12.1749345"><ele>381.0</ele><time>2026-03-28T15:29:27.328Z</time></trkpt><trkpt lat="42.7493368" lon="12.1749119"><ele>376.1666666666667</ele><time>2026-03-28T15:29:28.328Z</time></trkpt><trkpt lat="42.7494112" lon="12.1748731"><ele>371.3333333333333</ele><time>2026-03-28T15:29:29.327Z</time></trkpt><trkpt lat="42.749466" lon="12.1748002"><ele>366.5</ele><time>2026-03-28T15:29:30.327Z</time></trkpt><trkpt lat="42.7494969" lon="12.1746987"><ele>361.66666666666663</ele><time>2026-03-28T15:29:31.327Z</time></trkpt><trkpt lat="42.7494932" lon="12.1745807"><ele>356.8333333333333</ele><time>2026-03-28T15:29:32.328Z</time></trkpt><trkpt lat="42.7494529" lon="12.1744473"><ele>352.0</ele><time>2026-03-28T15:29:33.328Z</time></trkpt><trkpt lat="42.7494074" lon="12.1743078"><ele>356.25</ele><time>2026-03-28T15:29:34.328Z</time></trkpt><trkpt lat="42.7493518" lon="12.1741592"><ele>360.5</ele><time>2026-03-28T15:29:35.328Z</time></trkpt><trkpt lat="42.7492999" lon="12.173985"><ele>364.75</ele><time>2026-03-28T15:29:36.328Z</time></trkpt><trkpt lat="42.7492347" lon="12.1737998"><ele>369.0</ele><time>2026-03-28T15:29:37.328Z</time></trkpt><trkpt lat="42.7491617" lon="12.1736098"><ele>369.0</ele><time>2026-03-28T15:29:38.328Z</time></trkpt><trkpt lat="42.7490971" lon="12.1734276"><ele>369.0</ele><time>2026-03-28T15:29:39.328Z</time></trkpt><trkpt lat="42.7490271" lon="12.173249"><ele>369.0</ele><time>2026-03-28T15:29:40.328Z</time></trkpt><trkpt lat="42.7489629" lon="12.1730749"><ele>369.0</ele><time>2026-03-28T15:29:41.328Z</time></trkpt><trkpt lat="42.7488976" lon="12.17292"><ele>367.25</ele><time>2026-03-28T15:29:42.327Z</time></trkpt><trkpt lat="42.7488344" lon="12.1727833"><ele>365.5</ele><time>2026-03-28T15:29:43.328Z</time></trkpt><trkpt lat="42.7487576" lon="12.1726537"><ele>363.75</ele><time>2026-03-28T15:29:44.328Z</time></trkpt><trkpt lat="42.7486548" lon="12.1725373"><ele>362.0</ele><time>2026-03-28T15:29:45.327Z</time></trkpt><trkpt lat="42.7485409" lon="12.1724374"><ele>362.0</ele><time>2026-03-28T15:29:46.327Z</time></trkpt><trkpt lat="42.7484167" lon="12.1723649"><ele>362.0</ele><time>2026-03-28T15:29:47.327Z</time></trkpt><trkpt lat="42.7482995" lon="12.1723099"><ele>362.0</ele><time>2026-03-28T15:29:48.327Z</time></trkpt><trkpt lat="42.7481862" lon="12.1722614"><ele>362.0</ele><time>2026-03-28T15:29:49.327Z</time></trkpt><trkpt lat="42.7480997" lon="12.1721902"><ele>360.8</ele><time>2026-03-28T15:29:50.328Z</time></trkpt><trkpt lat="42.7480465" lon="12.1720882"><ele>359.6</ele><time>2026-03-28T15:29:51.328Z</time></trkpt><trkpt lat="42.748019" lon="12.1719572"><ele>358.40000000000003</ele><time>2026-03-28T15:29:52.327Z</time></trkpt><trkpt lat="42.7480201" lon="12.1718116"><ele>357.20000000000005</ele><time>2026-03-28T15:29:53.328Z</time></trkpt><trkpt lat="42.7480231" lon="12.1716599"><ele>356.0</ele><time>2026-03-28T15:29:54.328Z</time></trkpt><trkpt lat="42.7480101" lon="12.1715108"><ele>354.0</ele><time>2026-03-28T15:29:55.327Z</time></trkpt><trkpt lat="42.7479522" lon="12.1713521"><ele>352.0</ele><time>2026-03-28T15:29:56.328Z</time></trkpt><trkpt lat="42.7478879" lon="12.1712069"><ele>350.0</ele><time>2026-03-28T15:29:57.328Z</time></trkpt><trkpt lat="42.7478143" lon="12.1710696"><ele>348.0</ele><time>2026-03-28T15:29:58.328Z</time></trkpt><trkpt lat="42.7477118" lon="12.1709477"><ele>349.6666666666667</ele><time>2026-03-28T15:29:59.328Z</time></trkpt><trkpt lat="42.7475927" lon="12.1708263"><ele>351.33333333333337</ele><time>2026-03-28T15:30:00.328Z</time></trkpt><trkpt lat="42.7474637" lon="12.1706978"><ele>353.0</ele><time>2026-03-28T15:30:01.328Z</time></trkpt><trkpt lat="42.7473244" lon="12.1705728"><ele>356.0</ele><time>2026-03-28T15:30:02.327Z</time></trkpt><trkpt lat="42.7471773" lon="12.1704553"><ele>359.0</ele><time>2026-03-28T15:30:03.328Z</time></trkpt><trkpt lat="42.747039" lon="12.1703291"><ele>362.0</ele><time>2026-03-28T15:30:04.328Z</time></trkpt><trkpt lat="42.7468957" lon="12.1701963"><ele>361.33333333333337</ele><time>2026-03-28T15:30:05.327Z</time></trkpt><trkpt lat="42.7467611" lon="12.1700627"><ele>360.6666666666667</ele><time>2026-03-28T15:30:06.328Z</time></trkpt><trkpt lat="42.746625" lon="12.1699128"><ele>360.0</ele><time>2026-03-28T15:30:07.327Z</time></trkpt><trkpt lat="42.7464969" lon="12.1697563"><ele>360.0</ele><time>2026-03-28T15:30:08.327Z</time></trkpt><trkpt lat="42.7463695" lon="12.1695977"><ele>360.0</ele><time>2026-03-28T15:30:09.328Z</time></trkpt><trkpt lat="42.7462424" lon="12.169441"><ele>360.0</ele><time>2026-03-28T15:30:10.328Z</time></trkpt><trkpt lat="42.7461264" lon="12.1692831"><ele>356.0</ele><time>2026-03-28T15:30:11.328Z</time></trkpt><trkpt lat="42.7460068" lon="12.1691276"><ele>352.0</ele><time>2026-03-28T15:30:12.328Z</time></trkpt><trkpt lat="42.7459032" lon="12.1689716"><ele>348.0</ele><time>2026-03-28T15:30:13.328Z</time></trkpt><trkpt lat="42.7458109" lon="12.1688001"><ele>348.0</ele><time>2026-03-28T15:30:14.327Z</time></trkpt><trkpt lat="42.7457311" lon="12.1686232"><ele>348.0</ele><time>2026-03-28T15:30:15.328Z</time></trkpt><trkpt lat="42.7456534" lon="12.1684501"><ele>348.0</ele><time>2026-03-28T15:30:16.328Z</time></trkpt><trkpt lat="42.7455513" lon="12.1682957"><ele>348.75</ele><time>2026-03-28T15:30:17.328Z</time></trkpt><trkpt lat="42.7454524" lon="12.1681489"><ele>349.5</ele><time>2026-03-28T15:30:18.327Z</time></trkpt><trkpt lat="42.7453561" lon="12.1680025"><ele>350.25</ele><time>2026-03-28T15:30:19.327Z</time></trkpt><trkpt lat="42.7452559" lon="12.167863"><ele>351.0</ele><time>2026-03-28T15:30:20.328Z</time></trkpt><trkpt lat="42.7451658" lon="12.1677403"><ele>347.0</ele><time>2026-03-28T15:30:21.328Z</time></trkpt><trkpt lat="42.7450981" lon="12.1676182"><ele>343.0</ele><time>2026-03-28T15:30:22.327Z</time></trkpt><trkpt lat="42.7450394" lon="12.1674994"><ele>339.0</ele><time>2026-03-28T15:30:23.328Z</time></trkpt><trkpt lat="42.7450366" lon="12.1673518"><ele>335.0</ele><time>2026-03-28T15:30:24.327Z</time></trkpt><trkpt lat="42.7450342" lon="12.1672025"><ele>331.0</ele><time>2026-03-28T15:30:25.328Z</time></trkpt><trkpt lat="42.7450378" lon="12.1670329"><ele>330.20000000000005</ele><time>2026-03-28T15:30:26.327Z</time></trkpt><trkpt lat="42.7450471" lon="12.1668739"><ele>329.40000000000003</ele><time>2026-03-28T15:30:27.327Z</time></trkpt><trkpt lat="42.7450778" lon="12.1667289"><ele>328.6</ele><time>2026-03-28T15:30:28.328Z</time></trkpt><trkpt lat="42.7451361" lon="12.1666102"><ele>327.8</ele><time>2026-03-28T15:30:29.328Z</time></trkpt><trkpt lat="42.74521" lon="12.1665076"><ele>327.0</ele><time>2026-03-28T15:30:30.328Z</time></trkpt><trkpt lat="42.745314" lon="12.1664488"><ele>324.75</ele><time>2026-03-28T15:30:31.328Z</time></trkpt><trkpt lat="42.7454387" lon="12.1664189"><ele>322.5</ele><time>2026-03-28T15:30:32.328Z</time></trkpt><trkpt lat="42.7455699" lon="12.1663997"><ele>320.25</ele><time>2026-03-28T15:30:33.327Z</time></trkpt><trkpt lat="42.7456976" lon="12.166369"><ele>318.0</ele><time>2026-03-28T15:30:34.327Z</time></trkpt><trkpt lat="42.7458213" lon="12.1663083"><ele>318.0</ele><time>2026-03-28T15:30:35.328Z</time></trkpt><trkpt lat="42.7459577" lon="12.1662469"><ele>318.0</ele><time>2026-03-28T15:30:36.328Z</time></trkpt><trkpt lat="42.7460995" lon="12.1661837"><ele>318.0</ele><time>2026-03-28T15:30:37.327Z</time></trkpt><trkpt lat="42.7462618" lon="12.1661356"><ele>319.3333333333333</ele><time>2026-03-28T15:30:38.328Z</time></trkpt><trkpt lat="42.7464134" lon="12.1660797"><ele>320.66666666666663</ele><time>2026-03-28T15:30:39.328Z</time></trkpt><trkpt lat="42.7465603" lon="12.1660157"><ele>322.0</ele><time>2026-03-28T15:30:40.328Z</time></trkpt><trkpt lat="42.7466889" lon="12.1659317"><ele>322.0</ele><time>2026-03-28T15:30:41.328Z</time></trkpt><trkpt lat="42.7468095" lon="12.1658031"><ele>322.0</ele><time>2026-03-28T15:30:42.328Z</time></trkpt><trkpt lat="42.7469179" lon="12.165644"><ele>322.0</ele><time>2026-03-28T15:30:43.328Z</time></trkpt><trkpt lat="42.7470238" lon="12.1654716"><ele>320.0</ele><time>2026-03-28T15:30:44.328Z</time></trkpt><trkpt lat="42.7471309" lon="12.1652855"><ele>318.0</ele><time>2026-03-28T15:30:45.327Z</time></trkpt><trkpt lat="42.7472337" lon="12.1651026"><ele>316.0</ele><time>2026-03-28T15:30:46.327Z</time></trkpt><trkpt lat="42.7473243" lon="12.1649242"><ele>314.25</ele><time>2026-03-28T15:30:47.327Z</time></trkpt><trkpt lat="42.7474209" lon="12.164754"><ele>312.5</ele><time>2026-03-28T15:30:48.328Z</time></trkpt><trkpt lat="42.7475024" lon="12.1646042"><ele>310.75</ele><time>2026-03-28T15:30:49.328Z</time></trkpt><trkpt lat="42.7475712" lon="12.1644817"><ele>309.0</ele><time>2026-03-28T15:30:50.328Z</time></trkpt><trkpt lat="42.747635" lon="12.164399"><ele>309.0</ele><time>2026-03-28T15:30:51.328Z</time></trkpt><trkpt lat="42.7477035" lon="12.164346"><ele>309.0</ele><time>2026-03-28T15:30:52.327Z</time></trkpt><trkpt lat="42.7477723" lon="12.1643356"><ele>309.0</ele><time>2026-03-28T15:30:53.328Z</time></trkpt><trkpt lat="42.7478396" lon="12.1643786"><ele>309.0</ele><time>2026-03-28T15:30:54.327Z</time></trkpt><trkpt lat="42.7478827" lon="12.1644652"><ele>309.0</ele><time>2026-03-28T15:30:55.328Z</time></trkpt><trkpt lat="42.747907" lon="12.1645863"><ele>309.0</ele><time>2026-03-28T15:30:56.328Z</time></trkpt><trkpt lat="42.7479235" lon="12.1647192"><ele>308.8</ele><time>2026-03-28T15:30:57.328Z</time></trkpt><trkpt lat="42.7479492" lon="12.1648554"><ele>308.59999999999997</ele><time>2026-03-28T15:30:58.328Z</time></trkpt><trkpt lat="42.7479916" lon="12.164976"><ele>308.4</ele><time>2026-03-28T15:30:59.328Z</time></trkpt><trkpt lat="42.748065" lon="12.16507"><ele>308.2</ele><time>2026-03-28T15:31:00.328Z</time></trkpt><trkpt lat="42.7481687" lon="12.1651359"><ele>308.0</ele><time>2026-03-28T15:31:01.327Z</time></trkpt><trkpt lat="42.7482736" lon="12.1651812"><ele>308.0</ele><time>2026-03-28T15:31:02.328Z</time></trkpt><trkpt lat="42.7483877" lon="12.1652192"><ele>308.0</ele><time>2026-03-28T15:31:03.328Z</time></trkpt><trkpt lat="42.7484873" lon="12.1652433"><ele>308.0</ele><time>2026-03-28T15:31:04.328Z</time></trkpt><trkpt lat="42.7485796" lon="12.1652271"><ele>308.0</ele><time>2026-03-28T15:31:05.328Z</time></trkpt><trkpt lat="42.7486436" lon="12.165171"><ele>308.0</ele><time>2026-03-28T15:31:06.327Z</time></trkpt><trkpt lat="42.7486958" lon="12.1650781"><ele>306.8</ele><time>2026-03-28T15:31:07.328Z</time></trkpt><trkpt lat="42.7487104" lon="12.1649576"><ele>305.6</ele><time>2026-03-28T15:31:08.328Z</time></trkpt><trkpt lat="42.7486892" lon="12.1648475"><ele>304.4</ele><time>2026-03-28T15:31:09.327Z</time></trkpt><trkpt lat="42.7486306" lon="12.1647662"><ele>303.2</ele><time>2026-03-28T15:31:10.327Z</time></trkpt><trkpt lat="42.7485558" lon="12.1646871"><ele>302.0</ele><time>2026-03-28T15:31:11.327Z</time></trkpt><trkpt lat="42.748447" lon="12.1646362"><ele>301.75</ele><time>2026-03-28T15:31:12.328Z</time></trkpt><trkpt lat="42.7483434" lon="12.1645575"><ele>301.5</ele><time>2026-03-28T15:31:13.327Z</time></trkpt><trkpt lat="42.7482514" lon="12.1644447"><ele>301.25</ele><time>2026-03-28T15:31:14.328Z</time></trkpt><trkpt lat="42.748169" lon="12.1642961"><ele>301.0</ele><time>2026-03-28T15:31:15.328Z</time></trkpt><trkpt lat="42.7480898" lon="12.1641365"><ele>299.0</ele><time>2026-03-28T15:31:16.327Z</time></trkpt><trkpt lat="42.7480165" lon="12.1639792"><ele>297.0</ele><time>2026-03-28T15:31:17.328Z</time></trkpt><trkpt lat="42.7479416" lon="12.1638335"><ele>295.0</ele><time>2026-03-28T15:31:18.328Z</time></trkpt><trkpt lat="42.7478709" lon="12.1636832"><ele>293.0</ele><time>2026-03-28T15:31:19.327Z</time></trkpt><trkpt lat="42.7477979" lon="12.16353"><ele>294.5</ele><time>2026-03-28T15:31:20.328Z</time></trkpt><trkpt lat="42.747704" lon="12.1634131"><ele>296.0</ele><time>2026-03-28T15:31:21.327Z</time></trkpt><trkpt lat="42.74761" lon="12.1632978"><ele>297.5</ele><time>2026-03-28T15:31:22.328Z</time></trkpt><trkpt lat="42.7474824" lon="12.1632356"><ele>299.0</ele><time>2026-03-28T15:31:23.328Z</time></trkpt><trkpt lat="42.7473743" lon="12.1631792"><ele>296.4</ele><time>2026-03-28T15:31:24.328Z</time></trkpt><trkpt lat="42.7472702" lon="12.1631408"><ele>293.79999999999995</ele><time>2026-03-28T15:31:25.328Z</time></trkpt><trkpt lat="42.7471899" lon="12.1631001"><ele>291.20000000000005</ele><time>2026-03-28T15:31:26.328Z</time></trkpt><trkpt lat="42.7471299" lon="12.1630533"><ele>288.6</ele><time>2026-03-28T15:31:27.328Z</time></trkpt><trkpt lat="42.7471309" lon="12.1628957"><ele>286.0</ele><time>2026-03-28T15:31:29.328Z</time></trkpt><trkpt lat="42.7471795" lon="12.1628135"><ele>286.0</ele><time>2026-03-28T15:31:30.328Z</time></trkpt><trkpt lat="42.7472556" lon="12.162759"><ele>286.0</ele><time>2026-03-28T15:31:31.328Z</time></trkpt><trkpt lat="42.7473316" lon="12.1627636"><ele>286.0</ele><time>2026-03-28T15:31:32.328Z</time></trkpt><trkpt lat="42.7474135" lon="12.16282"><ele>286.0</ele><time>2026-03-28T15:31:33.328Z</time></trkpt><trkpt lat="42.747494" lon="12.1629042"><ele>286.0</ele><time>2026-03-28T15:31:34.328Z</time></trkpt><trkpt lat="42.7475791" lon="12.1630147"><ele>286.0</ele><time>2026-03-28T15:31:35.327Z</time></trkpt><trkpt lat="42.7476762" lon="12.163129"><ele>286.0</ele><time>2026-03-28T15:31:36.328Z</time></trkpt><trkpt lat="42.7477774" lon="12.1632433"><ele>286.0</ele><time>2026-03-28T15:31:37.328Z</time></trkpt><trkpt lat="42.747865" lon="12.163351"><ele>286.0</ele><time>2026-03-28T15:31:38.328Z</time></trkpt><trkpt lat="42.7479622" lon="12.1634318"><ele>285.0</ele><time>2026-03-28T15:31:39.328Z</time></trkpt><trkpt lat="42.7480595" lon="12.163474"><ele>284.0</ele><time>2026-03-28T15:31:40.328Z</time></trkpt><trkpt lat="42.7481751" lon="12.163465"><ele>283.0</ele><time>2026-03-28T15:31:41.327Z</time></trkpt><trkpt lat="42.7482821" lon="12.1634233"><ele>282.0</ele><time>2026-03-28T15:31:42.328Z</time></trkpt><trkpt lat="42.7483507" lon="12.1633129"><ele>281.0</ele><time>2026-03-28T15:31:43.328Z</time></trkpt><trkpt lat="42.7484025" lon="12.1631691"><ele>281.0</ele><time>2026-03-28T15:31:44.328Z</time></trkpt><trkpt lat="42.7484436" lon="12.1629924"><ele>281.0</ele><time>2026-03-28T15:31:45.327Z</time></trkpt><trkpt lat="42.748473" lon="12.1628012"><ele>281.0</ele><time>2026-03-28T15:31:46.328Z</time></trkpt><trkpt lat="42.7485" lon="12.1626126"><ele>281.0</ele><time>2026-03-28T15:31:47.328Z</time></trkpt><trkpt lat="42.7485407" lon="12.1624379"><ele>279.0</ele><time>2026-03-28T15:31:48.327Z</time></trkpt><trkpt lat="42.7486075" lon="12.1622853"><ele>277.0</ele><time>2026-03-28T15:31:49.328Z</time></trkpt><trkpt lat="42.7487007" lon="12.162155"><ele>275.0</ele><time>2026-03-28T15:31:50.327Z</time></trkpt><trkpt lat="42.7487796" lon="12.1620369"><ele>273.0</ele><time>2026-03-28T15:31:51.327Z</time></trkpt><trkpt lat="42.74884" lon="12.1619137"><ele>273.0</ele><time>2026-03-28T15:31:52.328Z</time></trkpt><trkpt lat="42.7488478" lon="12.1617622"><ele>273.0</ele><time>2026-03-28T15:31:53.328Z</time></trkpt><trkpt lat="42.7488198" lon="12.1615874"><ele>273.0</ele><time>2026-03-28T15:31:54.328Z</time></trkpt><trkpt lat="42.7487725" lon="12.1613964"><ele>273.0</ele><time>2026-03-28T15:31:55.328Z</time></trkpt><trkpt lat="42.7487157" lon="12.1612064"><ele>272.5</ele><time>2026-03-28T15:31:56.327Z</time></trkpt><trkpt lat="42.7486657" lon="12.1610191"><ele>272.0</ele><time>2026-03-28T15:31:57.328Z</time></trkpt><trkpt lat="42.7486067" lon="12.1608301"><ele>271.5</ele><time>2026-03-28T15:31:58.328Z</time></trkpt><trkpt lat="42.7485436" lon="12.1606499"><ele>271.0</ele><time>2026-03-28T15:31:59.327Z</time></trkpt><trkpt lat="42.7484652" lon="12.1604777"><ele>271.0</ele><time>2026-03-28T15:32:00.328Z</time></trkpt><trkpt lat="42.7483613" lon="12.1603166"><ele>271.0</ele><time>2026-03-28T15:32:01.327Z</time></trkpt><trkpt lat="42.7482553" lon="12.1601591"><ele>271.0</ele><time>2026-03-28T15:32:02.328Z</time></trkpt><trkpt lat="42.7481268" lon="12.1600144"><ele>269.66666666666663</ele><time>2026-03-28T15:32:03.328Z</time></trkpt><trkpt lat="42.7480075" lon="12.1598655"><ele>268.3333333333333</ele><time>2026-03-28T15:32:04.328Z</time></trkpt><trkpt lat="42.7478671" lon="12.1597601"><ele>267.0</ele><time>2026-03-28T15:32:05.328Z</time></trkpt><trkpt lat="42.747731" lon="12.1596691"><ele>266.75</ele><time>2026-03-28T15:32:06.327Z</time></trkpt><trkpt lat="42.7475944" lon="12.1595965"><ele>266.5</ele><time>2026-03-28T15:32:07.327Z</time></trkpt><trkpt lat="42.7474872" lon="12.1595117"><ele>266.25</ele><time>2026-03-28T15:32:08.327Z</time></trkpt><trkpt lat="42.747399" lon="12.1594161"><ele>266.0</ele><time>2026-03-28T15:32:09.328Z</time></trkpt><trkpt lat="42.7473388" lon="12.1592952"><ele>266.0</ele><time>2026-03-28T15:32:10.328Z</time></trkpt><trkpt lat="42.7473087" lon="12.1591608"><ele>266.0</ele><time>2026-03-28T15:32:11.328Z</time></trkpt><trkpt lat="42.7472989" lon="12.1590115"><ele>266.0</ele><time>2026-03-28T15:32:12.328Z</time></trkpt><trkpt lat="42.7472939" lon="12.1588526"><ele>266.0</ele><time>2026-03-28T15:32:13.328Z</time></trkpt><trkpt lat="42.7472933" lon="12.1586702"><ele>265.25</ele><time>2026-03-28T15:32:14.328Z</time></trkpt><trkpt lat="42.747292" lon="12.1584659"><ele>264.5</ele><time>2026-03-28T15:32:15.328Z</time></trkpt><trkpt lat="42.7472863" lon="12.1582694"><ele>263.75</ele><time>2026-03-28T15:32:16.328Z</time></trkpt><trkpt lat="42.7472517" lon="12.1580809"><ele>263.0</ele><time>2026-03-28T15:32:17.328Z</time></trkpt><trkpt lat="42.7472188" lon="12.1578824"><ele>262.75</ele><time>2026-03-28T15:32:18.327Z</time></trkpt><trkpt lat="42.7471897" lon="12.1576889"><ele>262.5</ele><time>2026-03-28T15:32:19.328Z</time></trkpt><trkpt lat="42.7471627" lon="12.1574992"><ele>262.25</ele><time>2026-03-28T15:32:20.328Z</time></trkpt><trkpt lat="42.7471364" lon="12.1573158"><ele>262.0</ele><time>2026-03-28T15:32:21.327Z</time></trkpt><trkpt lat="42.7470966" lon="12.1571721"><ele>261.0</ele><time>2026-03-28T15:32:22.328Z</time></trkpt><trkpt lat="42.747053" lon="12.1570286"><ele>260.0</ele><time>2026-03-28T15:32:23.328Z</time></trkpt><trkpt lat="42.7469518" lon="12.1569423"><ele>259.0</ele><time>2026-03-28T15:32:24.328Z</time></trkpt><trkpt lat="42.7468454" lon="12.1568596"><ele>258.0</ele><time>2026-03-28T15:32:25.327Z</time></trkpt><trkpt lat="42.7467213" lon="12.1567977"><ele>258.0</ele><time>2026-03-28T15:32:26.327Z</time></trkpt><trkpt lat="42.7465778" lon="12.1567543"><ele>258.0</ele><time>2026-03-28T15:32:27.327Z</time></trkpt><trkpt lat="42.7464378" lon="12.1566854"><ele>258.0</ele><time>2026-03-28T15:32:28.327Z</time></trkpt><trkpt lat="42.7462889" lon="12.1565964"><ele>255.33333333333331</ele><time>2026-03-28T15:32:29.328Z</time></trkpt><trkpt lat="42.7461504" lon="12.1564892"><ele>252.66666666666666</ele><time>2026-03-28T15:32:30.328Z</time></trkpt><trkpt lat="42.7460088" lon="12.1563767"><ele>250.0</ele><time>2026-03-28T15:32:31.328Z</time></trkpt><trkpt lat="42.7458723" lon="12.1562367"><ele>250.0</ele><time>2026-03-28T15:32:32.328Z</time></trkpt><trkpt lat="42.7457509" lon="12.1560757"><ele>250.0</ele><time>2026-03-28T15:32:33.328Z</time></trkpt><trkpt lat="42.7456311" lon="12.1559025"><ele>250.0</ele><time>2026-03-28T15:32:34.328Z</time></trkpt><trkpt lat="42.7455159" lon="12.1557319"><ele>246.33333333333331</ele><time>2026-03-28T15:32:35.327Z</time></trkpt><trkpt lat="42.7454048" lon="12.1555603"><ele>242.66666666666669</ele><time>2026-03-28T15:32:36.328Z</time></trkpt><trkpt lat="42.7453072" lon="12.1553822"><ele>239.0</ele><time>2026-03-28T15:32:37.328Z</time></trkpt><trkpt lat="42.7452186" lon="12.1552048"><ele>240.5</ele><time>2026-03-28T15:32:38.328Z</time></trkpt><trkpt lat="42.7451564" lon="12.1550303"><ele>242.0</ele><time>2026-03-28T15:32:39.328Z</time></trkpt><trkpt lat="42.7451299" lon="12.1548471"><ele>243.5</ele><time>2026-03-28T15:32:40.328Z</time></trkpt><trkpt lat="42.7451111" lon="12.1546632"><ele>245.0</ele><time>2026-03-28T15:32:41.327Z</time></trkpt><trkpt lat="42.7451123" lon="12.154485"><ele>245.0</ele><time>2026-03-28T15:32:42.328Z</time></trkpt><trkpt lat="42.7451249" lon="12.1543189"><ele>245.0</ele><time>2026-03-28T15:32:43.328Z</time></trkpt><trkpt lat="42.7451689" lon="12.154184"><ele>245.0</ele><time>2026-03-28T15:32:44.327Z</time></trkpt><trkpt lat="42.7452329" lon="12.1540747"><ele>245.0</ele><time>2026-03-28T15:32:45.328Z</time></trkpt><trkpt lat="42.7453191" lon="12.1539847"><ele>245.0</ele><time>2026-03-28T15:32:46.328Z</time></trkpt><trkpt lat="42.7454247" lon="12.1539047"><ele>244.75</ele><time>2026-03-28T15:32:47.328Z</time></trkpt><trkpt lat="42.7455428" lon="12.1538333"><ele>244.5</ele><time>2026-03-28T15:32:48.327Z</time></trkpt><trkpt lat="42.7456529" lon="12.1537634"><ele>244.25</ele><time>2026-03-28T15:32:49.328Z</time></trkpt><trkpt lat="42.7457452" lon="12.1536857"><ele>244.0</ele><time>2026-03-28T15:32:50.328Z</time></trkpt><trkpt lat="42.7458201" lon="12.153598"><ele>244.0</ele><time>2026-03-28T15:32:51.328Z</time></trkpt><trkpt lat="42.7458854" lon="12.1535033"><ele>243.99999999999997</ele><time>2026-03-28T15:32:52.328Z</time></trkpt><trkpt lat="42.7458662" lon="12.1533757"><ele>243.99999999999997</ele><time>2026-03-28T15:32:53.327Z</time></trkpt><trkpt lat="42.7458343" lon="12.153258"><ele>244.0</ele><time>2026-03-28T15:32:54.328Z</time></trkpt><trkpt lat="42.7457884" lon="12.1531338"><ele>244.0</ele><time>2026-03-28T15:32:55.327Z</time></trkpt><trkpt lat="42.7457191" lon="12.1529892"><ele>241.75</ele><time>2026-03-28T15:32:56.328Z</time></trkpt><trkpt lat="42.7456473" lon="12.1528399"><ele>239.5</ele><time>2026-03-28T15:32:57.328Z</time></trkpt><trkpt lat="42.7455662" lon="12.1526794"><ele>237.25</ele><time>2026-03-28T15:32:58.327Z</time></trkpt><trkpt lat="42.7454862" lon="12.1525234"><ele>235.0</ele><time>2026-03-28T15:32:59.328Z</time></trkpt><trkpt lat="42.7454396" lon="12.1523722"><ele>234.25</ele><time>2026-03-28T15:33:00.328Z</time></trkpt><trkpt lat="42.745389" lon="12.1522163"><ele>233.5</ele><time>2026-03-28T15:33:01.327Z</time></trkpt><trkpt lat="42.7453984" lon="12.1520577"><ele>232.75</ele><time>2026-03-28T15:33:02.328Z</time></trkpt><trkpt lat="42.7454526" lon="12.1519263"><ele>232.0</ele><time>2026-03-28T15:33:03.327Z</time></trkpt><trkpt lat="42.7455017" lon="12.151786"><ele>232.0</ele><time>2026-03-28T15:33:04.328Z</time></trkpt><trkpt lat="42.7455696" lon="12.1516516"><ele>232.0</ele><time>2026-03-28T15:33:05.328Z</time></trkpt><trkpt lat="42.7456598" lon="12.1515385"><ele>232.0</ele><time>2026-03-28T15:33:06.328Z</time></trkpt><trkpt lat="42.7457601" lon="12.1514468"><ele>232.0</ele><time>2026-03-28T15:33:07.328Z</time></trkpt><trkpt lat="42.7458493" lon="12.1513597"><ele>232.6</ele><time>2026-03-28T15:33:08.327Z</time></trkpt><trkpt lat="42.7459154" lon="12.1512542"><ele>233.2</ele><time>2026-03-28T15:33:09.328Z</time></trkpt><trkpt lat="42.7459539" lon="12.1511507"><ele>233.8</ele><time>2026-03-28T15:33:10.328Z</time></trkpt><trkpt lat="42.7459606" lon="12.1510341"><ele>234.4</ele><time>2026-03-28T15:33:11.328Z</time></trkpt><trkpt lat="42.7459432" lon="12.1509197"><ele>235.0</ele><time>2026-03-28T15:33:12.327Z</time></trkpt><trkpt lat="42.7458462" lon="12.1508386"><ele>235.0</ele><time>2026-03-28T15:33:13.328Z</time></trkpt><trkpt lat="42.7457624" lon="12.1507455"><ele>235.0</ele><time>2026-03-28T15:33:14.327Z</time></trkpt><trkpt lat="42.7456781" lon="12.1506427"><ele>235.0</ele><time>2026-03-28T15:33:15.328Z</time></trkpt><trkpt lat="42.7456164" lon="12.1505027"><ele>235.0</ele><time>2026-03-28T15:33:16.327Z</time></trkpt><trkpt lat="42.7455582" lon="12.1503525"><ele>233.5</ele><time>2026-03-28T15:33:17.328Z</time></trkpt><trkpt lat="42.7455033" lon="12.1501994"><ele>232.0</ele><time>2026-03-28T15:33:18.328Z</time></trkpt><trkpt lat="42.7454275" lon="12.1500534"><ele>230.5</ele><time>2026-03-28T15:33:19.327Z</time></trkpt><trkpt lat="42.7453596" lon="12.1498914"><ele>229.0</ele><time>2026-03-28T15:33:20.327Z</time></trkpt><trkpt lat="42.7453012" lon="12.1497338"><ele>228.25</ele><time>2026-03-28T15:33:21.327Z</time></trkpt><trkpt lat="42.7452298" lon="12.1495822"><ele>227.5</ele><time>2026-03-28T15:33:22.328Z</time></trkpt><trkpt lat="42.7451421" lon="12.149453"><ele>226.75</ele><time>2026-03-28T15:33:23.327Z</time></trkpt><trkpt lat="42.7450324" lon="12.1493609"><ele>226.0</ele><time>2026-03-28T15:33:24.328Z</time></trkpt><trkpt lat="42.7449063" lon="12.1492912"><ele>224.66666666666666</ele><time>2026-03-28T15:33:25.328Z</time></trkpt><trkpt lat="42.7447675" lon="12.149225"><ele>223.33333333333331</ele><time>2026-03-28T15:33:26.328Z</time></trkpt><trkpt lat="42.7446255" lon="12.1491529"><ele>222.0</ele><time>2026-03-28T15:33:27.328Z</time></trkpt><trkpt lat="42.7444684" lon="12.1490996"><ele>217.33333333333331</ele><time>2026-03-28T15:33:28.328Z</time></trkpt><trkpt lat="42.7443222" lon="12.1490412"><ele>212.66666666666666</ele><time>2026-03-28T15:33:29.328Z</time></trkpt><trkpt lat="42.7441766" lon="12.1489838"><ele>208.0</ele><time>2026-03-28T15:33:30.327Z</time></trkpt><trkpt lat="42.7440111" lon="12.1489231"><ele>208.0</ele><time>2026-03-28T15:33:31.328Z</time></trkpt><trkpt lat="42.7438576" lon="12.1488647"><ele>208.0</ele><time>2026-03-28T15:33:32.327Z</time></trkpt><trkpt lat="42.7436946" lon="12.1488147"><ele>208.0</ele><time>2026-03-28T15:33:33.327Z</time></trkpt><trkpt lat="42.7435345" lon="12.1487602"><ele>209.66666666666666</ele><time>2026-03-28T15:33:34.327Z</time></trkpt><trkpt lat="42.7433728" lon="12.1487014"><ele>211.33333333333331</ele><time>2026-03-28T15:33:35.327Z</time></trkpt><trkpt lat="42.7432087" lon="12.1486394"><ele>213.0</ele><time>2026-03-28T15:33:36.328Z</time></trkpt><trkpt lat="42.7430407" lon="12.1485721"><ele>213.0</ele><time>2026-03-28T15:33:37.328Z</time></trkpt><trkpt lat="42.7428718" lon="12.1485206"><ele>213.0</ele><time>2026-03-28T15:33:38.328Z</time></trkpt><trkpt lat="42.7427018" lon="12.1484804"><ele>213.0</ele><time>2026-03-28T15:33:39.328Z</time></trkpt><trkpt lat="42.7425259" lon="12.1484452"><ele>213.0</ele><time>2026-03-28T15:33:40.327Z</time></trkpt><trkpt lat="42.742351" lon="12.1484139"><ele>213.0</ele><time>2026-03-28T15:33:41.327Z</time></trkpt><trkpt lat="42.7421733" lon="12.1483808"><ele>213.0</ele><time>2026-03-28T15:33:42.328Z</time></trkpt><trkpt lat="42.7419977" lon="12.1483473"><ele>212.33333333333331</ele><time>2026-03-28T15:33:43.328Z</time></trkpt><trkpt lat="42.7418288" lon="12.1483083"><ele>211.66666666666666</ele><time>2026-03-28T15:33:44.328Z</time></trkpt><trkpt lat="42.7416517" lon="12.148283"><ele>211.0</ele><time>2026-03-28T15:33:45.327Z</time></trkpt><trkpt lat="42.7414821" lon="12.1482545"><ele>211.0</ele><time>2026-03-28T15:33:46.328Z</time></trkpt><trkpt lat="42.7413084" lon="12.1482276"><ele>211.0</ele><time>2026-03-28T15:33:47.328Z</time></trkpt><trkpt lat="42.7411562" lon="12.1481951"><ele>211.0</ele><time>2026-03-28T15:33:48.327Z</time></trkpt><trkpt lat="42.7410098" lon="12.1481515"><ele>209.0</ele><time>2026-03-28T15:33:49.328Z</time></trkpt><trkpt lat="42.740855" lon="12.1480751"><ele>207.0</ele><time>2026-03-28T15:33:50.327Z</time></trkpt><trkpt lat="42.7407072" lon="12.1479999"><ele>205.0</ele><time>2026-03-28T15:33:51.328Z</time></trkpt><trkpt lat="42.7405508" lon="12.1479189"><ele>205.0</ele><time>2026-03-28T15:33:52.328Z</time></trkpt><trkpt lat="42.7403952" lon="12.1478189"><ele>205.0</ele><time>2026-03-28T15:33:53.328Z</time></trkpt><trkpt lat="42.7402307" lon="12.147721"><ele>205.0</ele><time>2026-03-28T15:33:54.327Z</time></trkpt><trkpt lat="42.7400724" lon="12.1476126"><ele>203.33333333333331</ele><time>2026-03-28T15:33:55.327Z</time></trkpt><trkpt lat="42.7399104" lon="12.1475108"><ele>201.66666666666669</ele><time>2026-03-28T15:33:56.328Z</time></trkpt><trkpt lat="42.7397414" lon="12.147409"><ele>200.0</ele><time>2026-03-28T15:33:57.327Z</time></trkpt><trkpt lat="42.7395803" lon="12.1473032"><ele>199.33333333333334</ele><time>2026-03-28T15:33:58.327Z</time></trkpt><trkpt lat="42.7394125" lon="12.1472053"><ele>198.66666666666669</ele><time>2026-03-28T15:33:59.328Z</time></trkpt><trkpt lat="42.7392466" lon="12.1471194"><ele>198.0</ele><time>2026-03-28T15:34:00.328Z</time></trkpt><trkpt lat="42.739083" lon="12.1470297"><ele>196.0</ele><time>2026-03-28T15:34:01.328Z</time></trkpt><trkpt lat="42.7389258" lon="12.1469133"><ele>194.0</ele><time>2026-03-28T15:34:02.328Z</time></trkpt><trkpt lat="42.7387546" lon="12.1468148"><ele>192.0</ele><time>2026-03-28T15:34:03.327Z</time></trkpt><trkpt lat="42.7385857" lon="12.1467197"><ele>190.66666666666666</ele><time>2026-03-28T15:34:04.328Z</time></trkpt><trkpt lat="42.738411" lon="12.1466272"><ele>189.33333333333331</ele><time>2026-03-28T15:34:05.327Z</time></trkpt><trkpt lat="42.7382438" lon="12.1465318"><ele>188.0</ele><time>2026-03-28T15:34:06.327Z</time></trkpt><trkpt lat="42.7380774" lon="12.1464351"><ele>187.0</ele><time>2026-03-28T15:34:07.327Z</time></trkpt><trkpt lat="42.73791" lon="12.1463394"><ele>186.0</ele><time>2026-03-28T15:34:08.328Z</time></trkpt><trkpt lat="42.7377531" lon="12.1462379"><ele>185.0</ele><time>2026-03-28T15:34:09.328Z</time></trkpt><trkpt lat="42.7375949" lon="12.1461287"><ele>184.0</ele><time>2026-03-28T15:34:10.327Z</time></trkpt><trkpt lat="42.7374376" lon="12.1460059"><ele>183.0</ele><time>2026-03-28T15:34:11.327Z</time></trkpt><trkpt lat="42.7372848" lon="12.1458792"><ele>182.0</ele><time>2026-03-28T15:34:12.328Z</time></trkpt><trkpt lat="42.7371286" lon="12.1457526"><ele>181.66666666666666</ele><time>2026-03-28T15:34:13.327Z</time></trkpt><trkpt lat="42.7369708" lon="12.1456218"><ele>181.33333333333334</ele><time>2026-03-28T15:34:14.328Z</time></trkpt><trkpt lat="42.7368088" lon="12.145509"><ele>181.0</ele><time>2026-03-28T15:34:15.328Z</time></trkpt><trkpt lat="42.7366468" lon="12.1453971"><ele>180.66666666666669</ele><time>2026-03-28T15:34:16.328Z</time></trkpt><trkpt lat="42.7364781" lon="12.1453014"><ele>180.33333333333334</ele><time>2026-03-28T15:34:17.328Z</time></trkpt><trkpt lat="42.736318" lon="12.145216"><ele>180.0</ele><time>2026-03-28T15:34:18.328Z</time></trkpt><trkpt lat="42.7361647" lon="12.1451258"><ele>177.75</ele><time>2026-03-28T15:34:19.328Z</time></trkpt><trkpt lat="42.7360236" lon="12.1450505"><ele>175.5</ele><time>2026-03-28T15:34:20.328Z</time></trkpt><trkpt lat="42.735895" lon="12.1449627"><ele>173.25</ele><time>2026-03-28T15:34:21.328Z</time></trkpt><trkpt lat="42.7357866" lon="12.1448871"><ele>171.0</ele><time>2026-03-28T15:34:22.327Z</time></trkpt><trkpt lat="42.7356893" lon="12.144807"><ele>171.0</ele><time>2026-03-28T15:34:23.327Z</time></trkpt><trkpt lat="42.735619" lon="12.144695"><ele>171.0</ele><time>2026-03-28T15:34:24.328Z</time></trkpt><trkpt lat="42.7355716" lon="12.1445463"><ele>171.0</ele><time>2026-03-28T15:34:25.328Z</time></trkpt><trkpt lat="42.7355374" lon="12.1443807"><ele>171.0</ele><time>2026-03-28T15:34:26.328Z</time></trkpt><trkpt lat="42.7355129" lon="12.1441952"><ele>171.25</ele><time>2026-03-28T15:34:27.328Z</time></trkpt><trkpt lat="42.7354946" lon="12.1440017"><ele>171.5</ele><time>2026-03-28T15:34:28.328Z</time></trkpt><trkpt lat="42.7354729" lon="12.1438122"><ele>171.75</ele><time>2026-03-28T15:34:29.328Z</time></trkpt><trkpt lat="42.7354515" lon="12.1436176"><ele>172.0</ele><time>2026-03-28T15:34:30.328Z</time></trkpt><trkpt lat="42.7354307" lon="12.1434469"><ele>172.0</ele><time>2026-03-28T15:34:31.328Z</time></trkpt><trkpt lat="42.7353994" lon="12.143293"><ele>172.0</ele><time>2026-03-28T15:34:32.328Z</time></trkpt><trkpt lat="42.7353476" lon="12.1431516"><ele>172.0</ele><time>2026-03-28T15:34:33.328Z</time></trkpt><trkpt lat="42.7352815" lon="12.1430254"><ele>172.0</ele><time>2026-03-28T15:34:34.327Z</time></trkpt><trkpt lat="42.7351941" lon="12.1429109"><ele>168.75</ele><time>2026-03-28T15:34:35.328Z</time></trkpt><trkpt lat="42.7350952" lon="12.1427959"><ele>165.5</ele><time>2026-03-28T15:34:36.328Z</time></trkpt><trkpt lat="42.7350008" lon="12.1426766"><ele>162.25</ele><time>2026-03-28T15:34:37.328Z</time></trkpt><trkpt lat="42.7349071" lon="12.1425474"><ele>159.0</ele><time>2026-03-28T15:34:38.328Z</time></trkpt><trkpt lat="42.7348113" lon="12.1424235"><ele>159.25</ele><time>2026-03-28T15:34:39.328Z</time></trkpt><trkpt lat="42.7347247" lon="12.1422937"><ele>159.5</ele><time>2026-03-28T15:34:40.328Z</time></trkpt><trkpt lat="42.7346477" lon="12.1421649"><ele>159.75</ele><time>2026-03-28T15:34:41.328Z</time></trkpt><trkpt lat="42.7345786" lon="12.1420434"><ele>160.0</ele><time>2026-03-28T15:34:42.327Z</time></trkpt><trkpt lat="42.7345013" lon="12.1419302"><ele>160.0</ele><time>2026-03-28T15:34:43.327Z</time></trkpt><trkpt lat="42.7344352" lon="12.1418193"><ele>160.0</ele><time>2026-03-28T15:34:44.327Z</time></trkpt><trkpt lat="42.7343561" lon="12.1417212"><ele>160.0</ele><time>2026-03-28T15:34:45.328Z</time></trkpt><trkpt lat="42.7342708" lon="12.1416376"><ele>160.0</ele><time>2026-03-28T15:34:46.327Z</time></trkpt><trkpt lat="42.7341824" lon="12.1415524"><ele>160.0</ele><time>2026-03-28T15:34:47.328Z</time></trkpt><trkpt lat="42.7340908" lon="12.1414669"><ele>157.8</ele><time>2026-03-28T15:34:48.328Z</time></trkpt><trkpt lat="42.7340009" lon="12.1413808"><ele>155.6</ele><time>2026-03-28T15:34:49.327Z</time></trkpt><trkpt lat="42.7339148" lon="12.1412904"><ele>153.4</ele><time>2026-03-28T15:34:50.328Z</time></trkpt><trkpt lat="42.7338272" lon="12.1412112"><ele>151.2</ele><time>2026-03-28T15:34:51.327Z</time></trkpt><trkpt lat="42.7337409" lon="12.1411366"><ele>149.0</ele><time>2026-03-28T15:34:52.328Z</time></trkpt><trkpt lat="42.7336663" lon="12.1410606"><ele>149.0</ele><time>2026-03-28T15:34:53.327Z</time></trkpt><trkpt lat="42.7336017" lon="12.1410038"><ele>149.0</ele><time>2026-03-28T15:34:54.327Z</time></trkpt><trkpt lat="42.7335466" lon="12.1409582"><ele>149.0</ele><time>2026-03-28T15:34:55.327Z</time></trkpt><trkpt lat="42.7334735" lon="12.1408974"><ele>149.0</ele><time>2026-03-28T15:34:57.328Z</time></trkpt><trkpt lat="42.7334099" lon="12.1408084"><ele>149.0</ele><time>2026-03-28T15:35:00.328Z</time></trkpt><trkpt lat="42.7333623" lon="12.1407257"><ele>149.0</ele><time>2026-03-28T15:35:02.327Z</time></trkpt><trkpt lat="42.7333047" lon="12.1406495"><ele>147.0</ele><time>2026-03-28T15:35:04.328Z</time></trkpt><trkpt lat="42.7332273" lon="12.1405952"><ele>145.0</ele><time>2026-03-28T15:35:06.328Z</time></trkpt><trkpt lat="42.7331131" lon="12.140563"><ele>143.0</ele><time>2026-03-28T15:35:08.328Z</time></trkpt><trkpt lat="42.7329968" lon="12.1405072"><ele>141.0</ele><time>2026-03-28T15:35:10.328Z</time></trkpt><trkpt lat="42.7329354" lon="12.1404544"><ele>139.0</ele><time>2026-03-28T15:35:11.328Z</time></trkpt><trkpt lat="42.7328766" lon="12.1403932"><ele>139.0</ele><time>2026-03-28T15:35:12.328Z</time></trkpt><trkpt lat="42.7328086" lon="12.1403365"><ele>139.0</ele><time>2026-03-28T15:35:13.328Z</time></trkpt><trkpt lat="42.7327233" lon="12.1402674"><ele>139.0</ele><time>2026-03-28T15:35:14.327Z</time></trkpt><trkpt lat="42.7326325" lon="12.1401975"><ele>139.0</ele><time>2026-03-28T15:35:15.328Z</time></trkpt><trkpt lat="42.7325336" lon="12.1401236"><ele>139.0</ele><time>2026-03-28T15:35:16.327Z</time></trkpt><trkpt lat="42.7324343" lon="12.1400588"><ele>138.6</ele><time>2026-03-28T15:35:17.328Z</time></trkpt><trkpt lat="42.7323434" lon="12.1399971"><ele>138.2</ele><time>2026-03-28T15:35:18.327Z</time></trkpt><trkpt lat="42.732257" lon="12.1399453"><ele>137.79999999999998</ele><time>2026-03-28T15:35:19.327Z</time></trkpt><trkpt lat="42.7321605" lon="12.1398993"><ele>137.4</ele><time>2026-03-28T15:35:20.328Z</time></trkpt><trkpt lat="42.7320631" lon="12.1398533"><ele>137.0</ele><time>2026-03-28T15:35:21.328Z</time></trkpt><trkpt lat="42.7319629" lon="12.139806"><ele>136.0</ele><time>2026-03-28T15:35:22.328Z</time></trkpt><trkpt lat="42.7318582" lon="12.1397665"><ele>135.0</ele><time>2026-03-28T15:35:23.328Z</time></trkpt><trkpt lat="42.7317494" lon="12.1397264"><ele>134.0</ele><time>2026-03-28T15:35:24.327Z</time></trkpt><trkpt lat="42.7316461" lon="12.139684"><ele>133.0</ele><time>2026-03-28T15:35:25.328Z</time></trkpt><trkpt lat="42.7315392" lon="12.1396449"><ele>132.0</ele><time>2026-03-28T15:35:26.327Z</time></trkpt><trkpt lat="42.7314356" lon="12.139615"><ele>132.0</ele><time>2026-03-28T15:35:27.328Z</time></trkpt><trkpt lat="42.7313283" lon="12.1395943"><ele>132.0</ele><time>2026-03-28T15:35:28.327Z</time></trkpt><trkpt lat="42.7312304" lon="12.1395853"><ele>132.0</ele><time>2026-03-28T15:35:29.328Z</time></trkpt><trkpt lat="42.7311401" lon="12.13957"><ele>132.0</ele><time>2026-03-28T15:35:30.327Z</time></trkpt><trkpt lat="42.7310529" lon="12.139566"><ele>132.0</ele><time>2026-03-28T15:35:31.328Z</time></trkpt><trkpt lat="42.7309736" lon="12.1395608"><ele>131.83333333333334</ele><time>2026-03-28T15:35:32.327Z</time></trkpt><trkpt lat="42.7308818" lon="12.1395409"><ele>131.66666666666666</ele><time>2026-03-28T15:35:34.328Z</time></trkpt><trkpt lat="42.7307999" lon="12.1395094"><ele>131.5</ele><time>2026-03-28T15:35:41.328Z</time></trkpt><trkpt lat="42.73071" lon="12.1394674"><ele>131.33333333333331</ele><time>2026-03-28T15:35:43.327Z</time></trkpt><trkpt lat="42.7306483" lon="12.1394235"><ele>131.16666666666666</ele><time>2026-03-28T15:35:44.327Z</time></trkpt><trkpt lat="42.7305899" lon="12.1393721"><ele>131.0</ele><time>2026-03-28T15:35:45.328Z</time></trkpt><trkpt lat="42.7305235" lon="12.1393236"><ele>131.0</ele><time>2026-03-28T15:35:46.328Z</time></trkpt><trkpt lat="42.7304586" lon="12.1392796"><ele>131.0</ele><time>2026-03-28T15:35:47.328Z</time></trkpt><trkpt lat="42.7303929" lon="12.1392352"><ele>131.0</ele><time>2026-03-28T15:35:48.328Z</time></trkpt><trkpt lat="42.730318" lon="12.1391877"><ele>131.0</ele><time>2026-03-28T15:35:49.328Z</time></trkpt><trkpt lat="42.7302641" lon="12.1391228"><ele>131.0</ele><time>2026-03-28T15:35:50.328Z</time></trkpt><trkpt lat="42.7301901" lon="12.1390677"><ele>131.0</ele><time>2026-03-28T15:35:51.328Z</time></trkpt><trkpt lat="42.730119" lon="12.1390019"><ele>130.33333333333331</ele><time>2026-03-28T15:35:52.327Z</time></trkpt><trkpt lat="42.7300409" lon="12.1389451"><ele>129.66666666666666</ele><time>2026-03-28T15:35:53.327Z</time></trkpt><trkpt lat="42.7299639" lon="12.138875"><ele>129.0</ele><time>2026-03-28T15:35:54.328Z</time></trkpt><trkpt lat="42.7298827" lon="12.1388148"><ele>128.33333333333334</ele><time>2026-03-28T15:35:55.327Z</time></trkpt><trkpt lat="42.7298083" lon="12.13875"><ele>127.66666666666667</ele><time>2026-03-28T15:35:56.327Z</time></trkpt><trkpt lat="42.7297457" lon="12.1387025"><ele>127.0</ele><time>2026-03-28T15:35:57.328Z</time></trkpt><trkpt lat="42.7296396" lon="12.1386359"><ele>127.00000000000001</ele><time>2026-03-28T15:35:59.328Z</time></trkpt><trkpt lat="42.7295451" lon="12.1386322"><ele>127.0</ele><time>2026-03-28T15:36:01.328Z</time></trkpt><trkpt lat="42.7294395" lon="12.1387002"><ele>127.0</ele><time>2026-03-28T15:36:03.327Z</time></trkpt><trkpt lat="42.7293912" lon="12.1387563"><ele>127.0</ele><time>2026-03-28T15:36:04.328Z</time></trkpt><trkpt lat="42.7293374" lon="12.1388385"><ele>127.00000000000001</ele><time>2026-03-28T15:36:05.328Z</time></trkpt><trkpt lat="42.7292984" lon="12.1389164"><ele>127.0</ele><time>2026-03-28T15:36:06.328Z</time></trkpt><trkpt lat="42.7292361" lon="12.1390158"><ele>126.8</ele><time>2026-03-28T15:36:07.328Z</time></trkpt><trkpt lat="42.7291708" lon="12.1391236"><ele>126.6</ele><time>2026-03-28T15:36:08.327Z</time></trkpt><trkpt lat="42.7291048" lon="12.1392245"><ele>126.39999999999999</ele><time>2026-03-28T15:36:09.327Z</time></trkpt><trkpt lat="42.7290468" lon="12.1393386"><ele>126.19999999999999</ele><time>2026-03-28T15:36:10.327Z</time></trkpt><trkpt lat="42.7290055" lon="12.1394581"><ele>126.0</ele><time>2026-03-28T15:36:11.328Z</time></trkpt><trkpt lat="42.7289647" lon="12.1395856"><ele>126.0</ele><time>2026-03-28T15:36:12.328Z</time></trkpt><trkpt lat="42.7289268" lon="12.1397227"><ele>126.0</ele><time>2026-03-28T15:36:13.327Z</time></trkpt><trkpt lat="42.7288844" lon="12.1398543"><ele>126.0</ele><time>2026-03-28T15:36:14.328Z</time></trkpt><trkpt lat="42.7288459" lon="12.1399777"><ele>126.0</ele><time>2026-03-28T15:36:15.328Z</time></trkpt><trkpt lat="42.72882" lon="12.1401022"><ele>126.0</ele><time>2026-03-28T15:36:16.328Z</time></trkpt><trkpt lat="42.7287887" lon="12.1402141"><ele>126.0</ele><time>2026-03-28T15:36:17.328Z</time></trkpt><trkpt lat="42.7287686" lon="12.140338"><ele>126.0</ele><time>2026-03-28T15:36:18.327Z</time></trkpt><trkpt lat="42.7287413" lon="12.1404602"><ele>126.0</ele><time>2026-03-28T15:36:19.327Z</time></trkpt><trkpt lat="42.7287148" lon="12.1405833"><ele>126.0</ele><time>2026-03-28T15:36:20.328Z</time></trkpt><trkpt lat="42.7286836" lon="12.1407209"><ele>126.0</ele><time>2026-03-28T15:36:21.328Z</time></trkpt><trkpt lat="42.7286395" lon="12.1408396"><ele>126.19999999999999</ele><time>2026-03-28T15:36:22.328Z</time></trkpt><trkpt lat="42.7285775" lon="12.1409614"><ele>126.39999999999999</ele><time>2026-03-28T15:36:23.328Z</time></trkpt><trkpt lat="42.728515" lon="12.1410761"><ele>126.6</ele><time>2026-03-28T15:36:24.327Z</time></trkpt><trkpt lat="42.7284485" lon="12.1411962"><ele>126.8</ele><time>2026-03-28T15:36:25.328Z</time></trkpt><trkpt lat="42.7283804" lon="12.1413209"><ele>127.0</ele><time>2026-03-28T15:36:26.328Z</time></trkpt><trkpt lat="42.7283342" lon="12.1414243"><ele>126.25</ele><time>2026-03-28T15:36:27.328Z</time></trkpt><trkpt lat="42.7282623" lon="12.1415529"><ele>125.5</ele><time>2026-03-28T15:36:28.328Z</time></trkpt><trkpt lat="42.7281889" lon="12.1416759"><ele>124.75</ele><time>2026-03-28T15:36:29.327Z</time></trkpt><trkpt lat="42.728116" lon="12.1418047"><ele>124.0</ele><time>2026-03-28T15:36:30.328Z</time></trkpt><trkpt lat="42.7280363" lon="12.1419338"><ele>124.0</ele><time>2026-03-28T15:36:31.328Z</time></trkpt><trkpt lat="42.7279588" lon="12.1420639"><ele>124.0</ele><time>2026-03-28T15:36:32.328Z</time></trkpt><trkpt lat="42.7278794" lon="12.1421897"><ele>124.0</ele><time>2026-03-28T15:36:33.327Z</time></trkpt><trkpt lat="42.727796" lon="12.1423175"><ele>124.0</ele><time>2026-03-28T15:36:34.328Z</time></trkpt><trkpt lat="42.7277205" lon="12.1424475"><ele>122.75</ele><time>2026-03-28T15:36:35.327Z</time></trkpt><trkpt lat="42.7276421" lon="12.1425847"><ele>121.5</ele><time>2026-03-28T15:36:36.327Z</time></trkpt><trkpt lat="42.7275664" lon="12.1427222"><ele>120.25</ele><time>2026-03-28T15:36:37.328Z</time></trkpt><trkpt lat="42.7274962" lon="12.1428628"><ele>119.0</ele><time>2026-03-28T15:36:38.327Z</time></trkpt><trkpt lat="42.7274278" lon="12.143006"><ele>119.0</ele><time>2026-03-28T15:36:39.328Z</time></trkpt><trkpt lat="42.727365" lon="12.1431521"><ele>119.0</ele><time>2026-03-28T15:36:40.328Z</time></trkpt><trkpt lat="42.7273052" lon="12.1432985"><ele>119.0</ele><time>2026-03-28T15:36:41.328Z</time></trkpt><trkpt lat="42.7272409" lon="12.143442"><ele>119.0</ele><time>2026-03-28T15:36:42.328Z</time></trkpt><trkpt lat="42.727179" lon="12.1435869"><ele>119.75</ele><time>2026-03-28T15:36:43.328Z</time></trkpt><trkpt lat="42.7271167" lon="12.1437348"><ele>120.5</ele><time>2026-03-28T15:36:44.328Z</time></trkpt><trkpt lat="42.7270566" lon="12.1438843"><ele>121.25</ele><time>2026-03-28T15:36:45.328Z</time></trkpt><trkpt lat="42.7269998" lon="12.1440286"><ele>122.0</ele><time>2026-03-28T15:36:46.327Z</time></trkpt><trkpt lat="42.7269336" lon="12.1441759"><ele>121.75</ele><time>2026-03-28T15:36:47.327Z</time></trkpt><trkpt lat="42.7268581" lon="12.144335"><ele>121.5</ele><time>2026-03-28T15:36:48.327Z</time></trkpt><trkpt lat="42.7267889" lon="12.1445042"><ele>121.25</ele><time>2026-03-28T15:36:49.327Z</time></trkpt><trkpt lat="42.7267147" lon="12.1446748"><ele>121.0</ele><time>2026-03-28T15:36:50.328Z</time></trkpt><trkpt lat="42.7266409" lon="12.1448415"><ele>121.33333333333334</ele><time>2026-03-28T15:36:51.328Z</time></trkpt><trkpt lat="42.7265613" lon="12.1450183"><ele>121.66666666666666</ele><time>2026-03-28T15:36:52.328Z</time></trkpt><trkpt lat="42.7264802" lon="12.1452037"><ele>122.0</ele><time>2026-03-28T15:36:53.328Z</time></trkpt><trkpt lat="42.7263959" lon="12.1453884"><ele>122.0</ele><time>2026-03-28T15:36:54.328Z</time></trkpt><trkpt lat="42.7263131" lon="12.1455727"><ele>122.0</ele><time>2026-03-28T15:36:55.327Z</time></trkpt><trkpt lat="42.7262223" lon="12.1457486"><ele>122.0</ele><time>2026-03-28T15:36:56.327Z</time></trkpt><trkpt lat="42.7261415" lon="12.1459387"><ele>121.0</ele><time>2026-03-28T15:36:57.327Z</time></trkpt><trkpt lat="42.7260557" lon="12.1461258"><ele>120.0</ele><time>2026-03-28T15:36:58.327Z</time></trkpt><trkpt lat="42.7259766" lon="12.14632"><ele>119.0</ele><time>2026-03-28T15:36:59.328Z</time></trkpt><trkpt lat="42.7258886" lon="12.1465169"><ele>119.33333333333333</ele><time>2026-03-28T15:37:00.328Z</time></trkpt><trkpt lat="42.7257962" lon="12.1467164"><ele>119.66666666666666</ele><time>2026-03-28T15:37:01.328Z</time></trkpt><trkpt lat="42.7257068" lon="12.146926"><ele>120.0</ele><time>2026-03-28T15:37:02.327Z</time></trkpt><trkpt lat="42.7256152" lon="12.1471353"><ele>120.0</ele><time>2026-03-28T15:37:03.328Z</time></trkpt><trkpt lat="42.7255341" lon="12.1473307"><ele>120.0</ele><time>2026-03-28T15:37:04.327Z</time></trkpt><trkpt lat="42.7254471" lon="12.1475136"><ele>120.0</ele><time>2026-03-28T15:37:05.328Z</time></trkpt><trkpt lat="42.7253616" lon="12.1477084"><ele>120.0</ele><time>2026-03-28T15:37:06.328Z</time></trkpt><trkpt lat="42.7252795" lon="12.1479019"><ele>120.0</ele><time>2026-03-28T15:37:07.327Z</time></trkpt><trkpt lat="42.7251876" lon="12.148087"><ele>120.0</ele><time>2026-03-28T15:37:08.328Z</time></trkpt><trkpt lat="42.7251005" lon="12.1482836"><ele>120.0</ele><time>2026-03-28T15:37:09.327Z</time></trkpt><trkpt lat="42.7250196" lon="12.1484722"><ele>120.0</ele><time>2026-03-28T15:37:10.328Z</time></trkpt><trkpt lat="42.724939" lon="12.1486626"><ele>120.0</ele><time>2026-03-28T15:37:11.328Z</time></trkpt><trkpt lat="42.7248554" lon="12.1488477"><ele>120.0</ele><time>2026-03-28T15:37:12.328Z</time></trkpt><trkpt lat="42.7247785" lon="12.1490293"><ele>120.0</ele><time>2026-03-28T15:37:13.327Z</time></trkpt><trkpt lat="42.7247026" lon="12.1491998"><ele>120.0</ele><time>2026-03-28T15:37:14.328Z</time></trkpt><trkpt lat="42.7246212" lon="12.1493613"><ele>120.0</ele><time>2026-03-28T15:37:15.328Z</time></trkpt><trkpt lat="42.724526" lon="12.1495188"><ele>120.0</ele><time>2026-03-28T15:37:16.328Z</time></trkpt><trkpt lat="42.7244271" lon="12.1496848"><ele>120.0</ele><time>2026-03-28T15:37:17.327Z</time></trkpt><trkpt lat="42.7243299" lon="12.1498518"><ele>120.0</ele><time>2026-03-28T15:37:18.328Z</time></trkpt><trkpt lat="42.7242275" lon="12.1500152"><ele>121.0</ele><time>2026-03-28T15:37:19.327Z</time></trkpt><trkpt lat="42.7241295" lon="12.1501882"><ele>122.0</ele><time>2026-03-28T15:37:20.327Z</time></trkpt><trkpt lat="42.7240328" lon="12.1503552"><ele>123.0</ele><time>2026-03-28T15:37:21.327Z</time></trkpt><trkpt lat="42.7239271" lon="12.1505188"><ele>123.0</ele><time>2026-03-28T15:37:22.328Z</time></trkpt><trkpt lat="42.7238284" lon="12.1506907"><ele>123.0</ele><time>2026-03-28T15:37:23.328Z</time></trkpt><trkpt lat="42.7237315" lon="12.1508497"><ele>123.0</ele><time>2026-03-28T15:37:24.328Z</time></trkpt><trkpt lat="42.7236262" lon="12.1510093"><ele>123.0</ele><time>2026-03-28T15:37:25.327Z</time></trkpt><trkpt lat="42.7235267" lon="12.1511766"><ele>123.0</ele><time>2026-03-28T15:37:26.327Z</time></trkpt><trkpt lat="42.7234258" lon="12.1513466"><ele>123.0</ele><time>2026-03-28T15:37:27.327Z</time></trkpt><trkpt lat="42.7233269" lon="12.151516"><ele>124.0</ele><time>2026-03-28T15:37:28.327Z</time></trkpt><trkpt lat="42.7232256" lon="12.1516875"><ele>125.0</ele><time>2026-03-28T15:37:29.328Z</time></trkpt><trkpt lat="42.7231267" lon="12.1518584"><ele>126.0</ele><time>2026-03-28T15:37:30.328Z</time></trkpt><trkpt lat="42.7230285" lon="12.1520253"><ele>126.0</ele><time>2026-03-28T15:37:31.328Z</time></trkpt><trkpt lat="42.7229294" lon="12.1521935"><ele>126.0</ele><time>2026-03-28T15:37:32.328Z</time></trkpt><trkpt lat="42.7228303" lon="12.1523597"><ele>126.0</ele><time>2026-03-28T15:37:33.328Z</time></trkpt><trkpt lat="42.7227327" lon="12.1525188"><ele>125.5</ele><time>2026-03-28T15:37:34.328Z</time></trkpt><trkpt lat="42.7226406" lon="12.1526785"><ele>125.0</ele><time>2026-03-28T15:37:35.328Z</time></trkpt><trkpt lat="42.7225507" lon="12.152837"><ele>124.5</ele><time>2026-03-28T15:37:36.328Z</time></trkpt><trkpt lat="42.7224667" lon="12.1529878"><ele>124.0</ele><time>2026-03-28T15:37:37.327Z</time></trkpt><trkpt lat="42.7223804" lon="12.1531341"><ele>124.25</ele><time>2026-03-28T15:37:38.327Z</time></trkpt><trkpt lat="42.7222971" lon="12.1532784"><ele>124.5</ele><time>2026-03-28T15:37:39.327Z</time></trkpt><trkpt lat="42.7222239" lon="12.1534095"><ele>124.75</ele><time>2026-03-28T15:37:40.328Z</time></trkpt><trkpt lat="42.7221537" lon="12.1535278"><ele>125.0</ele><time>2026-03-28T15:37:41.328Z</time></trkpt><trkpt lat="42.7220806" lon="12.1536414"><ele>125.0</ele><time>2026-03-28T15:37:42.328Z</time></trkpt><trkpt lat="42.722002" lon="12.1537241"><ele>125.0</ele><time>2026-03-28T15:37:43.328Z</time></trkpt><trkpt lat="42.7219249" lon="12.153788"><ele>125.0</ele><time>2026-03-28T15:37:44.327Z</time></trkpt><trkpt lat="42.7218313" lon="12.1538241"><ele>125.0</ele><time>2026-03-28T15:37:45.327Z</time></trkpt><trkpt lat="42.7217307" lon="12.153831"><ele>125.0</ele><time>2026-03-28T15:37:46.328Z</time></trkpt><trkpt lat="42.7216383" lon="12.1538073"><ele>125.0</ele><time>2026-03-28T15:37:47.327Z</time></trkpt><trkpt lat="42.7215403" lon="12.1537698"><ele>125.0</ele><time>2026-03-28T15:37:48.327Z</time></trkpt><trkpt lat="42.7214273" lon="12.1537414"><ele>125.0</ele><time>2026-03-28T15:37:49.328Z</time></trkpt><trkpt lat="42.7213136" lon="12.1537243"><ele>125.0</ele><time>2026-03-28T15:37:50.328Z</time></trkpt><trkpt lat="42.7212004" lon="12.1537262"><ele>125.0</ele><time>2026-03-28T15:37:51.328Z</time></trkpt><trkpt lat="42.7210871" lon="12.1537379"><ele>124.6</ele><time>2026-03-28T15:37:52.328Z</time></trkpt><trkpt lat="42.7209796" lon="12.1537613"><ele>124.2</ele><time>2026-03-28T15:37:53.328Z</time></trkpt><trkpt lat="42.7208824" lon="12.1538028"><ele>123.80000000000001</ele><time>2026-03-28T15:37:54.328Z</time></trkpt><trkpt lat="42.7207968" lon="12.1538669"><ele>123.4</ele><time>2026-03-28T15:37:55.328Z</time></trkpt><trkpt lat="42.7207135" lon="12.1539607"><ele>123.0</ele><time>2026-03-28T15:37:56.327Z</time></trkpt><trkpt lat="42.7206288" lon="12.154076"><ele>124.25</ele><time>2026-03-28T15:37:57.328Z</time></trkpt><trkpt lat="42.7205445" lon="12.1542039"><ele>125.5</ele><time>2026-03-28T15:37:58.328Z</time></trkpt><trkpt lat="42.7204532" lon="12.1543282"><ele>126.75</ele><time>2026-03-28T15:37:59.328Z</time></trkpt><trkpt lat="42.7203578" lon="12.1544615"><ele>128.0</ele><time>2026-03-28T15:38:00.328Z</time></trkpt><trkpt lat="42.7202664" lon="12.1545933"><ele>127.25</ele><time>2026-03-28T15:38:01.328Z</time></trkpt><trkpt lat="42.7201627" lon="12.1547329"><ele>126.5</ele><time>2026-03-28T15:38:02.328Z</time></trkpt><trkpt lat="42.7200632" lon="12.1548737"><ele>125.75</ele><time>2026-03-28T15:38:03.327Z</time></trkpt><trkpt lat="42.7199615" lon="12.1550207"><ele>125.0</ele><time>2026-03-28T15:38:04.327Z</time></trkpt><trkpt lat="42.7198628" lon="12.1551733"><ele>125.0</ele><time>2026-03-28T15:38:05.327Z</time></trkpt><trkpt lat="42.7197631" lon="12.1553266"><ele>125.0</ele><time>2026-03-28T15:38:06.328Z</time></trkpt><trkpt lat="42.7196631" lon="12.1554917"><ele>125.0</ele><time>2026-03-28T15:38:07.328Z</time></trkpt><trkpt lat="42.719562" lon="12.1556646"><ele>127.66666666666666</ele><time>2026-03-28T15:38:08.328Z</time></trkpt><trkpt lat="42.7194699" lon="12.1558474"><ele>130.33333333333334</ele><time>2026-03-28T15:38:09.328Z</time></trkpt><trkpt lat="42.7193791" lon="12.1560352"><ele>133.0</ele><time>2026-03-28T15:38:10.328Z</time></trkpt><trkpt lat="42.7192863" lon="12.1562201"><ele>129.33333333333334</ele><time>2026-03-28T15:38:11.328Z</time></trkpt><trkpt lat="42.7191923" lon="12.1564038"><ele>125.66666666666666</ele><time>2026-03-28T15:38:12.328Z</time></trkpt><trkpt lat="42.7190978" lon="12.1565829"><ele>122.0</ele><time>2026-03-28T15:38:13.328Z</time></trkpt><trkpt lat="42.7190029" lon="12.1567663"><ele>122.0</ele><time>2026-03-28T15:38:14.327Z</time></trkpt><trkpt lat="42.7189079" lon="12.1569465"><ele>122.0</ele><time>2026-03-28T15:38:15.328Z</time></trkpt><trkpt lat="42.7188132" lon="12.1571294"><ele>122.0</ele><time>2026-03-28T15:38:16.328Z</time></trkpt><trkpt lat="42.7187126" lon="12.1573168"><ele>121.66666666666666</ele><time>2026-03-28T15:38:17.328Z</time></trkpt><trkpt lat="42.7186118" lon="12.1575052"><ele>121.33333333333334</ele><time>2026-03-28T15:38:18.328Z</time></trkpt><trkpt lat="42.7185038" lon="12.1576884"><ele>121.0</ele><time>2026-03-28T15:38:19.328Z</time></trkpt><trkpt lat="42.7184035" lon="12.1578732"><ele>121.0</ele><time>2026-03-28T15:38:20.328Z</time></trkpt><trkpt lat="42.7182971" lon="12.1580635"><ele>121.0</ele><time>2026-03-28T15:38:21.328Z</time></trkpt><trkpt lat="42.7181964" lon="12.158249"><ele>121.0</ele><time>2026-03-28T15:38:22.327Z</time></trkpt><trkpt lat="42.7180956" lon="12.1584337"><ele>122.66666666666667</ele><time>2026-03-28T15:38:23.328Z</time></trkpt><trkpt lat="42.7179952" lon="12.1586252"><ele>124.33333333333334</ele><time>2026-03-28T15:38:24.328Z</time></trkpt><trkpt lat="42.7178927" lon="12.1588166"><ele>126.0</ele><time>2026-03-28T15:38:25.328Z</time></trkpt><trkpt lat="42.7177925" lon="12.1590049"><ele>125.0</ele><time>2026-03-28T15:38:26.328Z</time></trkpt><trkpt lat="42.7176922" lon="12.1591965"><ele>124.0</ele><time>2026-03-28T15:38:27.328Z</time></trkpt><trkpt lat="42.7175931" lon="12.159381"><ele>123.0</ele><time>2026-03-28T15:38:28.328Z</time></trkpt><trkpt lat="42.7174903" lon="12.1595648"><ele>123.0</ele><time>2026-03-28T15:38:29.328Z</time></trkpt><trkpt lat="42.7173907" lon="12.1597568"><ele>123.0</ele><time>2026-03-28T15:38:30.327Z</time></trkpt><trkpt lat="42.7172866" lon="12.1599464"><ele>123.0</ele><time>2026-03-28T15:38:31.328Z</time></trkpt><trkpt lat="42.7171913" lon="12.1601417"><ele>126.0</ele><time>2026-03-28T15:38:32.328Z</time></trkpt><trkpt lat="42.7170934" lon="12.1603285"><ele>129.0</ele><time>2026-03-28T15:38:33.327Z</time></trkpt><trkpt lat="42.7169969" lon="12.1605167"><ele>132.0</ele><time>2026-03-28T15:38:34.328Z</time></trkpt><trkpt lat="42.7169028" lon="12.1606973"><ele>130.5</ele><time>2026-03-28T15:38:35.328Z</time></trkpt><trkpt lat="42.7168055" lon="12.1608691"><ele>129.0</ele><time>2026-03-28T15:38:36.328Z</time></trkpt><trkpt lat="42.7167128" lon="12.1610237"><ele>127.5</ele><time>2026-03-28T15:38:37.328Z</time></trkpt><trkpt lat="42.7166309" lon="12.1611736"><ele>126.0</ele><time>2026-03-28T15:38:38.328Z</time></trkpt><trkpt lat="42.7165468" lon="12.1613163"><ele>126.0</ele><time>2026-03-28T15:38:39.328Z</time></trkpt><trkpt lat="42.7164549" lon="12.1614441"><ele>126.0</ele><time>2026-03-28T15:38:40.327Z</time></trkpt><trkpt lat="42.7163583" lon="12.1615467"><ele>126.0</ele><time>2026-03-28T15:38:41.328Z</time></trkpt><trkpt lat="42.7162534" lon="12.1616318"><ele>126.0</ele><time>2026-03-28T15:38:42.327Z</time></trkpt><trkpt lat="42.7161434" lon="12.1617105"><ele>126.0</ele><time>2026-03-28T15:38:43.328Z</time></trkpt><trkpt lat="42.7160382" lon="12.1617948"><ele>126.0</ele><time>2026-03-28T15:38:44.327Z</time></trkpt><trkpt lat="42.7159419" lon="12.161893"><ele>126.0</ele><time>2026-03-28T15:38:45.328Z</time></trkpt><trkpt lat="42.7158541" lon="12.1620059"><ele>126.0</ele><time>2026-03-28T15:38:46.327Z</time></trkpt><trkpt lat="42.7157742" lon="12.1621259"><ele>126.0</ele><time>2026-03-28T15:38:47.327Z</time></trkpt><trkpt lat="42.7156929" lon="12.1622527"><ele>126.0</ele><time>2026-03-28T15:38:48.328Z</time></trkpt><trkpt lat="42.7156087" lon="12.162388"><ele>126.0</ele><time>2026-03-28T15:38:49.327Z</time></trkpt><trkpt lat="42.7155246" lon="12.1625314"><ele>126.0</ele><time>2026-03-28T15:38:50.327Z</time></trkpt><trkpt lat="42.7154426" lon="12.1626788"><ele>125.25</ele><time>2026-03-28T15:38:51.327Z</time></trkpt><trkpt lat="42.7153716" lon="12.1628429"><ele>124.5</ele><time>2026-03-28T15:38:52.327Z</time></trkpt><trkpt lat="42.7153" lon="12.1630068"><ele>123.75</ele><time>2026-03-28T15:38:53.328Z</time></trkpt><trkpt lat="42.7152358" lon="12.1631819"><ele>123.0</ele><time>2026-03-28T15:38:54.328Z</time></trkpt><trkpt lat="42.7151776" lon="12.1633671"><ele>125.0</ele><time>2026-03-28T15:38:55.328Z</time></trkpt><trkpt lat="42.7151268" lon="12.1635426"><ele>127.0</ele><time>2026-03-28T15:38:56.327Z</time></trkpt><trkpt lat="42.7150912" lon="12.1637048"><ele>129.0</ele><time>2026-03-28T15:38:57.328Z</time></trkpt><trkpt lat="42.7150692" lon="12.1638685"><ele>131.0</ele><time>2026-03-28T15:38:58.327Z</time></trkpt><trkpt lat="42.7150523" lon="12.1640463"><ele>132.0</ele><time>2026-03-28T15:38:59.328Z</time></trkpt><trkpt lat="42.7150383" lon="12.1642322"><ele>133.0</ele><time>2026-03-28T15:39:00.328Z</time></trkpt><trkpt lat="42.7150321" lon="12.1644225"><ele>134.0</ele><time>2026-03-28T15:39:01.327Z</time></trkpt><trkpt lat="42.7150248" lon="12.1646108"><ele>135.0</ele><time>2026-03-28T15:39:02.328Z</time></trkpt><trkpt lat="42.7150182" lon="12.164804"><ele>135.0</ele><time>2026-03-28T15:39:03.328Z</time></trkpt><trkpt lat="42.7150169" lon="12.1650005"><ele>135.0</ele><time>2026-03-28T15:39:04.328Z</time></trkpt><trkpt lat="42.7150159" lon="12.1651976"><ele>135.0</ele><time>2026-03-28T15:39:05.328Z</time></trkpt><trkpt lat="42.7150162" lon="12.1653979"><ele>135.0</ele><time>2026-03-28T15:39:06.328Z</time></trkpt><trkpt lat="42.7150195" lon="12.1656087"><ele>134.75</ele><time>2026-03-28T15:39:07.328Z</time></trkpt><trkpt lat="42.715021" lon="12.1658175"><ele>134.5</ele><time>2026-03-28T15:39:08.328Z</time></trkpt><trkpt lat="42.7150199" lon="12.166022"><ele>134.25</ele><time>2026-03-28T15:39:09.328Z</time></trkpt><trkpt lat="42.7150169" lon="12.1661975"><ele>134.0</ele><time>2026-03-28T15:39:10.327Z</time></trkpt><trkpt lat="42.7150181" lon="12.1663447"><ele>134.0</ele><time>2026-03-28T15:39:11.328Z</time></trkpt><trkpt lat="42.7150146" lon="12.1664602"><ele>134.0</ele><time>2026-03-28T15:39:12.327Z</time></trkpt><trkpt lat="42.7149982" lon="12.1665616"><ele>134.0</ele><time>2026-03-28T15:39:13.328Z</time></trkpt><trkpt lat="42.7149687" lon="12.1666549"><ele>134.0</ele><time>2026-03-28T15:39:14.328Z</time></trkpt><trkpt lat="42.7149212" lon="12.1667199"><ele>134.0</ele><time>2026-03-28T15:39:15.327Z</time></trkpt><trkpt lat="42.7148544" lon="12.1667764"><ele>134.0</ele><time>2026-03-28T15:39:16.328Z</time></trkpt><trkpt lat="42.7147742" lon="12.1668095"><ele>134.16666666666666</ele><time>2026-03-28T15:39:17.327Z</time></trkpt><trkpt lat="42.7146952" lon="12.16684"><ele>134.33333333333331</ele><time>2026-03-28T15:39:18.328Z</time></trkpt><trkpt lat="42.7146235" lon="12.1668323"><ele>134.5</ele><time>2026-03-28T15:39:19.328Z</time></trkpt><trkpt lat="42.7145493" lon="12.1668009"><ele>134.66666666666666</ele><time>2026-03-28T15:39:20.328Z</time></trkpt><trkpt lat="42.71448" lon="12.166738"><ele>134.83333333333334</ele><time>2026-03-28T15:39:21.328Z</time></trkpt><trkpt lat="42.7144192" lon="12.1666436"><ele>135.0</ele><time>2026-03-28T15:39:22.328Z</time></trkpt><trkpt lat="42.7143675" lon="12.1665249"><ele>134.4</ele><time>2026-03-28T15:39:23.328Z</time></trkpt><trkpt lat="42.7143187" lon="12.1663942"><ele>133.8</ele><time>2026-03-28T15:39:24.327Z</time></trkpt><trkpt lat="42.7142711" lon="12.1662667"><ele>133.2</ele><time>2026-03-28T15:39:25.328Z</time></trkpt><trkpt lat="42.7142217" lon="12.1661498"><ele>132.6</ele><time>2026-03-28T15:39:26.328Z</time></trkpt><trkpt lat="42.7141681" lon="12.1660254"><ele>132.0</ele><time>2026-03-28T15:39:27.327Z</time></trkpt><trkpt lat="42.7141126" lon="12.1659038"><ele>132.0</ele><time>2026-03-28T15:39:28.327Z</time></trkpt><trkpt lat="42.7140452" lon="12.1657725"><ele>132.0</ele><time>2026-03-28T15:39:29.327Z</time></trkpt><trkpt lat="42.7139681" lon="12.1656482"><ele>132.0</ele><time>2026-03-28T15:39:30.327Z</time></trkpt><trkpt lat="42.7138911" lon="12.1655197"><ele>132.0</ele><time>2026-03-28T15:39:31.327Z</time></trkpt><trkpt lat="42.7138054" lon="12.1653947"><ele>133.0</ele><time>2026-03-28T15:39:32.328Z</time></trkpt><trkpt lat="42.7137431" lon="12.1652534"><ele>134.0</ele><time>2026-03-28T15:39:33.327Z</time></trkpt><trkpt lat="42.7136842" lon="12.1651247"><ele>135.0</ele><time>2026-03-28T15:39:34.328Z</time></trkpt><trkpt lat="42.7136309" lon="12.1649925"><ele>136.0</ele><time>2026-03-28T15:39:35.328Z</time></trkpt><trkpt lat="42.7135978" lon="12.1648686"><ele>137.0</ele><time>2026-03-28T15:39:36.327Z</time></trkpt><trkpt lat="42.7135607" lon="12.1647505"><ele>137.0</ele><time>2026-03-28T15:39:37.328Z</time></trkpt><trkpt lat="42.7135104" lon="12.1646358"><ele>137.0</ele><time>2026-03-28T15:39:38.327Z</time></trkpt><trkpt lat="42.7134458" lon="12.1645365"><ele>137.0</ele><time>2026-03-28T15:39:39.327Z</time></trkpt><trkpt lat="42.713362" lon="12.1644392"><ele>137.0</ele><time>2026-03-28T15:39:40.328Z</time></trkpt><trkpt lat="42.7132793" lon="12.1643481"><ele>137.0</ele><time>2026-03-28T15:39:41.327Z</time></trkpt><trkpt lat="42.7131902" lon="12.1642569"><ele>137.0</ele><time>2026-03-28T15:39:42.327Z</time></trkpt><trkpt lat="42.7131028" lon="12.1641641"><ele>137.0</ele><time>2026-03-28T15:39:43.328Z</time></trkpt><trkpt lat="42.7130115" lon="12.1640743"><ele>137.0</ele><time>2026-03-28T15:39:44.327Z</time></trkpt><trkpt lat="42.7129161" lon="12.163981"><ele>137.0</ele><time>2026-03-28T15:39:45.327Z</time></trkpt><trkpt lat="42.7128245" lon="12.1638951"><ele>136.6</ele><time>2026-03-28T15:39:46.328Z</time></trkpt><trkpt lat="42.7127261" lon="12.1638255"><ele>136.2</ele><time>2026-03-28T15:39:47.328Z</time></trkpt><trkpt lat="42.7126229" lon="12.1637782"><ele>135.8</ele><time>2026-03-28T15:39:48.328Z</time></trkpt><trkpt lat="42.7125279" lon="12.1637542"><ele>135.4</ele><time>2026-03-28T15:39:49.328Z</time></trkpt><trkpt lat="42.712441" lon="12.1637472"><ele>135.0</ele><time>2026-03-28T15:39:50.328Z</time></trkpt><trkpt lat="42.7123656" lon="12.1637627"><ele>135.0</ele><time>2026-03-28T15:39:51.328Z</time></trkpt><trkpt lat="42.7123059" lon="12.1638055"><ele>135.0</ele><time>2026-03-28T15:39:52.328Z</time></trkpt><trkpt lat="42.7122534" lon="12.163963"><ele>135.0</ele><time>2026-03-28T15:39:54.328Z</time></trkpt><trkpt lat="42.7122641" lon="12.1640646"><ele>135.0</ele><time>2026-03-28T15:39:55.327Z</time></trkpt><trkpt lat="42.7122903" lon="12.1641849"><ele>135.0</ele><time>2026-03-28T15:39:56.328Z</time></trkpt><trkpt lat="42.7123198" lon="12.1643171"><ele>138.0</ele><time>2026-03-28T15:39:57.327Z</time></trkpt><trkpt lat="42.7123561" lon="12.164451"><ele>141.0</ele><time>2026-03-28T15:39:58.328Z</time></trkpt><trkpt lat="42.7123892" lon="12.1645857"><ele>144.0</ele><time>2026-03-28T15:39:59.328Z</time></trkpt><trkpt lat="42.7124134" lon="12.1647244"><ele>147.0</ele><time>2026-03-28T15:40:00.328Z</time></trkpt><trkpt lat="42.7124277" lon="12.1648627"><ele>150.0</ele><time>2026-03-28T15:40:01.328Z</time></trkpt><trkpt lat="42.7124335" lon="12.1649946"><ele>151.0</ele><time>2026-03-28T15:40:02.327Z</time></trkpt><trkpt lat="42.7124278" lon="12.165134"><ele>152.0</ele><time>2026-03-28T15:40:03.328Z</time></trkpt><trkpt lat="42.7124102" lon="12.1652649"><ele>153.0</ele><time>2026-03-28T15:40:04.328Z</time></trkpt><trkpt lat="42.7123897" lon="12.1653836"><ele>154.0</ele><time>2026-03-28T15:40:05.327Z</time></trkpt><trkpt lat="42.7123547" lon="12.1654824"><ele>155.0</ele><time>2026-03-28T15:40:06.327Z</time></trkpt><trkpt lat="42.7123177" lon="12.1655641"><ele>156.0</ele><time>2026-03-28T15:40:07.328Z</time></trkpt><trkpt lat="42.7122694" lon="12.1656393"><ele>156.0</ele><time>2026-03-28T15:40:08.327Z</time></trkpt><trkpt lat="42.7122063" lon="12.1656933"><ele>156.0</ele><time>2026-03-28T15:40:09.328Z</time></trkpt><trkpt lat="42.7121312" lon="12.1657178"><ele>156.0</ele><time>2026-03-28T15:40:10.327Z</time></trkpt><trkpt lat="42.7120661" lon="12.1657066"><ele>156.0</ele><time>2026-03-28T15:40:11.328Z</time></trkpt><trkpt lat="42.7120082" lon="12.1656616"><ele>156.0</ele><time>2026-03-28T15:40:12.327Z</time></trkpt><trkpt lat="42.7119581" lon="12.165594"><ele>156.0</ele><time>2026-03-28T15:40:13.327Z</time></trkpt><trkpt lat="42.7119121" lon="12.1655119"><ele>156.0</ele><time>2026-03-28T15:40:14.328Z</time></trkpt><trkpt lat="42.7118621" lon="12.1654249"><ele>156.33333333333334</ele><time>2026-03-28T15:40:15.327Z</time></trkpt><trkpt lat="42.7118096" lon="12.1653382"><ele>156.66666666666666</ele><time>2026-03-28T15:40:16.328Z</time></trkpt><trkpt lat="42.7117516" lon="12.1652485"><ele>157.0</ele><time>2026-03-28T15:40:17.327Z</time></trkpt><trkpt lat="42.7116863" lon="12.1651703"><ele>157.33333333333331</ele><time>2026-03-28T15:40:18.328Z</time></trkpt><trkpt lat="42.7116062" lon="12.1651189"><ele>157.66666666666666</ele><time>2026-03-28T15:40:19.327Z</time></trkpt><trkpt lat="42.7115183" lon="12.1650844"><ele>158.0</ele><time>2026-03-28T15:40:20.328Z</time></trkpt><trkpt lat="42.7114268" lon="12.1650543"><ele>158.0</ele><time>2026-03-28T15:40:21.328Z</time></trkpt><trkpt lat="42.711334" lon="12.1650273"><ele>158.0</ele><time>2026-03-28T15:40:22.327Z</time></trkpt><trkpt lat="42.7112454" lon="12.1649963"><ele>158.0</ele><time>2026-03-28T15:40:23.328Z</time></trkpt><trkpt lat="42.711156" lon="12.1649487"><ele>158.0</ele><time>2026-03-28T15:40:24.328Z</time></trkpt><trkpt lat="42.7110666" lon="12.1648758"><ele>158.0</ele><time>2026-03-28T15:40:25.328Z</time></trkpt><trkpt lat="42.7109875" lon="12.164794"><ele>158.20000000000002</ele><time>2026-03-28T15:40:26.328Z</time></trkpt><trkpt lat="42.7109107" lon="12.164702"><ele>158.4</ele><time>2026-03-28T15:40:27.327Z</time></trkpt><trkpt lat="42.7108307" lon="12.1646011"><ele>158.60000000000002</ele><time>2026-03-28T15:40:28.328Z</time></trkpt><trkpt lat="42.7107492" lon="12.1644993"><ele>158.8</ele><time>2026-03-28T15:40:29.328Z</time></trkpt><trkpt lat="42.7106639" lon="12.1643959"><ele>159.0</ele><time>2026-03-28T15:40:30.328Z</time></trkpt><trkpt lat="42.7105826" lon="12.164286"><ele>159.0</ele><time>2026-03-28T15:40:31.327Z</time></trkpt><trkpt lat="42.7104969" lon="12.1641714"><ele>159.0</ele><time>2026-03-28T15:40:32.328Z</time></trkpt><trkpt lat="42.7104187" lon="12.1640762"><ele>159.0</ele><time>2026-03-28T15:40:33.328Z</time></trkpt><trkpt lat="42.7103367" lon="12.1639963"><ele>159.0</ele><time>2026-03-28T15:40:34.328Z</time></trkpt><trkpt lat="42.7102449" lon="12.1639289"><ele>159.0</ele><time>2026-03-28T15:40:35.327Z</time></trkpt><trkpt lat="42.7101577" lon="12.1638679"><ele>157.0</ele><time>2026-03-28T15:40:36.328Z</time></trkpt><trkpt lat="42.7100682" lon="12.1638222"><ele>155.0</ele><time>2026-03-28T15:40:37.327Z</time></trkpt><trkpt lat="42.7099829" lon="12.1637958"><ele>153.0</ele><time>2026-03-28T15:40:38.327Z</time></trkpt><trkpt lat="42.7099005" lon="12.1637846"><ele>151.0</ele><time>2026-03-28T15:40:39.328Z</time></trkpt><trkpt lat="42.7098306" lon="12.163786"><ele>149.0</ele><time>2026-03-28T15:40:40.327Z</time></trkpt><trkpt lat="42.7097255" lon="12.1638847"><ele>149.0</ele><time>2026-03-28T15:40:42.328Z</time></trkpt><trkpt lat="42.7097098" lon="12.1639932"><ele>149.0</ele><time>2026-03-28T15:40:43.328Z</time></trkpt><trkpt lat="42.709695" lon="12.1641032"><ele>149.0</ele><time>2026-03-28T15:40:44.328Z</time></trkpt><trkpt lat="42.7096814" lon="12.1642173"><ele>149.0</ele><time>2026-03-28T15:40:45.327Z</time></trkpt><trkpt lat="42.7096638" lon="12.1643379"><ele>149.0</ele><time>2026-03-28T15:40:46.328Z</time></trkpt><trkpt lat="42.7096456" lon="12.1644677"><ele>149.0</ele><time>2026-03-28T15:40:47.327Z</time></trkpt><trkpt lat="42.7096313" lon="12.1646001"><ele>154.0</ele><time>2026-03-28T15:40:48.328Z</time></trkpt><trkpt lat="42.7096123" lon="12.1647324"><ele>159.0</ele><time>2026-03-28T15:40:49.328Z</time></trkpt><trkpt lat="42.7095948" lon="12.1648641"><ele>164.0</ele><time>2026-03-28T15:40:50.327Z</time></trkpt><trkpt lat="42.7095751" lon="12.1650034"><ele>169.0</ele><time>2026-03-28T15:40:51.328Z</time></trkpt><trkpt lat="42.709559" lon="12.1651395"><ele>174.0</ele><time>2026-03-28T15:40:52.328Z</time></trkpt><trkpt lat="42.7095376" lon="12.1652738"><ele>176.0</ele><time>2026-03-28T15:40:53.328Z</time></trkpt><trkpt lat="42.7095141" lon="12.1654081"><ele>178.0</ele><time>2026-03-28T15:40:54.328Z</time></trkpt><trkpt lat="42.7094873" lon="12.1655351"><ele>180.0</ele><time>2026-03-28T15:40:55.328Z</time></trkpt><trkpt lat="42.7094653" lon="12.1656503"><ele>182.0</ele><time>2026-03-28T15:40:56.328Z</time></trkpt><trkpt lat="42.709469" lon="12.1657591"><ele>184.0</ele><time>2026-03-28T15:40:57.328Z</time></trkpt><trkpt lat="42.7094943" lon="12.1658641"><ele>186.0</ele><time>2026-03-28T15:40:58.328Z</time></trkpt><trkpt lat="42.7095284" lon="12.1659709"><ele>186.66666666666666</ele><time>2026-03-28T15:40:59.328Z</time></trkpt><trkpt lat="42.7095643" lon="12.1660733"><ele>187.33333333333334</ele><time>2026-03-28T15:41:00.327Z</time></trkpt><trkpt lat="42.7095811" lon="12.1661763"><ele>188.0</ele><time>2026-03-28T15:41:01.328Z</time></trkpt><trkpt lat="42.7095813" lon="12.1662747"><ele>188.66666666666669</ele><time>2026-03-28T15:41:02.328Z</time></trkpt><trkpt lat="42.7095562" lon="12.1663547"><ele>189.33333333333334</ele><time>2026-03-28T15:41:03.328Z</time></trkpt><trkpt lat="42.709504" lon="12.1664138"><ele>190.0</ele><time>2026-03-28T15:41:04.328Z</time></trkpt><trkpt lat="42.7093845" lon="12.1664986"><ele>190.5</ele><time>2026-03-28T15:41:06.328Z</time></trkpt><trkpt lat="42.7093149" lon="12.1665346"><ele>191.0</ele><time>2026-03-28T15:41:07.328Z</time></trkpt><trkpt lat="42.7092422" lon="12.1665728"><ele>191.5</ele><time>2026-03-28T15:41:08.328Z</time></trkpt><trkpt lat="42.7091653" lon="12.166622"><ele>192.0</ele><time>2026-03-28T15:41:09.328Z</time></trkpt><trkpt lat="42.7090841" lon="12.1666609"><ele>192.49999999999997</ele><time>2026-03-28T15:41:10.328Z</time></trkpt><trkpt lat="42.7089988" lon="12.1667041"><ele>193.0</ele><time>2026-03-28T15:41:11.327Z</time></trkpt><trkpt lat="42.7089097" lon="12.1667537"><ele>193.0</ele><time>2026-03-28T15:41:12.328Z</time></trkpt><trkpt lat="42.7088172" lon="12.1668029"><ele>193.0</ele><time>2026-03-28T15:41:13.328Z</time></trkpt><trkpt lat="42.7087235" lon="12.1668454"><ele>193.0</ele><time>2026-03-28T15:41:14.328Z</time></trkpt><trkpt lat="42.7086262" lon="12.1668985"><ele>193.0</ele><time>2026-03-28T15:41:15.327Z</time></trkpt><trkpt lat="42.708536" lon="12.166949"><ele>193.0</ele><time>2026-03-28T15:41:16.328Z</time></trkpt><trkpt lat="42.7084571" lon="12.1669948"><ele>193.2</ele><time>2026-03-28T15:41:17.328Z</time></trkpt><trkpt lat="42.7083773" lon="12.1670511"><ele>193.4</ele><time>2026-03-28T15:41:18.327Z</time></trkpt><trkpt lat="42.7083043" lon="12.1671214"><ele>193.6</ele><time>2026-03-28T15:41:19.327Z</time></trkpt><trkpt lat="42.7082363" lon="12.1672058"><ele>193.79999999999998</ele><time>2026-03-28T15:41:20.328Z</time></trkpt><trkpt lat="42.7081766" lon="12.1673067"><ele>194.0</ele><time>2026-03-28T15:41:21.328Z</time></trkpt><trkpt lat="42.7081177" lon="12.1674117"><ele>194.2</ele><time>2026-03-28T15:41:22.328Z</time></trkpt><trkpt lat="42.7080682" lon="12.1675208"><ele>194.39999999999998</ele><time>2026-03-28T15:41:23.328Z</time></trkpt><trkpt lat="42.7080262" lon="12.1676368"><ele>194.6</ele><time>2026-03-28T15:41:24.327Z</time></trkpt><trkpt lat="42.7079982" lon="12.1677578"><ele>194.8</ele><time>2026-03-28T15:41:25.328Z</time></trkpt><trkpt lat="42.7079757" lon="12.1678895"><ele>195.0</ele><time>2026-03-28T15:41:26.327Z</time></trkpt><trkpt lat="42.7079567" lon="12.1680348"><ele>195.0</ele><time>2026-03-28T15:41:27.328Z</time></trkpt><trkpt lat="42.7079319" lon="12.1681734"><ele>195.0</ele><time>2026-03-28T15:41:28.328Z</time></trkpt><trkpt lat="42.7079091" lon="12.1683306"><ele>195.0</ele><time>2026-03-28T15:41:29.328Z</time></trkpt><trkpt lat="42.7078836" lon="12.1684862"><ele>195.0</ele><time>2026-03-28T15:41:30.328Z</time></trkpt><trkpt lat="42.7078582" lon="12.1686418"><ele>195.5</ele><time>2026-03-28T15:41:31.328Z</time></trkpt><trkpt lat="42.7078309" lon="12.1687977"><ele>196.0</ele><time>2026-03-28T15:41:32.328Z</time></trkpt><trkpt lat="42.7078021" lon="12.168953"><ele>196.5</ele><time>2026-03-28T15:41:33.328Z</time></trkpt><trkpt lat="42.7077792" lon="12.1691185"><ele>197.0</ele><time>2026-03-28T15:41:34.328Z</time></trkpt><trkpt lat="42.7077561" lon="12.1692722"><ele>197.39999999999998</ele><time>2026-03-28T15:41:35.328Z</time></trkpt><trkpt lat="42.7077346" lon="12.1694138"><ele>197.79999999999998</ele><time>2026-03-28T15:41:36.327Z</time></trkpt><trkpt lat="42.7077241" lon="12.1695467"><ele>198.2</ele><time>2026-03-28T15:41:37.328Z</time></trkpt><trkpt lat="42.7077308" lon="12.1696843"><ele>198.6</ele><time>2026-03-28T15:41:38.328Z</time></trkpt><trkpt lat="42.7077464" lon="12.1698051"><ele>199.0</ele><time>2026-03-28T15:41:39.328Z</time></trkpt><trkpt lat="42.70778" lon="12.1699299"><ele>197.75</ele><time>2026-03-28T15:41:40.327Z</time></trkpt><trkpt lat="42.7078173" lon="12.1700558"><ele>196.5</ele><time>2026-03-28T15:41:41.328Z</time></trkpt><trkpt lat="42.7078706" lon="12.1701813"><ele>195.25</ele><time>2026-03-28T15:41:42.328Z</time></trkpt><trkpt lat="42.7079384" lon="12.1703071"><ele>194.0</ele><time>2026-03-28T15:41:43.328Z</time></trkpt><trkpt lat="42.7080229" lon="12.170443"><ele>194.0</ele><time>2026-03-28T15:41:44.328Z</time></trkpt><trkpt lat="42.7081036" lon="12.1705771"><ele>194.0</ele><time>2026-03-28T15:41:45.328Z</time></trkpt><trkpt lat="42.7081829" lon="12.1707084"><ele>194.0</ele><time>2026-03-28T15:41:46.328Z</time></trkpt><trkpt lat="42.7082633" lon="12.1708361"><ele>194.0</ele><time>2026-03-28T15:41:47.328Z</time></trkpt><trkpt lat="42.7083534" lon="12.1709671"><ele>193.75</ele><time>2026-03-28T15:41:48.328Z</time></trkpt><trkpt lat="42.7084385" lon="12.1711042"><ele>193.5</ele><time>2026-03-28T15:41:49.328Z</time></trkpt><trkpt lat="42.7085295" lon="12.1712335"><ele>193.25</ele><time>2026-03-28T15:41:50.328Z</time></trkpt><trkpt lat="42.7086063" lon="12.1713583"><ele>193.0</ele><time>2026-03-28T15:41:51.328Z</time></trkpt><trkpt lat="42.7086743" lon="12.1714718"><ele>191.0</ele><time>2026-03-28T15:41:52.328Z</time></trkpt><trkpt lat="42.7087376" lon="12.1715715"><ele>189.0</ele><time>2026-03-28T15:41:53.327Z</time></trkpt><trkpt lat="42.7088036" lon="12.1716701"><ele>187.0</ele><time>2026-03-28T15:41:54.328Z</time></trkpt><trkpt lat="42.7088391" lon="12.1717511"><ele>185.0</ele><time>2026-03-28T15:41:55.328Z</time></trkpt><trkpt lat="42.7088655" lon="12.171935"><ele>183.0</ele><time>2026-03-28T15:41:57.328Z</time></trkpt><trkpt lat="42.7088447" lon="12.1720201"><ele>183.0</ele><time>2026-03-28T15:41:58.328Z</time></trkpt><trkpt lat="42.7087824" lon="12.1720788"><ele>183.0</ele><time>2026-03-28T15:41:59.327Z</time></trkpt><trkpt lat="42.7087085" lon="12.1721119"><ele>183.0</ele><time>2026-03-28T15:42:00.328Z</time></trkpt><trkpt lat="42.7086291" lon="12.1721072"><ele>183.0</ele><time>2026-03-28T15:42:01.327Z</time></trkpt><trkpt lat="42.7085521" lon="12.1720569"><ele>183.0</ele><time>2026-03-28T15:42:02.328Z</time></trkpt><trkpt lat="42.708471" lon="12.171999"><ele>183.0</ele><time>2026-03-28T15:42:03.327Z</time></trkpt><trkpt lat="42.7083847" lon="12.1718922"><ele>179.25</ele><time>2026-03-28T15:42:04.328Z</time></trkpt><trkpt lat="42.708295" lon="12.1717927"><ele>175.5</ele><time>2026-03-28T15:42:05.328Z</time></trkpt><trkpt lat="42.7082032" lon="12.1717015"><ele>171.75</ele><time>2026-03-28T15:42:06.327Z</time></trkpt><trkpt lat="42.7081069" lon="12.1716191"><ele>168.0</ele><time>2026-03-28T15:42:07.328Z</time></trkpt><trkpt lat="42.7080029" lon="12.1715363"><ele>166.75</ele><time>2026-03-28T15:42:08.328Z</time></trkpt><trkpt lat="42.7078921" lon="12.1714526"><ele>165.5</ele><time>2026-03-28T15:42:09.327Z</time></trkpt><trkpt lat="42.7077872" lon="12.1713805"><ele>164.25</ele><time>2026-03-28T15:42:10.328Z</time></trkpt><trkpt lat="42.7076811" lon="12.1712983"><ele>163.0</ele><time>2026-03-28T15:42:11.328Z</time></trkpt><trkpt lat="42.7075966" lon="12.1712131"><ele>163.0</ele><time>2026-03-28T15:42:12.328Z</time></trkpt><trkpt lat="42.7075232" lon="12.1711009"><ele>163.0</ele><time>2026-03-28T15:42:13.328Z</time></trkpt><trkpt lat="42.7074477" lon="12.1709926"><ele>163.0</ele><time>2026-03-28T15:42:14.327Z</time></trkpt><trkpt lat="42.7073724" lon="12.1708877"><ele>163.0</ele><time>2026-03-28T15:42:15.327Z</time></trkpt><trkpt lat="42.7072886" lon="12.1707878"><ele>163.0</ele><time>2026-03-28T15:42:16.327Z</time></trkpt><trkpt lat="42.7072004" lon="12.1706989"><ele>161.4</ele><time>2026-03-28T15:42:17.327Z</time></trkpt><trkpt lat="42.7071107" lon="12.1706114"><ele>159.8</ele><time>2026-03-28T15:42:18.328Z</time></trkpt><trkpt lat="42.707013" lon="12.1705342"><ele>158.2</ele><time>2026-03-28T15:42:19.328Z</time></trkpt><trkpt lat="42.7069088" lon="12.1704619"><ele>156.6</ele><time>2026-03-28T15:42:20.327Z</time></trkpt><trkpt lat="42.7068129" lon="12.1703931"><ele>155.0</ele><time>2026-03-28T15:42:21.328Z</time></trkpt><trkpt lat="42.7067196" lon="12.1703249"><ele>155.0</ele><time>2026-03-28T15:42:22.327Z</time></trkpt><trkpt lat="42.706631" lon="12.1702449"><ele>155.0</ele><time>2026-03-28T15:42:23.328Z</time></trkpt><trkpt lat="42.7065433" lon="12.1701578"><ele>155.0</ele><time>2026-03-28T15:42:24.327Z</time></trkpt><trkpt lat="42.7064595" lon="12.1700565"><ele>155.0</ele><time>2026-03-28T15:42:25.328Z</time></trkpt><trkpt lat="42.7063693" lon="12.1699475"><ele>155.0</ele><time>2026-03-28T15:42:26.328Z</time></trkpt><trkpt lat="42.7062843" lon="12.1698505"><ele>156.5</ele><time>2026-03-28T15:42:27.327Z</time></trkpt><trkpt lat="42.7062012" lon="12.1697375"><ele>158.0</ele><time>2026-03-28T15:42:28.328Z</time></trkpt><trkpt lat="42.7061149" lon="12.1696338"><ele>159.5</ele><time>2026-03-28T15:42:29.328Z</time></trkpt><trkpt lat="42.706029" lon="12.1695298"><ele>161.0</ele><time>2026-03-28T15:42:30.328Z</time></trkpt><trkpt lat="42.7059476" lon="12.16942"><ele>156.8</ele><time>2026-03-28T15:42:31.328Z</time></trkpt><trkpt lat="42.7058784" lon="12.1693045"><ele>152.60000000000002</ele><time>2026-03-28T15:42:32.328Z</time></trkpt><trkpt lat="42.7058236" lon="12.169192"><ele>148.4</ele><time>2026-03-28T15:42:33.327Z</time></trkpt><trkpt lat="42.705791" lon="12.1690619"><ele>144.2</ele><time>2026-03-28T15:42:34.327Z</time></trkpt><trkpt lat="42.7057774" lon="12.1689257"><ele>140.0</ele><time>2026-03-28T15:42:35.328Z</time></trkpt><trkpt lat="42.7057814" lon="12.1687873"><ele>139.2</ele><time>2026-03-28T15:42:36.327Z</time></trkpt><trkpt lat="42.7057865" lon="12.1686454"><ele>138.4</ele><time>2026-03-28T15:42:37.327Z</time></trkpt><trkpt lat="42.7058003" lon="12.1685"><ele>137.6</ele><time>2026-03-28T15:42:38.328Z</time></trkpt><trkpt lat="42.7058176" lon="12.168359"><ele>136.8</ele><time>2026-03-28T15:42:39.327Z</time></trkpt><trkpt lat="42.7058481" lon="12.168216"><ele>136.0</ele><time>2026-03-28T15:42:40.328Z</time></trkpt><trkpt lat="42.7058873" lon="12.1680761"><ele>135.2</ele><time>2026-03-28T15:42:41.328Z</time></trkpt><trkpt lat="42.7059222" lon="12.1679381"><ele>134.39999999999998</ele><time>2026-03-28T15:42:42.327Z</time></trkpt><trkpt lat="42.7059618" lon="12.1678068"><ele>133.6</ele><time>2026-03-28T15:42:43.328Z</time></trkpt><trkpt lat="42.7059885" lon="12.1676815"><ele>132.79999999999998</ele><time>2026-03-28T15:42:44.327Z</time></trkpt><trkpt lat="42.7060142" lon="12.1675736"><ele>132.0</ele><time>2026-03-28T15:42:45.328Z</time></trkpt><trkpt lat="42.7060288" lon="12.1674765"><ele>132.0</ele><time>2026-03-28T15:42:46.327Z</time></trkpt><trkpt lat="42.7060209" lon="12.1673255"><ele>132.0</ele><time>2026-03-28T15:42:48.328Z</time></trkpt><trkpt lat="42.705917" lon="12.1672612"><ele>132.0</ele><time>2026-03-28T15:42:50.328Z</time></trkpt><trkpt lat="42.7058547" lon="12.1672742"><ele>132.0</ele><time>2026-03-28T15:42:51.328Z</time></trkpt><trkpt lat="42.7057656" lon="12.1673913"><ele>132.0</ele><time>2026-03-28T15:42:53.328Z</time></trkpt><trkpt lat="42.7057138" lon="12.1675113"><ele>132.0</ele><time>2026-03-28T15:42:54.328Z</time></trkpt><trkpt lat="42.7056675" lon="12.1676472"><ele>132.0</ele><time>2026-03-28T15:42:55.328Z</time></trkpt><trkpt lat="42.7056238" lon="12.167794"><ele>132.0</ele><time>2026-03-28T15:42:56.328Z</time></trkpt><trkpt lat="42.7055789" lon="12.1679104"><ele>132.0</ele><time>2026-03-28T15:42:57.328Z</time></trkpt><trkpt lat="42.7055333" lon="12.1680429"><ele>132.0</ele><time>2026-03-28T15:42:58.328Z</time></trkpt><trkpt lat="42.7054809" lon="12.1681768"><ele>133.0</ele><time>2026-03-28T15:42:59.328Z</time></trkpt><trkpt lat="42.7054334" lon="12.1683122"><ele>134.0</ele><time>2026-03-28T15:43:00.328Z</time></trkpt><trkpt lat="42.705381" lon="12.1684514"><ele>135.0</ele><time>2026-03-28T15:43:01.328Z</time></trkpt><trkpt lat="42.7053165" lon="12.1685965"><ele>136.0</ele><time>2026-03-28T15:43:02.328Z</time></trkpt><trkpt lat="42.7052619" lon="12.1687473"><ele>132.25</ele><time>2026-03-28T15:43:03.328Z</time></trkpt><trkpt lat="42.7052056" lon="12.1689042"><ele>128.5</ele><time>2026-03-28T15:43:04.328Z</time></trkpt><trkpt lat="42.7051527" lon="12.1690675"><ele>124.75</ele><time>2026-03-28T15:43:05.328Z</time></trkpt><trkpt lat="42.7050978" lon="12.1692264"><ele>121.0</ele><time>2026-03-28T15:43:06.328Z</time></trkpt><trkpt lat="42.7050423" lon="12.169389"><ele>121.0</ele><time>2026-03-28T15:43:07.328Z</time></trkpt><trkpt lat="42.7049758" lon="12.1695553"><ele>121.0</ele><time>2026-03-28T15:43:08.327Z</time></trkpt><trkpt lat="42.7049176" lon="12.1697305"><ele>121.0</ele><time>2026-03-28T15:43:09.328Z</time></trkpt><trkpt lat="42.7048648" lon="12.1699038"><ele>121.0</ele><time>2026-03-28T15:43:10.328Z</time></trkpt><trkpt lat="42.70482" lon="12.170083"><ele>123.75</ele><time>2026-03-28T15:43:11.327Z</time></trkpt><trkpt lat="42.7047699" lon="12.1702496"><ele>126.5</ele><time>2026-03-28T15:43:12.328Z</time></trkpt><trkpt lat="42.7047115" lon="12.1703989"><ele>129.25</ele><time>2026-03-28T15:43:13.328Z</time></trkpt><trkpt lat="42.7046486" lon="12.170529"><ele>132.0</ele><time>2026-03-28T15:43:14.327Z</time></trkpt><trkpt lat="42.704573" lon="12.1706537"><ele>135.25</ele><time>2026-03-28T15:43:15.327Z</time></trkpt><trkpt lat="42.7044895" lon="12.1707858"><ele>138.5</ele><time>2026-03-28T15:43:16.328Z</time></trkpt><trkpt lat="42.7044063" lon="12.170923"><ele>141.75</ele><time>2026-03-28T15:43:17.328Z</time></trkpt><trkpt lat="42.7043188" lon="12.1710716"><ele>145.0</ele><time>2026-03-28T15:43:18.328Z</time></trkpt><trkpt lat="42.7042403" lon="12.1712245"><ele>141.5</ele><time>2026-03-28T15:43:19.328Z</time></trkpt><trkpt lat="42.7041584" lon="12.1713732"><ele>138.0</ele><time>2026-03-28T15:43:20.328Z</time></trkpt><trkpt lat="42.7040722" lon="12.1715204"><ele>134.5</ele><time>2026-03-28T15:43:21.328Z</time></trkpt><trkpt lat="42.7039949" lon="12.1716833"><ele>131.0</ele><time>2026-03-28T15:43:22.328Z</time></trkpt><trkpt lat="42.7039284" lon="12.1718493"><ele>131.0</ele><time>2026-03-28T15:43:23.328Z</time></trkpt><trkpt lat="42.7038651" lon="12.1719972"><ele>131.0</ele><time>2026-03-28T15:43:24.328Z</time></trkpt><trkpt lat="42.7038114" lon="12.1721299"><ele>131.0</ele><time>2026-03-28T15:43:25.328Z</time></trkpt><trkpt lat="42.7037607" lon="12.1722443"><ele>131.0</ele><time>2026-03-28T15:43:26.328Z</time></trkpt><trkpt lat="42.7037207" lon="12.1723545"><ele>131.0</ele><time>2026-03-28T15:43:27.328Z</time></trkpt><trkpt lat="42.7037101" lon="12.1725404"><ele>131.66666666666666</ele><time>2026-03-28T15:43:29.328Z</time></trkpt><trkpt lat="42.7037307" lon="12.172646"><ele>132.33333333333331</ele><time>2026-03-28T15:43:30.327Z</time></trkpt><trkpt lat="42.7037741" lon="12.1727373"><ele>133.0</ele><time>2026-03-28T15:43:31.328Z</time></trkpt><trkpt lat="42.7038113" lon="12.1728198"><ele>133.66666666666666</ele><time>2026-03-28T15:43:32.328Z</time></trkpt><trkpt lat="42.7038671" lon="12.1729012"><ele>134.33333333333334</ele><time>2026-03-28T15:43:33.328Z</time></trkpt><trkpt lat="42.7039215" lon="12.1729944"><ele>135.0</ele><time>2026-03-28T15:43:34.328Z</time></trkpt><trkpt lat="42.7039773" lon="12.1730992"><ele>132.6</ele><time>2026-03-28T15:43:35.328Z</time></trkpt><trkpt lat="42.7040316" lon="12.1732139"><ele>130.2</ele><time>2026-03-28T15:43:36.328Z</time></trkpt><trkpt lat="42.7040846" lon="12.1733437"><ele>127.80000000000001</ele><time>2026-03-28T15:43:37.328Z</time></trkpt><trkpt lat="42.7041077" lon="12.1734818"><ele>125.4</ele><time>2026-03-28T15:43:38.328Z</time></trkpt><trkpt lat="42.7041109" lon="12.1736301"><ele>123.0</ele><time>2026-03-28T15:43:39.328Z</time></trkpt><trkpt lat="42.7040993" lon="12.1737871"><ele>123.0</ele><time>2026-03-28T15:43:40.328Z</time></trkpt><trkpt lat="42.7040959" lon="12.1739461"><ele>123.0</ele><time>2026-03-28T15:43:41.328Z</time></trkpt><trkpt lat="42.7041011" lon="12.1741144"><ele>123.0</ele><time>2026-03-28T15:43:42.328Z</time></trkpt><trkpt lat="42.704117" lon="12.1742791"><ele>123.0</ele><time>2026-03-28T15:43:43.328Z</time></trkpt><trkpt lat="42.7041383" lon="12.1744304"><ele>122.0</ele><time>2026-03-28T15:43:44.327Z</time></trkpt><trkpt lat="42.7041534" lon="12.1745674"><ele>121.00000000000001</ele><time>2026-03-28T15:43:45.328Z</time></trkpt><trkpt lat="42.704153" lon="12.174689"><ele>120.00000000000001</ele><time>2026-03-28T15:43:46.328Z</time></trkpt><trkpt lat="42.7041528" lon="12.1748032"><ele>119.0</ele><time>2026-03-28T15:43:47.327Z</time></trkpt><trkpt lat="42.7041369" lon="12.1749314"><ele>118.0</ele><time>2026-03-28T15:43:48.327Z</time></trkpt><trkpt lat="42.7041089" lon="12.1750654"><ele>117.2</ele><time>2026-03-28T15:43:49.328Z</time></trkpt><trkpt lat="42.7040693" lon="12.1752003"><ele>116.4</ele><time>2026-03-28T15:43:50.327Z</time></trkpt><trkpt lat="42.704015" lon="12.1753308"><ele>115.60000000000001</ele><time>2026-03-28T15:43:51.328Z</time></trkpt><trkpt lat="42.7039586" lon="12.1754653"><ele>114.80000000000001</ele><time>2026-03-28T15:43:52.328Z</time></trkpt><trkpt lat="42.7038931" lon="12.1755954"><ele>114.0</ele><time>2026-03-28T15:43:53.328Z</time></trkpt><trkpt lat="42.7038196" lon="12.1757242"><ele>111.75</ele><time>2026-03-28T15:43:54.327Z</time></trkpt><trkpt lat="42.7037336" lon="12.1758551"><ele>109.5</ele><time>2026-03-28T15:43:55.328Z</time></trkpt><trkpt lat="42.7036665" lon="12.1759994"><ele>107.25</ele><time>2026-03-28T15:43:56.328Z</time></trkpt><trkpt lat="42.7036098" lon="12.1761571"><ele>105.0</ele><time>2026-03-28T15:43:57.328Z</time></trkpt><trkpt lat="42.7035607" lon="12.1763082"><ele>105.0</ele><time>2026-03-28T15:43:58.328Z</time></trkpt><trkpt lat="42.7035132" lon="12.1764734"><ele>105.0</ele><time>2026-03-28T15:43:59.328Z</time></trkpt><trkpt lat="42.7034502" lon="12.1766339"><ele>105.0</ele><time>2026-03-28T15:44:00.328Z</time></trkpt><trkpt lat="42.7033978" lon="12.1767845"><ele>105.0</ele><time>2026-03-28T15:44:01.327Z</time></trkpt><trkpt lat="42.7033441" lon="12.176923"><ele>106.66666666666667</ele><time>2026-03-28T15:44:02.328Z</time></trkpt><trkpt lat="42.7033084" lon="12.177031"><ele>108.33333333333334</ele><time>2026-03-28T15:44:03.328Z</time></trkpt><trkpt lat="42.7032737" lon="12.1771445"><ele>110.0</ele><time>2026-03-28T15:44:04.328Z</time></trkpt><trkpt lat="42.7032596" lon="12.1772406"><ele>111.66666666666667</ele><time>2026-03-28T15:44:05.328Z</time></trkpt><trkpt lat="42.7032728" lon="12.177334"><ele>113.33333333333334</ele><time>2026-03-28T15:44:06.328Z</time></trkpt><trkpt lat="42.7033107" lon="12.1774391"><ele>115.0</ele><time>2026-03-28T15:44:07.328Z</time></trkpt><trkpt lat="42.7033573" lon="12.1775516"><ele>117.0</ele><time>2026-03-28T15:44:08.328Z</time></trkpt><trkpt lat="42.703416" lon="12.1776619"><ele>119.0</ele><time>2026-03-28T15:44:09.327Z</time></trkpt><trkpt lat="42.7034632" lon="12.1777697"><ele>121.0</ele><time>2026-03-28T15:44:10.328Z</time></trkpt><trkpt lat="42.7034909" lon="12.177896"><ele>123.0</ele><time>2026-03-28T15:44:11.328Z</time></trkpt><trkpt lat="42.7035138" lon="12.178014"><ele>125.0</ele><time>2026-03-28T15:44:12.328Z</time></trkpt><trkpt lat="42.7035157" lon="12.1781515"><ele>125.4</ele><time>2026-03-28T15:44:13.328Z</time></trkpt><trkpt lat="42.7035058" lon="12.1782942"><ele>125.8</ele><time>2026-03-28T15:44:14.328Z</time></trkpt><trkpt lat="42.7034952" lon="12.1784539"><ele>126.19999999999999</ele><time>2026-03-28T15:44:15.328Z</time></trkpt><trkpt lat="42.7034826" lon="12.1786107"><ele>126.6</ele><time>2026-03-28T15:44:16.327Z</time></trkpt><trkpt lat="42.7034594" lon="12.178757"><ele>127.0</ele><time>2026-03-28T15:44:17.327Z</time></trkpt><trkpt lat="42.7034432" lon="12.1789031"><ele>126.25</ele><time>2026-03-28T15:44:18.327Z</time></trkpt><trkpt lat="42.7034238" lon="12.1790584"><ele>125.5</ele><time>2026-03-28T15:44:19.328Z</time></trkpt><trkpt lat="42.7034091" lon="12.1792124"><ele>124.75</ele><time>2026-03-28T15:44:20.328Z</time></trkpt><trkpt lat="42.7033872" lon="12.1793835"><ele>124.0</ele><time>2026-03-28T15:44:21.328Z</time></trkpt><trkpt lat="42.7033694" lon="12.1795386"><ele>124.0</ele><time>2026-03-28T15:44:22.328Z</time></trkpt><trkpt lat="42.7033509" lon="12.1796939"><ele>124.0</ele><time>2026-03-28T15:44:23.328Z</time></trkpt><trkpt lat="42.7033334" lon="12.17984"><ele>124.0</ele><time>2026-03-28T15:44:24.328Z</time></trkpt><trkpt lat="42.7033167" lon="12.1799626"><ele>124.0</ele><time>2026-03-28T15:44:25.327Z</time></trkpt><trkpt lat="42.7033174" lon="12.1800842"><ele>124.0</ele><time>2026-03-28T15:44:26.328Z</time></trkpt><trkpt lat="42.7033416" lon="12.1801934"><ele>124.16666666666667</ele><time>2026-03-28T15:44:27.328Z</time></trkpt><trkpt lat="42.7033838" lon="12.1802851"><ele>124.33333333333334</ele><time>2026-03-28T15:44:28.327Z</time></trkpt><trkpt lat="42.7034464" lon="12.1803537"><ele>124.5</ele><time>2026-03-28T15:44:29.328Z</time></trkpt><trkpt lat="42.7035245" lon="12.1804021"><ele>124.66666666666666</ele><time>2026-03-28T15:44:30.328Z</time></trkpt><trkpt lat="42.7036111" lon="12.1804318"><ele>124.83333333333333</ele><time>2026-03-28T15:44:31.327Z</time></trkpt><trkpt lat="42.703699" lon="12.1804555"><ele>125.0</ele><time>2026-03-28T15:44:32.328Z</time></trkpt><trkpt lat="42.7037801" lon="12.1804911"><ele>125.33333333333333</ele><time>2026-03-28T15:44:33.328Z</time></trkpt><trkpt lat="42.7038461" lon="12.1805504"><ele>125.66666666666666</ele><time>2026-03-28T15:44:34.328Z</time></trkpt><trkpt lat="42.7038977" lon="12.1806222"><ele>126.0</ele><time>2026-03-28T15:44:35.327Z</time></trkpt><trkpt lat="42.7039238" lon="12.1807278"><ele>126.33333333333334</ele><time>2026-03-28T15:44:36.328Z</time></trkpt><trkpt lat="42.7039402" lon="12.180849"><ele>126.66666666666667</ele><time>2026-03-28T15:44:37.328Z</time></trkpt><trkpt lat="42.7039411" lon="12.1809847"><ele>127.0</ele><time>2026-03-28T15:44:38.328Z</time></trkpt><trkpt lat="42.7039261" lon="12.1811183"><ele>126.19999999999999</ele><time>2026-03-28T15:44:39.327Z</time></trkpt><trkpt lat="42.703896" lon="12.1812606"><ele>125.39999999999999</ele><time>2026-03-28T15:44:40.328Z</time></trkpt><trkpt lat="42.7038667" lon="12.1813904"><ele>124.60000000000001</ele><time>2026-03-28T15:44:41.327Z</time></trkpt><trkpt lat="42.7038333" lon="12.1815082"><ele>123.80000000000001</ele><time>2026-03-28T15:44:42.328Z</time></trkpt><trkpt lat="42.7037844" lon="12.181611"><ele>123.0</ele><time>2026-03-28T15:44:43.328Z</time></trkpt><trkpt lat="42.7037159" lon="12.1816979"><ele>123.0</ele><time>2026-03-28T15:44:44.328Z</time></trkpt><trkpt lat="42.703636" lon="12.1817855"><ele>123.00000000000001</ele><time>2026-03-28T15:44:45.327Z</time></trkpt><trkpt lat="42.7035404" lon="12.1818632"><ele>123.00000000000001</ele><time>2026-03-28T15:44:46.328Z</time></trkpt><trkpt lat="42.7034447" lon="12.1819375"><ele>123.0</ele><time>2026-03-28T15:44:47.328Z</time></trkpt><trkpt lat="42.7033578" lon="12.1820044"><ele>123.0</ele><time>2026-03-28T15:44:48.328Z</time></trkpt><trkpt lat="42.7032717" lon="12.1820695"><ele>122.33333333333333</ele><time>2026-03-28T15:44:49.328Z</time></trkpt><trkpt lat="42.7031956" lon="12.1821275"><ele>121.66666666666666</ele><time>2026-03-28T15:44:50.328Z</time></trkpt><trkpt lat="42.7031197" lon="12.1821938"><ele>121.0</ele><time>2026-03-28T15:44:51.328Z</time></trkpt><trkpt lat="42.7030627" lon="12.182262"><ele>120.33333333333333</ele><time>2026-03-28T15:44:52.328Z</time></trkpt><trkpt lat="42.7030259" lon="12.1823409"><ele>119.66666666666666</ele><time>2026-03-28T15:44:53.327Z</time></trkpt><trkpt lat="42.7030132" lon="12.1824316"><ele>119.0</ele><time>2026-03-28T15:44:54.328Z</time></trkpt><trkpt lat="42.7030386" lon="12.1825392"><ele>120.6</ele><time>2026-03-28T15:44:55.328Z</time></trkpt><trkpt lat="42.7030829" lon="12.1826434"><ele>122.2</ele><time>2026-03-28T15:44:56.328Z</time></trkpt><trkpt lat="42.703146" lon="12.1827495"><ele>123.79999999999998</ele><time>2026-03-28T15:44:57.328Z</time></trkpt><trkpt lat="42.7032205" lon="12.1828606"><ele>125.39999999999999</ele><time>2026-03-28T15:44:58.328Z</time></trkpt><trkpt lat="42.7033021" lon="12.1829651"><ele>127.0</ele><time>2026-03-28T15:44:59.327Z</time></trkpt><trkpt lat="42.7033884" lon="12.1830808"><ele>127.0</ele><time>2026-03-28T15:45:00.328Z</time></trkpt><trkpt lat="42.7034694" lon="12.1831939"><ele>127.0</ele><time>2026-03-28T15:45:01.328Z</time></trkpt><trkpt lat="42.7035508" lon="12.1833165"><ele>127.0</ele><time>2026-03-28T15:45:02.328Z</time></trkpt><trkpt lat="42.7036295" lon="12.1834334"><ele>127.0</ele><time>2026-03-28T15:45:03.328Z</time></trkpt><trkpt lat="42.7037053" lon="12.183554"><ele>128.75</ele><time>2026-03-28T15:45:04.328Z</time></trkpt><trkpt lat="42.7037793" lon="12.1836622"><ele>130.5</ele><time>2026-03-28T15:45:05.328Z</time></trkpt><trkpt lat="42.7038637" lon="12.1837848"><ele>132.25</ele><time>2026-03-28T15:45:06.328Z</time></trkpt><trkpt lat="42.7039459" lon="12.183896"><ele>134.0</ele><time>2026-03-28T15:45:07.328Z</time></trkpt><trkpt lat="42.7040244" lon="12.1840013"><ele>133.83333333333331</ele><time>2026-03-28T15:45:08.328Z</time></trkpt><trkpt lat="42.7040953" lon="12.1840926"><ele>133.66666666666666</ele><time>2026-03-28T15:45:09.328Z</time></trkpt><trkpt lat="42.7041539" lon="12.1841747"><ele>133.5</ele><time>2026-03-28T15:45:10.328Z</time></trkpt><trkpt lat="42.7041922" lon="12.1842617"><ele>133.33333333333334</ele><time>2026-03-28T15:45:11.328Z</time></trkpt><trkpt lat="42.7042057" lon="12.1843473"><ele>133.16666666666669</ele><time>2026-03-28T15:45:12.328Z</time></trkpt><trkpt lat="42.7041774" lon="12.1845149"><ele>133.0</ele><time>2026-03-28T15:45:14.328Z</time></trkpt><trkpt lat="42.704134" lon="12.184597"><ele>133.0</ele><time>2026-03-28T15:45:15.328Z</time></trkpt><trkpt lat="42.7040723" lon="12.1846683"><ele>133.0</ele><time>2026-03-28T15:45:16.328Z</time></trkpt><trkpt lat="42.7040008" lon="12.184736"><ele>133.0</ele><time>2026-03-28T15:45:17.327Z</time></trkpt><trkpt lat="42.7039274" lon="12.1848138"><ele>133.0</ele><time>2026-03-28T15:45:18.328Z</time></trkpt><trkpt lat="42.7038515" lon="12.1849005"><ele>133.0</ele><time>2026-03-28T15:45:19.328Z</time></trkpt><trkpt lat="42.7037756" lon="12.1849985"><ele>132.6</ele><time>2026-03-28T15:45:20.327Z</time></trkpt><trkpt lat="42.7036923" lon="12.1851081"><ele>132.20000000000002</ele><time>2026-03-28T15:45:21.328Z</time></trkpt><trkpt lat="42.7036213" lon="12.1852246"><ele>131.8</ele><time>2026-03-28T15:45:22.327Z</time></trkpt><trkpt lat="42.7035631" lon="12.1853404"><ele>131.4</ele><time>2026-03-28T15:45:23.327Z</time></trkpt><trkpt lat="42.7035016" lon="12.1854508"><ele>131.0</ele><time>2026-03-28T15:45:24.328Z</time></trkpt><trkpt lat="42.7034312" lon="12.1855761"><ele>132.4</ele><time>2026-03-28T15:45:25.328Z</time></trkpt><trkpt lat="42.70336" lon="12.1856985"><ele>133.8</ele><time>2026-03-28T15:45:26.327Z</time></trkpt><trkpt lat="42.7032962" lon="12.1858071"><ele>135.20000000000002</ele><time>2026-03-28T15:45:27.328Z</time></trkpt><trkpt lat="42.7032393" lon="12.185908"><ele>136.6</ele><time>2026-03-28T15:45:28.327Z</time></trkpt><trkpt lat="42.7031796" lon="12.1859975"><ele>138.0</ele><time>2026-03-28T15:45:29.328Z</time></trkpt><trkpt lat="42.7031352" lon="12.186074"><ele>138.0</ele><time>2026-03-28T15:45:30.328Z</time></trkpt><trkpt lat="42.7030956" lon="12.1861485"><ele>138.0</ele><time>2026-03-28T15:45:31.328Z</time></trkpt><trkpt lat="42.7030497" lon="12.186266"><ele>138.0</ele><time>2026-03-28T15:45:33.328Z</time></trkpt><trkpt lat="42.703033" lon="12.1863663"><ele>138.0</ele><time>2026-03-28T15:45:35.328Z</time></trkpt><trkpt lat="42.7030485" lon="12.1865086"><ele>138.0</ele><time>2026-03-28T15:45:37.328Z</time></trkpt><trkpt lat="42.7030992" lon="12.1866632"><ele>137.83333333333334</ele><time>2026-03-28T15:45:39.327Z</time></trkpt><trkpt lat="42.7031485" lon="12.1867288"><ele>137.66666666666666</ele><time>2026-03-28T15:45:40.328Z</time></trkpt><trkpt lat="42.7032192" lon="12.1867848"><ele>137.5</ele><time>2026-03-28T15:45:41.327Z</time></trkpt><trkpt lat="42.7032986" lon="12.1868453"><ele>137.33333333333331</ele><time>2026-03-28T15:45:42.328Z</time></trkpt><trkpt lat="42.7033893" lon="12.1869159"><ele>137.16666666666666</ele><time>2026-03-28T15:45:43.327Z</time></trkpt><trkpt lat="42.7034729" lon="12.1869904"><ele>137.0</ele><time>2026-03-28T15:45:44.328Z</time></trkpt><trkpt lat="42.703561" lon="12.1870603"><ele>137.6</ele><time>2026-03-28T15:45:45.328Z</time></trkpt><trkpt lat="42.7036522" lon="12.1871342"><ele>138.2</ele><time>2026-03-28T15:45:46.328Z</time></trkpt><trkpt lat="42.7037296" lon="12.1871985"><ele>138.8</ele><time>2026-03-28T15:45:47.328Z</time></trkpt><trkpt lat="42.7038118" lon="12.1872662"><ele>139.4</ele><time>2026-03-28T15:45:48.328Z</time></trkpt><trkpt lat="42.7038878" lon="12.1873307"><ele>140.0</ele><time>2026-03-28T15:45:49.328Z</time></trkpt><trkpt lat="42.7039635" lon="12.1873917"><ele>138.83333333333331</ele><time>2026-03-28T15:45:50.328Z</time></trkpt><trkpt lat="42.7040254" lon="12.1874631"><ele>137.66666666666666</ele><time>2026-03-28T15:45:51.328Z</time></trkpt><trkpt lat="42.7040755" lon="12.1875449"><ele>136.5</ele><time>2026-03-28T15:45:52.327Z</time></trkpt><trkpt lat="42.7041078" lon="12.1876387"><ele>135.33333333333334</ele><time>2026-03-28T15:45:53.328Z</time></trkpt><trkpt lat="42.7041182" lon="12.187741"><ele>134.16666666666669</ele><time>2026-03-28T15:45:54.328Z</time></trkpt><trkpt lat="42.704107" lon="12.1878474"><ele>133.0</ele><time>2026-03-28T15:45:55.327Z</time></trkpt><trkpt lat="42.7040927" lon="12.1879558"><ele>133.0</ele><time>2026-03-28T15:45:56.327Z</time></trkpt><trkpt lat="42.7040598" lon="12.1880441"><ele>133.0</ele><time>2026-03-28T15:45:57.328Z</time></trkpt><trkpt lat="42.7039907" lon="12.1881021"><ele>133.0</ele><time>2026-03-28T15:45:58.328Z</time></trkpt><trkpt lat="42.7039197" lon="12.1881406"><ele>133.0</ele><time>2026-03-28T15:45:59.328Z</time></trkpt><trkpt lat="42.7038387" lon="12.1881665"><ele>133.0</ele><time>2026-03-28T15:46:00.328Z</time></trkpt><trkpt lat="42.7037647" lon="12.1881721"><ele>133.0</ele><time>2026-03-28T15:46:01.327Z</time></trkpt><trkpt lat="42.7036829" lon="12.1881737"><ele>133.0</ele><time>2026-03-28T15:46:02.328Z</time></trkpt><trkpt lat="42.7036012" lon="12.1881725"><ele>133.0</ele><time>2026-03-28T15:46:03.328Z</time></trkpt><trkpt lat="42.7035231" lon="12.1881814"><ele>133.0</ele><time>2026-03-28T15:46:04.328Z</time></trkpt><trkpt lat="42.7034322" lon="12.1881804"><ele>133.0</ele><time>2026-03-28T15:46:05.328Z</time></trkpt><trkpt lat="42.7033436" lon="12.1881658"><ele>133.0</ele><time>2026-03-28T15:46:06.328Z</time></trkpt><trkpt lat="42.7032456" lon="12.1881612"><ele>133.0</ele><time>2026-03-28T15:46:07.327Z</time></trkpt><trkpt lat="42.7031503" lon="12.1881535"><ele>133.16666666666669</ele><time>2026-03-28T15:46:08.327Z</time></trkpt><trkpt lat="42.7030591" lon="12.1881481"><ele>133.33333333333334</ele><time>2026-03-28T15:46:09.328Z</time></trkpt><trkpt lat="42.7029711" lon="12.1881571"><ele>133.5</ele><time>2026-03-28T15:46:10.327Z</time></trkpt><trkpt lat="42.7028842" lon="12.1881679"><ele>133.66666666666666</ele><time>2026-03-28T15:46:11.328Z</time></trkpt><trkpt lat="42.7028092" lon="12.1882004"><ele>133.83333333333331</ele><time>2026-03-28T15:46:12.328Z</time></trkpt><trkpt lat="42.7027407" lon="12.1882648"><ele>134.0</ele><time>2026-03-28T15:46:13.328Z</time></trkpt><trkpt lat="42.702678" lon="12.1883471"><ele>134.8</ele><time>2026-03-28T15:46:14.328Z</time></trkpt><trkpt lat="42.7026235" lon="12.1884461"><ele>135.60000000000002</ele><time>2026-03-28T15:46:15.328Z</time></trkpt><trkpt lat="42.7025815" lon="12.1885562"><ele>136.4</ele><time>2026-03-28T15:46:16.328Z</time></trkpt><trkpt lat="42.7025399" lon="12.1886722"><ele>137.20000000000002</ele><time>2026-03-28T15:46:17.327Z</time></trkpt><trkpt lat="42.7025031" lon="12.1887906"><ele>138.0</ele><time>2026-03-28T15:46:18.328Z</time></trkpt><trkpt lat="42.7024618" lon="12.1889162"><ele>138.8</ele><time>2026-03-28T15:46:19.328Z</time></trkpt><trkpt lat="42.7024275" lon="12.1890386"><ele>139.60000000000002</ele><time>2026-03-28T15:46:20.328Z</time></trkpt><trkpt lat="42.7023912" lon="12.1891578"><ele>140.39999999999998</ele><time>2026-03-28T15:46:21.328Z</time></trkpt><trkpt lat="42.7023538" lon="12.1892839"><ele>141.2</ele><time>2026-03-28T15:46:22.328Z</time></trkpt><trkpt lat="42.7023128" lon="12.189412"><ele>142.0</ele><time>2026-03-28T15:46:23.328Z</time></trkpt><trkpt lat="42.7022766" lon="12.1895392"><ele>142.0</ele><time>2026-03-28T15:46:24.328Z</time></trkpt><trkpt lat="42.7022413" lon="12.1896646"><ele>142.0</ele><time>2026-03-28T15:46:25.328Z</time></trkpt><trkpt lat="42.7022105" lon="12.1897865"><ele>142.0</ele><time>2026-03-28T15:46:26.328Z</time></trkpt><trkpt lat="42.7021769" lon="12.1899152"><ele>142.0</ele><time>2026-03-28T15:46:27.328Z</time></trkpt><trkpt lat="42.702142" lon="12.1900529"><ele>142.0</ele><time>2026-03-28T15:46:28.327Z</time></trkpt><trkpt lat="42.7021045" lon="12.1901948"><ele>142.0</ele><time>2026-03-28T15:46:29.328Z</time></trkpt><trkpt lat="42.7020681" lon="12.1903327"><ele>142.0</ele><time>2026-03-28T15:46:30.328Z</time></trkpt><trkpt lat="42.7020259" lon="12.1904653"><ele>142.0</ele><time>2026-03-28T15:46:31.328Z</time></trkpt><trkpt lat="42.7019837" lon="12.1905878"><ele>142.0</ele><time>2026-03-28T15:46:32.328Z</time></trkpt><trkpt lat="42.7019305" lon="12.1907057"><ele>142.0</ele><time>2026-03-28T15:46:33.328Z</time></trkpt><trkpt lat="42.7018722" lon="12.1908238"><ele>140.79999999999998</ele><time>2026-03-28T15:46:34.328Z</time></trkpt><trkpt lat="42.7018083" lon="12.1909369"><ele>139.6</ele><time>2026-03-28T15:46:35.328Z</time></trkpt><trkpt lat="42.7017365" lon="12.1910442"><ele>138.39999999999998</ele><time>2026-03-28T15:46:36.327Z</time></trkpt><trkpt lat="42.7016554" lon="12.1911454"><ele>137.2</ele><time>2026-03-28T15:46:37.328Z</time></trkpt><trkpt lat="42.7015638" lon="12.1912335"><ele>136.0</ele><time>2026-03-28T15:46:38.328Z</time></trkpt><trkpt lat="42.7014743" lon="12.1913076"><ele>136.0</ele><time>2026-03-28T15:46:39.328Z</time></trkpt><trkpt lat="42.7013827" lon="12.1913884"><ele>136.0</ele><time>2026-03-28T15:46:40.328Z</time></trkpt><trkpt lat="42.7012903" lon="12.19147"><ele>136.0</ele><time>2026-03-28T15:46:41.328Z</time></trkpt><trkpt lat="42.7012018" lon="12.191554"><ele>136.0</ele><time>2026-03-28T15:46:42.327Z</time></trkpt><trkpt lat="42.7011192" lon="12.1916235"><ele>136.0</ele><time>2026-03-28T15:46:43.328Z</time></trkpt><trkpt lat="42.7010419" lon="12.1917003"><ele>134.2</ele><time>2026-03-28T15:46:44.328Z</time></trkpt><trkpt lat="42.7009755" lon="12.1917804"><ele>132.39999999999998</ele><time>2026-03-28T15:46:45.328Z</time></trkpt><trkpt lat="42.7009223" lon="12.1918812"><ele>130.6</ele><time>2026-03-28T15:46:46.327Z</time></trkpt><trkpt lat="42.7008792" lon="12.1919972"><ele>128.79999999999998</ele><time>2026-03-28T15:46:47.328Z</time></trkpt><trkpt lat="42.7008446" lon="12.1921386"><ele>127.0</ele><time>2026-03-28T15:46:48.328Z</time></trkpt><trkpt lat="42.7008094" lon="12.1922879"><ele>127.0</ele><time>2026-03-28T15:46:49.328Z</time></trkpt><trkpt lat="42.7007784" lon="12.1924445"><ele>127.0</ele><time>2026-03-28T15:46:50.328Z</time></trkpt><trkpt lat="42.7007446" lon="12.1925971"><ele>127.0</ele><time>2026-03-28T15:46:51.327Z</time></trkpt><trkpt lat="42.7007138" lon="12.1927482"><ele>127.0</ele><time>2026-03-28T15:46:52.328Z</time></trkpt><trkpt lat="42.7006816" lon="12.1929111"><ele>127.0</ele><time>2026-03-28T15:46:53.328Z</time></trkpt><trkpt lat="42.7006477" lon="12.1930673"><ele>127.0</ele><time>2026-03-28T15:46:54.327Z</time></trkpt><trkpt lat="42.7006199" lon="12.193235"><ele>127.0</ele><time>2026-03-28T15:46:55.327Z</time></trkpt><trkpt lat="42.7005877" lon="12.1934036"><ele>127.0</ele><time>2026-03-28T15:46:56.327Z</time></trkpt><trkpt lat="42.7005475" lon="12.1935664"><ele>126.5</ele><time>2026-03-28T15:46:57.328Z</time></trkpt><trkpt lat="42.7005173" lon="12.1937144"><ele>126.0</ele><time>2026-03-28T15:46:58.328Z</time></trkpt><trkpt lat="42.7004777" lon="12.1938805"><ele>125.5</ele><time>2026-03-28T15:46:59.328Z</time></trkpt><trkpt lat="42.7004491" lon="12.1940387"><ele>125.0</ele><time>2026-03-28T15:47:00.327Z</time></trkpt><trkpt lat="42.7004185" lon="12.1941976"><ele>125.0</ele><time>2026-03-28T15:47:01.327Z</time></trkpt><trkpt lat="42.7004005" lon="12.1943559"><ele>125.0</ele><time>2026-03-28T15:47:02.328Z</time></trkpt><trkpt lat="42.7003955" lon="12.1945122"><ele>125.0</ele><time>2026-03-28T15:47:03.328Z</time></trkpt><trkpt lat="42.7003956" lon="12.1946707"><ele>125.0</ele><time>2026-03-28T15:47:04.327Z</time></trkpt><trkpt lat="42.700407" lon="12.1948285"><ele>125.25</ele><time>2026-03-28T15:47:05.328Z</time></trkpt><trkpt lat="42.7004138" lon="12.1949831"><ele>125.5</ele><time>2026-03-28T15:47:06.328Z</time></trkpt><trkpt lat="42.7004262" lon="12.1951629"><ele>125.75</ele><time>2026-03-28T15:47:07.328Z</time></trkpt><trkpt lat="42.7004404" lon="12.1953388"><ele>126.0</ele><time>2026-03-28T15:47:08.328Z</time></trkpt><trkpt lat="42.7004508" lon="12.1955148"><ele>125.5</ele><time>2026-03-28T15:47:09.327Z</time></trkpt><trkpt lat="42.7004451" lon="12.1956754"><ele>125.0</ele><time>2026-03-28T15:47:10.327Z</time></trkpt><trkpt lat="42.7004332" lon="12.1958478"><ele>124.5</ele><time>2026-03-28T15:47:11.328Z</time></trkpt><trkpt lat="42.7004286" lon="12.1960169"><ele>124.0</ele><time>2026-03-28T15:47:12.328Z</time></trkpt><trkpt lat="42.7004206" lon="12.1961835"><ele>124.0</ele><time>2026-03-28T15:47:13.328Z</time></trkpt><trkpt lat="42.7004178" lon="12.1963545"><ele>124.0</ele><time>2026-03-28T15:47:14.327Z</time></trkpt><trkpt lat="42.7003967" lon="12.1965121"><ele>124.0</ele><time>2026-03-28T15:47:15.328Z</time></trkpt><trkpt lat="42.7003584" lon="12.1966717"><ele>124.0</ele><time>2026-03-28T15:47:16.327Z</time></trkpt><trkpt lat="42.7003329" lon="12.1968395"><ele>124.25</ele><time>2026-03-28T15:47:17.327Z</time></trkpt><trkpt lat="42.7002973" lon="12.1970101"><ele>124.5</ele><time>2026-03-28T15:47:18.328Z</time></trkpt><trkpt lat="42.700261" lon="12.197191"><ele>124.75</ele><time>2026-03-28T15:47:19.328Z</time></trkpt><trkpt lat="42.7002104" lon="12.1973678"><ele>125.0</ele><time>2026-03-28T15:47:20.328Z</time></trkpt><trkpt lat="42.700164" lon="12.1975438"><ele>122.5</ele><time>2026-03-28T15:47:21.328Z</time></trkpt><trkpt lat="42.7001181" lon="12.1977157"><ele>120.0</ele><time>2026-03-28T15:47:22.328Z</time></trkpt><trkpt lat="42.7000669" lon="12.1978748"><ele>117.5</ele><time>2026-03-28T15:47:23.328Z</time></trkpt><trkpt lat="42.7000231" lon="12.1980353"><ele>115.0</ele><time>2026-03-28T15:47:24.327Z</time></trkpt><trkpt lat="42.6999711" lon="12.198175"><ele>115.0</ele><time>2026-03-28T15:47:25.328Z</time></trkpt><trkpt lat="42.6999199" lon="12.1983224"><ele>115.0</ele><time>2026-03-28T15:47:26.328Z</time></trkpt><trkpt lat="42.6998769" lon="12.1984665"><ele>115.0</ele><time>2026-03-28T15:47:27.328Z</time></trkpt><trkpt lat="42.6998357" lon="12.1986068"><ele>115.0</ele><time>2026-03-28T15:47:28.328Z</time></trkpt><trkpt lat="42.6998055" lon="12.1987473"><ele>115.0</ele><time>2026-03-28T15:47:29.327Z</time></trkpt><trkpt lat="42.699789" lon="12.1988992"><ele>115.0</ele><time>2026-03-28T15:47:30.328Z</time></trkpt><trkpt lat="42.6997814" lon="12.19904"><ele>115.0</ele><time>2026-03-28T15:47:31.328Z</time></trkpt><trkpt lat="42.6997849" lon="12.1992015"><ele>115.0</ele><time>2026-03-28T15:47:32.327Z</time></trkpt><trkpt lat="42.6997921" lon="12.1993563"><ele>115.0</ele><time>2026-03-28T15:47:33.328Z</time></trkpt><trkpt lat="42.6998044" lon="12.1994996"><ele>115.2</ele><time>2026-03-28T15:47:34.328Z</time></trkpt><trkpt lat="42.6998366" lon="12.1996365"><ele>115.4</ele><time>2026-03-28T15:47:35.328Z</time></trkpt><trkpt lat="42.6998751" lon="12.1997675"><ele>115.6</ele><time>2026-03-28T15:47:36.327Z</time></trkpt><trkpt lat="42.6999195" lon="12.1998923"><ele>115.8</ele><time>2026-03-28T15:47:37.328Z</time></trkpt><trkpt lat="42.6999606" lon="12.2000054"><ele>116.0</ele><time>2026-03-28T15:47:38.328Z</time></trkpt><trkpt lat="42.7000103" lon="12.200114"><ele>113.8</ele><time>2026-03-28T15:47:39.327Z</time></trkpt><trkpt lat="42.7000561" lon="12.2002333"><ele>111.6</ele><time>2026-03-28T15:47:40.327Z</time></trkpt><trkpt lat="42.7000904" lon="12.2003618"><ele>109.4</ele><time>2026-03-28T15:47:41.328Z</time></trkpt><trkpt lat="42.7001178" lon="12.2005088"><ele>107.2</ele><time>2026-03-28T15:47:42.327Z</time></trkpt><trkpt lat="42.7001335" lon="12.2006576"><ele>105.0</ele><time>2026-03-28T15:47:43.328Z</time></trkpt><trkpt lat="42.7001496" lon="12.2008206"><ele>104.0</ele><time>2026-03-28T15:47:44.328Z</time></trkpt><trkpt lat="42.7001705" lon="12.2009917"><ele>103.0</ele><time>2026-03-28T15:47:45.328Z</time></trkpt><trkpt lat="42.7001936" lon="12.2011791"><ele>102.0</ele><time>2026-03-28T15:47:46.328Z</time></trkpt><trkpt lat="42.7002193" lon="12.2013732"><ele>101.0</ele><time>2026-03-28T15:47:47.328Z</time></trkpt><trkpt lat="42.7002397" lon="12.2015687"><ele>104.0</ele><time>2026-03-28T15:47:48.328Z</time></trkpt><trkpt lat="42.7002644" lon="12.201764"><ele>107.0</ele><time>2026-03-28T15:47:49.328Z</time></trkpt><trkpt lat="42.7002868" lon="12.2019629"><ele>110.0</ele><time>2026-03-28T15:47:50.328Z</time></trkpt><trkpt lat="42.7002999" lon="12.2021592"><ele>113.0</ele><time>2026-03-28T15:47:51.328Z</time></trkpt><trkpt lat="42.700318" lon="12.2023604"><ele>113.0</ele><time>2026-03-28T15:47:52.327Z</time></trkpt><trkpt lat="42.700342" lon="12.2025691"><ele>113.0</ele><time>2026-03-28T15:47:53.328Z</time></trkpt><trkpt lat="42.7003662" lon="12.2027784"><ele>113.0</ele><time>2026-03-28T15:47:54.328Z</time></trkpt><trkpt lat="42.7003891" lon="12.2029838"><ele>110.66666666666666</ele><time>2026-03-28T15:47:55.328Z</time></trkpt><trkpt lat="42.7004107" lon="12.2031931"><ele>108.33333333333334</ele><time>2026-03-28T15:47:56.328Z</time></trkpt><trkpt lat="42.7004349" lon="12.2034046"><ele>106.0</ele><time>2026-03-28T15:47:57.327Z</time></trkpt><trkpt lat="42.7004569" lon="12.2036171"><ele>106.0</ele><time>2026-03-28T15:47:58.328Z</time></trkpt><trkpt lat="42.7004786" lon="12.2038277"><ele>106.0</ele><time>2026-03-28T15:47:59.328Z</time></trkpt><trkpt lat="42.7005044" lon="12.2040353"><ele>106.0</ele><time>2026-03-28T15:48:00.327Z</time></trkpt><trkpt lat="42.7005244" lon="12.204248"><ele>105.0</ele><time>2026-03-28T15:48:01.328Z</time></trkpt><trkpt lat="42.7005389" lon="12.2044596"><ele>104.0</ele><time>2026-03-28T15:48:02.327Z</time></trkpt><trkpt lat="42.7005682" lon="12.2046673"><ele>103.0</ele><time>2026-03-28T15:48:03.328Z</time></trkpt><trkpt lat="42.7005898" lon="12.204859"><ele>103.0</ele><time>2026-03-28T15:48:04.327Z</time></trkpt><trkpt lat="42.7006144" lon="12.2050576"><ele>103.0</ele><time>2026-03-28T15:48:05.328Z</time></trkpt><trkpt lat="42.7006384" lon="12.2052592"><ele>103.0</ele><time>2026-03-28T15:48:06.328Z</time></trkpt><trkpt lat="42.7006609" lon="12.2054546"><ele>103.0</ele><time>2026-03-28T15:48:07.328Z</time></trkpt><trkpt lat="42.7006939" lon="12.2056487"><ele>103.0</ele><time>2026-03-28T15:48:08.328Z</time></trkpt><trkpt lat="42.7007283" lon="12.2058414"><ele>103.0</ele><time>2026-03-28T15:48:09.328Z</time></trkpt><trkpt lat="42.7007648" lon="12.2060294"><ele>103.0</ele><time>2026-03-28T15:48:10.328Z</time></trkpt><trkpt lat="42.7008047" lon="12.2062038"><ele>103.0</ele><time>2026-03-28T15:48:11.327Z</time></trkpt><trkpt lat="42.7008423" lon="12.2063695"><ele>103.4</ele><time>2026-03-28T15:48:12.328Z</time></trkpt><trkpt lat="42.7008767" lon="12.2065251"><ele>103.80000000000001</ele><time>2026-03-28T15:48:13.328Z</time></trkpt><trkpt lat="42.7008987" lon="12.2066606"><ele>104.2</ele><time>2026-03-28T15:48:14.327Z</time></trkpt><trkpt lat="42.7009265" lon="12.2067993"><ele>104.6</ele><time>2026-03-28T15:48:15.327Z</time></trkpt><trkpt lat="42.7009323" lon="12.2069395"><ele>105.0</ele><time>2026-03-28T15:48:16.327Z</time></trkpt><trkpt lat="42.7009034" lon="12.2070787"><ele>105.0</ele><time>2026-03-28T15:48:17.328Z</time></trkpt><trkpt lat="42.7008586" lon="12.2072253"><ele>105.0</ele><time>2026-03-28T15:48:18.328Z</time></trkpt><trkpt lat="42.7008201" lon="12.2073743"><ele>105.0</ele><time>2026-03-28T15:48:19.328Z</time></trkpt><trkpt lat="42.7007757" lon="12.2075201"><ele>105.0</ele><time>2026-03-28T15:48:20.327Z</time></trkpt><trkpt lat="42.7007586" lon="12.2077102"><ele>105.25</ele><time>2026-03-28T15:48:21.328Z</time></trkpt><trkpt lat="42.7007584" lon="12.2079016"><ele>105.5</ele><time>2026-03-28T15:48:22.327Z</time></trkpt><trkpt lat="42.7007444" lon="12.2080882"><ele>105.75</ele><time>2026-03-28T15:48:23.328Z</time></trkpt><trkpt lat="42.7007426" lon="12.2082764"><ele>106.0</ele><time>2026-03-28T15:48:24.328Z</time></trkpt><trkpt lat="42.7007396" lon="12.2084733"><ele>106.0</ele><time>2026-03-28T15:48:25.328Z</time></trkpt><trkpt lat="42.7007466" lon="12.2086807"><ele>106.0</ele><time>2026-03-28T15:48:26.327Z</time></trkpt><trkpt lat="42.7007458" lon="12.2088789"><ele>106.0</ele><time>2026-03-28T15:48:27.328Z</time></trkpt><trkpt lat="42.7007462" lon="12.2090714"><ele>106.0</ele><time>2026-03-28T15:48:28.328Z</time></trkpt><trkpt lat="42.7007698" lon="12.2092566"><ele>106.25</ele><time>2026-03-28T15:48:29.327Z</time></trkpt><trkpt lat="42.7008141" lon="12.2094443"><ele>106.5</ele><time>2026-03-28T15:48:30.328Z</time></trkpt><trkpt lat="42.7008666" lon="12.2096265"><ele>106.75</ele><time>2026-03-28T15:48:31.327Z</time></trkpt><trkpt lat="42.7009126" lon="12.2098208"><ele>107.0</ele><time>2026-03-28T15:48:32.327Z</time></trkpt><trkpt lat="42.7009711" lon="12.2100172"><ele>107.0</ele><time>2026-03-28T15:48:33.327Z</time></trkpt><trkpt lat="42.7010288" lon="12.2102155"><ele>107.0</ele><time>2026-03-28T15:48:34.328Z</time></trkpt><trkpt lat="42.7010853" lon="12.2104055"><ele>107.0</ele><time>2026-03-28T15:48:35.328Z</time></trkpt><trkpt lat="42.7011411" lon="12.2106045"><ele>107.25</ele><time>2026-03-28T15:48:36.328Z</time></trkpt><trkpt lat="42.7011926" lon="12.2107981"><ele>107.5</ele><time>2026-03-28T15:48:37.328Z</time></trkpt><trkpt lat="42.7012371" lon="12.210976"><ele>107.75</ele><time>2026-03-28T15:48:38.328Z</time></trkpt><trkpt lat="42.7012616" lon="12.2111391"><ele>108.0</ele><time>2026-03-28T15:48:39.328Z</time></trkpt><trkpt lat="42.7012829" lon="12.211298"><ele>108.0</ele><time>2026-03-28T15:48:40.327Z</time></trkpt><trkpt lat="42.7013047" lon="12.2114519"><ele>108.0</ele><time>2026-03-28T15:48:41.328Z</time></trkpt><trkpt lat="42.7013215" lon="12.2116084"><ele>108.0</ele><time>2026-03-28T15:48:42.327Z</time></trkpt><trkpt lat="42.701338" lon="12.2117755"><ele>108.0</ele><time>2026-03-28T15:48:43.328Z</time></trkpt><trkpt lat="42.7013556" lon="12.211944"><ele>109.0</ele><time>2026-03-28T15:48:44.328Z</time></trkpt><trkpt lat="42.7013774" lon="12.2121152"><ele>110.0</ele><time>2026-03-28T15:48:45.328Z</time></trkpt><trkpt lat="42.7013963" lon="12.2122914"><ele>111.0</ele><time>2026-03-28T15:48:46.328Z</time></trkpt><trkpt lat="42.7014158" lon="12.2124705"><ele>112.0</ele><time>2026-03-28T15:48:47.328Z</time></trkpt><trkpt lat="42.7014311" lon="12.2126475"><ele>112.0</ele><time>2026-03-28T15:48:48.327Z</time></trkpt><trkpt lat="42.7014478" lon="12.2128304"><ele>112.0</ele><time>2026-03-28T15:48:49.328Z</time></trkpt><trkpt lat="42.7014607" lon="12.2130199"><ele>112.0</ele><time>2026-03-28T15:48:50.327Z</time></trkpt><trkpt lat="42.7014698" lon="12.2132078"><ele>112.0</ele><time>2026-03-28T15:48:51.327Z</time></trkpt><trkpt lat="42.7014867" lon="12.2133925"><ele>111.75</ele><time>2026-03-28T15:48:52.328Z</time></trkpt><trkpt lat="42.7015055" lon="12.2135775"><ele>111.5</ele><time>2026-03-28T15:48:53.328Z</time></trkpt><trkpt lat="42.7015215" lon="12.2137634"><ele>111.25</ele><time>2026-03-28T15:48:54.328Z</time></trkpt><trkpt lat="42.7015421" lon="12.2139465"><ele>111.0</ele><time>2026-03-28T15:48:55.328Z</time></trkpt><trkpt lat="42.7015661" lon="12.2141327"><ele>111.0</ele><time>2026-03-28T15:48:56.327Z</time></trkpt><trkpt lat="42.7015788" lon="12.2143128"><ele>111.0</ele><time>2026-03-28T15:48:57.328Z</time></trkpt><trkpt lat="42.7015998" lon="12.2144927"><ele>111.0</ele><time>2026-03-28T15:48:58.328Z</time></trkpt><trkpt lat="42.7016194" lon="12.2146575"><ele>111.0</ele><time>2026-03-28T15:48:59.328Z</time></trkpt><trkpt lat="42.7016316" lon="12.2148095"><ele>111.0</ele><time>2026-03-28T15:49:00.327Z</time></trkpt><trkpt lat="42.7016444" lon="12.2149482"><ele>111.0</ele><time>2026-03-28T15:49:01.328Z</time></trkpt><trkpt lat="42.701659" lon="12.215087"><ele>111.0</ele><time>2026-03-28T15:49:02.328Z</time></trkpt><trkpt lat="42.7016733" lon="12.2152254"><ele>111.0</ele><time>2026-03-28T15:49:03.328Z</time></trkpt><trkpt lat="42.7016883" lon="12.2153648"><ele>111.0</ele><time>2026-03-28T15:49:04.328Z</time></trkpt><trkpt lat="42.7016996" lon="12.2155104"><ele>110.5</ele><time>2026-03-28T15:49:05.328Z</time></trkpt><trkpt lat="42.7017129" lon="12.2156599"><ele>110.0</ele><time>2026-03-28T15:49:06.327Z</time></trkpt><trkpt lat="42.7017202" lon="12.2158133"><ele>109.5</ele><time>2026-03-28T15:49:07.328Z</time></trkpt><trkpt lat="42.7017332" lon="12.2159726"><ele>109.0</ele><time>2026-03-28T15:49:08.328Z</time></trkpt><trkpt lat="42.7017476" lon="12.2161336"><ele>109.0</ele><time>2026-03-28T15:49:09.328Z</time></trkpt><trkpt lat="42.701767" lon="12.2163009"><ele>109.0</ele><time>2026-03-28T15:49:10.328Z</time></trkpt><trkpt lat="42.7017832" lon="12.2164702"><ele>109.0</ele><time>2026-03-28T15:49:11.328Z</time></trkpt><trkpt lat="42.7018039" lon="12.2166392"><ele>109.0</ele><time>2026-03-28T15:49:12.328Z</time></trkpt><trkpt lat="42.7018187" lon="12.2168149"><ele>108.75</ele><time>2026-03-28T15:49:13.328Z</time></trkpt><trkpt lat="42.7018327" lon="12.2169924"><ele>108.5</ele><time>2026-03-28T15:49:14.327Z</time></trkpt><trkpt lat="42.7018481" lon="12.2171749"><ele>108.25</ele><time>2026-03-28T15:49:15.327Z</time></trkpt><trkpt lat="42.7018692" lon="12.2173677"><ele>108.0</ele><time>2026-03-28T15:49:16.328Z</time></trkpt><trkpt lat="42.7018871" lon="12.2175747"><ele>107.75</ele><time>2026-03-28T15:49:17.328Z</time></trkpt><trkpt lat="42.7019044" lon="12.2177677"><ele>107.5</ele><time>2026-03-28T15:49:18.328Z</time></trkpt><trkpt lat="42.7019203" lon="12.217959"><ele>107.25</ele><time>2026-03-28T15:49:19.328Z</time></trkpt><trkpt lat="42.7019374" lon="12.2181532"><ele>107.0</ele><time>2026-03-28T15:49:20.327Z</time></trkpt><trkpt lat="42.7019556" lon="12.2183478"><ele>108.25</ele><time>2026-03-28T15:49:21.328Z</time></trkpt><trkpt lat="42.7019723" lon="12.2185461"><ele>109.5</ele><time>2026-03-28T15:49:22.328Z</time></trkpt><trkpt lat="42.7019877" lon="12.2187417"><ele>110.75</ele><time>2026-03-28T15:49:23.327Z</time></trkpt><trkpt lat="42.7020085" lon="12.2189455"><ele>112.0</ele><time>2026-03-28T15:49:24.328Z</time></trkpt><trkpt lat="42.7020291" lon="12.2191533"><ele>113.0</ele><time>2026-03-28T15:49:25.328Z</time></trkpt><trkpt lat="42.7020478" lon="12.2193606"><ele>114.0</ele><time>2026-03-28T15:49:26.328Z</time></trkpt><trkpt lat="42.7020683" lon="12.2195703"><ele>115.0</ele><time>2026-03-28T15:49:27.327Z</time></trkpt><trkpt lat="42.7020868" lon="12.2197817"><ele>114.66666666666667</ele><time>2026-03-28T15:49:28.328Z</time></trkpt><trkpt lat="42.7021071" lon="12.219993"><ele>114.33333333333334</ele><time>2026-03-28T15:49:29.328Z</time></trkpt><trkpt lat="42.702129" lon="12.2202063"><ele>114.0</ele><time>2026-03-28T15:49:30.328Z</time></trkpt><trkpt lat="42.7021505" lon="12.2204202"><ele>114.0</ele><time>2026-03-28T15:49:31.328Z</time></trkpt><trkpt lat="42.7021661" lon="12.2206343"><ele>114.0</ele><time>2026-03-28T15:49:32.328Z</time></trkpt><trkpt lat="42.7021835" lon="12.2208434"><ele>114.0</ele><time>2026-03-28T15:49:33.327Z</time></trkpt><trkpt lat="42.702194" lon="12.2210436"><ele>114.25</ele><time>2026-03-28T15:49:34.328Z</time></trkpt><trkpt lat="42.702209" lon="12.2212271"><ele>114.5</ele><time>2026-03-28T15:49:35.328Z</time></trkpt><trkpt lat="42.7022234" lon="12.2214034"><ele>114.75</ele><time>2026-03-28T15:49:36.328Z</time></trkpt><trkpt lat="42.702239" lon="12.2215632"><ele>115.0</ele><time>2026-03-28T15:49:37.328Z</time></trkpt><trkpt lat="42.7022604" lon="12.2217153"><ele>114.5</ele><time>2026-03-28T15:49:38.328Z</time></trkpt><trkpt lat="42.7023004" lon="12.221867"><ele>114.0</ele><time>2026-03-28T15:49:39.328Z</time></trkpt><trkpt lat="42.7023471" lon="12.2220123"><ele>113.5</ele><time>2026-03-28T15:49:40.328Z</time></trkpt><trkpt lat="42.7024029" lon="12.2221608"><ele>113.0</ele><time>2026-03-28T15:49:41.328Z</time></trkpt><trkpt lat="42.7024609" lon="12.2222988"><ele>112.60000000000001</ele><time>2026-03-28T15:49:42.328Z</time></trkpt><trkpt lat="42.7025147" lon="12.2224353"><ele>112.20000000000002</ele><time>2026-03-28T15:49:43.327Z</time></trkpt><trkpt lat="42.7025676" lon="12.2225623"><ele>111.8</ele><time>2026-03-28T15:49:44.328Z</time></trkpt><trkpt lat="42.7026206" lon="12.2226798"><ele>111.4</ele><time>2026-03-28T15:49:45.327Z</time></trkpt><trkpt lat="42.7026723" lon="12.2227888"><ele>111.0</ele><time>2026-03-28T15:49:46.328Z</time></trkpt><trkpt lat="42.7027227" lon="12.2228954"><ele>112.5</ele><time>2026-03-28T15:49:47.328Z</time></trkpt><trkpt lat="42.7027704" lon="12.2229988"><ele>114.0</ele><time>2026-03-28T15:49:48.328Z</time></trkpt><trkpt lat="42.7028027" lon="12.2230975"><ele>115.5</ele><time>2026-03-28T15:49:49.328Z</time></trkpt><trkpt lat="42.7028233" lon="12.2231898"><ele>117.0</ele><time>2026-03-28T15:49:50.327Z</time></trkpt><trkpt lat="42.7028342" lon="12.2232857"><ele>118.5</ele><time>2026-03-28T15:49:51.328Z</time></trkpt><trkpt lat="42.7028369" lon="12.2233883"><ele>120.0</ele><time>2026-03-28T15:49:52.328Z</time></trkpt><trkpt lat="42.7028212" lon="12.2234957"><ele>120.0</ele><time>2026-03-28T15:49:53.327Z</time></trkpt><trkpt lat="42.7028046" lon="12.2236088"><ele>120.0</ele><time>2026-03-28T15:49:54.328Z</time></trkpt><trkpt lat="42.7027847" lon="12.2237263"><ele>120.0</ele><time>2026-03-28T15:49:55.328Z</time></trkpt><trkpt lat="42.7027585" lon="12.2238484"><ele>120.0</ele><time>2026-03-28T15:49:56.328Z</time></trkpt><trkpt lat="42.7027355" lon="12.2239637"><ele>120.0</ele><time>2026-03-28T15:49:57.328Z</time></trkpt><trkpt lat="42.7027216" lon="12.2240767"><ele>120.0</ele><time>2026-03-28T15:49:58.328Z</time></trkpt><trkpt lat="42.7027099" lon="12.2241906"><ele>120.66666666666667</ele><time>2026-03-28T15:49:59.327Z</time></trkpt><trkpt lat="42.7027076" lon="12.2242936"><ele>121.33333333333334</ele><time>2026-03-28T15:50:00.327Z</time></trkpt><trkpt lat="42.7027154" lon="12.2243945"><ele>122.0</ele><time>2026-03-28T15:50:01.328Z</time></trkpt><trkpt lat="42.7027331" lon="12.2245015"><ele>122.66666666666667</ele><time>2026-03-28T15:50:02.328Z</time></trkpt><trkpt lat="42.702758" lon="12.2245882"><ele>123.33333333333334</ele><time>2026-03-28T15:50:03.328Z</time></trkpt><trkpt lat="42.7027848" lon="12.224704"><ele>124.0</ele><time>2026-03-28T15:50:05.328Z</time></trkpt><trkpt lat="42.7027319" lon="12.2248179"><ele>123.6</ele><time>2026-03-28T15:50:08.328Z</time></trkpt><trkpt lat="42.7026917" lon="12.2249514"><ele>123.2</ele><time>2026-03-28T15:50:10.327Z</time></trkpt><trkpt lat="42.7027228" lon="12.2251277"><ele>122.79999999999998</ele><time>2026-03-28T15:50:12.327Z</time></trkpt><trkpt lat="42.7027668" lon="12.2252334"><ele>122.39999999999999</ele><time>2026-03-28T15:50:13.328Z</time></trkpt><trkpt lat="42.7028147" lon="12.2253414"><ele>122.0</ele><time>2026-03-28T15:50:14.328Z</time></trkpt><trkpt lat="42.7028706" lon="12.2254494"><ele>122.0</ele><time>2026-03-28T15:50:15.328Z</time></trkpt><trkpt lat="42.7029236" lon="12.2255483"><ele>121.99999999999999</ele><time>2026-03-28T15:50:16.328Z</time></trkpt><trkpt lat="42.7029769" lon="12.2256491"><ele>121.99999999999999</ele><time>2026-03-28T15:50:17.328Z</time></trkpt><trkpt lat="42.7030342" lon="12.2257467"><ele>122.0</ele><time>2026-03-28T15:50:18.328Z</time></trkpt><trkpt lat="42.7030923" lon="12.225844"><ele>122.0</ele><time>2026-03-28T15:50:19.328Z</time></trkpt><trkpt lat="42.7031422" lon="12.2259401"><ele>120.99999999999999</ele><time>2026-03-28T15:50:20.328Z</time></trkpt><trkpt lat="42.7031829" lon="12.2260303"><ele>120.0</ele><time>2026-03-28T15:50:21.328Z</time></trkpt><trkpt lat="42.7032095" lon="12.2261275"><ele>118.99999999999999</ele><time>2026-03-28T15:50:22.328Z</time></trkpt><trkpt lat="42.7032278" lon="12.22623"><ele>117.99999999999999</ele><time>2026-03-28T15:50:23.327Z</time></trkpt><trkpt lat="42.7032224" lon="12.2263306"><ele>117.0</ele><time>2026-03-28T15:50:24.327Z</time></trkpt><trkpt lat="42.7032081" lon="12.2264217"><ele>115.99999999999999</ele><time>2026-03-28T15:50:25.328Z</time></trkpt><trkpt lat="42.7031803" lon="12.2265079"><ele>114.99999999999999</ele><time>2026-03-28T15:50:26.327Z</time></trkpt><trkpt lat="42.7031419" lon="12.2265843"><ele>114.57142857142856</ele><time>2026-03-28T15:50:27.328Z</time></trkpt><trkpt lat="42.7030975" lon="12.2266606"><ele>114.14285714285714</ele><time>2026-03-28T15:50:28.328Z</time></trkpt><trkpt lat="42.7030705" lon="12.226745"><ele>113.71428571428571</ele><time>2026-03-28T15:50:29.328Z</time></trkpt><trkpt lat="42.7030511" lon="12.2268316"><ele>113.28571428571428</ele><time>2026-03-28T15:50:30.328Z</time></trkpt><trkpt lat="42.7030542" lon="12.2269279"><ele>112.85714285714286</ele><time>2026-03-28T15:50:31.328Z</time></trkpt><trkpt lat="42.7030555" lon="12.2270252"><ele>112.42857142857143</ele><time>2026-03-28T15:50:32.327Z</time></trkpt><trkpt lat="42.703077" lon="12.2271116"><ele>112.0</ele><time>2026-03-28T15:50:33.328Z</time></trkpt><trkpt lat="42.7030961" lon="12.2272029"><ele>112.0</ele><time>2026-03-28T15:50:34.328Z</time></trkpt><trkpt lat="42.7031115" lon="12.2272982"><ele>112.0</ele><time>2026-03-28T15:50:35.327Z</time></trkpt><trkpt lat="42.7031265" lon="12.2273909"><ele>112.0</ele><time>2026-03-28T15:50:36.328Z</time></trkpt><trkpt lat="42.7031534" lon="12.2274807"><ele>112.0</ele><time>2026-03-28T15:50:37.328Z</time></trkpt><trkpt lat="42.7031819" lon="12.2275659"><ele>112.0</ele><time>2026-03-28T15:50:38.327Z</time></trkpt><trkpt lat="42.7032176" lon="12.2276506"><ele>112.0</ele><time>2026-03-28T15:50:39.328Z</time></trkpt><trkpt lat="42.7032484" lon="12.2277292"><ele>112.0</ele><time>2026-03-28T15:50:40.328Z</time></trkpt><trkpt lat="42.7032793" lon="12.2278097"><ele>111.39999999999999</ele><time>2026-03-28T15:50:41.328Z</time></trkpt><trkpt lat="42.7033086" lon="12.2278971"><ele>110.79999999999998</ele><time>2026-03-28T15:50:42.328Z</time></trkpt><trkpt lat="42.7033164" lon="12.2279872"><ele>110.2</ele><time>2026-03-28T15:50:43.328Z</time></trkpt><trkpt lat="42.7033017" lon="12.2280713"><ele>109.6</ele><time>2026-03-28T15:50:44.328Z</time></trkpt><trkpt lat="42.7032171" lon="12.2281862"><ele>109.0</ele><time>2026-03-28T15:50:46.328Z</time></trkpt><trkpt lat="42.70309" lon="12.2282214"><ele>109.00000000000001</ele><time>2026-03-28T15:50:48.328Z</time></trkpt><trkpt lat="42.7030152" lon="12.2282046"><ele>109.0</ele><time>2026-03-28T15:50:49.328Z</time></trkpt><trkpt lat="42.7029338" lon="12.2281797"><ele>109.0</ele><time>2026-03-28T15:50:50.328Z</time></trkpt><trkpt lat="42.7028578" lon="12.2281551"><ele>109.0</ele><time>2026-03-28T15:50:51.328Z</time></trkpt><trkpt lat="42.7027802" lon="12.2281316"><ele>109.00000000000001</ele><time>2026-03-28T15:50:52.328Z</time></trkpt><trkpt lat="42.7027104" lon="12.2281123"><ele>109.0</ele><time>2026-03-28T15:50:53.328Z</time></trkpt><trkpt lat="42.7025947" lon="12.2280918"><ele>107.00000000000001</ele><time>2026-03-28T15:50:55.328Z</time></trkpt><trkpt lat="42.7024624" lon="12.2280557"><ele>105.0</ele><time>2026-03-28T15:50:57.327Z</time></trkpt><trkpt lat="42.7023885" lon="12.228036"><ele>103.0</ele><time>2026-03-28T15:50:58.328Z</time></trkpt><trkpt lat="42.7023117" lon="12.2280202"><ele>101.0</ele><time>2026-03-28T15:50:59.328Z</time></trkpt><trkpt lat="42.7022367" lon="12.2279995"><ele>99.00000000000001</ele><time>2026-03-28T15:51:00.328Z</time></trkpt><trkpt lat="42.7021601" lon="12.228"><ele>97.0</ele><time>2026-03-28T15:51:01.328Z</time></trkpt><trkpt lat="42.7020829" lon="12.2280254"><ele>97.00000000000001</ele><time>2026-03-28T15:51:02.328Z</time></trkpt><trkpt lat="42.7020101" lon="12.2280604"><ele>97.0</ele><time>2026-03-28T15:51:03.328Z</time></trkpt><trkpt lat="42.7019271" lon="12.2281066"><ele>97.0</ele><time>2026-03-28T15:51:04.328Z</time></trkpt><trkpt lat="42.7018479" lon="12.2281489"><ele>97.0</ele><time>2026-03-28T15:51:05.328Z</time></trkpt><trkpt lat="42.7017679" lon="12.228198"><ele>97.00000000000001</ele><time>2026-03-28T15:51:06.328Z</time></trkpt><trkpt lat="42.701684" lon="12.2282487"><ele>97.0</ele><time>2026-03-28T15:51:07.328Z</time></trkpt><trkpt lat="42.7016006" lon="12.2282951"><ele>98.33333333333334</ele><time>2026-03-28T15:51:08.327Z</time></trkpt><trkpt lat="42.7015128" lon="12.2283464"><ele>99.66666666666667</ele><time>2026-03-28T15:51:09.328Z</time></trkpt><trkpt lat="42.7014295" lon="12.228395"><ele>101.0</ele><time>2026-03-28T15:51:10.328Z</time></trkpt><trkpt lat="42.701348" lon="12.2284461"><ele>102.33333333333334</ele><time>2026-03-28T15:51:11.328Z</time></trkpt><trkpt lat="42.7012783" lon="12.2284927"><ele>103.66666666666667</ele><time>2026-03-28T15:51:12.328Z</time></trkpt><trkpt lat="42.7012084" lon="12.2285365"><ele>105.0</ele><time>2026-03-28T15:51:13.328Z</time></trkpt><trkpt lat="42.7011331" lon="12.2285768"><ele>105.8</ele><time>2026-03-28T15:51:14.328Z</time></trkpt><trkpt lat="42.701049" lon="12.2286128"><ele>106.6</ele><time>2026-03-28T15:51:15.328Z</time></trkpt><trkpt lat="42.7009578" lon="12.2286502"><ele>107.4</ele><time>2026-03-28T15:51:16.328Z</time></trkpt><trkpt lat="42.7008691" lon="12.2286883"><ele>108.2</ele><time>2026-03-28T15:51:17.328Z</time></trkpt><trkpt lat="42.7007867" lon="12.2287222"><ele>109.0</ele><time>2026-03-28T15:51:18.327Z</time></trkpt><trkpt lat="42.7006996" lon="12.2287502"><ele>109.0</ele><time>2026-03-28T15:51:19.327Z</time></trkpt><trkpt lat="42.7006124" lon="12.2287755"><ele>109.0</ele><time>2026-03-28T15:51:20.328Z</time></trkpt><trkpt lat="42.7005277" lon="12.2287988"><ele>109.0</ele><time>2026-03-28T15:51:21.327Z</time></trkpt><trkpt lat="42.7004369" lon="12.2288266"><ele>109.0</ele><time>2026-03-28T15:51:22.328Z</time></trkpt><trkpt lat="42.7003414" lon="12.2288562"><ele>109.0</ele><time>2026-03-28T15:51:23.328Z</time></trkpt><trkpt lat="42.7002506" lon="12.2288905"><ele>109.33333333333334</ele><time>2026-03-28T15:51:24.328Z</time></trkpt><trkpt lat="42.7001669" lon="12.2289167"><ele>109.66666666666667</ele><time>2026-03-28T15:51:25.328Z</time></trkpt><trkpt lat="42.7000804" lon="12.2289461"><ele>110.0</ele><time>2026-03-28T15:51:26.327Z</time></trkpt><trkpt lat="42.6999985" lon="12.2289712"><ele>110.33333333333334</ele><time>2026-03-28T15:51:27.328Z</time></trkpt><trkpt lat="42.6999209" lon="12.229004"><ele>110.66666666666667</ele><time>2026-03-28T15:51:28.328Z</time></trkpt><trkpt lat="42.6998455" lon="12.2290318"><ele>111.0</ele><time>2026-03-28T15:51:29.328Z</time></trkpt><trkpt lat="42.6997734" lon="12.2290547"><ele>111.6</ele><time>2026-03-28T15:51:30.328Z</time></trkpt><trkpt lat="42.6997032" lon="12.2290827"><ele>112.19999999999999</ele><time>2026-03-28T15:51:31.328Z</time></trkpt><trkpt lat="42.6996399" lon="12.2291061"><ele>112.80000000000001</ele><time>2026-03-28T15:51:32.328Z</time></trkpt><trkpt lat="42.6995407" lon="12.2290938"><ele>113.4</ele><time>2026-03-28T15:51:34.328Z</time></trkpt><trkpt lat="42.699453" lon="12.2290177"><ele>114.0</ele><time>2026-03-28T15:51:36.327Z</time></trkpt><trkpt lat="42.6993814" lon="12.2288965"><ele>117.0</ele><time>2026-03-28T15:51:38.328Z</time></trkpt><trkpt lat="42.6993165" lon="12.2287679"><ele>120.0</ele><time>2026-03-28T15:51:40.328Z</time></trkpt><trkpt lat="42.699251" lon="12.2286287"><ele>123.0</ele><time>2026-03-28T15:51:42.328Z</time></trkpt><trkpt lat="42.6992123" lon="12.2285509"><ele>126.0</ele><time>2026-03-28T15:51:43.327Z</time></trkpt><trkpt lat="42.699175" lon="12.2284462"><ele>129.0</ele><time>2026-03-28T15:51:44.328Z</time></trkpt><trkpt lat="42.6991389" lon="12.2283531"><ele>129.0</ele><time>2026-03-28T15:51:45.328Z</time></trkpt><trkpt lat="42.6990984" lon="12.2282604"><ele>129.0</ele><time>2026-03-28T15:51:46.328Z</time></trkpt><trkpt lat="42.6990665" lon="12.2281767"><ele>129.0</ele><time>2026-03-28T15:51:47.327Z</time></trkpt><trkpt lat="42.6990487" lon="12.2280838"><ele>129.0</ele><time>2026-03-28T15:51:48.328Z</time></trkpt><trkpt lat="42.6990263" lon="12.22798"><ele>129.0</ele><time>2026-03-28T15:51:49.327Z</time></trkpt><trkpt lat="42.6990058" lon="12.227895"><ele>129.0</ele><time>2026-03-28T15:51:50.328Z</time></trkpt><trkpt lat="42.6989814" lon="12.2277635"><ele>129.0</ele><time>2026-03-28T15:51:52.328Z</time></trkpt><trkpt lat="42.6989499" lon="12.227685"><ele>129.0</ele><time>2026-03-28T15:51:55.328Z</time></trkpt><trkpt lat="42.6989125" lon="12.2277541"><ele>129.0</ele><time>2026-03-28T15:52:18.328Z</time></trkpt><trkpt lat="42.6988946" lon="12.2278949"><ele>129.0</ele><time>2026-03-28T15:52:20.327Z</time></trkpt><trkpt lat="42.6988937" lon="12.2280064"><ele>129.0</ele><time>2026-03-28T15:52:21.328Z</time></trkpt><trkpt lat="42.6988919" lon="12.2281162"><ele>129.0</ele><time>2026-03-28T15:52:22.328Z</time></trkpt><trkpt lat="42.6988963" lon="12.2282428"><ele>129.0</ele><time>2026-03-28T15:52:23.327Z</time></trkpt><trkpt lat="42.6989112" lon="12.2283673"><ele>129.0</ele><time>2026-03-28T15:52:24.327Z</time></trkpt><trkpt lat="42.6989356" lon="12.2284994"><ele>129.0</ele><time>2026-03-28T15:52:25.327Z</time></trkpt><trkpt lat="42.69895" lon="12.2286502"><ele>129.0</ele><time>2026-03-28T15:52:26.328Z</time></trkpt><trkpt lat="42.6989654" lon="12.2288213"><ele>129.0</ele><time>2026-03-28T15:52:27.327Z</time></trkpt><trkpt lat="42.6989813" lon="12.2289965"><ele>130.0</ele><time>2026-03-28T15:52:28.327Z</time></trkpt><trkpt lat="42.6989737" lon="12.2291671"><ele>131.0</ele><time>2026-03-28T15:52:29.327Z</time></trkpt><trkpt lat="42.6989551" lon="12.229316"><ele>132.0</ele><time>2026-03-28T15:52:30.328Z</time></trkpt><trkpt lat="42.6989434" lon="12.2294803"><ele>133.0</ele><time>2026-03-28T15:52:31.328Z</time></trkpt><trkpt lat="42.6989462" lon="12.2296357"><ele>133.0</ele><time>2026-03-28T15:52:32.327Z</time></trkpt><trkpt lat="42.6989648" lon="12.2297868"><ele>133.0</ele><time>2026-03-28T15:52:33.328Z</time></trkpt><trkpt lat="42.6990029" lon="12.2299294"><ele>133.0</ele><time>2026-03-28T15:52:34.328Z</time></trkpt><trkpt lat="42.6990481" lon="12.2300635"><ele>133.0</ele><time>2026-03-28T15:52:35.328Z</time></trkpt><trkpt lat="42.6990971" lon="12.2302093"><ele>134.0</ele><time>2026-03-28T15:52:36.327Z</time></trkpt><trkpt lat="42.6991338" lon="12.2303615"><ele>135.0</ele><time>2026-03-28T15:52:37.327Z</time></trkpt><trkpt lat="42.6991606" lon="12.2305251"><ele>136.0</ele><time>2026-03-28T15:52:38.327Z</time></trkpt><trkpt lat="42.6991874" lon="12.2307003"><ele>137.0</ele><time>2026-03-28T15:52:39.328Z</time></trkpt><trkpt lat="42.6992061" lon="12.2308675"><ele>138.75</ele><time>2026-03-28T15:52:40.328Z</time></trkpt><trkpt lat="42.6992219" lon="12.2310429"><ele>140.5</ele><time>2026-03-28T15:52:41.327Z</time></trkpt><trkpt lat="42.6992376" lon="12.2312182"><ele>142.25</ele><time>2026-03-28T15:52:42.328Z</time></trkpt><trkpt lat="42.6992425" lon="12.2313845"><ele>144.0</ele><time>2026-03-28T15:52:43.328Z</time></trkpt><trkpt lat="42.6992425" lon="12.2315512"><ele>144.0</ele><time>2026-03-28T15:52:44.328Z</time></trkpt><trkpt lat="42.6992236" lon="12.2317152"><ele>144.0</ele><time>2026-03-28T15:52:45.328Z</time></trkpt><trkpt lat="42.6992022" lon="12.2318714"><ele>144.0</ele><time>2026-03-28T15:52:46.328Z</time></trkpt><trkpt lat="42.6991385" lon="12.2320321"><ele>144.0</ele><time>2026-03-28T15:52:47.327Z</time></trkpt><trkpt lat="42.6990678" lon="12.232193"><ele>143.33333333333334</ele><time>2026-03-28T15:52:48.328Z</time></trkpt><trkpt lat="42.6989832" lon="12.2323575"><ele>142.66666666666669</ele><time>2026-03-28T15:52:49.328Z</time></trkpt><trkpt lat="42.6988962" lon="12.2325423"><ele>142.0</ele><time>2026-03-28T15:52:50.327Z</time></trkpt><trkpt lat="42.6987981" lon="12.2327206"><ele>142.0</ele><time>2026-03-28T15:52:51.328Z</time></trkpt><trkpt lat="42.6987044" lon="12.2328936"><ele>142.0</ele><time>2026-03-28T15:52:52.328Z</time></trkpt><trkpt lat="42.6986089" lon="12.2330589"><ele>142.0</ele><time>2026-03-28T15:52:53.327Z</time></trkpt><trkpt lat="42.6985079" lon="12.2332179"><ele>144.5</ele><time>2026-03-28T15:52:54.328Z</time></trkpt><trkpt lat="42.6984056" lon="12.2333672"><ele>147.0</ele><time>2026-03-28T15:52:55.327Z</time></trkpt><trkpt lat="42.6983058" lon="12.2335134"><ele>149.5</ele><time>2026-03-28T15:52:56.328Z</time></trkpt><trkpt lat="42.6982378" lon="12.2336765"><ele>152.0</ele><time>2026-03-28T15:52:57.328Z</time></trkpt><trkpt lat="42.6981876" lon="12.2338635"><ele>149.0</ele><time>2026-03-28T15:52:58.328Z</time></trkpt><trkpt lat="42.6981468" lon="12.2340632"><ele>146.0</ele><time>2026-03-28T15:52:59.328Z</time></trkpt><trkpt lat="42.6981203" lon="12.2342703"><ele>143.0</ele><time>2026-03-28T15:53:00.328Z</time></trkpt><trkpt lat="42.6981025" lon="12.2344873"><ele>143.0</ele><time>2026-03-28T15:53:01.327Z</time></trkpt><trkpt lat="42.6980784" lon="12.2346974"><ele>143.0</ele><time>2026-03-28T15:53:02.327Z</time></trkpt><trkpt lat="42.6980475" lon="12.2349142"><ele>143.0</ele><time>2026-03-28T15:53:03.328Z</time></trkpt><trkpt lat="42.6980177" lon="12.2351281"><ele>140.66666666666666</ele><time>2026-03-28T15:53:04.328Z</time></trkpt><trkpt lat="42.6979941" lon="12.2353465"><ele>138.33333333333334</ele><time>2026-03-28T15:53:05.328Z</time></trkpt><trkpt lat="42.6979684" lon="12.2355776"><ele>136.0</ele><time>2026-03-28T15:53:06.327Z</time></trkpt><trkpt lat="42.6979355" lon="12.2358081"><ele>136.0</ele><time>2026-03-28T15:53:07.328Z</time></trkpt><trkpt lat="42.6979126" lon="12.2360412"><ele>136.0</ele><time>2026-03-28T15:53:08.327Z</time></trkpt><trkpt lat="42.6978911" lon="12.2362741"><ele>136.0</ele><time>2026-03-28T15:53:09.328Z</time></trkpt><trkpt lat="42.6978805" lon="12.2365061"><ele>136.66666666666669</ele><time>2026-03-28T15:53:10.328Z</time></trkpt><trkpt lat="42.6978772" lon="12.2367431"><ele>137.33333333333334</ele><time>2026-03-28T15:53:11.328Z</time></trkpt><trkpt lat="42.6978875" lon="12.2369793"><ele>138.0</ele><time>2026-03-28T15:53:12.328Z</time></trkpt><trkpt lat="42.6979024" lon="12.2372103"><ele>137.33333333333334</ele><time>2026-03-28T15:53:13.328Z</time></trkpt><trkpt lat="42.697908" lon="12.2374283"><ele>136.66666666666669</ele><time>2026-03-28T15:53:14.328Z</time></trkpt><trkpt lat="42.6979108" lon="12.2376573"><ele>136.0</ele><time>2026-03-28T15:53:15.328Z</time></trkpt><trkpt lat="42.6979046" lon="12.2378872"><ele>136.0</ele><time>2026-03-28T15:53:16.328Z</time></trkpt><trkpt lat="42.6978927" lon="12.2381078"><ele>136.0</ele><time>2026-03-28T15:53:17.327Z</time></trkpt><trkpt lat="42.6978773" lon="12.2383161"><ele>136.0</ele><time>2026-03-28T15:53:18.328Z</time></trkpt><trkpt lat="42.6978598" lon="12.2385076"><ele>136.25</ele><time>2026-03-28T15:53:19.328Z</time></trkpt><trkpt lat="42.6978561" lon="12.2386879"><ele>136.5</ele><time>2026-03-28T15:53:20.328Z</time></trkpt><trkpt lat="42.6978523" lon="12.2388677"><ele>136.75</ele><time>2026-03-28T15:53:21.327Z</time></trkpt><trkpt lat="42.697874" lon="12.2390287"><ele>137.0</ele><time>2026-03-28T15:53:22.328Z</time></trkpt><trkpt lat="42.6978952" lon="12.2391919"><ele>136.5</ele><time>2026-03-28T15:53:23.328Z</time></trkpt><trkpt lat="42.6979463" lon="12.2393466"><ele>136.0</ele><time>2026-03-28T15:53:24.328Z</time></trkpt><trkpt lat="42.6980101" lon="12.2395046"><ele>135.5</ele><time>2026-03-28T15:53:25.328Z</time></trkpt><trkpt lat="42.69807" lon="12.2396538"><ele>135.0</ele><time>2026-03-28T15:53:26.328Z</time></trkpt><trkpt lat="42.6981471" lon="12.2398144"><ele>135.0</ele><time>2026-03-28T15:53:27.327Z</time></trkpt><trkpt lat="42.6982237" lon="12.239977"><ele>135.0</ele><time>2026-03-28T15:53:28.328Z</time></trkpt><trkpt lat="42.698299" lon="12.2401398"><ele>135.0</ele><time>2026-03-28T15:53:29.328Z</time></trkpt><trkpt lat="42.698379" lon="12.2403169"><ele>135.0</ele><time>2026-03-28T15:53:30.328Z</time></trkpt><trkpt lat="42.6984647" lon="12.2404882"><ele>135.0</ele><time>2026-03-28T15:53:31.328Z</time></trkpt><trkpt lat="42.698547" lon="12.2406745"><ele>135.0</ele><time>2026-03-28T15:53:32.328Z</time></trkpt><trkpt lat="42.6986351" lon="12.2408558"><ele>135.0</ele><time>2026-03-28T15:53:33.328Z</time></trkpt><trkpt lat="42.6987171" lon="12.241029"><ele>136.0</ele><time>2026-03-28T15:53:34.328Z</time></trkpt><trkpt lat="42.6987886" lon="12.2411926"><ele>137.0</ele><time>2026-03-28T15:53:35.328Z</time></trkpt><trkpt lat="42.6988359" lon="12.2413458"><ele>138.0</ele><time>2026-03-28T15:53:36.328Z</time></trkpt><trkpt lat="42.698853" lon="12.2415036"><ele>139.0</ele><time>2026-03-28T15:53:37.327Z</time></trkpt><trkpt lat="42.6988404" lon="12.2416604"><ele>141.25</ele><time>2026-03-28T15:53:38.327Z</time></trkpt><trkpt lat="42.6988058" lon="12.2418097"><ele>143.5</ele><time>2026-03-28T15:53:39.328Z</time></trkpt><trkpt lat="42.698756" lon="12.2419581"><ele>145.75</ele><time>2026-03-28T15:53:40.328Z</time></trkpt><trkpt lat="42.6987138" lon="12.2421121"><ele>148.0</ele><time>2026-03-28T15:53:41.328Z</time></trkpt><trkpt lat="42.6986648" lon="12.2422674"><ele>148.5</ele><time>2026-03-28T15:53:42.328Z</time></trkpt><trkpt lat="42.6986177" lon="12.242433"><ele>149.0</ele><time>2026-03-28T15:53:43.328Z</time></trkpt><trkpt lat="42.6985618" lon="12.242608"><ele>149.5</ele><time>2026-03-28T15:53:44.328Z</time></trkpt><trkpt lat="42.6985032" lon="12.2427933"><ele>150.0</ele><time>2026-03-28T15:53:45.327Z</time></trkpt><trkpt lat="42.6984489" lon="12.242984"><ele>149.66666666666666</ele><time>2026-03-28T15:53:46.327Z</time></trkpt><trkpt lat="42.6983841" lon="12.2431747"><ele>149.33333333333331</ele><time>2026-03-28T15:53:47.328Z</time></trkpt><trkpt lat="42.698318" lon="12.2433679"><ele>149.0</ele><time>2026-03-28T15:53:48.328Z</time></trkpt><trkpt lat="42.6982524" lon="12.2435628"><ele>149.0</ele><time>2026-03-28T15:53:49.328Z</time></trkpt><trkpt lat="42.6981891" lon="12.2437518"><ele>149.0</ele><time>2026-03-28T15:53:50.328Z</time></trkpt><trkpt lat="42.6981278" lon="12.243947"><ele>149.0</ele><time>2026-03-28T15:53:51.327Z</time></trkpt><trkpt lat="42.6980767" lon="12.2441434"><ele>149.33333333333331</ele><time>2026-03-28T15:53:52.328Z</time></trkpt><trkpt lat="42.6980372" lon="12.2443521"><ele>149.66666666666666</ele><time>2026-03-28T15:53:53.328Z</time></trkpt><trkpt lat="42.6979998" lon="12.2445615"><ele>150.0</ele><time>2026-03-28T15:53:54.327Z</time></trkpt><trkpt lat="42.6979763" lon="12.2447726"><ele>149.33333333333334</ele><time>2026-03-28T15:53:55.327Z</time></trkpt><trkpt lat="42.6979659" lon="12.2449866"><ele>148.66666666666669</ele><time>2026-03-28T15:53:56.328Z</time></trkpt><trkpt lat="42.6979702" lon="12.2452106"><ele>148.0</ele><time>2026-03-28T15:53:57.328Z</time></trkpt><trkpt lat="42.6980008" lon="12.2454389"><ele>147.33333333333334</ele><time>2026-03-28T15:53:58.328Z</time></trkpt><trkpt lat="42.6980351" lon="12.2456556"><ele>146.66666666666666</ele><time>2026-03-28T15:53:59.328Z</time></trkpt><trkpt lat="42.6980717" lon="12.2458681"><ele>146.0</ele><time>2026-03-28T15:54:00.327Z</time></trkpt><trkpt lat="42.6981107" lon="12.2460864"><ele>146.0</ele><time>2026-03-28T15:54:01.327Z</time></trkpt><trkpt lat="42.6981499" lon="12.2463017"><ele>146.0</ele><time>2026-03-28T15:54:02.327Z</time></trkpt><trkpt lat="42.6981917" lon="12.2465168"><ele>146.0</ele><time>2026-03-28T15:54:03.328Z</time></trkpt><trkpt lat="42.6982342" lon="12.2467265"><ele>147.0</ele><time>2026-03-28T15:54:04.328Z</time></trkpt><trkpt lat="42.6982727" lon="12.2469278"><ele>148.0</ele><time>2026-03-28T15:54:05.328Z</time></trkpt><trkpt lat="42.6983055" lon="12.247112"><ele>149.0</ele><time>2026-03-28T15:54:06.328Z</time></trkpt><trkpt lat="42.6983599" lon="12.2472608"><ele>150.0</ele><time>2026-03-28T15:54:07.328Z</time></trkpt><trkpt lat="42.6984231" lon="12.2473904"><ele>150.2</ele><time>2026-03-28T15:54:08.327Z</time></trkpt><trkpt lat="42.6985095" lon="12.2474615"><ele>150.4</ele><time>2026-03-28T15:54:09.328Z</time></trkpt><trkpt lat="42.6986084" lon="12.2475055"><ele>150.6</ele><time>2026-03-28T15:54:10.327Z</time></trkpt><trkpt lat="42.6987132" lon="12.2475121"><ele>150.8</ele><time>2026-03-28T15:54:11.327Z</time></trkpt><trkpt lat="42.6988246" lon="12.2474582"><ele>151.0</ele><time>2026-03-28T15:54:12.327Z</time></trkpt><trkpt lat="42.6989358" lon="12.2473782"><ele>152.25</ele><time>2026-03-28T15:54:13.328Z</time></trkpt><trkpt lat="42.6990515" lon="12.2473093"><ele>153.5</ele><time>2026-03-28T15:54:14.327Z</time></trkpt><trkpt lat="42.6991627" lon="12.247235"><ele>154.75</ele><time>2026-03-28T15:54:15.328Z</time></trkpt><trkpt lat="42.6992668" lon="12.2471872"><ele>156.0</ele><time>2026-03-28T15:54:16.327Z</time></trkpt><trkpt lat="42.6993678" lon="12.2471841"><ele>156.4</ele><time>2026-03-28T15:54:17.328Z</time></trkpt><trkpt lat="42.6994552" lon="12.2472353"><ele>156.8</ele><time>2026-03-28T15:54:18.328Z</time></trkpt><trkpt lat="42.6995086" lon="12.2473173"><ele>157.20000000000002</ele><time>2026-03-28T15:54:19.328Z</time></trkpt><trkpt lat="42.6995313" lon="12.2474396"><ele>157.6</ele><time>2026-03-28T15:54:20.328Z</time></trkpt><trkpt lat="42.6995408" lon="12.2475679"><ele>158.0</ele><time>2026-03-28T15:54:21.328Z</time></trkpt><trkpt lat="42.699499" lon="12.2477196"><ele>158.25</ele><time>2026-03-28T15:54:22.327Z</time></trkpt><trkpt lat="42.6994626" lon="12.2478838"><ele>158.5</ele><time>2026-03-28T15:54:23.328Z</time></trkpt><trkpt lat="42.6994225" lon="12.2480681"><ele>158.75</ele><time>2026-03-28T15:54:24.328Z</time></trkpt><trkpt lat="42.6993701" lon="12.2482591"><ele>159.0</ele><time>2026-03-28T15:54:25.328Z</time></trkpt><trkpt lat="42.6993125" lon="12.2484616"><ele>161.0</ele><time>2026-03-28T15:54:26.328Z</time></trkpt><trkpt lat="42.6992542" lon="12.2486698"><ele>163.0</ele><time>2026-03-28T15:54:27.327Z</time></trkpt><trkpt lat="42.6991968" lon="12.2488845"><ele>165.0</ele><time>2026-03-28T15:54:28.328Z</time></trkpt><trkpt lat="42.6991446" lon="12.2491002"><ele>166.0</ele><time>2026-03-28T15:54:29.328Z</time></trkpt><trkpt lat="42.6990835" lon="12.249312"><ele>167.0</ele><time>2026-03-28T15:54:30.328Z</time></trkpt><trkpt lat="42.6990347" lon="12.2495171"><ele>168.0</ele><time>2026-03-28T15:54:31.328Z</time></trkpt><trkpt lat="42.698992" lon="12.2497214"><ele>168.33333333333334</ele><time>2026-03-28T15:54:32.328Z</time></trkpt><trkpt lat="42.6989535" lon="12.2499371"><ele>168.66666666666669</ele><time>2026-03-28T15:54:33.328Z</time></trkpt><trkpt lat="42.6989304" lon="12.2501591"><ele>169.0</ele><time>2026-03-28T15:54:34.327Z</time></trkpt><trkpt lat="42.6989018" lon="12.2503887"><ele>169.0</ele><time>2026-03-28T15:54:35.328Z</time></trkpt><trkpt lat="42.6988792" lon="12.2506228"><ele>169.0</ele><time>2026-03-28T15:54:36.328Z</time></trkpt><trkpt lat="42.6988603" lon="12.2508484"><ele>169.0</ele><time>2026-03-28T15:54:37.328Z</time></trkpt><trkpt lat="42.6988369" lon="12.2510564"><ele>168.75</ele><time>2026-03-28T15:54:38.328Z</time></trkpt><trkpt lat="42.6988045" lon="12.2512403"><ele>168.5</ele><time>2026-03-28T15:54:39.327Z</time></trkpt><trkpt lat="42.6987952" lon="12.2514227"><ele>168.25</ele><time>2026-03-28T15:54:40.327Z</time></trkpt><trkpt lat="42.6988055" lon="12.2516061"><ele>168.0</ele><time>2026-03-28T15:54:41.328Z</time></trkpt><trkpt lat="42.6988377" lon="12.25179"><ele>168.5</ele><time>2026-03-28T15:54:42.328Z</time></trkpt><trkpt lat="42.698877" lon="12.2519642"><ele>169.0</ele><time>2026-03-28T15:54:43.328Z</time></trkpt><trkpt lat="42.6989355" lon="12.2521248"><ele>169.5</ele><time>2026-03-28T15:54:44.327Z</time></trkpt><trkpt lat="42.6990114" lon="12.2522739"><ele>170.0</ele><time>2026-03-28T15:54:45.328Z</time></trkpt><trkpt lat="42.6991042" lon="12.2524046"><ele>170.0</ele><time>2026-03-28T15:54:46.328Z</time></trkpt><trkpt lat="42.6992358" lon="12.2525328"><ele>170.0</ele><time>2026-03-28T15:54:47.328Z</time></trkpt><trkpt lat="42.6993615" lon="12.2526706"><ele>170.0</ele><time>2026-03-28T15:54:48.328Z</time></trkpt><trkpt lat="42.6994857" lon="12.2527904"><ele>170.0</ele><time>2026-03-28T15:54:49.328Z</time></trkpt><trkpt lat="42.6996079" lon="12.252917"><ele>170.0</ele><time>2026-03-28T15:54:50.328Z</time></trkpt><trkpt lat="42.6997386" lon="12.2530353"><ele>170.0</ele><time>2026-03-28T15:54:51.328Z</time></trkpt><trkpt lat="42.6998688" lon="12.2531339"><ele>169.25</ele><time>2026-03-28T15:54:52.328Z</time></trkpt><trkpt lat="42.7000067" lon="12.2532163"><ele>168.5</ele><time>2026-03-28T15:54:53.328Z</time></trkpt><trkpt lat="42.7001404" lon="12.2532852"><ele>167.75</ele><time>2026-03-28T15:54:54.327Z</time></trkpt><trkpt lat="42.700269" lon="12.2533763"><ele>167.0</ele><time>2026-03-28T15:54:55.328Z</time></trkpt><trkpt lat="42.7003758" lon="12.2535095"><ele>167.0</ele><time>2026-03-28T15:54:56.328Z</time></trkpt><trkpt lat="42.7004583" lon="12.2536628"><ele>167.0</ele><time>2026-03-28T15:54:57.327Z</time></trkpt><trkpt lat="42.7005352" lon="12.2538392"><ele>167.0</ele><time>2026-03-28T15:54:58.327Z</time></trkpt><trkpt lat="42.7005924" lon="12.2540294"><ele>167.0</ele><time>2026-03-28T15:54:59.328Z</time></trkpt><trkpt lat="42.7006428" lon="12.2542354"><ele>171.0</ele><time>2026-03-28T15:55:00.327Z</time></trkpt><trkpt lat="42.7006884" lon="12.2544445"><ele>175.0</ele><time>2026-03-28T15:55:01.328Z</time></trkpt><trkpt lat="42.7007308" lon="12.2546465"><ele>179.0</ele><time>2026-03-28T15:55:02.328Z</time></trkpt><trkpt lat="42.7007606" lon="12.2548474"><ele>181.0</ele><time>2026-03-28T15:55:03.328Z</time></trkpt><trkpt lat="42.7008224" lon="12.2550125"><ele>183.0</ele><time>2026-03-28T15:55:04.328Z</time></trkpt><trkpt lat="42.7008759" lon="12.2551696"><ele>185.0</ele><time>2026-03-28T15:55:05.328Z</time></trkpt><trkpt lat="42.700947" lon="12.2553023"><ele>187.0</ele><time>2026-03-28T15:55:06.327Z</time></trkpt><trkpt lat="42.7010419" lon="12.2554219"><ele>186.5</ele><time>2026-03-28T15:55:07.328Z</time></trkpt><trkpt lat="42.7011697" lon="12.2554848"><ele>186.0</ele><time>2026-03-28T15:55:08.328Z</time></trkpt><trkpt lat="42.7012921" lon="12.2555447"><ele>185.5</ele><time>2026-03-28T15:55:09.328Z</time></trkpt><trkpt lat="42.7014142" lon="12.2555967"><ele>185.0</ele><time>2026-03-28T15:55:10.328Z</time></trkpt><trkpt lat="42.7015355" lon="12.2556644"><ele>185.0</ele><time>2026-03-28T15:55:11.327Z</time></trkpt><trkpt lat="42.7016175" lon="12.2558111"><ele>185.0</ele><time>2026-03-28T15:55:12.328Z</time></trkpt><trkpt lat="42.7016791" lon="12.2559674"><ele>185.0</ele><time>2026-03-28T15:55:13.328Z</time></trkpt><trkpt lat="42.7017318" lon="12.2561406"><ele>185.0</ele><time>2026-03-28T15:55:14.328Z</time></trkpt><trkpt lat="42.7017875" lon="12.25631"><ele>180.0</ele><time>2026-03-28T15:55:15.328Z</time></trkpt><trkpt lat="42.7018693" lon="12.2564676"><ele>175.0</ele><time>2026-03-28T15:55:16.328Z</time></trkpt><trkpt lat="42.7019793" lon="12.2565965"><ele>170.0</ele><time>2026-03-28T15:55:17.328Z</time></trkpt><trkpt lat="42.7021215" lon="12.2567046"><ele>170.0</ele><time>2026-03-28T15:55:18.328Z</time></trkpt><trkpt lat="42.7022763" lon="12.2567922"><ele>170.0</ele><time>2026-03-28T15:55:19.328Z</time></trkpt><trkpt lat="42.7024319" lon="12.2568813"><ele>170.0</ele><time>2026-03-28T15:55:20.328Z</time></trkpt><trkpt lat="42.702593" lon="12.2569818"><ele>170.33333333333331</ele><time>2026-03-28T15:55:21.328Z</time></trkpt><trkpt lat="42.7027606" lon="12.2570817"><ele>170.66666666666666</ele><time>2026-03-28T15:55:22.328Z</time></trkpt><trkpt lat="42.7029291" lon="12.2571961"><ele>171.0</ele><time>2026-03-28T15:55:23.327Z</time></trkpt><trkpt lat="42.7031074" lon="12.2573091"><ele>171.0</ele><time>2026-03-28T15:55:24.328Z</time></trkpt><trkpt lat="42.703292" lon="12.2574201"><ele>171.0</ele><time>2026-03-28T15:55:25.328Z</time></trkpt><trkpt lat="42.7034709" lon="12.2575334"><ele>171.0</ele><time>2026-03-28T15:55:26.328Z</time></trkpt><trkpt lat="42.7036608" lon="12.2576386"><ele>167.0</ele><time>2026-03-28T15:55:27.328Z</time></trkpt><trkpt lat="42.7038416" lon="12.2577295"><ele>163.0</ele><time>2026-03-28T15:55:28.328Z</time></trkpt><trkpt lat="42.7040156" lon="12.2578105"><ele>159.0</ele><time>2026-03-28T15:55:29.328Z</time></trkpt><trkpt lat="42.7041893" lon="12.2578727"><ele>159.0</ele><time>2026-03-28T15:55:30.328Z</time></trkpt><trkpt lat="42.7043564" lon="12.2579126"><ele>159.0</ele><time>2026-03-28T15:55:31.328Z</time></trkpt><trkpt lat="42.7045163" lon="12.2579499"><ele>159.0</ele><time>2026-03-28T15:55:32.327Z</time></trkpt><trkpt lat="42.7046668" lon="12.2580083"><ele>156.0</ele><time>2026-03-28T15:55:33.328Z</time></trkpt><trkpt lat="42.7048141" lon="12.2581004"><ele>153.0</ele><time>2026-03-28T15:55:34.328Z</time></trkpt><trkpt lat="42.7049582" lon="12.258191"><ele>150.0</ele><time>2026-03-28T15:55:35.328Z</time></trkpt><trkpt lat="42.7051051" lon="12.2582921"><ele>153.0</ele><time>2026-03-28T15:55:36.328Z</time></trkpt><trkpt lat="42.7052524" lon="12.2583832"><ele>156.0</ele><time>2026-03-28T15:55:37.328Z</time></trkpt><trkpt lat="42.7054129" lon="12.2584872"><ele>159.0</ele><time>2026-03-28T15:55:38.328Z</time></trkpt><trkpt lat="42.7055781" lon="12.2585763"><ele>159.0</ele><time>2026-03-28T15:55:39.327Z</time></trkpt><trkpt lat="42.7057547" lon="12.2586494"><ele>159.0</ele><time>2026-03-28T15:55:40.327Z</time></trkpt><trkpt lat="42.7059365" lon="12.2587255"><ele>159.0</ele><time>2026-03-28T15:55:41.327Z</time></trkpt><trkpt lat="42.706121" lon="12.258793"><ele>155.66666666666666</ele><time>2026-03-28T15:55:42.328Z</time></trkpt><trkpt lat="42.7063009" lon="12.2588765"><ele>152.33333333333331</ele><time>2026-03-28T15:55:43.328Z</time></trkpt><trkpt lat="42.7064764" lon="12.2589448"><ele>149.0</ele><time>2026-03-28T15:55:44.328Z</time></trkpt><trkpt lat="42.7066555" lon="12.2590023"><ele>153.66666666666666</ele><time>2026-03-28T15:55:45.328Z</time></trkpt><trkpt lat="42.7068287" lon="12.2590722"><ele>158.33333333333334</ele><time>2026-03-28T15:55:46.328Z</time></trkpt><trkpt lat="42.707003" lon="12.259142"><ele>163.0</ele><time>2026-03-28T15:55:47.328Z</time></trkpt><trkpt lat="42.7071817" lon="12.2592104"><ele>163.0</ele><time>2026-03-28T15:55:48.328Z</time></trkpt><trkpt lat="42.707352" lon="12.2592688"><ele>163.0</ele><time>2026-03-28T15:55:49.328Z</time></trkpt><trkpt lat="42.7075143" lon="12.2593358"><ele>163.0</ele><time>2026-03-28T15:55:50.328Z</time></trkpt><trkpt lat="42.7076646" lon="12.259392"><ele>161.25</ele><time>2026-03-28T15:55:51.327Z</time></trkpt><trkpt lat="42.707805" lon="12.2594514"><ele>159.5</ele><time>2026-03-28T15:55:52.327Z</time></trkpt><trkpt lat="42.7079347" lon="12.2595088"><ele>157.75</ele><time>2026-03-28T15:55:53.327Z</time></trkpt><trkpt lat="42.7080587" lon="12.2595546"><ele>156.0</ele><time>2026-03-28T15:55:54.327Z</time></trkpt><trkpt lat="42.7081569" lon="12.2596004"><ele>156.0</ele><time>2026-03-28T15:55:55.328Z</time></trkpt><trkpt lat="42.7082472" lon="12.2596685"><ele>156.0</ele><time>2026-03-28T15:55:56.328Z</time></trkpt><trkpt lat="42.7083362" lon="12.2597591"><ele>156.0</ele><time>2026-03-28T15:55:57.328Z</time></trkpt><trkpt lat="42.7084127" lon="12.2598736"><ele>156.0</ele><time>2026-03-28T15:55:58.328Z</time></trkpt><trkpt lat="42.7084751" lon="12.260013"><ele>156.0</ele><time>2026-03-28T15:55:59.328Z</time></trkpt><trkpt lat="42.7085132" lon="12.2601627"><ele>157.75</ele><time>2026-03-28T15:56:00.327Z</time></trkpt><trkpt lat="42.7085368" lon="12.2603183"><ele>159.5</ele><time>2026-03-28T15:56:01.328Z</time></trkpt><trkpt lat="42.7085239" lon="12.2604697"><ele>161.25</ele><time>2026-03-28T15:56:02.328Z</time></trkpt><trkpt lat="42.7085017" lon="12.2606194"><ele>163.0</ele><time>2026-03-28T15:56:03.327Z</time></trkpt><trkpt lat="42.7084567" lon="12.260761"><ele>163.0</ele><time>2026-03-28T15:56:04.327Z</time></trkpt><trkpt lat="42.7083947" lon="12.2609057"><ele>163.0</ele><time>2026-03-28T15:56:05.328Z</time></trkpt><trkpt lat="42.708326" lon="12.2610559"><ele>163.0</ele><time>2026-03-28T15:56:06.327Z</time></trkpt><trkpt lat="42.7082501" lon="12.2612247"><ele>163.0</ele><time>2026-03-28T15:56:07.328Z</time></trkpt><trkpt lat="42.7081698" lon="12.2614079"><ele>160.33333333333334</ele><time>2026-03-28T15:56:08.328Z</time></trkpt><trkpt lat="42.7080868" lon="12.2615952"><ele>157.66666666666666</ele><time>2026-03-28T15:56:09.328Z</time></trkpt><trkpt lat="42.708004" lon="12.261791"><ele>155.0</ele><time>2026-03-28T15:56:10.328Z</time></trkpt><trkpt lat="42.7079174" lon="12.2619861"><ele>155.0</ele><time>2026-03-28T15:56:11.327Z</time></trkpt><trkpt lat="42.7078387" lon="12.2621696"><ele>155.0</ele><time>2026-03-28T15:56:12.328Z</time></trkpt><trkpt lat="42.7077628" lon="12.262342"><ele>155.0</ele><time>2026-03-28T15:56:13.328Z</time></trkpt><trkpt lat="42.7076967" lon="12.2624989"><ele>155.0</ele><time>2026-03-28T15:56:14.328Z</time></trkpt><trkpt lat="42.7076481" lon="12.2626526"><ele>154.0</ele><time>2026-03-28T15:56:15.328Z</time></trkpt><trkpt lat="42.7076293" lon="12.2628015"><ele>153.0</ele><time>2026-03-28T15:56:16.328Z</time></trkpt><trkpt lat="42.7076417" lon="12.26294"><ele>152.0</ele><time>2026-03-28T15:56:17.328Z</time></trkpt><trkpt lat="42.707684" lon="12.2630753"><ele>151.0</ele><time>2026-03-28T15:56:18.328Z</time></trkpt><trkpt lat="42.7077577" lon="12.2631882"><ele>150.0</ele><time>2026-03-28T15:56:19.327Z</time></trkpt><trkpt lat="42.7078561" lon="12.263281"><ele>150.0</ele><time>2026-03-28T15:56:20.328Z</time></trkpt><trkpt lat="42.7079798" lon="12.2633445"><ele>150.0</ele><time>2026-03-28T15:56:21.328Z</time></trkpt><trkpt lat="42.7081196" lon="12.263401"><ele>150.0</ele><time>2026-03-28T15:56:22.328Z</time></trkpt><trkpt lat="42.7082742" lon="12.2634363"><ele>150.0</ele><time>2026-03-28T15:56:23.327Z</time></trkpt><trkpt lat="42.7084403" lon="12.2634784"><ele>148.66666666666666</ele><time>2026-03-28T15:56:24.327Z</time></trkpt><trkpt lat="42.7086227" lon="12.2635173"><ele>147.33333333333331</ele><time>2026-03-28T15:56:25.327Z</time></trkpt><trkpt lat="42.7087956" lon="12.2635673"><ele>146.0</ele><time>2026-03-28T15:56:26.328Z</time></trkpt><trkpt lat="42.7089734" lon="12.2636169"><ele>146.0</ele><time>2026-03-28T15:56:27.328Z</time></trkpt><trkpt lat="42.7091505" lon="12.2636666"><ele>146.0</ele><time>2026-03-28T15:56:28.328Z</time></trkpt><trkpt lat="42.7093341" lon="12.2637185"><ele>146.0</ele><time>2026-03-28T15:56:29.327Z</time></trkpt><trkpt lat="42.7095207" lon="12.2637732"><ele>145.33333333333331</ele><time>2026-03-28T15:56:30.328Z</time></trkpt><trkpt lat="42.7097075" lon="12.2638304"><ele>144.66666666666666</ele><time>2026-03-28T15:56:31.328Z</time></trkpt><trkpt lat="42.7098934" lon="12.2638807"><ele>144.0</ele><time>2026-03-28T15:56:32.328Z</time></trkpt><trkpt lat="42.7100843" lon="12.2639277"><ele>147.0</ele><time>2026-03-28T15:56:33.328Z</time></trkpt><trkpt lat="42.7102732" lon="12.2639857"><ele>150.0</ele><time>2026-03-28T15:56:34.328Z</time></trkpt><trkpt lat="42.7104649" lon="12.2640409"><ele>153.0</ele><time>2026-03-28T15:56:35.328Z</time></trkpt><trkpt lat="42.7106574" lon="12.2640951"><ele>153.0</ele><time>2026-03-28T15:56:36.328Z</time></trkpt><trkpt lat="42.7108473" lon="12.2641595"><ele>153.0</ele><time>2026-03-28T15:56:37.327Z</time></trkpt><trkpt lat="42.7110318" lon="12.2642243"><ele>153.0</ele><time>2026-03-28T15:56:38.328Z</time></trkpt><trkpt lat="42.711225" lon="12.2642715"><ele>151.33333333333334</ele><time>2026-03-28T15:56:39.327Z</time></trkpt><trkpt lat="42.7114014" lon="12.2643379"><ele>149.66666666666669</ele><time>2026-03-28T15:56:40.327Z</time></trkpt><trkpt lat="42.7115849" lon="12.2644178"><ele>148.0</ele><time>2026-03-28T15:56:41.328Z</time></trkpt><trkpt lat="42.711761" lon="12.2645027"><ele>146.66666666666669</ele><time>2026-03-28T15:56:42.327Z</time></trkpt><trkpt lat="42.711942" lon="12.2645918"><ele>145.33333333333334</ele><time>2026-03-28T15:56:43.327Z</time></trkpt><trkpt lat="42.7121194" lon="12.2646844"><ele>144.0</ele><time>2026-03-28T15:56:44.328Z</time></trkpt><trkpt lat="42.7122987" lon="12.2647694"><ele>145.0</ele><time>2026-03-28T15:56:45.328Z</time></trkpt><trkpt lat="42.7124691" lon="12.2648548"><ele>146.0</ele><time>2026-03-28T15:56:46.327Z</time></trkpt><trkpt lat="42.7126328" lon="12.2649416"><ele>147.0</ele><time>2026-03-28T15:56:47.327Z</time></trkpt><trkpt lat="42.7127895" lon="12.2650212"><ele>147.0</ele><time>2026-03-28T15:56:48.328Z</time></trkpt><trkpt lat="42.7129481" lon="12.2651025"><ele>147.0</ele><time>2026-03-28T15:56:49.328Z</time></trkpt><trkpt lat="42.7130938" lon="12.265177"><ele>147.0</ele><time>2026-03-28T15:56:50.328Z</time></trkpt><trkpt lat="42.7132398" lon="12.2652566"><ele>147.0</ele><time>2026-03-28T15:56:51.328Z</time></trkpt><trkpt lat="42.7133823" lon="12.2653295"><ele>147.0</ele><time>2026-03-28T15:56:52.328Z</time></trkpt><trkpt lat="42.7135266" lon="12.2654019"><ele>147.0</ele><time>2026-03-28T15:56:53.328Z</time></trkpt><trkpt lat="42.713675" lon="12.2654648"><ele>148.0</ele><time>2026-03-28T15:56:54.327Z</time></trkpt><trkpt lat="42.7138212" lon="12.2655313"><ele>149.0</ele><time>2026-03-28T15:56:55.327Z</time></trkpt><trkpt lat="42.7139634" lon="12.265605"><ele>150.0</ele><time>2026-03-28T15:56:56.328Z</time></trkpt><trkpt lat="42.7141148" lon="12.265685"><ele>150.0</ele><time>2026-03-28T15:56:57.328Z</time></trkpt><trkpt lat="42.7142648" lon="12.2657668"><ele>150.0</ele><time>2026-03-28T15:56:58.328Z</time></trkpt><trkpt lat="42.7144073" lon="12.2658398"><ele>150.0</ele><time>2026-03-28T15:56:59.328Z</time></trkpt><trkpt lat="42.7145439" lon="12.2658969"><ele>150.0</ele><time>2026-03-28T15:57:00.327Z</time></trkpt><trkpt lat="42.7146698" lon="12.2659312"><ele>150.0</ele><time>2026-03-28T15:57:01.327Z</time></trkpt><trkpt lat="42.7148023" lon="12.2659268"><ele>150.0</ele><time>2026-03-28T15:57:02.328Z</time></trkpt><trkpt lat="42.7149306" lon="12.2658661"><ele>150.0</ele><time>2026-03-28T15:57:03.328Z</time></trkpt><trkpt lat="42.7150684" lon="12.2657804"><ele>150.0</ele><time>2026-03-28T15:57:04.328Z</time></trkpt><trkpt lat="42.7152128" lon="12.2656826"><ele>150.0</ele><time>2026-03-28T15:57:05.328Z</time></trkpt><trkpt lat="42.7153724" lon="12.2655736"><ele>150.0</ele><time>2026-03-28T15:57:06.328Z</time></trkpt><trkpt lat="42.715539" lon="12.2654633"><ele>149.0</ele><time>2026-03-28T15:57:07.328Z</time></trkpt><trkpt lat="42.7157058" lon="12.2653572"><ele>148.0</ele><time>2026-03-28T15:57:08.328Z</time></trkpt><trkpt lat="42.7158779" lon="12.265238"><ele>147.0</ele><time>2026-03-28T15:57:09.328Z</time></trkpt><trkpt lat="42.7160511" lon="12.2651193"><ele>147.33333333333334</ele><time>2026-03-28T15:57:10.328Z</time></trkpt><trkpt lat="42.716234" lon="12.264995"><ele>147.66666666666669</ele><time>2026-03-28T15:57:11.328Z</time></trkpt><trkpt lat="42.7164199" lon="12.2648612"><ele>148.0</ele><time>2026-03-28T15:57:12.328Z</time></trkpt><trkpt lat="42.7166097" lon="12.2647326"><ele>148.0</ele><time>2026-03-28T15:57:13.327Z</time></trkpt><trkpt lat="42.7168002" lon="12.2645998"><ele>148.0</ele><time>2026-03-28T15:57:14.327Z</time></trkpt><trkpt lat="42.7169779" lon="12.2644769"><ele>148.0</ele><time>2026-03-28T15:57:15.327Z</time></trkpt><trkpt lat="42.7171642" lon="12.2643556"><ele>149.0</ele><time>2026-03-28T15:57:16.327Z</time></trkpt><trkpt lat="42.7173479" lon="12.2642426"><ele>150.0</ele><time>2026-03-28T15:57:17.328Z</time></trkpt><trkpt lat="42.7175327" lon="12.2641236"><ele>151.0</ele><time>2026-03-28T15:57:18.327Z</time></trkpt><trkpt lat="42.7177124" lon="12.2640019"><ele>151.0</ele><time>2026-03-28T15:57:19.327Z</time></trkpt><trkpt lat="42.717896" lon="12.2638738"><ele>151.0</ele><time>2026-03-28T15:57:20.327Z</time></trkpt><trkpt lat="42.7180789" lon="12.2637469"><ele>151.0</ele><time>2026-03-28T15:57:21.328Z</time></trkpt><trkpt lat="42.7182602" lon="12.2636262"><ele>151.0</ele><time>2026-03-28T15:57:22.328Z</time></trkpt><trkpt lat="42.7184414" lon="12.2635023"><ele>151.0</ele><time>2026-03-28T15:57:23.328Z</time></trkpt><trkpt lat="42.7186316" lon="12.2633741"><ele>151.0</ele><time>2026-03-28T15:57:24.327Z</time></trkpt><trkpt lat="42.7188182" lon="12.2632402"><ele>151.66666666666669</ele><time>2026-03-28T15:57:25.328Z</time></trkpt><trkpt lat="42.7190046" lon="12.2631142"><ele>152.33333333333334</ele><time>2026-03-28T15:57:26.328Z</time></trkpt><trkpt lat="42.7191978" lon="12.2629877"><ele>153.0</ele><time>2026-03-28T15:57:27.328Z</time></trkpt><trkpt lat="42.7193883" lon="12.2628663"><ele>155.33333333333334</ele><time>2026-03-28T15:57:28.328Z</time></trkpt><trkpt lat="42.7195716" lon="12.2627451"><ele>157.66666666666669</ele><time>2026-03-28T15:57:29.327Z</time></trkpt><trkpt lat="42.7197495" lon="12.2626234"><ele>160.0</ele><time>2026-03-28T15:57:30.328Z</time></trkpt><trkpt lat="42.7199146" lon="12.2625122"><ele>160.0</ele><time>2026-03-28T15:57:31.327Z</time></trkpt><trkpt lat="42.7200649" lon="12.2624049"><ele>160.0</ele><time>2026-03-28T15:57:32.327Z</time></trkpt><trkpt lat="42.7202081" lon="12.2623067"><ele>160.0</ele><time>2026-03-28T15:57:33.328Z</time></trkpt><trkpt lat="42.7203453" lon="12.2622155"><ele>159.66666666666669</ele><time>2026-03-28T15:57:34.328Z</time></trkpt><trkpt lat="42.7204886" lon="12.2621401"><ele>159.33333333333334</ele><time>2026-03-28T15:57:35.328Z</time></trkpt><trkpt lat="42.7206394" lon="12.2620846"><ele>159.0</ele><time>2026-03-28T15:57:36.327Z</time></trkpt><trkpt lat="42.7208002" lon="12.2620496"><ele>159.0</ele><time>2026-03-28T15:57:37.327Z</time></trkpt><trkpt lat="42.7209627" lon="12.2620234"><ele>159.0</ele><time>2026-03-28T15:57:38.328Z</time></trkpt><trkpt lat="42.7211277" lon="12.2620026"><ele>159.0</ele><time>2026-03-28T15:57:39.328Z</time></trkpt><trkpt lat="42.7212934" lon="12.2619954"><ele>160.33333333333334</ele><time>2026-03-28T15:57:40.328Z</time></trkpt><trkpt lat="42.7214668" lon="12.2619842"><ele>161.66666666666669</ele><time>2026-03-28T15:57:41.328Z</time></trkpt><trkpt lat="42.7216381" lon="12.2619749"><ele>163.0</ele><time>2026-03-28T15:57:42.328Z</time></trkpt><trkpt lat="42.7218145" lon="12.2619662"><ele>164.33333333333334</ele><time>2026-03-28T15:57:43.328Z</time></trkpt><trkpt lat="42.7219908" lon="12.261949"><ele>165.66666666666666</ele><time>2026-03-28T15:57:44.327Z</time></trkpt><trkpt lat="42.7221673" lon="12.2619325"><ele>167.0</ele><time>2026-03-28T15:57:45.328Z</time></trkpt><trkpt lat="42.7223424" lon="12.2619128"><ele>167.0</ele><time>2026-03-28T15:57:46.328Z</time></trkpt><trkpt lat="42.7225089" lon="12.2619017"><ele>167.0</ele><time>2026-03-28T15:57:47.327Z</time></trkpt><trkpt lat="42.7226812" lon="12.2618869"><ele>167.0</ele><time>2026-03-28T15:57:48.328Z</time></trkpt><trkpt lat="42.7228456" lon="12.2618776"><ele>167.33333333333331</ele><time>2026-03-28T15:57:49.328Z</time></trkpt><trkpt lat="42.7230085" lon="12.2618689"><ele>167.66666666666666</ele><time>2026-03-28T15:57:50.328Z</time></trkpt><trkpt lat="42.7231723" lon="12.2618486"><ele>168.0</ele><time>2026-03-28T15:57:51.328Z</time></trkpt><trkpt lat="42.7233377" lon="12.2618251"><ele>168.0</ele><time>2026-03-28T15:57:52.328Z</time></trkpt><trkpt lat="42.7235001" lon="12.2618087"><ele>168.0</ele><time>2026-03-28T15:57:53.328Z</time></trkpt><trkpt lat="42.7236605" lon="12.2618192"><ele>168.0</ele><time>2026-03-28T15:57:54.328Z</time></trkpt><trkpt lat="42.7238149" lon="12.2618481"><ele>168.33333333333334</ele><time>2026-03-28T15:57:55.327Z</time></trkpt><trkpt lat="42.7239621" lon="12.2618993"><ele>168.66666666666669</ele><time>2026-03-28T15:57:56.328Z</time></trkpt><trkpt lat="42.7241061" lon="12.2619943"><ele>169.0</ele><time>2026-03-28T15:57:57.327Z</time></trkpt><trkpt lat="42.7242356" lon="12.2621175"><ele>169.0</ele><time>2026-03-28T15:57:58.328Z</time></trkpt><trkpt lat="42.7243577" lon="12.2622684"><ele>169.0</ele><time>2026-03-28T15:57:59.328Z</time></trkpt><trkpt lat="42.7244673" lon="12.2624417"><ele>169.0</ele><time>2026-03-28T15:58:00.328Z</time></trkpt><trkpt lat="42.7245795" lon="12.2626275"><ele>168.33333333333334</ele><time>2026-03-28T15:58:01.328Z</time></trkpt><trkpt lat="42.7246974" lon="12.262827"><ele>167.66666666666666</ele><time>2026-03-28T15:58:02.327Z</time></trkpt><trkpt lat="42.724804" lon="12.2630291"><ele>167.0</ele><time>2026-03-28T15:58:03.327Z</time></trkpt><trkpt lat="42.7249148" lon="12.2632382"><ele>164.66666666666666</ele><time>2026-03-28T15:58:04.328Z</time></trkpt><trkpt lat="42.7250337" lon="12.2634481"><ele>162.33333333333334</ele><time>2026-03-28T15:58:05.327Z</time></trkpt><trkpt lat="42.725159" lon="12.2636603"><ele>160.0</ele><time>2026-03-28T15:58:06.327Z</time></trkpt><trkpt lat="42.7252883" lon="12.2638727"><ele>164.0</ele><time>2026-03-28T15:58:07.328Z</time></trkpt><trkpt lat="42.7254163" lon="12.2640957"><ele>168.0</ele><time>2026-03-28T15:58:08.328Z</time></trkpt><trkpt lat="42.7255386" lon="12.2643237"><ele>172.0</ele><time>2026-03-28T15:58:09.328Z</time></trkpt><trkpt lat="42.7256622" lon="12.2645575"><ele>176.0</ele><time>2026-03-28T15:58:10.328Z</time></trkpt><trkpt lat="42.7257898" lon="12.2647924"><ele>180.0</ele><time>2026-03-28T15:58:11.328Z</time></trkpt><trkpt lat="42.725924" lon="12.2650365"><ele>184.0</ele><time>2026-03-28T15:58:12.328Z</time></trkpt><trkpt lat="42.7260602" lon="12.2652859"><ele>180.0</ele><time>2026-03-28T15:58:13.328Z</time></trkpt><trkpt lat="42.7261951" lon="12.2655384"><ele>176.0</ele><time>2026-03-28T15:58:14.328Z</time></trkpt><trkpt lat="42.7263428" lon="12.2657887"><ele>176.0</ele><time>2026-03-28T15:58:15.328Z</time></trkpt><trkpt lat="42.7264758" lon="12.2660393"><ele>176.0</ele><time>2026-03-28T15:58:16.328Z</time></trkpt><trkpt lat="42.7266088" lon="12.266291"><ele>181.5</ele><time>2026-03-28T15:58:17.328Z</time></trkpt><trkpt lat="42.7267467" lon="12.266536"><ele>187.0</ele><time>2026-03-28T15:58:18.328Z</time></trkpt><trkpt lat="42.7268855" lon="12.2667787"><ele>186.66666666666669</ele><time>2026-03-28T15:58:19.328Z</time></trkpt><trkpt lat="42.7270193" lon="12.2670154"><ele>186.33333333333334</ele><time>2026-03-28T15:58:20.327Z</time></trkpt><trkpt lat="42.7271516" lon="12.2672487"><ele>186.0</ele><time>2026-03-28T15:58:21.328Z</time></trkpt><trkpt lat="42.7272782" lon="12.2674785"><ele>186.0</ele><time>2026-03-28T15:58:22.328Z</time></trkpt><trkpt lat="42.7274067" lon="12.2677033"><ele>186.0</ele><time>2026-03-28T15:58:23.328Z</time></trkpt><trkpt lat="42.7275314" lon="12.2679322"><ele>186.0</ele><time>2026-03-28T15:58:24.328Z</time></trkpt><trkpt lat="42.727651" lon="12.2681597"><ele>184.66666666666666</ele><time>2026-03-28T15:58:25.328Z</time></trkpt><trkpt lat="42.7277761" lon="12.2683871"><ele>183.33333333333331</ele><time>2026-03-28T15:58:26.327Z</time></trkpt><trkpt lat="42.7278831" lon="12.268625"><ele>182.0</ele><time>2026-03-28T15:58:27.328Z</time></trkpt><trkpt lat="42.7279848" lon="12.2688728"><ele>186.0</ele><time>2026-03-28T15:58:28.328Z</time></trkpt><trkpt lat="42.7280807" lon="12.269121"><ele>190.0</ele><time>2026-03-28T15:58:29.328Z</time></trkpt><trkpt lat="42.7281765" lon="12.2693733"><ele>194.0</ele><time>2026-03-28T15:58:30.327Z</time></trkpt><trkpt lat="42.7282728" lon="12.2696269"><ele>198.0</ele><time>2026-03-28T15:58:31.328Z</time></trkpt><trkpt lat="42.7283659" lon="12.269879"><ele>202.0</ele><time>2026-03-28T15:58:32.328Z</time></trkpt><trkpt lat="42.7284637" lon="12.2701301"><ele>206.0</ele><time>2026-03-28T15:58:33.328Z</time></trkpt><trkpt lat="42.7285572" lon="12.270386"><ele>203.66666666666669</ele><time>2026-03-28T15:58:34.327Z</time></trkpt><trkpt lat="42.7286522" lon="12.2706371"><ele>201.33333333333331</ele><time>2026-03-28T15:58:35.327Z</time></trkpt><trkpt lat="42.7287367" lon="12.2708856"><ele>199.0</ele><time>2026-03-28T15:58:36.328Z</time></trkpt><trkpt lat="42.7288001" lon="12.2711313"><ele>199.0</ele><time>2026-03-28T15:58:37.328Z</time></trkpt><trkpt lat="42.7288506" lon="12.2713702"><ele>199.0</ele><time>2026-03-28T15:58:38.328Z</time></trkpt><trkpt lat="42.7288833" lon="12.2716044"><ele>199.0</ele><time>2026-03-28T15:58:39.328Z</time></trkpt><trkpt lat="42.7289239" lon="12.2718247"><ele>202.0</ele><time>2026-03-28T15:58:40.328Z</time></trkpt><trkpt lat="42.7289807" lon="12.2720412"><ele>205.0</ele><time>2026-03-28T15:58:41.327Z</time></trkpt><trkpt lat="42.7290589" lon="12.272247"><ele>208.0</ele><time>2026-03-28T15:58:42.328Z</time></trkpt><trkpt lat="42.7291587" lon="12.2724447"><ele>211.0</ele><time>2026-03-28T15:58:43.327Z</time></trkpt><trkpt lat="42.7292689" lon="12.2726345"><ele>214.0</ele><time>2026-03-28T15:58:44.328Z</time></trkpt><trkpt lat="42.7293693" lon="12.2728181"><ele>217.0</ele><time>2026-03-28T15:58:45.328Z</time></trkpt><trkpt lat="42.7294462" lon="12.2730013"><ele>212.33333333333331</ele><time>2026-03-28T15:58:46.327Z</time></trkpt><trkpt lat="42.729494" lon="12.2731892"><ele>207.66666666666669</ele><time>2026-03-28T15:58:47.328Z</time></trkpt><trkpt lat="42.7295152" lon="12.2733904"><ele>203.0</ele><time>2026-03-28T15:58:48.328Z</time></trkpt><trkpt lat="42.7295232" lon="12.2736042"><ele>203.0</ele><time>2026-03-28T15:58:49.328Z</time></trkpt><trkpt lat="42.7295297" lon="12.2738138"><ele>203.0</ele><time>2026-03-28T15:58:50.327Z</time></trkpt><trkpt lat="42.7295302" lon="12.2740141"><ele>203.0</ele><time>2026-03-28T15:58:51.328Z</time></trkpt><trkpt lat="42.7295401" lon="12.2742021"><ele>203.0</ele><time>2026-03-28T15:58:52.328Z</time></trkpt><trkpt lat="42.7296311" lon="12.2743615"><ele>205.66666666666669</ele><time>2026-03-28T15:58:53.327Z</time></trkpt><trkpt lat="42.7297129" lon="12.2745114"><ele>208.33333333333331</ele><time>2026-03-28T15:58:54.327Z</time></trkpt><trkpt lat="42.7298277" lon="12.2746543"><ele>211.0</ele><time>2026-03-28T15:58:55.328Z</time></trkpt><trkpt lat="42.7299556" lon="12.2748029"><ele>211.33333333333331</ele><time>2026-03-28T15:58:56.327Z</time></trkpt><trkpt lat="42.7300973" lon="12.2749535"><ele>211.66666666666669</ele><time>2026-03-28T15:58:57.328Z</time></trkpt><trkpt lat="42.7302538" lon="12.2751115"><ele>212.0</ele><time>2026-03-28T15:58:58.327Z</time></trkpt><trkpt lat="42.7304065" lon="12.2752748"><ele>212.0</ele><time>2026-03-28T15:58:59.328Z</time></trkpt><trkpt lat="42.7305671" lon="12.2754427"><ele>212.0</ele><time>2026-03-28T15:59:00.328Z</time></trkpt><trkpt lat="42.7307334" lon="12.2756111"><ele>212.0</ele><time>2026-03-28T15:59:01.328Z</time></trkpt><trkpt lat="42.7308974" lon="12.2757833"><ele>208.66666666666669</ele><time>2026-03-28T15:59:02.328Z</time></trkpt><trkpt lat="42.7310612" lon="12.2759448"><ele>205.33333333333331</ele><time>2026-03-28T15:59:03.327Z</time></trkpt><trkpt lat="42.7312203" lon="12.2760973"><ele>202.0</ele><time>2026-03-28T15:59:04.328Z</time></trkpt><trkpt lat="42.7313578" lon="12.2762537"><ele>202.0</ele><time>2026-03-28T15:59:05.328Z</time></trkpt><trkpt lat="42.7314924" lon="12.2763911"><ele>202.0</ele><time>2026-03-28T15:59:06.327Z</time></trkpt><trkpt lat="42.7315904" lon="12.2765537"><ele>202.0</ele><time>2026-03-28T15:59:07.328Z</time></trkpt><trkpt lat="42.7316577" lon="12.2767351"><ele>205.66666666666666</ele><time>2026-03-28T15:59:08.328Z</time></trkpt><trkpt lat="42.7317061" lon="12.2769412"><ele>209.33333333333331</ele><time>2026-03-28T15:59:09.328Z</time></trkpt><trkpt lat="42.7317399" lon="12.2771629"><ele>213.0</ele><time>2026-03-28T15:59:10.328Z</time></trkpt><trkpt lat="42.731762" lon="12.2773891"><ele>215.0</ele><time>2026-03-28T15:59:11.328Z</time></trkpt><trkpt lat="42.7317748" lon="12.2776131"><ele>217.0</ele><time>2026-03-28T15:59:12.327Z</time></trkpt><trkpt lat="42.7317928" lon="12.277826"><ele>219.0</ele><time>2026-03-28T15:59:13.328Z</time></trkpt><trkpt lat="42.7318084" lon="12.2780281"><ele>219.0</ele><time>2026-03-28T15:59:14.328Z</time></trkpt><trkpt lat="42.7318367" lon="12.2782163"><ele>219.0</ele><time>2026-03-28T15:59:15.327Z</time></trkpt><trkpt lat="42.7318884" lon="12.2784011"><ele>219.0</ele><time>2026-03-28T15:59:16.327Z</time></trkpt><trkpt lat="42.7319625" lon="12.2785766"><ele>219.0</ele><time>2026-03-28T15:59:17.328Z</time></trkpt><trkpt lat="42.7320634" lon="12.2787389"><ele>217.66666666666669</ele><time>2026-03-28T15:59:18.327Z</time></trkpt><trkpt lat="42.7321823" lon="12.2788973"><ele>216.33333333333334</ele><time>2026-03-28T15:59:19.328Z</time></trkpt><trkpt lat="42.7323131" lon="12.2790359"><ele>215.0</ele><time>2026-03-28T15:59:20.327Z</time></trkpt><trkpt lat="42.7324572" lon="12.2791971"><ele>215.0</ele><time>2026-03-28T15:59:21.327Z</time></trkpt><trkpt lat="42.7326006" lon="12.2793564"><ele>215.0</ele><time>2026-03-28T15:59:22.328Z</time></trkpt><trkpt lat="42.7327421" lon="12.2795244"><ele>215.0</ele><time>2026-03-28T15:59:23.327Z</time></trkpt><trkpt lat="42.7328826" lon="12.2796779"><ele>215.0</ele><time>2026-03-28T15:59:24.327Z</time></trkpt><trkpt lat="42.733028" lon="12.2798449"><ele>215.0</ele><time>2026-03-28T15:59:25.328Z</time></trkpt><trkpt lat="42.7331702" lon="12.2800149"><ele>215.0</ele><time>2026-03-28T15:59:26.327Z</time></trkpt><trkpt lat="42.7333035" lon="12.28019"><ele>215.0</ele><time>2026-03-28T15:59:27.328Z</time></trkpt><trkpt lat="42.7334233" lon="12.2803802"><ele>215.0</ele><time>2026-03-28T15:59:28.327Z</time></trkpt><trkpt lat="42.7335242" lon="12.2805788"><ele>215.0</ele><time>2026-03-28T15:59:29.328Z</time></trkpt><trkpt lat="42.7335954" lon="12.2807736"><ele>213.25</ele><time>2026-03-28T15:59:30.327Z</time></trkpt><trkpt lat="42.7336411" lon="12.2809782"><ele>211.5</ele><time>2026-03-28T15:59:31.328Z</time></trkpt><trkpt lat="42.7336478" lon="12.2811806"><ele>209.75</ele><time>2026-03-28T15:59:32.328Z</time></trkpt><trkpt lat="42.7336166" lon="12.2813653"><ele>208.0</ele><time>2026-03-28T15:59:33.328Z</time></trkpt><trkpt lat="42.7335635" lon="12.2815188"><ele>211.0</ele><time>2026-03-28T15:59:34.328Z</time></trkpt><trkpt lat="42.7334944" lon="12.2816444"><ele>214.0</ele><time>2026-03-28T15:59:35.328Z</time></trkpt><trkpt lat="42.7334291" lon="12.2817576"><ele>217.0</ele><time>2026-03-28T15:59:36.327Z</time></trkpt><trkpt lat="42.7333816" lon="12.2818936"><ele>220.0</ele><time>2026-03-28T15:59:37.328Z</time></trkpt><trkpt lat="42.7333549" lon="12.2820435"><ele>223.0</ele><time>2026-03-28T15:59:38.328Z</time></trkpt><trkpt lat="42.7333715" lon="12.282205"><ele>223.0</ele><time>2026-03-28T15:59:39.328Z</time></trkpt><trkpt lat="42.7334259" lon="12.2823412"><ele>223.0</ele><time>2026-03-28T15:59:40.327Z</time></trkpt><trkpt lat="42.7335117" lon="12.2824874"><ele>223.0</ele><time>2026-03-28T15:59:41.328Z</time></trkpt><trkpt lat="42.7336035" lon="12.2826288"><ele>223.0</ele><time>2026-03-28T15:59:42.328Z</time></trkpt><trkpt lat="42.7337156" lon="12.2827799"><ele>220.66666666666666</ele><time>2026-03-28T15:59:43.328Z</time></trkpt><trkpt lat="42.7338392" lon="12.2829174"><ele>218.33333333333331</ele><time>2026-03-28T15:59:44.327Z</time></trkpt><trkpt lat="42.7339649" lon="12.2830608"><ele>216.0</ele><time>2026-03-28T15:59:45.328Z</time></trkpt><trkpt lat="42.7340889" lon="12.2832096"><ele>216.0</ele><time>2026-03-28T15:59:46.328Z</time></trkpt><trkpt lat="42.7342179" lon="12.2833659"><ele>216.0</ele><time>2026-03-28T15:59:47.328Z</time></trkpt><trkpt lat="42.7343516" lon="12.283513"><ele>216.0</ele><time>2026-03-28T15:59:48.328Z</time></trkpt><trkpt lat="42.7344813" lon="12.2836785"><ele>214.33333333333331</ele><time>2026-03-28T15:59:49.328Z</time></trkpt><trkpt lat="42.7345894" lon="12.2838427"><ele>212.66666666666666</ele><time>2026-03-28T15:59:50.327Z</time></trkpt><trkpt lat="42.7346797" lon="12.2840289"><ele>211.0</ele><time>2026-03-28T15:59:51.328Z</time></trkpt><trkpt lat="42.7347568" lon="12.2842243"><ele>211.0</ele><time>2026-03-28T15:59:52.328Z</time></trkpt><trkpt lat="42.7348033" lon="12.2844299"><ele>211.0</ele><time>2026-03-28T15:59:53.328Z</time></trkpt><trkpt lat="42.7348442" lon="12.2846575"><ele>211.0</ele><time>2026-03-28T15:59:54.328Z</time></trkpt><trkpt lat="42.7348845" lon="12.2848888"><ele>212.66666666666666</ele><time>2026-03-28T15:59:55.328Z</time></trkpt><trkpt lat="42.7349201" lon="12.2851276"><ele>214.33333333333331</ele><time>2026-03-28T15:59:56.328Z</time></trkpt><trkpt lat="42.7349493" lon="12.2853673"><ele>216.0</ele><time>2026-03-28T15:59:57.328Z</time></trkpt><trkpt lat="42.7349785" lon="12.2856092"><ele>217.66666666666669</ele><time>2026-03-28T15:59:58.328Z</time></trkpt><trkpt lat="42.7350148" lon="12.285839"><ele>219.33333333333334</ele><time>2026-03-28T15:59:59.328Z</time></trkpt><trkpt lat="42.7350378" lon="12.2860565"><ele>221.0</ele><time>2026-03-28T16:00:00.328Z</time></trkpt><trkpt lat="42.7350409" lon="12.286258"><ele>219.75</ele><time>2026-03-28T16:00:01.328Z</time></trkpt><trkpt lat="42.7350231" lon="12.2864471"><ele>218.5</ele><time>2026-03-28T16:00:02.328Z</time></trkpt><trkpt lat="42.7349921" lon="12.286634"><ele>217.25</ele><time>2026-03-28T16:00:03.328Z</time></trkpt><trkpt lat="42.7349336" lon="12.2868154"><ele>216.0</ele><time>2026-03-28T16:00:04.328Z</time></trkpt><trkpt lat="42.734862" lon="12.286998"><ele>216.0</ele><time>2026-03-28T16:00:05.328Z</time></trkpt><trkpt lat="42.7347786" lon="12.287174"><ele>216.0</ele><time>2026-03-28T16:00:06.328Z</time></trkpt><trkpt lat="42.7346916" lon="12.2873458"><ele>216.0</ele><time>2026-03-28T16:00:07.327Z</time></trkpt><trkpt lat="42.7345886" lon="12.2875099"><ele>212.0</ele><time>2026-03-28T16:00:08.328Z</time></trkpt><trkpt lat="42.7344887" lon="12.287657"><ele>208.0</ele><time>2026-03-28T16:00:09.327Z</time></trkpt><trkpt lat="42.7343915" lon="12.2877934"><ele>204.0</ele><time>2026-03-28T16:00:10.328Z</time></trkpt><trkpt lat="42.7343222" lon="12.2879455"><ele>200.0</ele><time>2026-03-28T16:00:11.328Z</time></trkpt><trkpt lat="42.7342733" lon="12.2881069"><ele>208.5</ele><time>2026-03-28T16:00:12.328Z</time></trkpt><trkpt lat="42.7342487" lon="12.2882809"><ele>217.0</ele><time>2026-03-28T16:00:13.328Z</time></trkpt><trkpt lat="42.7342188" lon="12.2884551"><ele>225.5</ele><time>2026-03-28T16:00:14.328Z</time></trkpt><trkpt lat="42.7342019" lon="12.2886159"><ele>234.0</ele><time>2026-03-28T16:00:15.328Z</time></trkpt><trkpt lat="42.7341903" lon="12.2887675"><ele>234.0</ele><time>2026-03-28T16:00:16.328Z</time></trkpt><trkpt lat="42.7342039" lon="12.2888982"><ele>233.99999999999997</ele><time>2026-03-28T16:00:17.328Z</time></trkpt><trkpt lat="42.7342451" lon="12.2890255"><ele>233.99999999999997</ele><time>2026-03-28T16:00:18.328Z</time></trkpt><trkpt lat="42.734315" lon="12.289127"><ele>234.0</ele><time>2026-03-28T16:00:19.328Z</time></trkpt><trkpt lat="42.734403" lon="12.2892126"><ele>234.0</ele><time>2026-03-28T16:00:20.328Z</time></trkpt><trkpt lat="42.7345263" lon="12.2892504"><ele>228.5</ele><time>2026-03-28T16:00:21.328Z</time></trkpt><trkpt lat="42.7346376" lon="12.2892848"><ele>223.0</ele><time>2026-03-28T16:00:22.328Z</time></trkpt><trkpt lat="42.7347499" lon="12.2893244"><ele>217.5</ele><time>2026-03-28T16:00:23.328Z</time></trkpt><trkpt lat="42.7348697" lon="12.2893881"><ele>212.0</ele><time>2026-03-28T16:00:24.328Z</time></trkpt><trkpt lat="42.7349571" lon="12.2894617"><ele>212.0</ele><time>2026-03-28T16:00:25.327Z</time></trkpt><trkpt lat="42.7350213" lon="12.2895671"><ele>212.0</ele><time>2026-03-28T16:00:26.328Z</time></trkpt><trkpt lat="42.7350606" lon="12.2896904"><ele>212.0</ele><time>2026-03-28T16:00:27.328Z</time></trkpt><trkpt lat="42.7350831" lon="12.2898388"><ele>212.0</ele><time>2026-03-28T16:00:28.327Z</time></trkpt><trkpt lat="42.7350981" lon="12.2900066"><ele>212.0</ele><time>2026-03-28T16:00:29.328Z</time></trkpt><trkpt lat="42.7350987" lon="12.2901886"><ele>216.75</ele><time>2026-03-28T16:00:30.328Z</time></trkpt><trkpt lat="42.7351001" lon="12.2903753"><ele>221.5</ele><time>2026-03-28T16:00:31.328Z</time></trkpt><trkpt lat="42.7350897" lon="12.2905582"><ele>226.25</ele><time>2026-03-28T16:00:32.328Z</time></trkpt><trkpt lat="42.735068" lon="12.290732"><ele>231.0</ele><time>2026-03-28T16:00:33.327Z</time></trkpt><trkpt lat="42.7350381" lon="12.2908892"><ele>232.75</ele><time>2026-03-28T16:00:34.328Z</time></trkpt><trkpt lat="42.7350287" lon="12.291047"><ele>234.5</ele><time>2026-03-28T16:00:35.328Z</time></trkpt><trkpt lat="42.7350371" lon="12.2912059"><ele>236.25</ele><time>2026-03-28T16:00:36.328Z</time></trkpt><trkpt lat="42.7350759" lon="12.2913736"><ele>238.0</ele><time>2026-03-28T16:00:37.328Z</time></trkpt><trkpt lat="42.7351249" lon="12.2915468"><ele>239.0</ele><time>2026-03-28T16:00:38.327Z</time></trkpt><trkpt lat="42.7351847" lon="12.2917084"><ele>240.0</ele><time>2026-03-28T16:00:39.328Z</time></trkpt><trkpt lat="42.7352263" lon="12.2918789"><ele>241.0</ele><time>2026-03-28T16:00:40.328Z</time></trkpt><trkpt lat="42.7352641" lon="12.2920478"><ele>242.0</ele><time>2026-03-28T16:00:41.328Z</time></trkpt><trkpt lat="42.7352715" lon="12.2922299"><ele>243.33333333333334</ele><time>2026-03-28T16:00:42.328Z</time></trkpt><trkpt lat="42.7352645" lon="12.2924251"><ele>244.66666666666669</ele><time>2026-03-28T16:00:43.328Z</time></trkpt><trkpt lat="42.7352445" lon="12.2926299"><ele>246.0</ele><time>2026-03-28T16:00:44.328Z</time></trkpt><trkpt lat="42.7352185" lon="12.2928475"><ele>246.0</ele><time>2026-03-28T16:00:45.327Z</time></trkpt><trkpt lat="42.7351888" lon="12.2930697"><ele>246.0</ele><time>2026-03-28T16:00:46.327Z</time></trkpt><trkpt lat="42.7351541" lon="12.293292"><ele>246.0</ele><time>2026-03-28T16:00:47.328Z</time></trkpt><trkpt lat="42.7351278" lon="12.2935048"><ele>245.0</ele><time>2026-03-28T16:00:48.328Z</time></trkpt><trkpt lat="42.7351162" lon="12.2937088"><ele>244.0</ele><time>2026-03-28T16:00:49.328Z</time></trkpt><trkpt lat="42.7351043" lon="12.2938919"><ele>243.0</ele><time>2026-03-28T16:00:50.327Z</time></trkpt><trkpt lat="42.7350891" lon="12.294074"><ele>242.0</ele><time>2026-03-28T16:00:51.327Z</time></trkpt><trkpt lat="42.7350563" lon="12.2942412"><ele>237.75</ele><time>2026-03-28T16:00:52.327Z</time></trkpt><trkpt lat="42.734999" lon="12.2943957"><ele>233.5</ele><time>2026-03-28T16:00:53.328Z</time></trkpt><trkpt lat="42.7349221" lon="12.2945341"><ele>229.25</ele><time>2026-03-28T16:00:54.327Z</time></trkpt><trkpt lat="42.7348523" lon="12.2946671"><ele>225.0</ele><time>2026-03-28T16:00:55.328Z</time></trkpt><trkpt lat="42.734801" lon="12.2948132"><ele>222.25</ele><time>2026-03-28T16:00:56.328Z</time></trkpt><trkpt lat="42.7347796" lon="12.294982"><ele>219.5</ele><time>2026-03-28T16:00:57.328Z</time></trkpt><trkpt lat="42.734776" lon="12.2951702"><ele>216.75</ele><time>2026-03-28T16:00:58.328Z</time></trkpt><trkpt lat="42.7348009" lon="12.295379"><ele>214.0</ele><time>2026-03-28T16:00:59.328Z</time></trkpt><trkpt lat="42.7348181" lon="12.2955948"><ele>212.66666666666666</ele><time>2026-03-28T16:01:00.327Z</time></trkpt><trkpt lat="42.7348383" lon="12.2958074"><ele>211.33333333333331</ele><time>2026-03-28T16:01:01.328Z</time></trkpt><trkpt lat="42.7348565" lon="12.2960179"><ele>210.0</ele><time>2026-03-28T16:01:02.328Z</time></trkpt><trkpt lat="42.7348825" lon="12.2962185"><ele>210.0</ele><time>2026-03-28T16:01:03.328Z</time></trkpt><trkpt lat="42.7349195" lon="12.2964155"><ele>210.0</ele><time>2026-03-28T16:01:04.328Z</time></trkpt><trkpt lat="42.7349584" lon="12.2966006"><ele>210.0</ele><time>2026-03-28T16:01:05.327Z</time></trkpt><trkpt lat="42.7350003" lon="12.2967787"><ele>210.0</ele><time>2026-03-28T16:01:06.328Z</time></trkpt><trkpt lat="42.7350299" lon="12.2969491"><ele>210.75</ele><time>2026-03-28T16:01:07.328Z</time></trkpt><trkpt lat="42.7350391" lon="12.2971177"><ele>211.5</ele><time>2026-03-28T16:01:08.327Z</time></trkpt><trkpt lat="42.7350249" lon="12.2972923"><ele>212.25</ele><time>2026-03-28T16:01:09.327Z</time></trkpt><trkpt lat="42.7349816" lon="12.2974758"><ele>213.0</ele><time>2026-03-28T16:01:10.328Z</time></trkpt><trkpt lat="42.7349175" lon="12.2976503"><ele>213.0</ele><time>2026-03-28T16:01:11.328Z</time></trkpt><trkpt lat="42.7348493" lon="12.2978155"><ele>213.0</ele><time>2026-03-28T16:01:12.328Z</time></trkpt><trkpt lat="42.7347738" lon="12.2979671"><ele>213.0</ele><time>2026-03-28T16:01:13.328Z</time></trkpt><trkpt lat="42.7347256" lon="12.2981171"><ele>213.0</ele><time>2026-03-28T16:01:14.328Z</time></trkpt><trkpt lat="42.7346817" lon="12.29827"><ele>211.0</ele><time>2026-03-28T16:01:15.327Z</time></trkpt><trkpt lat="42.7347287" lon="12.2984419"><ele>209.0</ele><time>2026-03-28T16:01:16.328Z</time></trkpt><trkpt lat="42.7347538" lon="12.2986003"><ele>207.0</ele><time>2026-03-28T16:01:17.328Z</time></trkpt><trkpt lat="42.7347856" lon="12.2987551"><ele>205.0</ele><time>2026-03-28T16:01:18.327Z</time></trkpt><trkpt lat="42.7348029" lon="12.2989054"><ele>203.75</ele><time>2026-03-28T16:01:19.328Z</time></trkpt><trkpt lat="42.7348023" lon="12.2990657"><ele>202.5</ele><time>2026-03-28T16:01:20.327Z</time></trkpt><trkpt lat="42.7347628" lon="12.2992237"><ele>201.25</ele><time>2026-03-28T16:01:21.328Z</time></trkpt><trkpt lat="42.7346645" lon="12.2993718"><ele>200.0</ele><time>2026-03-28T16:01:22.327Z</time></trkpt><trkpt lat="42.7345627" lon="12.29952"><ele>200.0</ele><time>2026-03-28T16:01:23.328Z</time></trkpt><trkpt lat="42.7344595" lon="12.2996753"><ele>200.0</ele><time>2026-03-28T16:01:24.327Z</time></trkpt><trkpt lat="42.7343501" lon="12.2998137"><ele>200.0</ele><time>2026-03-28T16:01:25.327Z</time></trkpt><trkpt lat="42.7342284" lon="12.2999323"><ele>200.75</ele><time>2026-03-28T16:01:26.328Z</time></trkpt><trkpt lat="42.7340936" lon="12.3000347"><ele>201.5</ele><time>2026-03-28T16:01:27.328Z</time></trkpt><trkpt lat="42.7339559" lon="12.300114"><ele>202.25</ele><time>2026-03-28T16:01:28.328Z</time></trkpt><trkpt lat="42.7338286" lon="12.3002029"><ele>203.0</ele><time>2026-03-28T16:01:29.327Z</time></trkpt><trkpt lat="42.7337208" lon="12.3003036"><ele>203.0</ele><time>2026-03-28T16:01:30.328Z</time></trkpt><trkpt lat="42.7336229" lon="12.3004366"><ele>203.0</ele><time>2026-03-28T16:01:31.328Z</time></trkpt><trkpt lat="42.7335501" lon="12.3006157"><ele>203.0</ele><time>2026-03-28T16:01:32.328Z</time></trkpt><trkpt lat="42.7334922" lon="12.3008059"><ele>203.0</ele><time>2026-03-28T16:01:33.328Z</time></trkpt><trkpt lat="42.7334349" lon="12.3010001"><ele>205.5</ele><time>2026-03-28T16:01:34.328Z</time></trkpt><trkpt lat="42.7333667" lon="12.301175"><ele>208.0</ele><time>2026-03-28T16:01:35.328Z</time></trkpt><trkpt lat="42.7332826" lon="12.301331"><ele>210.5</ele><time>2026-03-28T16:01:36.327Z</time></trkpt><trkpt lat="42.7331911" lon="12.3014768"><ele>213.0</ele><time>2026-03-28T16:01:37.327Z</time></trkpt><trkpt lat="42.7330509" lon="12.3015649"><ele>210.0</ele><time>2026-03-28T16:01:38.327Z</time></trkpt><trkpt lat="42.7329147" lon="12.3016395"><ele>207.0</ele><time>2026-03-28T16:01:39.328Z</time></trkpt><trkpt lat="42.7327681" lon="12.3017084"><ele>204.0</ele><time>2026-03-28T16:01:40.328Z</time></trkpt><trkpt lat="42.7326217" lon="12.3017429"><ele>204.0</ele><time>2026-03-28T16:01:41.328Z</time></trkpt><trkpt lat="42.7324781" lon="12.3017586"><ele>204.0</ele><time>2026-03-28T16:01:42.327Z</time></trkpt><trkpt lat="42.7323416" lon="12.3017731"><ele>204.0</ele><time>2026-03-28T16:01:43.327Z</time></trkpt><trkpt lat="42.7322143" lon="12.3018128"><ele>204.0</ele><time>2026-03-28T16:01:44.327Z</time></trkpt><trkpt lat="42.7321072" lon="12.3018966"><ele>204.0</ele><time>2026-03-28T16:01:45.328Z</time></trkpt><trkpt lat="42.7320059" lon="12.302015"><ele>204.0</ele><time>2026-03-28T16:01:46.328Z</time></trkpt><trkpt lat="42.7319307" lon="12.3021645"><ele>204.0</ele><time>2026-03-28T16:01:47.328Z</time></trkpt><trkpt lat="42.7318777" lon="12.3023373"><ele>204.0</ele><time>2026-03-28T16:01:48.328Z</time></trkpt><trkpt lat="42.7318391" lon="12.3025314"><ele>204.0</ele><time>2026-03-28T16:01:49.328Z</time></trkpt><trkpt lat="42.7318028" lon="12.3027215"><ele>204.0</ele><time>2026-03-28T16:01:50.328Z</time></trkpt><trkpt lat="42.7317803" lon="12.3028951"><ele>204.0</ele><time>2026-03-28T16:01:51.328Z</time></trkpt><trkpt lat="42.7317371" lon="12.3030404"><ele>204.0</ele><time>2026-03-28T16:01:52.328Z</time></trkpt><trkpt lat="42.731677" lon="12.3031677"><ele>199.75</ele><time>2026-03-28T16:01:53.328Z</time></trkpt><trkpt lat="42.7315904" lon="12.3032706"><ele>195.5</ele><time>2026-03-28T16:01:54.328Z</time></trkpt><trkpt lat="42.7315028" lon="12.3033658"><ele>191.25</ele><time>2026-03-28T16:01:55.327Z</time></trkpt><trkpt lat="42.7313765" lon="12.3034433"><ele>187.0</ele><time>2026-03-28T16:01:56.328Z</time></trkpt><trkpt lat="42.7312703" lon="12.303523"><ele>187.0</ele><time>2026-03-28T16:01:57.327Z</time></trkpt><trkpt lat="42.7311706" lon="12.3036265"><ele>187.0</ele><time>2026-03-28T16:01:58.328Z</time></trkpt><trkpt lat="42.7310957" lon="12.3037916"><ele>187.0</ele><time>2026-03-28T16:01:59.327Z</time></trkpt><trkpt lat="42.731045" lon="12.3039904"><ele>187.0</ele><time>2026-03-28T16:02:00.327Z</time></trkpt><trkpt lat="42.7309943" lon="12.3041994"><ele>191.66666666666669</ele><time>2026-03-28T16:02:01.328Z</time></trkpt><trkpt lat="42.7309587" lon="12.3044133"><ele>196.33333333333334</ele><time>2026-03-28T16:02:02.328Z</time></trkpt><trkpt lat="42.7309247" lon="12.3046287"><ele>201.0</ele><time>2026-03-28T16:02:03.328Z</time></trkpt><trkpt lat="42.7308775" lon="12.3048511"><ele>201.0</ele><time>2026-03-28T16:02:04.328Z</time></trkpt><trkpt lat="42.7308298" lon="12.3050713"><ele>201.0</ele><time>2026-03-28T16:02:05.327Z</time></trkpt><trkpt lat="42.7308036" lon="12.3053297"><ele>201.0</ele><time>2026-03-28T16:02:06.327Z</time></trkpt><trkpt lat="42.7308372" lon="12.3055836"><ele>198.66666666666669</ele><time>2026-03-28T16:02:07.328Z</time></trkpt><trkpt lat="42.7308287" lon="12.3058404"><ele>196.33333333333334</ele><time>2026-03-28T16:02:08.328Z</time></trkpt><trkpt lat="42.7308228" lon="12.3060963"><ele>194.0</ele><time>2026-03-28T16:02:09.327Z</time></trkpt><trkpt lat="42.7308268" lon="12.30634"><ele>192.66666666666669</ele><time>2026-03-28T16:02:10.328Z</time></trkpt><trkpt lat="42.7308198" lon="12.3065705"><ele>191.33333333333334</ele><time>2026-03-28T16:02:11.328Z</time></trkpt><trkpt lat="42.730823" lon="12.3067795"><ele>190.0</ele><time>2026-03-28T16:02:12.328Z</time></trkpt><trkpt lat="42.7308368" lon="12.306971"><ele>190.0</ele><time>2026-03-28T16:02:13.328Z</time></trkpt><trkpt lat="42.7308451" lon="12.3071306"><ele>190.0</ele><time>2026-03-28T16:02:14.328Z</time></trkpt><trkpt lat="42.7308282" lon="12.307223"><ele>190.0</ele><time>2026-03-28T16:02:15.327Z</time></trkpt><trkpt lat="42.7308089" lon="12.3073592"><ele>190.0</ele><time>2026-03-28T16:02:16.328Z</time></trkpt><trkpt lat="42.7307657" lon="12.3074815"><ele>190.0</ele><time>2026-03-28T16:02:17.328Z</time></trkpt><trkpt lat="42.730699" lon="12.3075982"><ele>189.0</ele><time>2026-03-28T16:02:18.328Z</time></trkpt><trkpt lat="42.7306019" lon="12.3076969"><ele>188.0</ele><time>2026-03-28T16:02:19.327Z</time></trkpt><trkpt lat="42.7304864" lon="12.3077891"><ele>187.0</ele><time>2026-03-28T16:02:20.328Z</time></trkpt><trkpt lat="42.7303539" lon="12.3078663"><ele>186.0</ele><time>2026-03-28T16:02:21.328Z</time></trkpt><trkpt lat="42.7302073" lon="12.3079432"><ele>186.0</ele><time>2026-03-28T16:02:22.328Z</time></trkpt><trkpt lat="42.7300535" lon="12.3080183"><ele>186.0</ele><time>2026-03-28T16:02:23.328Z</time></trkpt><trkpt lat="42.7298958" lon="12.3080933"><ele>186.0</ele><time>2026-03-28T16:02:24.328Z</time></trkpt><trkpt lat="42.7297512" lon="12.3081674"><ele>181.0</ele><time>2026-03-28T16:02:25.328Z</time></trkpt><trkpt lat="42.7296269" lon="12.308241"><ele>176.0</ele><time>2026-03-28T16:02:26.328Z</time></trkpt><trkpt lat="42.7295288" lon="12.3083452"><ele>171.0</ele><time>2026-03-28T16:02:27.328Z</time></trkpt><trkpt lat="42.7294407" lon="12.3084651"><ele>166.0</ele><time>2026-03-28T16:02:28.327Z</time></trkpt><trkpt lat="42.7293521" lon="12.308596"><ele>165.0</ele><time>2026-03-28T16:02:29.328Z</time></trkpt><trkpt lat="42.7292939" lon="12.3087341"><ele>164.0</ele><time>2026-03-28T16:02:30.327Z</time></trkpt><trkpt lat="42.7292154" lon="12.30888"><ele>163.0</ele><time>2026-03-28T16:02:31.327Z</time></trkpt><trkpt lat="42.7291551" lon="12.3090148"><ele>162.0</ele><time>2026-03-28T16:02:32.328Z</time></trkpt><trkpt lat="42.7291029" lon="12.3091508"><ele>165.0</ele><time>2026-03-28T16:02:33.328Z</time></trkpt><trkpt lat="42.7290772" lon="12.3092851"><ele>168.0</ele><time>2026-03-28T16:02:34.328Z</time></trkpt><trkpt lat="42.7290822" lon="12.3094299"><ele>171.0</ele><time>2026-03-28T16:02:35.328Z</time></trkpt><trkpt lat="42.7290943" lon="12.3095581"><ele>174.0</ele><time>2026-03-28T16:02:36.327Z</time></trkpt><trkpt lat="42.7291912" lon="12.3096872"><ele>177.0</ele><time>2026-03-28T16:02:37.328Z</time></trkpt><trkpt lat="42.7293151" lon="12.3097852"><ele>178.0</ele><time>2026-03-28T16:02:38.328Z</time></trkpt><trkpt lat="42.7294487" lon="12.3098733"><ele>179.0</ele><time>2026-03-28T16:02:39.328Z</time></trkpt><trkpt lat="42.7296044" lon="12.3099484"><ele>180.0</ele><time>2026-03-28T16:02:40.327Z</time></trkpt><trkpt lat="42.7297459" lon="12.3100397"><ele>180.0</ele><time>2026-03-28T16:02:41.328Z</time></trkpt><trkpt lat="42.7298781" lon="12.3101424"><ele>180.0</ele><time>2026-03-28T16:02:42.327Z</time></trkpt><trkpt lat="42.7300056" lon="12.3102503"><ele>180.0</ele><time>2026-03-28T16:02:43.328Z</time></trkpt><trkpt lat="42.7301633" lon="12.3103601"><ele>182.33333333333334</ele><time>2026-03-28T16:02:44.327Z</time></trkpt><trkpt lat="42.7303218" lon="12.3104455"><ele>184.66666666666669</ele><time>2026-03-28T16:02:45.328Z</time></trkpt><trkpt lat="42.7305074" lon="12.3105282"><ele>187.0</ele><time>2026-03-28T16:02:46.328Z</time></trkpt><trkpt lat="42.7307016" lon="12.310616"><ele>187.0</ele><time>2026-03-28T16:02:47.328Z</time></trkpt><trkpt lat="42.7308919" lon="12.3106956"><ele>187.0</ele><time>2026-03-28T16:02:48.327Z</time></trkpt><trkpt lat="42.7310835" lon="12.3107608"><ele>187.0</ele><time>2026-03-28T16:02:49.328Z</time></trkpt><trkpt lat="42.7312716" lon="12.3108363"><ele>184.33333333333334</ele><time>2026-03-28T16:02:50.328Z</time></trkpt><trkpt lat="42.7314579" lon="12.310907"><ele>181.66666666666666</ele><time>2026-03-28T16:02:51.327Z</time></trkpt><trkpt lat="42.7316512" lon="12.3109774"><ele>179.0</ele><time>2026-03-28T16:02:52.328Z</time></trkpt><trkpt lat="42.7318344" lon="12.3110445"><ele>172.0</ele><time>2026-03-28T16:02:53.328Z</time></trkpt><trkpt lat="42.7319549" lon="12.3110791"><ele>165.0</ele><time>2026-03-28T16:02:54.328Z</time></trkpt><trkpt lat="42.7320981" lon="12.3111248"><ele>158.0</ele><time>2026-03-28T16:02:55.327Z</time></trkpt><trkpt lat="42.7321824" lon="12.3111519"><ele>151.0</ele><time>2026-03-28T16:02:56.328Z</time></trkpt><trkpt lat="42.7322745" lon="12.3112021"><ele>151.0</ele><time>2026-03-28T16:02:57.328Z</time></trkpt><trkpt lat="42.7323572" lon="12.3113034"><ele>151.0</ele><time>2026-03-28T16:02:58.327Z</time></trkpt><trkpt lat="42.7323815" lon="12.3114332"><ele>151.0</ele><time>2026-03-28T16:02:59.328Z</time></trkpt><trkpt lat="42.7324114" lon="12.3115808"><ele>151.0</ele><time>2026-03-28T16:03:00.328Z</time></trkpt><trkpt lat="42.7324396" lon="12.3117438"><ele>151.0</ele><time>2026-03-28T16:03:01.328Z</time></trkpt><trkpt lat="42.7324689" lon="12.3119155"><ele>156.25</ele><time>2026-03-28T16:03:02.328Z</time></trkpt><trkpt lat="42.732513" lon="12.3120727"><ele>161.5</ele><time>2026-03-28T16:03:03.327Z</time></trkpt><trkpt lat="42.732555" lon="12.3122444"><ele>166.75</ele><time>2026-03-28T16:03:04.328Z</time></trkpt><trkpt lat="42.7326002" lon="12.3124085"><ele>172.0</ele><time>2026-03-28T16:03:05.327Z</time></trkpt><trkpt lat="42.7326543" lon="12.3125635"><ele>169.25</ele><time>2026-03-28T16:03:06.328Z</time></trkpt><trkpt lat="42.7327757" lon="12.3126911"><ele>166.5</ele><time>2026-03-28T16:03:07.328Z</time></trkpt><trkpt lat="42.7329101" lon="12.3127642"><ele>163.75</ele><time>2026-03-28T16:03:08.328Z</time></trkpt><trkpt lat="42.7330403" lon="12.3127677"><ele>161.0</ele><time>2026-03-28T16:03:09.328Z</time></trkpt><trkpt lat="42.7331743" lon="12.3128182"><ele>161.0</ele><time>2026-03-28T16:03:10.328Z</time></trkpt><trkpt lat="42.7332987" lon="12.3128786"><ele>161.0</ele><time>2026-03-28T16:03:11.328Z</time></trkpt><trkpt lat="42.7334226" lon="12.3129444"><ele>161.0</ele><time>2026-03-28T16:03:12.328Z</time></trkpt><trkpt lat="42.7335363" lon="12.3130004"><ele>161.0</ele><time>2026-03-28T16:03:13.327Z</time></trkpt><trkpt lat="42.7336443" lon="12.3130652"><ele>159.8</ele><time>2026-03-28T16:03:14.328Z</time></trkpt><trkpt lat="42.7337495" lon="12.3131193"><ele>158.60000000000002</ele><time>2026-03-28T16:03:15.328Z</time></trkpt><trkpt lat="42.7338385" lon="12.3131805"><ele>157.4</ele><time>2026-03-28T16:03:16.328Z</time></trkpt><trkpt lat="42.7339105" lon="12.3132516"><ele>156.2</ele><time>2026-03-28T16:03:17.328Z</time></trkpt><trkpt lat="42.7339669" lon="12.3133428"><ele>155.0</ele><time>2026-03-28T16:03:18.328Z</time></trkpt><trkpt lat="42.7340018" lon="12.3134437"><ele>155.0</ele><time>2026-03-28T16:03:19.328Z</time></trkpt><trkpt lat="42.7340276" lon="12.3135525"><ele>155.0</ele><time>2026-03-28T16:03:20.328Z</time></trkpt><trkpt lat="42.7340393" lon="12.3136611"><ele>155.0</ele><time>2026-03-28T16:03:21.328Z</time></trkpt><trkpt lat="42.734041" lon="12.313777"><ele>155.0</ele><time>2026-03-28T16:03:22.328Z</time></trkpt><trkpt lat="42.7340303" lon="12.3138949"><ele>155.0</ele><time>2026-03-28T16:03:23.328Z</time></trkpt><trkpt lat="42.734026" lon="12.3140176"><ele>155.0</ele><time>2026-03-28T16:03:24.328Z</time></trkpt><trkpt lat="42.7340213" lon="12.314137"><ele>156.6</ele><time>2026-03-28T16:03:25.328Z</time></trkpt><trkpt lat="42.7340247" lon="12.3142615"><ele>158.2</ele><time>2026-03-28T16:03:26.327Z</time></trkpt><trkpt lat="42.7340278" lon="12.3143873"><ele>159.8</ele><time>2026-03-28T16:03:27.328Z</time></trkpt><trkpt lat="42.7340416" lon="12.3145162"><ele>161.4</ele><time>2026-03-28T16:03:28.327Z</time></trkpt><trkpt lat="42.7340523" lon="12.3146447"><ele>163.0</ele><time>2026-03-28T16:03:29.328Z</time></trkpt><trkpt lat="42.734073" lon="12.3147697"><ele>164.60000000000002</ele><time>2026-03-28T16:03:30.328Z</time></trkpt><trkpt lat="42.7341049" lon="12.3149021"><ele>166.20000000000002</ele><time>2026-03-28T16:03:31.328Z</time></trkpt><trkpt lat="42.7341429" lon="12.315025"><ele>167.8</ele><time>2026-03-28T16:03:32.328Z</time></trkpt><trkpt lat="42.7341996" lon="12.315147"><ele>169.4</ele><time>2026-03-28T16:03:33.327Z</time></trkpt><trkpt lat="42.7342716" lon="12.3152762"><ele>171.0</ele><time>2026-03-28T16:03:34.327Z</time></trkpt><trkpt lat="42.7343386" lon="12.3154058"><ele>169.0</ele><time>2026-03-28T16:03:35.328Z</time></trkpt><trkpt lat="42.7344175" lon="12.3155387"><ele>167.0</ele><time>2026-03-28T16:03:36.328Z</time></trkpt><trkpt lat="42.7344903" lon="12.3156608"><ele>165.0</ele><time>2026-03-28T16:03:37.328Z</time></trkpt><trkpt lat="42.7345631" lon="12.3157797"><ele>163.0</ele><time>2026-03-28T16:03:38.328Z</time></trkpt><trkpt lat="42.7346431" lon="12.3158808"><ele>163.0</ele><time>2026-03-28T16:03:39.328Z</time></trkpt><trkpt lat="42.7347109" lon="12.3159605"><ele>163.0</ele><time>2026-03-28T16:03:40.327Z</time></trkpt><trkpt lat="42.7347916" lon="12.3160244"><ele>163.0</ele><time>2026-03-28T16:03:41.327Z</time></trkpt><trkpt lat="42.734877" lon="12.3160778"><ele>163.0</ele><time>2026-03-28T16:03:42.328Z</time></trkpt><trkpt lat="42.7349862" lon="12.3161205"><ele>163.0</ele><time>2026-03-28T16:03:43.328Z</time></trkpt><trkpt lat="42.7350988" lon="12.3161562"><ele>163.0</ele><time>2026-03-28T16:03:44.327Z</time></trkpt><trkpt lat="42.7352186" lon="12.3162113"><ele>163.0</ele><time>2026-03-28T16:03:45.328Z</time></trkpt><trkpt lat="42.7353434" lon="12.3162576"><ele>163.0</ele><time>2026-03-28T16:03:46.328Z</time></trkpt><trkpt lat="42.7354808" lon="12.3163128"><ele>163.0</ele><time>2026-03-28T16:03:47.328Z</time></trkpt><trkpt lat="42.735616" lon="12.3163657"><ele>162.25</ele><time>2026-03-28T16:03:48.327Z</time></trkpt><trkpt lat="42.7357467" lon="12.3164195"><ele>161.5</ele><time>2026-03-28T16:03:49.327Z</time></trkpt><trkpt lat="42.7358817" lon="12.3164713"><ele>160.75</ele><time>2026-03-28T16:03:50.328Z</time></trkpt><trkpt lat="42.7360179" lon="12.3165297"><ele>160.0</ele><time>2026-03-28T16:03:51.328Z</time></trkpt><trkpt lat="42.7361579" lon="12.3165817"><ele>160.0</ele><time>2026-03-28T16:03:52.328Z</time></trkpt><trkpt lat="42.7362991" lon="12.3166372"><ele>160.0</ele><time>2026-03-28T16:03:53.328Z</time></trkpt><trkpt lat="42.7364443" lon="12.3166939"><ele>160.0</ele><time>2026-03-28T16:03:54.328Z</time></trkpt><trkpt lat="42.736591" lon="12.316741"><ele>160.0</ele><time>2026-03-28T16:03:55.328Z</time></trkpt><trkpt lat="42.7367461" lon="12.3167892"><ele>157.66666666666669</ele><time>2026-03-28T16:03:56.328Z</time></trkpt><trkpt lat="42.7368994" lon="12.3168277"><ele>155.33333333333334</ele><time>2026-03-28T16:03:57.328Z</time></trkpt><trkpt lat="42.737065" lon="12.316859"><ele>153.0</ele><time>2026-03-28T16:03:58.328Z</time></trkpt><trkpt lat="42.7372295" lon="12.3168784"><ele>153.0</ele><time>2026-03-28T16:03:59.328Z</time></trkpt><trkpt lat="42.7373757" lon="12.3168745"><ele>153.0</ele><time>2026-03-28T16:04:00.328Z</time></trkpt><trkpt lat="42.7375097" lon="12.3168258"><ele>153.0</ele><time>2026-03-28T16:04:01.328Z</time></trkpt><trkpt lat="42.737645" lon="12.3167671"><ele>153.0</ele><time>2026-03-28T16:04:02.328Z</time></trkpt><trkpt lat="42.7377777" lon="12.3166583"><ele>154.0</ele><time>2026-03-28T16:04:03.328Z</time></trkpt><trkpt lat="42.7379083" lon="12.3165306"><ele>155.0</ele><time>2026-03-28T16:04:04.328Z</time></trkpt><trkpt lat="42.7380333" lon="12.3163973"><ele>156.0</ele><time>2026-03-28T16:04:05.328Z</time></trkpt><trkpt lat="42.7381598" lon="12.3162683"><ele>153.75</ele><time>2026-03-28T16:04:06.328Z</time></trkpt><trkpt lat="42.7383013" lon="12.3161982"><ele>151.5</ele><time>2026-03-28T16:04:07.328Z</time></trkpt><trkpt lat="42.738433" lon="12.3161246"><ele>149.25</ele><time>2026-03-28T16:04:08.328Z</time></trkpt><trkpt lat="42.7385679" lon="12.3160727"><ele>147.0</ele><time>2026-03-28T16:04:09.327Z</time></trkpt><trkpt lat="42.7387097" lon="12.3160533"><ele>147.0</ele><time>2026-03-28T16:04:10.327Z</time></trkpt><trkpt lat="42.7388499" lon="12.3160598"><ele>147.0</ele><time>2026-03-28T16:04:11.328Z</time></trkpt><trkpt lat="42.7390028" lon="12.3161077"><ele>147.0</ele><time>2026-03-28T16:04:12.328Z</time></trkpt><trkpt lat="42.739143" lon="12.3161813"><ele>147.0</ele><time>2026-03-28T16:04:13.327Z</time></trkpt><trkpt lat="42.7392731" lon="12.3162792"><ele>145.33333333333334</ele><time>2026-03-28T16:04:14.328Z</time></trkpt><trkpt lat="42.739395" lon="12.3164065"><ele>143.66666666666669</ele><time>2026-03-28T16:04:15.328Z</time></trkpt><trkpt lat="42.7395065" lon="12.3165507"><ele>142.0</ele><time>2026-03-28T16:04:16.328Z</time></trkpt><trkpt lat="42.7396082" lon="12.3167118"><ele>142.0</ele><time>2026-03-28T16:04:17.328Z</time></trkpt><trkpt lat="42.7397019" lon="12.3168841"><ele>142.0</ele><time>2026-03-28T16:04:18.328Z</time></trkpt><trkpt lat="42.7397709" lon="12.3170776"><ele>142.0</ele><time>2026-03-28T16:04:19.328Z</time></trkpt><trkpt lat="42.739793" lon="12.3172947"><ele>142.66666666666669</ele><time>2026-03-28T16:04:20.328Z</time></trkpt><trkpt lat="42.7398243" lon="12.317513"><ele>143.33333333333334</ele><time>2026-03-28T16:04:21.328Z</time></trkpt><trkpt lat="42.7398517" lon="12.3177433"><ele>144.0</ele><time>2026-03-28T16:04:22.328Z</time></trkpt><trkpt lat="42.7398673" lon="12.3179799"><ele>143.66666666666666</ele><time>2026-03-28T16:04:23.327Z</time></trkpt><trkpt lat="42.7398827" lon="12.318209"><ele>143.33333333333331</ele><time>2026-03-28T16:04:24.328Z</time></trkpt><trkpt lat="42.7398962" lon="12.3184345"><ele>143.0</ele><time>2026-03-28T16:04:25.328Z</time></trkpt><trkpt lat="42.7399118" lon="12.3186555"><ele>143.0</ele><time>2026-03-28T16:04:26.328Z</time></trkpt><trkpt lat="42.7399298" lon="12.3188724"><ele>143.0</ele><time>2026-03-28T16:04:27.328Z</time></trkpt><trkpt lat="42.7399431" lon="12.3190738"><ele>143.0</ele><time>2026-03-28T16:04:28.328Z</time></trkpt><trkpt lat="42.7399564" lon="12.3192521"><ele>143.0</ele><time>2026-03-28T16:04:29.328Z</time></trkpt><trkpt lat="42.7399823" lon="12.3194164"><ele>143.25</ele><time>2026-03-28T16:04:30.327Z</time></trkpt><trkpt lat="42.7400461" lon="12.3195715"><ele>143.5</ele><time>2026-03-28T16:04:31.328Z</time></trkpt><trkpt lat="42.7401149" lon="12.3197038"><ele>143.75</ele><time>2026-03-28T16:04:32.328Z</time></trkpt><trkpt lat="42.7402389" lon="12.3198161"><ele>144.0</ele><time>2026-03-28T16:04:33.328Z</time></trkpt><trkpt lat="42.7403615" lon="12.3199185"><ele>144.0</ele><time>2026-03-28T16:04:34.328Z</time></trkpt><trkpt lat="42.7404963" lon="12.3200178"><ele>144.0</ele><time>2026-03-28T16:04:35.328Z</time></trkpt><trkpt lat="42.7406345" lon="12.3201045"><ele>144.0</ele><time>2026-03-28T16:04:36.327Z</time></trkpt><trkpt lat="42.7407722" lon="12.3201941"><ele>144.0</ele><time>2026-03-28T16:04:37.328Z</time></trkpt><trkpt lat="42.7409139" lon="12.3203012"><ele>144.0</ele><time>2026-03-28T16:04:38.328Z</time></trkpt><trkpt lat="42.7410483" lon="12.3204279"><ele>144.0</ele><time>2026-03-28T16:04:39.327Z</time></trkpt><trkpt lat="42.741171" lon="12.3205697"><ele>142.66666666666666</ele><time>2026-03-28T16:04:40.327Z</time></trkpt><trkpt lat="42.7412782" lon="12.3207448"><ele>141.33333333333331</ele><time>2026-03-28T16:04:41.328Z</time></trkpt><trkpt lat="42.7413685" lon="12.3209316"><ele>140.0</ele><time>2026-03-28T16:04:42.327Z</time></trkpt><trkpt lat="42.7414394" lon="12.3211252"><ele>140.0</ele><time>2026-03-28T16:04:43.328Z</time></trkpt><trkpt lat="42.741496" lon="12.3213043"><ele>140.0</ele><time>2026-03-28T16:04:44.328Z</time></trkpt><trkpt lat="42.7415563" lon="12.3214515"><ele>140.0</ele><time>2026-03-28T16:04:45.327Z</time></trkpt><trkpt lat="42.7416373" lon="12.321552"><ele>140.0</ele><time>2026-03-28T16:04:46.328Z</time></trkpt><trkpt lat="42.7417294" lon="12.3216184"><ele>139.25</ele><time>2026-03-28T16:04:47.328Z</time></trkpt><trkpt lat="42.7418518" lon="12.3216412"><ele>138.5</ele><time>2026-03-28T16:04:48.327Z</time></trkpt><trkpt lat="42.7419662" lon="12.321664"><ele>137.75</ele><time>2026-03-28T16:04:49.327Z</time></trkpt><trkpt lat="42.7420841" lon="12.321729"><ele>137.0</ele><time>2026-03-28T16:04:50.327Z</time></trkpt><trkpt lat="42.7421918" lon="12.321798"><ele>137.0</ele><time>2026-03-28T16:04:51.328Z</time></trkpt><trkpt lat="42.7423059" lon="12.3218883"><ele>137.0</ele><time>2026-03-28T16:04:52.328Z</time></trkpt><trkpt lat="42.7424217" lon="12.3219907"><ele>137.0</ele><time>2026-03-28T16:04:53.328Z</time></trkpt><trkpt lat="42.7425408" lon="12.3221101"><ele>137.0</ele><time>2026-03-28T16:04:54.327Z</time></trkpt><trkpt lat="42.742674" lon="12.3222389"><ele>137.66666666666666</ele><time>2026-03-28T16:04:55.328Z</time></trkpt><trkpt lat="42.7428075" lon="12.3223685"><ele>138.33333333333334</ele><time>2026-03-28T16:04:56.327Z</time></trkpt><trkpt lat="42.7429506" lon="12.322494"><ele>139.0</ele><time>2026-03-28T16:04:57.328Z</time></trkpt><trkpt lat="42.7430979" lon="12.3226191"><ele>139.0</ele><time>2026-03-28T16:04:58.328Z</time></trkpt><trkpt lat="42.7432593" lon="12.3227193"><ele>139.0</ele><time>2026-03-28T16:04:59.327Z</time></trkpt><trkpt lat="42.7434191" lon="12.3228183"><ele>139.0</ele><time>2026-03-28T16:05:00.328Z</time></trkpt><trkpt lat="42.7435864" lon="12.3228972"><ele>137.66666666666669</ele><time>2026-03-28T16:05:01.328Z</time></trkpt><trkpt lat="42.7437543" lon="12.3229797"><ele>136.33333333333334</ele><time>2026-03-28T16:05:02.328Z</time></trkpt><trkpt lat="42.7439074" lon="12.3230991"><ele>135.0</ele><time>2026-03-28T16:05:03.328Z</time></trkpt><trkpt lat="42.7440478" lon="12.3232345"><ele>135.0</ele><time>2026-03-28T16:05:04.327Z</time></trkpt><trkpt lat="42.7441741" lon="12.3234074"><ele>135.0</ele><time>2026-03-28T16:05:05.328Z</time></trkpt><trkpt lat="42.7442939" lon="12.3235919"><ele>135.0</ele><time>2026-03-28T16:05:06.328Z</time></trkpt><trkpt lat="42.7444105" lon="12.3237972"><ele>136.0</ele><time>2026-03-28T16:05:07.328Z</time></trkpt><trkpt lat="42.7445252" lon="12.3240027"><ele>137.0</ele><time>2026-03-28T16:05:08.328Z</time></trkpt><trkpt lat="42.7446432" lon="12.3242029"><ele>138.0</ele><time>2026-03-28T16:05:09.327Z</time></trkpt><trkpt lat="42.7447753" lon="12.3244012"><ele>138.0</ele><time>2026-03-28T16:05:10.328Z</time></trkpt><trkpt lat="42.7449154" lon="12.3245955"><ele>138.0</ele><time>2026-03-28T16:05:11.328Z</time></trkpt><trkpt lat="42.7450574" lon="12.3247917"><ele>138.0</ele><time>2026-03-28T16:05:12.328Z</time></trkpt><trkpt lat="42.7451985" lon="12.3249806"><ele>137.0</ele><time>2026-03-28T16:05:13.328Z</time></trkpt><trkpt lat="42.7453362" lon="12.3251694"><ele>136.0</ele><time>2026-03-28T16:05:14.328Z</time></trkpt><trkpt lat="42.745481" lon="12.3253597"><ele>135.0</ele><time>2026-03-28T16:05:15.327Z</time></trkpt><trkpt lat="42.7456297" lon="12.3255427"><ele>135.66666666666666</ele><time>2026-03-28T16:05:16.328Z</time></trkpt><trkpt lat="42.7457844" lon="12.325718"><ele>136.33333333333331</ele><time>2026-03-28T16:05:17.328Z</time></trkpt><trkpt lat="42.7459449" lon="12.3258876"><ele>137.0</ele><time>2026-03-28T16:05:18.328Z</time></trkpt><trkpt lat="42.746105" lon="12.3260431"><ele>137.0</ele><time>2026-03-28T16:05:19.328Z</time></trkpt><trkpt lat="42.7462697" lon="12.3261916"><ele>137.0</ele><time>2026-03-28T16:05:20.328Z</time></trkpt><trkpt lat="42.7464348" lon="12.3263411"><ele>137.0</ele><time>2026-03-28T16:05:21.328Z</time></trkpt><trkpt lat="42.7466022" lon="12.3264835"><ele>137.66666666666666</ele><time>2026-03-28T16:05:22.328Z</time></trkpt><trkpt lat="42.7467725" lon="12.3266236"><ele>138.33333333333334</ele><time>2026-03-28T16:05:23.328Z</time></trkpt><trkpt lat="42.7469388" lon="12.3267675"><ele>139.0</ele><time>2026-03-28T16:05:24.328Z</time></trkpt><trkpt lat="42.7471071" lon="12.3269101"><ele>139.0</ele><time>2026-03-28T16:05:25.328Z</time></trkpt><trkpt lat="42.7472742" lon="12.3270513"><ele>139.0</ele><time>2026-03-28T16:05:26.328Z</time></trkpt><trkpt lat="42.7474428" lon="12.3271821"><ele>139.0</ele><time>2026-03-28T16:05:27.328Z</time></trkpt><trkpt lat="42.7476073" lon="12.3273107"><ele>138.66666666666669</ele><time>2026-03-28T16:05:28.328Z</time></trkpt><trkpt lat="42.7477763" lon="12.3274448"><ele>138.33333333333334</ele><time>2026-03-28T16:05:29.328Z</time></trkpt><trkpt lat="42.7479489" lon="12.327573"><ele>138.0</ele><time>2026-03-28T16:05:30.327Z</time></trkpt><trkpt lat="42.7481127" lon="12.3277126"><ele>138.0</ele><time>2026-03-28T16:05:31.327Z</time></trkpt><trkpt lat="42.7482858" lon="12.3278471"><ele>138.0</ele><time>2026-03-28T16:05:32.328Z</time></trkpt><trkpt lat="42.7484378" lon="12.3279709"><ele>138.0</ele><time>2026-03-28T16:05:33.328Z</time></trkpt><trkpt lat="42.7485829" lon="12.3280945"><ele>138.33333333333334</ele><time>2026-03-28T16:05:34.327Z</time></trkpt><trkpt lat="42.7487238" lon="12.3282126"><ele>138.66666666666669</ele><time>2026-03-28T16:05:35.328Z</time></trkpt><trkpt lat="42.7488535" lon="12.3283301"><ele>139.0</ele><time>2026-03-28T16:05:36.328Z</time></trkpt><trkpt lat="42.748976" lon="12.3284639"><ele>139.0</ele><time>2026-03-28T16:05:37.328Z</time></trkpt><trkpt lat="42.7490863" lon="12.3286136"><ele>139.0</ele><time>2026-03-28T16:05:38.328Z</time></trkpt><trkpt lat="42.749168" lon="12.3287991"><ele>139.0</ele><time>2026-03-28T16:05:39.327Z</time></trkpt><trkpt lat="42.7492367" lon="12.3289895"><ele>139.0</ele><time>2026-03-28T16:05:40.327Z</time></trkpt><trkpt lat="42.7493097" lon="12.3291727"><ele>139.0</ele><time>2026-03-28T16:05:41.328Z</time></trkpt><trkpt lat="42.7493805" lon="12.3293458"><ele>139.0</ele><time>2026-03-28T16:05:42.328Z</time></trkpt><trkpt lat="42.7494528" lon="12.3295119"><ele>139.0</ele><time>2026-03-28T16:05:43.328Z</time></trkpt><trkpt lat="42.7495434" lon="12.3296663"><ele>139.66666666666669</ele><time>2026-03-28T16:05:44.328Z</time></trkpt><trkpt lat="42.7496594" lon="12.3298039"><ele>140.33333333333334</ele><time>2026-03-28T16:05:45.327Z</time></trkpt><trkpt lat="42.7497866" lon="12.3299368"><ele>141.0</ele><time>2026-03-28T16:05:46.328Z</time></trkpt><trkpt lat="42.7499343" lon="12.3300671"><ele>141.0</ele><time>2026-03-28T16:05:47.328Z</time></trkpt><trkpt lat="42.7500782" lon="12.3302029"><ele>141.0</ele><time>2026-03-28T16:05:48.328Z</time></trkpt><trkpt lat="42.7502414" lon="12.3303417"><ele>141.0</ele><time>2026-03-28T16:05:49.328Z</time></trkpt><trkpt lat="42.7504137" lon="12.3304864"><ele>142.0</ele><time>2026-03-28T16:05:50.328Z</time></trkpt><trkpt lat="42.750588" lon="12.330632"><ele>143.0</ele><time>2026-03-28T16:05:51.328Z</time></trkpt><trkpt lat="42.7507679" lon="12.330787"><ele>144.0</ele><time>2026-03-28T16:05:52.328Z</time></trkpt><trkpt lat="42.7509497" lon="12.3309535"><ele>144.33333333333334</ele><time>2026-03-28T16:05:53.328Z</time></trkpt><trkpt lat="42.7511366" lon="12.3311124"><ele>144.66666666666669</ele><time>2026-03-28T16:05:54.328Z</time></trkpt><trkpt lat="42.7513158" lon="12.3312599"><ele>145.0</ele><time>2026-03-28T16:05:55.328Z</time></trkpt><trkpt lat="42.7514909" lon="12.3314046"><ele>147.33333333333334</ele><time>2026-03-28T16:05:56.328Z</time></trkpt><trkpt lat="42.7516718" lon="12.3315449"><ele>149.66666666666666</ele><time>2026-03-28T16:05:57.328Z</time></trkpt><trkpt lat="42.7518548" lon="12.3316857"><ele>152.0</ele><time>2026-03-28T16:05:58.328Z</time></trkpt><trkpt lat="42.7520414" lon="12.3318174"><ele>152.0</ele><time>2026-03-28T16:05:59.327Z</time></trkpt><trkpt lat="42.7522259" lon="12.3319509"><ele>152.0</ele><time>2026-03-28T16:06:00.327Z</time></trkpt><trkpt lat="42.7524135" lon="12.3320807"><ele>152.0</ele><time>2026-03-28T16:06:01.328Z</time></trkpt><trkpt lat="42.7526015" lon="12.3322087"><ele>153.66666666666666</ele><time>2026-03-28T16:06:02.328Z</time></trkpt><trkpt lat="42.7527945" lon="12.3323333"><ele>155.33333333333334</ele><time>2026-03-28T16:06:03.327Z</time></trkpt><trkpt lat="42.7529887" lon="12.3324614"><ele>157.0</ele><time>2026-03-28T16:06:04.328Z</time></trkpt><trkpt lat="42.7531669" lon="12.3325914"><ele>157.0</ele><time>2026-03-28T16:06:05.327Z</time></trkpt><trkpt lat="42.7533344" lon="12.3327252"><ele>157.0</ele><time>2026-03-28T16:06:06.328Z</time></trkpt><trkpt lat="42.753484" lon="12.3328525"><ele>157.0</ele><time>2026-03-28T16:06:07.328Z</time></trkpt><trkpt lat="42.7536183" lon="12.3329993"><ele>157.33333333333334</ele><time>2026-03-28T16:06:08.328Z</time></trkpt><trkpt lat="42.7537454" lon="12.3331611"><ele>157.66666666666666</ele><time>2026-03-28T16:06:09.328Z</time></trkpt><trkpt lat="42.7538561" lon="12.3333514"><ele>158.0</ele><time>2026-03-28T16:06:10.327Z</time></trkpt><trkpt lat="42.7539573" lon="12.3335569"><ele>158.0</ele><time>2026-03-28T16:06:11.327Z</time></trkpt><trkpt lat="42.7540513" lon="12.3337764"><ele>158.0</ele><time>2026-03-28T16:06:12.328Z</time></trkpt><trkpt lat="42.7541472" lon="12.3340077"><ele>158.0</ele><time>2026-03-28T16:06:13.327Z</time></trkpt><trkpt lat="42.7542376" lon="12.3342418"><ele>156.0</ele><time>2026-03-28T16:06:14.327Z</time></trkpt><trkpt lat="42.754329" lon="12.3344741"><ele>154.0</ele><time>2026-03-28T16:06:15.327Z</time></trkpt><trkpt lat="42.7544197" lon="12.3347187"><ele>152.0</ele><time>2026-03-28T16:06:16.328Z</time></trkpt><trkpt lat="42.7545094" lon="12.3349658"><ele>156.66666666666666</ele><time>2026-03-28T16:06:17.327Z</time></trkpt><trkpt lat="42.7546037" lon="12.335226"><ele>161.33333333333334</ele><time>2026-03-28T16:06:18.327Z</time></trkpt><trkpt lat="42.7546937" lon="12.3354905"><ele>166.0</ele><time>2026-03-28T16:06:19.327Z</time></trkpt><trkpt lat="42.7547856" lon="12.3357715"><ele>169.5</ele><time>2026-03-28T16:06:20.327Z</time></trkpt><trkpt lat="42.7548822" lon="12.3360579"><ele>173.0</ele><time>2026-03-28T16:06:21.328Z</time></trkpt><trkpt lat="42.7549828" lon="12.3363472"><ele>177.0</ele><time>2026-03-28T16:06:22.328Z</time></trkpt><trkpt lat="42.755082" lon="12.3366323"><ele>181.0</ele><time>2026-03-28T16:06:23.328Z</time></trkpt><trkpt lat="42.7551797" lon="12.3369238"><ele>170.5</ele><time>2026-03-28T16:06:24.328Z</time></trkpt><trkpt lat="42.7552803" lon="12.3372099"><ele>160.0</ele><time>2026-03-28T16:06:25.328Z</time></trkpt><trkpt lat="42.7553758" lon="12.3374851"><ele>160.0</ele><time>2026-03-28T16:06:26.328Z</time></trkpt><trkpt lat="42.7554672" lon="12.3377556"><ele>160.0</ele><time>2026-03-28T16:06:27.328Z</time></trkpt><trkpt lat="42.7555559" lon="12.3380279"><ele>160.0</ele><time>2026-03-28T16:06:28.328Z</time></trkpt><trkpt lat="42.7556498" lon="12.3382998"><ele>164.66666666666669</ele><time>2026-03-28T16:06:29.328Z</time></trkpt><trkpt lat="42.7557375" lon="12.3385637"><ele>169.33333333333334</ele><time>2026-03-28T16:06:30.328Z</time></trkpt><trkpt lat="42.7558283" lon="12.3388224"><ele>174.0</ele><time>2026-03-28T16:06:31.327Z</time></trkpt><trkpt lat="42.7559122" lon="12.3390797"><ele>177.33333333333334</ele><time>2026-03-28T16:06:32.328Z</time></trkpt><trkpt lat="42.7559976" lon="12.3393373"><ele>180.66666666666669</ele><time>2026-03-28T16:06:33.328Z</time></trkpt><trkpt lat="42.7560871" lon="12.3395766"><ele>184.0</ele><time>2026-03-28T16:06:34.328Z</time></trkpt><trkpt lat="42.7561857" lon="12.3398069"><ele>176.33333333333334</ele><time>2026-03-28T16:06:35.328Z</time></trkpt><trkpt lat="42.7562783" lon="12.3400175"><ele>168.66666666666666</ele><time>2026-03-28T16:06:36.328Z</time></trkpt><trkpt lat="42.7563768" lon="12.3402157"><ele>161.0</ele><time>2026-03-28T16:06:37.328Z</time></trkpt><trkpt lat="42.7564841" lon="12.3404055"><ele>158.33333333333331</ele><time>2026-03-28T16:06:38.328Z</time></trkpt><trkpt lat="42.7566021" lon="12.3405876"><ele>155.66666666666666</ele><time>2026-03-28T16:06:39.328Z</time></trkpt><trkpt lat="42.7567333" lon="12.3407658"><ele>153.0</ele><time>2026-03-28T16:06:40.328Z</time></trkpt><trkpt lat="42.7568722" lon="12.3409485"><ele>153.0</ele><time>2026-03-28T16:06:41.327Z</time></trkpt><trkpt lat="42.7570193" lon="12.3411287"><ele>153.0</ele><time>2026-03-28T16:06:42.328Z</time></trkpt><trkpt lat="42.7571666" lon="12.3413127"><ele>153.0</ele><time>2026-03-28T16:06:43.328Z</time></trkpt><trkpt lat="42.7573231" lon="12.3414903"><ele>153.0</ele><time>2026-03-28T16:06:44.328Z</time></trkpt><trkpt lat="42.7574649" lon="12.3416683"><ele>153.0</ele><time>2026-03-28T16:06:45.328Z</time></trkpt><trkpt lat="42.7576038" lon="12.3418389"><ele>153.0</ele><time>2026-03-28T16:06:46.328Z</time></trkpt><trkpt lat="42.7577246" lon="12.342001"><ele>153.0</ele><time>2026-03-28T16:06:47.327Z</time></trkpt><trkpt lat="42.7578388" lon="12.3421592"><ele>153.0</ele><time>2026-03-28T16:06:48.327Z</time></trkpt><trkpt lat="42.7579416" lon="12.3423166"><ele>153.0</ele><time>2026-03-28T16:06:49.327Z</time></trkpt><trkpt lat="42.758033" lon="12.3424828"><ele>153.0</ele><time>2026-03-28T16:06:50.327Z</time></trkpt><trkpt lat="42.758107" lon="12.3426572"><ele>153.0</ele><time>2026-03-28T16:06:51.328Z</time></trkpt><trkpt lat="42.758168" lon="12.3428492"><ele>153.0</ele><time>2026-03-28T16:06:52.328Z</time></trkpt><trkpt lat="42.7582215" lon="12.343043"><ele>152.33333333333334</ele><time>2026-03-28T16:06:53.328Z</time></trkpt><trkpt lat="42.7582628" lon="12.3432528"><ele>151.66666666666669</ele><time>2026-03-28T16:06:54.328Z</time></trkpt><trkpt lat="42.7583061" lon="12.3434563"><ele>151.0</ele><time>2026-03-28T16:06:55.328Z</time></trkpt><trkpt lat="42.7583241" lon="12.3436653"><ele>151.0</ele><time>2026-03-28T16:06:56.328Z</time></trkpt><trkpt lat="42.7583435" lon="12.3438744"><ele>151.0</ele><time>2026-03-28T16:06:57.327Z</time></trkpt><trkpt lat="42.7583618" lon="12.3440877"><ele>151.0</ele><time>2026-03-28T16:06:58.328Z</time></trkpt><trkpt lat="42.7583661" lon="12.3442813"><ele>150.5</ele><time>2026-03-28T16:06:59.328Z</time></trkpt><trkpt lat="42.7583758" lon="12.3444701"><ele>150.0</ele><time>2026-03-28T16:07:00.328Z</time></trkpt><trkpt lat="42.7583861" lon="12.3446484"><ele>149.5</ele><time>2026-03-28T16:07:01.328Z</time></trkpt><trkpt lat="42.7583971" lon="12.3448233"><ele>149.0</ele><time>2026-03-28T16:07:02.327Z</time></trkpt><trkpt lat="42.7584022" lon="12.3449802"><ele>148.8</ele><time>2026-03-28T16:07:03.328Z</time></trkpt><trkpt lat="42.7584176" lon="12.3451356"><ele>148.60000000000002</ele><time>2026-03-28T16:07:04.328Z</time></trkpt><trkpt lat="42.7584302" lon="12.3452771"><ele>148.4</ele><time>2026-03-28T16:07:05.328Z</time></trkpt><trkpt lat="42.7584393" lon="12.3454164"><ele>148.20000000000002</ele><time>2026-03-28T16:07:06.328Z</time></trkpt><trkpt lat="42.7584608" lon="12.3455578"><ele>148.0</ele><time>2026-03-28T16:07:07.328Z</time></trkpt><trkpt lat="42.7584798" lon="12.345698"><ele>148.4</ele><time>2026-03-28T16:07:08.327Z</time></trkpt><trkpt lat="42.7584975" lon="12.345837"><ele>148.8</ele><time>2026-03-28T16:07:09.328Z</time></trkpt><trkpt lat="42.7585308" lon="12.3459724"><ele>149.2</ele><time>2026-03-28T16:07:10.328Z</time></trkpt><trkpt lat="42.7585661" lon="12.3461055"><ele>149.6</ele><time>2026-03-28T16:07:11.327Z</time></trkpt><trkpt lat="42.758604" lon="12.3462381"><ele>150.0</ele><time>2026-03-28T16:07:12.328Z</time></trkpt><trkpt lat="42.7586494" lon="12.3463661"><ele>149.0</ele><time>2026-03-28T16:07:13.328Z</time></trkpt><trkpt lat="42.7586969" lon="12.3464876"><ele>148.0</ele><time>2026-03-28T16:07:14.327Z</time></trkpt><trkpt lat="42.7587477" lon="12.3466006"><ele>147.0</ele><time>2026-03-28T16:07:15.328Z</time></trkpt><trkpt lat="42.7587978" lon="12.3466908"><ele>146.0</ele><time>2026-03-28T16:07:16.328Z</time></trkpt><trkpt lat="42.7588515" lon="12.3467795"><ele>145.0</ele><time>2026-03-28T16:07:17.328Z</time></trkpt><trkpt lat="42.7589075" lon="12.3468633"><ele>144.0</ele><time>2026-03-28T16:07:18.328Z</time></trkpt><trkpt lat="42.7589628" lon="12.3469396"><ele>144.0</ele><time>2026-03-28T16:07:19.328Z</time></trkpt><trkpt lat="42.7590147" lon="12.3470015"><ele>144.0</ele><time>2026-03-28T16:07:20.328Z</time></trkpt><trkpt lat="42.7590837" lon="12.3470858"><ele>144.0</ele><time>2026-03-28T16:07:22.328Z</time></trkpt><trkpt lat="42.7591462" lon="12.3471613"><ele>144.0</ele><time>2026-03-28T16:07:25.328Z</time></trkpt><trkpt lat="42.7591955" lon="12.3472163"><ele>144.0</ele><time>2026-03-28T16:07:29.328Z</time></trkpt><trkpt lat="42.7592499" lon="12.347261"><ele>144.0</ele><time>2026-03-28T16:09:35.327Z</time></trkpt><trkpt lat="42.7593499" lon="12.3473483"><ele>142.83333333333334</ele><time>2026-03-28T16:09:37.327Z</time></trkpt><trkpt lat="42.759441" lon="12.3474105"><ele>141.66666666666666</ele><time>2026-03-28T16:09:39.328Z</time></trkpt><trkpt lat="42.7595069" lon="12.3474488"><ele>140.5</ele><time>2026-03-28T16:09:40.328Z</time></trkpt><trkpt lat="42.7595727" lon="12.3474942"><ele>139.33333333333331</ele><time>2026-03-28T16:09:41.327Z</time></trkpt><trkpt lat="42.7596435" lon="12.3475268"><ele>138.16666666666666</ele><time>2026-03-28T16:09:42.328Z</time></trkpt><trkpt lat="42.7597175" lon="12.3475642"><ele>137.0</ele><time>2026-03-28T16:09:43.328Z</time></trkpt><trkpt lat="42.7598058" lon="12.3475903"><ele>137.0</ele><time>2026-03-28T16:09:44.327Z</time></trkpt><trkpt lat="42.7598941" lon="12.3476144"><ele>137.0</ele><time>2026-03-28T16:09:45.328Z</time></trkpt><trkpt lat="42.7599828" lon="12.3476333"><ele>137.0</ele><time>2026-03-28T16:09:46.328Z</time></trkpt><trkpt lat="42.7600769" lon="12.3476462"><ele>137.0</ele><time>2026-03-28T16:09:47.328Z</time></trkpt><trkpt lat="42.7601702" lon="12.347658"><ele>137.0</ele><time>2026-03-28T16:09:48.328Z</time></trkpt><trkpt lat="42.7602702" lon="12.3476657"><ele>136.6</ele><time>2026-03-28T16:09:49.328Z</time></trkpt><trkpt lat="42.760368" lon="12.3476709"><ele>136.2</ele><time>2026-03-28T16:09:50.328Z</time></trkpt><trkpt lat="42.7604737" lon="12.3476808"><ele>135.8</ele><time>2026-03-28T16:09:51.327Z</time></trkpt><trkpt lat="42.7605735" lon="12.3476835"><ele>135.4</ele><time>2026-03-28T16:09:52.328Z</time></trkpt><trkpt lat="42.7606736" lon="12.3476908"><ele>135.0</ele><time>2026-03-28T16:09:53.328Z</time></trkpt><trkpt lat="42.7607816" lon="12.3476949"><ele>135.0</ele><time>2026-03-28T16:09:54.328Z</time></trkpt><trkpt lat="42.7608855" lon="12.3477033"><ele>135.0</ele><time>2026-03-28T16:09:55.327Z</time></trkpt><trkpt lat="42.7609865" lon="12.347709"><ele>135.0</ele><time>2026-03-28T16:09:56.328Z</time></trkpt><trkpt lat="42.761101" lon="12.3477192"><ele>135.0</ele><time>2026-03-28T16:09:57.328Z</time></trkpt><trkpt lat="42.761216" lon="12.3477234"><ele>135.0</ele><time>2026-03-28T16:09:58.328Z</time></trkpt><trkpt lat="42.7613241" lon="12.3477308"><ele>136.4</ele><time>2026-03-28T16:09:59.328Z</time></trkpt><trkpt lat="42.7614326" lon="12.3477332"><ele>137.8</ele><time>2026-03-28T16:10:00.328Z</time></trkpt><trkpt lat="42.7615321" lon="12.3477296"><ele>139.2</ele><time>2026-03-28T16:10:01.328Z</time></trkpt><trkpt lat="42.7616347" lon="12.347741"><ele>140.6</ele><time>2026-03-28T16:10:02.327Z</time></trkpt><trkpt lat="42.7617404" lon="12.3477581"><ele>142.0</ele><time>2026-03-28T16:10:03.328Z</time></trkpt><trkpt lat="42.7618478" lon="12.3477689"><ele>144.0</ele><time>2026-03-28T16:10:04.328Z</time></trkpt><trkpt lat="42.7619558" lon="12.3477829"><ele>146.0</ele><time>2026-03-28T16:10:05.328Z</time></trkpt><trkpt lat="42.7620616" lon="12.3477953"><ele>148.0</ele><time>2026-03-28T16:10:06.328Z</time></trkpt><trkpt lat="42.7621739" lon="12.3478204"><ele>150.0</ele><time>2026-03-28T16:10:07.327Z</time></trkpt><trkpt lat="42.7622795" lon="12.347855"><ele>152.0</ele><time>2026-03-28T16:10:08.327Z</time></trkpt><trkpt lat="42.7623864" lon="12.3479095"><ele>152.0</ele><time>2026-03-28T16:10:09.328Z</time></trkpt><trkpt lat="42.7624957" lon="12.3479706"><ele>152.0</ele><time>2026-03-28T16:10:10.328Z</time></trkpt><trkpt lat="42.7626159" lon="12.3480396"><ele>152.0</ele><time>2026-03-28T16:10:11.328Z</time></trkpt><trkpt lat="42.762752" lon="12.348134"><ele>152.0</ele><time>2026-03-28T16:10:12.328Z</time></trkpt><trkpt lat="42.7629022" lon="12.348248"><ele>150.66666666666666</ele><time>2026-03-28T16:10:13.328Z</time></trkpt><trkpt lat="42.7630596" lon="12.348377"><ele>149.33333333333334</ele><time>2026-03-28T16:10:14.328Z</time></trkpt><trkpt lat="42.7632195" lon="12.3485092"><ele>148.0</ele><time>2026-03-28T16:10:15.328Z</time></trkpt><trkpt lat="42.7633722" lon="12.3486496"><ele>149.0</ele><time>2026-03-28T16:10:16.328Z</time></trkpt><trkpt lat="42.7635337" lon="12.3487879"><ele>150.0</ele><time>2026-03-28T16:10:17.327Z</time></trkpt><trkpt lat="42.7636986" lon="12.3489265"><ele>151.0</ele><time>2026-03-28T16:10:18.328Z</time></trkpt><trkpt lat="42.7638591" lon="12.3490633"><ele>151.0</ele><time>2026-03-28T16:10:19.328Z</time></trkpt><trkpt lat="42.764019" lon="12.3492076"><ele>151.0</ele><time>2026-03-28T16:10:20.328Z</time></trkpt><trkpt lat="42.7641715" lon="12.3493529"><ele>151.0</ele><time>2026-03-28T16:10:21.328Z</time></trkpt><trkpt lat="42.7643199" lon="12.3495198"><ele>154.66666666666669</ele><time>2026-03-28T16:10:22.327Z</time></trkpt><trkpt lat="42.7644547" lon="12.3497012"><ele>158.33333333333334</ele><time>2026-03-28T16:10:23.328Z</time></trkpt><trkpt lat="42.7645721" lon="12.3499044"><ele>162.0</ele><time>2026-03-28T16:10:24.328Z</time></trkpt><trkpt lat="42.7646811" lon="12.3501257"><ele>162.0</ele><time>2026-03-28T16:10:25.328Z</time></trkpt><trkpt lat="42.7647748" lon="12.3503663"><ele>162.0</ele><time>2026-03-28T16:10:26.328Z</time></trkpt><trkpt lat="42.7648578" lon="12.3506378"><ele>162.0</ele><time>2026-03-28T16:10:27.327Z</time></trkpt><trkpt lat="42.764939" lon="12.3509156"><ele>160.0</ele><time>2026-03-28T16:10:28.328Z</time></trkpt><trkpt lat="42.765031" lon="12.3511962"><ele>158.0</ele><time>2026-03-28T16:10:29.328Z</time></trkpt><trkpt lat="42.7651205" lon="12.3514708"><ele>156.0</ele><time>2026-03-28T16:10:30.328Z</time></trkpt><trkpt lat="42.7652089" lon="12.351747"><ele>160.5</ele><time>2026-03-28T16:10:31.328Z</time></trkpt><trkpt lat="42.7652968" lon="12.3520273"><ele>165.0</ele><time>2026-03-28T16:10:32.327Z</time></trkpt><trkpt lat="42.765386" lon="12.3523112"><ele>165.0</ele><time>2026-03-28T16:10:33.328Z</time></trkpt><trkpt lat="42.7654742" lon="12.3525918"><ele>165.0</ele><time>2026-03-28T16:10:34.327Z</time></trkpt><trkpt lat="42.7655618" lon="12.352872"><ele>165.0</ele><time>2026-03-28T16:10:35.328Z</time></trkpt><trkpt lat="42.7656493" lon="12.3531499"><ele>160.33333333333334</ele><time>2026-03-28T16:10:36.328Z</time></trkpt><trkpt lat="42.7657368" lon="12.3534276"><ele>155.66666666666669</ele><time>2026-03-28T16:10:37.328Z</time></trkpt><trkpt lat="42.7658261" lon="12.3537034"><ele>151.0</ele><time>2026-03-28T16:10:38.328Z</time></trkpt><trkpt lat="42.7659165" lon="12.3539759"><ele>150.66666666666669</ele><time>2026-03-28T16:10:39.327Z</time></trkpt><trkpt lat="42.7660112" lon="12.3542455"><ele>150.33333333333334</ele><time>2026-03-28T16:10:40.328Z</time></trkpt><trkpt lat="42.7661182" lon="12.3544979"><ele>150.0</ele><time>2026-03-28T16:10:41.327Z</time></trkpt><trkpt lat="42.7662323" lon="12.3547516"><ele>149.33333333333334</ele><time>2026-03-28T16:10:42.327Z</time></trkpt><trkpt lat="42.7663507" lon="12.3550023"><ele>148.66666666666669</ele><time>2026-03-28T16:10:43.328Z</time></trkpt><trkpt lat="42.7664658" lon="12.3552484"><ele>148.0</ele><time>2026-03-28T16:10:44.328Z</time></trkpt><trkpt lat="42.766579" lon="12.3554946"><ele>148.0</ele><time>2026-03-28T16:10:45.327Z</time></trkpt><trkpt lat="42.7666847" lon="12.3557252"><ele>148.0</ele><time>2026-03-28T16:10:46.328Z</time></trkpt><trkpt lat="42.7667856" lon="12.3559496"><ele>148.0</ele><time>2026-03-28T16:10:47.328Z</time></trkpt><trkpt lat="42.7668785" lon="12.356169"><ele>150.0</ele><time>2026-03-28T16:10:48.328Z</time></trkpt><trkpt lat="42.7669569" lon="12.3564014"><ele>152.0</ele><time>2026-03-28T16:10:49.328Z</time></trkpt><trkpt lat="42.7670246" lon="12.3566437"><ele>154.0</ele><time>2026-03-28T16:10:50.328Z</time></trkpt><trkpt lat="42.7670791" lon="12.3568915"><ele>154.0</ele><time>2026-03-28T16:10:51.328Z</time></trkpt><trkpt lat="42.7671373" lon="12.3571387"><ele>154.0</ele><time>2026-03-28T16:10:52.328Z</time></trkpt><trkpt lat="42.7671859" lon="12.3573926"><ele>154.0</ele><time>2026-03-28T16:10:53.327Z</time></trkpt><trkpt lat="42.7672379" lon="12.3576535"><ele>153.0</ele><time>2026-03-28T16:10:54.327Z</time></trkpt><trkpt lat="42.7672916" lon="12.357912"><ele>152.0</ele><time>2026-03-28T16:10:55.327Z</time></trkpt><trkpt lat="42.7673456" lon="12.3581636"><ele>151.0</ele><time>2026-03-28T16:10:56.328Z</time></trkpt><trkpt lat="42.7673906" lon="12.3584051"><ele>150.0</ele><time>2026-03-28T16:10:57.327Z</time></trkpt><trkpt lat="42.7674491" lon="12.3586335"><ele>149.0</ele><time>2026-03-28T16:10:58.328Z</time></trkpt><trkpt lat="42.76752" lon="12.3588484"><ele>148.0</ele><time>2026-03-28T16:10:59.328Z</time></trkpt><trkpt lat="42.7676253" lon="12.3590403"><ele>151.33333333333334</ele><time>2026-03-28T16:11:00.328Z</time></trkpt><trkpt lat="42.7677467" lon="12.3592208"><ele>154.66666666666666</ele><time>2026-03-28T16:11:01.328Z</time></trkpt><trkpt lat="42.7678809" lon="12.3593788"><ele>158.0</ele><time>2026-03-28T16:11:02.327Z</time></trkpt><trkpt lat="42.7680252" lon="12.3595293"><ele>158.0</ele><time>2026-03-28T16:11:03.328Z</time></trkpt><trkpt lat="42.7681865" lon="12.3596881"><ele>158.0</ele><time>2026-03-28T16:11:04.327Z</time></trkpt><trkpt lat="42.7683419" lon="12.3598457"><ele>158.0</ele><time>2026-03-28T16:11:05.327Z</time></trkpt><trkpt lat="42.7685036" lon="12.3600103"><ele>155.0</ele><time>2026-03-28T16:11:06.328Z</time></trkpt><trkpt lat="42.7686694" lon="12.3601742"><ele>152.0</ele><time>2026-03-28T16:11:07.328Z</time></trkpt><trkpt lat="42.7688313" lon="12.3603395"><ele>149.0</ele><time>2026-03-28T16:11:08.328Z</time></trkpt><trkpt lat="42.7689905" lon="12.3605058"><ele>149.0</ele><time>2026-03-28T16:11:09.328Z</time></trkpt><trkpt lat="42.7691486" lon="12.3606647"><ele>149.0</ele><time>2026-03-28T16:11:10.328Z</time></trkpt><trkpt lat="42.7692937" lon="12.3608328"><ele>149.0</ele><time>2026-03-28T16:11:11.328Z</time></trkpt><trkpt lat="42.7694315" lon="12.3610276"><ele>149.0</ele><time>2026-03-28T16:11:12.328Z</time></trkpt><trkpt lat="42.7695644" lon="12.3612203"><ele>149.0</ele><time>2026-03-28T16:11:13.327Z</time></trkpt><trkpt lat="42.7696963" lon="12.3614244"><ele>149.0</ele><time>2026-03-28T16:11:14.328Z</time></trkpt><trkpt lat="42.7698243" lon="12.3616329"><ele>148.33333333333331</ele><time>2026-03-28T16:11:15.328Z</time></trkpt><trkpt lat="42.7699556" lon="12.3618383"><ele>147.66666666666666</ele><time>2026-03-28T16:11:16.328Z</time></trkpt><trkpt lat="42.770083" lon="12.3620431"><ele>147.0</ele><time>2026-03-28T16:11:17.327Z</time></trkpt><trkpt lat="42.7702185" lon="12.3622544"><ele>148.66666666666666</ele><time>2026-03-28T16:11:18.328Z</time></trkpt><trkpt lat="42.7703511" lon="12.3624608"><ele>150.33333333333331</ele><time>2026-03-28T16:11:19.327Z</time></trkpt><trkpt lat="42.7704887" lon="12.3626692"><ele>152.0</ele><time>2026-03-28T16:11:20.327Z</time></trkpt><trkpt lat="42.7706215" lon="12.3628853"><ele>152.66666666666666</ele><time>2026-03-28T16:11:21.327Z</time></trkpt><trkpt lat="42.7707608" lon="12.3631015"><ele>153.33333333333334</ele><time>2026-03-28T16:11:22.327Z</time></trkpt><trkpt lat="42.7709032" lon="12.363319"><ele>154.0</ele><time>2026-03-28T16:11:23.328Z</time></trkpt><trkpt lat="42.7710442" lon="12.3635362"><ele>154.0</ele><time>2026-03-28T16:11:24.328Z</time></trkpt><trkpt lat="42.7711844" lon="12.3637571"><ele>154.0</ele><time>2026-03-28T16:11:25.327Z</time></trkpt><trkpt lat="42.7713282" lon="12.3639758"><ele>154.0</ele><time>2026-03-28T16:11:26.327Z</time></trkpt><trkpt lat="42.7714655" lon="12.3641959"><ele>154.0</ele><time>2026-03-28T16:11:27.328Z</time></trkpt><trkpt lat="42.7715985" lon="12.3644121"><ele>154.0</ele><time>2026-03-28T16:11:28.327Z</time></trkpt><trkpt lat="42.7717374" lon="12.3646263"><ele>154.0</ele><time>2026-03-28T16:11:29.328Z</time></trkpt><trkpt lat="42.7718724" lon="12.3648352"><ele>154.0</ele><time>2026-03-28T16:11:30.328Z</time></trkpt><trkpt lat="42.7720083" lon="12.3650426"><ele>154.0</ele><time>2026-03-28T16:11:31.328Z</time></trkpt><trkpt lat="42.7721236" lon="12.3652547"><ele>154.0</ele><time>2026-03-28T16:11:32.327Z</time></trkpt><trkpt lat="42.7722397" lon="12.3654762"><ele>153.0</ele><time>2026-03-28T16:11:33.328Z</time></trkpt><trkpt lat="42.7723359" lon="12.3657075"><ele>152.0</ele><time>2026-03-28T16:11:34.328Z</time></trkpt><trkpt lat="42.7724161" lon="12.3659412"><ele>151.0</ele><time>2026-03-28T16:11:35.327Z</time></trkpt><trkpt lat="42.7724907" lon="12.3661873"><ele>149.66666666666669</ele><time>2026-03-28T16:11:36.328Z</time></trkpt><trkpt lat="42.7725405" lon="12.366443"><ele>148.33333333333334</ele><time>2026-03-28T16:11:37.328Z</time></trkpt><trkpt lat="42.7725889" lon="12.3667016"><ele>147.0</ele><time>2026-03-28T16:11:38.327Z</time></trkpt><trkpt lat="42.7726319" lon="12.3669607"><ele>147.0</ele><time>2026-03-28T16:11:39.328Z</time></trkpt><trkpt lat="42.7726765" lon="12.3672242"><ele>147.0</ele><time>2026-03-28T16:11:40.327Z</time></trkpt><trkpt lat="42.7727163" lon="12.367493"><ele>147.0</ele><time>2026-03-28T16:11:41.328Z</time></trkpt><trkpt lat="42.7727467" lon="12.3677511"><ele>151.0</ele><time>2026-03-28T16:11:42.328Z</time></trkpt><trkpt lat="42.7727865" lon="12.3680101"><ele>155.0</ele><time>2026-03-28T16:11:43.328Z</time></trkpt><trkpt lat="42.7728262" lon="12.3682682"><ele>159.0</ele><time>2026-03-28T16:11:44.328Z</time></trkpt><trkpt lat="42.7728717" lon="12.3685156"><ele>159.0</ele><time>2026-03-28T16:11:45.327Z</time></trkpt><trkpt lat="42.7729155" lon="12.3687614"><ele>159.0</ele><time>2026-03-28T16:11:46.327Z</time></trkpt><trkpt lat="42.7729739" lon="12.3690017"><ele>159.0</ele><time>2026-03-28T16:11:47.328Z</time></trkpt><trkpt lat="42.7730324" lon="12.3692494"><ele>156.66666666666666</ele><time>2026-03-28T16:11:48.328Z</time></trkpt><trkpt lat="42.7731093" lon="12.3694871"><ele>154.33333333333331</ele><time>2026-03-28T16:11:49.328Z</time></trkpt><trkpt lat="42.7732" lon="12.3697184"><ele>152.0</ele><time>2026-03-28T16:11:50.327Z</time></trkpt><trkpt lat="42.7732956" lon="12.3699461"><ele>153.0</ele><time>2026-03-28T16:11:51.328Z</time></trkpt><trkpt lat="42.7734112" lon="12.3701632"><ele>154.0</ele><time>2026-03-28T16:11:52.328Z</time></trkpt><trkpt lat="42.7735398" lon="12.3703727"><ele>155.0</ele><time>2026-03-28T16:11:53.328Z</time></trkpt><trkpt lat="42.7736793" lon="12.3705706"><ele>153.0</ele><time>2026-03-28T16:11:54.328Z</time></trkpt><trkpt lat="42.7738251" lon="12.3707604"><ele>151.0</ele><time>2026-03-28T16:11:55.328Z</time></trkpt><trkpt lat="42.7739719" lon="12.3709394"><ele>149.0</ele><time>2026-03-28T16:11:56.328Z</time></trkpt><trkpt lat="42.7741297" lon="12.3711036"><ele>149.0</ele><time>2026-03-28T16:11:57.328Z</time></trkpt><trkpt lat="42.7742958" lon="12.3712625"><ele>149.0</ele><time>2026-03-28T16:11:58.328Z</time></trkpt><trkpt lat="42.7744715" lon="12.3714045"><ele>149.0</ele><time>2026-03-28T16:11:59.328Z</time></trkpt><trkpt lat="42.7746558" lon="12.3715304"><ele>148.33333333333331</ele><time>2026-03-28T16:12:00.328Z</time></trkpt><trkpt lat="42.7748365" lon="12.3716539"><ele>147.66666666666666</ele><time>2026-03-28T16:12:01.328Z</time></trkpt><trkpt lat="42.7750231" lon="12.3717761"><ele>147.0</ele><time>2026-03-28T16:12:02.328Z</time></trkpt><trkpt lat="42.7752107" lon="12.371904"><ele>146.66666666666666</ele><time>2026-03-28T16:12:03.328Z</time></trkpt><trkpt lat="42.7753941" lon="12.3720306"><ele>146.33333333333331</ele><time>2026-03-28T16:12:04.327Z</time></trkpt><trkpt lat="42.7755796" lon="12.3721546"><ele>146.0</ele><time>2026-03-28T16:12:05.328Z</time></trkpt><trkpt lat="42.7757594" lon="12.3722804"><ele>146.0</ele><time>2026-03-28T16:12:06.327Z</time></trkpt><trkpt lat="42.7759412" lon="12.3724022"><ele>146.0</ele><time>2026-03-28T16:12:07.327Z</time></trkpt><trkpt lat="42.7761286" lon="12.3725195"><ele>146.0</ele><time>2026-03-28T16:12:08.328Z</time></trkpt><trkpt lat="42.776311" lon="12.3726444"><ele>147.66666666666666</ele><time>2026-03-28T16:12:09.328Z</time></trkpt><trkpt lat="42.7764845" lon="12.3727576"><ele>149.33333333333334</ele><time>2026-03-28T16:12:10.328Z</time></trkpt><trkpt lat="42.7766462" lon="12.3728705"><ele>151.0</ele><time>2026-03-28T16:12:11.328Z</time></trkpt><trkpt lat="42.7768058" lon="12.3729708"><ele>149.0</ele><time>2026-03-28T16:12:12.328Z</time></trkpt><trkpt lat="42.7769675" lon="12.3730643"><ele>147.0</ele><time>2026-03-28T16:12:13.328Z</time></trkpt><trkpt lat="42.7771341" lon="12.3731299"><ele>145.0</ele><time>2026-03-28T16:12:14.328Z</time></trkpt><trkpt lat="42.7773154" lon="12.3731746"><ele>145.0</ele><time>2026-03-28T16:12:15.328Z</time></trkpt><trkpt lat="42.7774926" lon="12.3731911"><ele>145.0</ele><time>2026-03-28T16:12:16.327Z</time></trkpt><trkpt lat="42.7776707" lon="12.3731629"><ele>145.0</ele><time>2026-03-28T16:12:17.328Z</time></trkpt><trkpt lat="42.7778488" lon="12.3731064"><ele>144.66666666666669</ele><time>2026-03-28T16:12:18.327Z</time></trkpt><trkpt lat="42.7780222" lon="12.3730406"><ele>144.33333333333334</ele><time>2026-03-28T16:12:19.327Z</time></trkpt><trkpt lat="42.7781924" lon="12.372976"><ele>144.0</ele><time>2026-03-28T16:12:20.327Z</time></trkpt><trkpt lat="42.7783698" lon="12.3729047"><ele>146.66666666666666</ele><time>2026-03-28T16:12:21.328Z</time></trkpt><trkpt lat="42.7785386" lon="12.3728355"><ele>149.33333333333331</ele><time>2026-03-28T16:12:22.328Z</time></trkpt><trkpt lat="42.7787062" lon="12.372775"><ele>152.0</ele><time>2026-03-28T16:12:23.327Z</time></trkpt><trkpt lat="42.7788737" lon="12.3727103"><ele>152.0</ele><time>2026-03-28T16:12:24.328Z</time></trkpt><trkpt lat="42.7790342" lon="12.3726354"><ele>152.0</ele><time>2026-03-28T16:12:25.328Z</time></trkpt><trkpt lat="42.7791972" lon="12.3725707"><ele>152.0</ele><time>2026-03-28T16:12:26.328Z</time></trkpt><trkpt lat="42.7793509" lon="12.3725024"><ele>150.75</ele><time>2026-03-28T16:12:27.327Z</time></trkpt><trkpt lat="42.7794985" lon="12.3724383"><ele>149.5</ele><time>2026-03-28T16:12:28.327Z</time></trkpt><trkpt lat="42.7796446" lon="12.3723807"><ele>148.25</ele><time>2026-03-28T16:12:29.328Z</time></trkpt><trkpt lat="42.7797796" lon="12.3723237"><ele>147.0</ele><time>2026-03-28T16:12:30.328Z</time></trkpt><trkpt lat="42.7799096" lon="12.3722744"><ele>147.0</ele><time>2026-03-28T16:12:31.328Z</time></trkpt><trkpt lat="42.7800422" lon="12.3722272"><ele>147.0</ele><time>2026-03-28T16:12:32.328Z</time></trkpt><trkpt lat="42.7801772" lon="12.3721789"><ele>147.0</ele><time>2026-03-28T16:12:33.328Z</time></trkpt><trkpt lat="42.7803099" lon="12.3721233"><ele>147.0</ele><time>2026-03-28T16:12:34.328Z</time></trkpt><trkpt lat="42.7804482" lon="12.372068"><ele>151.66666666666666</ele><time>2026-03-28T16:12:35.328Z</time></trkpt><trkpt lat="42.780588" lon="12.3720136"><ele>156.33333333333331</ele><time>2026-03-28T16:12:36.328Z</time></trkpt><trkpt lat="42.780739" lon="12.3719576"><ele>161.0</ele><time>2026-03-28T16:12:37.328Z</time></trkpt><trkpt lat="42.7808906" lon="12.3719162"><ele>162.33333333333331</ele><time>2026-03-28T16:12:38.328Z</time></trkpt><trkpt lat="42.7810478" lon="12.3718855"><ele>163.66666666666666</ele><time>2026-03-28T16:12:39.328Z</time></trkpt><trkpt lat="42.7812059" lon="12.3718525"><ele>165.0</ele><time>2026-03-28T16:12:40.328Z</time></trkpt><trkpt lat="42.7813635" lon="12.3718278"><ele>165.0</ele><time>2026-03-28T16:12:41.328Z</time></trkpt><trkpt lat="42.7815238" lon="12.3717995"><ele>165.0</ele><time>2026-03-28T16:12:42.328Z</time></trkpt><trkpt lat="42.7816864" lon="12.371785"><ele>165.0</ele><time>2026-03-28T16:12:43.327Z</time></trkpt><trkpt lat="42.78185" lon="12.3717585"><ele>165.33333333333334</ele><time>2026-03-28T16:12:44.328Z</time></trkpt><trkpt lat="42.7820142" lon="12.3717492"><ele>165.66666666666669</ele><time>2026-03-28T16:12:45.328Z</time></trkpt><trkpt lat="42.7821797" lon="12.3717429"><ele>166.0</ele><time>2026-03-28T16:12:46.328Z</time></trkpt><trkpt lat="42.7823448" lon="12.3717325"><ele>166.0</ele><time>2026-03-28T16:12:47.327Z</time></trkpt><trkpt lat="42.7825087" lon="12.3717276"><ele>166.0</ele><time>2026-03-28T16:12:48.328Z</time></trkpt><trkpt lat="42.7826682" lon="12.3717374"><ele>166.0</ele><time>2026-03-28T16:12:49.328Z</time></trkpt><trkpt lat="42.7828285" lon="12.3717457"><ele>166.66666666666669</ele><time>2026-03-28T16:12:50.327Z</time></trkpt><trkpt lat="42.7829909" lon="12.3717562"><ele>167.33333333333334</ele><time>2026-03-28T16:12:51.327Z</time></trkpt><trkpt lat="42.7831527" lon="12.3717683"><ele>168.0</ele><time>2026-03-28T16:12:52.328Z</time></trkpt><trkpt lat="42.7833167" lon="12.3717802"><ele>168.0</ele><time>2026-03-28T16:12:53.327Z</time></trkpt><trkpt lat="42.7834747" lon="12.3717838"><ele>168.0</ele><time>2026-03-28T16:12:54.327Z</time></trkpt><trkpt lat="42.7836326" lon="12.3717908"><ele>168.0</ele><time>2026-03-28T16:12:55.328Z</time></trkpt><trkpt lat="42.783789" lon="12.3718007"><ele>167.66666666666666</ele><time>2026-03-28T16:12:56.328Z</time></trkpt><trkpt lat="42.7839518" lon="12.3718069"><ele>167.33333333333331</ele><time>2026-03-28T16:12:57.328Z</time></trkpt><trkpt lat="42.7841047" lon="12.371812"><ele>167.0</ele><time>2026-03-28T16:12:58.327Z</time></trkpt><trkpt lat="42.7842632" lon="12.3718197"><ele>170.66666666666666</ele><time>2026-03-28T16:12:59.328Z</time></trkpt><trkpt lat="42.7844208" lon="12.3718399"><ele>174.33333333333334</ele><time>2026-03-28T16:13:00.328Z</time></trkpt><trkpt lat="42.7845733" lon="12.3718654"><ele>178.0</ele><time>2026-03-28T16:13:01.328Z</time></trkpt><trkpt lat="42.7847212" lon="12.3719112"><ele>178.0</ele><time>2026-03-28T16:13:02.328Z</time></trkpt><trkpt lat="42.7848684" lon="12.3719614"><ele>178.0</ele><time>2026-03-28T16:13:03.328Z</time></trkpt><trkpt lat="42.7850094" lon="12.3720159"><ele>178.0</ele><time>2026-03-28T16:13:04.328Z</time></trkpt><trkpt lat="42.785151" lon="12.3720842"><ele>178.0</ele><time>2026-03-28T16:13:05.327Z</time></trkpt><trkpt lat="42.7852962" lon="12.3721723"><ele>178.66666666666669</ele><time>2026-03-28T16:13:06.328Z</time></trkpt><trkpt lat="42.7854367" lon="12.3722724"><ele>179.33333333333334</ele><time>2026-03-28T16:13:07.327Z</time></trkpt><trkpt lat="42.7855697" lon="12.3723844"><ele>180.0</ele><time>2026-03-28T16:13:08.328Z</time></trkpt><trkpt lat="42.7857062" lon="12.3725184"><ele>180.0</ele><time>2026-03-28T16:13:09.328Z</time></trkpt><trkpt lat="42.7858424" lon="12.3726584"><ele>180.0</ele><time>2026-03-28T16:13:10.328Z</time></trkpt><trkpt lat="42.7859698" lon="12.3728232"><ele>180.0</ele><time>2026-03-28T16:13:11.328Z</time></trkpt><trkpt lat="42.7860961" lon="12.3729975"><ele>182.33333333333334</ele><time>2026-03-28T16:13:12.327Z</time></trkpt><trkpt lat="42.786211" lon="12.3731869"><ele>184.66666666666669</ele><time>2026-03-28T16:13:13.328Z</time></trkpt><trkpt lat="42.7863261" lon="12.3733918"><ele>187.0</ele><time>2026-03-28T16:13:14.328Z</time></trkpt><trkpt lat="42.7864373" lon="12.3735929"><ele>187.0</ele><time>2026-03-28T16:13:15.328Z</time></trkpt><trkpt lat="42.7865379" lon="12.3737956"><ele>187.0</ele><time>2026-03-28T16:13:16.327Z</time></trkpt><trkpt lat="42.7866451" lon="12.3740004"><ele>187.0</ele><time>2026-03-28T16:13:17.328Z</time></trkpt><trkpt lat="42.7867456" lon="12.3742087"><ele>184.66666666666669</ele><time>2026-03-28T16:13:18.327Z</time></trkpt><trkpt lat="42.7868615" lon="12.3744202"><ele>182.33333333333334</ele><time>2026-03-28T16:13:19.328Z</time></trkpt><trkpt lat="42.7869732" lon="12.3746358"><ele>180.0</ele><time>2026-03-28T16:13:20.327Z</time></trkpt><trkpt lat="42.7870888" lon="12.3748581"><ele>180.0</ele><time>2026-03-28T16:13:21.328Z</time></trkpt><trkpt lat="42.7872053" lon="12.3750859"><ele>180.0</ele><time>2026-03-28T16:13:22.328Z</time></trkpt><trkpt lat="42.7873218" lon="12.3753157"><ele>180.0</ele><time>2026-03-28T16:13:23.328Z</time></trkpt><trkpt lat="42.7874343" lon="12.3755423"><ele>180.66666666666666</ele><time>2026-03-28T16:13:24.327Z</time></trkpt><trkpt lat="42.7875487" lon="12.3757722"><ele>181.33333333333331</ele><time>2026-03-28T16:13:25.327Z</time></trkpt><trkpt lat="42.7876473" lon="12.3760106"><ele>182.0</ele><time>2026-03-28T16:13:26.328Z</time></trkpt><trkpt lat="42.7877315" lon="12.3762532"><ele>177.33333333333331</ele><time>2026-03-28T16:13:27.328Z</time></trkpt><trkpt lat="42.7878085" lon="12.3764976"><ele>172.66666666666666</ele><time>2026-03-28T16:13:28.327Z</time></trkpt><trkpt lat="42.7878853" lon="12.3767521"><ele>168.0</ele><time>2026-03-28T16:13:29.328Z</time></trkpt><trkpt lat="42.7879488" lon="12.37701"><ele>165.66666666666666</ele><time>2026-03-28T16:13:30.328Z</time></trkpt><trkpt lat="42.7880006" lon="12.3772673"><ele>163.33333333333331</ele><time>2026-03-28T16:13:31.328Z</time></trkpt><trkpt lat="42.7880482" lon="12.3775308"><ele>161.0</ele><time>2026-03-28T16:13:32.328Z</time></trkpt><trkpt lat="42.7880863" lon="12.3778003"><ele>159.33333333333331</ele><time>2026-03-28T16:13:33.328Z</time></trkpt><trkpt lat="42.788117" lon="12.3780726"><ele>157.66666666666666</ele><time>2026-03-28T16:13:34.328Z</time></trkpt><trkpt lat="42.7881487" lon="12.3783438"><ele>156.0</ele><time>2026-03-28T16:13:35.328Z</time></trkpt><trkpt lat="42.7881751" lon="12.378615"><ele>155.0</ele><time>2026-03-28T16:13:36.328Z</time></trkpt><trkpt lat="42.7882031" lon="12.3788862"><ele>154.0</ele><time>2026-03-28T16:13:37.328Z</time></trkpt><trkpt lat="42.7882302" lon="12.3791566"><ele>153.0</ele><time>2026-03-28T16:13:38.327Z</time></trkpt><trkpt lat="42.7882646" lon="12.3794296"><ele>153.66666666666666</ele><time>2026-03-28T16:13:39.328Z</time></trkpt><trkpt lat="42.7882931" lon="12.3797068"><ele>154.33333333333331</ele><time>2026-03-28T16:13:40.328Z</time></trkpt><trkpt lat="42.7883252" lon="12.3799892"><ele>155.0</ele><time>2026-03-28T16:13:41.328Z</time></trkpt><trkpt lat="42.7883589" lon="12.3802629"><ele>155.0</ele><time>2026-03-28T16:13:42.328Z</time></trkpt><trkpt lat="42.7883961" lon="12.3805386"><ele>155.0</ele><time>2026-03-28T16:13:43.327Z</time></trkpt><trkpt lat="42.7884437" lon="12.3808052"><ele>155.0</ele><time>2026-03-28T16:13:44.328Z</time></trkpt><trkpt lat="42.7884955" lon="12.3810565"><ele>160.66666666666666</ele><time>2026-03-28T16:13:45.327Z</time></trkpt><trkpt lat="42.7885568" lon="12.3812983"><ele>166.33333333333334</ele><time>2026-03-28T16:13:46.328Z</time></trkpt><trkpt lat="42.7886211" lon="12.3815211"><ele>172.0</ele><time>2026-03-28T16:13:47.328Z</time></trkpt><trkpt lat="42.7886883" lon="12.3817422"><ele>173.33333333333334</ele><time>2026-03-28T16:13:48.327Z</time></trkpt><trkpt lat="42.7887476" lon="12.3819352"><ele>174.66666666666666</ele><time>2026-03-28T16:13:49.328Z</time></trkpt><trkpt lat="42.7888249" lon="12.3821339"><ele>176.0</ele><time>2026-03-28T16:13:50.327Z</time></trkpt><trkpt lat="42.7889052" lon="12.3823296"><ele>173.33333333333331</ele><time>2026-03-28T16:13:51.327Z</time></trkpt><trkpt lat="42.7889889" lon="12.382523"><ele>170.66666666666666</ele><time>2026-03-28T16:13:52.328Z</time></trkpt><trkpt lat="42.7890802" lon="12.3827139"><ele>168.0</ele><time>2026-03-28T16:13:53.328Z</time></trkpt><trkpt lat="42.7891757" lon="12.3829008"><ele>168.0</ele><time>2026-03-28T16:13:54.328Z</time></trkpt><trkpt lat="42.789279" lon="12.3830862"><ele>168.0</ele><time>2026-03-28T16:13:55.328Z</time></trkpt><trkpt lat="42.7893892" lon="12.3832704"><ele>168.0</ele><time>2026-03-28T16:13:56.328Z</time></trkpt><trkpt lat="42.7895022" lon="12.383448"><ele>168.0</ele><time>2026-03-28T16:13:57.327Z</time></trkpt><trkpt lat="42.7896234" lon="12.383618"><ele>168.0</ele><time>2026-03-28T16:13:58.327Z</time></trkpt><trkpt lat="42.7897467" lon="12.3837867"><ele>168.0</ele><time>2026-03-28T16:13:59.328Z</time></trkpt><trkpt lat="42.7898754" lon="12.3839522"><ele>166.66666666666666</ele><time>2026-03-28T16:14:00.327Z</time></trkpt><trkpt lat="42.7900139" lon="12.3841231"><ele>165.33333333333331</ele><time>2026-03-28T16:14:01.328Z</time></trkpt><trkpt lat="42.7901525" lon="12.3842926"><ele>164.0</ele><time>2026-03-28T16:14:02.328Z</time></trkpt><trkpt lat="42.7902969" lon="12.3844591"><ele>164.0</ele><time>2026-03-28T16:14:03.328Z</time></trkpt><trkpt lat="42.790436" lon="12.3846277"><ele>164.0</ele><time>2026-03-28T16:14:04.328Z</time></trkpt><trkpt lat="42.7905776" lon="12.3847999"><ele>164.0</ele><time>2026-03-28T16:14:05.328Z</time></trkpt><trkpt lat="42.7907265" lon="12.3849668"><ele>162.66666666666666</ele><time>2026-03-28T16:14:06.328Z</time></trkpt><trkpt lat="42.7908732" lon="12.3851285"><ele>161.33333333333334</ele><time>2026-03-28T16:14:07.328Z</time></trkpt><trkpt lat="42.7910146" lon="12.3852923"><ele>160.0</ele><time>2026-03-28T16:14:08.328Z</time></trkpt><trkpt lat="42.7911545" lon="12.3854546"><ele>156.33333333333334</ele><time>2026-03-28T16:14:09.328Z</time></trkpt><trkpt lat="42.7912943" lon="12.385625"><ele>152.66666666666666</ele><time>2026-03-28T16:14:10.328Z</time></trkpt><trkpt lat="42.7914387" lon="12.3857958"><ele>149.0</ele><time>2026-03-28T16:14:11.327Z</time></trkpt><trkpt lat="42.7915877" lon="12.385974"><ele>149.0</ele><time>2026-03-28T16:14:12.327Z</time></trkpt><trkpt lat="42.7917428" lon="12.3861495"><ele>149.0</ele><time>2026-03-28T16:14:13.328Z</time></trkpt><trkpt lat="42.7918936" lon="12.3863371"><ele>149.0</ele><time>2026-03-28T16:14:14.328Z</time></trkpt><trkpt lat="42.7920495" lon="12.3865202"><ele>147.66666666666666</ele><time>2026-03-28T16:14:15.327Z</time></trkpt><trkpt lat="42.7922074" lon="12.386707"><ele>146.33333333333334</ele><time>2026-03-28T16:14:16.328Z</time></trkpt><trkpt lat="42.7923665" lon="12.3868933"><ele>145.0</ele><time>2026-03-28T16:14:17.328Z</time></trkpt><trkpt lat="42.7925249" lon="12.3870812"><ele>144.0</ele><time>2026-03-28T16:14:18.327Z</time></trkpt><trkpt lat="42.7926798" lon="12.387269"><ele>143.0</ele><time>2026-03-28T16:14:19.327Z</time></trkpt><trkpt lat="42.7928399" lon="12.3874552"><ele>142.0</ele><time>2026-03-28T16:14:20.328Z</time></trkpt><trkpt lat="42.792999" lon="12.3876391"><ele>142.0</ele><time>2026-03-28T16:14:21.328Z</time></trkpt><trkpt lat="42.7931585" lon="12.3878271"><ele>142.0</ele><time>2026-03-28T16:14:22.328Z</time></trkpt><trkpt lat="42.7933199" lon="12.3880112"><ele>142.0</ele><time>2026-03-28T16:14:23.328Z</time></trkpt><trkpt lat="42.7934848" lon="12.388196"><ele>143.0</ele><time>2026-03-28T16:14:24.327Z</time></trkpt><trkpt lat="42.7936455" lon="12.3883833"><ele>144.0</ele><time>2026-03-28T16:14:25.328Z</time></trkpt><trkpt lat="42.7938137" lon="12.3885678"><ele>145.0</ele><time>2026-03-28T16:14:26.328Z</time></trkpt><trkpt lat="42.7939799" lon="12.3887594"><ele>145.33333333333334</ele><time>2026-03-28T16:14:27.328Z</time></trkpt><trkpt lat="42.7941392" lon="12.3889542"><ele>145.66666666666666</ele><time>2026-03-28T16:14:28.328Z</time></trkpt><trkpt lat="42.7943041" lon="12.3891438"><ele>146.0</ele><time>2026-03-28T16:14:29.327Z</time></trkpt><trkpt lat="42.7944657" lon="12.3893347"><ele>146.0</ele><time>2026-03-28T16:14:30.327Z</time></trkpt><trkpt lat="42.7946281" lon="12.3895316"><ele>146.0</ele><time>2026-03-28T16:14:31.328Z</time></trkpt><trkpt lat="42.7947905" lon="12.3897214"><ele>146.0</ele><time>2026-03-28T16:14:32.327Z</time></trkpt><trkpt lat="42.7949543" lon="12.3899097"><ele>146.33333333333331</ele><time>2026-03-28T16:14:33.328Z</time></trkpt><trkpt lat="42.7951122" lon="12.3901015"><ele>146.66666666666666</ele><time>2026-03-28T16:14:34.328Z</time></trkpt><trkpt lat="42.7952699" lon="12.3902875"><ele>147.0</ele><time>2026-03-28T16:14:35.328Z</time></trkpt><trkpt lat="42.7954302" lon="12.3904701"><ele>147.0</ele><time>2026-03-28T16:14:36.328Z</time></trkpt><trkpt lat="42.7955905" lon="12.3906478"><ele>147.0</ele><time>2026-03-28T16:14:37.327Z</time></trkpt><trkpt lat="42.7957482" lon="12.3908275"><ele>147.0</ele><time>2026-03-28T16:14:38.327Z</time></trkpt><trkpt lat="42.7959032" lon="12.3910053"><ele>146.66666666666666</ele><time>2026-03-28T16:14:39.328Z</time></trkpt><trkpt lat="42.7960599" lon="12.3911888"><ele>146.33333333333331</ele><time>2026-03-28T16:14:40.328Z</time></trkpt><trkpt lat="42.7962161" lon="12.3913762"><ele>146.0</ele><time>2026-03-28T16:14:41.328Z</time></trkpt><trkpt lat="42.7963751" lon="12.3915559"><ele>146.0</ele><time>2026-03-28T16:14:42.328Z</time></trkpt><trkpt lat="42.7965343" lon="12.3917464"><ele>146.0</ele><time>2026-03-28T16:14:43.328Z</time></trkpt><trkpt lat="42.796693" lon="12.3919403"><ele>146.0</ele><time>2026-03-28T16:14:44.328Z</time></trkpt><trkpt lat="42.7968513" lon="12.3921354"><ele>146.33333333333331</ele><time>2026-03-28T16:14:45.327Z</time></trkpt><trkpt lat="42.7970113" lon="12.3923234"><ele>146.66666666666666</ele><time>2026-03-28T16:14:46.327Z</time></trkpt><trkpt lat="42.7971719" lon="12.3925101"><ele>147.0</ele><time>2026-03-28T16:14:47.328Z</time></trkpt><trkpt lat="42.7973293" lon="12.392701"><ele>147.0</ele><time>2026-03-28T16:14:48.328Z</time></trkpt><trkpt lat="42.7974831" lon="12.3928951"><ele>147.0</ele><time>2026-03-28T16:14:49.328Z</time></trkpt><trkpt lat="42.7976283" lon="12.3931026"><ele>147.0</ele><time>2026-03-28T16:14:50.328Z</time></trkpt><trkpt lat="42.7977758" lon="12.3933073"><ele>146.33333333333334</ele><time>2026-03-28T16:14:51.328Z</time></trkpt><trkpt lat="42.7979154" lon="12.3935189"><ele>145.66666666666669</ele><time>2026-03-28T16:14:52.328Z</time></trkpt><trkpt lat="42.7980591" lon="12.3937331"><ele>145.0</ele><time>2026-03-28T16:14:53.328Z</time></trkpt><trkpt lat="42.7982046" lon="12.3939489"><ele>145.0</ele><time>2026-03-28T16:14:54.327Z</time></trkpt><trkpt lat="42.7983508" lon="12.3941677"><ele>145.0</ele><time>2026-03-28T16:14:55.328Z</time></trkpt><trkpt lat="42.7984859" lon="12.3943918"><ele>145.0</ele><time>2026-03-28T16:14:56.328Z</time></trkpt><trkpt lat="42.7986257" lon="12.3946143"><ele>145.0</ele><time>2026-03-28T16:14:57.327Z</time></trkpt><trkpt lat="42.7987615" lon="12.3948421"><ele>145.0</ele><time>2026-03-28T16:14:58.328Z</time></trkpt><trkpt lat="42.7988983" lon="12.3950718"><ele>145.0</ele><time>2026-03-28T16:14:59.327Z</time></trkpt><trkpt lat="42.7990258" lon="12.3953067"><ele>145.0</ele><time>2026-03-28T16:15:00.328Z</time></trkpt><trkpt lat="42.7991453" lon="12.3955363"><ele>145.0</ele><time>2026-03-28T16:15:01.327Z</time></trkpt><trkpt lat="42.7992654" lon="12.3957619"><ele>145.0</ele><time>2026-03-28T16:15:02.328Z</time></trkpt><trkpt lat="42.7993948" lon="12.3959785"><ele>145.0</ele><time>2026-03-28T16:15:03.328Z</time></trkpt><trkpt lat="42.7995188" lon="12.3961914"><ele>145.0</ele><time>2026-03-28T16:15:04.328Z</time></trkpt><trkpt lat="42.7996326" lon="12.3964019"><ele>145.0</ele><time>2026-03-28T16:15:05.328Z</time></trkpt><trkpt lat="42.7997501" lon="12.3966017"><ele>145.33333333333334</ele><time>2026-03-28T16:15:06.327Z</time></trkpt><trkpt lat="42.7998648" lon="12.3968026"><ele>145.66666666666666</ele><time>2026-03-28T16:15:07.327Z</time></trkpt><trkpt lat="42.7999682" lon="12.3969942"><ele>146.0</ele><time>2026-03-28T16:15:08.328Z</time></trkpt><trkpt lat="42.8000662" lon="12.3971915"><ele>145.0</ele><time>2026-03-28T16:15:09.328Z</time></trkpt><trkpt lat="42.8001731" lon="12.39739"><ele>144.0</ele><time>2026-03-28T16:15:10.327Z</time></trkpt><trkpt lat="42.8002781" lon="12.3975773"><ele>143.0</ele><time>2026-03-28T16:15:11.328Z</time></trkpt><trkpt lat="42.8003788" lon="12.3977731"><ele>143.0</ele><time>2026-03-28T16:15:12.327Z</time></trkpt><trkpt lat="42.8004833" lon="12.3979681"><ele>143.0</ele><time>2026-03-28T16:15:13.328Z</time></trkpt><trkpt lat="42.8006003" lon="12.398156"><ele>143.0</ele><time>2026-03-28T16:15:14.327Z</time></trkpt><trkpt lat="42.8007045" lon="12.3983485"><ele>143.33333333333331</ele><time>2026-03-28T16:15:15.328Z</time></trkpt><trkpt lat="42.8008124" lon="12.3985454"><ele>143.66666666666666</ele><time>2026-03-28T16:15:16.328Z</time></trkpt><trkpt lat="42.8009235" lon="12.3987458"><ele>144.0</ele><time>2026-03-28T16:15:17.327Z</time></trkpt><trkpt lat="42.801032" lon="12.3989428"><ele>144.0</ele><time>2026-03-28T16:15:18.328Z</time></trkpt><trkpt lat="42.8011452" lon="12.3991446"><ele>144.0</ele><time>2026-03-28T16:15:19.327Z</time></trkpt><trkpt lat="42.8012597" lon="12.3993489"><ele>144.0</ele><time>2026-03-28T16:15:20.328Z</time></trkpt><trkpt lat="42.8013746" lon="12.399557"><ele>144.66666666666666</ele><time>2026-03-28T16:15:21.328Z</time></trkpt><trkpt lat="42.8014881" lon="12.3997663"><ele>145.33333333333331</ele><time>2026-03-28T16:15:22.327Z</time></trkpt><trkpt lat="42.8016044" lon="12.3999826"><ele>146.0</ele><time>2026-03-28T16:15:23.328Z</time></trkpt><trkpt lat="42.8017204" lon="12.4002016"><ele>145.66666666666666</ele><time>2026-03-28T16:15:24.328Z</time></trkpt><trkpt lat="42.8018411" lon="12.400424"><ele>145.33333333333334</ele><time>2026-03-28T16:15:25.328Z</time></trkpt><trkpt lat="42.8019638" lon="12.4006392"><ele>145.0</ele><time>2026-03-28T16:15:26.328Z</time></trkpt><trkpt lat="42.8020905" lon="12.4008573"><ele>145.33333333333334</ele><time>2026-03-28T16:15:27.328Z</time></trkpt><trkpt lat="42.8022145" lon="12.4010792"><ele>145.66666666666666</ele><time>2026-03-28T16:15:28.328Z</time></trkpt><trkpt lat="42.8023381" lon="12.401298"><ele>146.0</ele><time>2026-03-28T16:15:29.328Z</time></trkpt><trkpt lat="42.802468" lon="12.4015204"><ele>146.0</ele><time>2026-03-28T16:15:30.328Z</time></trkpt><trkpt lat="42.8025921" lon="12.4017445"><ele>146.0</ele><time>2026-03-28T16:15:31.328Z</time></trkpt><trkpt lat="42.802719" lon="12.4019643"><ele>146.0</ele><time>2026-03-28T16:15:32.328Z</time></trkpt><trkpt lat="42.8028376" lon="12.4021842"><ele>145.66666666666666</ele><time>2026-03-28T16:15:33.328Z</time></trkpt><trkpt lat="42.8029607" lon="12.4024042"><ele>145.33333333333334</ele><time>2026-03-28T16:15:34.328Z</time></trkpt><trkpt lat="42.8030826" lon="12.4026229"><ele>145.0</ele><time>2026-03-28T16:15:35.327Z</time></trkpt><trkpt lat="42.8032047" lon="12.4028378"><ele>145.33333333333334</ele><time>2026-03-28T16:15:36.327Z</time></trkpt><trkpt lat="42.8033182" lon="12.4030543"><ele>145.66666666666666</ele><time>2026-03-28T16:15:37.328Z</time></trkpt><trkpt lat="42.8034352" lon="12.4032661"><ele>146.0</ele><time>2026-03-28T16:15:38.328Z</time></trkpt><trkpt lat="42.8035529" lon="12.4034761"><ele>145.33333333333331</ele><time>2026-03-28T16:15:39.328Z</time></trkpt><trkpt lat="42.8036688" lon="12.4036844"><ele>144.66666666666666</ele><time>2026-03-28T16:15:40.328Z</time></trkpt><trkpt lat="42.8037853" lon="12.4038928"><ele>144.0</ele><time>2026-03-28T16:15:41.328Z</time></trkpt><trkpt lat="42.8038995" lon="12.4040964"><ele>144.0</ele><time>2026-03-28T16:15:42.328Z</time></trkpt><trkpt lat="42.8040076" lon="12.4042956"><ele>144.0</ele><time>2026-03-28T16:15:43.328Z</time></trkpt><trkpt lat="42.8041058" lon="12.4044886"><ele>144.0</ele><time>2026-03-28T16:15:44.327Z</time></trkpt><trkpt lat="42.8041943" lon="12.4046772"><ele>144.0</ele><time>2026-03-28T16:15:45.328Z</time></trkpt><trkpt lat="42.804273" lon="12.4048657"><ele>144.0</ele><time>2026-03-28T16:15:46.328Z</time></trkpt><trkpt lat="42.8043345" lon="12.405045"><ele>144.0</ele><time>2026-03-28T16:15:47.328Z</time></trkpt><trkpt lat="42.8043865" lon="12.4052265"><ele>144.0</ele><time>2026-03-28T16:15:48.328Z</time></trkpt><trkpt lat="42.8044343" lon="12.4054096"><ele>144.0</ele><time>2026-03-28T16:15:49.327Z</time></trkpt><trkpt lat="42.8044775" lon="12.4055814"><ele>144.0</ele><time>2026-03-28T16:15:50.327Z</time></trkpt><trkpt lat="42.8045256" lon="12.4057474"><ele>144.0</ele><time>2026-03-28T16:15:51.328Z</time></trkpt><trkpt lat="42.8045601" lon="12.4059212"><ele>144.0</ele><time>2026-03-28T16:15:52.328Z</time></trkpt><trkpt lat="42.8045942" lon="12.4060997"><ele>144.0</ele><time>2026-03-28T16:15:53.328Z</time></trkpt><trkpt lat="42.8046216" lon="12.4062781"><ele>144.0</ele><time>2026-03-28T16:15:54.328Z</time></trkpt><trkpt lat="42.804647" lon="12.406454"><ele>144.0</ele><time>2026-03-28T16:15:55.328Z</time></trkpt><trkpt lat="42.8046696" lon="12.4066356"><ele>144.0</ele><time>2026-03-28T16:15:56.327Z</time></trkpt><trkpt lat="42.8046994" lon="12.4068233"><ele>144.5</ele><time>2026-03-28T16:15:57.328Z</time></trkpt><trkpt lat="42.8047297" lon="12.4070073"><ele>145.0</ele><time>2026-03-28T16:15:58.327Z</time></trkpt><trkpt lat="42.8047537" lon="12.4071867"><ele>145.5</ele><time>2026-03-28T16:15:59.328Z</time></trkpt><trkpt lat="42.8047868" lon="12.4073708"><ele>146.0</ele><time>2026-03-28T16:16:00.328Z</time></trkpt><trkpt lat="42.8048146" lon="12.4075424"><ele>146.2</ele><time>2026-03-28T16:16:01.328Z</time></trkpt><trkpt lat="42.80484" lon="12.4077008"><ele>146.39999999999998</ele><time>2026-03-28T16:16:02.327Z</time></trkpt><trkpt lat="42.8048639" lon="12.4078338"><ele>146.6</ele><time>2026-03-28T16:16:03.328Z</time></trkpt><trkpt lat="42.8048838" lon="12.4079618"><ele>146.79999999999998</ele><time>2026-03-28T16:16:04.328Z</time></trkpt><trkpt lat="42.8048991" lon="12.4080677"><ele>147.0</ele><time>2026-03-28T16:16:05.328Z</time></trkpt><trkpt lat="42.8049138" lon="12.4081621"><ele>147.0</ele><time>2026-03-28T16:16:06.328Z</time></trkpt><trkpt lat="42.8049347" lon="12.4083236"><ele>147.0</ele><time>2026-03-28T16:16:08.328Z</time></trkpt><trkpt lat="42.804969" lon="12.4084573"><ele>147.0</ele><time>2026-03-28T16:16:10.328Z</time></trkpt><trkpt lat="42.8050211" lon="12.4085327"><ele>147.0</ele><time>2026-03-28T16:16:12.327Z</time></trkpt><trkpt lat="42.8051271" lon="12.4085286"><ele>147.0</ele><time>2026-03-28T16:16:14.328Z</time></trkpt><trkpt lat="42.8052496" lon="12.4084706"><ele>147.16666666666666</ele><time>2026-03-28T16:16:16.328Z</time></trkpt><trkpt lat="42.8053177" lon="12.4084314"><ele>147.33333333333334</ele><time>2026-03-28T16:16:17.328Z</time></trkpt><trkpt lat="42.8053932" lon="12.4083838"><ele>147.5</ele><time>2026-03-28T16:16:18.327Z</time></trkpt><trkpt lat="42.8054721" lon="12.4083415"><ele>147.66666666666669</ele><time>2026-03-28T16:16:19.328Z</time></trkpt><trkpt lat="42.8055491" lon="12.4082907"><ele>147.83333333333334</ele><time>2026-03-28T16:16:20.328Z</time></trkpt><trkpt lat="42.8056113" lon="12.4082331"><ele>148.0</ele><time>2026-03-28T16:16:21.327Z</time></trkpt><trkpt lat="42.8056713" lon="12.4081826"><ele>148.0</ele><time>2026-03-28T16:16:22.327Z</time></trkpt><trkpt lat="42.8057625" lon="12.4080996"><ele>148.0</ele><time>2026-03-28T16:16:24.327Z</time></trkpt><trkpt lat="42.8058176" lon="12.4080474"><ele>148.0</ele><time>2026-03-28T16:16:25.327Z</time></trkpt><trkpt lat="42.8058756" lon="12.4079998"><ele>148.0</ele><time>2026-03-28T16:16:26.328Z</time></trkpt><trkpt lat="42.805947" lon="12.4079369"><ele>148.0</ele><time>2026-03-28T16:16:27.328Z</time></trkpt><trkpt lat="42.8060282" lon="12.4078698"><ele>148.0</ele><time>2026-03-28T16:16:28.328Z</time></trkpt><trkpt lat="42.8061071" lon="12.4077955"><ele>148.0</ele><time>2026-03-28T16:16:29.327Z</time></trkpt><trkpt lat="42.8061953" lon="12.4077258"><ele>148.0</ele><time>2026-03-28T16:16:30.328Z</time></trkpt><trkpt lat="42.806286" lon="12.4076443"><ele>148.0</ele><time>2026-03-28T16:16:31.327Z</time></trkpt><trkpt lat="42.806381" lon="12.4075711"><ele>148.0</ele><time>2026-03-28T16:16:32.327Z</time></trkpt><trkpt lat="42.8064878" lon="12.4075168"><ele>148.0</ele><time>2026-03-28T16:16:33.328Z</time></trkpt><trkpt lat="42.8065957" lon="12.40747"><ele>148.0</ele><time>2026-03-28T16:16:34.327Z</time></trkpt><trkpt lat="42.806704" lon="12.4074307"><ele>148.0</ele><time>2026-03-28T16:16:35.327Z</time></trkpt><trkpt lat="42.8068326" lon="12.4073858"><ele>148.0</ele><time>2026-03-28T16:16:36.327Z</time></trkpt><trkpt lat="42.8069641" lon="12.4073544"><ele>148.0</ele><time>2026-03-28T16:16:37.328Z</time></trkpt><trkpt lat="42.8070937" lon="12.4073142"><ele>147.66666666666669</ele><time>2026-03-28T16:16:38.328Z</time></trkpt><trkpt lat="42.8072311" lon="12.4072736"><ele>147.33333333333334</ele><time>2026-03-28T16:16:39.328Z</time></trkpt><trkpt lat="42.8073834" lon="12.4072281"><ele>147.0</ele><time>2026-03-28T16:16:40.328Z</time></trkpt><trkpt lat="42.807537" lon="12.4071817"><ele>146.66666666666666</ele><time>2026-03-28T16:16:41.328Z</time></trkpt><trkpt lat="42.8076824" lon="12.407138"><ele>146.33333333333331</ele><time>2026-03-28T16:16:42.328Z</time></trkpt><trkpt lat="42.8078369" lon="12.4070883"><ele>146.0</ele><time>2026-03-28T16:16:43.327Z</time></trkpt><trkpt lat="42.8079873" lon="12.4070482"><ele>146.0</ele><time>2026-03-28T16:16:44.327Z</time></trkpt><trkpt lat="42.808139" lon="12.4070031"><ele>146.0</ele><time>2026-03-28T16:16:45.328Z</time></trkpt><trkpt lat="42.8082945" lon="12.4069737"><ele>146.0</ele><time>2026-03-28T16:16:46.327Z</time></trkpt><trkpt lat="42.8084488" lon="12.4069299"><ele>146.33333333333331</ele><time>2026-03-28T16:16:47.327Z</time></trkpt><trkpt lat="42.8085993" lon="12.4068868"><ele>146.66666666666666</ele><time>2026-03-28T16:16:48.328Z</time></trkpt><trkpt lat="42.8087463" lon="12.4068426"><ele>147.0</ele><time>2026-03-28T16:16:49.328Z</time></trkpt><trkpt lat="42.8088958" lon="12.4068092"><ele>147.0</ele><time>2026-03-28T16:16:50.328Z</time></trkpt><trkpt lat="42.8090488" lon="12.4067624"><ele>147.0</ele><time>2026-03-28T16:16:51.327Z</time></trkpt><trkpt lat="42.8092057" lon="12.4067258"><ele>147.0</ele><time>2026-03-28T16:16:52.327Z</time></trkpt><trkpt lat="42.8093533" lon="12.4066835"><ele>147.0</ele><time>2026-03-28T16:16:53.328Z</time></trkpt><trkpt lat="42.8095029" lon="12.4066393"><ele>147.0</ele><time>2026-03-28T16:16:54.328Z</time></trkpt><trkpt lat="42.8096611" lon="12.406596"><ele>147.0</ele><time>2026-03-28T16:16:55.328Z</time></trkpt><trkpt lat="42.8098138" lon="12.4065517"><ele>147.0</ele><time>2026-03-28T16:16:56.327Z</time></trkpt><trkpt lat="42.8099691" lon="12.4065077"><ele>147.0</ele><time>2026-03-28T16:16:57.328Z</time></trkpt><trkpt lat="42.8101189" lon="12.4064582"><ele>147.0</ele><time>2026-03-28T16:16:58.328Z</time></trkpt><trkpt lat="42.8102706" lon="12.406408"><ele>147.33333333333334</ele><time>2026-03-28T16:16:59.328Z</time></trkpt><trkpt lat="42.8104293" lon="12.4063648"><ele>147.66666666666669</ele><time>2026-03-28T16:17:00.327Z</time></trkpt><trkpt lat="42.8105864" lon="12.4063263"><ele>148.0</ele><time>2026-03-28T16:17:01.328Z</time></trkpt><trkpt lat="42.8107423" lon="12.4062819"><ele>147.66666666666669</ele><time>2026-03-28T16:17:02.327Z</time></trkpt><trkpt lat="42.8109036" lon="12.4062353"><ele>147.33333333333334</ele><time>2026-03-28T16:17:03.327Z</time></trkpt><trkpt lat="42.8110614" lon="12.4061881"><ele>147.0</ele><time>2026-03-28T16:17:04.328Z</time></trkpt><trkpt lat="42.8112239" lon="12.4061488"><ele>147.0</ele><time>2026-03-28T16:17:05.327Z</time></trkpt><trkpt lat="42.8113887" lon="12.4061103"><ele>147.0</ele><time>2026-03-28T16:17:06.328Z</time></trkpt><trkpt lat="42.8115405" lon="12.4060639"><ele>147.0</ele><time>2026-03-28T16:17:07.328Z</time></trkpt><trkpt lat="42.8117024" lon="12.40603"><ele>146.66666666666666</ele><time>2026-03-28T16:17:08.327Z</time></trkpt><trkpt lat="42.811873" lon="12.4059764"><ele>146.33333333333331</ele><time>2026-03-28T16:17:09.327Z</time></trkpt><trkpt lat="42.8120392" lon="12.405927"><ele>146.0</ele><time>2026-03-28T16:17:10.328Z</time></trkpt><trkpt lat="42.8122094" lon="12.4058959"><ele>146.0</ele><time>2026-03-28T16:17:11.328Z</time></trkpt><trkpt lat="42.8123685" lon="12.4058511"><ele>146.0</ele><time>2026-03-28T16:17:12.327Z</time></trkpt><trkpt lat="42.8125281" lon="12.4057976"><ele>146.0</ele><time>2026-03-28T16:17:13.328Z</time></trkpt><trkpt lat="42.8126905" lon="12.4057571"><ele>147.0</ele><time>2026-03-28T16:17:14.327Z</time></trkpt><trkpt lat="42.8128532" lon="12.4057113"><ele>148.0</ele><time>2026-03-28T16:17:15.327Z</time></trkpt><trkpt lat="42.81301" lon="12.4056594"><ele>149.0</ele><time>2026-03-28T16:17:16.327Z</time></trkpt><trkpt lat="42.8131603" lon="12.4056148"><ele>149.0</ele><time>2026-03-28T16:17:17.328Z</time></trkpt><trkpt lat="42.8133084" lon="12.4055779"><ele>149.0</ele><time>2026-03-28T16:17:18.328Z</time></trkpt><trkpt lat="42.8134496" lon="12.4055307"><ele>149.0</ele><time>2026-03-28T16:17:19.328Z</time></trkpt><trkpt lat="42.8135949" lon="12.4054889"><ele>149.0</ele><time>2026-03-28T16:17:20.328Z</time></trkpt><trkpt lat="42.8137363" lon="12.4054537"><ele>149.0</ele><time>2026-03-28T16:17:21.328Z</time></trkpt><trkpt lat="42.8138815" lon="12.4054125"><ele>149.0</ele><time>2026-03-28T16:17:22.328Z</time></trkpt><trkpt lat="42.8140254" lon="12.4053701"><ele>149.0</ele><time>2026-03-28T16:17:23.328Z</time></trkpt><trkpt lat="42.8141695" lon="12.40533"><ele>149.0</ele><time>2026-03-28T16:17:24.328Z</time></trkpt><trkpt lat="42.8143122" lon="12.4052921"><ele>149.33333333333331</ele><time>2026-03-28T16:17:25.328Z</time></trkpt><trkpt lat="42.8144584" lon="12.4052561"><ele>149.66666666666666</ele><time>2026-03-28T16:17:26.327Z</time></trkpt><trkpt lat="42.8146046" lon="12.4052172"><ele>150.0</ele><time>2026-03-28T16:17:27.328Z</time></trkpt><trkpt lat="42.8147611" lon="12.4051754"><ele>150.0</ele><time>2026-03-28T16:17:28.327Z</time></trkpt><trkpt lat="42.8149064" lon="12.4051245"><ele>150.0</ele><time>2026-03-28T16:17:29.327Z</time></trkpt><trkpt lat="42.8150593" lon="12.4050745"><ele>150.0</ele><time>2026-03-28T16:17:30.327Z</time></trkpt><trkpt lat="42.8152148" lon="12.405031"><ele>150.0</ele><time>2026-03-28T16:17:31.327Z</time></trkpt><trkpt lat="42.8153658" lon="12.4049847"><ele>150.0</ele><time>2026-03-28T16:17:32.328Z</time></trkpt><trkpt lat="42.8155287" lon="12.4049487"><ele>150.0</ele><time>2026-03-28T16:17:33.328Z</time></trkpt><trkpt lat="42.8156797" lon="12.4049076"><ele>150.0</ele><time>2026-03-28T16:17:34.328Z</time></trkpt><trkpt lat="42.8158356" lon="12.4048705"><ele>150.0</ele><time>2026-03-28T16:17:35.328Z</time></trkpt><trkpt lat="42.8159874" lon="12.4048218"><ele>150.0</ele><time>2026-03-28T16:17:36.328Z</time></trkpt><trkpt lat="42.8161319" lon="12.404771"><ele>150.0</ele><time>2026-03-28T16:17:37.328Z</time></trkpt><trkpt lat="42.8162719" lon="12.4046875"><ele>150.0</ele><time>2026-03-28T16:17:38.328Z</time></trkpt><trkpt lat="42.8164148" lon="12.4045984"><ele>150.0</ele><time>2026-03-28T16:17:39.328Z</time></trkpt><trkpt lat="42.81655" lon="12.4044984"><ele>150.0</ele><time>2026-03-28T16:17:40.328Z</time></trkpt><trkpt lat="42.8166879" lon="12.4043968"><ele>150.0</ele><time>2026-03-28T16:17:41.327Z</time></trkpt><trkpt lat="42.8168264" lon="12.4043015"><ele>150.0</ele><time>2026-03-28T16:17:42.328Z</time></trkpt><trkpt lat="42.8169594" lon="12.404199"><ele>152.0</ele><time>2026-03-28T16:17:43.327Z</time></trkpt><trkpt lat="42.8170953" lon="12.4040976"><ele>154.0</ele><time>2026-03-28T16:17:44.327Z</time></trkpt><trkpt lat="42.8172327" lon="12.404001"><ele>156.0</ele><time>2026-03-28T16:17:45.328Z</time></trkpt><trkpt lat="42.817365" lon="12.4038899"><ele>155.33333333333334</ele><time>2026-03-28T16:17:46.327Z</time></trkpt><trkpt lat="42.8175003" lon="12.4037838"><ele>154.66666666666669</ele><time>2026-03-28T16:17:47.328Z</time></trkpt><trkpt lat="42.8176358" lon="12.4036877"><ele>154.0</ele><time>2026-03-28T16:17:48.328Z</time></trkpt><trkpt lat="42.8177646" lon="12.4035891"><ele>155.0</ele><time>2026-03-28T16:17:49.328Z</time></trkpt><trkpt lat="42.8178973" lon="12.4034983"><ele>156.0</ele><time>2026-03-28T16:17:50.327Z</time></trkpt><trkpt lat="42.8180233" lon="12.4034063"><ele>157.0</ele><time>2026-03-28T16:17:51.327Z</time></trkpt><trkpt lat="42.8181259" lon="12.4033192"><ele>158.0</ele><time>2026-03-28T16:17:52.328Z</time></trkpt><trkpt lat="42.8182184" lon="12.403214"><ele>158.0</ele><time>2026-03-28T16:17:53.328Z</time></trkpt><trkpt lat="42.8183003" lon="12.4031093"><ele>158.0</ele><time>2026-03-28T16:17:54.328Z</time></trkpt><trkpt lat="42.8183679" lon="12.4030131"><ele>158.0</ele><time>2026-03-28T16:17:55.328Z</time></trkpt><trkpt lat="42.8184234" lon="12.4029132"><ele>158.0</ele><time>2026-03-28T16:17:56.328Z</time></trkpt><trkpt lat="42.8184792" lon="12.4028143"><ele>158.0</ele><time>2026-03-28T16:17:57.328Z</time></trkpt><trkpt lat="42.8185446" lon="12.4027297"><ele>159.0</ele><time>2026-03-28T16:17:58.327Z</time></trkpt><trkpt lat="42.8186115" lon="12.40265"><ele>160.0</ele><time>2026-03-28T16:17:59.328Z</time></trkpt><trkpt lat="42.8186777" lon="12.4025826"><ele>161.0</ele><time>2026-03-28T16:18:00.327Z</time></trkpt><trkpt lat="42.8187619" lon="12.4025188"><ele>162.0</ele><time>2026-03-28T16:18:01.327Z</time></trkpt><trkpt lat="42.8188558" lon="12.4024487"><ele>163.0</ele><time>2026-03-28T16:18:02.328Z</time></trkpt><trkpt lat="42.8189494" lon="12.4023755"><ele>163.0</ele><time>2026-03-28T16:18:03.327Z</time></trkpt><trkpt lat="42.8190497" lon="12.4023007"><ele>163.0</ele><time>2026-03-28T16:18:04.327Z</time></trkpt><trkpt lat="42.8191528" lon="12.4022207"><ele>163.0</ele><time>2026-03-28T16:18:05.328Z</time></trkpt><trkpt lat="42.8192544" lon="12.402154"><ele>163.0</ele><time>2026-03-28T16:18:06.327Z</time></trkpt><trkpt lat="42.8193567" lon="12.4020901"><ele>165.0</ele><time>2026-03-28T16:18:07.328Z</time></trkpt><trkpt lat="42.8194622" lon="12.4020203"><ele>167.0</ele><time>2026-03-28T16:18:08.328Z</time></trkpt><trkpt lat="42.8195707" lon="12.4019509"><ele>169.0</ele><time>2026-03-28T16:18:09.328Z</time></trkpt><trkpt lat="42.8196822" lon="12.4018858"><ele>171.0</ele><time>2026-03-28T16:18:10.327Z</time></trkpt><trkpt lat="42.8197997" lon="12.4018109"><ele>171.0</ele><time>2026-03-28T16:18:11.328Z</time></trkpt><trkpt lat="42.8199144" lon="12.4017314"><ele>171.0</ele><time>2026-03-28T16:18:12.328Z</time></trkpt><trkpt lat="42.8200236" lon="12.4016601"><ele>171.0</ele><time>2026-03-28T16:18:13.328Z</time></trkpt><trkpt lat="42.8201319" lon="12.4015946"><ele>171.0</ele><time>2026-03-28T16:18:14.328Z</time></trkpt><trkpt lat="42.8202501" lon="12.4015239"><ele>171.25</ele><time>2026-03-28T16:18:15.328Z</time></trkpt><trkpt lat="42.8203684" lon="12.4014457"><ele>171.5</ele><time>2026-03-28T16:18:16.328Z</time></trkpt><trkpt lat="42.8204894" lon="12.4013704"><ele>171.75</ele><time>2026-03-28T16:18:17.328Z</time></trkpt><trkpt lat="42.8206082" lon="12.4013004"><ele>172.0</ele><time>2026-03-28T16:18:18.328Z</time></trkpt><trkpt lat="42.8207204" lon="12.4012336"><ele>172.0</ele><time>2026-03-28T16:18:19.328Z</time></trkpt><trkpt lat="42.8208288" lon="12.4011637"><ele>172.0</ele><time>2026-03-28T16:18:20.328Z</time></trkpt><trkpt lat="42.8209366" lon="12.4011065"><ele>172.0</ele><time>2026-03-28T16:18:21.327Z</time></trkpt><trkpt lat="42.8210376" lon="12.401061"><ele>172.0</ele><time>2026-03-28T16:18:22.327Z</time></trkpt><trkpt lat="42.8211292" lon="12.401026"><ele>172.0</ele><time>2026-03-28T16:18:23.327Z</time></trkpt><trkpt lat="42.8212162" lon="12.4010005"><ele>172.2</ele><time>2026-03-28T16:18:24.328Z</time></trkpt><trkpt lat="42.8213049" lon="12.4009801"><ele>172.39999999999998</ele><time>2026-03-28T16:18:25.328Z</time></trkpt><trkpt lat="42.8213974" lon="12.4009568"><ele>172.60000000000002</ele><time>2026-03-28T16:18:26.327Z</time></trkpt><trkpt lat="42.8214977" lon="12.4009256"><ele>172.8</ele><time>2026-03-28T16:18:27.328Z</time></trkpt><trkpt lat="42.8215999" lon="12.4009"><ele>173.0</ele><time>2026-03-28T16:18:28.328Z</time></trkpt><trkpt lat="42.8216969" lon="12.4008756"><ele>173.0</ele><time>2026-03-28T16:18:29.328Z</time></trkpt><trkpt lat="42.8218017" lon="12.4008389"><ele>173.0</ele><time>2026-03-28T16:18:30.328Z</time></trkpt><trkpt lat="42.8219032" lon="12.4008114"><ele>173.0</ele><time>2026-03-28T16:18:31.328Z</time></trkpt><trkpt lat="42.8220012" lon="12.4007832"><ele>173.0</ele><time>2026-03-28T16:18:32.328Z</time></trkpt><trkpt lat="42.8220907" lon="12.4007617"><ele>173.0</ele><time>2026-03-28T16:18:33.328Z</time></trkpt><trkpt lat="42.8221703" lon="12.4007314"><ele>173.66666666666666</ele><time>2026-03-28T16:18:34.328Z</time></trkpt><trkpt lat="42.8222372" lon="12.4007248"><ele>174.33333333333331</ele><time>2026-03-28T16:18:35.328Z</time></trkpt><trkpt lat="42.8223204" lon="12.4007527"><ele>175.0</ele><time>2026-03-28T16:18:37.328Z</time></trkpt><trkpt lat="42.8223814" lon="12.400722"><ele>175.66666666666666</ele><time>2026-03-28T16:18:40.328Z</time></trkpt><trkpt lat="42.8222847" lon="12.4006834"><ele>176.33333333333334</ele><time>2026-03-28T16:18:51.327Z</time></trkpt><trkpt lat="42.8222199" lon="12.4007032"><ele>177.0</ele><time>2026-03-28T16:18:52.328Z</time></trkpt><trkpt lat="42.8221496" lon="12.4007296"><ele>177.0</ele><time>2026-03-28T16:18:53.328Z</time></trkpt><trkpt lat="42.8220716" lon="12.4007391"><ele>177.0</ele><time>2026-03-28T16:18:54.327Z</time></trkpt><trkpt lat="42.8219895" lon="12.4007673"><ele>177.0</ele><time>2026-03-28T16:18:55.327Z</time></trkpt><trkpt lat="42.8219042" lon="12.4007868"><ele>177.0</ele><time>2026-03-28T16:18:56.328Z</time></trkpt><trkpt lat="42.8218093" lon="12.4008157"><ele>177.0</ele><time>2026-03-28T16:18:57.328Z</time></trkpt><trkpt lat="42.821714" lon="12.4008452"><ele>177.0</ele><time>2026-03-28T16:18:58.328Z</time></trkpt><trkpt lat="42.8216222" lon="12.4008726"><ele>176.42857142857144</ele><time>2026-03-28T16:18:59.327Z</time></trkpt><trkpt lat="42.8215324" lon="12.4008967"><ele>175.85714285714283</ele><time>2026-03-28T16:19:00.328Z</time></trkpt><trkpt lat="42.8214518" lon="12.4009183"><ele>175.28571428571428</ele><time>2026-03-28T16:19:01.328Z</time></trkpt><trkpt lat="42.8213743" lon="12.4009334"><ele>174.71428571428572</ele><time>2026-03-28T16:19:02.328Z</time></trkpt><trkpt lat="42.8213116" lon="12.4009443"><ele>174.14285714285717</ele><time>2026-03-28T16:19:03.328Z</time></trkpt><trkpt lat="42.821246" lon="12.400961"><ele>173.57142857142856</ele><time>2026-03-28T16:19:04.328Z</time></trkpt><trkpt lat="42.8211842" lon="12.4009788"><ele>173.0</ele><time>2026-03-28T16:19:05.328Z</time></trkpt><trkpt lat="42.8210825" lon="12.4010158"><ele>173.0</ele><time>2026-03-28T16:19:07.328Z</time></trkpt><trkpt lat="42.8209956" lon="12.401037"><ele>173.0</ele><time>2026-03-28T16:19:09.328Z</time></trkpt><trkpt lat="42.8209228" lon="12.4009857"><ele>173.0</ele><time>2026-03-28T16:19:11.327Z</time></trkpt><trkpt lat="42.8209071" lon="12.4008922"><ele>173.0</ele><time>2026-03-28T16:19:13.328Z</time></trkpt><trkpt lat="42.8209251" lon="12.4007809"><ele>173.0</ele><time>2026-03-28T16:19:16.328Z</time></trkpt><trkpt lat="42.8210012" lon="12.4007353"><ele>173.0</ele><time>2026-03-28T16:19:20.328Z</time></trkpt><trkpt lat="42.8211067" lon="12.4007577"><ele>173.0</ele><time>2026-03-28T16:19:22.328Z</time></trkpt><trkpt lat="42.8211867" lon="12.4007856"><ele>173.0</ele><time>2026-03-28T16:19:23.328Z</time></trkpt><trkpt lat="42.8212601" lon="12.4007914"><ele>173.0</ele><time>2026-03-28T16:19:24.328Z</time></trkpt><trkpt lat="42.8213245" lon="12.4007691"><ele>173.0</ele><time>2026-03-28T16:19:25.327Z</time></trkpt><trkpt lat="42.8213946" lon="12.4007433"><ele>173.0</ele><time>2026-03-28T16:19:26.328Z</time></trkpt><trkpt lat="42.82147" lon="12.4007155"><ele>173.0</ele><time>2026-03-28T16:19:27.328Z</time></trkpt><trkpt lat="42.8215572" lon="12.4006763"><ele>173.0</ele><time>2026-03-28T16:19:28.328Z</time></trkpt><trkpt lat="42.8216357" lon="12.4005896"><ele>173.0</ele><time>2026-03-28T16:19:29.328Z</time></trkpt><trkpt lat="42.8216977" lon="12.4004811"><ele>173.0</ele><time>2026-03-28T16:19:30.328Z</time></trkpt><trkpt lat="42.8217532" lon="12.4003828"><ele>173.0</ele><time>2026-03-28T16:19:31.328Z</time></trkpt><trkpt lat="42.8217909" lon="12.400276"><ele>173.0</ele><time>2026-03-28T16:19:32.328Z</time></trkpt><trkpt lat="42.8218275" lon="12.4001615"><ele>174.0</ele><time>2026-03-28T16:19:33.328Z</time></trkpt><trkpt lat="42.8218634" lon="12.4000366"><ele>175.0</ele><time>2026-03-28T16:19:34.328Z</time></trkpt><trkpt lat="42.821903" lon="12.3999051"><ele>176.0</ele><time>2026-03-28T16:19:35.328Z</time></trkpt><trkpt lat="42.8219482" lon="12.3997948"><ele>177.0</ele><time>2026-03-28T16:19:36.328Z</time></trkpt><trkpt lat="42.8220072" lon="12.3996986"><ele>178.0</ele><time>2026-03-28T16:19:37.328Z</time></trkpt><trkpt lat="42.8220863" lon="12.399627"><ele>178.0</ele><time>2026-03-28T16:19:38.328Z</time></trkpt><trkpt lat="42.8221858" lon="12.3995795"><ele>178.0</ele><time>2026-03-28T16:19:39.328Z</time></trkpt><trkpt lat="42.8222841" lon="12.3995324"><ele>178.0</ele><time>2026-03-28T16:19:40.328Z</time></trkpt><trkpt lat="42.8224086" lon="12.3995063"><ele>178.0</ele><time>2026-03-28T16:19:41.327Z</time></trkpt><trkpt lat="42.8225366" lon="12.3994759"><ele>179.0</ele><time>2026-03-28T16:19:42.328Z</time></trkpt><trkpt lat="42.8226696" lon="12.3994407"><ele>180.0</ele><time>2026-03-28T16:19:43.328Z</time></trkpt><trkpt lat="42.8228053" lon="12.3994082"><ele>181.0</ele><time>2026-03-28T16:19:44.328Z</time></trkpt><trkpt lat="42.8229473" lon="12.3993687"><ele>182.0</ele><time>2026-03-28T16:19:45.328Z</time></trkpt><trkpt lat="42.8230911" lon="12.399324"><ele>182.0</ele><time>2026-03-28T16:19:46.328Z</time></trkpt><trkpt lat="42.8232435" lon="12.3992791"><ele>182.0</ele><time>2026-03-28T16:19:47.328Z</time></trkpt><trkpt lat="42.8233914" lon="12.3992373"><ele>182.0</ele><time>2026-03-28T16:19:48.328Z</time></trkpt><trkpt lat="42.8235404" lon="12.3992004"><ele>182.66666666666666</ele><time>2026-03-28T16:19:49.327Z</time></trkpt><trkpt lat="42.8236948" lon="12.3991582"><ele>183.33333333333334</ele><time>2026-03-28T16:19:50.328Z</time></trkpt><trkpt lat="42.8238538" lon="12.3991186"><ele>184.0</ele><time>2026-03-28T16:19:51.327Z</time></trkpt><trkpt lat="42.8240115" lon="12.3990793"><ele>184.0</ele><time>2026-03-28T16:19:52.328Z</time></trkpt><trkpt lat="42.8241837" lon="12.3990402"><ele>184.0</ele><time>2026-03-28T16:19:53.328Z</time></trkpt><trkpt lat="42.8243569" lon="12.3990086"><ele>184.0</ele><time>2026-03-28T16:19:54.328Z</time></trkpt><trkpt lat="42.8245366" lon="12.39899"><ele>186.0</ele><time>2026-03-28T16:19:55.328Z</time></trkpt><trkpt lat="42.8247176" lon="12.3989692"><ele>188.0</ele><time>2026-03-28T16:19:56.328Z</time></trkpt><trkpt lat="42.8249093" lon="12.3989593"><ele>190.0</ele><time>2026-03-28T16:19:57.328Z</time></trkpt><trkpt lat="42.8251049" lon="12.398959"><ele>191.33333333333334</ele><time>2026-03-28T16:19:58.327Z</time></trkpt><trkpt lat="42.8252992" lon="12.3989511"><ele>192.66666666666669</ele><time>2026-03-28T16:19:59.327Z</time></trkpt><trkpt lat="42.8254987" lon="12.3989503"><ele>194.0</ele><time>2026-03-28T16:20:00.328Z</time></trkpt><trkpt lat="42.8257074" lon="12.3989546"><ele>194.0</ele><time>2026-03-28T16:20:01.328Z</time></trkpt><trkpt lat="42.8259133" lon="12.3989739"><ele>194.0</ele><time>2026-03-28T16:20:02.328Z</time></trkpt><trkpt lat="42.8261175" lon="12.3989887"><ele>194.0</ele><time>2026-03-28T16:20:03.328Z</time></trkpt><trkpt lat="42.8263203" lon="12.3990104"><ele>194.0</ele><time>2026-03-28T16:20:04.328Z</time></trkpt><trkpt lat="42.8265253" lon="12.3990299"><ele>194.0</ele><time>2026-03-28T16:20:05.328Z</time></trkpt><trkpt lat="42.8267295" lon="12.3990756"><ele>194.0</ele><time>2026-03-28T16:20:06.327Z</time></trkpt><trkpt lat="42.8269336" lon="12.3991166"><ele>191.66666666666669</ele><time>2026-03-28T16:20:07.327Z</time></trkpt><trkpt lat="42.8271294" lon="12.3991804"><ele>189.33333333333334</ele><time>2026-03-28T16:20:08.328Z</time></trkpt><trkpt lat="42.8273262" lon="12.3992324"><ele>187.0</ele><time>2026-03-28T16:20:09.328Z</time></trkpt><trkpt lat="42.8275243" lon="12.3992907"><ele>183.33333333333334</ele><time>2026-03-28T16:20:10.328Z</time></trkpt><trkpt lat="42.827717" lon="12.3993489"><ele>179.66666666666666</ele><time>2026-03-28T16:20:11.328Z</time></trkpt><trkpt lat="42.8279193" lon="12.3994138"><ele>176.0</ele><time>2026-03-28T16:20:12.328Z</time></trkpt><trkpt lat="42.8281261" lon="12.3994817"><ele>176.0</ele><time>2026-03-28T16:20:13.328Z</time></trkpt><trkpt lat="42.8283304" lon="12.3995471"><ele>176.0</ele><time>2026-03-28T16:20:14.328Z</time></trkpt><trkpt lat="42.8285308" lon="12.3996073"><ele>176.0</ele><time>2026-03-28T16:20:15.328Z</time></trkpt><trkpt lat="42.8287342" lon="12.3996617"><ele>176.0</ele><time>2026-03-28T16:20:16.328Z</time></trkpt><trkpt lat="42.8289377" lon="12.3997156"><ele>176.0</ele><time>2026-03-28T16:20:17.327Z</time></trkpt><trkpt lat="42.8291411" lon="12.3997722"><ele>176.0</ele><time>2026-03-28T16:20:18.328Z</time></trkpt><trkpt lat="42.8293465" lon="12.3998285"><ele>173.66666666666666</ele><time>2026-03-28T16:20:19.328Z</time></trkpt><trkpt lat="42.8295452" lon="12.3998892"><ele>171.33333333333334</ele><time>2026-03-28T16:20:20.328Z</time></trkpt><trkpt lat="42.8297499" lon="12.3999521"><ele>169.0</ele><time>2026-03-28T16:20:21.327Z</time></trkpt><trkpt lat="42.829963" lon="12.4000132"><ele>167.33333333333334</ele><time>2026-03-28T16:20:22.328Z</time></trkpt><trkpt lat="42.8301673" lon="12.4000754"><ele>165.66666666666666</ele><time>2026-03-28T16:20:23.328Z</time></trkpt><trkpt lat="42.8303718" lon="12.4001363"><ele>164.0</ele><time>2026-03-28T16:20:24.328Z</time></trkpt><trkpt lat="42.8305726" lon="12.4001976"><ele>164.0</ele><time>2026-03-28T16:20:25.328Z</time></trkpt><trkpt lat="42.8307724" lon="12.400268"><ele>164.0</ele><time>2026-03-28T16:20:26.328Z</time></trkpt><trkpt lat="42.8309701" lon="12.4003425"><ele>164.0</ele><time>2026-03-28T16:20:27.328Z</time></trkpt><trkpt lat="42.8311713" lon="12.4004254"><ele>164.33333333333331</ele><time>2026-03-28T16:20:28.327Z</time></trkpt><trkpt lat="42.8313687" lon="12.4005166"><ele>164.66666666666666</ele><time>2026-03-28T16:20:29.328Z</time></trkpt><trkpt lat="42.8315648" lon="12.4006159"><ele>165.0</ele><time>2026-03-28T16:20:30.327Z</time></trkpt><trkpt lat="42.8317559" lon="12.4007169"><ele>163.33333333333334</ele><time>2026-03-28T16:20:31.328Z</time></trkpt><trkpt lat="42.8319471" lon="12.4008241"><ele>161.66666666666669</ele><time>2026-03-28T16:20:32.328Z</time></trkpt><trkpt lat="42.8321324" lon="12.4009365"><ele>160.0</ele><time>2026-03-28T16:20:33.327Z</time></trkpt><trkpt lat="42.8323158" lon="12.4010588"><ele>160.0</ele><time>2026-03-28T16:20:34.327Z</time></trkpt><trkpt lat="42.8324995" lon="12.4011842"><ele>160.0</ele><time>2026-03-28T16:20:35.328Z</time></trkpt><trkpt lat="42.8326881" lon="12.4013079"><ele>160.0</ele><time>2026-03-28T16:20:36.328Z</time></trkpt><trkpt lat="42.8328803" lon="12.4014301"><ele>159.66666666666669</ele><time>2026-03-28T16:20:37.328Z</time></trkpt><trkpt lat="42.8330657" lon="12.4015522"><ele>159.33333333333334</ele><time>2026-03-28T16:20:38.328Z</time></trkpt><trkpt lat="42.8332606" lon="12.4016706"><ele>159.0</ele><time>2026-03-28T16:20:39.328Z</time></trkpt><trkpt lat="42.8334504" lon="12.4017949"><ele>159.33333333333334</ele><time>2026-03-28T16:20:40.328Z</time></trkpt><trkpt lat="42.8336431" lon="12.4019151"><ele>159.66666666666669</ele><time>2026-03-28T16:20:41.328Z</time></trkpt><trkpt lat="42.8338314" lon="12.4020378"><ele>160.0</ele><time>2026-03-28T16:20:42.328Z</time></trkpt><trkpt lat="42.8340246" lon="12.4021658"><ele>160.0</ele><time>2026-03-28T16:20:43.327Z</time></trkpt><trkpt lat="42.8342119" lon="12.4022838"><ele>160.0</ele><time>2026-03-28T16:20:44.327Z</time></trkpt><trkpt lat="42.834402" lon="12.4024093"><ele>160.0</ele><time>2026-03-28T16:20:45.328Z</time></trkpt><trkpt lat="42.8345913" lon="12.4025306"><ele>158.0</ele><time>2026-03-28T16:20:46.328Z</time></trkpt><trkpt lat="42.8347821" lon="12.4026512"><ele>156.0</ele><time>2026-03-28T16:20:47.328Z</time></trkpt><trkpt lat="42.8349789" lon="12.4027814"><ele>154.0</ele><time>2026-03-28T16:20:48.328Z</time></trkpt><trkpt lat="42.8351679" lon="12.4028979"><ele>154.66666666666669</ele><time>2026-03-28T16:20:49.328Z</time></trkpt><trkpt lat="42.8353607" lon="12.4030288"><ele>155.33333333333334</ele><time>2026-03-28T16:20:50.328Z</time></trkpt><trkpt lat="42.8355503" lon="12.4031491"><ele>156.0</ele><time>2026-03-28T16:20:51.328Z</time></trkpt><trkpt lat="42.8357409" lon="12.4032698"><ele>156.0</ele><time>2026-03-28T16:20:52.328Z</time></trkpt><trkpt lat="42.8359383" lon="12.403393"><ele>156.0</ele><time>2026-03-28T16:20:53.327Z</time></trkpt><trkpt lat="42.8361324" lon="12.4035164"><ele>156.0</ele><time>2026-03-28T16:20:54.327Z</time></trkpt><trkpt lat="42.8363222" lon="12.4036418"><ele>155.66666666666666</ele><time>2026-03-28T16:20:55.328Z</time></trkpt><trkpt lat="42.8365103" lon="12.4037808"><ele>155.33333333333331</ele><time>2026-03-28T16:20:56.327Z</time></trkpt><trkpt lat="42.8366978" lon="12.4039214"><ele>155.0</ele><time>2026-03-28T16:20:57.328Z</time></trkpt><trkpt lat="42.836885" lon="12.4040664"><ele>155.0</ele><time>2026-03-28T16:20:58.327Z</time></trkpt><trkpt lat="42.8370725" lon="12.4042165"><ele>155.0</ele><time>2026-03-28T16:20:59.328Z</time></trkpt><trkpt lat="42.8372584" lon="12.4043698"><ele>155.0</ele><time>2026-03-28T16:21:00.328Z</time></trkpt><trkpt lat="42.8374453" lon="12.4045231"><ele>154.66666666666666</ele><time>2026-03-28T16:21:01.328Z</time></trkpt><trkpt lat="42.8376228" lon="12.404681"><ele>154.33333333333334</ele><time>2026-03-28T16:21:02.328Z</time></trkpt><trkpt lat="42.8377991" lon="12.4048291"><ele>154.0</ele><time>2026-03-28T16:21:03.328Z</time></trkpt><trkpt lat="42.8379748" lon="12.4049899"><ele>154.0</ele><time>2026-03-28T16:21:04.327Z</time></trkpt><trkpt lat="42.8381476" lon="12.4051533"><ele>154.0</ele><time>2026-03-28T16:21:05.328Z</time></trkpt><trkpt lat="42.838319" lon="12.4053071"><ele>154.0</ele><time>2026-03-28T16:21:06.328Z</time></trkpt><trkpt lat="42.8384925" lon="12.4054648"><ele>154.0</ele><time>2026-03-28T16:21:07.328Z</time></trkpt><trkpt lat="42.8386576" lon="12.4056116"><ele>154.0</ele><time>2026-03-28T16:21:08.328Z</time></trkpt><trkpt lat="42.8388183" lon="12.4057687"><ele>154.0</ele><time>2026-03-28T16:21:09.327Z</time></trkpt><trkpt lat="42.8389793" lon="12.4059134"><ele>154.0</ele><time>2026-03-28T16:21:10.328Z</time></trkpt><trkpt lat="42.8391395" lon="12.4060596"><ele>154.0</ele><time>2026-03-28T16:21:11.328Z</time></trkpt><trkpt lat="42.8393006" lon="12.4062038"><ele>154.0</ele><time>2026-03-28T16:21:12.328Z</time></trkpt><trkpt lat="42.8394638" lon="12.4063532"><ele>154.66666666666669</ele><time>2026-03-28T16:21:13.328Z</time></trkpt><trkpt lat="42.8396232" lon="12.4064911"><ele>155.33333333333334</ele><time>2026-03-28T16:21:14.327Z</time></trkpt><trkpt lat="42.839785" lon="12.4066342"><ele>156.0</ele><time>2026-03-28T16:21:15.328Z</time></trkpt><trkpt lat="42.8399474" lon="12.4067769"><ele>156.0</ele><time>2026-03-28T16:21:16.327Z</time></trkpt><trkpt lat="42.8401085" lon="12.4069243"><ele>156.0</ele><time>2026-03-28T16:21:17.327Z</time></trkpt><trkpt lat="42.8402736" lon="12.4070725"><ele>156.0</ele><time>2026-03-28T16:21:18.327Z</time></trkpt><trkpt lat="42.8404371" lon="12.407221"><ele>157.33333333333334</ele><time>2026-03-28T16:21:19.327Z</time></trkpt><trkpt lat="42.8406007" lon="12.4073653"><ele>158.66666666666669</ele><time>2026-03-28T16:21:20.328Z</time></trkpt><trkpt lat="42.8407683" lon="12.4075127"><ele>160.0</ele><time>2026-03-28T16:21:21.328Z</time></trkpt><trkpt lat="42.8409342" lon="12.4076607"><ele>160.33333333333334</ele><time>2026-03-28T16:21:22.328Z</time></trkpt><trkpt lat="42.8411053" lon="12.4078138"><ele>160.66666666666666</ele><time>2026-03-28T16:21:23.327Z</time></trkpt><trkpt lat="42.8412756" lon="12.4079639"><ele>161.0</ele><time>2026-03-28T16:21:24.328Z</time></trkpt><trkpt lat="42.8414493" lon="12.4081047"><ele>161.0</ele><time>2026-03-28T16:21:25.328Z</time></trkpt><trkpt lat="42.8416272" lon="12.4082325"><ele>161.0</ele><time>2026-03-28T16:21:26.328Z</time></trkpt><trkpt lat="42.8418123" lon="12.408354"><ele>161.0</ele><time>2026-03-28T16:21:27.328Z</time></trkpt><trkpt lat="42.8420074" lon="12.408453"><ele>160.33333333333331</ele><time>2026-03-28T16:21:28.328Z</time></trkpt><trkpt lat="42.8422058" lon="12.4085419"><ele>159.66666666666666</ele><time>2026-03-28T16:21:29.328Z</time></trkpt><trkpt lat="42.8424081" lon="12.40861"><ele>159.0</ele><time>2026-03-28T16:21:30.328Z</time></trkpt><trkpt lat="42.8426146" lon="12.4086574"><ele>158.66666666666666</ele><time>2026-03-28T16:21:31.328Z</time></trkpt><trkpt lat="42.842823" lon="12.4086939"><ele>158.33333333333331</ele><time>2026-03-28T16:21:32.327Z</time></trkpt><trkpt lat="42.8430321" lon="12.4087164"><ele>158.0</ele><time>2026-03-28T16:21:33.327Z</time></trkpt><trkpt lat="42.8432409" lon="12.4087246"><ele>158.0</ele><time>2026-03-28T16:21:34.328Z</time></trkpt><trkpt lat="42.8434557" lon="12.4087163"><ele>158.0</ele><time>2026-03-28T16:21:35.328Z</time></trkpt><trkpt lat="42.8436663" lon="12.4087026"><ele>158.0</ele><time>2026-03-28T16:21:36.328Z</time></trkpt><trkpt lat="42.8438728" lon="12.4086598"><ele>158.0</ele><time>2026-03-28T16:21:37.327Z</time></trkpt><trkpt lat="42.8440811" lon="12.4086029"><ele>158.0</ele><time>2026-03-28T16:21:38.328Z</time></trkpt><trkpt lat="42.8442892" lon="12.4085277"><ele>158.0</ele><time>2026-03-28T16:21:39.328Z</time></trkpt><trkpt lat="42.8444897" lon="12.4084414"><ele>157.66666666666666</ele><time>2026-03-28T16:21:40.328Z</time></trkpt><trkpt lat="42.8446916" lon="12.4083342"><ele>157.33333333333334</ele><time>2026-03-28T16:21:41.327Z</time></trkpt><trkpt lat="42.8448838" lon="12.4082063"><ele>157.0</ele><time>2026-03-28T16:21:42.328Z</time></trkpt><trkpt lat="42.8450742" lon="12.4080714"><ele>156.66666666666669</ele><time>2026-03-28T16:21:43.328Z</time></trkpt><trkpt lat="42.8452664" lon="12.407938"><ele>156.33333333333334</ele><time>2026-03-28T16:21:44.328Z</time></trkpt><trkpt lat="42.8454557" lon="12.4078126"><ele>156.0</ele><time>2026-03-28T16:21:45.328Z</time></trkpt><trkpt lat="42.8456447" lon="12.4076876"><ele>156.0</ele><time>2026-03-28T16:21:46.328Z</time></trkpt><trkpt lat="42.8458354" lon="12.4075588"><ele>156.0</ele><time>2026-03-28T16:21:47.328Z</time></trkpt><trkpt lat="42.8460228" lon="12.4074282"><ele>156.0</ele><time>2026-03-28T16:21:48.327Z</time></trkpt><trkpt lat="42.8462107" lon="12.4073055"><ele>155.66666666666666</ele><time>2026-03-28T16:21:49.328Z</time></trkpt><trkpt lat="42.8463971" lon="12.4071846"><ele>155.33333333333331</ele><time>2026-03-28T16:21:50.328Z</time></trkpt><trkpt lat="42.8465807" lon="12.4070609"><ele>155.0</ele><time>2026-03-28T16:21:51.327Z</time></trkpt><trkpt lat="42.8467622" lon="12.4069314"><ele>156.66666666666666</ele><time>2026-03-28T16:21:52.328Z</time></trkpt><trkpt lat="42.8469425" lon="12.4068017"><ele>158.33333333333334</ele><time>2026-03-28T16:21:53.328Z</time></trkpt><trkpt lat="42.8471296" lon="12.4066655"><ele>160.0</ele><time>2026-03-28T16:21:54.328Z</time></trkpt><trkpt lat="42.8473158" lon="12.4065295"><ele>160.0</ele><time>2026-03-28T16:21:55.328Z</time></trkpt><trkpt lat="42.8475124" lon="12.4063928"><ele>160.0</ele><time>2026-03-28T16:21:56.328Z</time></trkpt><trkpt lat="42.8477136" lon="12.4062581"><ele>160.0</ele><time>2026-03-28T16:21:57.328Z</time></trkpt><trkpt lat="42.8479201" lon="12.4061266"><ele>158.5</ele><time>2026-03-28T16:21:58.328Z</time></trkpt><trkpt lat="42.8481214" lon="12.4059931"><ele>157.0</ele><time>2026-03-28T16:21:59.328Z</time></trkpt><trkpt lat="42.8483246" lon="12.4058549"><ele>158.0</ele><time>2026-03-28T16:22:00.328Z</time></trkpt><trkpt lat="42.8485296" lon="12.4057261"><ele>159.0</ele><time>2026-03-28T16:22:01.328Z</time></trkpt><trkpt lat="42.8487372" lon="12.4055995"><ele>157.5</ele><time>2026-03-28T16:22:02.328Z</time></trkpt><trkpt lat="42.8489432" lon="12.4054696"><ele>156.0</ele><time>2026-03-28T16:22:03.328Z</time></trkpt><trkpt lat="42.8491465" lon="12.4053372"><ele>156.33333333333334</ele><time>2026-03-28T16:22:04.328Z</time></trkpt><trkpt lat="42.8493491" lon="12.4052018"><ele>156.66666666666669</ele><time>2026-03-28T16:22:05.328Z</time></trkpt><trkpt lat="42.8495503" lon="12.4050705"><ele>157.0</ele><time>2026-03-28T16:22:06.328Z</time></trkpt><trkpt lat="42.8497479" lon="12.4049321"><ele>157.0</ele><time>2026-03-28T16:22:07.328Z</time></trkpt><trkpt lat="42.8499463" lon="12.4047981"><ele>157.0</ele><time>2026-03-28T16:22:08.328Z</time></trkpt><trkpt lat="42.8501455" lon="12.4046659"><ele>157.0</ele><time>2026-03-28T16:22:09.328Z</time></trkpt><trkpt lat="42.8503434" lon="12.4045253"><ele>156.0</ele><time>2026-03-28T16:22:10.328Z</time></trkpt><trkpt lat="42.8505398" lon="12.4043839"><ele>155.0</ele><time>2026-03-28T16:22:11.327Z</time></trkpt><trkpt lat="42.8507384" lon="12.4042423"><ele>154.0</ele><time>2026-03-28T16:22:12.328Z</time></trkpt><trkpt lat="42.8509394" lon="12.4041144"><ele>155.0</ele><time>2026-03-28T16:22:13.328Z</time></trkpt><trkpt lat="42.8511437" lon="12.4039786"><ele>156.0</ele><time>2026-03-28T16:22:14.328Z</time></trkpt><trkpt lat="42.8513464" lon="12.4038519"><ele>155.5</ele><time>2026-03-28T16:22:15.327Z</time></trkpt><trkpt lat="42.8515506" lon="12.4037137"><ele>155.0</ele><time>2026-03-28T16:22:16.328Z</time></trkpt><trkpt lat="42.8517534" lon="12.4035751"><ele>155.5</ele><time>2026-03-28T16:22:17.328Z</time></trkpt><trkpt lat="42.8519575" lon="12.4034491"><ele>156.0</ele><time>2026-03-28T16:22:18.328Z</time></trkpt><trkpt lat="42.8521616" lon="12.4033146"><ele>156.0</ele><time>2026-03-28T16:22:19.328Z</time></trkpt><trkpt lat="42.8523668" lon="12.4031831"><ele>156.0</ele><time>2026-03-28T16:22:20.328Z</time></trkpt><trkpt lat="42.8525725" lon="12.4030497"><ele>155.5</ele><time>2026-03-28T16:22:21.328Z</time></trkpt><trkpt lat="42.8527768" lon="12.4029138"><ele>155.0</ele><time>2026-03-28T16:22:22.328Z</time></trkpt><trkpt lat="42.8529857" lon="12.4027763"><ele>155.0</ele><time>2026-03-28T16:22:23.327Z</time></trkpt><trkpt lat="42.853193" lon="12.4026403"><ele>155.0</ele><time>2026-03-28T16:22:24.328Z</time></trkpt><trkpt lat="42.8533961" lon="12.402503"><ele>155.5</ele><time>2026-03-28T16:22:25.328Z</time></trkpt><trkpt lat="42.8535954" lon="12.4023572"><ele>156.0</ele><time>2026-03-28T16:22:26.327Z</time></trkpt><trkpt lat="42.853803" lon="12.4022219"><ele>155.5</ele><time>2026-03-28T16:22:27.327Z</time></trkpt><trkpt lat="42.8540036" lon="12.4020769"><ele>155.0</ele><time>2026-03-28T16:22:28.327Z</time></trkpt><trkpt lat="42.8542085" lon="12.4019357"><ele>155.5</ele><time>2026-03-28T16:22:29.328Z</time></trkpt><trkpt lat="42.8544099" lon="12.4018019"><ele>156.0</ele><time>2026-03-28T16:22:30.328Z</time></trkpt><trkpt lat="42.8546132" lon="12.4016666"><ele>156.0</ele><time>2026-03-28T16:22:31.327Z</time></trkpt><trkpt lat="42.8548191" lon="12.4015293"><ele>156.0</ele><time>2026-03-28T16:22:32.327Z</time></trkpt><trkpt lat="42.8550291" lon="12.4013872"><ele>155.0</ele><time>2026-03-28T16:22:33.328Z</time></trkpt><trkpt lat="42.8552356" lon="12.4012483"><ele>154.0</ele><time>2026-03-28T16:22:34.328Z</time></trkpt><trkpt lat="42.8554395" lon="12.401109"><ele>154.0</ele><time>2026-03-28T16:22:35.327Z</time></trkpt><trkpt lat="42.8556484" lon="12.4009861"><ele>154.0</ele><time>2026-03-28T16:22:36.328Z</time></trkpt><trkpt lat="42.8558447" lon="12.4008529"><ele>154.0</ele><time>2026-03-28T16:22:37.328Z</time></trkpt><trkpt lat="42.85605" lon="12.4007352"><ele>154.0</ele><time>2026-03-28T16:22:38.327Z</time></trkpt><trkpt lat="42.8562591" lon="12.4006189"><ele>154.0</ele><time>2026-03-28T16:22:39.327Z</time></trkpt><trkpt lat="42.8564695" lon="12.4005135"><ele>154.5</ele><time>2026-03-28T16:22:40.327Z</time></trkpt><trkpt lat="42.8566803" lon="12.4004153"><ele>155.0</ele><time>2026-03-28T16:22:41.328Z</time></trkpt><trkpt lat="42.8568984" lon="12.4003202"><ele>155.0</ele><time>2026-03-28T16:22:42.328Z</time></trkpt><trkpt lat="42.8571072" lon="12.400226"><ele>155.0</ele><time>2026-03-28T16:22:43.328Z</time></trkpt><trkpt lat="42.8573236" lon="12.4001561"><ele>155.0</ele><time>2026-03-28T16:22:44.328Z</time></trkpt><trkpt lat="42.8575389" lon="12.400092"><ele>155.0</ele><time>2026-03-28T16:22:45.328Z</time></trkpt><trkpt lat="42.8577563" lon="12.4000368"><ele>155.0</ele><time>2026-03-28T16:22:46.328Z</time></trkpt><trkpt lat="42.8579719" lon="12.399975"><ele>155.0</ele><time>2026-03-28T16:22:47.328Z</time></trkpt><trkpt lat="42.8581929" lon="12.3999275"><ele>155.0</ele><time>2026-03-28T16:22:48.328Z</time></trkpt><trkpt lat="42.8584146" lon="12.3998825"><ele>155.0</ele><time>2026-03-28T16:22:49.327Z</time></trkpt><trkpt lat="42.8586389" lon="12.3998383"><ele>155.0</ele><time>2026-03-28T16:22:50.328Z</time></trkpt><trkpt lat="42.8588609" lon="12.3997941"><ele>155.0</ele><time>2026-03-28T16:22:51.327Z</time></trkpt><trkpt lat="42.8590813" lon="12.3997345"><ele>155.0</ele><time>2026-03-28T16:22:52.328Z</time></trkpt><trkpt lat="42.8593066" lon="12.3996943"><ele>155.5</ele><time>2026-03-28T16:22:53.328Z</time></trkpt><trkpt lat="42.8595324" lon="12.3996469"><ele>156.0</ele><time>2026-03-28T16:22:54.328Z</time></trkpt><trkpt lat="42.8597547" lon="12.3996034"><ele>156.0</ele><time>2026-03-28T16:22:55.328Z</time></trkpt><trkpt lat="42.8599809" lon="12.3995549"><ele>156.0</ele><time>2026-03-28T16:22:56.328Z</time></trkpt><trkpt lat="42.8602088" lon="12.3995119"><ele>156.5</ele><time>2026-03-28T16:22:57.328Z</time></trkpt><trkpt lat="42.8604342" lon="12.3994642"><ele>157.0</ele><time>2026-03-28T16:22:58.328Z</time></trkpt><trkpt lat="42.8606575" lon="12.3994169"><ele>157.0</ele><time>2026-03-28T16:22:59.328Z</time></trkpt><trkpt lat="42.8608864" lon="12.3993726"><ele>157.0</ele><time>2026-03-28T16:23:00.328Z</time></trkpt><trkpt lat="42.8611129" lon="12.399325"><ele>156.5</ele><time>2026-03-28T16:23:01.328Z</time></trkpt><trkpt lat="42.8613415" lon="12.3992838"><ele>156.0</ele><time>2026-03-28T16:23:02.328Z</time></trkpt><trkpt lat="42.8615624" lon="12.3992362"><ele>157.0</ele><time>2026-03-28T16:23:03.327Z</time></trkpt><trkpt lat="42.861786" lon="12.3991909"><ele>158.0</ele><time>2026-03-28T16:23:04.328Z</time></trkpt><trkpt lat="42.8620121" lon="12.3991462"><ele>158.0</ele><time>2026-03-28T16:23:05.328Z</time></trkpt><trkpt lat="42.8622366" lon="12.3990958"><ele>158.0</ele><time>2026-03-28T16:23:06.328Z</time></trkpt><trkpt lat="42.8624619" lon="12.3990437"><ele>158.33333333333331</ele><time>2026-03-28T16:23:07.327Z</time></trkpt><trkpt lat="42.8626841" lon="12.3989944"><ele>158.66666666666666</ele><time>2026-03-28T16:23:08.328Z</time></trkpt><trkpt lat="42.8629058" lon="12.3989529"><ele>159.0</ele><time>2026-03-28T16:23:09.328Z</time></trkpt><trkpt lat="42.8631303" lon="12.398909"><ele>159.0</ele><time>2026-03-28T16:23:10.327Z</time></trkpt><trkpt lat="42.8633517" lon="12.3988627"><ele>159.0</ele><time>2026-03-28T16:23:11.328Z</time></trkpt><trkpt lat="42.8635763" lon="12.3988113"><ele>159.33333333333334</ele><time>2026-03-28T16:23:12.328Z</time></trkpt><trkpt lat="42.8637965" lon="12.3987607"><ele>159.66666666666669</ele><time>2026-03-28T16:23:13.328Z</time></trkpt><trkpt lat="42.8640194" lon="12.3987094"><ele>160.0</ele><time>2026-03-28T16:23:14.327Z</time></trkpt><trkpt lat="42.8642422" lon="12.398672"><ele>161.0</ele><time>2026-03-28T16:23:15.328Z</time></trkpt><trkpt lat="42.8644669" lon="12.3986318"><ele>162.0</ele><time>2026-03-28T16:23:16.328Z</time></trkpt><trkpt lat="42.8646892" lon="12.3985872"><ele>162.0</ele><time>2026-03-28T16:23:17.328Z</time></trkpt><trkpt lat="42.8649107" lon="12.398536"><ele>162.0</ele><time>2026-03-28T16:23:18.328Z</time></trkpt><trkpt lat="42.8651294" lon="12.3984855"><ele>162.0</ele><time>2026-03-28T16:23:19.328Z</time></trkpt><trkpt lat="42.8653508" lon="12.3984438"><ele>162.0</ele><time>2026-03-28T16:23:20.328Z</time></trkpt><trkpt lat="42.8655738" lon="12.3984009"><ele>162.0</ele><time>2026-03-28T16:23:21.328Z</time></trkpt><trkpt lat="42.8657938" lon="12.3983516"><ele>162.0</ele><time>2026-03-28T16:23:22.328Z</time></trkpt><trkpt lat="42.8660082" lon="12.3983025"><ele>162.0</ele><time>2026-03-28T16:23:23.328Z</time></trkpt><trkpt lat="42.8662266" lon="12.3982598"><ele>162.0</ele><time>2026-03-28T16:23:24.328Z</time></trkpt><trkpt lat="42.8664445" lon="12.3982246"><ele>162.0</ele><time>2026-03-28T16:23:25.327Z</time></trkpt><trkpt lat="42.8666644" lon="12.3981779"><ele>162.33333333333334</ele><time>2026-03-28T16:23:26.328Z</time></trkpt><trkpt lat="42.8668797" lon="12.398138"><ele>162.66666666666669</ele><time>2026-03-28T16:23:27.327Z</time></trkpt><trkpt lat="42.8670959" lon="12.3981016"><ele>163.0</ele><time>2026-03-28T16:23:28.328Z</time></trkpt><trkpt lat="42.8673087" lon="12.3980585"><ele>163.0</ele><time>2026-03-28T16:23:29.328Z</time></trkpt><trkpt lat="42.8675246" lon="12.3980168"><ele>163.0</ele><time>2026-03-28T16:23:30.327Z</time></trkpt><trkpt lat="42.8677419" lon="12.3979649"><ele>163.0</ele><time>2026-03-28T16:23:31.327Z</time></trkpt><trkpt lat="42.8679583" lon="12.3979144"><ele>163.0</ele><time>2026-03-28T16:23:32.328Z</time></trkpt><trkpt lat="42.8681642" lon="12.3978803"><ele>163.0</ele><time>2026-03-28T16:23:33.328Z</time></trkpt><trkpt lat="42.8683798" lon="12.3978303"><ele>163.0</ele><time>2026-03-28T16:23:34.327Z</time></trkpt><trkpt lat="42.8685929" lon="12.3977853"><ele>162.66666666666669</ele><time>2026-03-28T16:23:35.328Z</time></trkpt><trkpt lat="42.8688096" lon="12.3977418"><ele>162.33333333333334</ele><time>2026-03-28T16:23:36.328Z</time></trkpt><trkpt lat="42.8690251" lon="12.3976988"><ele>162.0</ele><time>2026-03-28T16:23:37.327Z</time></trkpt><trkpt lat="42.8692395" lon="12.3976505"><ele>162.66666666666666</ele><time>2026-03-28T16:23:38.328Z</time></trkpt><trkpt lat="42.8694569" lon="12.3975954"><ele>163.33333333333331</ele><time>2026-03-28T16:23:39.328Z</time></trkpt><trkpt lat="42.8696677" lon="12.3975435"><ele>164.0</ele><time>2026-03-28T16:23:40.328Z</time></trkpt><trkpt lat="42.869885" lon="12.3974991"><ele>164.0</ele><time>2026-03-28T16:23:41.328Z</time></trkpt><trkpt lat="42.8700997" lon="12.3974506"><ele>164.0</ele><time>2026-03-28T16:23:42.328Z</time></trkpt><trkpt lat="42.8703165" lon="12.3974026"><ele>164.0</ele><time>2026-03-28T16:23:43.327Z</time></trkpt><trkpt lat="42.8705305" lon="12.3973554"><ele>164.66666666666666</ele><time>2026-03-28T16:23:44.328Z</time></trkpt><trkpt lat="42.8707514" lon="12.3973149"><ele>165.33333333333334</ele><time>2026-03-28T16:23:45.328Z</time></trkpt><trkpt lat="42.8709645" lon="12.3972714"><ele>166.0</ele><time>2026-03-28T16:23:46.328Z</time></trkpt><trkpt lat="42.8711796" lon="12.3972375"><ele>166.33333333333334</ele><time>2026-03-28T16:23:47.327Z</time></trkpt><trkpt lat="42.8714006" lon="12.3972001"><ele>166.66666666666666</ele><time>2026-03-28T16:23:48.328Z</time></trkpt><trkpt lat="42.8716176" lon="12.3971522"><ele>167.0</ele><time>2026-03-28T16:23:49.328Z</time></trkpt><trkpt lat="42.8718335" lon="12.3971092"><ele>167.0</ele><time>2026-03-28T16:23:50.328Z</time></trkpt><trkpt lat="42.8720518" lon="12.3970667"><ele>167.0</ele><time>2026-03-28T16:23:51.327Z</time></trkpt><trkpt lat="42.8722712" lon="12.3970209"><ele>167.0</ele><time>2026-03-28T16:23:52.327Z</time></trkpt><trkpt lat="42.8724943" lon="12.3969761"><ele>166.0</ele><time>2026-03-28T16:23:53.327Z</time></trkpt><trkpt lat="42.8727163" lon="12.3969298"><ele>165.0</ele><time>2026-03-28T16:23:54.327Z</time></trkpt><trkpt lat="42.8729378" lon="12.3968874"><ele>164.0</ele><time>2026-03-28T16:23:55.328Z</time></trkpt><trkpt lat="42.8731623" lon="12.396839"><ele>164.0</ele><time>2026-03-28T16:23:56.328Z</time></trkpt><trkpt lat="42.8733816" lon="12.39679"><ele>164.0</ele><time>2026-03-28T16:23:57.327Z</time></trkpt><trkpt lat="42.8736028" lon="12.3967448"><ele>164.0</ele><time>2026-03-28T16:23:58.328Z</time></trkpt><trkpt lat="42.873821" lon="12.3966955"><ele>164.5</ele><time>2026-03-28T16:23:59.328Z</time></trkpt><trkpt lat="42.8740453" lon="12.3966503"><ele>165.0</ele><time>2026-03-28T16:24:00.328Z</time></trkpt><trkpt lat="42.8742711" lon="12.396609"><ele>165.0</ele><time>2026-03-28T16:24:01.328Z</time></trkpt><trkpt lat="42.8744964" lon="12.3965675"><ele>165.0</ele><time>2026-03-28T16:24:02.327Z</time></trkpt><trkpt lat="42.8747187" lon="12.3965254"><ele>165.0</ele><time>2026-03-28T16:24:03.328Z</time></trkpt><trkpt lat="42.8749452" lon="12.3964848"><ele>165.0</ele><time>2026-03-28T16:24:04.328Z</time></trkpt><trkpt lat="42.8751701" lon="12.3964484"><ele>165.5</ele><time>2026-03-28T16:24:05.328Z</time></trkpt><trkpt lat="42.8753963" lon="12.3964196"><ele>166.0</ele><time>2026-03-28T16:24:06.328Z</time></trkpt><trkpt lat="42.8756237" lon="12.3963835"><ele>166.0</ele><time>2026-03-28T16:24:07.328Z</time></trkpt><trkpt lat="42.8758518" lon="12.3963538"><ele>166.0</ele><time>2026-03-28T16:24:08.328Z</time></trkpt><trkpt lat="42.8760785" lon="12.3963243"><ele>165.5</ele><time>2026-03-28T16:24:09.328Z</time></trkpt><trkpt lat="42.8763061" lon="12.3962966"><ele>165.0</ele><time>2026-03-28T16:24:10.328Z</time></trkpt><trkpt lat="42.8765273" lon="12.3962654"><ele>165.0</ele><time>2026-03-28T16:24:11.328Z</time></trkpt><trkpt lat="42.8767516" lon="12.3962381"><ele>165.0</ele><time>2026-03-28T16:24:12.328Z</time></trkpt><trkpt lat="42.8769746" lon="12.3962032"><ele>165.0</ele><time>2026-03-28T16:24:13.328Z</time></trkpt><trkpt lat="42.8771979" lon="12.3961698"><ele>165.0</ele><time>2026-03-28T16:24:14.328Z</time></trkpt><trkpt lat="42.8774199" lon="12.3961366"><ele>165.0</ele><time>2026-03-28T16:24:15.328Z</time></trkpt><trkpt lat="42.8776502" lon="12.396111"><ele>166.5</ele><time>2026-03-28T16:24:16.327Z</time></trkpt><trkpt lat="42.8778772" lon="12.396085"><ele>168.0</ele><time>2026-03-28T16:24:17.328Z</time></trkpt><trkpt lat="42.8781026" lon="12.3960524"><ele>168.0</ele><time>2026-03-28T16:24:18.328Z</time></trkpt><trkpt lat="42.8783295" lon="12.3960198"><ele>168.0</ele><time>2026-03-28T16:24:19.328Z</time></trkpt><trkpt lat="42.8785637" lon="12.3959977"><ele>168.66666666666666</ele><time>2026-03-28T16:24:20.328Z</time></trkpt><trkpt lat="42.878791" lon="12.3959815"><ele>169.33333333333331</ele><time>2026-03-28T16:24:21.328Z</time></trkpt><trkpt lat="42.8790082" lon="12.3959474"><ele>170.0</ele><time>2026-03-28T16:24:22.327Z</time></trkpt><trkpt lat="42.8792332" lon="12.3959163"><ele>169.66666666666666</ele><time>2026-03-28T16:24:23.328Z</time></trkpt><trkpt lat="42.8794567" lon="12.3958877"><ele>169.33333333333334</ele><time>2026-03-28T16:24:24.328Z</time></trkpt><trkpt lat="42.8796796" lon="12.3958522"><ele>169.0</ele><time>2026-03-28T16:24:25.328Z</time></trkpt><trkpt lat="42.8798986" lon="12.395817"><ele>169.33333333333334</ele><time>2026-03-28T16:24:26.328Z</time></trkpt><trkpt lat="42.8801209" lon="12.3957926"><ele>169.66666666666666</ele><time>2026-03-28T16:24:27.328Z</time></trkpt><trkpt lat="42.8803435" lon="12.395761"><ele>170.0</ele><time>2026-03-28T16:24:28.328Z</time></trkpt><trkpt lat="42.8805643" lon="12.3957292"><ele>170.0</ele><time>2026-03-28T16:24:29.328Z</time></trkpt><trkpt lat="42.8807814" lon="12.3956983"><ele>170.0</ele><time>2026-03-28T16:24:30.328Z</time></trkpt><trkpt lat="42.881004" lon="12.3956701"><ele>170.0</ele><time>2026-03-28T16:24:31.327Z</time></trkpt><trkpt lat="42.8812272" lon="12.395641"><ele>170.0</ele><time>2026-03-28T16:24:32.328Z</time></trkpt><trkpt lat="42.8814515" lon="12.3956114"><ele>170.0</ele><time>2026-03-28T16:24:33.328Z</time></trkpt><trkpt lat="42.8816729" lon="12.3955859"><ele>170.0</ele><time>2026-03-28T16:24:34.328Z</time></trkpt><trkpt lat="42.8818989" lon="12.3955586"><ele>169.33333333333331</ele><time>2026-03-28T16:24:35.327Z</time></trkpt><trkpt lat="42.8821196" lon="12.3955279"><ele>168.66666666666666</ele><time>2026-03-28T16:24:36.328Z</time></trkpt><trkpt lat="42.8823406" lon="12.3954918"><ele>168.0</ele><time>2026-03-28T16:24:37.328Z</time></trkpt><trkpt lat="42.8825636" lon="12.3954605"><ele>167.0</ele><time>2026-03-28T16:24:38.328Z</time></trkpt><trkpt lat="42.8827837" lon="12.3954327"><ele>166.0</ele><time>2026-03-28T16:24:39.328Z</time></trkpt><trkpt lat="42.8830061" lon="12.3954011"><ele>165.0</ele><time>2026-03-28T16:24:40.328Z</time></trkpt><trkpt lat="42.8832286" lon="12.3953769"><ele>165.33333333333334</ele><time>2026-03-28T16:24:41.328Z</time></trkpt><trkpt lat="42.8834504" lon="12.3953504"><ele>165.66666666666669</ele><time>2026-03-28T16:24:42.328Z</time></trkpt><trkpt lat="42.8836683" lon="12.3953087"><ele>166.0</ele><time>2026-03-28T16:24:43.328Z</time></trkpt><trkpt lat="42.8838882" lon="12.3952601"><ele>166.0</ele><time>2026-03-28T16:24:44.328Z</time></trkpt><trkpt lat="42.8841098" lon="12.3952055"><ele>166.0</ele><time>2026-03-28T16:24:45.327Z</time></trkpt><trkpt lat="42.8843298" lon="12.3951475"><ele>166.0</ele><time>2026-03-28T16:24:46.327Z</time></trkpt><trkpt lat="42.8845473" lon="12.3950709"><ele>167.0</ele><time>2026-03-28T16:24:47.328Z</time></trkpt><trkpt lat="42.8847587" lon="12.3949864"><ele>168.0</ele><time>2026-03-28T16:24:48.328Z</time></trkpt><trkpt lat="42.8849792" lon="12.3948947"><ele>169.0</ele><time>2026-03-28T16:24:49.328Z</time></trkpt><trkpt lat="42.8851878" lon="12.3947941"><ele>170.0</ele><time>2026-03-28T16:24:50.328Z</time></trkpt><trkpt lat="42.8854038" lon="12.394681"><ele>168.5</ele><time>2026-03-28T16:24:51.328Z</time></trkpt><trkpt lat="42.8856151" lon="12.3945687"><ele>167.0</ele><time>2026-03-28T16:24:52.328Z</time></trkpt><trkpt lat="42.8858241" lon="12.3944502"><ele>169.0</ele><time>2026-03-28T16:24:53.328Z</time></trkpt><trkpt lat="42.8860347" lon="12.3943315"><ele>171.0</ele><time>2026-03-28T16:24:54.328Z</time></trkpt><trkpt lat="42.8862403" lon="12.3942047"><ele>171.0</ele><time>2026-03-28T16:24:55.327Z</time></trkpt><trkpt lat="42.8864522" lon="12.3940845"><ele>171.0</ele><time>2026-03-28T16:24:56.328Z</time></trkpt><trkpt lat="42.8866625" lon="12.3939565"><ele>166.0</ele><time>2026-03-28T16:24:57.328Z</time></trkpt><trkpt lat="42.8868717" lon="12.3938292"><ele>161.0</ele><time>2026-03-28T16:24:58.327Z</time></trkpt><trkpt lat="42.8870808" lon="12.3936972"><ele>161.0</ele><time>2026-03-28T16:24:59.328Z</time></trkpt><trkpt lat="42.8872928" lon="12.393583"><ele>161.0</ele><time>2026-03-28T16:25:00.328Z</time></trkpt><trkpt lat="42.8875046" lon="12.393464"><ele>161.5</ele><time>2026-03-28T16:25:01.328Z</time></trkpt><trkpt lat="42.8877164" lon="12.3933451"><ele>162.0</ele><time>2026-03-28T16:25:02.327Z</time></trkpt><trkpt lat="42.8879264" lon="12.3932187"><ele>162.0</ele><time>2026-03-28T16:25:03.328Z</time></trkpt><trkpt lat="42.8881345" lon="12.3930996"><ele>162.0</ele><time>2026-03-28T16:25:04.328Z</time></trkpt><trkpt lat="42.8883482" lon="12.3929855"><ele>160.5</ele><time>2026-03-28T16:25:05.328Z</time></trkpt><trkpt lat="42.8885581" lon="12.392859"><ele>159.0</ele><time>2026-03-28T16:25:06.327Z</time></trkpt><trkpt lat="42.8887657" lon="12.3927315"><ele>159.0</ele><time>2026-03-28T16:25:07.328Z</time></trkpt><trkpt lat="42.8889739" lon="12.3925938"><ele>159.0</ele><time>2026-03-28T16:25:08.327Z</time></trkpt><trkpt lat="42.889189" lon="12.3924826"><ele>160.0</ele><time>2026-03-28T16:25:09.328Z</time></trkpt><trkpt lat="42.8894074" lon="12.3923566"><ele>161.0</ele><time>2026-03-28T16:25:10.327Z</time></trkpt><trkpt lat="42.8896151" lon="12.3922302"><ele>157.5</ele><time>2026-03-28T16:25:11.327Z</time></trkpt><trkpt lat="42.8898251" lon="12.3921183"><ele>154.0</ele><time>2026-03-28T16:25:12.328Z</time></trkpt><trkpt lat="42.8900292" lon="12.3919889"><ele>155.0</ele><time>2026-03-28T16:25:13.327Z</time></trkpt><trkpt lat="42.8902362" lon="12.3918643"><ele>156.0</ele><time>2026-03-28T16:25:14.328Z</time></trkpt><trkpt lat="42.8904465" lon="12.3917359"><ele>156.0</ele><time>2026-03-28T16:25:15.328Z</time></trkpt><trkpt lat="42.8906549" lon="12.3916171"><ele>156.0</ele><time>2026-03-28T16:25:16.328Z</time></trkpt><trkpt lat="42.8908631" lon="12.3914874"><ele>155.0</ele><time>2026-03-28T16:25:17.327Z</time></trkpt><trkpt lat="42.8910719" lon="12.391365"><ele>154.0</ele><time>2026-03-28T16:25:18.327Z</time></trkpt><trkpt lat="42.8912781" lon="12.3912325"><ele>154.0</ele><time>2026-03-28T16:25:19.327Z</time></trkpt><trkpt lat="42.8914873" lon="12.3911152"><ele>154.0</ele><time>2026-03-28T16:25:20.327Z</time></trkpt><trkpt lat="42.891692" lon="12.3910023"><ele>154.0</ele><time>2026-03-28T16:25:21.328Z</time></trkpt><trkpt lat="42.8918989" lon="12.3908857"><ele>155.0</ele><time>2026-03-28T16:25:22.328Z</time></trkpt><trkpt lat="42.8921009" lon="12.3907681"><ele>156.0</ele><time>2026-03-28T16:25:23.328Z</time></trkpt><trkpt lat="42.8923065" lon="12.3906505"><ele>157.0</ele><time>2026-03-28T16:25:24.327Z</time></trkpt><trkpt lat="42.8925152" lon="12.3905274"><ele>157.0</ele><time>2026-03-28T16:25:25.328Z</time></trkpt><trkpt lat="42.8927232" lon="12.3904072"><ele>157.0</ele><time>2026-03-28T16:25:26.327Z</time></trkpt><trkpt lat="42.8929356" lon="12.3903046"><ele>157.0</ele><time>2026-03-28T16:25:27.328Z</time></trkpt><trkpt lat="42.8931461" lon="12.3901842"><ele>157.0</ele><time>2026-03-28T16:25:28.328Z</time></trkpt><trkpt lat="42.8933557" lon="12.3900651"><ele>157.66666666666669</ele><time>2026-03-28T16:25:29.327Z</time></trkpt><trkpt lat="42.8935604" lon="12.3899462"><ele>158.33333333333334</ele><time>2026-03-28T16:25:30.327Z</time></trkpt><trkpt lat="42.8937645" lon="12.3898131"><ele>159.0</ele><time>2026-03-28T16:25:31.328Z</time></trkpt><trkpt lat="42.8939726" lon="12.389688"><ele>158.5</ele><time>2026-03-28T16:25:32.328Z</time></trkpt><trkpt lat="42.8941806" lon="12.3895623"><ele>158.0</ele><time>2026-03-28T16:25:33.328Z</time></trkpt><trkpt lat="42.8943881" lon="12.389454"><ele>158.0</ele><time>2026-03-28T16:25:34.328Z</time></trkpt><trkpt lat="42.8946036" lon="12.3893553"><ele>158.0</ele><time>2026-03-28T16:25:35.328Z</time></trkpt><trkpt lat="42.8948242" lon="12.3892592"><ele>158.0</ele><time>2026-03-28T16:25:36.328Z</time></trkpt><trkpt lat="42.8950482" lon="12.3891787"><ele>158.0</ele><time>2026-03-28T16:25:37.328Z</time></trkpt><trkpt lat="42.8952724" lon="12.3891067"><ele>159.0</ele><time>2026-03-28T16:25:38.328Z</time></trkpt><trkpt lat="42.8954931" lon="12.38905"><ele>160.0</ele><time>2026-03-28T16:25:39.327Z</time></trkpt><trkpt lat="42.8957178" lon="12.3890101"><ele>160.5</ele><time>2026-03-28T16:25:40.328Z</time></trkpt><trkpt lat="42.8959437" lon="12.3889763"><ele>161.0</ele><time>2026-03-28T16:25:41.328Z</time></trkpt><trkpt lat="42.8961661" lon="12.3889588"><ele>161.0</ele><time>2026-03-28T16:25:42.328Z</time></trkpt><trkpt lat="42.8963904" lon="12.3889496"><ele>161.0</ele><time>2026-03-28T16:25:43.328Z</time></trkpt><trkpt lat="42.8966212" lon="12.3889686"><ele>162.0</ele><time>2026-03-28T16:25:44.328Z</time></trkpt><trkpt lat="42.8968463" lon="12.388994"><ele>163.0</ele><time>2026-03-28T16:25:45.328Z</time></trkpt><trkpt lat="42.8970592" lon="12.389033"><ele>164.0</ele><time>2026-03-28T16:25:46.328Z</time></trkpt><trkpt lat="42.8972792" lon="12.3890714"><ele>164.0</ele><time>2026-03-28T16:25:47.328Z</time></trkpt><trkpt lat="42.8975045" lon="12.3891176"><ele>164.0</ele><time>2026-03-28T16:25:48.327Z</time></trkpt><trkpt lat="42.8977363" lon="12.3891644"><ele>165.66666666666666</ele><time>2026-03-28T16:25:49.328Z</time></trkpt><trkpt lat="42.8979532" lon="12.3892058"><ele>167.33333333333334</ele><time>2026-03-28T16:25:50.327Z</time></trkpt><trkpt lat="42.8981764" lon="12.3892471"><ele>169.0</ele><time>2026-03-28T16:25:51.328Z</time></trkpt><trkpt lat="42.8984049" lon="12.3892888"><ele>170.0</ele><time>2026-03-28T16:25:52.328Z</time></trkpt><trkpt lat="42.8986332" lon="12.3893326"><ele>171.0</ele><time>2026-03-28T16:25:53.328Z</time></trkpt><trkpt lat="42.8988518" lon="12.3893768"><ele>171.0</ele><time>2026-03-28T16:25:54.327Z</time></trkpt><trkpt lat="42.8990788" lon="12.3894172"><ele>171.0</ele><time>2026-03-28T16:25:55.328Z</time></trkpt><trkpt lat="42.8993006" lon="12.38946"><ele>170.0</ele><time>2026-03-28T16:25:56.327Z</time></trkpt><trkpt lat="42.8995317" lon="12.3894994"><ele>169.0</ele><time>2026-03-28T16:25:57.327Z</time></trkpt><trkpt lat="42.8997543" lon="12.389554"><ele>169.0</ele><time>2026-03-28T16:25:58.327Z</time></trkpt><trkpt lat="42.8999831" lon="12.3896014"><ele>169.0</ele><time>2026-03-28T16:25:59.328Z</time></trkpt><trkpt lat="42.9002184" lon="12.3896499"><ele>171.0</ele><time>2026-03-28T16:26:00.328Z</time></trkpt><trkpt lat="42.900446" lon="12.3896894"><ele>173.0</ele><time>2026-03-28T16:26:01.328Z</time></trkpt><trkpt lat="42.9006821" lon="12.3897312"><ele>173.0</ele><time>2026-03-28T16:26:02.328Z</time></trkpt><trkpt lat="42.9009102" lon="12.3897795"><ele>173.0</ele><time>2026-03-28T16:26:03.327Z</time></trkpt><trkpt lat="42.9011372" lon="12.3898284"><ele>172.0</ele><time>2026-03-28T16:26:04.328Z</time></trkpt><trkpt lat="42.9013622" lon="12.3898831"><ele>171.0</ele><time>2026-03-28T16:26:05.328Z</time></trkpt><trkpt lat="42.9015847" lon="12.3899412"><ele>170.5</ele><time>2026-03-28T16:26:06.328Z</time></trkpt><trkpt lat="42.9018104" lon="12.3900031"><ele>170.0</ele><time>2026-03-28T16:26:07.328Z</time></trkpt><trkpt lat="42.9020332" lon="12.3900699"><ele>170.0</ele><time>2026-03-28T16:26:08.327Z</time></trkpt><trkpt lat="42.902268" lon="12.3901357"><ele>170.0</ele><time>2026-03-28T16:26:09.327Z</time></trkpt><trkpt lat="42.9024817" lon="12.3901965"><ele>169.66666666666666</ele><time>2026-03-28T16:26:10.328Z</time></trkpt><trkpt lat="42.9026924" lon="12.3902592"><ele>169.33333333333334</ele><time>2026-03-28T16:26:11.327Z</time></trkpt><trkpt lat="42.902911" lon="12.3903279"><ele>169.0</ele><time>2026-03-28T16:26:12.328Z</time></trkpt><trkpt lat="42.903124" lon="12.3903988"><ele>169.0</ele><time>2026-03-28T16:26:13.328Z</time></trkpt><trkpt lat="42.9033433" lon="12.3904718"><ele>169.0</ele><time>2026-03-28T16:26:14.328Z</time></trkpt><trkpt lat="42.9035718" lon="12.3905481"><ele>171.5</ele><time>2026-03-28T16:26:15.327Z</time></trkpt><trkpt lat="42.9037908" lon="12.3906169"><ele>174.0</ele><time>2026-03-28T16:26:16.328Z</time></trkpt><trkpt lat="42.9040125" lon="12.390691"><ele>174.0</ele><time>2026-03-28T16:26:17.328Z</time></trkpt><trkpt lat="42.9042349" lon="12.3907701"><ele>174.0</ele><time>2026-03-28T16:26:18.327Z</time></trkpt><trkpt lat="42.9044535" lon="12.3908393"><ele>173.0</ele><time>2026-03-28T16:26:19.327Z</time></trkpt><trkpt lat="42.9046772" lon="12.3909162"><ele>172.0</ele><time>2026-03-28T16:26:20.327Z</time></trkpt><trkpt lat="42.9048994" lon="12.3909827"><ele>169.5</ele><time>2026-03-28T16:26:21.328Z</time></trkpt><trkpt lat="42.9051199" lon="12.3910502"><ele>167.0</ele><time>2026-03-28T16:26:22.328Z</time></trkpt><trkpt lat="42.9053431" lon="12.3911258"><ele>167.0</ele><time>2026-03-28T16:26:23.328Z</time></trkpt><trkpt lat="42.905567" lon="12.3911916"><ele>167.0</ele><time>2026-03-28T16:26:24.328Z</time></trkpt><trkpt lat="42.9057933" lon="12.3912622"><ele>166.0</ele><time>2026-03-28T16:26:25.327Z</time></trkpt><trkpt lat="42.9060247" lon="12.3913371"><ele>165.0</ele><time>2026-03-28T16:26:26.328Z</time></trkpt><trkpt lat="42.9062554" lon="12.3914153"><ele>167.5</ele><time>2026-03-28T16:26:27.328Z</time></trkpt><trkpt lat="42.9064769" lon="12.3914938"><ele>170.0</ele><time>2026-03-28T16:26:28.328Z</time></trkpt><trkpt lat="42.9066926" lon="12.3915623"><ele>169.33333333333331</ele><time>2026-03-28T16:26:29.328Z</time></trkpt><trkpt lat="42.9069007" lon="12.391629"><ele>168.66666666666666</ele><time>2026-03-28T16:26:30.328Z</time></trkpt><trkpt lat="42.9070995" lon="12.3916996"><ele>168.0</ele><time>2026-03-28T16:26:31.327Z</time></trkpt><trkpt lat="42.9072767" lon="12.3917642"><ele>168.0</ele><time>2026-03-28T16:26:32.328Z</time></trkpt><trkpt lat="42.9074512" lon="12.3918172"><ele>168.0</ele><time>2026-03-28T16:26:33.327Z</time></trkpt><trkpt lat="42.9076176" lon="12.391863"><ele>168.0</ele><time>2026-03-28T16:26:34.328Z</time></trkpt><trkpt lat="42.9077792" lon="12.3919078"><ele>168.0</ele><time>2026-03-28T16:26:35.328Z</time></trkpt><trkpt lat="42.9079341" lon="12.391952"><ele>168.0</ele><time>2026-03-28T16:26:36.328Z</time></trkpt><trkpt lat="42.9080574" lon="12.3919766"><ele>168.0</ele><time>2026-03-28T16:26:37.328Z</time></trkpt><trkpt lat="42.9081645" lon="12.3920013"><ele>168.0</ele><time>2026-03-28T16:26:38.328Z</time></trkpt><trkpt lat="42.908258" lon="12.3920297"><ele>168.0</ele><time>2026-03-28T16:26:39.327Z</time></trkpt><trkpt lat="42.9083377" lon="12.3920629"><ele>168.0</ele><time>2026-03-28T16:26:40.328Z</time></trkpt><trkpt lat="42.9084088" lon="12.3921077"><ele>168.0</ele><time>2026-03-28T16:26:41.328Z</time></trkpt><trkpt lat="42.9084452" lon="12.3921804"><ele>168.0</ele><time>2026-03-28T16:26:42.328Z</time></trkpt><trkpt lat="42.9084655" lon="12.3922626"><ele>168.0</ele><time>2026-03-28T16:26:43.328Z</time></trkpt><trkpt lat="42.9084738" lon="12.3924151"><ele>168.0</ele><time>2026-03-28T16:26:45.328Z</time></trkpt><trkpt lat="42.9084921" lon="12.3925137"><ele>168.0</ele><time>2026-03-28T16:26:47.328Z</time></trkpt><trkpt lat="42.9085353" lon="12.3926171"><ele>168.0</ele><time>2026-03-28T16:26:55.328Z</time></trkpt><trkpt lat="42.9085917" lon="12.3926593"><ele>168.0</ele><time>2026-03-28T16:26:56.328Z</time></trkpt><trkpt lat="42.9086617" lon="12.3926816"><ele>168.0</ele><time>2026-03-28T16:26:57.328Z</time></trkpt><trkpt lat="42.9087289" lon="12.3926943"><ele>168.0</ele><time>2026-03-28T16:26:58.328Z</time></trkpt><trkpt lat="42.9088112" lon="12.3926893"><ele>168.0</ele><time>2026-03-28T16:26:59.328Z</time></trkpt><trkpt lat="42.9089038" lon="12.3926781"><ele>168.0</ele><time>2026-03-28T16:27:00.328Z</time></trkpt><trkpt lat="42.909009" lon="12.3926511"><ele>168.0</ele><time>2026-03-28T16:27:01.327Z</time></trkpt><trkpt lat="42.9091252" lon="12.3926399"><ele>168.0</ele><time>2026-03-28T16:27:02.328Z</time></trkpt><trkpt lat="42.9092427" lon="12.3926065"><ele>168.0</ele><time>2026-03-28T16:27:03.327Z</time></trkpt><trkpt lat="42.9093553" lon="12.3925782"><ele>167.75</ele><time>2026-03-28T16:27:04.327Z</time></trkpt><trkpt lat="42.9094747" lon="12.3925534"><ele>167.5</ele><time>2026-03-28T16:27:05.328Z</time></trkpt><trkpt lat="42.9095969" lon="12.3925495"><ele>167.25</ele><time>2026-03-28T16:27:06.327Z</time></trkpt><trkpt lat="42.9097285" lon="12.3925504"><ele>167.0</ele><time>2026-03-28T16:27:07.327Z</time></trkpt><trkpt lat="42.9098554" lon="12.392566"><ele>167.0</ele><time>2026-03-28T16:27:08.328Z</time></trkpt><trkpt lat="42.9099866" lon="12.39259"><ele>167.0</ele><time>2026-03-28T16:27:09.328Z</time></trkpt><trkpt lat="42.9101208" lon="12.3926247"><ele>167.0</ele><time>2026-03-28T16:27:10.328Z</time></trkpt><trkpt lat="42.9102608" lon="12.3926624"><ele>167.0</ele><time>2026-03-28T16:27:11.328Z</time></trkpt><trkpt lat="42.9104004" lon="12.3927058"><ele>167.0</ele><time>2026-03-28T16:27:12.328Z</time></trkpt><trkpt lat="42.9105395" lon="12.3927539"><ele>167.0</ele><time>2026-03-28T16:27:13.328Z</time></trkpt><trkpt lat="42.9106797" lon="12.3927962"><ele>167.0</ele><time>2026-03-28T16:27:14.327Z</time></trkpt><trkpt lat="42.9108187" lon="12.3928382"><ele>167.0</ele><time>2026-03-28T16:27:15.327Z</time></trkpt><trkpt lat="42.9109514" lon="12.3928911"><ele>167.75</ele><time>2026-03-28T16:27:16.327Z</time></trkpt><trkpt lat="42.9110912" lon="12.3929487"><ele>168.5</ele><time>2026-03-28T16:27:17.327Z</time></trkpt><trkpt lat="42.9112244" lon="12.39299"><ele>169.25</ele><time>2026-03-28T16:27:18.328Z</time></trkpt><trkpt lat="42.9113609" lon="12.3930333"><ele>170.0</ele><time>2026-03-28T16:27:19.327Z</time></trkpt><trkpt lat="42.9114968" lon="12.3930736"><ele>170.5</ele><time>2026-03-28T16:27:20.328Z</time></trkpt><trkpt lat="42.9116259" lon="12.3931219"><ele>171.0</ele><time>2026-03-28T16:27:21.328Z</time></trkpt><trkpt lat="42.9117512" lon="12.3931601"><ele>171.5</ele><time>2026-03-28T16:27:22.328Z</time></trkpt><trkpt lat="42.9118779" lon="12.3932039"><ele>172.0</ele><time>2026-03-28T16:27:23.328Z</time></trkpt><trkpt lat="42.9119952" lon="12.3932408"><ele>172.2</ele><time>2026-03-28T16:27:24.327Z</time></trkpt><trkpt lat="42.9121159" lon="12.3932789"><ele>172.39999999999998</ele><time>2026-03-28T16:27:25.328Z</time></trkpt><trkpt lat="42.9122239" lon="12.3933128"><ele>172.60000000000002</ele><time>2026-03-28T16:27:26.327Z</time></trkpt><trkpt lat="42.9123228" lon="12.3933401"><ele>172.8</ele><time>2026-03-28T16:27:27.328Z</time></trkpt><trkpt lat="42.9124028" lon="12.3933637"><ele>173.0</ele><time>2026-03-28T16:27:28.328Z</time></trkpt><trkpt lat="42.9124783" lon="12.3933916"><ele>173.0</ele><time>2026-03-28T16:27:29.328Z</time></trkpt><trkpt lat="42.9125502" lon="12.393426"><ele>173.0</ele><time>2026-03-28T16:27:30.328Z</time></trkpt><trkpt lat="42.9126155" lon="12.393449"><ele>173.0</ele><time>2026-03-28T16:27:31.327Z</time></trkpt><trkpt lat="42.9126808" lon="12.3934855"><ele>173.0</ele><time>2026-03-28T16:27:32.328Z</time></trkpt><trkpt lat="42.9127578" lon="12.3935097"><ele>173.0</ele><time>2026-03-28T16:27:33.328Z</time></trkpt><trkpt lat="42.9128382" lon="12.3935278"><ele>173.0</ele><time>2026-03-28T16:27:34.328Z</time></trkpt><trkpt lat="42.9129154" lon="12.3935457"><ele>173.33333333333331</ele><time>2026-03-28T16:27:35.327Z</time></trkpt><trkpt lat="42.9129972" lon="12.3935661"><ele>173.66666666666666</ele><time>2026-03-28T16:27:36.328Z</time></trkpt><trkpt lat="42.9130811" lon="12.3935883"><ele>174.0</ele><time>2026-03-28T16:27:37.328Z</time></trkpt><trkpt lat="42.913167" lon="12.3936068"><ele>174.33333333333334</ele><time>2026-03-28T16:27:38.327Z</time></trkpt><trkpt lat="42.9132541" lon="12.3936344"><ele>174.66666666666669</ele><time>2026-03-28T16:27:39.328Z</time></trkpt><trkpt lat="42.9133401" lon="12.3936656"><ele>175.0</ele><time>2026-03-28T16:27:40.328Z</time></trkpt><trkpt lat="42.9134341" lon="12.3937022"><ele>175.6</ele><time>2026-03-28T16:27:41.327Z</time></trkpt><trkpt lat="42.9135188" lon="12.3937235"><ele>176.2</ele><time>2026-03-28T16:27:42.328Z</time></trkpt><trkpt lat="42.913612" lon="12.3937564"><ele>176.8</ele><time>2026-03-28T16:27:43.328Z</time></trkpt><trkpt lat="42.9137084" lon="12.3937761"><ele>177.4</ele><time>2026-03-28T16:27:44.327Z</time></trkpt><trkpt lat="42.9138016" lon="12.3937924"><ele>178.0</ele><time>2026-03-28T16:27:45.328Z</time></trkpt><trkpt lat="42.9138982" lon="12.3938074"><ele>178.0</ele><time>2026-03-28T16:27:46.328Z</time></trkpt><trkpt lat="42.9139988" lon="12.3938287"><ele>178.0</ele><time>2026-03-28T16:27:47.328Z</time></trkpt><trkpt lat="42.9140995" lon="12.3938519"><ele>178.0</ele><time>2026-03-28T16:27:48.328Z</time></trkpt><trkpt lat="42.9142021" lon="12.3938887"><ele>178.0</ele><time>2026-03-28T16:27:49.327Z</time></trkpt><trkpt lat="42.9143211" lon="12.3939297"><ele>178.0</ele><time>2026-03-28T16:27:50.328Z</time></trkpt><trkpt lat="42.9144258" lon="12.3939558"><ele>179.25</ele><time>2026-03-28T16:27:51.328Z</time></trkpt><trkpt lat="42.9145334" lon="12.3939911"><ele>180.5</ele><time>2026-03-28T16:27:52.328Z</time></trkpt><trkpt lat="42.9146391" lon="12.3940182"><ele>181.75</ele><time>2026-03-28T16:27:53.327Z</time></trkpt><trkpt lat="42.9147573" lon="12.3940411"><ele>183.0</ele><time>2026-03-28T16:27:54.327Z</time></trkpt><trkpt lat="42.9148761" lon="12.3940805"><ele>183.0</ele><time>2026-03-28T16:27:55.328Z</time></trkpt><trkpt lat="42.9149963" lon="12.3941163"><ele>183.0</ele><time>2026-03-28T16:27:56.327Z</time></trkpt><trkpt lat="42.9151115" lon="12.394149"><ele>183.0</ele><time>2026-03-28T16:27:57.328Z</time></trkpt><trkpt lat="42.9152185" lon="12.394173"><ele>183.0</ele><time>2026-03-28T16:27:58.328Z</time></trkpt><trkpt lat="42.9153126" lon="12.3941935"><ele>183.0</ele><time>2026-03-28T16:27:59.327Z</time></trkpt><trkpt lat="42.9153904" lon="12.3942133"><ele>183.5</ele><time>2026-03-28T16:28:00.327Z</time></trkpt><trkpt lat="42.9154553" lon="12.3942293"><ele>184.0</ele><time>2026-03-28T16:28:01.328Z</time></trkpt><trkpt lat="42.9155512" lon="12.3942432"><ele>184.5</ele><time>2026-03-28T16:28:03.328Z</time></trkpt><trkpt lat="42.9156244" lon="12.3942596"><ele>185.0</ele><time>2026-03-28T16:28:06.328Z</time></trkpt><trkpt lat="42.9157135" lon="12.3942795"><ele>185.5</ele><time>2026-03-28T16:28:09.328Z</time></trkpt><trkpt lat="42.9157952" lon="12.3943036"><ele>186.0</ele><time>2026-03-28T16:28:11.328Z</time></trkpt><trkpt lat="42.9158799" lon="12.3943304"><ele>186.0</ele><time>2026-03-28T16:28:13.328Z</time></trkpt><trkpt lat="42.9159746" lon="12.3943702"><ele>186.0</ele><time>2026-03-28T16:28:15.328Z</time></trkpt><trkpt lat="42.9160877" lon="12.3944064"><ele>186.0</ele><time>2026-03-28T16:28:17.328Z</time></trkpt><trkpt lat="42.9161527" lon="12.3944339"><ele>186.0</ele><time>2026-03-28T16:28:18.328Z</time></trkpt><trkpt lat="42.9162276" lon="12.3944532"><ele>186.0</ele><time>2026-03-28T16:28:19.328Z</time></trkpt><trkpt lat="42.9163023" lon="12.3944565"><ele>186.0</ele><time>2026-03-28T16:28:20.328Z</time></trkpt><trkpt lat="42.9163733" lon="12.3944753"><ele>186.0</ele><time>2026-03-28T16:28:21.328Z</time></trkpt><trkpt lat="42.9164465" lon="12.3944805"><ele>186.0</ele><time>2026-03-28T16:28:22.328Z</time></trkpt><trkpt lat="42.9165241" lon="12.3944815"><ele>186.0</ele><time>2026-03-28T16:28:23.327Z</time></trkpt><trkpt lat="42.9166088" lon="12.3944759"><ele>186.0</ele><time>2026-03-28T16:28:24.328Z</time></trkpt><trkpt lat="42.9167054" lon="12.3944735"><ele>186.0</ele><time>2026-03-28T16:28:25.328Z</time></trkpt><trkpt lat="42.9168109" lon="12.394479"><ele>186.0</ele><time>2026-03-28T16:28:26.328Z</time></trkpt><trkpt lat="42.9169154" lon="12.3944692"><ele>186.0</ele><time>2026-03-28T16:28:27.328Z</time></trkpt><trkpt lat="42.9170171" lon="12.3944668"><ele>186.0</ele><time>2026-03-28T16:28:28.327Z</time></trkpt><trkpt lat="42.9171191" lon="12.394454"><ele>186.0</ele><time>2026-03-28T16:28:29.327Z</time></trkpt><trkpt lat="42.9172307" lon="12.3944371"><ele>186.0</ele><time>2026-03-28T16:28:30.328Z</time></trkpt><trkpt lat="42.9173395" lon="12.3944073"><ele>186.0</ele><time>2026-03-28T16:28:31.328Z</time></trkpt><trkpt lat="42.9174545" lon="12.3943718"><ele>186.75</ele><time>2026-03-28T16:28:32.328Z</time></trkpt><trkpt lat="42.917569" lon="12.3943364"><ele>187.5</ele><time>2026-03-28T16:28:33.328Z</time></trkpt><trkpt lat="42.9176924" lon="12.3943051"><ele>188.25</ele><time>2026-03-28T16:28:34.328Z</time></trkpt><trkpt lat="42.917812" lon="12.3942814"><ele>189.0</ele><time>2026-03-28T16:28:35.328Z</time></trkpt><trkpt lat="42.9179413" lon="12.394251"><ele>189.0</ele><time>2026-03-28T16:28:36.328Z</time></trkpt><trkpt lat="42.9180685" lon="12.3942169"><ele>189.0</ele><time>2026-03-28T16:28:37.327Z</time></trkpt><trkpt lat="42.9182011" lon="12.3941829"><ele>189.0</ele><time>2026-03-28T16:28:38.328Z</time></trkpt><trkpt lat="42.9183268" lon="12.3941455"><ele>189.0</ele><time>2026-03-28T16:28:39.328Z</time></trkpt><trkpt lat="42.91845" lon="12.394109"><ele>190.0</ele><time>2026-03-28T16:28:40.327Z</time></trkpt><trkpt lat="42.9185735" lon="12.3940701"><ele>191.0</ele><time>2026-03-28T16:28:41.328Z</time></trkpt><trkpt lat="42.9187017" lon="12.3940491"><ele>192.0</ele><time>2026-03-28T16:28:42.328Z</time></trkpt><trkpt lat="42.9188303" lon="12.3940265"><ele>193.0</ele><time>2026-03-28T16:28:43.328Z</time></trkpt><trkpt lat="42.9189692" lon="12.3940115"><ele>193.0</ele><time>2026-03-28T16:28:44.328Z</time></trkpt><trkpt lat="42.9191065" lon="12.3940081"><ele>193.0</ele><time>2026-03-28T16:28:45.328Z</time></trkpt><trkpt lat="42.9192485" lon="12.3940031"><ele>193.0</ele><time>2026-03-28T16:28:46.327Z</time></trkpt><trkpt lat="42.9193953" lon="12.3939905"><ele>193.0</ele><time>2026-03-28T16:28:47.328Z</time></trkpt><trkpt lat="42.9195393" lon="12.393973"><ele>193.25</ele><time>2026-03-28T16:28:48.328Z</time></trkpt><trkpt lat="42.9196837" lon="12.3939572"><ele>193.5</ele><time>2026-03-28T16:28:49.328Z</time></trkpt><trkpt lat="42.9198243" lon="12.393952"><ele>193.75</ele><time>2026-03-28T16:28:50.328Z</time></trkpt><trkpt lat="42.9199629" lon="12.3939393"><ele>194.0</ele><time>2026-03-28T16:28:51.328Z</time></trkpt><trkpt lat="42.9201092" lon="12.3939264"><ele>194.0</ele><time>2026-03-28T16:28:52.328Z</time></trkpt><trkpt lat="42.9202534" lon="12.3939124"><ele>194.0</ele><time>2026-03-28T16:28:53.328Z</time></trkpt><trkpt lat="42.9203998" lon="12.3939089"><ele>194.0</ele><time>2026-03-28T16:28:54.327Z</time></trkpt><trkpt lat="42.920545" lon="12.3939057"><ele>194.0</ele><time>2026-03-28T16:28:55.328Z</time></trkpt><trkpt lat="42.9206924" lon="12.3939031"><ele>194.0</ele><time>2026-03-28T16:28:56.327Z</time></trkpt><trkpt lat="42.9208381" lon="12.3938909"><ele>194.0</ele><time>2026-03-28T16:28:57.327Z</time></trkpt><trkpt lat="42.9209786" lon="12.3938706"><ele>194.0</ele><time>2026-03-28T16:28:58.328Z</time></trkpt><trkpt lat="42.9211177" lon="12.3938558"><ele>194.0</ele><time>2026-03-28T16:28:59.328Z</time></trkpt><trkpt lat="42.9212589" lon="12.3938453"><ele>193.0</ele><time>2026-03-28T16:29:00.328Z</time></trkpt><trkpt lat="42.9213776" lon="12.3938598"><ele>192.0</ele><time>2026-03-28T16:29:01.328Z</time></trkpt><trkpt lat="42.9214994" lon="12.3938631"><ele>191.0</ele><time>2026-03-28T16:29:02.328Z</time></trkpt><trkpt lat="42.9216134" lon="12.3938641"><ele>190.0</ele><time>2026-03-28T16:29:03.328Z</time></trkpt><trkpt lat="42.9217238" lon="12.3938664"><ele>187.5</ele><time>2026-03-28T16:29:04.328Z</time></trkpt><trkpt lat="42.9218342" lon="12.3938958"><ele>185.0</ele><time>2026-03-28T16:29:05.328Z</time></trkpt><trkpt lat="42.9219432" lon="12.3939651"><ele>182.5</ele><time>2026-03-28T16:29:06.328Z</time></trkpt><trkpt lat="42.9220472" lon="12.3940514"><ele>180.0</ele><time>2026-03-28T16:29:07.327Z</time></trkpt><trkpt lat="42.9221392" lon="12.394145"><ele>180.0</ele><time>2026-03-28T16:29:08.327Z</time></trkpt><trkpt lat="42.9222284" lon="12.3942506"><ele>180.0</ele><time>2026-03-28T16:29:09.327Z</time></trkpt><trkpt lat="42.9223123" lon="12.3943564"><ele>180.0</ele><time>2026-03-28T16:29:10.328Z</time></trkpt><trkpt lat="42.9224054" lon="12.3944594"><ele>180.0</ele><time>2026-03-28T16:29:11.328Z</time></trkpt><trkpt lat="42.9224915" lon="12.3945689"><ele>178.8</ele><time>2026-03-28T16:29:12.328Z</time></trkpt><trkpt lat="42.9225724" lon="12.3946772"><ele>177.6</ele><time>2026-03-28T16:29:13.327Z</time></trkpt><trkpt lat="42.9226564" lon="12.3947792"><ele>176.39999999999998</ele><time>2026-03-28T16:29:14.328Z</time></trkpt><trkpt lat="42.9227372" lon="12.394879"><ele>175.2</ele><time>2026-03-28T16:29:15.327Z</time></trkpt><trkpt lat="42.9228113" lon="12.3949771"><ele>174.0</ele><time>2026-03-28T16:29:16.328Z</time></trkpt><trkpt lat="42.9228714" lon="12.3950576"><ele>174.0</ele><time>2026-03-28T16:29:17.328Z</time></trkpt><trkpt lat="42.9229199" lon="12.3951226"><ele>174.0</ele><time>2026-03-28T16:29:18.328Z</time></trkpt><trkpt lat="42.9229886" lon="12.3952098"><ele>174.0</ele><time>2026-03-28T16:29:20.328Z</time></trkpt><trkpt lat="42.9230073" lon="12.3953032"><ele>174.0</ele><time>2026-03-28T16:29:27.328Z</time></trkpt><trkpt lat="42.9230289" lon="12.3954149"><ele>174.0</ele><time>2026-03-28T16:29:29.328Z</time></trkpt><trkpt lat="42.9231184" lon="12.3955191"><ele>174.0</ele><time>2026-03-28T16:29:31.328Z</time></trkpt><trkpt lat="42.9232328" lon="12.3955873"><ele>174.33333333333334</ele><time>2026-03-28T16:29:33.328Z</time></trkpt><trkpt lat="42.9233" lon="12.3956483"><ele>174.66666666666666</ele><time>2026-03-28T16:29:34.327Z</time></trkpt><trkpt lat="42.9233724" lon="12.3957109"><ele>175.0</ele><time>2026-03-28T16:29:35.328Z</time></trkpt><trkpt lat="42.9234481" lon="12.395784"><ele>175.33333333333331</ele><time>2026-03-28T16:29:36.328Z</time></trkpt><trkpt lat="42.923517" lon="12.3958576"><ele>175.66666666666666</ele><time>2026-03-28T16:29:37.328Z</time></trkpt><trkpt lat="42.9235867" lon="12.3959391"><ele>176.0</ele><time>2026-03-28T16:29:38.328Z</time></trkpt><trkpt lat="42.9236551" lon="12.3960178"><ele>174.8</ele><time>2026-03-28T16:29:39.328Z</time></trkpt><trkpt lat="42.9237244" lon="12.3960985"><ele>173.60000000000002</ele><time>2026-03-28T16:29:40.328Z</time></trkpt><trkpt lat="42.9237977" lon="12.39618"><ele>172.4</ele><time>2026-03-28T16:29:41.328Z</time></trkpt><trkpt lat="42.9238643" lon="12.3962626"><ele>171.2</ele><time>2026-03-28T16:29:42.327Z</time></trkpt><trkpt lat="42.9239352" lon="12.3963429"><ele>170.0</ele><time>2026-03-28T16:29:43.327Z</time></trkpt><trkpt lat="42.9240109" lon="12.3964164"><ele>170.0</ele><time>2026-03-28T16:29:44.327Z</time></trkpt><trkpt lat="42.924088" lon="12.3964846"><ele>170.0</ele><time>2026-03-28T16:29:45.328Z</time></trkpt><trkpt lat="42.9241697" lon="12.3965428"><ele>170.0</ele><time>2026-03-28T16:29:46.328Z</time></trkpt><trkpt lat="42.9242582" lon="12.3965771"><ele>170.0</ele><time>2026-03-28T16:29:47.328Z</time></trkpt><trkpt lat="42.924365" lon="12.3965709"><ele>170.0</ele><time>2026-03-28T16:29:48.328Z</time></trkpt><trkpt lat="42.9244778" lon="12.3965497"><ele>168.5</ele><time>2026-03-28T16:29:49.328Z</time></trkpt><trkpt lat="42.9246045" lon="12.3965096"><ele>167.0</ele><time>2026-03-28T16:29:50.327Z</time></trkpt><trkpt lat="42.9247381" lon="12.3964673"><ele>165.5</ele><time>2026-03-28T16:29:51.328Z</time></trkpt><trkpt lat="42.9248651" lon="12.3964149"><ele>164.0</ele><time>2026-03-28T16:29:52.328Z</time></trkpt><trkpt lat="42.9249931" lon="12.3963643"><ele>163.5</ele><time>2026-03-28T16:29:53.328Z</time></trkpt><trkpt lat="42.9251286" lon="12.3963234"><ele>163.0</ele><time>2026-03-28T16:29:54.327Z</time></trkpt><trkpt lat="42.9252628" lon="12.3962661"><ele>162.5</ele><time>2026-03-28T16:29:55.328Z</time></trkpt><trkpt lat="42.9254005" lon="12.3962152"><ele>162.0</ele><time>2026-03-28T16:29:56.328Z</time></trkpt><trkpt lat="42.9255472" lon="12.3961554"><ele>162.0</ele><time>2026-03-28T16:29:57.328Z</time></trkpt><trkpt lat="42.9256912" lon="12.3960804"><ele>162.0</ele><time>2026-03-28T16:29:58.328Z</time></trkpt><trkpt lat="42.9258444" lon="12.3960169"><ele>162.0</ele><time>2026-03-28T16:29:59.328Z</time></trkpt><trkpt lat="42.9259904" lon="12.3959557"><ele>161.66666666666666</ele><time>2026-03-28T16:30:00.328Z</time></trkpt><trkpt lat="42.9261416" lon="12.3958932"><ele>161.33333333333331</ele><time>2026-03-28T16:30:01.327Z</time></trkpt><trkpt lat="42.9263005" lon="12.3958445"><ele>161.0</ele><time>2026-03-28T16:30:02.327Z</time></trkpt><trkpt lat="42.9264499" lon="12.3957756"><ele>161.0</ele><time>2026-03-28T16:30:03.327Z</time></trkpt><trkpt lat="42.9265926" lon="12.3957141"><ele>161.0</ele><time>2026-03-28T16:30:04.328Z</time></trkpt><trkpt lat="42.9267306" lon="12.3956611"><ele>161.0</ele><time>2026-03-28T16:30:05.328Z</time></trkpt><trkpt lat="42.9268686" lon="12.3956132"><ele>161.0</ele><time>2026-03-28T16:30:06.328Z</time></trkpt><trkpt lat="42.9270007" lon="12.3955907"><ele>161.25</ele><time>2026-03-28T16:30:07.328Z</time></trkpt><trkpt lat="42.9271292" lon="12.3956073"><ele>161.5</ele><time>2026-03-28T16:30:08.327Z</time></trkpt><trkpt lat="42.9272504" lon="12.3956456"><ele>161.75</ele><time>2026-03-28T16:30:09.328Z</time></trkpt><trkpt lat="42.9273631" lon="12.3957238"><ele>162.0</ele><time>2026-03-28T16:30:10.328Z</time></trkpt><trkpt lat="42.9274771" lon="12.3958254"><ele>162.75</ele><time>2026-03-28T16:30:11.328Z</time></trkpt><trkpt lat="42.9275785" lon="12.3959272"><ele>163.5</ele><time>2026-03-28T16:30:12.327Z</time></trkpt><trkpt lat="42.9276766" lon="12.396031"><ele>164.25</ele><time>2026-03-28T16:30:13.328Z</time></trkpt><trkpt lat="42.9277707" lon="12.3961478"><ele>165.0</ele><time>2026-03-28T16:30:14.327Z</time></trkpt><trkpt lat="42.9278371" lon="12.3962905"><ele>164.75</ele><time>2026-03-28T16:30:15.328Z</time></trkpt><trkpt lat="42.927894" lon="12.3964449"><ele>164.5</ele><time>2026-03-28T16:30:16.328Z</time></trkpt><trkpt lat="42.9279444" lon="12.3966178"><ele>164.25</ele><time>2026-03-28T16:30:17.328Z</time></trkpt><trkpt lat="42.9279814" lon="12.3967853"><ele>164.0</ele><time>2026-03-28T16:30:18.328Z</time></trkpt><trkpt lat="42.9280077" lon="12.3969681"><ele>164.0</ele><time>2026-03-28T16:30:19.328Z</time></trkpt><trkpt lat="42.9280287" lon="12.3971528"><ele>164.0</ele><time>2026-03-28T16:30:20.328Z</time></trkpt><trkpt lat="42.9280568" lon="12.3973398"><ele>164.0</ele><time>2026-03-28T16:30:21.327Z</time></trkpt><trkpt lat="42.9280845" lon="12.3975276"><ele>164.0</ele><time>2026-03-28T16:30:22.328Z</time></trkpt><trkpt lat="42.9281094" lon="12.397716"><ele>163.5</ele><time>2026-03-28T16:30:23.327Z</time></trkpt><trkpt lat="42.9281331" lon="12.3979084"><ele>163.0</ele><time>2026-03-28T16:30:24.328Z</time></trkpt><trkpt lat="42.9281589" lon="12.3980908"><ele>162.5</ele><time>2026-03-28T16:30:25.328Z</time></trkpt><trkpt lat="42.9281898" lon="12.3982815"><ele>162.0</ele><time>2026-03-28T16:30:26.328Z</time></trkpt><trkpt lat="42.9282184" lon="12.3984664"><ele>161.75</ele><time>2026-03-28T16:30:27.328Z</time></trkpt><trkpt lat="42.9282508" lon="12.3986503"><ele>161.5</ele><time>2026-03-28T16:30:28.328Z</time></trkpt><trkpt lat="42.9282836" lon="12.3988389"><ele>161.25</ele><time>2026-03-28T16:30:29.327Z</time></trkpt><trkpt lat="42.9283195" lon="12.3990269"><ele>161.0</ele><time>2026-03-28T16:30:30.328Z</time></trkpt><trkpt lat="42.9283557" lon="12.3992139"><ele>161.5</ele><time>2026-03-28T16:30:31.328Z</time></trkpt><trkpt lat="42.9283971" lon="12.399395"><ele>162.0</ele><time>2026-03-28T16:30:32.328Z</time></trkpt><trkpt lat="42.9284398" lon="12.3995746"><ele>162.5</ele><time>2026-03-28T16:30:33.328Z</time></trkpt><trkpt lat="42.9284906" lon="12.3997554"><ele>163.0</ele><time>2026-03-28T16:30:34.328Z</time></trkpt><trkpt lat="42.9285391" lon="12.3999352"><ele>163.0</ele><time>2026-03-28T16:30:35.328Z</time></trkpt><trkpt lat="42.928578" lon="12.4001171"><ele>163.0</ele><time>2026-03-28T16:30:36.328Z</time></trkpt><trkpt lat="42.9286275" lon="12.400299"><ele>163.0</ele><time>2026-03-28T16:30:37.327Z</time></trkpt><trkpt lat="42.9286703" lon="12.400483"><ele>163.0</ele><time>2026-03-28T16:30:38.327Z</time></trkpt><trkpt lat="42.9287158" lon="12.4006641"><ele>163.0</ele><time>2026-03-28T16:30:39.328Z</time></trkpt><trkpt lat="42.9287604" lon="12.4008318"><ele>163.0</ele><time>2026-03-28T16:30:40.328Z</time></trkpt><trkpt lat="42.9288034" lon="12.4009882"><ele>163.0</ele><time>2026-03-28T16:30:41.327Z</time></trkpt><trkpt lat="42.9288653" lon="12.4011231"><ele>163.0</ele><time>2026-03-28T16:30:42.327Z</time></trkpt><trkpt lat="42.9289382" lon="12.4012345"><ele>163.0</ele><time>2026-03-28T16:30:43.328Z</time></trkpt><trkpt lat="42.9290182" lon="12.4013254"><ele>163.0</ele><time>2026-03-28T16:30:44.327Z</time></trkpt><trkpt lat="42.9291013" lon="12.4013946"><ele>163.0</ele><time>2026-03-28T16:30:45.328Z</time></trkpt><trkpt lat="42.929197" lon="12.4014339"><ele>163.0</ele><time>2026-03-28T16:30:46.328Z</time></trkpt><trkpt lat="42.9292979" lon="12.4014392"><ele>163.0</ele><time>2026-03-28T16:30:47.328Z</time></trkpt><trkpt lat="42.9293986" lon="12.4014349"><ele>163.0</ele><time>2026-03-28T16:30:48.328Z</time></trkpt><trkpt lat="42.9295006" lon="12.4014269"><ele>163.0</ele><time>2026-03-28T16:30:49.328Z</time></trkpt><trkpt lat="42.9296057" lon="12.4014121"><ele>163.0</ele><time>2026-03-28T16:30:50.328Z</time></trkpt><trkpt lat="42.9297109" lon="12.4013985"><ele>163.0</ele><time>2026-03-28T16:30:51.328Z</time></trkpt><trkpt lat="42.9298179" lon="12.4013899"><ele>163.0</ele><time>2026-03-28T16:30:52.328Z</time></trkpt><trkpt lat="42.9299243" lon="12.4013766"><ele>163.0</ele><time>2026-03-28T16:30:53.328Z</time></trkpt><trkpt lat="42.9300304" lon="12.4013645"><ele>163.0</ele><time>2026-03-28T16:30:54.327Z</time></trkpt><trkpt lat="42.9301397" lon="12.4013508"><ele>163.0</ele><time>2026-03-28T16:30:55.328Z</time></trkpt><trkpt lat="42.9302538" lon="12.4013444"><ele>163.0</ele><time>2026-03-28T16:30:56.328Z</time></trkpt><trkpt lat="42.9303719" lon="12.4013342"><ele>163.0</ele><time>2026-03-28T16:30:57.328Z</time></trkpt><trkpt lat="42.9304914" lon="12.4013225"><ele>163.5</ele><time>2026-03-28T16:30:58.327Z</time></trkpt><trkpt lat="42.9305883" lon="12.4012996"><ele>164.0</ele><time>2026-03-28T16:30:59.327Z</time></trkpt><trkpt lat="42.930694" lon="12.401279"><ele>164.5</ele><time>2026-03-28T16:31:00.328Z</time></trkpt><trkpt lat="42.930787" lon="12.4012573"><ele>165.0</ele><time>2026-03-28T16:31:01.328Z</time></trkpt><trkpt lat="42.9308623" lon="12.4012413"><ele>165.5</ele><time>2026-03-28T16:31:02.328Z</time></trkpt><trkpt lat="42.9309314" lon="12.4012285"><ele>166.0</ele><time>2026-03-28T16:31:03.328Z</time></trkpt><trkpt lat="42.9309967" lon="12.4012231"><ele>166.4</ele><time>2026-03-28T16:31:04.328Z</time></trkpt><trkpt lat="42.9310597" lon="12.4012136"><ele>166.8</ele><time>2026-03-28T16:31:05.328Z</time></trkpt><trkpt lat="42.9311703" lon="12.4012195"><ele>167.20000000000002</ele><time>2026-03-28T16:31:07.328Z</time></trkpt><trkpt lat="42.9312681" lon="12.401323"><ele>167.60000000000002</ele><time>2026-03-28T16:31:09.328Z</time></trkpt><trkpt lat="42.9313146" lon="12.4014109"><ele>168.0</ele><time>2026-03-28T16:31:10.328Z</time></trkpt><trkpt lat="42.931365" lon="12.4015137"><ele>168.0</ele><time>2026-03-28T16:31:11.327Z</time></trkpt><trkpt lat="42.9314148" lon="12.4016418"><ele>168.0</ele><time>2026-03-28T16:31:12.327Z</time></trkpt><trkpt lat="42.9314593" lon="12.4017847"><ele>168.0</ele><time>2026-03-28T16:31:13.328Z</time></trkpt><trkpt lat="42.9315031" lon="12.401943"><ele>168.0</ele><time>2026-03-28T16:31:14.327Z</time></trkpt><trkpt lat="42.931539" lon="12.40212"><ele>168.0</ele><time>2026-03-28T16:31:15.328Z</time></trkpt><trkpt lat="42.9315781" lon="12.4022934"><ele>168.0</ele><time>2026-03-28T16:31:16.327Z</time></trkpt><trkpt lat="42.9316206" lon="12.4024734"><ele>168.0</ele><time>2026-03-28T16:31:17.328Z</time></trkpt><trkpt lat="42.9316651" lon="12.4026646"><ele>168.0</ele><time>2026-03-28T16:31:18.328Z</time></trkpt><trkpt lat="42.9317114" lon="12.4028561"><ele>169.0</ele><time>2026-03-28T16:31:19.328Z</time></trkpt><trkpt lat="42.9317586" lon="12.4030434"><ele>170.0</ele><time>2026-03-28T16:31:20.327Z</time></trkpt><trkpt lat="42.9318053" lon="12.4032324"><ele>171.0</ele><time>2026-03-28T16:31:21.328Z</time></trkpt><trkpt lat="42.9318551" lon="12.4034294"><ele>172.0</ele><time>2026-03-28T16:31:22.327Z</time></trkpt><trkpt lat="42.9319042" lon="12.4036303"><ele>171.0</ele><time>2026-03-28T16:31:23.328Z</time></trkpt><trkpt lat="42.9319609" lon="12.4038304"><ele>170.0</ele><time>2026-03-28T16:31:24.328Z</time></trkpt><trkpt lat="42.9320122" lon="12.4040363"><ele>169.0</ele><time>2026-03-28T16:31:25.327Z</time></trkpt><trkpt lat="42.9320694" lon="12.4042521"><ele>169.0</ele><time>2026-03-28T16:31:26.328Z</time></trkpt><trkpt lat="42.9321269" lon="12.4044746"><ele>169.0</ele><time>2026-03-28T16:31:27.328Z</time></trkpt><trkpt lat="42.9321879" lon="12.4047038"><ele>169.0</ele><time>2026-03-28T16:31:28.328Z</time></trkpt><trkpt lat="42.9322558" lon="12.4049526"><ele>168.0</ele><time>2026-03-28T16:31:29.328Z</time></trkpt><trkpt lat="42.9323242" lon="12.4052104"><ele>167.0</ele><time>2026-03-28T16:31:30.328Z</time></trkpt><trkpt lat="42.9323874" lon="12.4054642"><ele>166.0</ele><time>2026-03-28T16:31:31.327Z</time></trkpt><trkpt lat="42.9324436" lon="12.4057188"><ele>165.66666666666669</ele><time>2026-03-28T16:31:32.328Z</time></trkpt><trkpt lat="42.9324978" lon="12.4059743"><ele>165.33333333333334</ele><time>2026-03-28T16:31:33.328Z</time></trkpt><trkpt lat="42.9325567" lon="12.4062343"><ele>165.0</ele><time>2026-03-28T16:31:34.327Z</time></trkpt><trkpt lat="42.9326222" lon="12.4064936"><ele>166.33333333333334</ele><time>2026-03-28T16:31:35.327Z</time></trkpt><trkpt lat="42.9326835" lon="12.4067551"><ele>167.66666666666669</ele><time>2026-03-28T16:31:36.328Z</time></trkpt><trkpt lat="42.9327404" lon="12.4070178"><ele>169.0</ele><time>2026-03-28T16:31:37.328Z</time></trkpt><trkpt lat="42.9328075" lon="12.4072774"><ele>169.33333333333334</ele><time>2026-03-28T16:31:38.328Z</time></trkpt><trkpt lat="42.9328802" lon="12.4075401"><ele>169.66666666666666</ele><time>2026-03-28T16:31:39.327Z</time></trkpt><trkpt lat="42.9329404" lon="12.4078027"><ele>170.0</ele><time>2026-03-28T16:31:40.327Z</time></trkpt><trkpt lat="42.9330079" lon="12.4080655"><ele>169.33333333333331</ele><time>2026-03-28T16:31:41.328Z</time></trkpt><trkpt lat="42.9330761" lon="12.4083228"><ele>168.66666666666666</ele><time>2026-03-28T16:31:42.328Z</time></trkpt><trkpt lat="42.933141" lon="12.4085862"><ele>168.0</ele><time>2026-03-28T16:31:43.328Z</time></trkpt><trkpt lat="42.933211" lon="12.4088443"><ele>167.66666666666666</ele><time>2026-03-28T16:31:44.328Z</time></trkpt><trkpt lat="42.9332788" lon="12.4091123"><ele>167.33333333333331</ele><time>2026-03-28T16:31:45.328Z</time></trkpt><trkpt lat="42.9333409" lon="12.4093782"><ele>167.0</ele><time>2026-03-28T16:31:46.327Z</time></trkpt><trkpt lat="42.9334075" lon="12.4096415"><ele>168.66666666666666</ele><time>2026-03-28T16:31:47.328Z</time></trkpt><trkpt lat="42.933473" lon="12.4099031"><ele>170.33333333333334</ele><time>2026-03-28T16:31:48.328Z</time></trkpt><trkpt lat="42.9335389" lon="12.4101605"><ele>172.0</ele><time>2026-03-28T16:31:49.328Z</time></trkpt><trkpt lat="42.9336046" lon="12.4104143"><ele>172.0</ele><time>2026-03-28T16:31:50.328Z</time></trkpt><trkpt lat="42.9336642" lon="12.4106663"><ele>172.0</ele><time>2026-03-28T16:31:51.328Z</time></trkpt><trkpt lat="42.9337247" lon="12.4109211"><ele>172.0</ele><time>2026-03-28T16:31:52.327Z</time></trkpt><trkpt lat="42.9337862" lon="12.4111724"><ele>172.33333333333334</ele><time>2026-03-28T16:31:53.328Z</time></trkpt><trkpt lat="42.9338496" lon="12.4114211"><ele>172.66666666666666</ele><time>2026-03-28T16:31:54.328Z</time></trkpt><trkpt lat="42.9339156" lon="12.4116752"><ele>173.0</ele><time>2026-03-28T16:31:55.328Z</time></trkpt><trkpt lat="42.9339784" lon="12.4119185"><ele>172.66666666666666</ele><time>2026-03-28T16:31:56.327Z</time></trkpt><trkpt lat="42.9340434" lon="12.4121615"><ele>172.33333333333334</ele><time>2026-03-28T16:31:57.328Z</time></trkpt><trkpt lat="42.9341061" lon="12.4124033"><ele>172.0</ele><time>2026-03-28T16:31:58.328Z</time></trkpt><trkpt lat="42.9341699" lon="12.4126516"><ele>172.66666666666669</ele><time>2026-03-28T16:31:59.328Z</time></trkpt><trkpt lat="42.9342297" lon="12.4129007"><ele>173.33333333333334</ele><time>2026-03-28T16:32:00.328Z</time></trkpt><trkpt lat="42.9342887" lon="12.4131499"><ele>174.0</ele><time>2026-03-28T16:32:01.328Z</time></trkpt><trkpt lat="42.9343529" lon="12.4133996"><ele>174.0</ele><time>2026-03-28T16:32:02.328Z</time></trkpt><trkpt lat="42.9344157" lon="12.413647"><ele>174.0</ele><time>2026-03-28T16:32:03.328Z</time></trkpt><trkpt lat="42.9344746" lon="12.4138993"><ele>174.0</ele><time>2026-03-28T16:32:04.328Z</time></trkpt><trkpt lat="42.9345405" lon="12.414151"><ele>173.33333333333334</ele><time>2026-03-28T16:32:05.328Z</time></trkpt><trkpt lat="42.9346019" lon="12.4144056"><ele>172.66666666666669</ele><time>2026-03-28T16:32:06.328Z</time></trkpt><trkpt lat="42.9346705" lon="12.4146611"><ele>172.0</ele><time>2026-03-28T16:32:07.328Z</time></trkpt><trkpt lat="42.9347339" lon="12.4149193"><ele>172.0</ele><time>2026-03-28T16:32:08.328Z</time></trkpt><trkpt lat="42.9347993" lon="12.4151737"><ele>172.0</ele><time>2026-03-28T16:32:09.328Z</time></trkpt><trkpt lat="42.9348668" lon="12.4154342"><ele>172.0</ele><time>2026-03-28T16:32:10.328Z</time></trkpt><trkpt lat="42.9349346" lon="12.4156914"><ele>172.33333333333334</ele><time>2026-03-28T16:32:11.328Z</time></trkpt><trkpt lat="42.9350011" lon="12.4159536"><ele>172.66666666666666</ele><time>2026-03-28T16:32:12.328Z</time></trkpt><trkpt lat="42.9350658" lon="12.4162174"><ele>173.0</ele><time>2026-03-28T16:32:13.327Z</time></trkpt><trkpt lat="42.9351305" lon="12.4164868"><ele>175.33333333333331</ele><time>2026-03-28T16:32:14.328Z</time></trkpt><trkpt lat="42.9351831" lon="12.416762"><ele>177.66666666666666</ele><time>2026-03-28T16:32:15.327Z</time></trkpt><trkpt lat="42.9352217" lon="12.4170431"><ele>180.0</ele><time>2026-03-28T16:32:16.327Z</time></trkpt><trkpt lat="42.9352556" lon="12.4173298"><ele>180.0</ele><time>2026-03-28T16:32:17.328Z</time></trkpt><trkpt lat="42.9352838" lon="12.4176215"><ele>180.0</ele><time>2026-03-28T16:32:18.328Z</time></trkpt><trkpt lat="42.9353107" lon="12.4179102"><ele>180.0</ele><time>2026-03-28T16:32:19.328Z</time></trkpt><trkpt lat="42.9353372" lon="12.4182005"><ele>180.0</ele><time>2026-03-28T16:32:20.328Z</time></trkpt><trkpt lat="42.9353608" lon="12.4184872"><ele>180.0</ele><time>2026-03-28T16:32:21.328Z</time></trkpt><trkpt lat="42.9353705" lon="12.4187737"><ele>180.0</ele><time>2026-03-28T16:32:22.328Z</time></trkpt><trkpt lat="42.935371" lon="12.4190563"><ele>179.66666666666666</ele><time>2026-03-28T16:32:23.328Z</time></trkpt><trkpt lat="42.9353576" lon="12.4193402"><ele>179.33333333333331</ele><time>2026-03-28T16:32:24.328Z</time></trkpt><trkpt lat="42.9353306" lon="12.4196246"><ele>179.0</ele><time>2026-03-28T16:32:25.327Z</time></trkpt><trkpt lat="42.9352978" lon="12.4199087"><ele>178.66666666666666</ele><time>2026-03-28T16:32:26.328Z</time></trkpt><trkpt lat="42.9352673" lon="12.4201873"><ele>178.33333333333334</ele><time>2026-03-28T16:32:27.328Z</time></trkpt><trkpt lat="42.9352386" lon="12.4204633"><ele>178.0</ele><time>2026-03-28T16:32:28.328Z</time></trkpt><trkpt lat="42.9352062" lon="12.4207426"><ele>178.0</ele><time>2026-03-28T16:32:29.327Z</time></trkpt><trkpt lat="42.935171" lon="12.4210232"><ele>178.0</ele><time>2026-03-28T16:32:30.328Z</time></trkpt><trkpt lat="42.935141" lon="12.421303"><ele>178.0</ele><time>2026-03-28T16:32:31.328Z</time></trkpt><trkpt lat="42.9351036" lon="12.4215866"><ele>178.33333333333334</ele><time>2026-03-28T16:32:32.328Z</time></trkpt><trkpt lat="42.9350631" lon="12.4218728"><ele>178.66666666666666</ele><time>2026-03-28T16:32:33.328Z</time></trkpt><trkpt lat="42.9350248" lon="12.4221619"><ele>179.0</ele><time>2026-03-28T16:32:34.328Z</time></trkpt><trkpt lat="42.9349817" lon="12.4224521"><ele>178.0</ele><time>2026-03-28T16:32:35.328Z</time></trkpt><trkpt lat="42.9349398" lon="12.4227396"><ele>177.0</ele><time>2026-03-28T16:32:36.328Z</time></trkpt><trkpt lat="42.9348885" lon="12.4230335"><ele>176.0</ele><time>2026-03-28T16:32:37.328Z</time></trkpt><trkpt lat="42.9348337" lon="12.4233248"><ele>176.0</ele><time>2026-03-28T16:32:38.327Z</time></trkpt><trkpt lat="42.9347812" lon="12.4236153"><ele>176.0</ele><time>2026-03-28T16:32:39.328Z</time></trkpt><trkpt lat="42.9347296" lon="12.4239117"><ele>176.0</ele><time>2026-03-28T16:32:40.328Z</time></trkpt><trkpt lat="42.9346772" lon="12.4242043"><ele>176.0</ele><time>2026-03-28T16:32:41.328Z</time></trkpt><trkpt lat="42.9346255" lon="12.4244972"><ele>176.0</ele><time>2026-03-28T16:32:42.328Z</time></trkpt><trkpt lat="42.9345756" lon="12.4247907"><ele>176.0</ele><time>2026-03-28T16:32:43.328Z</time></trkpt><trkpt lat="42.9345294" lon="12.4250778"><ele>176.0</ele><time>2026-03-28T16:32:44.328Z</time></trkpt><trkpt lat="42.9344747" lon="12.4253567"><ele>176.0</ele><time>2026-03-28T16:32:45.328Z</time></trkpt><trkpt lat="42.9344247" lon="12.4256444"><ele>176.0</ele><time>2026-03-28T16:32:46.328Z</time></trkpt><trkpt lat="42.9343727" lon="12.4259283"><ele>176.0</ele><time>2026-03-28T16:32:47.328Z</time></trkpt><trkpt lat="42.9343199" lon="12.4262105"><ele>176.0</ele><time>2026-03-28T16:32:48.328Z</time></trkpt><trkpt lat="42.9342711" lon="12.4264882"><ele>176.0</ele><time>2026-03-28T16:32:49.327Z</time></trkpt><trkpt lat="42.9342281" lon="12.4267601"><ele>176.33333333333331</ele><time>2026-03-28T16:32:50.328Z</time></trkpt><trkpt lat="42.9341788" lon="12.4270227"><ele>176.66666666666666</ele><time>2026-03-28T16:32:51.328Z</time></trkpt><trkpt lat="42.9341435" lon="12.4272697"><ele>177.0</ele><time>2026-03-28T16:32:52.328Z</time></trkpt><trkpt lat="42.9340974" lon="12.4275043"><ele>178.66666666666666</ele><time>2026-03-28T16:32:53.328Z</time></trkpt><trkpt lat="42.9340538" lon="12.42773"><ele>180.33333333333331</ele><time>2026-03-28T16:32:54.328Z</time></trkpt><trkpt lat="42.9340115" lon="12.4279575"><ele>182.0</ele><time>2026-03-28T16:32:55.328Z</time></trkpt><trkpt lat="42.9339692" lon="12.4281723"><ele>182.33333333333331</ele><time>2026-03-28T16:32:56.327Z</time></trkpt><trkpt lat="42.9339358" lon="12.4283784"><ele>182.66666666666666</ele><time>2026-03-28T16:32:57.327Z</time></trkpt><trkpt lat="42.9338985" lon="12.4285785"><ele>183.0</ele><time>2026-03-28T16:32:58.328Z</time></trkpt><trkpt lat="42.933856" lon="12.4287717"><ele>183.33333333333334</ele><time>2026-03-28T16:32:59.328Z</time></trkpt><trkpt lat="42.9338105" lon="12.4289578"><ele>183.66666666666669</ele><time>2026-03-28T16:33:00.327Z</time></trkpt><trkpt lat="42.9337574" lon="12.4291545"><ele>184.0</ele><time>2026-03-28T16:33:01.327Z</time></trkpt><trkpt lat="42.9336906" lon="12.4293669"><ele>184.0</ele><time>2026-03-28T16:33:02.328Z</time></trkpt><trkpt lat="42.9336184" lon="12.4295844"><ele>184.0</ele><time>2026-03-28T16:33:03.328Z</time></trkpt><trkpt lat="42.933545" lon="12.4298243"><ele>184.0</ele><time>2026-03-28T16:33:04.328Z</time></trkpt><trkpt lat="42.9334744" lon="12.430069"><ele>184.33333333333334</ele><time>2026-03-28T16:33:05.328Z</time></trkpt><trkpt lat="42.9334006" lon="12.4303207"><ele>184.66666666666666</ele><time>2026-03-28T16:33:06.328Z</time></trkpt><trkpt lat="42.9333288" lon="12.4305645"><ele>185.0</ele><time>2026-03-28T16:33:07.328Z</time></trkpt><trkpt lat="42.933254" lon="12.4308012"><ele>185.0</ele><time>2026-03-28T16:33:08.328Z</time></trkpt><trkpt lat="42.9331899" lon="12.4310191"><ele>185.0</ele><time>2026-03-28T16:33:09.327Z</time></trkpt><trkpt lat="42.9331215" lon="12.4312359"><ele>185.0</ele><time>2026-03-28T16:33:10.328Z</time></trkpt><trkpt lat="42.9330563" lon="12.4314438"><ele>185.0</ele><time>2026-03-28T16:33:11.327Z</time></trkpt><trkpt lat="42.9329862" lon="12.4316549"><ele>185.0</ele><time>2026-03-28T16:33:12.328Z</time></trkpt><trkpt lat="42.9329122" lon="12.4318614"><ele>185.0</ele><time>2026-03-28T16:33:13.328Z</time></trkpt><trkpt lat="42.9328387" lon="12.432066"><ele>185.33333333333331</ele><time>2026-03-28T16:33:14.328Z</time></trkpt><trkpt lat="42.9327636" lon="12.4322586"><ele>185.66666666666666</ele><time>2026-03-28T16:33:15.328Z</time></trkpt><trkpt lat="42.9326769" lon="12.4324516"><ele>186.0</ele><time>2026-03-28T16:33:16.327Z</time></trkpt><trkpt lat="42.9326034" lon="12.4326376"><ele>186.66666666666666</ele><time>2026-03-28T16:33:17.327Z</time></trkpt><trkpt lat="42.9325193" lon="12.4328147"><ele>187.33333333333331</ele><time>2026-03-28T16:33:18.328Z</time></trkpt><trkpt lat="42.9324373" lon="12.4329943"><ele>188.0</ele><time>2026-03-28T16:33:19.328Z</time></trkpt><trkpt lat="42.9323618" lon="12.4331753"><ele>188.0</ele><time>2026-03-28T16:33:20.328Z</time></trkpt><trkpt lat="42.9322761" lon="12.4333546"><ele>188.0</ele><time>2026-03-28T16:33:21.328Z</time></trkpt><trkpt lat="42.9321944" lon="12.4335376"><ele>188.0</ele><time>2026-03-28T16:33:22.328Z</time></trkpt><trkpt lat="42.9321119" lon="12.4337179"><ele>190.0</ele><time>2026-03-28T16:33:23.328Z</time></trkpt><trkpt lat="42.932038" lon="12.4338949"><ele>192.0</ele><time>2026-03-28T16:33:24.328Z</time></trkpt><trkpt lat="42.931971" lon="12.4340662"><ele>194.0</ele><time>2026-03-28T16:33:25.327Z</time></trkpt><trkpt lat="42.9319036" lon="12.434252"><ele>196.0</ele><time>2026-03-28T16:33:26.328Z</time></trkpt><trkpt lat="42.9318476" lon="12.4344432"><ele>196.0</ele><time>2026-03-28T16:33:27.328Z</time></trkpt><trkpt lat="42.9317922" lon="12.4346321"><ele>196.0</ele><time>2026-03-28T16:33:28.328Z</time></trkpt><trkpt lat="42.9317353" lon="12.4348208"><ele>196.0</ele><time>2026-03-28T16:33:29.327Z</time></trkpt><trkpt lat="42.9316776" lon="12.4350094"><ele>196.0</ele><time>2026-03-28T16:33:30.328Z</time></trkpt><trkpt lat="42.9316203" lon="12.4351976"><ele>196.33333333333331</ele><time>2026-03-28T16:33:31.328Z</time></trkpt><trkpt lat="42.9315611" lon="12.4353883"><ele>196.66666666666669</ele><time>2026-03-28T16:33:32.328Z</time></trkpt><trkpt lat="42.9314987" lon="12.4355846"><ele>197.0</ele><time>2026-03-28T16:33:33.328Z</time></trkpt><trkpt lat="42.9314389" lon="12.4357803"><ele>197.0</ele><time>2026-03-28T16:33:34.328Z</time></trkpt><trkpt lat="42.9313751" lon="12.4359684"><ele>197.0</ele><time>2026-03-28T16:33:35.328Z</time></trkpt><trkpt lat="42.9313112" lon="12.4361619"><ele>197.0</ele><time>2026-03-28T16:33:36.328Z</time></trkpt><trkpt lat="42.9312427" lon="12.4363595"><ele>199.33333333333334</ele><time>2026-03-28T16:33:37.328Z</time></trkpt><trkpt lat="42.9311657" lon="12.4365546"><ele>201.66666666666669</ele><time>2026-03-28T16:33:38.328Z</time></trkpt><trkpt lat="42.9310857" lon="12.436755"><ele>204.0</ele><time>2026-03-28T16:33:39.327Z</time></trkpt><trkpt lat="42.9310041" lon="12.4369501"><ele>206.33333333333331</ele><time>2026-03-28T16:33:40.328Z</time></trkpt><trkpt lat="42.9309165" lon="12.4371476"><ele>208.66666666666666</ele><time>2026-03-28T16:33:41.327Z</time></trkpt><trkpt lat="42.9308246" lon="12.4373534"><ele>211.0</ele><time>2026-03-28T16:33:42.328Z</time></trkpt><trkpt lat="42.9307208" lon="12.4375652"><ele>207.0</ele><time>2026-03-28T16:33:43.327Z</time></trkpt><trkpt lat="42.9306045" lon="12.4377848"><ele>203.0</ele><time>2026-03-28T16:33:44.328Z</time></trkpt><trkpt lat="42.9304762" lon="12.4380183"><ele>199.0</ele><time>2026-03-28T16:33:45.328Z</time></trkpt><trkpt lat="42.9303428" lon="12.4382555"><ele>199.0</ele><time>2026-03-28T16:33:46.328Z</time></trkpt><trkpt lat="42.9302087" lon="12.4384909"><ele>199.0</ele><time>2026-03-28T16:33:47.328Z</time></trkpt><trkpt lat="42.9300667" lon="12.4387253"><ele>199.0</ele><time>2026-03-28T16:33:48.328Z</time></trkpt><trkpt lat="42.9299305" lon="12.4389534"><ele>195.33333333333331</ele><time>2026-03-28T16:33:49.327Z</time></trkpt><trkpt lat="42.9297938" lon="12.4391894"><ele>191.66666666666666</ele><time>2026-03-28T16:33:50.327Z</time></trkpt><trkpt lat="42.9296627" lon="12.4394133"><ele>188.0</ele><time>2026-03-28T16:33:51.328Z</time></trkpt><trkpt lat="42.9295447" lon="12.4396287"><ele>188.0</ele><time>2026-03-28T16:33:52.328Z</time></trkpt><trkpt lat="42.9294265" lon="12.4398417"><ele>188.0</ele><time>2026-03-28T16:33:53.328Z</time></trkpt><trkpt lat="42.929312" lon="12.440055"><ele>188.0</ele><time>2026-03-28T16:33:54.328Z</time></trkpt><trkpt lat="42.9292042" lon="12.4402775"><ele>188.66666666666666</ele><time>2026-03-28T16:33:55.327Z</time></trkpt><trkpt lat="42.9290978" lon="12.4405202"><ele>189.33333333333334</ele><time>2026-03-28T16:33:56.328Z</time></trkpt><trkpt lat="42.9290002" lon="12.4407698"><ele>190.0</ele><time>2026-03-28T16:33:57.328Z</time></trkpt><trkpt lat="42.9289081" lon="12.4410324"><ele>190.0</ele><time>2026-03-28T16:33:58.327Z</time></trkpt><trkpt lat="42.9288164" lon="12.441291"><ele>190.0</ele><time>2026-03-28T16:33:59.327Z</time></trkpt><trkpt lat="42.9287247" lon="12.4415462"><ele>190.0</ele><time>2026-03-28T16:34:00.328Z</time></trkpt><trkpt lat="42.9286377" lon="12.4418059"><ele>190.33333333333334</ele><time>2026-03-28T16:34:01.327Z</time></trkpt><trkpt lat="42.9285528" lon="12.4420619"><ele>190.66666666666666</ele><time>2026-03-28T16:34:02.328Z</time></trkpt><trkpt lat="42.9284676" lon="12.4423145"><ele>191.0</ele><time>2026-03-28T16:34:03.328Z</time></trkpt><trkpt lat="42.9283833" lon="12.4425719"><ele>191.0</ele><time>2026-03-28T16:34:04.327Z</time></trkpt><trkpt lat="42.9282959" lon="12.4428242"><ele>191.0</ele><time>2026-03-28T16:34:05.328Z</time></trkpt><trkpt lat="42.9282138" lon="12.4430804"><ele>191.0</ele><time>2026-03-28T16:34:06.327Z</time></trkpt><trkpt lat="42.9281259" lon="12.4433373"><ele>191.0</ele><time>2026-03-28T16:34:07.327Z</time></trkpt><trkpt lat="42.9280428" lon="12.4435917"><ele>191.0</ele><time>2026-03-28T16:34:08.328Z</time></trkpt><trkpt lat="42.9279584" lon="12.443839"><ele>191.0</ele><time>2026-03-28T16:34:09.327Z</time></trkpt><trkpt lat="42.9278756" lon="12.4440879"><ele>191.0</ele><time>2026-03-28T16:34:10.327Z</time></trkpt><trkpt lat="42.9277871" lon="12.4443212"><ele>191.0</ele><time>2026-03-28T16:34:11.328Z</time></trkpt><trkpt lat="42.9276888" lon="12.4445423"><ele>191.0</ele><time>2026-03-28T16:34:12.327Z</time></trkpt><trkpt lat="42.927576" lon="12.4447483"><ele>191.0</ele><time>2026-03-28T16:34:13.327Z</time></trkpt><trkpt lat="42.9274466" lon="12.4449398"><ele>191.0</ele><time>2026-03-28T16:34:14.328Z</time></trkpt><trkpt lat="42.9272995" lon="12.4451212"><ele>191.0</ele><time>2026-03-28T16:34:15.328Z</time></trkpt><trkpt lat="42.9271457" lon="12.4453003"><ele>191.33333333333331</ele><time>2026-03-28T16:34:16.328Z</time></trkpt><trkpt lat="42.9269894" lon="12.4454836"><ele>191.66666666666666</ele><time>2026-03-28T16:34:17.328Z</time></trkpt><trkpt lat="42.9268239" lon="12.4456635"><ele>192.0</ele><time>2026-03-28T16:34:18.328Z</time></trkpt><trkpt lat="42.9266626" lon="12.4458607"><ele>192.0</ele><time>2026-03-28T16:34:19.328Z</time></trkpt><trkpt lat="42.9264964" lon="12.4460552"><ele>192.0</ele><time>2026-03-28T16:34:20.328Z</time></trkpt><trkpt lat="42.9263268" lon="12.4462501"><ele>192.0</ele><time>2026-03-28T16:34:21.328Z</time></trkpt><trkpt lat="42.9261602" lon="12.4464465"><ele>192.33333333333331</ele><time>2026-03-28T16:34:22.328Z</time></trkpt><trkpt lat="42.9260001" lon="12.4466382"><ele>192.66666666666666</ele><time>2026-03-28T16:34:23.328Z</time></trkpt><trkpt lat="42.925846" lon="12.4468179"><ele>193.0</ele><time>2026-03-28T16:34:24.328Z</time></trkpt><trkpt lat="42.9256968" lon="12.4469889"><ele>191.66666666666666</ele><time>2026-03-28T16:34:25.328Z</time></trkpt><trkpt lat="42.9255506" lon="12.4471539"><ele>190.33333333333331</ele><time>2026-03-28T16:34:26.328Z</time></trkpt><trkpt lat="42.9254139" lon="12.4473201"><ele>189.0</ele><time>2026-03-28T16:34:27.328Z</time></trkpt><trkpt lat="42.9252907" lon="12.4475034"><ele>189.0</ele><time>2026-03-28T16:34:28.327Z</time></trkpt><trkpt lat="42.925193" lon="12.4477139"><ele>189.0</ele><time>2026-03-28T16:34:29.327Z</time></trkpt><trkpt lat="42.9251206" lon="12.447953"><ele>189.0</ele><time>2026-03-28T16:34:30.328Z</time></trkpt><trkpt lat="42.9250603" lon="12.4482011"><ele>189.66666666666666</ele><time>2026-03-28T16:34:31.327Z</time></trkpt><trkpt lat="42.9250086" lon="12.4484535"><ele>190.33333333333331</ele><time>2026-03-28T16:34:32.328Z</time></trkpt><trkpt lat="42.9249547" lon="12.4487142"><ele>191.0</ele><time>2026-03-28T16:34:33.328Z</time></trkpt><trkpt lat="42.9248995" lon="12.448973"><ele>191.0</ele><time>2026-03-28T16:34:34.328Z</time></trkpt><trkpt lat="42.9248474" lon="12.4492359"><ele>191.0</ele><time>2026-03-28T16:34:35.327Z</time></trkpt><trkpt lat="42.924797" lon="12.4495025"><ele>191.0</ele><time>2026-03-28T16:34:36.328Z</time></trkpt><trkpt lat="42.9247459" lon="12.4497716"><ele>192.33333333333331</ele><time>2026-03-28T16:34:37.327Z</time></trkpt><trkpt lat="42.9246927" lon="12.4500362"><ele>193.66666666666666</ele><time>2026-03-28T16:34:38.328Z</time></trkpt><trkpt lat="42.9246352" lon="12.4502922"><ele>195.0</ele><time>2026-03-28T16:34:39.328Z</time></trkpt><trkpt lat="42.924581" lon="12.4505492"><ele>195.33333333333331</ele><time>2026-03-28T16:34:40.328Z</time></trkpt><trkpt lat="42.9245296" lon="12.4508015"><ele>195.66666666666666</ele><time>2026-03-28T16:34:41.328Z</time></trkpt><trkpt lat="42.924483" lon="12.4510541"><ele>196.0</ele><time>2026-03-28T16:34:42.327Z</time></trkpt><trkpt lat="42.9244338" lon="12.4512911"><ele>196.66666666666666</ele><time>2026-03-28T16:34:43.328Z</time></trkpt><trkpt lat="42.9243835" lon="12.4515188"><ele>197.33333333333331</ele><time>2026-03-28T16:34:44.328Z</time></trkpt><trkpt lat="42.9243386" lon="12.4517353"><ele>198.0</ele><time>2026-03-28T16:34:45.328Z</time></trkpt><trkpt lat="42.9243033" lon="12.4519416"><ele>198.5</ele><time>2026-03-28T16:34:46.328Z</time></trkpt><trkpt lat="42.9242853" lon="12.4521374"><ele>199.0</ele><time>2026-03-28T16:34:47.328Z</time></trkpt><trkpt lat="42.9242835" lon="12.4523304"><ele>199.5</ele><time>2026-03-28T16:34:48.327Z</time></trkpt><trkpt lat="42.9242968" lon="12.452525"><ele>200.0</ele><time>2026-03-28T16:34:49.328Z</time></trkpt><trkpt lat="42.9243199" lon="12.4527146"><ele>200.0</ele><time>2026-03-28T16:34:50.328Z</time></trkpt><trkpt lat="42.9243629" lon="12.4529004"><ele>200.0</ele><time>2026-03-28T16:34:51.328Z</time></trkpt><trkpt lat="42.9244203" lon="12.4530834"><ele>200.0</ele><time>2026-03-28T16:34:52.327Z</time></trkpt><trkpt lat="42.9244927" lon="12.4532677"><ele>200.0</ele><time>2026-03-28T16:34:53.328Z</time></trkpt><trkpt lat="42.9245793" lon="12.4534582"><ele>199.66666666666669</ele><time>2026-03-28T16:34:54.328Z</time></trkpt><trkpt lat="42.9246685" lon="12.453649"><ele>199.33333333333331</ele><time>2026-03-28T16:34:55.327Z</time></trkpt><trkpt lat="42.9247668" lon="12.4538488"><ele>199.0</ele><time>2026-03-28T16:34:56.327Z</time></trkpt><trkpt lat="42.9248687" lon="12.4540558"><ele>199.0</ele><time>2026-03-28T16:34:57.327Z</time></trkpt><trkpt lat="42.924971" lon="12.4542678"><ele>199.0</ele><time>2026-03-28T16:34:58.328Z</time></trkpt><trkpt lat="42.9250685" lon="12.4544844"><ele>199.0</ele><time>2026-03-28T16:34:59.327Z</time></trkpt><trkpt lat="42.9251661" lon="12.4547209"><ele>197.66666666666666</ele><time>2026-03-28T16:35:00.327Z</time></trkpt><trkpt lat="42.9252515" lon="12.4549606"><ele>196.33333333333331</ele><time>2026-03-28T16:35:01.327Z</time></trkpt><trkpt lat="42.9253441" lon="12.4552222"><ele>195.0</ele><time>2026-03-28T16:35:02.328Z</time></trkpt><trkpt lat="42.9254271" lon="12.4554802"><ele>195.0</ele><time>2026-03-28T16:35:03.328Z</time></trkpt><trkpt lat="42.9255102" lon="12.4557358"><ele>195.0</ele><time>2026-03-28T16:35:04.328Z</time></trkpt><trkpt lat="42.9255957" lon="12.455989"><ele>195.0</ele><time>2026-03-28T16:35:05.328Z</time></trkpt><trkpt lat="42.9256898" lon="12.4562398"><ele>195.0</ele><time>2026-03-28T16:35:06.328Z</time></trkpt><trkpt lat="42.9257875" lon="12.456491"><ele>195.0</ele><time>2026-03-28T16:35:07.328Z</time></trkpt><trkpt lat="42.9258827" lon="12.4567354"><ele>195.0</ele><time>2026-03-28T16:35:08.327Z</time></trkpt><trkpt lat="42.9259883" lon="12.4569841"><ele>195.0</ele><time>2026-03-28T16:35:09.328Z</time></trkpt><trkpt lat="42.9260919" lon="12.4572369"><ele>195.0</ele><time>2026-03-28T16:35:10.327Z</time></trkpt><trkpt lat="42.9261995" lon="12.4574889"><ele>195.0</ele><time>2026-03-28T16:35:11.327Z</time></trkpt><trkpt lat="42.9263156" lon="12.4577367"><ele>196.66666666666669</ele><time>2026-03-28T16:35:12.328Z</time></trkpt><trkpt lat="42.9264265" lon="12.4579895"><ele>198.33333333333334</ele><time>2026-03-28T16:35:13.328Z</time></trkpt><trkpt lat="42.9265393" lon="12.4582384"><ele>200.0</ele><time>2026-03-28T16:35:14.327Z</time></trkpt><trkpt lat="42.9266555" lon="12.4584884"><ele>198.66666666666669</ele><time>2026-03-28T16:35:15.328Z</time></trkpt><trkpt lat="42.9267689" lon="12.4587237"><ele>197.33333333333331</ele><time>2026-03-28T16:35:16.328Z</time></trkpt><trkpt lat="42.9268807" lon="12.4589419"><ele>196.0</ele><time>2026-03-28T16:35:17.328Z</time></trkpt><trkpt lat="42.927" lon="12.4591436"><ele>196.0</ele><time>2026-03-28T16:35:18.328Z</time></trkpt><trkpt lat="42.9271327" lon="12.4593231"><ele>196.0</ele><time>2026-03-28T16:35:19.328Z</time></trkpt><trkpt lat="42.9272789" lon="12.4594841"><ele>196.0</ele><time>2026-03-28T16:35:20.328Z</time></trkpt><trkpt lat="42.9274276" lon="12.4596324"><ele>196.66666666666666</ele><time>2026-03-28T16:35:21.328Z</time></trkpt><trkpt lat="42.9275931" lon="12.4597534"><ele>197.33333333333331</ele><time>2026-03-28T16:35:22.327Z</time></trkpt><trkpt lat="42.9277746" lon="12.4598514"><ele>198.0</ele><time>2026-03-28T16:35:23.327Z</time></trkpt><trkpt lat="42.9279582" lon="12.4599368"><ele>198.0</ele><time>2026-03-28T16:35:24.328Z</time></trkpt><trkpt lat="42.9281417" lon="12.4600184"><ele>198.0</ele><time>2026-03-28T16:35:25.328Z</time></trkpt><trkpt lat="42.9283274" lon="12.4600933"><ele>198.0</ele><time>2026-03-28T16:35:26.328Z</time></trkpt><trkpt lat="42.9285022" lon="12.4601508"><ele>198.0</ele><time>2026-03-28T16:35:27.328Z</time></trkpt><trkpt lat="42.9286641" lon="12.4602198"><ele>198.0</ele><time>2026-03-28T16:35:28.328Z</time></trkpt><trkpt lat="42.9288153" lon="12.4602927"><ele>198.0</ele><time>2026-03-28T16:35:29.328Z</time></trkpt><trkpt lat="42.928946" lon="12.4603898"><ele>198.25</ele><time>2026-03-28T16:35:30.327Z</time></trkpt><trkpt lat="42.9290589" lon="12.4605142"><ele>198.5</ele><time>2026-03-28T16:35:31.328Z</time></trkpt><trkpt lat="42.9291327" lon="12.4606754"><ele>198.75</ele><time>2026-03-28T16:35:32.328Z</time></trkpt><trkpt lat="42.9291851" lon="12.4608587"><ele>199.0</ele><time>2026-03-28T16:35:33.328Z</time></trkpt><trkpt lat="42.9292182" lon="12.4610607"><ele>203.0</ele><time>2026-03-28T16:35:34.328Z</time></trkpt><trkpt lat="42.9292337" lon="12.4612858"><ele>207.0</ele><time>2026-03-28T16:35:35.327Z</time></trkpt><trkpt lat="42.9292464" lon="12.4615231"><ele>211.0</ele><time>2026-03-28T16:35:36.328Z</time></trkpt><trkpt lat="42.9292565" lon="12.4617789"><ele>211.0</ele><time>2026-03-28T16:35:37.328Z</time></trkpt><trkpt lat="42.9292726" lon="12.4620358"><ele>211.0</ele><time>2026-03-28T16:35:38.328Z</time></trkpt><trkpt lat="42.9292824" lon="12.4623008"><ele>211.0</ele><time>2026-03-28T16:35:39.327Z</time></trkpt><trkpt lat="42.9292983" lon="12.4625814"><ele>211.66666666666666</ele><time>2026-03-28T16:35:40.328Z</time></trkpt><trkpt lat="42.9293158" lon="12.4628539"><ele>212.33333333333331</ele><time>2026-03-28T16:35:41.328Z</time></trkpt><trkpt lat="42.9293362" lon="12.4631252"><ele>213.0</ele><time>2026-03-28T16:35:42.327Z</time></trkpt><trkpt lat="42.9293505" lon="12.4633988"><ele>215.33333333333331</ele><time>2026-03-28T16:35:43.328Z</time></trkpt><trkpt lat="42.929371" lon="12.4636816"><ele>217.66666666666666</ele><time>2026-03-28T16:35:44.328Z</time></trkpt><trkpt lat="42.9293811" lon="12.4639649"><ele>220.0</ele><time>2026-03-28T16:35:45.328Z</time></trkpt><trkpt lat="42.9294005" lon="12.4642494"><ele>220.0</ele><time>2026-03-28T16:35:46.328Z</time></trkpt><trkpt lat="42.9294224" lon="12.4645247"><ele>220.0</ele><time>2026-03-28T16:35:47.328Z</time></trkpt><trkpt lat="42.9294651" lon="12.4648046"><ele>220.0</ele><time>2026-03-28T16:35:48.327Z</time></trkpt><trkpt lat="42.929509" lon="12.4650803"><ele>220.0</ele><time>2026-03-28T16:35:49.328Z</time></trkpt><trkpt lat="42.9295546" lon="12.4653622"><ele>220.0</ele><time>2026-03-28T16:35:50.327Z</time></trkpt><trkpt lat="42.9296041" lon="12.4656388"><ele>220.0</ele><time>2026-03-28T16:35:51.328Z</time></trkpt><trkpt lat="42.929642" lon="12.4659078"><ele>219.66666666666666</ele><time>2026-03-28T16:35:52.328Z</time></trkpt><trkpt lat="42.9296535" lon="12.4661667"><ele>219.33333333333331</ele><time>2026-03-28T16:35:53.328Z</time></trkpt><trkpt lat="42.9296487" lon="12.4664252"><ele>219.0</ele><time>2026-03-28T16:35:54.328Z</time></trkpt><trkpt lat="42.9296325" lon="12.4666721"><ele>219.0</ele><time>2026-03-28T16:35:55.328Z</time></trkpt><trkpt lat="42.9296004" lon="12.4669101"><ele>219.0</ele><time>2026-03-28T16:35:56.328Z</time></trkpt><trkpt lat="42.9295501" lon="12.4671409"><ele>219.0</ele><time>2026-03-28T16:35:57.327Z</time></trkpt><trkpt lat="42.9295044" lon="12.4673696"><ele>218.33333333333331</ele><time>2026-03-28T16:35:58.328Z</time></trkpt><trkpt lat="42.9294627" lon="12.4676005"><ele>217.66666666666666</ele><time>2026-03-28T16:35:59.327Z</time></trkpt><trkpt lat="42.9294198" lon="12.4678328"><ele>217.0</ele><time>2026-03-28T16:36:00.327Z</time></trkpt><trkpt lat="42.9294014" lon="12.4680733"><ele>217.33333333333331</ele><time>2026-03-28T16:36:01.328Z</time></trkpt><trkpt lat="42.9293863" lon="12.4683188"><ele>217.66666666666669</ele><time>2026-03-28T16:36:02.327Z</time></trkpt><trkpt lat="42.9293717" lon="12.4685733"><ele>218.0</ele><time>2026-03-28T16:36:03.328Z</time></trkpt><trkpt lat="42.9293554" lon="12.4688312"><ele>218.0</ele><time>2026-03-28T16:36:04.327Z</time></trkpt><trkpt lat="42.9293407" lon="12.4690982"><ele>218.0</ele><time>2026-03-28T16:36:05.328Z</time></trkpt><trkpt lat="42.9293436" lon="12.46937"><ele>218.0</ele><time>2026-03-28T16:36:06.328Z</time></trkpt><trkpt lat="42.9293464" lon="12.4696454"><ele>218.0</ele><time>2026-03-28T16:36:07.328Z</time></trkpt><trkpt lat="42.9293592" lon="12.4699289"><ele>218.0</ele><time>2026-03-28T16:36:08.328Z</time></trkpt><trkpt lat="42.9293729" lon="12.4702068"><ele>218.0</ele><time>2026-03-28T16:36:09.328Z</time></trkpt><trkpt lat="42.9293824" lon="12.4704813"><ele>216.66666666666669</ele><time>2026-03-28T16:36:10.327Z</time></trkpt><trkpt lat="42.9293967" lon="12.470756"><ele>215.33333333333331</ele><time>2026-03-28T16:36:11.328Z</time></trkpt><trkpt lat="42.9294049" lon="12.4710331"><ele>214.0</ele><time>2026-03-28T16:36:12.327Z</time></trkpt><trkpt lat="42.9294168" lon="12.4713053"><ele>212.66666666666666</ele><time>2026-03-28T16:36:13.328Z</time></trkpt><trkpt lat="42.9294251" lon="12.47157"><ele>211.33333333333331</ele><time>2026-03-28T16:36:14.328Z</time></trkpt><trkpt lat="42.9294261" lon="12.4718234"><ele>210.0</ele><time>2026-03-28T16:36:15.328Z</time></trkpt><trkpt lat="42.9294149" lon="12.4720664"><ele>209.66666666666669</ele><time>2026-03-28T16:36:16.327Z</time></trkpt><trkpt lat="42.9293803" lon="12.472304"><ele>209.33333333333334</ele><time>2026-03-28T16:36:17.328Z</time></trkpt><trkpt lat="42.9293251" lon="12.4725379"><ele>209.0</ele><time>2026-03-28T16:36:18.327Z</time></trkpt><trkpt lat="42.9292467" lon="12.4727709"><ele>208.0</ele><time>2026-03-28T16:36:19.327Z</time></trkpt><trkpt lat="42.929167" lon="12.4730015"><ele>207.0</ele><time>2026-03-28T16:36:20.328Z</time></trkpt><trkpt lat="42.9290812" lon="12.4732346"><ele>206.0</ele><time>2026-03-28T16:36:21.328Z</time></trkpt><trkpt lat="42.929001" lon="12.4734642"><ele>206.0</ele><time>2026-03-28T16:36:22.328Z</time></trkpt><trkpt lat="42.9289207" lon="12.4736988"><ele>206.0</ele><time>2026-03-28T16:36:23.327Z</time></trkpt><trkpt lat="42.9288439" lon="12.4739311"><ele>206.0</ele><time>2026-03-28T16:36:24.328Z</time></trkpt><trkpt lat="42.9287656" lon="12.474152"><ele>208.33333333333334</ele><time>2026-03-28T16:36:25.328Z</time></trkpt><trkpt lat="42.9286895" lon="12.4743796"><ele>210.66666666666669</ele><time>2026-03-28T16:36:26.328Z</time></trkpt><trkpt lat="42.9286147" lon="12.4745964"><ele>213.0</ele><time>2026-03-28T16:36:27.328Z</time></trkpt><trkpt lat="42.928547" lon="12.4748143"><ele>214.33333333333331</ele><time>2026-03-28T16:36:28.328Z</time></trkpt><trkpt lat="42.9284871" lon="12.4750338"><ele>215.66666666666666</ele><time>2026-03-28T16:36:29.328Z</time></trkpt><trkpt lat="42.9284335" lon="12.47525"><ele>217.0</ele><time>2026-03-28T16:36:30.328Z</time></trkpt><trkpt lat="42.9283999" lon="12.4754542"><ele>214.33333333333331</ele><time>2026-03-28T16:36:31.328Z</time></trkpt><trkpt lat="42.9283716" lon="12.475661"><ele>211.66666666666669</ele><time>2026-03-28T16:36:32.328Z</time></trkpt><trkpt lat="42.9283592" lon="12.4758783"><ele>209.0</ele><time>2026-03-28T16:36:33.328Z</time></trkpt><trkpt lat="42.9283481" lon="12.4761045"><ele>209.33333333333334</ele><time>2026-03-28T16:36:34.328Z</time></trkpt><trkpt lat="42.9283359" lon="12.4763332"><ele>209.66666666666669</ele><time>2026-03-28T16:36:35.328Z</time></trkpt><trkpt lat="42.9283333" lon="12.476568"><ele>210.0</ele><time>2026-03-28T16:36:36.328Z</time></trkpt><trkpt lat="42.928327" lon="12.4768089"><ele>210.0</ele><time>2026-03-28T16:36:37.327Z</time></trkpt><trkpt lat="42.928318" lon="12.4770546"><ele>210.0</ele><time>2026-03-28T16:36:38.328Z</time></trkpt><trkpt lat="42.9283085" lon="12.4773012"><ele>210.0</ele><time>2026-03-28T16:36:39.327Z</time></trkpt><trkpt lat="42.9282964" lon="12.4775481"><ele>210.66666666666669</ele><time>2026-03-28T16:36:40.328Z</time></trkpt><trkpt lat="42.9282868" lon="12.4777948"><ele>211.33333333333334</ele><time>2026-03-28T16:36:41.327Z</time></trkpt><trkpt lat="42.9282756" lon="12.4780491"><ele>212.0</ele><time>2026-03-28T16:36:42.328Z</time></trkpt><trkpt lat="42.9282774" lon="12.4782995"><ele>213.33333333333334</ele><time>2026-03-28T16:36:43.328Z</time></trkpt><trkpt lat="42.9282882" lon="12.4785386"><ele>214.66666666666669</ele><time>2026-03-28T16:36:44.327Z</time></trkpt><trkpt lat="42.9283054" lon="12.478775"><ele>216.0</ele><time>2026-03-28T16:36:45.327Z</time></trkpt><trkpt lat="42.9283352" lon="12.4790227"><ele>216.33333333333331</ele><time>2026-03-28T16:36:46.328Z</time></trkpt><trkpt lat="42.9283691" lon="12.4792672"><ele>216.66666666666666</ele><time>2026-03-28T16:36:47.328Z</time></trkpt><trkpt lat="42.9283953" lon="12.479516"><ele>217.0</ele><time>2026-03-28T16:36:48.327Z</time></trkpt><trkpt lat="42.9284255" lon="12.4797734"><ele>217.33333333333331</ele><time>2026-03-28T16:36:49.328Z</time></trkpt><trkpt lat="42.9284559" lon="12.4800296"><ele>217.66666666666669</ele><time>2026-03-28T16:36:50.328Z</time></trkpt><trkpt lat="42.9284959" lon="12.480293"><ele>218.0</ele><time>2026-03-28T16:36:51.328Z</time></trkpt><trkpt lat="42.9285456" lon="12.4805606"><ele>218.0</ele><time>2026-03-28T16:36:52.328Z</time></trkpt><trkpt lat="42.928604" lon="12.4808155"><ele>218.0</ele><time>2026-03-28T16:36:53.328Z</time></trkpt><trkpt lat="42.9286731" lon="12.4810774"><ele>218.0</ele><time>2026-03-28T16:36:54.327Z</time></trkpt><trkpt lat="42.9287414" lon="12.4813287"><ele>215.33333333333334</ele><time>2026-03-28T16:36:55.328Z</time></trkpt><trkpt lat="42.9288075" lon="12.4815781"><ele>212.66666666666669</ele><time>2026-03-28T16:36:56.327Z</time></trkpt><trkpt lat="42.9288663" lon="12.4818247"><ele>210.0</ele><time>2026-03-28T16:36:57.327Z</time></trkpt><trkpt lat="42.9289193" lon="12.4820553"><ele>209.66666666666669</ele><time>2026-03-28T16:36:58.328Z</time></trkpt><trkpt lat="42.9289627" lon="12.4822824"><ele>209.33333333333334</ele><time>2026-03-28T16:36:59.328Z</time></trkpt><trkpt lat="42.9289918" lon="12.4825109"><ele>209.0</ele><time>2026-03-28T16:37:00.328Z</time></trkpt><trkpt lat="42.9289991" lon="12.4827468"><ele>209.33333333333334</ele><time>2026-03-28T16:37:01.328Z</time></trkpt><trkpt lat="42.928983" lon="12.483002"><ele>209.66666666666669</ele><time>2026-03-28T16:37:02.327Z</time></trkpt><trkpt lat="42.9289489" lon="12.4832558"><ele>210.0</ele><time>2026-03-28T16:37:03.327Z</time></trkpt><trkpt lat="42.9288963" lon="12.4835166"><ele>211.33333333333331</ele><time>2026-03-28T16:37:04.328Z</time></trkpt><trkpt lat="42.9288362" lon="12.4837736"><ele>212.66666666666666</ele><time>2026-03-28T16:37:05.327Z</time></trkpt><trkpt lat="42.9287729" lon="12.4840358"><ele>214.0</ele><time>2026-03-28T16:37:06.328Z</time></trkpt><trkpt lat="42.9287069" lon="12.4843014"><ele>214.0</ele><time>2026-03-28T16:37:07.328Z</time></trkpt><trkpt lat="42.9286449" lon="12.4845675"><ele>214.0</ele><time>2026-03-28T16:37:08.328Z</time></trkpt><trkpt lat="42.9285826" lon="12.4848349"><ele>214.0</ele><time>2026-03-28T16:37:09.328Z</time></trkpt><trkpt lat="42.9285233" lon="12.4850963"><ele>214.0</ele><time>2026-03-28T16:37:10.328Z</time></trkpt><trkpt lat="42.928473" lon="12.485342"><ele>214.0</ele><time>2026-03-28T16:37:11.328Z</time></trkpt><trkpt lat="42.9284223" lon="12.4855748"><ele>214.0</ele><time>2026-03-28T16:37:12.327Z</time></trkpt><trkpt lat="42.9283696" lon="12.4857906"><ele>214.0</ele><time>2026-03-28T16:37:13.328Z</time></trkpt><trkpt lat="42.9283282" lon="12.4859699"><ele>214.0</ele><time>2026-03-28T16:37:14.327Z</time></trkpt><trkpt lat="42.9282868" lon="12.48614"><ele>214.0</ele><time>2026-03-28T16:37:15.328Z</time></trkpt><trkpt lat="42.9282539" lon="12.4863017"><ele>214.0</ele><time>2026-03-28T16:37:16.328Z</time></trkpt><trkpt lat="42.9282273" lon="12.4864587"><ele>214.6</ele><time>2026-03-28T16:37:17.327Z</time></trkpt><trkpt lat="42.9282138" lon="12.4866001"><ele>215.2</ele><time>2026-03-28T16:37:18.328Z</time></trkpt><trkpt lat="42.9282049" lon="12.4867428"><ele>215.79999999999998</ele><time>2026-03-28T16:37:19.327Z</time></trkpt><trkpt lat="42.9282079" lon="12.4868897"><ele>216.39999999999998</ele><time>2026-03-28T16:37:20.328Z</time></trkpt><trkpt lat="42.9282133" lon="12.4870497"><ele>217.0</ele><time>2026-03-28T16:37:21.328Z</time></trkpt><trkpt lat="42.9282358" lon="12.4872143"><ele>217.0</ele><time>2026-03-28T16:37:22.327Z</time></trkpt><trkpt lat="42.9282638" lon="12.4873793"><ele>217.0</ele><time>2026-03-28T16:37:23.327Z</time></trkpt><trkpt lat="42.9282889" lon="12.4875513"><ele>217.0</ele><time>2026-03-28T16:37:24.327Z</time></trkpt><trkpt lat="42.9283223" lon="12.4877273"><ele>217.0</ele><time>2026-03-28T16:37:25.328Z</time></trkpt><trkpt lat="42.9283591" lon="12.4878997"><ele>216.25</ele><time>2026-03-28T16:37:26.328Z</time></trkpt><trkpt lat="42.928387" lon="12.4880817"><ele>215.5</ele><time>2026-03-28T16:37:27.328Z</time></trkpt><trkpt lat="42.9284125" lon="12.4882669"><ele>214.75</ele><time>2026-03-28T16:37:28.328Z</time></trkpt><trkpt lat="42.9284429" lon="12.4884644"><ele>214.0</ele><time>2026-03-28T16:37:29.328Z</time></trkpt><trkpt lat="42.9284672" lon="12.48867"><ele>215.66666666666666</ele><time>2026-03-28T16:37:30.328Z</time></trkpt><trkpt lat="42.9285026" lon="12.4888815"><ele>217.33333333333331</ele><time>2026-03-28T16:37:31.328Z</time></trkpt><trkpt lat="42.928527" lon="12.489104"><ele>219.0</ele><time>2026-03-28T16:37:32.328Z</time></trkpt><trkpt lat="42.9285524" lon="12.4893275"><ele>219.0</ele><time>2026-03-28T16:37:33.327Z</time></trkpt><trkpt lat="42.9285739" lon="12.4895528"><ele>219.0</ele><time>2026-03-28T16:37:34.328Z</time></trkpt><trkpt lat="42.9285847" lon="12.4897677"><ele>219.0</ele><time>2026-03-28T16:37:35.328Z</time></trkpt><trkpt lat="42.9285763" lon="12.4899694"><ele>219.25</ele><time>2026-03-28T16:37:36.328Z</time></trkpt><trkpt lat="42.9285562" lon="12.490164"><ele>219.5</ele><time>2026-03-28T16:37:37.328Z</time></trkpt><trkpt lat="42.9285131" lon="12.4903529"><ele>219.75</ele><time>2026-03-28T16:37:38.328Z</time></trkpt><trkpt lat="42.9284419" lon="12.4905362"><ele>220.0</ele><time>2026-03-28T16:37:39.328Z</time></trkpt><trkpt lat="42.9283418" lon="12.4907117"><ele>220.0</ele><time>2026-03-28T16:37:40.328Z</time></trkpt><trkpt lat="42.9282319" lon="12.4908738"><ele>220.0</ele><time>2026-03-28T16:37:41.327Z</time></trkpt><trkpt lat="42.9281105" lon="12.4910304"><ele>220.0</ele><time>2026-03-28T16:37:42.328Z</time></trkpt><trkpt lat="42.9279808" lon="12.4911817"><ele>221.66666666666666</ele><time>2026-03-28T16:37:43.328Z</time></trkpt><trkpt lat="42.9278532" lon="12.4913273"><ele>223.33333333333331</ele><time>2026-03-28T16:37:44.327Z</time></trkpt><trkpt lat="42.9277204" lon="12.4914757"><ele>225.0</ele><time>2026-03-28T16:37:45.328Z</time></trkpt><trkpt lat="42.9275799" lon="12.4916365"><ele>224.33333333333331</ele><time>2026-03-28T16:37:46.328Z</time></trkpt><trkpt lat="42.9274412" lon="12.4918019"><ele>223.66666666666666</ele><time>2026-03-28T16:37:47.328Z</time></trkpt><trkpt lat="42.9272938" lon="12.4919722"><ele>223.0</ele><time>2026-03-28T16:37:48.327Z</time></trkpt><trkpt lat="42.9271492" lon="12.4921422"><ele>223.0</ele><time>2026-03-28T16:37:49.327Z</time></trkpt><trkpt lat="42.9270001" lon="12.4923168"><ele>223.0</ele><time>2026-03-28T16:37:50.328Z</time></trkpt><trkpt lat="42.926849" lon="12.4924862"><ele>223.0</ele><time>2026-03-28T16:37:51.327Z</time></trkpt><trkpt lat="42.9266928" lon="12.4926543"><ele>221.66666666666666</ele><time>2026-03-28T16:37:52.328Z</time></trkpt><trkpt lat="42.926538" lon="12.4928322"><ele>220.33333333333331</ele><time>2026-03-28T16:37:53.328Z</time></trkpt><trkpt lat="42.9263863" lon="12.4930062"><ele>219.0</ele><time>2026-03-28T16:37:54.328Z</time></trkpt><trkpt lat="42.9262379" lon="12.4931804"><ele>219.33333333333331</ele><time>2026-03-28T16:37:55.327Z</time></trkpt><trkpt lat="42.9260972" lon="12.4933559"><ele>219.66666666666666</ele><time>2026-03-28T16:37:56.327Z</time></trkpt><trkpt lat="42.925957" lon="12.4935191"><ele>220.0</ele><time>2026-03-28T16:37:57.328Z</time></trkpt><trkpt lat="42.9258233" lon="12.4936804"><ele>222.33333333333331</ele><time>2026-03-28T16:37:58.328Z</time></trkpt><trkpt lat="42.9257023" lon="12.4938413"><ele>224.66666666666669</ele><time>2026-03-28T16:37:59.328Z</time></trkpt><trkpt lat="42.925587" lon="12.4940243"><ele>227.0</ele><time>2026-03-28T16:38:00.328Z</time></trkpt><trkpt lat="42.925485" lon="12.4942251"><ele>227.0</ele><time>2026-03-28T16:38:01.328Z</time></trkpt><trkpt lat="42.9254058" lon="12.4944508"><ele>227.0</ele><time>2026-03-28T16:38:02.327Z</time></trkpt><trkpt lat="42.9253345" lon="12.4946884"><ele>227.0</ele><time>2026-03-28T16:38:03.328Z</time></trkpt><trkpt lat="42.9252638" lon="12.494942"><ele>226.0</ele><time>2026-03-28T16:38:04.328Z</time></trkpt><trkpt lat="42.9251939" lon="12.4951971"><ele>225.0</ele><time>2026-03-28T16:38:05.327Z</time></trkpt><trkpt lat="42.925123" lon="12.4954493"><ele>224.0</ele><time>2026-03-28T16:38:06.328Z</time></trkpt><trkpt lat="42.9250515" lon="12.4957022"><ele>222.66666666666669</ele><time>2026-03-28T16:38:07.328Z</time></trkpt><trkpt lat="42.9249834" lon="12.4959612"><ele>221.33333333333331</ele><time>2026-03-28T16:38:08.328Z</time></trkpt><trkpt lat="42.9249204" lon="12.496222"><ele>220.0</ele><time>2026-03-28T16:38:09.327Z</time></trkpt><trkpt lat="42.9248518" lon="12.496484"><ele>220.0</ele><time>2026-03-28T16:38:10.328Z</time></trkpt><trkpt lat="42.9247846" lon="12.496732"><ele>220.0</ele><time>2026-03-28T16:38:11.328Z</time></trkpt><trkpt lat="42.9247231" lon="12.4969805"><ele>220.0</ele><time>2026-03-28T16:38:12.327Z</time></trkpt><trkpt lat="42.9246587" lon="12.497223"><ele>220.33333333333331</ele><time>2026-03-28T16:38:13.327Z</time></trkpt><trkpt lat="42.9246016" lon="12.4974664"><ele>220.66666666666669</ele><time>2026-03-28T16:38:14.328Z</time></trkpt><trkpt lat="42.9245558" lon="12.4977055"><ele>221.0</ele><time>2026-03-28T16:38:15.328Z</time></trkpt><trkpt lat="42.9245342" lon="12.4979497"><ele>221.0</ele><time>2026-03-28T16:38:16.327Z</time></trkpt><trkpt lat="42.9245251" lon="12.4981927"><ele>221.0</ele><time>2026-03-28T16:38:17.328Z</time></trkpt><trkpt lat="42.9245239" lon="12.4984537"><ele>221.0</ele><time>2026-03-28T16:38:18.328Z</time></trkpt><trkpt lat="42.9245246" lon="12.4987168"><ele>221.0</ele><time>2026-03-28T16:38:19.327Z</time></trkpt><trkpt lat="42.9245188" lon="12.4989743"><ele>221.0</ele><time>2026-03-28T16:38:20.328Z</time></trkpt><trkpt lat="42.9245054" lon="12.4992233"><ele>221.0</ele><time>2026-03-28T16:38:21.327Z</time></trkpt><trkpt lat="42.924473" lon="12.4994725"><ele>220.66666666666669</ele><time>2026-03-28T16:38:22.328Z</time></trkpt><trkpt lat="42.9244191" lon="12.4997143"><ele>220.33333333333331</ele><time>2026-03-28T16:38:23.328Z</time></trkpt><trkpt lat="42.9243317" lon="12.4999522"><ele>220.0</ele><time>2026-03-28T16:38:24.328Z</time></trkpt><trkpt lat="42.9242273" lon="12.5001768"><ele>220.0</ele><time>2026-03-28T16:38:25.328Z</time></trkpt><trkpt lat="42.9241151" lon="12.5003978"><ele>220.0</ele><time>2026-03-28T16:38:26.328Z</time></trkpt><trkpt lat="42.9240046" lon="12.5006154"><ele>220.0</ele><time>2026-03-28T16:38:27.328Z</time></trkpt><trkpt lat="42.923888" lon="12.5008331"><ele>220.0</ele><time>2026-03-28T16:38:28.328Z</time></trkpt><trkpt lat="42.9237663" lon="12.5010548"><ele>220.0</ele><time>2026-03-28T16:38:29.328Z</time></trkpt><trkpt lat="42.9236501" lon="12.5012791"><ele>220.0</ele><time>2026-03-28T16:38:30.328Z</time></trkpt><trkpt lat="42.9235357" lon="12.5014986"><ele>221.0</ele><time>2026-03-28T16:38:31.327Z</time></trkpt><trkpt lat="42.9234326" lon="12.5017063"><ele>222.0</ele><time>2026-03-28T16:38:32.328Z</time></trkpt><trkpt lat="42.9233251" lon="12.5019141"><ele>223.0</ele><time>2026-03-28T16:38:33.328Z</time></trkpt><trkpt lat="42.9232333" lon="12.5020956"><ele>223.33333333333331</ele><time>2026-03-28T16:38:34.328Z</time></trkpt><trkpt lat="42.9231392" lon="12.5022711"><ele>223.66666666666669</ele><time>2026-03-28T16:38:35.328Z</time></trkpt><trkpt lat="42.9230456" lon="12.5024623"><ele>224.0</ele><time>2026-03-28T16:38:36.328Z</time></trkpt><trkpt lat="42.922966" lon="12.5026291"><ele>224.0</ele><time>2026-03-28T16:38:37.328Z</time></trkpt><trkpt lat="42.9228755" lon="12.5028004"><ele>224.0</ele><time>2026-03-28T16:38:38.328Z</time></trkpt><trkpt lat="42.9227901" lon="12.502969"><ele>224.0</ele><time>2026-03-28T16:38:39.328Z</time></trkpt><trkpt lat="42.9227023" lon="12.5031307"><ele>224.66666666666669</ele><time>2026-03-28T16:38:40.328Z</time></trkpt><trkpt lat="42.9226171" lon="12.5033029"><ele>225.33333333333331</ele><time>2026-03-28T16:38:41.328Z</time></trkpt><trkpt lat="42.9225315" lon="12.5034712"><ele>226.0</ele><time>2026-03-28T16:38:42.328Z</time></trkpt><trkpt lat="42.9224425" lon="12.5036435"><ele>225.66666666666666</ele><time>2026-03-28T16:38:43.328Z</time></trkpt><trkpt lat="42.9223516" lon="12.5038147"><ele>225.33333333333331</ele><time>2026-03-28T16:38:44.328Z</time></trkpt><trkpt lat="42.9222626" lon="12.5039886"><ele>225.0</ele><time>2026-03-28T16:38:45.328Z</time></trkpt><trkpt lat="42.9221694" lon="12.5041587"><ele>225.0</ele><time>2026-03-28T16:38:46.328Z</time></trkpt><trkpt lat="42.9220763" lon="12.5043458"><ele>225.0</ele><time>2026-03-28T16:38:47.328Z</time></trkpt><trkpt lat="42.9219791" lon="12.5045368"><ele>225.0</ele><time>2026-03-28T16:38:48.327Z</time></trkpt><trkpt lat="42.9218826" lon="12.5047323"><ele>225.33333333333331</ele><time>2026-03-28T16:38:49.327Z</time></trkpt><trkpt lat="42.9217811" lon="12.5049331"><ele>225.66666666666666</ele><time>2026-03-28T16:38:50.328Z</time></trkpt><trkpt lat="42.9216755" lon="12.5051344"><ele>226.0</ele><time>2026-03-28T16:38:51.327Z</time></trkpt><trkpt lat="42.9215713" lon="12.5053409"><ele>225.33333333333331</ele><time>2026-03-28T16:38:52.328Z</time></trkpt><trkpt lat="42.9214723" lon="12.5055535"><ele>224.66666666666669</ele><time>2026-03-28T16:38:53.328Z</time></trkpt><trkpt lat="42.9213716" lon="12.5057713"><ele>224.0</ele><time>2026-03-28T16:38:54.328Z</time></trkpt><trkpt lat="42.9212586" lon="12.505986"><ele>224.0</ele><time>2026-03-28T16:38:55.328Z</time></trkpt><trkpt lat="42.9211443" lon="12.5062038"><ele>224.0</ele><time>2026-03-28T16:38:56.328Z</time></trkpt><trkpt lat="42.9210232" lon="12.5064259"><ele>224.0</ele><time>2026-03-28T16:38:57.327Z</time></trkpt><trkpt lat="42.920896" lon="12.5066449"><ele>224.66666666666669</ele><time>2026-03-28T16:38:58.328Z</time></trkpt><trkpt lat="42.9207637" lon="12.5068575"><ele>225.33333333333331</ele><time>2026-03-28T16:38:59.328Z</time></trkpt><trkpt lat="42.9206393" lon="12.5070638"><ele>226.0</ele><time>2026-03-28T16:39:00.327Z</time></trkpt><trkpt lat="42.9205094" lon="12.5072789"><ele>226.0</ele><time>2026-03-28T16:39:01.328Z</time></trkpt><trkpt lat="42.9203779" lon="12.5074934"><ele>226.0</ele><time>2026-03-28T16:39:02.328Z</time></trkpt><trkpt lat="42.9202532" lon="12.5077139"><ele>226.0</ele><time>2026-03-28T16:39:03.328Z</time></trkpt><trkpt lat="42.9201239" lon="12.5079365"><ele>226.66666666666666</ele><time>2026-03-28T16:39:04.328Z</time></trkpt><trkpt lat="42.9199933" lon="12.5081704"><ele>227.33333333333331</ele><time>2026-03-28T16:39:05.328Z</time></trkpt><trkpt lat="42.9198706" lon="12.5084088"><ele>228.0</ele><time>2026-03-28T16:39:06.328Z</time></trkpt><trkpt lat="42.9197517" lon="12.5086581"><ele>227.33333333333331</ele><time>2026-03-28T16:39:07.328Z</time></trkpt><trkpt lat="42.9196238" lon="12.5089072"><ele>226.66666666666666</ele><time>2026-03-28T16:39:08.328Z</time></trkpt><trkpt lat="42.9195024" lon="12.5091558"><ele>226.0</ele><time>2026-03-28T16:39:09.327Z</time></trkpt><trkpt lat="42.9193741" lon="12.5094057"><ele>228.33333333333331</ele><time>2026-03-28T16:39:10.328Z</time></trkpt><trkpt lat="42.9192567" lon="12.5096571"><ele>230.66666666666669</ele><time>2026-03-28T16:39:11.328Z</time></trkpt><trkpt lat="42.9191383" lon="12.5099009"><ele>233.0</ele><time>2026-03-28T16:39:12.328Z</time></trkpt><trkpt lat="42.9190264" lon="12.5101289"><ele>233.0</ele><time>2026-03-28T16:39:13.327Z</time></trkpt><trkpt lat="42.9189162" lon="12.5103582"><ele>233.0</ele><time>2026-03-28T16:39:14.327Z</time></trkpt><trkpt lat="42.9188281" lon="12.5105819"><ele>233.0</ele><time>2026-03-28T16:39:15.327Z</time></trkpt><trkpt lat="42.9187443" lon="12.5108131"><ele>235.33333333333334</ele><time>2026-03-28T16:39:16.327Z</time></trkpt><trkpt lat="42.9186692" lon="12.5110582"><ele>237.66666666666669</ele><time>2026-03-28T16:39:17.327Z</time></trkpt><trkpt lat="42.9186051" lon="12.5113176"><ele>240.0</ele><time>2026-03-28T16:39:18.328Z</time></trkpt><trkpt lat="42.9185409" lon="12.5115865"><ele>240.33333333333331</ele><time>2026-03-28T16:39:19.328Z</time></trkpt><trkpt lat="42.9184817" lon="12.5118558"><ele>240.66666666666666</ele><time>2026-03-28T16:39:20.328Z</time></trkpt><trkpt lat="42.918418" lon="12.5121103"><ele>241.0</ele><time>2026-03-28T16:39:21.328Z</time></trkpt><trkpt lat="42.9183425" lon="12.5123625"><ele>239.33333333333331</ele><time>2026-03-28T16:39:22.328Z</time></trkpt><trkpt lat="42.9182556" lon="12.5126118"><ele>237.66666666666669</ele><time>2026-03-28T16:39:23.328Z</time></trkpt><trkpt lat="42.9181485" lon="12.5128514"><ele>236.0</ele><time>2026-03-28T16:39:24.328Z</time></trkpt><trkpt lat="42.9180244" lon="12.5130853"><ele>236.0</ele><time>2026-03-28T16:39:25.328Z</time></trkpt><trkpt lat="42.9178945" lon="12.5133127"><ele>236.0</ele><time>2026-03-28T16:39:26.327Z</time></trkpt><trkpt lat="42.9177575" lon="12.5135441"><ele>236.0</ele><time>2026-03-28T16:39:27.328Z</time></trkpt><trkpt lat="42.9176191" lon="12.5137727"><ele>235.66666666666669</ele><time>2026-03-28T16:39:28.327Z</time></trkpt><trkpt lat="42.9174803" lon="12.5139989"><ele>235.33333333333331</ele><time>2026-03-28T16:39:29.327Z</time></trkpt><trkpt lat="42.9173508" lon="12.5142301"><ele>235.0</ele><time>2026-03-28T16:39:30.328Z</time></trkpt><trkpt lat="42.9172139" lon="12.514462"><ele>239.0</ele><time>2026-03-28T16:39:31.327Z</time></trkpt><trkpt lat="42.9170819" lon="12.5146998"><ele>243.0</ele><time>2026-03-28T16:39:32.327Z</time></trkpt><trkpt lat="42.9169525" lon="12.5149229"><ele>247.0</ele><time>2026-03-28T16:39:33.328Z</time></trkpt><trkpt lat="42.9168241" lon="12.5151465"><ele>245.33333333333331</ele><time>2026-03-28T16:39:34.328Z</time></trkpt><trkpt lat="42.9166975" lon="12.5153766"><ele>243.66666666666669</ele><time>2026-03-28T16:39:35.328Z</time></trkpt><trkpt lat="42.9165767" lon="12.5155921"><ele>242.0</ele><time>2026-03-28T16:39:36.328Z</time></trkpt><trkpt lat="42.9164566" lon="12.5158041"><ele>242.0</ele><time>2026-03-28T16:39:37.328Z</time></trkpt><trkpt lat="42.9163474" lon="12.5160221"><ele>242.0</ele><time>2026-03-28T16:39:38.328Z</time></trkpt><trkpt lat="42.916258" lon="12.5162558"><ele>242.0</ele><time>2026-03-28T16:39:39.328Z</time></trkpt><trkpt lat="42.9161736" lon="12.5165012"><ele>243.0</ele><time>2026-03-28T16:39:40.328Z</time></trkpt><trkpt lat="42.9161013" lon="12.5167576"><ele>244.0</ele><time>2026-03-28T16:39:41.328Z</time></trkpt><trkpt lat="42.9160156" lon="12.5170167"><ele>245.0</ele><time>2026-03-28T16:39:42.327Z</time></trkpt><trkpt lat="42.9159324" lon="12.5172802"><ele>245.0</ele><time>2026-03-28T16:39:43.328Z</time></trkpt><trkpt lat="42.9158428" lon="12.5175469"><ele>245.0</ele><time>2026-03-28T16:39:44.327Z</time></trkpt><trkpt lat="42.9157531" lon="12.5178149"><ele>245.0</ele><time>2026-03-28T16:39:45.328Z</time></trkpt><trkpt lat="42.91565" lon="12.5180883"><ele>245.0</ele><time>2026-03-28T16:39:46.328Z</time></trkpt><trkpt lat="42.9155431" lon="12.518351"><ele>245.0</ele><time>2026-03-28T16:39:47.328Z</time></trkpt><trkpt lat="42.9154369" lon="12.5186216"><ele>245.0</ele><time>2026-03-28T16:39:48.328Z</time></trkpt><trkpt lat="42.9153346" lon="12.5188912"><ele>250.5</ele><time>2026-03-28T16:39:49.328Z</time></trkpt><trkpt lat="42.9152282" lon="12.5191587"><ele>256.0</ele><time>2026-03-28T16:39:50.328Z</time></trkpt><trkpt lat="42.9151192" lon="12.5194347"><ele>251.33333333333331</ele><time>2026-03-28T16:39:51.327Z</time></trkpt><trkpt lat="42.9150197" lon="12.5197049"><ele>246.66666666666669</ele><time>2026-03-28T16:39:52.328Z</time></trkpt><trkpt lat="42.9149094" lon="12.5199658"><ele>242.0</ele><time>2026-03-28T16:39:53.328Z</time></trkpt><trkpt lat="42.9148035" lon="12.5202193"><ele>244.0</ele><time>2026-03-28T16:39:54.327Z</time></trkpt><trkpt lat="42.9147054" lon="12.5204588"><ele>246.0</ele><time>2026-03-28T16:39:55.328Z</time></trkpt><trkpt lat="42.9146128" lon="12.5206853"><ele>248.0</ele><time>2026-03-28T16:39:56.328Z</time></trkpt><trkpt lat="42.9145161" lon="12.5208932"><ele>248.0</ele><time>2026-03-28T16:39:57.328Z</time></trkpt><trkpt lat="42.9144095" lon="12.5210796"><ele>248.0</ele><time>2026-03-28T16:39:58.327Z</time></trkpt><trkpt lat="42.9142795" lon="12.5212499"><ele>248.0</ele><time>2026-03-28T16:39:59.328Z</time></trkpt><trkpt lat="42.9141313" lon="12.5213916"><ele>247.0</ele><time>2026-03-28T16:40:00.328Z</time></trkpt><trkpt lat="42.9139776" lon="12.5215179"><ele>246.0</ele><time>2026-03-28T16:40:01.328Z</time></trkpt><trkpt lat="42.9138326" lon="12.5216419"><ele>245.0</ele><time>2026-03-28T16:40:02.328Z</time></trkpt><trkpt lat="42.9136852" lon="12.521771"><ele>245.0</ele><time>2026-03-28T16:40:03.328Z</time></trkpt><trkpt lat="42.9135507" lon="12.521921"><ele>245.0</ele><time>2026-03-28T16:40:04.327Z</time></trkpt><trkpt lat="42.9134215" lon="12.5220885"><ele>245.0</ele><time>2026-03-28T16:40:05.328Z</time></trkpt><trkpt lat="42.9132988" lon="12.522284"><ele>244.33333333333334</ele><time>2026-03-28T16:40:06.328Z</time></trkpt><trkpt lat="42.9131926" lon="12.5224955"><ele>243.66666666666669</ele><time>2026-03-28T16:40:07.328Z</time></trkpt><trkpt lat="42.9130817" lon="12.5227211"><ele>243.0</ele><time>2026-03-28T16:40:08.328Z</time></trkpt><trkpt lat="42.9129765" lon="12.5229567"><ele>245.66666666666669</ele><time>2026-03-28T16:40:09.328Z</time></trkpt><trkpt lat="42.9128841" lon="12.5232109"><ele>248.33333333333334</ele><time>2026-03-28T16:40:10.328Z</time></trkpt><trkpt lat="42.9127996" lon="12.5234801"><ele>251.0</ele><time>2026-03-28T16:40:11.328Z</time></trkpt><trkpt lat="42.9127154" lon="12.5237463"><ele>252.33333333333334</ele><time>2026-03-28T16:40:12.328Z</time></trkpt><trkpt lat="42.9126415" lon="12.5240289"><ele>253.66666666666669</ele><time>2026-03-28T16:40:13.327Z</time></trkpt><trkpt lat="42.9125687" lon="12.5243172"><ele>255.0</ele><time>2026-03-28T16:40:14.328Z</time></trkpt><trkpt lat="42.9125048" lon="12.5246087"><ele>253.66666666666669</ele><time>2026-03-28T16:40:15.328Z</time></trkpt><trkpt lat="42.9124351" lon="12.5248956"><ele>252.33333333333334</ele><time>2026-03-28T16:40:16.328Z</time></trkpt><trkpt lat="42.9123783" lon="12.5251696"><ele>251.0</ele><time>2026-03-28T16:40:17.328Z</time></trkpt><trkpt lat="42.9123231" lon="12.5254317"><ele>251.0</ele><time>2026-03-28T16:40:18.328Z</time></trkpt><trkpt lat="42.9122816" lon="12.5256792"><ele>251.0</ele><time>2026-03-28T16:40:19.328Z</time></trkpt><trkpt lat="42.9122482" lon="12.5259136"><ele>251.0</ele><time>2026-03-28T16:40:20.328Z</time></trkpt><trkpt lat="42.9122041" lon="12.5261399"><ele>252.66666666666669</ele><time>2026-03-28T16:40:21.328Z</time></trkpt><trkpt lat="42.9121376" lon="12.5263585"><ele>254.33333333333331</ele><time>2026-03-28T16:40:22.328Z</time></trkpt><trkpt lat="42.9120631" lon="12.5265727"><ele>256.0</ele><time>2026-03-28T16:40:23.328Z</time></trkpt><trkpt lat="42.9119897" lon="12.526778"><ele>256.0</ele><time>2026-03-28T16:40:24.328Z</time></trkpt><trkpt lat="42.9118814" lon="12.5269964"><ele>256.0</ele><time>2026-03-28T16:40:25.327Z</time></trkpt><trkpt lat="42.9117748" lon="12.5272059"><ele>256.0</ele><time>2026-03-28T16:40:26.327Z</time></trkpt><trkpt lat="42.9116572" lon="12.5274199"><ele>254.66666666666666</ele><time>2026-03-28T16:40:27.327Z</time></trkpt><trkpt lat="42.9115301" lon="12.5276364"><ele>253.33333333333331</ele><time>2026-03-28T16:40:28.328Z</time></trkpt><trkpt lat="42.9113978" lon="12.5278583"><ele>252.0</ele><time>2026-03-28T16:40:29.328Z</time></trkpt><trkpt lat="42.9112653" lon="12.5280813"><ele>252.0</ele><time>2026-03-28T16:40:30.327Z</time></trkpt><trkpt lat="42.9111412" lon="12.5282955"><ele>252.0</ele><time>2026-03-28T16:40:31.328Z</time></trkpt><trkpt lat="42.9110101" lon="12.5285103"><ele>252.0</ele><time>2026-03-28T16:40:32.327Z</time></trkpt><trkpt lat="42.9108801" lon="12.5287253"><ele>250.33333333333331</ele><time>2026-03-28T16:40:33.328Z</time></trkpt><trkpt lat="42.9107563" lon="12.5289532"><ele>248.66666666666666</ele><time>2026-03-28T16:40:34.328Z</time></trkpt><trkpt lat="42.9106235" lon="12.5291813"><ele>247.0</ele><time>2026-03-28T16:40:35.327Z</time></trkpt><trkpt lat="42.9104884" lon="12.5294182"><ele>249.0</ele><time>2026-03-28T16:40:36.328Z</time></trkpt><trkpt lat="42.9103513" lon="12.5296526"><ele>251.0</ele><time>2026-03-28T16:40:37.328Z</time></trkpt><trkpt lat="42.9102195" lon="12.5298908"><ele>253.0</ele><time>2026-03-28T16:40:38.328Z</time></trkpt><trkpt lat="42.9100876" lon="12.5301109"><ele>250.33333333333331</ele><time>2026-03-28T16:40:39.327Z</time></trkpt><trkpt lat="42.9099636" lon="12.5303255"><ele>247.66666666666669</ele><time>2026-03-28T16:40:40.328Z</time></trkpt><trkpt lat="42.9098291" lon="12.5305235"><ele>245.0</ele><time>2026-03-28T16:40:41.327Z</time></trkpt><trkpt lat="42.9096641" lon="12.5306843"><ele>245.0</ele><time>2026-03-28T16:40:42.328Z</time></trkpt><trkpt lat="42.9094947" lon="12.5308438"><ele>245.0</ele><time>2026-03-28T16:40:43.328Z</time></trkpt><trkpt lat="42.9093115" lon="12.5309933"><ele>245.0</ele><time>2026-03-28T16:40:44.328Z</time></trkpt><trkpt lat="42.9091269" lon="12.5311501"><ele>247.33333333333334</ele><time>2026-03-28T16:40:45.327Z</time></trkpt><trkpt lat="42.9089322" lon="12.5312938"><ele>249.66666666666669</ele><time>2026-03-28T16:40:46.328Z</time></trkpt><trkpt lat="42.9087369" lon="12.5314437"><ele>252.0</ele><time>2026-03-28T16:40:47.328Z</time></trkpt><trkpt lat="42.9085477" lon="12.531589"><ele>251.0</ele><time>2026-03-28T16:40:48.328Z</time></trkpt><trkpt lat="42.9083594" lon="12.5317444"><ele>250.0</ele><time>2026-03-28T16:40:49.328Z</time></trkpt><trkpt lat="42.9081669" lon="12.5318965"><ele>249.0</ele><time>2026-03-28T16:40:50.328Z</time></trkpt><trkpt lat="42.9079714" lon="12.5320363"><ele>251.33333333333331</ele><time>2026-03-28T16:40:51.328Z</time></trkpt><trkpt lat="42.9077662" lon="12.532151"><ele>253.66666666666666</ele><time>2026-03-28T16:40:52.328Z</time></trkpt><trkpt lat="42.9075613" lon="12.5322551"><ele>256.0</ele><time>2026-03-28T16:40:53.328Z</time></trkpt><trkpt lat="42.9073492" lon="12.5323384"><ele>256.0</ele><time>2026-03-28T16:40:54.328Z</time></trkpt><trkpt lat="42.9071472" lon="12.5324175"><ele>256.0</ele><time>2026-03-28T16:40:55.328Z</time></trkpt><trkpt lat="42.9069426" lon="12.5324741"><ele>256.0</ele><time>2026-03-28T16:40:56.327Z</time></trkpt><trkpt lat="42.9067463" lon="12.5325075"><ele>255.0</ele><time>2026-03-28T16:40:57.328Z</time></trkpt><trkpt lat="42.9065399" lon="12.5325251"><ele>254.0</ele><time>2026-03-28T16:40:58.328Z</time></trkpt><trkpt lat="42.9063321" lon="12.5325198"><ele>253.0</ele><time>2026-03-28T16:40:59.327Z</time></trkpt><trkpt lat="42.9061227" lon="12.532489"><ele>253.0</ele><time>2026-03-28T16:41:00.328Z</time></trkpt><trkpt lat="42.9059183" lon="12.5324504"><ele>253.0</ele><time>2026-03-28T16:41:01.328Z</time></trkpt><trkpt lat="42.9057233" lon="12.5324131"><ele>253.0</ele><time>2026-03-28T16:41:02.327Z</time></trkpt><trkpt lat="42.9055353" lon="12.5323755"><ele>252.33333333333331</ele><time>2026-03-28T16:41:03.328Z</time></trkpt><trkpt lat="42.9053649" lon="12.5323337"><ele>251.66666666666669</ele><time>2026-03-28T16:41:04.328Z</time></trkpt><trkpt lat="42.9051924" lon="12.5323043"><ele>251.0</ele><time>2026-03-28T16:41:05.328Z</time></trkpt><trkpt lat="42.9050376" lon="12.532277"><ele>252.0</ele><time>2026-03-28T16:41:06.328Z</time></trkpt><trkpt lat="42.90489" lon="12.5322475"><ele>253.0</ele><time>2026-03-28T16:41:07.328Z</time></trkpt><trkpt lat="42.9047451" lon="12.5322247"><ele>254.0</ele><time>2026-03-28T16:41:08.328Z</time></trkpt><trkpt lat="42.9046092" lon="12.5322082"><ele>255.0</ele><time>2026-03-28T16:41:09.327Z</time></trkpt><trkpt lat="42.9044969" lon="12.5322283"><ele>255.0</ele><time>2026-03-28T16:41:10.327Z</time></trkpt><trkpt lat="42.9043799" lon="12.5322658"><ele>255.0</ele><time>2026-03-28T16:41:11.328Z</time></trkpt><trkpt lat="42.9042648" lon="12.5323218"><ele>255.0</ele><time>2026-03-28T16:41:12.328Z</time></trkpt><trkpt lat="42.9041492" lon="12.532392"><ele>255.0</ele><time>2026-03-28T16:41:13.328Z</time></trkpt><trkpt lat="42.9040324" lon="12.5324686"><ele>255.25</ele><time>2026-03-28T16:41:14.328Z</time></trkpt><trkpt lat="42.9039246" lon="12.5325336"><ele>255.5</ele><time>2026-03-28T16:41:15.328Z</time></trkpt><trkpt lat="42.90382" lon="12.5326012"><ele>255.75</ele><time>2026-03-28T16:41:16.328Z</time></trkpt><trkpt lat="42.9037173" lon="12.5326679"><ele>256.0</ele><time>2026-03-28T16:41:17.327Z</time></trkpt><trkpt lat="42.9036232" lon="12.532729"><ele>256.0</ele><time>2026-03-28T16:41:18.328Z</time></trkpt><trkpt lat="42.9035304" lon="12.5327912"><ele>256.0</ele><time>2026-03-28T16:41:19.328Z</time></trkpt><trkpt lat="42.9034461" lon="12.5328509"><ele>256.0</ele><time>2026-03-28T16:41:20.327Z</time></trkpt><trkpt lat="42.9033628" lon="12.5329041"><ele>256.0</ele><time>2026-03-28T16:41:21.328Z</time></trkpt><trkpt lat="42.9032826" lon="12.5329503"><ele>256.0</ele><time>2026-03-28T16:41:22.328Z</time></trkpt><trkpt lat="42.9032134" lon="12.5329961"><ele>255.49999999999997</ele><time>2026-03-28T16:41:23.327Z</time></trkpt><trkpt lat="42.90315" lon="12.5330357"><ele>255.0</ele><time>2026-03-28T16:41:24.328Z</time></trkpt><trkpt lat="42.9030411" lon="12.5331092"><ele>254.5</ele><time>2026-03-28T16:41:26.328Z</time></trkpt><trkpt lat="42.9029705" lon="12.5331465"><ele>254.0</ele><time>2026-03-28T16:41:28.328Z</time></trkpt><trkpt lat="42.9029129" lon="12.5331897"><ele>253.49999999999997</ele><time>2026-03-28T16:42:05.328Z</time></trkpt><trkpt lat="42.9028301" lon="12.5332375"><ele>253.0</ele><time>2026-03-28T16:42:07.328Z</time></trkpt><trkpt lat="42.9027739" lon="12.5332805"><ele>252.99999999999997</ele><time>2026-03-28T16:42:08.328Z</time></trkpt><trkpt lat="42.9027085" lon="12.533326"><ele>253.0</ele><time>2026-03-28T16:42:09.328Z</time></trkpt><trkpt lat="42.9026359" lon="12.5333723"><ele>253.0</ele><time>2026-03-28T16:42:10.328Z</time></trkpt><trkpt lat="42.9025594" lon="12.5334249"><ele>253.0</ele><time>2026-03-28T16:42:11.328Z</time></trkpt><trkpt lat="42.9024803" lon="12.5334811"><ele>252.99999999999997</ele><time>2026-03-28T16:42:12.328Z</time></trkpt><trkpt lat="42.9023984" lon="12.5335315"><ele>253.0</ele><time>2026-03-28T16:42:13.328Z</time></trkpt><trkpt lat="42.9023071" lon="12.5336013"><ele>253.25</ele><time>2026-03-28T16:42:14.328Z</time></trkpt><trkpt lat="42.9022164" lon="12.5336689"><ele>253.5</ele><time>2026-03-28T16:42:15.328Z</time></trkpt><trkpt lat="42.9021076" lon="12.5337511"><ele>253.75</ele><time>2026-03-28T16:42:16.327Z</time></trkpt><trkpt lat="42.9019991" lon="12.5338344"><ele>254.0</ele><time>2026-03-28T16:42:17.328Z</time></trkpt><trkpt lat="42.9018897" lon="12.5339205"><ele>254.0</ele><time>2026-03-28T16:42:18.328Z</time></trkpt><trkpt lat="42.9017736" lon="12.5340119"><ele>254.0</ele><time>2026-03-28T16:42:19.328Z</time></trkpt><trkpt lat="42.9016638" lon="12.5340992"><ele>254.0</ele><time>2026-03-28T16:42:20.328Z</time></trkpt><trkpt lat="42.9015338" lon="12.5342036"><ele>254.0</ele><time>2026-03-28T16:42:21.327Z</time></trkpt><trkpt lat="42.9014091" lon="12.5343048"><ele>253.0</ele><time>2026-03-28T16:42:22.328Z</time></trkpt><trkpt lat="42.9012951" lon="12.5344007"><ele>252.0</ele><time>2026-03-28T16:42:23.328Z</time></trkpt><trkpt lat="42.9011663" lon="12.5345231"><ele>251.0</ele><time>2026-03-28T16:42:24.328Z</time></trkpt><trkpt lat="42.9010505" lon="12.5346444"><ele>250.0</ele><time>2026-03-28T16:42:25.328Z</time></trkpt><trkpt lat="42.9009208" lon="12.5347847"><ele>251.0</ele><time>2026-03-28T16:42:26.328Z</time></trkpt><trkpt lat="42.9007889" lon="12.5349342"><ele>252.0</ele><time>2026-03-28T16:42:27.327Z</time></trkpt><trkpt lat="42.9006732" lon="12.5350667"><ele>253.0</ele><time>2026-03-28T16:42:28.328Z</time></trkpt><trkpt lat="42.9005427" lon="12.5352234"><ele>253.0</ele><time>2026-03-28T16:42:29.327Z</time></trkpt><trkpt lat="42.9004147" lon="12.5353689"><ele>253.0</ele><time>2026-03-28T16:42:30.328Z</time></trkpt><trkpt lat="42.9003029" lon="12.5355095"><ele>253.0</ele><time>2026-03-28T16:42:31.328Z</time></trkpt><trkpt lat="42.9001759" lon="12.5356737"><ele>253.33333333333331</ele><time>2026-03-28T16:42:32.327Z</time></trkpt><trkpt lat="42.9000774" lon="12.5358516"><ele>253.66666666666669</ele><time>2026-03-28T16:42:33.328Z</time></trkpt><trkpt lat="42.8999974" lon="12.5360366"><ele>254.0</ele><time>2026-03-28T16:42:34.327Z</time></trkpt><trkpt lat="42.8999199" lon="12.5362639"><ele>255.33333333333334</ele><time>2026-03-28T16:42:35.327Z</time></trkpt><trkpt lat="42.8998527" lon="12.5364744"><ele>256.6666666666667</ele><time>2026-03-28T16:42:36.328Z</time></trkpt><trkpt lat="42.8997759" lon="12.5367142"><ele>258.0</ele><time>2026-03-28T16:42:37.328Z</time></trkpt><trkpt lat="42.8996998" lon="12.5369462"><ele>258.3333333333333</ele><time>2026-03-28T16:42:38.327Z</time></trkpt><trkpt lat="42.8996272" lon="12.5371607"><ele>258.66666666666663</ele><time>2026-03-28T16:42:39.327Z</time></trkpt><trkpt lat="42.8995443" lon="12.5374068"><ele>259.0</ele><time>2026-03-28T16:42:40.328Z</time></trkpt><trkpt lat="42.8994567" lon="12.537603"><ele>259.0</ele><time>2026-03-28T16:42:41.327Z</time></trkpt><trkpt lat="42.8993507" lon="12.53779"><ele>259.0</ele><time>2026-03-28T16:42:42.328Z</time></trkpt><trkpt lat="42.8992155" lon="12.537959"><ele>259.0</ele><time>2026-03-28T16:42:43.328Z</time></trkpt><trkpt lat="42.8990842" lon="12.5380986"><ele>258.0</ele><time>2026-03-28T16:42:44.328Z</time></trkpt><trkpt lat="42.8989219" lon="12.5382305"><ele>257.0</ele><time>2026-03-28T16:42:45.328Z</time></trkpt><trkpt lat="42.8987747" lon="12.5383735"><ele>256.0</ele><time>2026-03-28T16:42:46.327Z</time></trkpt><trkpt lat="42.8986404" lon="12.538509"><ele>256.0</ele><time>2026-03-28T16:42:47.328Z</time></trkpt><trkpt lat="42.8984843" lon="12.5386611"><ele>256.0</ele><time>2026-03-28T16:42:48.328Z</time></trkpt><trkpt lat="42.8983403" lon="12.5388085"><ele>256.0</ele><time>2026-03-28T16:42:49.327Z</time></trkpt><trkpt lat="42.8981984" lon="12.5389673"><ele>256.0</ele><time>2026-03-28T16:42:50.327Z</time></trkpt><trkpt lat="42.8980658" lon="12.5391444"><ele>256.0</ele><time>2026-03-28T16:42:51.328Z</time></trkpt><trkpt lat="42.897942" lon="12.5393276"><ele>256.0</ele><time>2026-03-28T16:42:52.328Z</time></trkpt><trkpt lat="42.8978118" lon="12.5395464"><ele>256.66666666666663</ele><time>2026-03-28T16:42:53.327Z</time></trkpt><trkpt lat="42.8976891" lon="12.5397586"><ele>257.3333333333333</ele><time>2026-03-28T16:42:54.328Z</time></trkpt><trkpt lat="42.8975731" lon="12.539953"><ele>258.0</ele><time>2026-03-28T16:42:55.328Z</time></trkpt><trkpt lat="42.8974424" lon="12.5401744"><ele>258.0</ele><time>2026-03-28T16:42:56.328Z</time></trkpt><trkpt lat="42.8973254" lon="12.5403727"><ele>258.0</ele><time>2026-03-28T16:42:57.327Z</time></trkpt><trkpt lat="42.8972" lon="12.5405964"><ele>258.0</ele><time>2026-03-28T16:42:58.328Z</time></trkpt><trkpt lat="42.8970751" lon="12.5408113"><ele>258.0</ele><time>2026-03-28T16:42:59.327Z</time></trkpt><trkpt lat="42.8969574" lon="12.5410156"><ele>258.0</ele><time>2026-03-28T16:43:00.328Z</time></trkpt><trkpt lat="42.8968233" lon="12.5412443"><ele>258.0</ele><time>2026-03-28T16:43:01.328Z</time></trkpt><trkpt lat="42.8967023" lon="12.5414557"><ele>258.0</ele><time>2026-03-28T16:43:02.328Z</time></trkpt><trkpt lat="42.8965885" lon="12.5416523"><ele>258.0</ele><time>2026-03-28T16:43:03.328Z</time></trkpt><trkpt lat="42.8964576" lon="12.5418762"><ele>258.0</ele><time>2026-03-28T16:43:04.328Z</time></trkpt><trkpt lat="42.8963384" lon="12.5420845"><ele>259.0</ele><time>2026-03-28T16:43:05.328Z</time></trkpt><trkpt lat="42.8962201" lon="12.542289"><ele>260.0</ele><time>2026-03-28T16:43:06.327Z</time></trkpt><trkpt lat="42.8961107" lon="12.5424947"><ele>261.0</ele><time>2026-03-28T16:43:07.328Z</time></trkpt><trkpt lat="42.8960128" lon="12.5426686"><ele>260.3333333333333</ele><time>2026-03-28T16:43:08.328Z</time></trkpt><trkpt lat="42.8958989" lon="12.5428579"><ele>259.66666666666663</ele><time>2026-03-28T16:43:09.328Z</time></trkpt><trkpt lat="42.8957916" lon="12.5430257"><ele>259.0</ele><time>2026-03-28T16:43:10.328Z</time></trkpt><trkpt lat="42.8956946" lon="12.5431842"><ele>259.0</ele><time>2026-03-28T16:43:11.328Z</time></trkpt><trkpt lat="42.8955872" lon="12.5433791"><ele>259.0</ele><time>2026-03-28T16:43:12.327Z</time></trkpt><trkpt lat="42.89549" lon="12.5435514"><ele>259.0</ele><time>2026-03-28T16:43:13.328Z</time></trkpt><trkpt lat="42.895385" lon="12.5437329"><ele>258.66666666666663</ele><time>2026-03-28T16:43:14.327Z</time></trkpt><trkpt lat="42.8952715" lon="12.5439262"><ele>258.3333333333333</ele><time>2026-03-28T16:43:15.328Z</time></trkpt><trkpt lat="42.8951722" lon="12.5440988"><ele>258.0</ele><time>2026-03-28T16:43:16.328Z</time></trkpt><trkpt lat="42.8950582" lon="12.5442946"><ele>258.0</ele><time>2026-03-28T16:43:17.328Z</time></trkpt><trkpt lat="42.8949627" lon="12.544485"><ele>258.0</ele><time>2026-03-28T16:43:18.328Z</time></trkpt><trkpt lat="42.8948918" lon="12.5446703"><ele>258.0</ele><time>2026-03-28T16:43:19.327Z</time></trkpt><trkpt lat="42.8948258" lon="12.5448965"><ele>259.0</ele><time>2026-03-28T16:43:20.328Z</time></trkpt><trkpt lat="42.8947716" lon="12.5451186"><ele>260.0</ele><time>2026-03-28T16:43:21.328Z</time></trkpt><trkpt lat="42.8947262" lon="12.5453288"><ele>261.0</ele><time>2026-03-28T16:43:22.328Z</time></trkpt><trkpt lat="42.894665" lon="12.5455543"><ele>262.0</ele><time>2026-03-28T16:43:23.328Z</time></trkpt><trkpt lat="42.8945944" lon="12.5457345"><ele>263.0</ele><time>2026-03-28T16:43:24.328Z</time></trkpt><trkpt lat="42.8944893" lon="12.5459266"><ele>264.0</ele><time>2026-03-28T16:43:25.328Z</time></trkpt><trkpt lat="42.8943717" lon="12.5460915"><ele>263.0</ele><time>2026-03-28T16:43:26.328Z</time></trkpt><trkpt lat="42.8942612" lon="12.5462508"><ele>262.0</ele><time>2026-03-28T16:43:27.327Z</time></trkpt><trkpt lat="42.8941234" lon="12.5464268"><ele>261.0</ele><time>2026-03-28T16:43:28.328Z</time></trkpt><trkpt lat="42.8940056" lon="12.5465784"><ele>261.0</ele><time>2026-03-28T16:43:29.328Z</time></trkpt><trkpt lat="42.893893" lon="12.5467464"><ele>261.0</ele><time>2026-03-28T16:43:30.328Z</time></trkpt><trkpt lat="42.8937897" lon="12.546942"><ele>261.0</ele><time>2026-03-28T16:43:31.327Z</time></trkpt><trkpt lat="42.8937204" lon="12.5471351"><ele>261.0</ele><time>2026-03-28T16:43:32.327Z</time></trkpt><trkpt lat="42.8936532" lon="12.5473733"><ele>261.0</ele><time>2026-03-28T16:43:33.328Z</time></trkpt><trkpt lat="42.8935948" lon="12.5475973"><ele>261.0</ele><time>2026-03-28T16:43:34.327Z</time></trkpt><trkpt lat="42.8935447" lon="12.5478154"><ele>261.3333333333333</ele><time>2026-03-28T16:43:35.328Z</time></trkpt><trkpt lat="42.8934782" lon="12.5480592"><ele>261.66666666666663</ele><time>2026-03-28T16:43:36.327Z</time></trkpt><trkpt lat="42.8934066" lon="12.5482849"><ele>262.0</ele><time>2026-03-28T16:43:37.327Z</time></trkpt><trkpt lat="42.8933257" lon="12.5484993"><ele>262.0</ele><time>2026-03-28T16:43:38.327Z</time></trkpt><trkpt lat="42.8932404" lon="12.5487132"><ele>262.0</ele><time>2026-03-28T16:43:39.328Z</time></trkpt><trkpt lat="42.8931634" lon="12.5489102"><ele>262.0</ele><time>2026-03-28T16:43:40.328Z</time></trkpt><trkpt lat="42.8930941" lon="12.5491425"><ele>262.0</ele><time>2026-03-28T16:43:41.328Z</time></trkpt><trkpt lat="42.8930594" lon="12.5493732"><ele>262.0</ele><time>2026-03-28T16:43:42.328Z</time></trkpt><trkpt lat="42.8930405" lon="12.5496028"><ele>262.0</ele><time>2026-03-28T16:43:43.327Z</time></trkpt><trkpt lat="42.8930268" lon="12.5498694"><ele>262.0</ele><time>2026-03-28T16:43:44.327Z</time></trkpt><trkpt lat="42.8930238" lon="12.55011"><ele>262.0</ele><time>2026-03-28T16:43:45.327Z</time></trkpt><trkpt lat="42.8930194" lon="12.5503895"><ele>262.0</ele><time>2026-03-28T16:43:46.328Z</time></trkpt><trkpt lat="42.8930027" lon="12.5506454"><ele>262.0</ele><time>2026-03-28T16:43:47.328Z</time></trkpt><trkpt lat="42.8929727" lon="12.5508896"><ele>262.0</ele><time>2026-03-28T16:43:48.328Z</time></trkpt><trkpt lat="42.8929221" lon="12.5511568"><ele>262.0</ele><time>2026-03-28T16:43:49.328Z</time></trkpt><trkpt lat="42.8928393" lon="12.5513946"><ele>262.3333333333333</ele><time>2026-03-28T16:43:50.328Z</time></trkpt><trkpt lat="42.8927516" lon="12.5516155"><ele>262.6666666666667</ele><time>2026-03-28T16:43:51.328Z</time></trkpt><trkpt lat="42.8926417" lon="12.5518666"><ele>263.0</ele><time>2026-03-28T16:43:52.328Z</time></trkpt><trkpt lat="42.8925355" lon="12.5520985"><ele>263.0</ele><time>2026-03-28T16:43:53.328Z</time></trkpt><trkpt lat="42.89242" lon="12.5523369"><ele>263.0</ele><time>2026-03-28T16:43:54.328Z</time></trkpt><trkpt lat="42.8923064" lon="12.5525723"><ele>263.0</ele><time>2026-03-28T16:43:55.328Z</time></trkpt><trkpt lat="42.8922039" lon="12.552787"><ele>263.6666666666667</ele><time>2026-03-28T16:43:56.327Z</time></trkpt><trkpt lat="42.8920892" lon="12.5530324"><ele>264.3333333333333</ele><time>2026-03-28T16:43:57.328Z</time></trkpt><trkpt lat="42.8919756" lon="12.5532652"><ele>265.0</ele><time>2026-03-28T16:43:58.327Z</time></trkpt><trkpt lat="42.8918724" lon="12.553487"><ele>264.0</ele><time>2026-03-28T16:43:59.328Z</time></trkpt><trkpt lat="42.8917543" lon="12.553743"><ele>263.0</ele><time>2026-03-28T16:44:00.327Z</time></trkpt><trkpt lat="42.8916493" lon="12.5539725"><ele>262.0</ele><time>2026-03-28T16:44:01.327Z</time></trkpt><trkpt lat="42.891537" lon="12.554226"><ele>262.0</ele><time>2026-03-28T16:44:02.328Z</time></trkpt><trkpt lat="42.8914214" lon="12.5544957"><ele>262.0</ele><time>2026-03-28T16:44:03.328Z</time></trkpt><trkpt lat="42.8913272" lon="12.5547246"><ele>262.0</ele><time>2026-03-28T16:44:04.328Z</time></trkpt><trkpt lat="42.8912258" lon="12.5549682"><ele>262.66666666666663</ele><time>2026-03-28T16:44:05.328Z</time></trkpt><trkpt lat="42.8911336" lon="12.5551804"><ele>263.3333333333333</ele><time>2026-03-28T16:44:06.328Z</time></trkpt><trkpt lat="42.8910545" lon="12.5553611"><ele>264.0</ele><time>2026-03-28T16:44:07.327Z</time></trkpt><trkpt lat="42.8909705" lon="12.5555581"><ele>263.75</ele><time>2026-03-28T16:44:08.328Z</time></trkpt><trkpt lat="42.8908951" lon="12.5557349"><ele>263.5</ele><time>2026-03-28T16:44:09.328Z</time></trkpt><trkpt lat="42.8908305" lon="12.5558998"><ele>263.25</ele><time>2026-03-28T16:44:10.328Z</time></trkpt><trkpt lat="42.8907559" lon="12.5560897"><ele>263.0</ele><time>2026-03-28T16:44:11.328Z</time></trkpt><trkpt lat="42.8906882" lon="12.5562644"><ele>265.0</ele><time>2026-03-28T16:44:12.328Z</time></trkpt><trkpt lat="42.8906073" lon="12.5564706"><ele>267.0</ele><time>2026-03-28T16:44:13.328Z</time></trkpt><trkpt lat="42.8905312" lon="12.5566752"><ele>269.0</ele><time>2026-03-28T16:44:14.328Z</time></trkpt><trkpt lat="42.8904619" lon="12.5568738"><ele>270.6666666666667</ele><time>2026-03-28T16:44:15.328Z</time></trkpt><trkpt lat="42.8903837" lon="12.557113"><ele>272.3333333333333</ele><time>2026-03-28T16:44:16.328Z</time></trkpt><trkpt lat="42.8903161" lon="12.5573223"><ele>274.0</ele><time>2026-03-28T16:44:17.328Z</time></trkpt><trkpt lat="42.8902438" lon="12.5575639"><ele>274.0</ele><time>2026-03-28T16:44:18.328Z</time></trkpt><trkpt lat="42.8901614" lon="12.5578366"><ele>274.0</ele><time>2026-03-28T16:44:19.328Z</time></trkpt><trkpt lat="42.8900815" lon="12.5580824"><ele>274.0</ele><time>2026-03-28T16:44:20.327Z</time></trkpt><trkpt lat="42.8899863" lon="12.5583586"><ele>271.66666666666663</ele><time>2026-03-28T16:44:21.327Z</time></trkpt><trkpt lat="42.8898956" lon="12.5586138"><ele>269.3333333333333</ele><time>2026-03-28T16:44:22.328Z</time></trkpt><trkpt lat="42.8898136" lon="12.5588594"><ele>267.0</ele><time>2026-03-28T16:44:23.328Z</time></trkpt><trkpt lat="42.8897212" lon="12.559139"><ele>267.0</ele><time>2026-03-28T16:44:24.328Z</time></trkpt><trkpt lat="42.8896345" lon="12.5593936"><ele>267.0</ele><time>2026-03-28T16:44:25.328Z</time></trkpt><trkpt lat="42.8895414" lon="12.55964"><ele>267.0</ele><time>2026-03-28T16:44:26.328Z</time></trkpt><trkpt lat="42.8894237" lon="12.5598711"><ele>267.0</ele><time>2026-03-28T16:44:27.328Z</time></trkpt><trkpt lat="42.8893024" lon="12.5600756"><ele>267.0</ele><time>2026-03-28T16:44:28.327Z</time></trkpt><trkpt lat="42.8891451" lon="12.5602975"><ele>267.0</ele><time>2026-03-28T16:44:29.328Z</time></trkpt><trkpt lat="42.8889927" lon="12.5604888"><ele>267.6666666666667</ele><time>2026-03-28T16:44:30.328Z</time></trkpt><trkpt lat="42.8888478" lon="12.5606547"><ele>268.33333333333337</ele><time>2026-03-28T16:44:31.328Z</time></trkpt><trkpt lat="42.8886921" lon="12.5608465"><ele>269.0</ele><time>2026-03-28T16:44:32.327Z</time></trkpt><trkpt lat="42.8885548" lon="12.5610105"><ele>268.6666666666667</ele><time>2026-03-28T16:44:33.328Z</time></trkpt><trkpt lat="42.8883961" lon="12.5611963"><ele>268.3333333333333</ele><time>2026-03-28T16:44:34.327Z</time></trkpt><trkpt lat="42.888246" lon="12.5613752"><ele>268.0</ele><time>2026-03-28T16:44:35.327Z</time></trkpt><trkpt lat="42.8881104" lon="12.5615481"><ele>268.0</ele><time>2026-03-28T16:44:36.328Z</time></trkpt><trkpt lat="42.8879571" lon="12.5617332"><ele>268.0</ele><time>2026-03-28T16:44:37.328Z</time></trkpt><trkpt lat="42.8878215" lon="12.5618997"><ele>268.0</ele><time>2026-03-28T16:44:38.328Z</time></trkpt><trkpt lat="42.8877015" lon="12.5620471"><ele>268.0</ele><time>2026-03-28T16:44:39.328Z</time></trkpt><trkpt lat="42.8875703" lon="12.5622052"><ele>268.0</ele><time>2026-03-28T16:44:40.328Z</time></trkpt><trkpt lat="42.8874524" lon="12.5623501"><ele>268.0</ele><time>2026-03-28T16:44:41.328Z</time></trkpt><trkpt lat="42.8873328" lon="12.5624908"><ele>268.0</ele><time>2026-03-28T16:44:42.328Z</time></trkpt><trkpt lat="42.8872121" lon="12.5626286"><ele>268.0</ele><time>2026-03-28T16:44:43.328Z</time></trkpt><trkpt lat="42.8871026" lon="12.5627602"><ele>268.0</ele><time>2026-03-28T16:44:44.328Z</time></trkpt><trkpt lat="42.8869824" lon="12.5629047"><ele>268.0</ele><time>2026-03-28T16:44:45.328Z</time></trkpt><trkpt lat="42.8868742" lon="12.5630365"><ele>268.0</ele><time>2026-03-28T16:44:46.328Z</time></trkpt><trkpt lat="42.886773" lon="12.563162"><ele>268.0</ele><time>2026-03-28T16:44:47.328Z</time></trkpt><trkpt lat="42.8866574" lon="12.5633014"><ele>268.0</ele><time>2026-03-28T16:44:48.328Z</time></trkpt><trkpt lat="42.8865554" lon="12.5634249"><ele>268.0</ele><time>2026-03-28T16:44:49.328Z</time></trkpt><trkpt lat="42.8864451" lon="12.5635603"><ele>268.0</ele><time>2026-03-28T16:44:50.328Z</time></trkpt><trkpt lat="42.8863277" lon="12.5637026"><ele>268.0</ele><time>2026-03-28T16:44:51.328Z</time></trkpt><trkpt lat="42.8862247" lon="12.5638396"><ele>268.0</ele><time>2026-03-28T16:44:52.328Z</time></trkpt><trkpt lat="42.886094" lon="12.5640096"><ele>267.66666666666663</ele><time>2026-03-28T16:44:53.328Z</time></trkpt><trkpt lat="42.8859538" lon="12.564186"><ele>267.3333333333333</ele><time>2026-03-28T16:44:54.328Z</time></trkpt><trkpt lat="42.8858172" lon="12.5643512"><ele>267.0</ele><time>2026-03-28T16:44:55.328Z</time></trkpt><trkpt lat="42.8856499" lon="12.5645392"><ele>267.0</ele><time>2026-03-28T16:44:56.328Z</time></trkpt><trkpt lat="42.8854934" lon="12.5647186"><ele>267.0</ele><time>2026-03-28T16:44:57.327Z</time></trkpt><trkpt lat="42.8853477" lon="12.5648852"><ele>267.0</ele><time>2026-03-28T16:44:58.328Z</time></trkpt><trkpt lat="42.8851855" lon="12.5650778"><ele>267.6666666666667</ele><time>2026-03-28T16:44:59.328Z</time></trkpt><trkpt lat="42.8850493" lon="12.5652413"><ele>268.33333333333337</ele><time>2026-03-28T16:45:00.327Z</time></trkpt><trkpt lat="42.884897" lon="12.5654213"><ele>269.0</ele><time>2026-03-28T16:45:01.327Z</time></trkpt><trkpt lat="42.8847563" lon="12.5655871"><ele>269.0</ele><time>2026-03-28T16:45:02.328Z</time></trkpt><trkpt lat="42.8846295" lon="12.5657445"><ele>269.0</ele><time>2026-03-28T16:45:03.328Z</time></trkpt><trkpt lat="42.8845004" lon="12.5659344"><ele>269.0</ele><time>2026-03-28T16:45:04.328Z</time></trkpt><trkpt lat="42.8843966" lon="12.5661107"><ele>269.6666666666667</ele><time>2026-03-28T16:45:05.328Z</time></trkpt><trkpt lat="42.8842952" lon="12.5663045"><ele>270.3333333333333</ele><time>2026-03-28T16:45:06.328Z</time></trkpt><trkpt lat="42.8841981" lon="12.5665169"><ele>271.0</ele><time>2026-03-28T16:45:07.328Z</time></trkpt><trkpt lat="42.8841196" lon="12.5666988"><ele>272.3333333333333</ele><time>2026-03-28T16:45:08.328Z</time></trkpt><trkpt lat="42.884017" lon="12.5668928"><ele>273.6666666666667</ele><time>2026-03-28T16:45:09.328Z</time></trkpt><trkpt lat="42.8839029" lon="12.5670494"><ele>275.0</ele><time>2026-03-28T16:45:10.327Z</time></trkpt><trkpt lat="42.8837756" lon="12.5671615"><ele>276.6666666666667</ele><time>2026-03-28T16:45:11.328Z</time></trkpt><trkpt lat="42.8836146" lon="12.5672471"><ele>278.3333333333333</ele><time>2026-03-28T16:45:12.328Z</time></trkpt><trkpt lat="42.8834559" lon="12.567313"><ele>280.0</ele><time>2026-03-28T16:45:13.327Z</time></trkpt><trkpt lat="42.8832979" lon="12.5673616"><ele>281.75</ele><time>2026-03-28T16:45:14.327Z</time></trkpt><trkpt lat="42.8831492" lon="12.5674106"><ele>283.5</ele><time>2026-03-28T16:45:15.328Z</time></trkpt><trkpt lat="42.8830204" lon="12.567453"><ele>285.25</ele><time>2026-03-28T16:45:16.328Z</time></trkpt><trkpt lat="42.8828878" lon="12.5674964"><ele>287.0</ele><time>2026-03-28T16:45:17.328Z</time></trkpt><trkpt lat="42.8827729" lon="12.5675313"><ele>287.0</ele><time>2026-03-28T16:45:18.328Z</time></trkpt><trkpt lat="42.8826809" lon="12.5675582"><ele>287.0</ele><time>2026-03-28T16:45:19.328Z</time></trkpt><trkpt lat="42.8825855" lon="12.5675885"><ele>287.0</ele><time>2026-03-28T16:45:20.328Z</time></trkpt><trkpt lat="42.8825145" lon="12.567615"><ele>287.0</ele><time>2026-03-28T16:45:21.328Z</time></trkpt><trkpt lat="42.8824446" lon="12.5676415"><ele>287.0</ele><time>2026-03-28T16:45:22.328Z</time></trkpt><trkpt lat="42.8823582" lon="12.5676992"><ele>287.0</ele><time>2026-03-28T16:45:24.328Z</time></trkpt><trkpt lat="42.8823324" lon="12.5678001"><ele>287.6</ele><time>2026-03-28T16:45:31.327Z</time></trkpt><trkpt lat="42.882401" lon="12.5678925"><ele>288.2</ele><time>2026-03-28T16:45:33.328Z</time></trkpt><trkpt lat="42.8824732" lon="12.5679426"><ele>288.8</ele><time>2026-03-28T16:45:34.328Z</time></trkpt><trkpt lat="42.8825484" lon="12.567989"><ele>289.4</ele><time>2026-03-28T16:45:35.328Z</time></trkpt><trkpt lat="42.8826382" lon="12.5680458"><ele>290.0</ele><time>2026-03-28T16:45:36.328Z</time></trkpt><trkpt lat="42.8827217" lon="12.5681055"><ele>290.0</ele><time>2026-03-28T16:45:37.328Z</time></trkpt><trkpt lat="42.8828233" lon="12.5681652"><ele>290.0</ele><time>2026-03-28T16:45:38.328Z</time></trkpt><trkpt lat="42.8829304" lon="12.5682367"><ele>290.0</ele><time>2026-03-28T16:45:39.327Z</time></trkpt><trkpt lat="42.8830188" lon="12.5683105"><ele>290.0</ele><time>2026-03-28T16:45:40.328Z</time></trkpt><trkpt lat="42.8831001" lon="12.568415"><ele>290.0</ele><time>2026-03-28T16:45:41.328Z</time></trkpt><trkpt lat="42.8831535" lon="12.5685361"><ele>290.0</ele><time>2026-03-28T16:45:42.327Z</time></trkpt><trkpt lat="42.8831916" lon="12.5686767"><ele>290.0</ele><time>2026-03-28T16:45:43.328Z</time></trkpt><trkpt lat="42.8832166" lon="12.568857"><ele>290.0</ele><time>2026-03-28T16:45:44.328Z</time></trkpt><trkpt lat="42.8832329" lon="12.5690423"><ele>290.0</ele><time>2026-03-28T16:45:45.328Z</time></trkpt><trkpt lat="42.8832484" lon="12.5692245"><ele>290.75</ele><time>2026-03-28T16:45:46.328Z</time></trkpt><trkpt lat="42.8832672" lon="12.5694366"><ele>291.5</ele><time>2026-03-28T16:45:47.328Z</time></trkpt><trkpt lat="42.8832821" lon="12.5696222"><ele>292.25</ele><time>2026-03-28T16:45:48.328Z</time></trkpt><trkpt lat="42.8832977" lon="12.5698335"><ele>293.0</ele><time>2026-03-28T16:45:49.328Z</time></trkpt><trkpt lat="42.8833127" lon="12.5700407"><ele>293.33333333333337</ele><time>2026-03-28T16:45:50.328Z</time></trkpt><trkpt lat="42.8833241" lon="12.5702407"><ele>293.6666666666667</ele><time>2026-03-28T16:45:51.328Z</time></trkpt><trkpt lat="42.8833408" lon="12.5704711"><ele>294.0</ele><time>2026-03-28T16:45:52.328Z</time></trkpt><trkpt lat="42.8833537" lon="12.570677"><ele>294.0</ele><time>2026-03-28T16:45:53.328Z</time></trkpt><trkpt lat="42.8833691" lon="12.570907"><ele>294.0</ele><time>2026-03-28T16:45:54.327Z</time></trkpt><trkpt lat="42.8833925" lon="12.5711606"><ele>294.0</ele><time>2026-03-28T16:45:55.328Z</time></trkpt><trkpt lat="42.8834118" lon="12.5713854"><ele>293.6666666666667</ele><time>2026-03-28T16:45:56.327Z</time></trkpt><trkpt lat="42.883429" lon="12.5716393"><ele>293.33333333333337</ele><time>2026-03-28T16:45:57.328Z</time></trkpt><trkpt lat="42.8834463" lon="12.5718817"><ele>293.0</ele><time>2026-03-28T16:45:58.328Z</time></trkpt><trkpt lat="42.8834634" lon="12.5721055"><ele>290.0</ele><time>2026-03-28T16:45:59.328Z</time></trkpt><trkpt lat="42.8834836" lon="12.5723589"><ele>287.0</ele><time>2026-03-28T16:46:00.328Z</time></trkpt><trkpt lat="42.8834996" lon="12.5725893"><ele>284.0</ele><time>2026-03-28T16:46:01.328Z</time></trkpt><trkpt lat="42.8835204" lon="12.5728109"><ele>283.0</ele><time>2026-03-28T16:46:02.327Z</time></trkpt><trkpt lat="42.8835454" lon="12.5730236"><ele>282.0</ele><time>2026-03-28T16:46:03.328Z</time></trkpt><trkpt lat="42.8835554" lon="12.5732148"><ele>281.0</ele><time>2026-03-28T16:46:04.328Z</time></trkpt><trkpt lat="42.8835748" lon="12.5734215"><ele>281.0</ele><time>2026-03-28T16:46:05.327Z</time></trkpt><trkpt lat="42.8835871" lon="12.573606"><ele>281.0</ele><time>2026-03-28T16:46:06.327Z</time></trkpt><trkpt lat="42.8835922" lon="12.5737782"><ele>281.0</ele><time>2026-03-28T16:46:07.328Z</time></trkpt><trkpt lat="42.8835772" lon="12.5739794"><ele>281.0</ele><time>2026-03-28T16:46:08.328Z</time></trkpt><trkpt lat="42.8835492" lon="12.5741573"><ele>280.25</ele><time>2026-03-28T16:46:09.328Z</time></trkpt><trkpt lat="42.88351" lon="12.5743643"><ele>279.5</ele><time>2026-03-28T16:46:10.327Z</time></trkpt><trkpt lat="42.8834661" lon="12.5745611"><ele>278.75</ele><time>2026-03-28T16:46:11.328Z</time></trkpt><trkpt lat="42.8834207" lon="12.5747436"><ele>278.0</ele><time>2026-03-28T16:46:12.328Z</time></trkpt><trkpt lat="42.8833645" lon="12.5749588"><ele>279.6666666666667</ele><time>2026-03-28T16:46:13.327Z</time></trkpt><trkpt lat="42.8833134" lon="12.5751739"><ele>281.3333333333333</ele><time>2026-03-28T16:46:14.328Z</time></trkpt><trkpt lat="42.8832614" lon="12.5753839"><ele>283.0</ele><time>2026-03-28T16:46:15.327Z</time></trkpt><trkpt lat="42.8831999" lon="12.5756269"><ele>283.0</ele><time>2026-03-28T16:46:16.327Z</time></trkpt><trkpt lat="42.8831463" lon="12.5758595"><ele>283.0</ele><time>2026-03-28T16:46:17.327Z</time></trkpt><trkpt lat="42.8830887" lon="12.5760858"><ele>283.0</ele><time>2026-03-28T16:46:18.328Z</time></trkpt><trkpt lat="42.8830306" lon="12.5763221"><ele>282.0</ele><time>2026-03-28T16:46:19.328Z</time></trkpt><trkpt lat="42.8829736" lon="12.5765402"><ele>281.0</ele><time>2026-03-28T16:46:20.328Z</time></trkpt><trkpt lat="42.8829133" lon="12.5767979"><ele>280.0</ele><time>2026-03-28T16:46:21.328Z</time></trkpt><trkpt lat="42.8828533" lon="12.577043"><ele>279.66666666666663</ele><time>2026-03-28T16:46:22.328Z</time></trkpt><trkpt lat="42.8827948" lon="12.5772737"><ele>279.3333333333333</ele><time>2026-03-28T16:46:23.327Z</time></trkpt><trkpt lat="42.8827233" lon="12.577543"><ele>279.0</ele><time>2026-03-28T16:46:24.327Z</time></trkpt><trkpt lat="42.8826621" lon="12.5777837"><ele>279.6666666666667</ele><time>2026-03-28T16:46:25.328Z</time></trkpt><trkpt lat="42.8825947" lon="12.57804"><ele>280.33333333333337</ele><time>2026-03-28T16:46:26.328Z</time></trkpt><trkpt lat="42.8825239" lon="12.5783132"><ele>281.0</ele><time>2026-03-28T16:46:27.327Z</time></trkpt><trkpt lat="42.882458" lon="12.5785576"><ele>281.0</ele><time>2026-03-28T16:46:28.328Z</time></trkpt><trkpt lat="42.8823845" lon="12.5788344"><ele>281.0</ele><time>2026-03-28T16:46:29.328Z</time></trkpt><trkpt lat="42.8823188" lon="12.5790989"><ele>281.0</ele><time>2026-03-28T16:46:30.328Z</time></trkpt><trkpt lat="42.8822593" lon="12.579344"><ele>281.6666666666667</ele><time>2026-03-28T16:46:31.328Z</time></trkpt><trkpt lat="42.8821921" lon="12.5796228"><ele>282.3333333333333</ele><time>2026-03-28T16:46:32.328Z</time></trkpt><trkpt lat="42.8821233" lon="12.5798788"><ele>283.0</ele><time>2026-03-28T16:46:33.327Z</time></trkpt><trkpt lat="42.8820556" lon="12.5801127"><ele>282.66666666666663</ele><time>2026-03-28T16:46:34.328Z</time></trkpt><trkpt lat="42.8819748" lon="12.5803763"><ele>282.3333333333333</ele><time>2026-03-28T16:46:35.327Z</time></trkpt><trkpt lat="42.8818962" lon="12.5806088"><ele>282.0</ele><time>2026-03-28T16:46:36.328Z</time></trkpt><trkpt lat="42.8817944" lon="12.5808618"><ele>282.3333333333333</ele><time>2026-03-28T16:46:37.328Z</time></trkpt><trkpt lat="42.8816944" lon="12.5810945"><ele>282.66666666666663</ele><time>2026-03-28T16:46:38.328Z</time></trkpt><trkpt lat="42.8816005" lon="12.5813078"><ele>283.0</ele><time>2026-03-28T16:46:39.327Z</time></trkpt><trkpt lat="42.8814971" lon="12.5815425"><ele>283.0</ele><time>2026-03-28T16:46:40.328Z</time></trkpt><trkpt lat="42.8814034" lon="12.5817311"><ele>283.0</ele><time>2026-03-28T16:46:41.328Z</time></trkpt><trkpt lat="42.8813228" lon="12.5819371"><ele>283.0</ele><time>2026-03-28T16:46:42.328Z</time></trkpt><trkpt lat="42.8812638" lon="12.5821633"><ele>283.0</ele><time>2026-03-28T16:46:43.328Z</time></trkpt><trkpt lat="42.8812287" lon="12.5823669"><ele>283.0</ele><time>2026-03-28T16:46:44.327Z</time></trkpt><trkpt lat="42.881203" lon="12.582609"><ele>283.0</ele><time>2026-03-28T16:46:45.328Z</time></trkpt><trkpt lat="42.8811801" lon="12.5828511"><ele>283.66666666666663</ele><time>2026-03-28T16:46:46.328Z</time></trkpt><trkpt lat="42.8811624" lon="12.5830926"><ele>284.3333333333333</ele><time>2026-03-28T16:46:47.328Z</time></trkpt><trkpt lat="42.8811404" lon="12.583382"><ele>285.0</ele><time>2026-03-28T16:46:48.328Z</time></trkpt><trkpt lat="42.8811241" lon="12.5836665"><ele>285.0</ele><time>2026-03-28T16:46:49.328Z</time></trkpt><trkpt lat="42.8811056" lon="12.5839507"><ele>285.0</ele><time>2026-03-28T16:46:50.328Z</time></trkpt><trkpt lat="42.881085" lon="12.5842395"><ele>285.0</ele><time>2026-03-28T16:46:51.328Z</time></trkpt><trkpt lat="42.8810675" lon="12.5845072"><ele>285.6666666666667</ele><time>2026-03-28T16:46:52.327Z</time></trkpt><trkpt lat="42.8810458" lon="12.5848184"><ele>286.33333333333337</ele><time>2026-03-28T16:46:53.328Z</time></trkpt><trkpt lat="42.8810255" lon="12.5851112"><ele>287.0</ele><time>2026-03-28T16:46:54.328Z</time></trkpt><trkpt lat="42.8810066" lon="12.5853887"><ele>288.33333333333337</ele><time>2026-03-28T16:46:55.327Z</time></trkpt><trkpt lat="42.8809814" lon="12.5857022"><ele>289.6666666666667</ele><time>2026-03-28T16:46:56.327Z</time></trkpt><trkpt lat="42.88096" lon="12.5859789"><ele>291.0</ele><time>2026-03-28T16:46:57.328Z</time></trkpt><trkpt lat="42.8809368" lon="12.5862908"><ele>291.3333333333333</ele><time>2026-03-28T16:46:58.328Z</time></trkpt><trkpt lat="42.8809146" lon="12.5865799"><ele>291.66666666666663</ele><time>2026-03-28T16:46:59.328Z</time></trkpt><trkpt lat="42.8808931" lon="12.5868445"><ele>292.0</ele><time>2026-03-28T16:47:00.327Z</time></trkpt><trkpt lat="42.8808675" lon="12.5871189"><ele>293.0</ele><time>2026-03-28T16:47:01.328Z</time></trkpt><trkpt lat="42.8808531" lon="12.5873535"><ele>294.0</ele><time>2026-03-28T16:47:02.328Z</time></trkpt><trkpt lat="42.880845" lon="12.5875496"><ele>295.0</ele><time>2026-03-28T16:47:03.327Z</time></trkpt><trkpt lat="42.8808563" lon="12.5877511"><ele>296.25</ele><time>2026-03-28T16:47:04.328Z</time></trkpt><trkpt lat="42.8808915" lon="12.5879211"><ele>297.5</ele><time>2026-03-28T16:47:05.327Z</time></trkpt><trkpt lat="42.8809453" lon="12.5880585"><ele>298.75</ele><time>2026-03-28T16:47:06.328Z</time></trkpt><trkpt lat="42.8810214" lon="12.5881743"><ele>300.0</ele><time>2026-03-28T16:47:07.328Z</time></trkpt><trkpt lat="42.8811216" lon="12.5882422"><ele>301.0</ele><time>2026-03-28T16:47:08.328Z</time></trkpt><trkpt lat="42.8812486" lon="12.588304"><ele>302.0</ele><time>2026-03-28T16:47:09.328Z</time></trkpt><trkpt lat="42.8813859" lon="12.5883531"><ele>303.0</ele><time>2026-03-28T16:47:10.328Z</time></trkpt><trkpt lat="42.8815274" lon="12.5883979"><ele>304.0</ele><time>2026-03-28T16:47:11.328Z</time></trkpt><trkpt lat="42.8816943" lon="12.5884526"><ele>307.0</ele><time>2026-03-28T16:47:12.328Z</time></trkpt><trkpt lat="42.8818396" lon="12.5885067"><ele>310.0</ele><time>2026-03-28T16:47:13.327Z</time></trkpt><trkpt lat="42.8819851" lon="12.5885675"><ele>313.0</ele><time>2026-03-28T16:47:14.328Z</time></trkpt><trkpt lat="42.8821227" lon="12.588639"><ele>311.75</ele><time>2026-03-28T16:47:15.328Z</time></trkpt><trkpt lat="42.8822306" lon="12.5887256"><ele>310.5</ele><time>2026-03-28T16:47:16.327Z</time></trkpt><trkpt lat="42.8823361" lon="12.5888533"><ele>309.25</ele><time>2026-03-28T16:47:17.328Z</time></trkpt><trkpt lat="42.8824249" lon="12.5889999"><ele>308.0</ele><time>2026-03-28T16:47:18.328Z</time></trkpt><trkpt lat="42.8824912" lon="12.5891549"><ele>308.0</ele><time>2026-03-28T16:47:19.328Z</time></trkpt><trkpt lat="42.8825451" lon="12.5893412"><ele>308.0</ele><time>2026-03-28T16:47:20.328Z</time></trkpt><trkpt lat="42.8825784" lon="12.5895225"><ele>308.0</ele><time>2026-03-28T16:47:21.327Z</time></trkpt><trkpt lat="42.8825832" lon="12.5897118"><ele>308.0</ele><time>2026-03-28T16:47:22.327Z</time></trkpt><trkpt lat="42.8825732" lon="12.5899383"><ele>307.0</ele><time>2026-03-28T16:47:23.328Z</time></trkpt><trkpt lat="42.8825584" lon="12.5901526"><ele>306.0</ele><time>2026-03-28T16:47:24.327Z</time></trkpt><trkpt lat="42.8825381" lon="12.5904107"><ele>305.0</ele><time>2026-03-28T16:47:25.328Z</time></trkpt><trkpt lat="42.8825137" lon="12.5906623"><ele>303.6666666666667</ele><time>2026-03-28T16:47:26.327Z</time></trkpt><trkpt lat="42.8824957" lon="12.5909067"><ele>302.3333333333333</ele><time>2026-03-28T16:47:27.327Z</time></trkpt><trkpt lat="42.8824753" lon="12.591183"><ele>301.0</ele><time>2026-03-28T16:47:28.328Z</time></trkpt><trkpt lat="42.8824533" lon="12.5914375"><ele>299.66666666666663</ele><time>2026-03-28T16:47:29.328Z</time></trkpt><trkpt lat="42.8824292" lon="12.5917119"><ele>298.3333333333333</ele><time>2026-03-28T16:47:30.328Z</time></trkpt><trkpt lat="42.8824085" lon="12.592009"><ele>297.0</ele><time>2026-03-28T16:47:31.327Z</time></trkpt><trkpt lat="42.8823894" lon="12.5922701"><ele>296.0</ele><time>2026-03-28T16:47:32.328Z</time></trkpt><trkpt lat="42.8823688" lon="12.5925589"><ele>295.0</ele><time>2026-03-28T16:47:33.327Z</time></trkpt><trkpt lat="42.8823502" lon="12.5928257"><ele>294.0</ele><time>2026-03-28T16:47:34.328Z</time></trkpt><trkpt lat="42.8823304" lon="12.5930625"><ele>294.0</ele><time>2026-03-28T16:47:35.327Z</time></trkpt><trkpt lat="42.8823052" lon="12.5933175"><ele>294.0</ele><time>2026-03-28T16:47:36.328Z</time></trkpt><trkpt lat="42.8822835" lon="12.5935492"><ele>294.0</ele><time>2026-03-28T16:47:37.328Z</time></trkpt><trkpt lat="42.8822671" lon="12.5937657"><ele>293.5</ele><time>2026-03-28T16:47:38.328Z</time></trkpt><trkpt lat="42.8822551" lon="12.5939585"><ele>293.0</ele><time>2026-03-28T16:47:39.327Z</time></trkpt><trkpt lat="42.8822699" lon="12.5941171"><ele>292.5</ele><time>2026-03-28T16:47:40.328Z</time></trkpt><trkpt lat="42.882297" lon="12.5942711"><ele>292.0</ele><time>2026-03-28T16:47:41.328Z</time></trkpt><trkpt lat="42.8823688" lon="12.5943943"><ele>292.0</ele><time>2026-03-28T16:47:42.328Z</time></trkpt><trkpt lat="42.8824559" lon="12.5944942"><ele>292.0</ele><time>2026-03-28T16:47:43.327Z</time></trkpt><trkpt lat="42.8825678" lon="12.594596"><ele>292.0</ele><time>2026-03-28T16:47:44.328Z</time></trkpt><trkpt lat="42.8826773" lon="12.5946842"><ele>292.0</ele><time>2026-03-28T16:47:45.328Z</time></trkpt><trkpt lat="42.8827982" lon="12.5947461"><ele>291.75</ele><time>2026-03-28T16:47:46.328Z</time></trkpt><trkpt lat="42.8829232" lon="12.5947614"><ele>291.5</ele><time>2026-03-28T16:47:47.328Z</time></trkpt><trkpt lat="42.88303" lon="12.5947156"><ele>291.25</ele><time>2026-03-28T16:47:48.328Z</time></trkpt><trkpt lat="42.8831551" lon="12.5946128"><ele>291.0</ele><time>2026-03-28T16:47:49.327Z</time></trkpt><trkpt lat="42.8832641" lon="12.5944625"><ele>291.0</ele><time>2026-03-28T16:47:50.327Z</time></trkpt><trkpt lat="42.8833668" lon="12.5943075"><ele>291.0</ele><time>2026-03-28T16:47:51.328Z</time></trkpt><trkpt lat="42.8834905" lon="12.5941292"><ele>291.0</ele><time>2026-03-28T16:47:52.328Z</time></trkpt><trkpt lat="42.8836051" lon="12.5939644"><ele>291.0</ele><time>2026-03-28T16:47:53.328Z</time></trkpt><trkpt lat="42.8837084" lon="12.5938217"><ele>291.0</ele><time>2026-03-28T16:47:54.328Z</time></trkpt><trkpt lat="42.8838203" lon="12.5936853"><ele>291.0</ele><time>2026-03-28T16:47:55.328Z</time></trkpt><trkpt lat="42.8839212" lon="12.5935917"><ele>291.0</ele><time>2026-03-28T16:47:56.328Z</time></trkpt><trkpt lat="42.8840469" lon="12.5935328"><ele>291.0</ele><time>2026-03-28T16:47:57.328Z</time></trkpt><trkpt lat="42.8841763" lon="12.5935112"><ele>291.0</ele><time>2026-03-28T16:47:58.327Z</time></trkpt><trkpt lat="42.8843125" lon="12.5935247"><ele>291.0</ele><time>2026-03-28T16:47:59.327Z</time></trkpt><trkpt lat="42.8844651" lon="12.5935742"><ele>291.0</ele><time>2026-03-28T16:48:00.328Z</time></trkpt><trkpt lat="42.884612" lon="12.5936473"><ele>292.3333333333333</ele><time>2026-03-28T16:48:01.328Z</time></trkpt><trkpt lat="42.8847626" lon="12.5937431"><ele>293.66666666666663</ele><time>2026-03-28T16:48:02.328Z</time></trkpt><trkpt lat="42.8849164" lon="12.5938604"><ele>295.0</ele><time>2026-03-28T16:48:03.328Z</time></trkpt><trkpt lat="42.8850423" lon="12.5939783"><ele>295.0</ele><time>2026-03-28T16:48:04.327Z</time></trkpt><trkpt lat="42.8851914" lon="12.5941206"><ele>295.0</ele><time>2026-03-28T16:48:05.327Z</time></trkpt><trkpt lat="42.8853366" lon="12.594266"><ele>295.0</ele><time>2026-03-28T16:48:06.327Z</time></trkpt><trkpt lat="42.8854735" lon="12.5944145"><ele>295.66666666666663</ele><time>2026-03-28T16:48:07.327Z</time></trkpt><trkpt lat="42.8856261" lon="12.5945795"><ele>296.3333333333333</ele><time>2026-03-28T16:48:08.327Z</time></trkpt><trkpt lat="42.8857594" lon="12.5947552"><ele>297.0</ele><time>2026-03-28T16:48:09.328Z</time></trkpt><trkpt lat="42.8858739" lon="12.5949412"><ele>297.0</ele><time>2026-03-28T16:48:10.327Z</time></trkpt><trkpt lat="42.885984" lon="12.5951784"><ele>297.0</ele><time>2026-03-28T16:48:11.328Z</time></trkpt><trkpt lat="42.8860759" lon="12.595404"><ele>297.0</ele><time>2026-03-28T16:48:12.327Z</time></trkpt><trkpt lat="42.8861658" lon="12.5956713"><ele>297.0</ele><time>2026-03-28T16:48:13.328Z</time></trkpt><trkpt lat="42.8862544" lon="12.5959278"><ele>297.0</ele><time>2026-03-28T16:48:14.328Z</time></trkpt><trkpt lat="42.8863297" lon="12.5961583"><ele>297.0</ele><time>2026-03-28T16:48:15.327Z</time></trkpt><trkpt lat="42.8864238" lon="12.5964203"><ele>297.3333333333333</ele><time>2026-03-28T16:48:16.328Z</time></trkpt><trkpt lat="42.8865067" lon="12.5966545"><ele>297.66666666666663</ele><time>2026-03-28T16:48:17.328Z</time></trkpt><trkpt lat="42.8866004" lon="12.5969072"><ele>298.0</ele><time>2026-03-28T16:48:18.328Z</time></trkpt><trkpt lat="42.8866791" lon="12.5971258"><ele>299.0</ele><time>2026-03-28T16:48:19.327Z</time></trkpt><trkpt lat="42.8867502" lon="12.5973124"><ele>300.0</ele><time>2026-03-28T16:48:20.327Z</time></trkpt><trkpt lat="42.8868408" lon="12.5974893"><ele>301.0</ele><time>2026-03-28T16:48:21.327Z</time></trkpt><trkpt lat="42.8869442" lon="12.5976186"><ele>301.0</ele><time>2026-03-28T16:48:22.328Z</time></trkpt><trkpt lat="42.8870508" lon="12.5977093"><ele>301.0</ele><time>2026-03-28T16:48:23.328Z</time></trkpt><trkpt lat="42.8871745" lon="12.597781"><ele>301.0</ele><time>2026-03-28T16:48:24.328Z</time></trkpt><trkpt lat="42.8872878" lon="12.5978283"><ele>301.0</ele><time>2026-03-28T16:48:25.328Z</time></trkpt><trkpt lat="42.8873968" lon="12.5978319"><ele>301.0</ele><time>2026-03-28T16:48:26.327Z</time></trkpt><trkpt lat="42.8874996" lon="12.5977909"><ele>301.0</ele><time>2026-03-28T16:48:27.328Z</time></trkpt><trkpt lat="42.8875839" lon="12.5977099"><ele>301.0</ele><time>2026-03-28T16:48:28.328Z</time></trkpt><trkpt lat="42.8876443" lon="12.5975682"><ele>301.0</ele><time>2026-03-28T16:48:29.328Z</time></trkpt><trkpt lat="42.8876676" lon="12.5974135"><ele>301.0</ele><time>2026-03-28T16:48:30.328Z</time></trkpt><trkpt lat="42.8876725" lon="12.5972536"><ele>305.3333333333333</ele><time>2026-03-28T16:48:31.328Z</time></trkpt><trkpt lat="42.8876652" lon="12.5970479"><ele>309.6666666666667</ele><time>2026-03-28T16:48:32.328Z</time></trkpt><trkpt lat="42.8876558" lon="12.5968571"><ele>314.0</ele><time>2026-03-28T16:48:33.328Z</time></trkpt><trkpt lat="42.8876489" lon="12.5966275"><ele>314.6666666666667</ele><time>2026-03-28T16:48:34.328Z</time></trkpt><trkpt lat="42.8876387" lon="12.5963958"><ele>315.3333333333333</ele><time>2026-03-28T16:48:35.327Z</time></trkpt><trkpt lat="42.8876324" lon="12.5961788"><ele>316.0</ele><time>2026-03-28T16:48:36.327Z</time></trkpt><trkpt lat="42.887618" lon="12.5959379"><ele>316.66666666666663</ele><time>2026-03-28T16:48:37.328Z</time></trkpt><trkpt lat="42.8876041" lon="12.595715"><ele>317.3333333333333</ele><time>2026-03-28T16:48:38.328Z</time></trkpt><trkpt lat="42.887596" lon="12.5955159"><ele>318.0</ele><time>2026-03-28T16:48:39.328Z</time></trkpt><trkpt lat="42.8875965" lon="12.5953103"><ele>318.0</ele><time>2026-03-28T16:48:40.328Z</time></trkpt><trkpt lat="42.8876084" lon="12.5951366"><ele>318.0</ele><time>2026-03-28T16:48:41.328Z</time></trkpt><trkpt lat="42.8876337" lon="12.5949959"><ele>318.0</ele><time>2026-03-28T16:48:42.328Z</time></trkpt><trkpt lat="42.8876858" lon="12.5948501"><ele>318.0</ele><time>2026-03-28T16:48:43.328Z</time></trkpt><trkpt lat="42.8877433" lon="12.5947378"><ele>318.0</ele><time>2026-03-28T16:48:44.327Z</time></trkpt><trkpt lat="42.8878301" lon="12.5946267"><ele>318.0</ele><time>2026-03-28T16:48:45.328Z</time></trkpt><trkpt lat="42.887936" lon="12.594537"><ele>318.0</ele><time>2026-03-28T16:48:46.328Z</time></trkpt><trkpt lat="42.8880505" lon="12.5944715"><ele>318.0</ele><time>2026-03-28T16:48:47.328Z</time></trkpt><trkpt lat="42.8881911" lon="12.5944077"><ele>317.5</ele><time>2026-03-28T16:48:48.328Z</time></trkpt><trkpt lat="42.8883193" lon="12.5943659"><ele>317.0</ele><time>2026-03-28T16:48:49.328Z</time></trkpt><trkpt lat="42.8884651" lon="12.5943408"><ele>316.5</ele><time>2026-03-28T16:48:50.328Z</time></trkpt><trkpt lat="42.8886226" lon="12.5943292"><ele>316.0</ele><time>2026-03-28T16:48:51.327Z</time></trkpt><trkpt lat="42.8887685" lon="12.5943331"><ele>316.0</ele><time>2026-03-28T16:48:52.328Z</time></trkpt><trkpt lat="42.8889384" lon="12.5943607"><ele>316.0</ele><time>2026-03-28T16:48:53.327Z</time></trkpt><trkpt lat="42.889105" lon="12.5944005"><ele>316.0</ele><time>2026-03-28T16:48:54.328Z</time></trkpt><trkpt lat="42.8892629" lon="12.5944458"><ele>319.0</ele><time>2026-03-28T16:48:55.327Z</time></trkpt><trkpt lat="42.8894426" lon="12.5945049"><ele>322.0</ele><time>2026-03-28T16:48:56.328Z</time></trkpt><trkpt lat="42.8896131" lon="12.5945567"><ele>325.0</ele><time>2026-03-28T16:48:57.327Z</time></trkpt><trkpt lat="42.8897862" lon="12.5946164"><ele>325.0</ele><time>2026-03-28T16:48:58.328Z</time></trkpt><trkpt lat="42.889963" lon="12.5946726"><ele>325.0</ele><time>2026-03-28T16:48:59.328Z</time></trkpt><trkpt lat="42.8901306" lon="12.5947325"><ele>325.0</ele><time>2026-03-28T16:49:00.327Z</time></trkpt><trkpt lat="42.8903193" lon="12.5947914"><ele>326.3333333333333</ele><time>2026-03-28T16:49:01.328Z</time></trkpt><trkpt lat="42.890492" lon="12.5948456"><ele>327.6666666666667</ele><time>2026-03-28T16:49:02.328Z</time></trkpt><trkpt lat="42.89064" lon="12.5948983"><ele>329.0</ele><time>2026-03-28T16:49:03.327Z</time></trkpt><trkpt lat="42.8907978" lon="12.5949708"><ele>329.0</ele><time>2026-03-28T16:49:04.328Z</time></trkpt><trkpt lat="42.8909127" lon="12.5950509"><ele>329.0</ele><time>2026-03-28T16:49:05.328Z</time></trkpt><trkpt lat="42.8910442" lon="12.5951791"><ele>329.0</ele><time>2026-03-28T16:49:06.327Z</time></trkpt><trkpt lat="42.8911661" lon="12.5953198"><ele>330.33333333333337</ele><time>2026-03-28T16:49:07.328Z</time></trkpt><trkpt lat="42.8912824" lon="12.5954612"><ele>331.6666666666667</ele><time>2026-03-28T16:49:08.328Z</time></trkpt><trkpt lat="42.891418" lon="12.5956291"><ele>333.0</ele><time>2026-03-28T16:49:09.327Z</time></trkpt><trkpt lat="42.8915478" lon="12.5957961"><ele>333.0</ele><time>2026-03-28T16:49:10.327Z</time></trkpt><trkpt lat="42.8916703" lon="12.5959524"><ele>333.0</ele><time>2026-03-28T16:49:11.327Z</time></trkpt><trkpt lat="42.8918069" lon="12.5961302"><ele>333.0</ele><time>2026-03-28T16:49:12.327Z</time></trkpt><trkpt lat="42.8919334" lon="12.5962948"><ele>335.0</ele><time>2026-03-28T16:49:13.327Z</time></trkpt><trkpt lat="42.8920494" lon="12.5964499"><ele>337.0</ele><time>2026-03-28T16:49:14.328Z</time></trkpt><trkpt lat="42.8921634" lon="12.5965876"><ele>339.0</ele><time>2026-03-28T16:49:15.328Z</time></trkpt><trkpt lat="42.8922816" lon="12.5966932"><ele>339.0</ele><time>2026-03-28T16:49:16.328Z</time></trkpt><trkpt lat="42.8924357" lon="12.5967713"><ele>339.0</ele><time>2026-03-28T16:49:17.328Z</time></trkpt><trkpt lat="42.8925802" lon="12.5968017"><ele>339.0</ele><time>2026-03-28T16:49:18.328Z</time></trkpt><trkpt lat="42.8927305" lon="12.596833"><ele>340.3333333333333</ele><time>2026-03-28T16:49:19.328Z</time></trkpt><trkpt lat="42.8929122" lon="12.5968633"><ele>341.66666666666663</ele><time>2026-03-28T16:49:20.328Z</time></trkpt><trkpt lat="42.8930739" lon="12.5968962"><ele>343.0</ele><time>2026-03-28T16:49:21.328Z</time></trkpt><trkpt lat="42.8932491" lon="12.5969273"><ele>344.0</ele><time>2026-03-28T16:49:22.328Z</time></trkpt><trkpt lat="42.893429" lon="12.5969564"><ele>345.0</ele><time>2026-03-28T16:49:23.328Z</time></trkpt><trkpt lat="42.8935785" lon="12.5969782"><ele>346.0</ele><time>2026-03-28T16:49:24.328Z</time></trkpt><trkpt lat="42.8937408" lon="12.596998"><ele>346.75</ele><time>2026-03-28T16:49:25.328Z</time></trkpt><trkpt lat="42.8938751" lon="12.5970199"><ele>347.5</ele><time>2026-03-28T16:49:26.328Z</time></trkpt><trkpt lat="42.8939878" lon="12.5970511"><ele>348.25</ele><time>2026-03-28T16:49:27.328Z</time></trkpt><trkpt lat="42.8941094" lon="12.597125"><ele>349.0</ele><time>2026-03-28T16:49:28.328Z</time></trkpt><trkpt lat="42.8942081" lon="12.5972282"><ele>349.0</ele><time>2026-03-28T16:49:29.328Z</time></trkpt><trkpt lat="42.8942834" lon="12.5973553"><ele>349.0</ele><time>2026-03-28T16:49:30.328Z</time></trkpt><trkpt lat="42.8943362" lon="12.597528"><ele>349.0</ele><time>2026-03-28T16:49:31.328Z</time></trkpt><trkpt lat="42.8943643" lon="12.5976994"><ele>349.0</ele><time>2026-03-28T16:49:32.327Z</time></trkpt><trkpt lat="42.8943844" lon="12.5979129"><ele>350.0</ele><time>2026-03-28T16:49:33.328Z</time></trkpt><trkpt lat="42.8943935" lon="12.5981233"><ele>351.0</ele><time>2026-03-28T16:49:34.327Z</time></trkpt><trkpt lat="42.8944061" lon="12.5983362"><ele>352.0</ele><time>2026-03-28T16:49:35.327Z</time></trkpt><trkpt lat="42.8944252" lon="12.5985709"><ele>352.3333333333333</ele><time>2026-03-28T16:49:36.328Z</time></trkpt><trkpt lat="42.8944408" lon="12.5987779"><ele>352.6666666666667</ele><time>2026-03-28T16:49:37.328Z</time></trkpt><trkpt lat="42.8944374" lon="12.5989947"><ele>353.0</ele><time>2026-03-28T16:49:38.327Z</time></trkpt><trkpt lat="42.894416" lon="12.5992307"><ele>353.0</ele><time>2026-03-28T16:49:39.327Z</time></trkpt><trkpt lat="42.8943789" lon="12.5994404"><ele>353.0</ele><time>2026-03-28T16:49:40.327Z</time></trkpt><trkpt lat="42.8943258" lon="12.5996822"><ele>353.0</ele><time>2026-03-28T16:49:41.328Z</time></trkpt><trkpt lat="42.8942707" lon="12.5999202"><ele>356.6666666666667</ele><time>2026-03-28T16:49:42.328Z</time></trkpt><trkpt lat="42.894209" lon="12.6001346"><ele>360.3333333333333</ele><time>2026-03-28T16:49:43.327Z</time></trkpt><trkpt lat="42.8941469" lon="12.6003914"><ele>364.0</ele><time>2026-03-28T16:49:44.328Z</time></trkpt><trkpt lat="42.8940981" lon="12.6006356"><ele>365.0</ele><time>2026-03-28T16:49:45.328Z</time></trkpt><trkpt lat="42.894058" lon="12.6008892"><ele>366.0</ele><time>2026-03-28T16:49:46.328Z</time></trkpt><trkpt lat="42.8940339" lon="12.6011564"><ele>367.0</ele><time>2026-03-28T16:49:47.328Z</time></trkpt><trkpt lat="42.8940213" lon="12.6014063"><ele>367.66666666666663</ele><time>2026-03-28T16:49:48.328Z</time></trkpt><trkpt lat="42.8940072" lon="12.6016882"><ele>368.3333333333333</ele><time>2026-03-28T16:49:49.327Z</time></trkpt><trkpt lat="42.8939928" lon="12.6019469"><ele>369.0</ele><time>2026-03-28T16:49:50.328Z</time></trkpt><trkpt lat="42.8939941" lon="12.6021947"><ele>369.6666666666667</ele><time>2026-03-28T16:49:51.328Z</time></trkpt><trkpt lat="42.8939834" lon="12.60248"><ele>370.33333333333337</ele><time>2026-03-28T16:49:52.328Z</time></trkpt><trkpt lat="42.893974" lon="12.602734"><ele>371.0</ele><time>2026-03-28T16:49:53.328Z</time></trkpt><trkpt lat="42.8939677" lon="12.6030235"><ele>372.33333333333337</ele><time>2026-03-28T16:49:54.328Z</time></trkpt><trkpt lat="42.8939609" lon="12.6032871"><ele>373.6666666666667</ele><time>2026-03-28T16:49:55.328Z</time></trkpt><trkpt lat="42.8939525" lon="12.6035216"><ele>375.0</ele><time>2026-03-28T16:49:56.328Z</time></trkpt><trkpt lat="42.8939477" lon="12.6037682"><ele>375.3333333333333</ele><time>2026-03-28T16:49:57.328Z</time></trkpt><trkpt lat="42.8939289" lon="12.6039881"><ele>375.66666666666663</ele><time>2026-03-28T16:49:58.327Z</time></trkpt><trkpt lat="42.8939072" lon="12.6041919"><ele>376.0</ele><time>2026-03-28T16:49:59.328Z</time></trkpt><trkpt lat="42.8938606" lon="12.6044244"><ele>375.3333333333333</ele><time>2026-03-28T16:50:00.328Z</time></trkpt><trkpt lat="42.8937979" lon="12.6046348"><ele>374.6666666666667</ele><time>2026-03-28T16:50:01.328Z</time></trkpt><trkpt lat="42.8937281" lon="12.6048353"><ele>374.0</ele><time>2026-03-28T16:50:02.328Z</time></trkpt><trkpt lat="42.8936505" lon="12.6050516"><ele>374.0</ele><time>2026-03-28T16:50:03.328Z</time></trkpt><trkpt lat="42.8935809" lon="12.6052357"><ele>374.0</ele><time>2026-03-28T16:50:04.328Z</time></trkpt><trkpt lat="42.8935139" lon="12.6054285"><ele>374.0</ele><time>2026-03-28T16:50:05.328Z</time></trkpt><trkpt lat="42.8934739" lon="12.6056027"><ele>374.0</ele><time>2026-03-28T16:50:06.327Z</time></trkpt><trkpt lat="42.8934429" lon="12.6057577"><ele>375.5</ele><time>2026-03-28T16:50:07.328Z</time></trkpt><trkpt lat="42.8934411" lon="12.6059362"><ele>377.0</ele><time>2026-03-28T16:50:08.328Z</time></trkpt><trkpt lat="42.8934683" lon="12.6060949"><ele>378.5</ele><time>2026-03-28T16:50:09.328Z</time></trkpt><trkpt lat="42.8935155" lon="12.606266"><ele>380.0</ele><time>2026-03-28T16:50:10.328Z</time></trkpt><trkpt lat="42.893588" lon="12.6064488"><ele>381.5</ele><time>2026-03-28T16:50:11.328Z</time></trkpt><trkpt lat="42.8936503" lon="12.6066077"><ele>383.0</ele><time>2026-03-28T16:50:12.328Z</time></trkpt><trkpt lat="42.8937348" lon="12.606791"><ele>384.5</ele><time>2026-03-28T16:50:13.328Z</time></trkpt><trkpt lat="42.8938184" lon="12.6069675"><ele>386.0</ele><time>2026-03-28T16:50:14.327Z</time></trkpt><trkpt lat="42.8938998" lon="12.6071301"><ele>388.0</ele><time>2026-03-28T16:50:15.328Z</time></trkpt><trkpt lat="42.8940003" lon="12.6073151"><ele>390.0</ele><time>2026-03-28T16:50:16.328Z</time></trkpt><trkpt lat="42.8940983" lon="12.6074877"><ele>392.0</ele><time>2026-03-28T16:50:17.327Z</time></trkpt><trkpt lat="42.8942058" lon="12.607663"><ele>393.0</ele><time>2026-03-28T16:50:18.328Z</time></trkpt><trkpt lat="42.8943175" lon="12.607839"><ele>394.0</ele><time>2026-03-28T16:50:19.328Z</time></trkpt><trkpt lat="42.8944279" lon="12.6079999"><ele>395.0</ele><time>2026-03-28T16:50:20.327Z</time></trkpt><trkpt lat="42.8945668" lon="12.6081784"><ele>395.0</ele><time>2026-03-28T16:50:21.327Z</time></trkpt><trkpt lat="42.8947066" lon="12.6083373"><ele>395.0</ele><time>2026-03-28T16:50:22.328Z</time></trkpt><trkpt lat="42.8948387" lon="12.6084703"><ele>395.0</ele><time>2026-03-28T16:50:23.328Z</time></trkpt><trkpt lat="42.8949952" lon="12.6086141"><ele>396.0</ele><time>2026-03-28T16:50:24.327Z</time></trkpt><trkpt lat="42.895136" lon="12.6087328"><ele>397.0</ele><time>2026-03-28T16:50:25.328Z</time></trkpt><trkpt lat="42.8952939" lon="12.6088649"><ele>398.0</ele><time>2026-03-28T16:50:26.328Z</time></trkpt><trkpt lat="42.8954407" lon="12.6089794"><ele>398.0</ele><time>2026-03-28T16:50:27.328Z</time></trkpt><trkpt lat="42.8955703" lon="12.6090785"><ele>398.0</ele><time>2026-03-28T16:50:28.328Z</time></trkpt><trkpt lat="42.8957167" lon="12.6091859"><ele>398.0</ele><time>2026-03-28T16:50:29.327Z</time></trkpt><trkpt lat="42.8958612" lon="12.609271"><ele>396.0</ele><time>2026-03-28T16:50:30.328Z</time></trkpt><trkpt lat="42.8960054" lon="12.6093368"><ele>394.0</ele><time>2026-03-28T16:50:31.328Z</time></trkpt><trkpt lat="42.8961719" lon="12.609406"><ele>392.0</ele><time>2026-03-28T16:50:32.328Z</time></trkpt><trkpt lat="42.8963386" lon="12.6094691"><ele>392.3333333333333</ele><time>2026-03-28T16:50:33.328Z</time></trkpt><trkpt lat="42.8965105" lon="12.6095363"><ele>392.66666666666663</ele><time>2026-03-28T16:50:34.328Z</time></trkpt><trkpt lat="42.8966847" lon="12.6096089"><ele>393.0</ele><time>2026-03-28T16:50:35.328Z</time></trkpt><trkpt lat="42.8968471" lon="12.6096792"><ele>393.0</ele><time>2026-03-28T16:50:36.328Z</time></trkpt><trkpt lat="42.8970293" lon="12.6097716"><ele>393.0</ele><time>2026-03-28T16:50:37.328Z</time></trkpt><trkpt lat="42.8971872" lon="12.6098362"><ele>393.0</ele><time>2026-03-28T16:50:38.328Z</time></trkpt><trkpt lat="42.8973269" lon="12.6098796"><ele>393.0</ele><time>2026-03-28T16:50:39.328Z</time></trkpt><trkpt lat="42.897484" lon="12.6098978"><ele>393.0</ele><time>2026-03-28T16:50:40.328Z</time></trkpt><trkpt lat="42.8976195" lon="12.6098743"><ele>393.0</ele><time>2026-03-28T16:50:41.327Z</time></trkpt><trkpt lat="42.8977619" lon="12.6098045"><ele>393.0</ele><time>2026-03-28T16:50:42.328Z</time></trkpt><trkpt lat="42.8979121" lon="12.6096996"><ele>391.33333333333337</ele><time>2026-03-28T16:50:43.328Z</time></trkpt><trkpt lat="42.8980514" lon="12.6095885"><ele>389.6666666666667</ele><time>2026-03-28T16:50:44.328Z</time></trkpt><trkpt lat="42.8982203" lon="12.6094537"><ele>388.0</ele><time>2026-03-28T16:50:45.328Z</time></trkpt><trkpt lat="42.8983788" lon="12.6093166"><ele>386.6666666666667</ele><time>2026-03-28T16:50:46.328Z</time></trkpt><trkpt lat="42.898535" lon="12.6091872"><ele>385.33333333333337</ele><time>2026-03-28T16:50:47.328Z</time></trkpt><trkpt lat="42.8987111" lon="12.6090417"><ele>384.0</ele><time>2026-03-28T16:50:48.328Z</time></trkpt><trkpt lat="42.8988805" lon="12.60889"><ele>384.0</ele><time>2026-03-28T16:50:49.328Z</time></trkpt><trkpt lat="42.8990408" lon="12.608749"><ele>384.0</ele><time>2026-03-28T16:50:50.328Z</time></trkpt><trkpt lat="42.8992305" lon="12.6085905"><ele>384.0</ele><time>2026-03-28T16:50:51.327Z</time></trkpt><trkpt lat="42.8993918" lon="12.6084482"><ele>384.66666666666663</ele><time>2026-03-28T16:50:52.327Z</time></trkpt><trkpt lat="42.8995783" lon="12.6082801"><ele>385.3333333333333</ele><time>2026-03-28T16:50:53.327Z</time></trkpt><trkpt lat="42.8997482" lon="12.6081243"><ele>386.0</ele><time>2026-03-28T16:50:54.328Z</time></trkpt><trkpt lat="42.8999015" lon="12.6079882"><ele>386.0</ele><time>2026-03-28T16:50:55.327Z</time></trkpt><trkpt lat="42.9000764" lon="12.6078355"><ele>386.0</ele><time>2026-03-28T16:50:56.328Z</time></trkpt><trkpt lat="42.9002241" lon="12.6077069"><ele>386.0</ele><time>2026-03-28T16:50:57.328Z</time></trkpt><trkpt lat="42.9003729" lon="12.6075724"><ele>383.66666666666663</ele><time>2026-03-28T16:50:58.328Z</time></trkpt><trkpt lat="42.9005269" lon="12.6074394"><ele>381.3333333333333</ele><time>2026-03-28T16:50:59.328Z</time></trkpt><trkpt lat="42.9006567" lon="12.6073198"><ele>379.0</ele><time>2026-03-28T16:51:00.328Z</time></trkpt><trkpt lat="42.9008066" lon="12.6071967"><ele>377.66666666666663</ele><time>2026-03-28T16:51:01.327Z</time></trkpt><trkpt lat="42.9009546" lon="12.6070974"><ele>376.3333333333333</ele><time>2026-03-28T16:51:02.328Z</time></trkpt><trkpt lat="42.9011081" lon="12.6070231"><ele>375.0</ele><time>2026-03-28T16:51:03.328Z</time></trkpt><trkpt lat="42.901288" lon="12.6069602"><ele>375.0</ele><time>2026-03-28T16:51:04.328Z</time></trkpt><trkpt lat="42.9014628" lon="12.6069186"><ele>375.0</ele><time>2026-03-28T16:51:05.328Z</time></trkpt><trkpt lat="42.9016455" lon="12.6068821"><ele>375.0</ele><time>2026-03-28T16:51:06.328Z</time></trkpt><trkpt lat="42.9018326" lon="12.6068472"><ele>374.0</ele><time>2026-03-28T16:51:07.327Z</time></trkpt><trkpt lat="42.902009" lon="12.6068219"><ele>373.0</ele><time>2026-03-28T16:51:08.328Z</time></trkpt><trkpt lat="42.9022105" lon="12.6067918"><ele>372.0</ele><time>2026-03-28T16:51:09.328Z</time></trkpt><trkpt lat="42.9023978" lon="12.6067662"><ele>372.0</ele><time>2026-03-28T16:51:10.327Z</time></trkpt><trkpt lat="42.9025687" lon="12.6067482"><ele>372.0</ele><time>2026-03-28T16:51:11.328Z</time></trkpt><trkpt lat="42.9027536" lon="12.6067265"><ele>372.0</ele><time>2026-03-28T16:51:12.328Z</time></trkpt><trkpt lat="42.9029099" lon="12.6067077"><ele>370.0</ele><time>2026-03-28T16:51:13.328Z</time></trkpt><trkpt lat="42.9030838" lon="12.6066836"><ele>368.0</ele><time>2026-03-28T16:51:14.328Z</time></trkpt><trkpt lat="42.9032403" lon="12.6066713"><ele>366.0</ele><time>2026-03-28T16:51:15.328Z</time></trkpt><trkpt lat="42.9033842" lon="12.6066818"><ele>367.0</ele><time>2026-03-28T16:51:16.328Z</time></trkpt><trkpt lat="42.9035413" lon="12.6067316"><ele>368.0</ele><time>2026-03-28T16:51:17.328Z</time></trkpt><trkpt lat="42.9036804" lon="12.6068077"><ele>369.0</ele><time>2026-03-28T16:51:18.328Z</time></trkpt><trkpt lat="42.9038069" lon="12.6069011"><ele>367.3333333333333</ele><time>2026-03-28T16:51:19.327Z</time></trkpt><trkpt lat="42.9039473" lon="12.6070244"><ele>365.66666666666663</ele><time>2026-03-28T16:51:20.327Z</time></trkpt><trkpt lat="42.9040831" lon="12.607153"><ele>364.0</ele><time>2026-03-28T16:51:21.327Z</time></trkpt><trkpt lat="42.9042202" lon="12.6072823"><ele>365.0</ele><time>2026-03-28T16:51:22.328Z</time></trkpt><trkpt lat="42.9043618" lon="12.6074161"><ele>366.0</ele><time>2026-03-28T16:51:23.328Z</time></trkpt><trkpt lat="42.9044886" lon="12.6075365"><ele>367.0</ele><time>2026-03-28T16:51:24.328Z</time></trkpt><trkpt lat="42.9046251" lon="12.6076635"><ele>367.0</ele><time>2026-03-28T16:51:25.328Z</time></trkpt><trkpt lat="42.9047519" lon="12.6077749"><ele>367.0</ele><time>2026-03-28T16:51:26.328Z</time></trkpt><trkpt lat="42.9048665" lon="12.6078605"><ele>367.0</ele><time>2026-03-28T16:51:27.328Z</time></trkpt><trkpt lat="42.9049988" lon="12.607932"><ele>367.0</ele><time>2026-03-28T16:51:28.328Z</time></trkpt><trkpt lat="42.9051154" lon="12.6079696"><ele>366.0</ele><time>2026-03-28T16:51:29.327Z</time></trkpt><trkpt lat="42.9052367" lon="12.6079775"><ele>365.0</ele><time>2026-03-28T16:51:30.328Z</time></trkpt><trkpt lat="42.9053613" lon="12.6079515"><ele>364.0</ele><time>2026-03-28T16:51:31.328Z</time></trkpt><trkpt lat="42.9054755" lon="12.6079015"><ele>363.0</ele><time>2026-03-28T16:51:32.327Z</time></trkpt><trkpt lat="42.9056062" lon="12.6078189"><ele>363.0</ele><time>2026-03-28T16:51:33.328Z</time></trkpt><trkpt lat="42.9057269" lon="12.6077141"><ele>363.0</ele><time>2026-03-28T16:51:34.328Z</time></trkpt><trkpt lat="42.9058411" lon="12.6076059"><ele>363.0</ele><time>2026-03-28T16:51:35.328Z</time></trkpt><trkpt lat="42.9059846" lon="12.6074818"><ele>359.0</ele><time>2026-03-28T16:51:36.328Z</time></trkpt><trkpt lat="42.9061169" lon="12.6073554"><ele>355.0</ele><time>2026-03-28T16:51:37.328Z</time></trkpt><trkpt lat="42.9062418" lon="12.6072308"><ele>351.0</ele><time>2026-03-28T16:51:38.327Z</time></trkpt><trkpt lat="42.9063913" lon="12.607101"><ele>351.0</ele><time>2026-03-28T16:51:39.327Z</time></trkpt><trkpt lat="42.9065297" lon="12.6070016"><ele>351.0</ele><time>2026-03-28T16:51:40.328Z</time></trkpt><trkpt lat="42.9066942" lon="12.6069104"><ele>351.0</ele><time>2026-03-28T16:51:41.328Z</time></trkpt><trkpt lat="42.9068493" lon="12.606847"><ele>352.0</ele><time>2026-03-28T16:51:42.328Z</time></trkpt><trkpt lat="42.9069953" lon="12.6068106"><ele>353.0</ele><time>2026-03-28T16:51:43.328Z</time></trkpt><trkpt lat="42.9071582" lon="12.6067893"><ele>354.0</ele><time>2026-03-28T16:51:44.328Z</time></trkpt><trkpt lat="42.9073051" lon="12.6067877"><ele>354.0</ele><time>2026-03-28T16:51:45.327Z</time></trkpt><trkpt lat="42.9074679" lon="12.6067853"><ele>354.0</ele><time>2026-03-28T16:51:46.327Z</time></trkpt><trkpt lat="42.9076072" lon="12.6067869"><ele>354.0</ele><time>2026-03-28T16:51:47.328Z</time></trkpt><trkpt lat="42.9077245" lon="12.606808"><ele>354.0</ele><time>2026-03-28T16:51:48.328Z</time></trkpt><trkpt lat="42.907845" lon="12.6068676"><ele>354.0</ele><time>2026-03-28T16:51:49.328Z</time></trkpt><trkpt lat="42.9079438" lon="12.606948"><ele>354.0</ele><time>2026-03-28T16:51:50.328Z</time></trkpt><trkpt lat="42.9080252" lon="12.6070415"><ele>354.0</ele><time>2026-03-28T16:51:51.328Z</time></trkpt><trkpt lat="42.9081033" lon="12.6071702"><ele>354.0</ele><time>2026-03-28T16:51:52.328Z</time></trkpt><trkpt lat="42.9081546" lon="12.6073136"><ele>354.75</ele><time>2026-03-28T16:51:53.328Z</time></trkpt><trkpt lat="42.9081798" lon="12.6074666"><ele>355.5</ele><time>2026-03-28T16:51:54.328Z</time></trkpt><trkpt lat="42.908194" lon="12.6076278"><ele>356.25</ele><time>2026-03-28T16:51:55.328Z</time></trkpt><trkpt lat="42.9081857" lon="12.6077832"><ele>357.0</ele><time>2026-03-28T16:51:56.328Z</time></trkpt><trkpt lat="42.9081521" lon="12.6079686"><ele>357.0</ele><time>2026-03-28T16:51:57.328Z</time></trkpt><trkpt lat="42.9080957" lon="12.6081494"><ele>357.0</ele><time>2026-03-28T16:51:58.328Z</time></trkpt><trkpt lat="42.9080289" lon="12.6083246"><ele>357.0</ele><time>2026-03-28T16:51:59.328Z</time></trkpt><trkpt lat="42.9079494" lon="12.6085217"><ele>356.0</ele><time>2026-03-28T16:52:00.328Z</time></trkpt><trkpt lat="42.9078804" lon="12.6086944"><ele>355.0</ele><time>2026-03-28T16:52:01.328Z</time></trkpt><trkpt lat="42.9078014" lon="12.6088927"><ele>354.0</ele><time>2026-03-28T16:52:02.328Z</time></trkpt><trkpt lat="42.9077284" lon="12.6090792"><ele>354.0</ele><time>2026-03-28T16:52:03.328Z</time></trkpt><trkpt lat="42.9076599" lon="12.6092423"><ele>354.0</ele><time>2026-03-28T16:52:04.328Z</time></trkpt><trkpt lat="42.9075798" lon="12.6094145"><ele>354.0</ele><time>2026-03-28T16:52:05.327Z</time></trkpt><trkpt lat="42.9074901" lon="12.6095613"><ele>354.0</ele><time>2026-03-28T16:52:06.328Z</time></trkpt><trkpt lat="42.9073927" lon="12.6096827"><ele>352.25</ele><time>2026-03-28T16:52:07.328Z</time></trkpt><trkpt lat="42.9072597" lon="12.6098002"><ele>350.5</ele><time>2026-03-28T16:52:08.328Z</time></trkpt><trkpt lat="42.9071269" lon="12.6098904"><ele>348.75</ele><time>2026-03-28T16:52:09.327Z</time></trkpt><trkpt lat="42.9070077" lon="12.6099635"><ele>347.0</ele><time>2026-03-28T16:52:10.328Z</time></trkpt><trkpt lat="42.9068749" lon="12.6100431"><ele>347.0</ele><time>2026-03-28T16:52:11.327Z</time></trkpt><trkpt lat="42.9067704" lon="12.6101084"><ele>347.0</ele><time>2026-03-28T16:52:12.328Z</time></trkpt><trkpt lat="42.9066622" lon="12.6101896"><ele>347.0</ele><time>2026-03-28T16:52:13.328Z</time></trkpt><trkpt lat="42.9065846" lon="12.6102776"><ele>347.0</ele><time>2026-03-28T16:52:14.328Z</time></trkpt><trkpt lat="42.9065344" lon="12.6103736"><ele>347.0</ele><time>2026-03-28T16:52:15.327Z</time></trkpt><trkpt lat="42.9065139" lon="12.6104894"><ele>345.8</ele><time>2026-03-28T16:52:16.328Z</time></trkpt><trkpt lat="42.9065244" lon="12.6105905"><ele>344.6</ele><time>2026-03-28T16:52:17.328Z</time></trkpt><trkpt lat="42.906566" lon="12.6106952"><ele>343.40000000000003</ele><time>2026-03-28T16:52:18.327Z</time></trkpt><trkpt lat="42.9066485" lon="12.6107782"><ele>342.20000000000005</ele><time>2026-03-28T16:52:19.328Z</time></trkpt><trkpt lat="42.9067386" lon="12.6108199"><ele>341.0</ele><time>2026-03-28T16:52:20.327Z</time></trkpt><trkpt lat="42.9068681" lon="12.6108303"><ele>340.0</ele><time>2026-03-28T16:52:21.328Z</time></trkpt><trkpt lat="42.9069976" lon="12.6108147"><ele>339.0</ele><time>2026-03-28T16:52:22.328Z</time></trkpt><trkpt lat="42.9071304" lon="12.610769"><ele>338.0</ele><time>2026-03-28T16:52:23.328Z</time></trkpt><trkpt lat="42.9072963" lon="12.6107065"><ele>337.0</ele><time>2026-03-28T16:52:24.328Z</time></trkpt><trkpt lat="42.9074576" lon="12.6106432"><ele>334.0</ele><time>2026-03-28T16:52:25.328Z</time></trkpt><trkpt lat="42.9076252" lon="12.6105832"><ele>331.0</ele><time>2026-03-28T16:52:26.328Z</time></trkpt><trkpt lat="42.9077966" lon="12.6105269"><ele>328.0</ele><time>2026-03-28T16:52:27.328Z</time></trkpt><trkpt lat="42.9079658" lon="12.6104815"><ele>328.0</ele><time>2026-03-28T16:52:28.327Z</time></trkpt><trkpt lat="42.9081641" lon="12.6104359"><ele>328.0</ele><time>2026-03-28T16:52:29.327Z</time></trkpt><trkpt lat="42.9083506" lon="12.6103934"><ele>328.0</ele><time>2026-03-28T16:52:30.328Z</time></trkpt><trkpt lat="42.908524" lon="12.6103433"><ele>329.0</ele><time>2026-03-28T16:52:31.328Z</time></trkpt><trkpt lat="42.9087192" lon="12.6102656"><ele>330.0</ele><time>2026-03-28T16:52:32.328Z</time></trkpt><trkpt lat="42.9088908" lon="12.6101819"><ele>331.0</ele><time>2026-03-28T16:52:33.327Z</time></trkpt><trkpt lat="42.9090831" lon="12.6100774"><ele>327.66666666666663</ele><time>2026-03-28T16:52:34.328Z</time></trkpt><trkpt lat="42.9092619" lon="12.6099802"><ele>324.3333333333333</ele><time>2026-03-28T16:52:35.328Z</time></trkpt><trkpt lat="42.9094315" lon="12.6098987"><ele>321.0</ele><time>2026-03-28T16:52:36.327Z</time></trkpt><trkpt lat="42.9096222" lon="12.6098353"><ele>321.0</ele><time>2026-03-28T16:52:37.328Z</time></trkpt><trkpt lat="42.9098196" lon="12.6097924"><ele>321.0</ele><time>2026-03-28T16:52:38.328Z</time></trkpt><trkpt lat="42.9099932" lon="12.6097448"><ele>321.0</ele><time>2026-03-28T16:52:39.328Z</time></trkpt><trkpt lat="42.9101881" lon="12.6096804"><ele>322.0</ele><time>2026-03-28T16:52:40.328Z</time></trkpt><trkpt lat="42.9103591" lon="12.6096012"><ele>323.0</ele><time>2026-03-28T16:52:41.328Z</time></trkpt><trkpt lat="42.9105194" lon="12.6095024"><ele>324.0</ele><time>2026-03-28T16:52:42.328Z</time></trkpt><trkpt lat="42.9106665" lon="12.6093761"><ele>324.0</ele><time>2026-03-28T16:52:43.327Z</time></trkpt><trkpt lat="42.9108012" lon="12.6092709"><ele>324.0</ele><time>2026-03-28T16:52:44.328Z</time></trkpt><trkpt lat="42.9109512" lon="12.6091673"><ele>324.0</ele><time>2026-03-28T16:52:45.327Z</time></trkpt><trkpt lat="42.9110919" lon="12.6090915"><ele>322.75</ele><time>2026-03-28T16:52:46.328Z</time></trkpt><trkpt lat="42.9112261" lon="12.6090536"><ele>321.5</ele><time>2026-03-28T16:52:47.328Z</time></trkpt><trkpt lat="42.9113825" lon="12.6090582"><ele>320.25</ele><time>2026-03-28T16:52:48.328Z</time></trkpt><trkpt lat="42.9115204" lon="12.6091024"><ele>319.0</ele><time>2026-03-28T16:52:49.328Z</time></trkpt><trkpt lat="42.9116561" lon="12.6091738"><ele>317.5</ele><time>2026-03-28T16:52:50.328Z</time></trkpt><trkpt lat="42.9118024" lon="12.6092473"><ele>316.0</ele><time>2026-03-28T16:52:51.327Z</time></trkpt><trkpt lat="42.9119356" lon="12.6092757"><ele>314.5</ele><time>2026-03-28T16:52:52.328Z</time></trkpt><trkpt lat="42.9120889" lon="12.6092642"><ele>313.0</ele><time>2026-03-28T16:52:53.328Z</time></trkpt><trkpt lat="42.9122298" lon="12.6092065"><ele>313.0</ele><time>2026-03-28T16:52:54.328Z</time></trkpt><trkpt lat="42.9123574" lon="12.6091185"><ele>313.0</ele><time>2026-03-28T16:52:55.328Z</time></trkpt><trkpt lat="42.9124906" lon="12.6090076"><ele>313.0</ele><time>2026-03-28T16:52:56.328Z</time></trkpt><trkpt lat="42.9126019" lon="12.6089151"><ele>313.0</ele><time>2026-03-28T16:52:57.328Z</time></trkpt><trkpt lat="42.9127076" lon="12.6088502"><ele>311.4</ele><time>2026-03-28T16:52:58.327Z</time></trkpt><trkpt lat="42.9128072" lon="12.608824"><ele>309.8</ele><time>2026-03-28T16:52:59.327Z</time></trkpt><trkpt lat="42.9128939" lon="12.6088417"><ele>308.2</ele><time>2026-03-28T16:53:00.328Z</time></trkpt><trkpt lat="42.9129799" lon="12.6088957"><ele>306.6</ele><time>2026-03-28T16:53:01.328Z</time></trkpt><trkpt lat="42.9130513" lon="12.608994"><ele>305.0</ele><time>2026-03-28T16:53:02.328Z</time></trkpt><trkpt lat="42.9131038" lon="12.6091161"><ele>305.0</ele><time>2026-03-28T16:53:03.328Z</time></trkpt><trkpt lat="42.9131499" lon="12.6092867"><ele>305.0</ele><time>2026-03-28T16:53:04.328Z</time></trkpt><trkpt lat="42.9131911" lon="12.6094624"><ele>305.0</ele><time>2026-03-28T16:53:05.328Z</time></trkpt><trkpt lat="42.91324" lon="12.6096725"><ele>305.0</ele><time>2026-03-28T16:53:06.328Z</time></trkpt><trkpt lat="42.913288" lon="12.609883"><ele>304.33333333333337</ele><time>2026-03-28T16:53:07.328Z</time></trkpt><trkpt lat="42.9133312" lon="12.6100784"><ele>303.6666666666667</ele><time>2026-03-28T16:53:08.328Z</time></trkpt><trkpt lat="42.913375" lon="12.6103032"><ele>303.0</ele><time>2026-03-28T16:53:09.327Z</time></trkpt><trkpt lat="42.9134214" lon="12.6105076"><ele>301.5</ele><time>2026-03-28T16:53:10.328Z</time></trkpt><trkpt lat="42.9134587" lon="12.6106826"><ele>300.0</ele><time>2026-03-28T16:53:11.327Z</time></trkpt><trkpt lat="42.9135155" lon="12.6108687"><ele>298.5</ele><time>2026-03-28T16:53:12.327Z</time></trkpt><trkpt lat="42.913576" lon="12.6110346"><ele>297.0</ele><time>2026-03-28T16:53:13.328Z</time></trkpt><trkpt lat="42.9136535" lon="12.6111868"><ele>296.0</ele><time>2026-03-28T16:53:14.328Z</time></trkpt><trkpt lat="42.9137529" lon="12.6113318"><ele>295.0</ele><time>2026-03-28T16:53:15.328Z</time></trkpt><trkpt lat="42.9138549" lon="12.6114609"><ele>294.0</ele><time>2026-03-28T16:53:16.328Z</time></trkpt><trkpt lat="42.9139912" lon="12.6115922"><ele>294.0</ele><time>2026-03-28T16:53:17.328Z</time></trkpt><trkpt lat="42.914128" lon="12.6117093"><ele>294.0</ele><time>2026-03-28T16:53:18.328Z</time></trkpt><trkpt lat="42.9142552" lon="12.6118183"><ele>294.0</ele><time>2026-03-28T16:53:19.328Z</time></trkpt><trkpt lat="42.9143947" lon="12.6119369"><ele>292.5</ele><time>2026-03-28T16:53:20.328Z</time></trkpt><trkpt lat="42.914505" lon="12.6120305"><ele>291.0</ele><time>2026-03-28T16:53:21.328Z</time></trkpt><trkpt lat="42.9146105" lon="12.6121165"><ele>289.5</ele><time>2026-03-28T16:53:22.328Z</time></trkpt><trkpt lat="42.9147096" lon="12.6121815"><ele>288.0</ele><time>2026-03-28T16:53:23.327Z</time></trkpt><trkpt lat="42.9147944" lon="12.6122139"><ele>288.0</ele><time>2026-03-28T16:53:24.328Z</time></trkpt><trkpt lat="42.9148933" lon="12.6122151"><ele>288.0</ele><time>2026-03-28T16:53:25.328Z</time></trkpt><trkpt lat="42.9149861" lon="12.6121757"><ele>288.0</ele><time>2026-03-28T16:53:26.328Z</time></trkpt><trkpt lat="42.915058" lon="12.612105"><ele>288.0</ele><time>2026-03-28T16:53:27.327Z</time></trkpt><trkpt lat="42.9151205" lon="12.6119962"><ele>288.0</ele><time>2026-03-28T16:53:28.327Z</time></trkpt><trkpt lat="42.9151572" lon="12.6118665"><ele>285.75</ele><time>2026-03-28T16:53:29.328Z</time></trkpt><trkpt lat="42.9151674" lon="12.6117268"><ele>283.5</ele><time>2026-03-28T16:53:30.328Z</time></trkpt><trkpt lat="42.9151598" lon="12.611549"><ele>281.25</ele><time>2026-03-28T16:53:31.328Z</time></trkpt><trkpt lat="42.9151439" lon="12.6113834"><ele>279.0</ele><time>2026-03-28T16:53:32.328Z</time></trkpt><trkpt lat="42.9151198" lon="12.6111815"><ele>277.5</ele><time>2026-03-28T16:53:33.328Z</time></trkpt><trkpt lat="42.915095" lon="12.6109936"><ele>276.0</ele><time>2026-03-28T16:53:34.328Z</time></trkpt><trkpt lat="42.9150723" lon="12.610824"><ele>274.5</ele><time>2026-03-28T16:53:35.328Z</time></trkpt><trkpt lat="42.9150497" lon="12.610635"><ele>273.0</ele><time>2026-03-28T16:53:36.327Z</time></trkpt><trkpt lat="42.9150338" lon="12.6104856"><ele>272.6</ele><time>2026-03-28T16:53:37.328Z</time></trkpt><trkpt lat="42.9150264" lon="12.6103374"><ele>272.20000000000005</ele><time>2026-03-28T16:53:38.327Z</time></trkpt><trkpt lat="42.9150327" lon="12.6101969"><ele>271.8</ele><time>2026-03-28T16:53:39.328Z</time></trkpt><trkpt lat="42.9150594" lon="12.610088"><ele>271.40000000000003</ele><time>2026-03-28T16:53:40.328Z</time></trkpt><trkpt lat="42.9151241" lon="12.6099979"><ele>271.0</ele><time>2026-03-28T16:53:41.328Z</time></trkpt><trkpt lat="42.9152086" lon="12.6099583"><ele>271.0</ele><time>2026-03-28T16:53:42.328Z</time></trkpt><trkpt lat="42.9152864" lon="12.6099613"><ele>271.0</ele><time>2026-03-28T16:53:43.328Z</time></trkpt><trkpt lat="42.9153682" lon="12.6100158"><ele>271.0</ele><time>2026-03-28T16:53:44.328Z</time></trkpt><trkpt lat="42.9154542" lon="12.6101042"><ele>271.0</ele><time>2026-03-28T16:53:45.327Z</time></trkpt><trkpt lat="42.9155302" lon="12.610233"><ele>271.0</ele><time>2026-03-28T16:53:46.328Z</time></trkpt><trkpt lat="42.9155934" lon="12.6103899"><ele>271.40000000000003</ele><time>2026-03-28T16:53:47.328Z</time></trkpt><trkpt lat="42.9156411" lon="12.6105458"><ele>271.8</ele><time>2026-03-28T16:53:48.328Z</time></trkpt><trkpt lat="42.9156897" lon="12.610705"><ele>272.20000000000005</ele><time>2026-03-28T16:53:49.327Z</time></trkpt><trkpt lat="42.9157441" lon="12.6108247"><ele>272.6</ele><time>2026-03-28T16:53:50.328Z</time></trkpt><trkpt lat="42.915812" lon="12.6109125"><ele>273.0</ele><time>2026-03-28T16:53:51.328Z</time></trkpt><trkpt lat="42.9159114" lon="12.6109846"><ele>271.25</ele><time>2026-03-28T16:53:52.328Z</time></trkpt><trkpt lat="42.9160143" lon="12.6110261"><ele>269.5</ele><time>2026-03-28T16:53:53.327Z</time></trkpt><trkpt lat="42.9161407" lon="12.6110775"><ele>267.75</ele><time>2026-03-28T16:53:54.327Z</time></trkpt><trkpt lat="42.9162529" lon="12.6111415"><ele>266.0</ele><time>2026-03-28T16:53:55.328Z</time></trkpt><trkpt lat="42.9163508" lon="12.6112306"><ele>266.0</ele><time>2026-03-28T16:53:56.328Z</time></trkpt><trkpt lat="42.9164444" lon="12.6113635"><ele>266.0</ele><time>2026-03-28T16:53:57.328Z</time></trkpt><trkpt lat="42.9165501" lon="12.6115328"><ele>266.0</ele><time>2026-03-28T16:53:58.328Z</time></trkpt><trkpt lat="42.9166325" lon="12.6116714"><ele>266.0</ele><time>2026-03-28T16:53:59.328Z</time></trkpt><trkpt lat="42.9167078" lon="12.6118566"><ele>262.0</ele><time>2026-03-28T16:54:00.327Z</time></trkpt><trkpt lat="42.9167643" lon="12.6120424"><ele>258.0</ele><time>2026-03-28T16:54:01.328Z</time></trkpt><trkpt lat="42.9168227" lon="12.6122355"><ele>254.0</ele><time>2026-03-28T16:54:02.328Z</time></trkpt><trkpt lat="42.916879" lon="12.6124481"><ele>254.0</ele><time>2026-03-28T16:54:03.328Z</time></trkpt><trkpt lat="42.9169354" lon="12.6126437"><ele>254.0</ele><time>2026-03-28T16:54:04.328Z</time></trkpt><trkpt lat="42.9170024" lon="12.6128684"><ele>254.0</ele><time>2026-03-28T16:54:05.328Z</time></trkpt><trkpt lat="42.9170585" lon="12.6130777"><ele>254.0</ele><time>2026-03-28T16:54:06.328Z</time></trkpt><trkpt lat="42.9171085" lon="12.613269"><ele>254.0</ele><time>2026-03-28T16:54:07.328Z</time></trkpt><trkpt lat="42.9171672" lon="12.6134752"><ele>254.0</ele><time>2026-03-28T16:54:08.327Z</time></trkpt><trkpt lat="42.9172158" lon="12.6136396"><ele>254.0</ele><time>2026-03-28T16:54:09.328Z</time></trkpt><trkpt lat="42.9172688" lon="12.6137973"><ele>254.75</ele><time>2026-03-28T16:54:10.328Z</time></trkpt><trkpt lat="42.9173383" lon="12.6139541"><ele>255.5</ele><time>2026-03-28T16:54:11.328Z</time></trkpt><trkpt lat="42.9174297" lon="12.6140624"><ele>256.25</ele><time>2026-03-28T16:54:12.327Z</time></trkpt><trkpt lat="42.9175585" lon="12.6141533"><ele>257.0</ele><time>2026-03-28T16:54:13.327Z</time></trkpt><trkpt lat="42.9176906" lon="12.6142037"><ele>254.5</ele><time>2026-03-28T16:54:14.328Z</time></trkpt><trkpt lat="42.9178307" lon="12.6142267"><ele>252.0</ele><time>2026-03-28T16:54:15.328Z</time></trkpt><trkpt lat="42.9179858" lon="12.6142465"><ele>249.5</ele><time>2026-03-28T16:54:16.327Z</time></trkpt><trkpt lat="42.9181363" lon="12.6142655"><ele>247.0</ele><time>2026-03-28T16:54:17.328Z</time></trkpt><trkpt lat="42.918293" lon="12.6142864"><ele>245.66666666666666</ele><time>2026-03-28T16:54:18.328Z</time></trkpt><trkpt lat="42.9184621" lon="12.6143056"><ele>244.33333333333331</ele><time>2026-03-28T16:54:19.328Z</time></trkpt><trkpt lat="42.9186227" lon="12.6143235"><ele>243.0</ele><time>2026-03-28T16:54:20.328Z</time></trkpt><trkpt lat="42.9188107" lon="12.6143372"><ele>243.0</ele><time>2026-03-28T16:54:21.327Z</time></trkpt><trkpt lat="42.9189857" lon="12.6143394"><ele>243.0</ele><time>2026-03-28T16:54:22.328Z</time></trkpt><trkpt lat="42.9191472" lon="12.6143236"><ele>243.0</ele><time>2026-03-28T16:54:23.327Z</time></trkpt><trkpt lat="42.9193285" lon="12.61428"><ele>242.66666666666669</ele><time>2026-03-28T16:54:24.328Z</time></trkpt><trkpt lat="42.9194906" lon="12.6142348"><ele>242.33333333333334</ele><time>2026-03-28T16:54:25.328Z</time></trkpt><trkpt lat="42.9196758" lon="12.614165"><ele>242.0</ele><time>2026-03-28T16:54:26.328Z</time></trkpt><trkpt lat="42.9198574" lon="12.6140994"><ele>242.0</ele><time>2026-03-28T16:54:27.328Z</time></trkpt><trkpt lat="42.9200305" lon="12.6140389"><ele>242.0</ele><time>2026-03-28T16:54:28.327Z</time></trkpt><trkpt lat="42.920224" lon="12.6139634"><ele>242.0</ele><time>2026-03-28T16:54:29.328Z</time></trkpt><trkpt lat="42.9204026" lon="12.6139023"><ele>240.0</ele><time>2026-03-28T16:54:30.328Z</time></trkpt><trkpt lat="42.9205682" lon="12.6138468"><ele>238.0</ele><time>2026-03-28T16:54:31.328Z</time></trkpt><trkpt lat="42.920761" lon="12.6138052"><ele>236.0</ele><time>2026-03-28T16:54:32.328Z</time></trkpt><trkpt lat="42.9209449" lon="12.6137734"><ele>234.66666666666669</ele><time>2026-03-28T16:54:33.328Z</time></trkpt><trkpt lat="42.9211238" lon="12.6137389"><ele>233.33333333333331</ele><time>2026-03-28T16:54:34.328Z</time></trkpt><trkpt lat="42.9213012" lon="12.6137076"><ele>232.0</ele><time>2026-03-28T16:54:35.328Z</time></trkpt><trkpt lat="42.9214631" lon="12.613692"><ele>232.0</ele><time>2026-03-28T16:54:36.327Z</time></trkpt><trkpt lat="42.9216399" lon="12.6136964"><ele>232.0</ele><time>2026-03-28T16:54:37.327Z</time></trkpt><trkpt lat="42.9218029" lon="12.6137196"><ele>232.0</ele><time>2026-03-28T16:54:38.328Z</time></trkpt><trkpt lat="42.9219488" lon="12.6137705"><ele>230.0</ele><time>2026-03-28T16:54:39.327Z</time></trkpt><trkpt lat="42.9221149" lon="12.6138578"><ele>228.0</ele><time>2026-03-28T16:54:40.328Z</time></trkpt><trkpt lat="42.9222592" lon="12.6139538"><ele>226.0</ele><time>2026-03-28T16:54:41.328Z</time></trkpt><trkpt lat="42.9224193" lon="12.6140696"><ele>222.33333333333331</ele><time>2026-03-28T16:54:42.328Z</time></trkpt><trkpt lat="42.9225907" lon="12.6141956"><ele>218.66666666666669</ele><time>2026-03-28T16:54:43.328Z</time></trkpt><trkpt lat="42.9227502" lon="12.6143132"><ele>215.0</ele><time>2026-03-28T16:54:44.328Z</time></trkpt><trkpt lat="42.9229288" lon="12.6144448"><ele>215.0</ele><time>2026-03-28T16:54:45.327Z</time></trkpt><trkpt lat="42.9231016" lon="12.6145748"><ele>215.0</ele><time>2026-03-28T16:54:46.327Z</time></trkpt><trkpt lat="42.9232579" lon="12.6146919"><ele>215.0</ele><time>2026-03-28T16:54:47.328Z</time></trkpt><trkpt lat="42.9234265" lon="12.6148203"><ele>215.0</ele><time>2026-03-28T16:54:48.327Z</time></trkpt><trkpt lat="42.9235796" lon="12.6149404"><ele>215.0</ele><time>2026-03-28T16:54:49.327Z</time></trkpt><trkpt lat="42.9237191" lon="12.6150421"><ele>215.0</ele><time>2026-03-28T16:54:50.327Z</time></trkpt><trkpt lat="42.9238606" lon="12.6151549"><ele>215.0</ele><time>2026-03-28T16:54:51.328Z</time></trkpt><trkpt lat="42.9239838" lon="12.615241"><ele>215.0</ele><time>2026-03-28T16:54:52.327Z</time></trkpt><trkpt lat="42.9241217" lon="12.6153255"><ele>215.0</ele><time>2026-03-28T16:54:53.328Z</time></trkpt><trkpt lat="42.9242578" lon="12.6153845"><ele>215.0</ele><time>2026-03-28T16:54:54.328Z</time></trkpt><trkpt lat="42.9243899" lon="12.6154195"><ele>214.25</ele><time>2026-03-28T16:54:55.327Z</time></trkpt><trkpt lat="42.9245388" lon="12.6154138"><ele>213.5</ele><time>2026-03-28T16:54:56.327Z</time></trkpt><trkpt lat="42.9246709" lon="12.6153758"><ele>212.75</ele><time>2026-03-28T16:54:57.328Z</time></trkpt><trkpt lat="42.9248136" lon="12.6153092"><ele>212.0</ele><time>2026-03-28T16:54:58.328Z</time></trkpt><trkpt lat="42.9249591" lon="12.6151964"><ele>209.66666666666669</ele><time>2026-03-28T16:54:59.328Z</time></trkpt><trkpt lat="42.9251024" lon="12.6150729"><ele>207.33333333333331</ele><time>2026-03-28T16:55:00.327Z</time></trkpt><trkpt lat="42.9252728" lon="12.6149158"><ele>205.0</ele><time>2026-03-28T16:55:01.328Z</time></trkpt><trkpt lat="42.9254418" lon="12.6147685"><ele>205.0</ele><time>2026-03-28T16:55:02.328Z</time></trkpt><trkpt lat="42.9255947" lon="12.6146169"><ele>205.0</ele><time>2026-03-28T16:55:03.327Z</time></trkpt><trkpt lat="42.9257734" lon="12.6144572"><ele>205.0</ele><time>2026-03-28T16:55:04.328Z</time></trkpt><trkpt lat="42.9259399" lon="12.6143038"><ele>205.0</ele><time>2026-03-28T16:55:05.328Z</time></trkpt><trkpt lat="42.9261121" lon="12.6141473"><ele>205.0</ele><time>2026-03-28T16:55:06.328Z</time></trkpt><trkpt lat="42.9262812" lon="12.6139957"><ele>205.0</ele><time>2026-03-28T16:55:07.328Z</time></trkpt><trkpt lat="42.9264398" lon="12.6138496"><ele>205.0</ele><time>2026-03-28T16:55:08.328Z</time></trkpt><trkpt lat="42.9266248" lon="12.6136839"><ele>205.0</ele><time>2026-03-28T16:55:09.328Z</time></trkpt><trkpt lat="42.9267925" lon="12.6135343"><ele>205.0</ele><time>2026-03-28T16:55:10.327Z</time></trkpt><trkpt lat="42.9269452" lon="12.6133996"><ele>204.66666666666666</ele><time>2026-03-28T16:55:11.328Z</time></trkpt><trkpt lat="42.9271116" lon="12.6132548"><ele>204.33333333333331</ele><time>2026-03-28T16:55:12.328Z</time></trkpt><trkpt lat="42.9272504" lon="12.6131284"><ele>204.0</ele><time>2026-03-28T16:55:13.328Z</time></trkpt><trkpt lat="42.9274036" lon="12.6129904"><ele>204.0</ele><time>2026-03-28T16:55:14.327Z</time></trkpt><trkpt lat="42.9275426" lon="12.6128602"><ele>204.0</ele><time>2026-03-28T16:55:15.327Z</time></trkpt><trkpt lat="42.927671" lon="12.6127417"><ele>204.0</ele><time>2026-03-28T16:55:16.328Z</time></trkpt><trkpt lat="42.9278203" lon="12.612611"><ele>203.66666666666669</ele><time>2026-03-28T16:55:17.328Z</time></trkpt><trkpt lat="42.9279525" lon="12.6124875"><ele>203.33333333333334</ele><time>2026-03-28T16:55:18.328Z</time></trkpt><trkpt lat="42.9280756" lon="12.6123729"><ele>203.0</ele><time>2026-03-28T16:55:19.328Z</time></trkpt><trkpt lat="42.9282118" lon="12.6122345"><ele>203.0</ele><time>2026-03-28T16:55:20.328Z</time></trkpt><trkpt lat="42.9283475" lon="12.6121103"><ele>203.0</ele><time>2026-03-28T16:55:21.328Z</time></trkpt><trkpt lat="42.9284793" lon="12.6119879"><ele>203.0</ele><time>2026-03-28T16:55:22.328Z</time></trkpt><trkpt lat="42.928631" lon="12.6118526"><ele>203.33333333333334</ele><time>2026-03-28T16:55:23.327Z</time></trkpt><trkpt lat="42.9287679" lon="12.6117328"><ele>203.66666666666669</ele><time>2026-03-28T16:55:24.327Z</time></trkpt><trkpt lat="42.9289205" lon="12.6115905"><ele>204.0</ele><time>2026-03-28T16:55:25.328Z</time></trkpt><trkpt lat="42.9290645" lon="12.6114555"><ele>204.0</ele><time>2026-03-28T16:55:26.328Z</time></trkpt><trkpt lat="42.9292017" lon="12.6113375"><ele>204.0</ele><time>2026-03-28T16:55:27.328Z</time></trkpt><trkpt lat="42.9293582" lon="12.6112003"><ele>204.0</ele><time>2026-03-28T16:55:28.328Z</time></trkpt><trkpt lat="42.9294988" lon="12.6110769"><ele>203.66666666666669</ele><time>2026-03-28T16:55:29.327Z</time></trkpt><trkpt lat="42.9296437" lon="12.6109461"><ele>203.33333333333334</ele><time>2026-03-28T16:55:30.328Z</time></trkpt><trkpt lat="42.929796" lon="12.6108058"><ele>203.0</ele><time>2026-03-28T16:55:31.328Z</time></trkpt><trkpt lat="42.9299273" lon="12.6106959"><ele>203.0</ele><time>2026-03-28T16:55:32.328Z</time></trkpt><trkpt lat="42.9300655" lon="12.6105733"><ele>203.0</ele><time>2026-03-28T16:55:33.328Z</time></trkpt><trkpt lat="42.9301888" lon="12.6104724"><ele>203.0</ele><time>2026-03-28T16:55:34.328Z</time></trkpt><trkpt lat="42.9302933" lon="12.6103694"><ele>203.0</ele><time>2026-03-28T16:55:35.327Z</time></trkpt><trkpt lat="42.9304123" lon="12.610266"><ele>203.4</ele><time>2026-03-28T16:55:36.328Z</time></trkpt><trkpt lat="42.9305167" lon="12.6101736"><ele>203.8</ele><time>2026-03-28T16:55:37.328Z</time></trkpt><trkpt lat="42.9306183" lon="12.6100938"><ele>204.2</ele><time>2026-03-28T16:55:38.328Z</time></trkpt><trkpt lat="42.9307181" lon="12.6100271"><ele>204.6</ele><time>2026-03-28T16:55:39.328Z</time></trkpt><trkpt lat="42.9308113" lon="12.6099974"><ele>205.0</ele><time>2026-03-28T16:55:40.328Z</time></trkpt><trkpt lat="42.9309191" lon="12.6099957"><ele>205.0</ele><time>2026-03-28T16:55:41.328Z</time></trkpt><trkpt lat="42.9310177" lon="12.610021"><ele>205.0</ele><time>2026-03-28T16:55:42.328Z</time></trkpt><trkpt lat="42.9311127" lon="12.6100769"><ele>205.0</ele><time>2026-03-28T16:55:43.327Z</time></trkpt><trkpt lat="42.9312276" lon="12.6101368"><ele>205.0</ele><time>2026-03-28T16:55:44.328Z</time></trkpt><trkpt lat="42.9313387" lon="12.6101977"><ele>205.0</ele><time>2026-03-28T16:55:45.328Z</time></trkpt><trkpt lat="42.9314698" lon="12.6102722"><ele>204.66666666666666</ele><time>2026-03-28T16:55:46.328Z</time></trkpt><trkpt lat="42.9315997" lon="12.6103475"><ele>204.33333333333331</ele><time>2026-03-28T16:55:47.328Z</time></trkpt><trkpt lat="42.9317318" lon="12.610422"><ele>204.0</ele><time>2026-03-28T16:55:48.327Z</time></trkpt><trkpt lat="42.9318909" lon="12.6105119"><ele>204.0</ele><time>2026-03-28T16:55:49.328Z</time></trkpt><trkpt lat="42.9320387" lon="12.6105991"><ele>204.0</ele><time>2026-03-28T16:55:50.328Z</time></trkpt><trkpt lat="42.9321774" lon="12.6106804"><ele>204.0</ele><time>2026-03-28T16:55:51.328Z</time></trkpt><trkpt lat="42.9323319" lon="12.6107704"><ele>204.0</ele><time>2026-03-28T16:55:52.327Z</time></trkpt><trkpt lat="42.9324758" lon="12.6108554"><ele>204.0</ele><time>2026-03-28T16:55:53.328Z</time></trkpt><trkpt lat="42.9326268" lon="12.6109461"><ele>204.0</ele><time>2026-03-28T16:55:54.328Z</time></trkpt><trkpt lat="42.932781" lon="12.6110394"><ele>205.33333333333331</ele><time>2026-03-28T16:55:55.327Z</time></trkpt><trkpt lat="42.9329246" lon="12.6111229"><ele>206.66666666666666</ele><time>2026-03-28T16:55:56.328Z</time></trkpt><trkpt lat="42.93309" lon="12.6112186"><ele>208.0</ele><time>2026-03-28T16:55:57.328Z</time></trkpt><trkpt lat="42.9332476" lon="12.6113126"><ele>209.66666666666666</ele><time>2026-03-28T16:55:58.328Z</time></trkpt><trkpt lat="42.9333955" lon="12.6114009"><ele>211.33333333333331</ele><time>2026-03-28T16:55:59.328Z</time></trkpt><trkpt lat="42.933567" lon="12.611502"><ele>213.0</ele><time>2026-03-28T16:56:00.327Z</time></trkpt><trkpt lat="42.9337131" lon="12.6115911"><ele>213.0</ele><time>2026-03-28T16:56:01.328Z</time></trkpt><trkpt lat="42.9338628" lon="12.6116774"><ele>213.0</ele><time>2026-03-28T16:56:02.328Z</time></trkpt><trkpt lat="42.9340054" lon="12.6117592"><ele>213.0</ele><time>2026-03-28T16:56:03.327Z</time></trkpt><trkpt lat="42.9341234" lon="12.6118246"><ele>213.0</ele><time>2026-03-28T16:56:04.328Z</time></trkpt><trkpt lat="42.9342425" lon="12.6118962"><ele>213.4</ele><time>2026-03-28T16:56:05.328Z</time></trkpt><trkpt lat="42.9343475" lon="12.6119584"><ele>213.8</ele><time>2026-03-28T16:56:06.327Z</time></trkpt><trkpt lat="42.9344387" lon="12.612012"><ele>214.2</ele><time>2026-03-28T16:56:07.327Z</time></trkpt><trkpt lat="42.9345324" lon="12.6120762"><ele>214.6</ele><time>2026-03-28T16:56:08.327Z</time></trkpt><trkpt lat="42.9346216" lon="12.6121291"><ele>215.0</ele><time>2026-03-28T16:56:09.328Z</time></trkpt><trkpt lat="42.9346959" lon="12.6121751"><ele>215.0</ele><time>2026-03-28T16:56:10.327Z</time></trkpt><trkpt lat="42.9347704" lon="12.612228"><ele>215.0</ele><time>2026-03-28T16:56:11.327Z</time></trkpt><trkpt lat="42.9348275" lon="12.6122648"><ele>215.0</ele><time>2026-03-28T16:56:12.327Z</time></trkpt><trkpt lat="42.9348847" lon="12.612302"><ele>215.0</ele><time>2026-03-28T16:56:13.328Z</time></trkpt><trkpt lat="42.9349553" lon="12.6123476"><ele>215.0</ele><time>2026-03-28T16:56:15.327Z</time></trkpt><trkpt lat="42.9350303" lon="12.6123109"><ele>215.0</ele><time>2026-03-28T16:56:17.328Z</time></trkpt><trkpt lat="42.9350885" lon="12.6122638"><ele>215.0</ele><time>2026-03-28T16:56:18.328Z</time></trkpt><trkpt lat="42.9351595" lon="12.6122012"><ele>215.66666666666669</ele><time>2026-03-28T16:56:19.328Z</time></trkpt><trkpt lat="42.9352269" lon="12.612136"><ele>216.33333333333334</ele><time>2026-03-28T16:56:20.328Z</time></trkpt><trkpt lat="42.9353037" lon="12.6120623"><ele>217.0</ele><time>2026-03-28T16:56:21.328Z</time></trkpt><trkpt lat="42.9353713" lon="12.6119871"><ele>217.66666666666669</ele><time>2026-03-28T16:56:22.328Z</time></trkpt><trkpt lat="42.9354339" lon="12.6119128"><ele>218.33333333333334</ele><time>2026-03-28T16:56:23.327Z</time></trkpt><trkpt lat="42.9355135" lon="12.6118324"><ele>219.0</ele><time>2026-03-28T16:56:24.327Z</time></trkpt><trkpt lat="42.9355915" lon="12.6117385"><ele>219.5</ele><time>2026-03-28T16:56:25.328Z</time></trkpt><trkpt lat="42.9356647" lon="12.6116231"><ele>220.0</ele><time>2026-03-28T16:56:26.328Z</time></trkpt><trkpt lat="42.9357276" lon="12.6115073"><ele>220.5</ele><time>2026-03-28T16:56:27.328Z</time></trkpt><trkpt lat="42.9357907" lon="12.6113825"><ele>221.0</ele><time>2026-03-28T16:56:28.328Z</time></trkpt><trkpt lat="42.9358507" lon="12.6112369"><ele>220.0</ele><time>2026-03-28T16:56:29.327Z</time></trkpt><trkpt lat="42.9359065" lon="12.6110957"><ele>219.0</ele><time>2026-03-28T16:56:30.328Z</time></trkpt><trkpt lat="42.9359536" lon="12.6109578"><ele>218.0</ele><time>2026-03-28T16:56:31.328Z</time></trkpt><trkpt lat="42.9359947" lon="12.6107853"><ele>217.0</ele><time>2026-03-28T16:56:32.328Z</time></trkpt><trkpt lat="42.936034" lon="12.610636"><ele>217.0</ele><time>2026-03-28T16:56:33.328Z</time></trkpt><trkpt lat="42.9360792" lon="12.6104701"><ele>217.0</ele><time>2026-03-28T16:56:34.328Z</time></trkpt><trkpt lat="42.9361165" lon="12.6103224"><ele>217.0</ele><time>2026-03-28T16:56:35.328Z</time></trkpt><trkpt lat="42.9361521" lon="12.6101925"><ele>217.0</ele><time>2026-03-28T16:56:36.328Z</time></trkpt><trkpt lat="42.9361886" lon="12.6100531"><ele>216.83333333333331</ele><time>2026-03-28T16:56:37.327Z</time></trkpt><trkpt lat="42.9362197" lon="12.6099323"><ele>216.66666666666666</ele><time>2026-03-28T16:56:38.328Z</time></trkpt><trkpt lat="42.936251" lon="12.6098297"><ele>216.5</ele><time>2026-03-28T16:56:39.328Z</time></trkpt><trkpt lat="42.9362859" lon="12.6097172"><ele>216.33333333333331</ele><time>2026-03-28T16:56:40.328Z</time></trkpt><trkpt lat="42.9363158" lon="12.6096233"><ele>216.16666666666666</ele><time>2026-03-28T16:56:41.328Z</time></trkpt><trkpt lat="42.9363479" lon="12.6095466"><ele>216.0</ele><time>2026-03-28T16:56:42.328Z</time></trkpt><trkpt lat="42.9363975" lon="12.6094806"><ele>216.0</ele><time>2026-03-28T16:56:43.328Z</time></trkpt><trkpt lat="42.9365162" lon="12.6094185"><ele>216.00000000000003</ele><time>2026-03-28T16:56:45.327Z</time></trkpt><trkpt lat="42.9365897" lon="12.6093938"><ele>216.00000000000003</ele><time>2026-03-28T16:56:46.328Z</time></trkpt><trkpt lat="42.9366673" lon="12.6093849"><ele>216.0</ele><time>2026-03-28T16:56:47.327Z</time></trkpt><trkpt lat="42.9367691" lon="12.6093723"><ele>216.0</ele><time>2026-03-28T16:56:48.327Z</time></trkpt><trkpt lat="42.9368717" lon="12.6093587"><ele>216.0</ele><time>2026-03-28T16:56:49.328Z</time></trkpt><trkpt lat="42.9369907" lon="12.6093452"><ele>216.0</ele><time>2026-03-28T16:56:50.327Z</time></trkpt><trkpt lat="42.9371147" lon="12.6093315"><ele>216.0</ele><time>2026-03-28T16:56:51.328Z</time></trkpt><trkpt lat="42.937224" lon="12.609327"><ele>216.0</ele><time>2026-03-28T16:56:52.328Z</time></trkpt><trkpt lat="42.9373518" lon="12.609314"><ele>216.0</ele><time>2026-03-28T16:56:53.328Z</time></trkpt><trkpt lat="42.9374709" lon="12.6092913"><ele>216.0</ele><time>2026-03-28T16:56:54.328Z</time></trkpt><trkpt lat="42.9375923" lon="12.6092799"><ele>216.0</ele><time>2026-03-28T16:56:55.327Z</time></trkpt><trkpt lat="42.9377308" lon="12.6092607"><ele>216.0</ele><time>2026-03-28T16:56:56.328Z</time></trkpt><trkpt lat="42.9378682" lon="12.6092472"><ele>216.0</ele><time>2026-03-28T16:56:57.328Z</time></trkpt><trkpt lat="42.9380107" lon="12.6092345"><ele>216.0</ele><time>2026-03-28T16:56:58.328Z</time></trkpt><trkpt lat="42.9381605" lon="12.6092211"><ele>216.0</ele><time>2026-03-28T16:56:59.328Z</time></trkpt><trkpt lat="42.938292" lon="12.6092027"><ele>216.0</ele><time>2026-03-28T16:57:00.328Z</time></trkpt><trkpt lat="42.9384374" lon="12.6092055"><ele>214.75</ele><time>2026-03-28T16:57:01.328Z</time></trkpt><trkpt lat="42.9385877" lon="12.6091919"><ele>213.5</ele><time>2026-03-28T16:57:02.327Z</time></trkpt><trkpt lat="42.9387185" lon="12.6091741"><ele>212.25</ele><time>2026-03-28T16:57:03.327Z</time></trkpt><trkpt lat="42.9388726" lon="12.6091542"><ele>211.0</ele><time>2026-03-28T16:57:04.327Z</time></trkpt><trkpt lat="42.9390028" lon="12.6091362"><ele>211.0</ele><time>2026-03-28T16:57:05.328Z</time></trkpt><trkpt lat="42.9391388" lon="12.6091179"><ele>211.0</ele><time>2026-03-28T16:57:06.327Z</time></trkpt><trkpt lat="42.9392625" lon="12.6091022"><ele>211.0</ele><time>2026-03-28T16:57:07.328Z</time></trkpt><trkpt lat="42.939372" lon="12.6090888"><ele>211.0</ele><time>2026-03-28T16:57:08.327Z</time></trkpt><trkpt lat="42.9394797" lon="12.6090765"><ele>210.25</ele><time>2026-03-28T16:57:09.328Z</time></trkpt><trkpt lat="42.9395944" lon="12.6090624"><ele>209.5</ele><time>2026-03-28T16:57:10.327Z</time></trkpt><trkpt lat="42.9397146" lon="12.609054"><ele>208.75</ele><time>2026-03-28T16:57:11.328Z</time></trkpt><trkpt lat="42.9398616" lon="12.6090338"><ele>208.0</ele><time>2026-03-28T16:57:12.327Z</time></trkpt><trkpt lat="42.9400083" lon="12.60901"><ele>208.25</ele><time>2026-03-28T16:57:13.328Z</time></trkpt><trkpt lat="42.9401543" lon="12.6089904"><ele>208.5</ele><time>2026-03-28T16:57:14.328Z</time></trkpt><trkpt lat="42.9403096" lon="12.6089717"><ele>208.75</ele><time>2026-03-28T16:57:15.328Z</time></trkpt><trkpt lat="42.9404486" lon="12.6089541"><ele>209.0</ele><time>2026-03-28T16:57:16.328Z</time></trkpt><trkpt lat="42.9406103" lon="12.6089355"><ele>209.0</ele><time>2026-03-28T16:57:17.328Z</time></trkpt><trkpt lat="42.9407667" lon="12.6089188"><ele>209.0</ele><time>2026-03-28T16:57:18.328Z</time></trkpt><trkpt lat="42.9409152" lon="12.6089003"><ele>209.0</ele><time>2026-03-28T16:57:19.328Z</time></trkpt><trkpt lat="42.9410879" lon="12.6088766"><ele>209.66666666666669</ele><time>2026-03-28T16:57:20.328Z</time></trkpt><trkpt lat="42.9412406" lon="12.6088568"><ele>210.33333333333331</ele><time>2026-03-28T16:57:21.327Z</time></trkpt><trkpt lat="42.9414039" lon="12.6088439"><ele>211.0</ele><time>2026-03-28T16:57:22.328Z</time></trkpt><trkpt lat="42.9415787" lon="12.6088263"><ele>212.33333333333331</ele><time>2026-03-28T16:57:23.328Z</time></trkpt><trkpt lat="42.941731" lon="12.6088108"><ele>213.66666666666669</ele><time>2026-03-28T16:57:24.327Z</time></trkpt><trkpt lat="42.9418984" lon="12.6087891"><ele>215.0</ele><time>2026-03-28T16:57:25.327Z</time></trkpt><trkpt lat="42.942053" lon="12.6087742"><ele>215.0</ele><time>2026-03-28T16:57:26.327Z</time></trkpt><trkpt lat="42.9421949" lon="12.6087603"><ele>215.0</ele><time>2026-03-28T16:57:27.327Z</time></trkpt><trkpt lat="42.9423546" lon="12.6087431"><ele>215.0</ele><time>2026-03-28T16:57:28.327Z</time></trkpt><trkpt lat="42.9425066" lon="12.608728"><ele>215.75</ele><time>2026-03-28T16:57:29.328Z</time></trkpt><trkpt lat="42.9426575" lon="12.6087152"><ele>216.5</ele><time>2026-03-28T16:57:30.328Z</time></trkpt><trkpt lat="42.9428072" lon="12.6086995"><ele>217.25</ele><time>2026-03-28T16:57:31.328Z</time></trkpt><trkpt lat="42.9429425" lon="12.6086909"><ele>218.0</ele><time>2026-03-28T16:57:32.328Z</time></trkpt><trkpt lat="42.9430875" lon="12.6086739"><ele>218.0</ele><time>2026-03-28T16:57:33.328Z</time></trkpt><trkpt lat="42.9432134" lon="12.6086637"><ele>218.0</ele><time>2026-03-28T16:57:34.328Z</time></trkpt><trkpt lat="42.9433213" lon="12.608641"><ele>218.0</ele><time>2026-03-28T16:57:35.328Z</time></trkpt><trkpt lat="42.9434423" lon="12.6086087"><ele>218.0</ele><time>2026-03-28T16:57:36.328Z</time></trkpt><trkpt lat="42.9435443" lon="12.6085636"><ele>217.60000000000002</ele><time>2026-03-28T16:57:37.328Z</time></trkpt><trkpt lat="42.9436527" lon="12.6085"><ele>217.20000000000002</ele><time>2026-03-28T16:57:38.327Z</time></trkpt><trkpt lat="42.9437457" lon="12.6084304"><ele>216.8</ele><time>2026-03-28T16:57:39.328Z</time></trkpt><trkpt lat="42.943824" lon="12.6083642"><ele>216.4</ele><time>2026-03-28T16:57:40.328Z</time></trkpt><trkpt lat="42.9439072" lon="12.6082861"><ele>216.0</ele><time>2026-03-28T16:57:41.327Z</time></trkpt><trkpt lat="42.9439852" lon="12.608215"><ele>216.0</ele><time>2026-03-28T16:57:42.328Z</time></trkpt><trkpt lat="42.9440613" lon="12.6081461"><ele>216.00000000000003</ele><time>2026-03-28T16:57:43.328Z</time></trkpt><trkpt lat="42.9441491" lon="12.608063"><ele>216.00000000000003</ele><time>2026-03-28T16:57:44.328Z</time></trkpt><trkpt lat="42.9442368" lon="12.6079839"><ele>216.0</ele><time>2026-03-28T16:57:45.327Z</time></trkpt><trkpt lat="42.9443299" lon="12.6079005"><ele>216.0</ele><time>2026-03-28T16:57:46.328Z</time></trkpt><trkpt lat="42.9444283" lon="12.6078132"><ele>215.75</ele><time>2026-03-28T16:57:47.327Z</time></trkpt><trkpt lat="42.9445243" lon="12.6077256"><ele>215.5</ele><time>2026-03-28T16:57:48.328Z</time></trkpt><trkpt lat="42.9446335" lon="12.6076154"><ele>215.25</ele><time>2026-03-28T16:57:49.328Z</time></trkpt><trkpt lat="42.944736" lon="12.6075202"><ele>215.0</ele><time>2026-03-28T16:57:50.328Z</time></trkpt><trkpt lat="42.9448322" lon="12.6074264"><ele>215.0</ele><time>2026-03-28T16:57:51.328Z</time></trkpt><trkpt lat="42.9449531" lon="12.6073076"><ele>215.0</ele><time>2026-03-28T16:57:52.328Z</time></trkpt><trkpt lat="42.9450697" lon="12.6071938"><ele>215.0</ele><time>2026-03-28T16:57:53.328Z</time></trkpt><trkpt lat="42.945212" lon="12.6070604"><ele>215.0</ele><time>2026-03-28T16:57:54.327Z</time></trkpt><trkpt lat="42.9453566" lon="12.6069387"><ele>215.0</ele><time>2026-03-28T16:57:55.328Z</time></trkpt><trkpt lat="42.9454809" lon="12.6068154"><ele>215.0</ele><time>2026-03-28T16:57:56.328Z</time></trkpt><trkpt lat="42.9456175" lon="12.6066912"><ele>215.0</ele><time>2026-03-28T16:57:57.328Z</time></trkpt><trkpt lat="42.9457485" lon="12.6065724"><ele>215.0</ele><time>2026-03-28T16:57:58.328Z</time></trkpt><trkpt lat="42.9458733" lon="12.6064578"><ele>215.0</ele><time>2026-03-28T16:57:59.328Z</time></trkpt><trkpt lat="42.946015" lon="12.6063288"><ele>215.0</ele><time>2026-03-28T16:58:00.327Z</time></trkpt><trkpt lat="42.9461481" lon="12.6062064"><ele>215.0</ele><time>2026-03-28T16:58:01.327Z</time></trkpt><trkpt lat="42.9462751" lon="12.606093"><ele>215.0</ele><time>2026-03-28T16:58:02.328Z</time></trkpt><trkpt lat="42.9464189" lon="12.6059856"><ele>215.0</ele><time>2026-03-28T16:58:03.328Z</time></trkpt><trkpt lat="42.9465366" lon="12.6058775"><ele>215.0</ele><time>2026-03-28T16:58:04.328Z</time></trkpt><trkpt lat="42.9466689" lon="12.6057578"><ele>215.0</ele><time>2026-03-28T16:58:05.328Z</time></trkpt><trkpt lat="42.9467904" lon="12.6056494"><ele>215.0</ele><time>2026-03-28T16:58:06.328Z</time></trkpt><trkpt lat="42.9469016" lon="12.605553"><ele>215.0</ele><time>2026-03-28T16:58:07.328Z</time></trkpt><trkpt lat="42.9470269" lon="12.60545"><ele>215.0</ele><time>2026-03-28T16:58:08.328Z</time></trkpt><trkpt lat="42.9471281" lon="12.6053526"><ele>215.0</ele><time>2026-03-28T16:58:09.327Z</time></trkpt><trkpt lat="42.9472366" lon="12.6052483"><ele>215.0</ele><time>2026-03-28T16:58:10.328Z</time></trkpt><trkpt lat="42.9473524" lon="12.6051363"><ele>215.0</ele><time>2026-03-28T16:58:11.328Z</time></trkpt><trkpt lat="42.9474495" lon="12.6050342"><ele>215.0</ele><time>2026-03-28T16:58:12.327Z</time></trkpt><trkpt lat="42.9475535" lon="12.6049141"><ele>215.0</ele><time>2026-03-28T16:58:13.328Z</time></trkpt><trkpt lat="42.9476458" lon="12.6047989"><ele>215.0</ele><time>2026-03-28T16:58:14.328Z</time></trkpt><trkpt lat="42.9477275" lon="12.6046971"><ele>215.8</ele><time>2026-03-28T16:58:15.328Z</time></trkpt><trkpt lat="42.9478015" lon="12.6045586"><ele>216.6</ele><time>2026-03-28T16:58:16.328Z</time></trkpt><trkpt lat="42.9478592" lon="12.6044379"><ele>217.39999999999998</ele><time>2026-03-28T16:58:17.328Z</time></trkpt><trkpt lat="42.9479176" lon="12.6043123"><ele>218.2</ele><time>2026-03-28T16:58:18.328Z</time></trkpt><trkpt lat="42.9479725" lon="12.6041889"><ele>219.0</ele><time>2026-03-28T16:58:19.328Z</time></trkpt><trkpt lat="42.948018" lon="12.6040588"><ele>219.0</ele><time>2026-03-28T16:58:20.328Z</time></trkpt><trkpt lat="42.9480648" lon="12.6039059"><ele>219.0</ele><time>2026-03-28T16:58:21.328Z</time></trkpt><trkpt lat="42.9481072" lon="12.6037581"><ele>219.0</ele><time>2026-03-28T16:58:22.327Z</time></trkpt><trkpt lat="42.9481406" lon="12.6036124"><ele>219.0</ele><time>2026-03-28T16:58:23.328Z</time></trkpt><trkpt lat="42.9481878" lon="12.6034474"><ele>219.0</ele><time>2026-03-28T16:58:24.328Z</time></trkpt><trkpt lat="42.9482293" lon="12.6033024"><ele>219.0</ele><time>2026-03-28T16:58:25.327Z</time></trkpt><trkpt lat="42.9482817" lon="12.6031311"><ele>219.0</ele><time>2026-03-28T16:58:26.328Z</time></trkpt><trkpt lat="42.9483371" lon="12.602973"><ele>219.0</ele><time>2026-03-28T16:58:27.328Z</time></trkpt><trkpt lat="42.9483868" lon="12.602833"><ele>220.25</ele><time>2026-03-28T16:58:28.328Z</time></trkpt><trkpt lat="42.9484348" lon="12.6026722"><ele>221.5</ele><time>2026-03-28T16:58:29.328Z</time></trkpt><trkpt lat="42.948479" lon="12.6025145"><ele>222.75</ele><time>2026-03-28T16:58:30.328Z</time></trkpt><trkpt lat="42.9485276" lon="12.6023731"><ele>224.0</ele><time>2026-03-28T16:58:31.328Z</time></trkpt><trkpt lat="42.948579" lon="12.6021998"><ele>224.0</ele><time>2026-03-28T16:58:32.328Z</time></trkpt><trkpt lat="42.9486285" lon="12.6020327"><ele>224.0</ele><time>2026-03-28T16:58:33.327Z</time></trkpt><trkpt lat="42.9486767" lon="12.6018704"><ele>224.0</ele><time>2026-03-28T16:58:34.328Z</time></trkpt><trkpt lat="42.9487239" lon="12.6017107"><ele>224.0</ele><time>2026-03-28T16:58:35.328Z</time></trkpt><trkpt lat="42.948769" lon="12.6015706"><ele>223.0</ele><time>2026-03-28T16:58:36.327Z</time></trkpt><trkpt lat="42.9488275" lon="12.6014026"><ele>222.0</ele><time>2026-03-28T16:58:37.328Z</time></trkpt><trkpt lat="42.9488931" lon="12.6012413"><ele>221.0</ele><time>2026-03-28T16:58:38.328Z</time></trkpt><trkpt lat="42.9489606" lon="12.6010917"><ele>220.0</ele><time>2026-03-28T16:58:39.327Z</time></trkpt><trkpt lat="42.9490451" lon="12.6009282"><ele>218.5</ele><time>2026-03-28T16:58:40.328Z</time></trkpt><trkpt lat="42.9491274" lon="12.6007913"><ele>217.0</ele><time>2026-03-28T16:58:41.327Z</time></trkpt><trkpt lat="42.9492274" lon="12.6006649"><ele>215.5</ele><time>2026-03-28T16:58:42.328Z</time></trkpt><trkpt lat="42.9493442" lon="12.6005427"><ele>214.0</ele><time>2026-03-28T16:58:43.328Z</time></trkpt><trkpt lat="42.949452" lon="12.6004405"><ele>211.33333333333331</ele><time>2026-03-28T16:58:44.327Z</time></trkpt><trkpt lat="42.9495803" lon="12.6003175"><ele>208.66666666666669</ele><time>2026-03-28T16:58:45.328Z</time></trkpt><trkpt lat="42.9497164" lon="12.6001988"><ele>206.0</ele><time>2026-03-28T16:58:46.328Z</time></trkpt><trkpt lat="42.9498568" lon="12.6000891"><ele>206.0</ele><time>2026-03-28T16:58:47.327Z</time></trkpt><trkpt lat="42.9500247" lon="12.5999606"><ele>206.0</ele><time>2026-03-28T16:58:48.327Z</time></trkpt><trkpt lat="42.9501963" lon="12.5998375"><ele>206.0</ele><time>2026-03-28T16:58:49.328Z</time></trkpt><trkpt lat="42.9503529" lon="12.5997273"><ele>204.66666666666669</ele><time>2026-03-28T16:58:50.327Z</time></trkpt><trkpt lat="42.9505231" lon="12.5996075"><ele>203.33333333333331</ele><time>2026-03-28T16:58:51.328Z</time></trkpt><trkpt lat="42.9506675" lon="12.5995055"><ele>202.0</ele><time>2026-03-28T16:58:52.327Z</time></trkpt><trkpt lat="42.9508306" lon="12.5994046"><ele>202.33333333333331</ele><time>2026-03-28T16:58:53.327Z</time></trkpt><trkpt lat="42.9509939" lon="12.5993302"><ele>202.66666666666669</ele><time>2026-03-28T16:58:54.328Z</time></trkpt><trkpt lat="42.9511514" lon="12.599278"><ele>203.0</ele><time>2026-03-28T16:58:55.328Z</time></trkpt><trkpt lat="42.951332" lon="12.5992341"><ele>203.0</ele><time>2026-03-28T16:58:56.327Z</time></trkpt><trkpt lat="42.9514918" lon="12.5992107"><ele>203.0</ele><time>2026-03-28T16:58:57.327Z</time></trkpt><trkpt lat="42.9516713" lon="12.5992025"><ele>203.0</ele><time>2026-03-28T16:58:58.328Z</time></trkpt><trkpt lat="42.9518433" lon="12.5992188"><ele>202.0</ele><time>2026-03-28T16:58:59.328Z</time></trkpt><trkpt lat="42.952" lon="12.5992436"><ele>201.0</ele><time>2026-03-28T16:59:00.328Z</time></trkpt><trkpt lat="42.9521809" lon="12.5992906"><ele>200.0</ele><time>2026-03-28T16:59:01.328Z</time></trkpt><trkpt lat="42.9523482" lon="12.5993399"><ele>200.0</ele><time>2026-03-28T16:59:02.328Z</time></trkpt><trkpt lat="42.9524974" lon="12.5993859"><ele>200.0</ele><time>2026-03-28T16:59:03.328Z</time></trkpt><trkpt lat="42.9526627" lon="12.5994341"><ele>200.0</ele><time>2026-03-28T16:59:04.328Z</time></trkpt><trkpt lat="42.9528172" lon="12.5994814"><ele>199.75</ele><time>2026-03-28T16:59:05.327Z</time></trkpt><trkpt lat="42.9529703" lon="12.5995104"><ele>199.5</ele><time>2026-03-28T16:59:06.328Z</time></trkpt><trkpt lat="42.9531216" lon="12.5995031"><ele>199.25</ele><time>2026-03-28T16:59:07.328Z</time></trkpt><trkpt lat="42.953263" lon="12.5994706"><ele>199.0</ele><time>2026-03-28T16:59:08.327Z</time></trkpt><trkpt lat="42.9534216" lon="12.5993999"><ele>198.0</ele><time>2026-03-28T16:59:09.328Z</time></trkpt><trkpt lat="42.9535612" lon="12.5993016"><ele>197.0</ele><time>2026-03-28T16:59:10.328Z</time></trkpt><trkpt lat="42.9536911" lon="12.5991948"><ele>196.0</ele><time>2026-03-28T16:59:11.328Z</time></trkpt><trkpt lat="42.9538343" lon="12.5990601"><ele>196.0</ele><time>2026-03-28T16:59:12.328Z</time></trkpt><trkpt lat="42.9539615" lon="12.5989493"><ele>196.0</ele><time>2026-03-28T16:59:13.328Z</time></trkpt><trkpt lat="42.9541035" lon="12.5988206"><ele>196.0</ele><time>2026-03-28T16:59:14.328Z</time></trkpt><trkpt lat="42.9542329" lon="12.5986896"><ele>197.0</ele><time>2026-03-28T16:59:15.328Z</time></trkpt><trkpt lat="42.9543589" lon="12.5985719"><ele>198.0</ele><time>2026-03-28T16:59:16.328Z</time></trkpt><trkpt lat="42.9545125" lon="12.5984203"><ele>199.0</ele><time>2026-03-28T16:59:17.328Z</time></trkpt><trkpt lat="42.9546725" lon="12.5982756"><ele>199.0</ele><time>2026-03-28T16:59:18.327Z</time></trkpt><trkpt lat="42.9548258" lon="12.5981495"><ele>199.0</ele><time>2026-03-28T16:59:19.328Z</time></trkpt><trkpt lat="42.955001" lon="12.5980013"><ele>199.0</ele><time>2026-03-28T16:59:20.328Z</time></trkpt><trkpt lat="42.9551662" lon="12.5978525"><ele>199.33333333333331</ele><time>2026-03-28T16:59:21.328Z</time></trkpt><trkpt lat="42.9553239" lon="12.5977105"><ele>199.66666666666669</ele><time>2026-03-28T16:59:22.328Z</time></trkpt><trkpt lat="42.9555054" lon="12.5975499"><ele>200.0</ele><time>2026-03-28T16:59:23.327Z</time></trkpt><trkpt lat="42.9556651" lon="12.597407"><ele>200.0</ele><time>2026-03-28T16:59:24.328Z</time></trkpt><trkpt lat="42.9558474" lon="12.5972419"><ele>200.0</ele><time>2026-03-28T16:59:25.327Z</time></trkpt><trkpt lat="42.9560207" lon="12.5970826"><ele>200.0</ele><time>2026-03-28T16:59:26.328Z</time></trkpt><trkpt lat="42.9561883" lon="12.5969347"><ele>200.33333333333334</ele><time>2026-03-28T16:59:27.328Z</time></trkpt><trkpt lat="42.9563783" lon="12.5967602"><ele>200.66666666666669</ele><time>2026-03-28T16:59:28.328Z</time></trkpt><trkpt lat="42.9565525" lon="12.5966063"><ele>201.0</ele><time>2026-03-28T16:59:29.328Z</time></trkpt><trkpt lat="42.9567357" lon="12.5964387"><ele>200.0</ele><time>2026-03-28T16:59:30.327Z</time></trkpt><trkpt lat="42.9569293" lon="12.5962579"><ele>199.0</ele><time>2026-03-28T16:59:31.328Z</time></trkpt><trkpt lat="42.9571077" lon="12.5960986"><ele>198.0</ele><time>2026-03-28T16:59:32.328Z</time></trkpt><trkpt lat="42.9573074" lon="12.5959114"><ele>198.0</ele><time>2026-03-28T16:59:33.328Z</time></trkpt><trkpt lat="42.9574953" lon="12.59574"><ele>198.0</ele><time>2026-03-28T16:59:34.328Z</time></trkpt><trkpt lat="42.9576724" lon="12.5955707"><ele>198.0</ele><time>2026-03-28T16:59:35.328Z</time></trkpt><trkpt lat="42.957872" lon="12.5953863"><ele>198.5</ele><time>2026-03-28T16:59:36.327Z</time></trkpt><trkpt lat="42.9580593" lon="12.5952112"><ele>199.0</ele><time>2026-03-28T16:59:37.328Z</time></trkpt><trkpt lat="42.9582476" lon="12.5950418"><ele>198.0</ele><time>2026-03-28T16:59:38.328Z</time></trkpt><trkpt lat="42.9584312" lon="12.5948704"><ele>197.0</ele><time>2026-03-28T16:59:39.328Z</time></trkpt><trkpt lat="42.9586047" lon="12.5947151"><ele>196.0</ele><time>2026-03-28T16:59:40.327Z</time></trkpt><trkpt lat="42.9588015" lon="12.5945407"><ele>196.0</ele><time>2026-03-28T16:59:41.328Z</time></trkpt><trkpt lat="42.9589836" lon="12.5943768"><ele>196.0</ele><time>2026-03-28T16:59:42.327Z</time></trkpt><trkpt lat="42.9591446" lon="12.5942265"><ele>196.0</ele><time>2026-03-28T16:59:43.327Z</time></trkpt><trkpt lat="42.9593181" lon="12.5940628"><ele>196.0</ele><time>2026-03-28T16:59:44.328Z</time></trkpt><trkpt lat="42.9594588" lon="12.5939112"><ele>196.0</ele><time>2026-03-28T16:59:45.328Z</time></trkpt><trkpt lat="42.9596056" lon="12.5937291"><ele>196.0</ele><time>2026-03-28T16:59:46.327Z</time></trkpt><trkpt lat="42.9597332" lon="12.5935365"><ele>196.0</ele><time>2026-03-28T16:59:47.328Z</time></trkpt><trkpt lat="42.9598486" lon="12.5933448"><ele>196.0</ele><time>2026-03-28T16:59:48.327Z</time></trkpt><trkpt lat="42.9599752" lon="12.5931145"><ele>196.0</ele><time>2026-03-28T16:59:49.328Z</time></trkpt><trkpt lat="42.960096" lon="12.5928957"><ele>196.33333333333331</ele><time>2026-03-28T16:59:50.328Z</time></trkpt><trkpt lat="42.9602102" lon="12.5926907"><ele>196.66666666666669</ele><time>2026-03-28T16:59:51.328Z</time></trkpt><trkpt lat="42.9603409" lon="12.5924555"><ele>197.0</ele><time>2026-03-28T16:59:52.328Z</time></trkpt><trkpt lat="42.9604624" lon="12.5922302"><ele>196.66666666666669</ele><time>2026-03-28T16:59:53.328Z</time></trkpt><trkpt lat="42.96058" lon="12.5919998"><ele>196.33333333333331</ele><time>2026-03-28T16:59:54.328Z</time></trkpt><trkpt lat="42.9606999" lon="12.591772"><ele>196.0</ele><time>2026-03-28T16:59:55.327Z</time></trkpt><trkpt lat="42.9608137" lon="12.591557"><ele>196.0</ele><time>2026-03-28T16:59:56.328Z</time></trkpt><trkpt lat="42.9609404" lon="12.591313"><ele>196.0</ele><time>2026-03-28T16:59:57.328Z</time></trkpt><trkpt lat="42.9610635" lon="12.5910859"><ele>196.0</ele><time>2026-03-28T16:59:58.328Z</time></trkpt><trkpt lat="42.9611792" lon="12.5908778"><ele>196.0</ele><time>2026-03-28T16:59:59.327Z</time></trkpt><trkpt lat="42.9613072" lon="12.5906362"><ele>196.0</ele><time>2026-03-28T17:00:00.328Z</time></trkpt><trkpt lat="42.9614198" lon="12.5904196"><ele>196.0</ele><time>2026-03-28T17:00:01.328Z</time></trkpt><trkpt lat="42.9615461" lon="12.5901907"><ele>196.33333333333331</ele><time>2026-03-28T17:00:02.328Z</time></trkpt><trkpt lat="42.9616789" lon="12.5899454"><ele>196.66666666666669</ele><time>2026-03-28T17:00:03.328Z</time></trkpt><trkpt lat="42.9617954" lon="12.5897292"><ele>197.0</ele><time>2026-03-28T17:00:04.328Z</time></trkpt><trkpt lat="42.9619271" lon="12.5894897"><ele>197.33333333333334</ele><time>2026-03-28T17:00:05.328Z</time></trkpt><trkpt lat="42.9620489" lon="12.5892624"><ele>197.66666666666669</ele><time>2026-03-28T17:00:06.328Z</time></trkpt><trkpt lat="42.9621638" lon="12.5890432"><ele>198.0</ele><time>2026-03-28T17:00:07.327Z</time></trkpt><trkpt lat="42.9622972" lon="12.5887989"><ele>198.0</ele><time>2026-03-28T17:00:08.328Z</time></trkpt><trkpt lat="42.9624231" lon="12.5885664"><ele>198.0</ele><time>2026-03-28T17:00:09.328Z</time></trkpt><trkpt lat="42.9625389" lon="12.5883487"><ele>198.0</ele><time>2026-03-28T17:00:10.328Z</time></trkpt><trkpt lat="42.9626672" lon="12.5880968"><ele>198.0</ele><time>2026-03-28T17:00:11.328Z</time></trkpt><trkpt lat="42.962783" lon="12.5878798"><ele>198.0</ele><time>2026-03-28T17:00:12.327Z</time></trkpt><trkpt lat="42.9629146" lon="12.5876308"><ele>198.0</ele><time>2026-03-28T17:00:13.328Z</time></trkpt><trkpt lat="42.9630383" lon="12.5874023"><ele>198.33333333333331</ele><time>2026-03-28T17:00:14.328Z</time></trkpt><trkpt lat="42.9631512" lon="12.587188"><ele>198.66666666666666</ele><time>2026-03-28T17:00:15.328Z</time></trkpt><trkpt lat="42.9632801" lon="12.5869481"><ele>199.0</ele><time>2026-03-28T17:00:16.327Z</time></trkpt><trkpt lat="42.9633828" lon="12.5867619"><ele>198.33333333333331</ele><time>2026-03-28T17:00:17.328Z</time></trkpt><trkpt lat="42.9634863" lon="12.5865839"><ele>197.66666666666669</ele><time>2026-03-28T17:00:18.328Z</time></trkpt><trkpt lat="42.9635847" lon="12.5864069"><ele>197.0</ele><time>2026-03-28T17:00:19.328Z</time></trkpt><trkpt lat="42.9636629" lon="12.5862524"><ele>197.25</ele><time>2026-03-28T17:00:20.327Z</time></trkpt><trkpt lat="42.9637427" lon="12.5860712"><ele>197.5</ele><time>2026-03-28T17:00:21.328Z</time></trkpt><trkpt lat="42.9638097" lon="12.5858956"><ele>197.75</ele><time>2026-03-28T17:00:22.327Z</time></trkpt><trkpt lat="42.9638565" lon="12.5857228"><ele>198.0</ele><time>2026-03-28T17:00:23.327Z</time></trkpt><trkpt lat="42.9638953" lon="12.5855181"><ele>198.33333333333331</ele><time>2026-03-28T17:00:24.328Z</time></trkpt><trkpt lat="42.963905" lon="12.5853118"><ele>198.66666666666666</ele><time>2026-03-28T17:00:25.328Z</time></trkpt><trkpt lat="42.963906" lon="12.5850991"><ele>199.0</ele><time>2026-03-28T17:00:26.327Z</time></trkpt><trkpt lat="42.9639022" lon="12.5848757"><ele>199.0</ele><time>2026-03-28T17:00:27.328Z</time></trkpt><trkpt lat="42.9638934" lon="12.5846597"><ele>199.0</ele><time>2026-03-28T17:00:28.327Z</time></trkpt><trkpt lat="42.9638824" lon="12.5844079"><ele>199.0</ele><time>2026-03-28T17:00:29.328Z</time></trkpt><trkpt lat="42.9638726" lon="12.584177"><ele>199.33333333333331</ele><time>2026-03-28T17:00:30.328Z</time></trkpt><trkpt lat="42.963869" lon="12.5839705"><ele>199.66666666666669</ele><time>2026-03-28T17:00:31.328Z</time></trkpt><trkpt lat="42.9638817" lon="12.583749"><ele>200.0</ele><time>2026-03-28T17:00:32.328Z</time></trkpt><trkpt lat="42.9639119" lon="12.5835596"><ele>200.0</ele><time>2026-03-28T17:00:33.327Z</time></trkpt><trkpt lat="42.9639677" lon="12.5833553"><ele>200.0</ele><time>2026-03-28T17:00:34.328Z</time></trkpt><trkpt lat="42.9640347" lon="12.5831669"><ele>200.0</ele><time>2026-03-28T17:00:35.327Z</time></trkpt><trkpt lat="42.9641124" lon="12.5829853"><ele>200.66666666666669</ele><time>2026-03-28T17:00:36.328Z</time></trkpt><trkpt lat="42.9642243" lon="12.5827865"><ele>201.33333333333331</ele><time>2026-03-28T17:00:37.328Z</time></trkpt><trkpt lat="42.9643307" lon="12.5826013"><ele>202.0</ele><time>2026-03-28T17:00:38.328Z</time></trkpt><trkpt lat="42.9644301" lon="12.582435"><ele>202.0</ele><time>2026-03-28T17:00:39.328Z</time></trkpt><trkpt lat="42.9645542" lon="12.5822654"><ele>202.0</ele><time>2026-03-28T17:00:40.327Z</time></trkpt><trkpt lat="42.9646851" lon="12.5821343"><ele>202.0</ele><time>2026-03-28T17:00:41.328Z</time></trkpt><trkpt lat="42.9648348" lon="12.5820262"><ele>201.66666666666666</ele><time>2026-03-28T17:00:42.327Z</time></trkpt><trkpt lat="42.9649932" lon="12.5819326"><ele>201.33333333333331</ele><time>2026-03-28T17:00:43.327Z</time></trkpt><trkpt lat="42.9651565" lon="12.5818538"><ele>201.0</ele><time>2026-03-28T17:00:44.327Z</time></trkpt><trkpt lat="42.9653479" lon="12.5817566"><ele>200.66666666666669</ele><time>2026-03-28T17:00:45.328Z</time></trkpt><trkpt lat="42.9655301" lon="12.581674"><ele>200.33333333333334</ele><time>2026-03-28T17:00:46.328Z</time></trkpt><trkpt lat="42.9656988" lon="12.5815904"><ele>200.0</ele><time>2026-03-28T17:00:47.327Z</time></trkpt><trkpt lat="42.9659001" lon="12.5814893"><ele>200.66666666666669</ele><time>2026-03-28T17:00:48.328Z</time></trkpt><trkpt lat="42.9660818" lon="12.5814011"><ele>201.33333333333331</ele><time>2026-03-28T17:00:49.328Z</time></trkpt><trkpt lat="42.9662813" lon="12.5813074"><ele>202.0</ele><time>2026-03-28T17:00:50.328Z</time></trkpt><trkpt lat="42.9664906" lon="12.5812105"><ele>201.33333333333331</ele><time>2026-03-28T17:00:51.327Z</time></trkpt><trkpt lat="42.9666711" lon="12.5811321"><ele>200.66666666666669</ele><time>2026-03-28T17:00:52.328Z</time></trkpt><trkpt lat="42.9668651" lon="12.5810324"><ele>200.0</ele><time>2026-03-28T17:00:53.328Z</time></trkpt><trkpt lat="42.9670404" lon="12.5809443"><ele>199.66666666666669</ele><time>2026-03-28T17:00:54.328Z</time></trkpt><trkpt lat="42.9672068" lon="12.5808648"><ele>199.33333333333331</ele><time>2026-03-28T17:00:55.328Z</time></trkpt><trkpt lat="42.9673845" lon="12.5807544"><ele>199.0</ele><time>2026-03-28T17:00:56.328Z</time></trkpt><trkpt lat="42.9675455" lon="12.5806361"><ele>198.66666666666666</ele><time>2026-03-28T17:00:57.327Z</time></trkpt><trkpt lat="42.9676989" lon="12.580499"><ele>198.33333333333331</ele><time>2026-03-28T17:00:58.328Z</time></trkpt><trkpt lat="42.9678496" lon="12.5803565"><ele>198.0</ele><time>2026-03-28T17:00:59.327Z</time></trkpt><trkpt lat="42.9679876" lon="12.5801986"><ele>198.33333333333331</ele><time>2026-03-28T17:01:00.327Z</time></trkpt><trkpt lat="42.9681502" lon="12.5800228"><ele>198.66666666666666</ele><time>2026-03-28T17:01:01.327Z</time></trkpt><trkpt lat="42.9683066" lon="12.5798505"><ele>199.0</ele><time>2026-03-28T17:01:02.328Z</time></trkpt><trkpt lat="42.9684557" lon="12.5796823"><ele>199.0</ele><time>2026-03-28T17:01:03.327Z</time></trkpt><trkpt lat="42.9686254" lon="12.5794927"><ele>199.0</ele><time>2026-03-28T17:01:04.327Z</time></trkpt><trkpt lat="42.9687837" lon="12.5793209"><ele>199.0</ele><time>2026-03-28T17:01:05.328Z</time></trkpt><trkpt lat="42.9689637" lon="12.5791232"><ele>199.0</ele><time>2026-03-28T17:01:06.328Z</time></trkpt><trkpt lat="42.9691316" lon="12.5789333"><ele>199.0</ele><time>2026-03-28T17:01:07.328Z</time></trkpt><trkpt lat="42.9692913" lon="12.5787613"><ele>199.0</ele><time>2026-03-28T17:01:08.327Z</time></trkpt><trkpt lat="42.9694722" lon="12.5785598"><ele>198.66666666666666</ele><time>2026-03-28T17:01:09.328Z</time></trkpt><trkpt lat="42.9696428" lon="12.5783721"><ele>198.33333333333331</ele><time>2026-03-28T17:01:10.328Z</time></trkpt><trkpt lat="42.9697986" lon="12.5781964"><ele>198.0</ele><time>2026-03-28T17:01:11.328Z</time></trkpt><trkpt lat="42.9699761" lon="12.5779955"><ele>198.0</ele><time>2026-03-28T17:01:12.327Z</time></trkpt><trkpt lat="42.9701429" lon="12.5778087"><ele>198.0</ele><time>2026-03-28T17:01:13.328Z</time></trkpt><trkpt lat="42.9703108" lon="12.5776177"><ele>198.0</ele><time>2026-03-28T17:01:14.327Z</time></trkpt><trkpt lat="42.9704749" lon="12.577431"><ele>198.0</ele><time>2026-03-28T17:01:15.328Z</time></trkpt><trkpt lat="42.9706298" lon="12.5772549"><ele>198.0</ele><time>2026-03-28T17:01:16.327Z</time></trkpt><trkpt lat="42.9708055" lon="12.5770552"><ele>198.0</ele><time>2026-03-28T17:01:17.328Z</time></trkpt><trkpt lat="42.9709692" lon="12.5768715"><ele>197.0</ele><time>2026-03-28T17:01:18.327Z</time></trkpt><trkpt lat="42.9711251" lon="12.5766995"><ele>196.0</ele><time>2026-03-28T17:01:19.327Z</time></trkpt><trkpt lat="42.971303" lon="12.5765054"><ele>195.0</ele><time>2026-03-28T17:01:20.327Z</time></trkpt><trkpt lat="42.9714597" lon="12.5763369"><ele>195.0</ele><time>2026-03-28T17:01:21.327Z</time></trkpt><trkpt lat="42.9716378" lon="12.576139"><ele>195.0</ele><time>2026-03-28T17:01:22.328Z</time></trkpt><trkpt lat="42.971805" lon="12.5759497"><ele>195.0</ele><time>2026-03-28T17:01:23.328Z</time></trkpt><trkpt lat="42.9719596" lon="12.5757768"><ele>195.33333333333331</ele><time>2026-03-28T17:01:24.328Z</time></trkpt><trkpt lat="42.9721359" lon="12.575584"><ele>195.66666666666666</ele><time>2026-03-28T17:01:25.328Z</time></trkpt><trkpt lat="42.9723003" lon="12.5753953"><ele>196.0</ele><time>2026-03-28T17:01:26.328Z</time></trkpt><trkpt lat="42.9724571" lon="12.575221"><ele>196.33333333333331</ele><time>2026-03-28T17:01:27.327Z</time></trkpt><trkpt lat="42.9726345" lon="12.575024"><ele>196.66666666666669</ele><time>2026-03-28T17:01:28.327Z</time></trkpt><trkpt lat="42.9728049" lon="12.574836"><ele>197.0</ele><time>2026-03-28T17:01:29.328Z</time></trkpt><trkpt lat="42.9729604" lon="12.5746596"><ele>197.0</ele><time>2026-03-28T17:01:30.328Z</time></trkpt><trkpt lat="42.9731356" lon="12.5744599"><ele>197.0</ele><time>2026-03-28T17:01:31.327Z</time></trkpt><trkpt lat="42.9732917" lon="12.5742857"><ele>197.0</ele><time>2026-03-28T17:01:32.328Z</time></trkpt><trkpt lat="42.9734713" lon="12.5740907"><ele>197.0</ele><time>2026-03-28T17:01:33.327Z</time></trkpt><trkpt lat="42.9736417" lon="12.5739053"><ele>197.0</ele><time>2026-03-28T17:01:34.328Z</time></trkpt><trkpt lat="42.9737986" lon="12.5737286"><ele>197.0</ele><time>2026-03-28T17:01:35.328Z</time></trkpt><trkpt lat="42.9739799" lon="12.5735236"><ele>197.33333333333334</ele><time>2026-03-28T17:01:36.328Z</time></trkpt><trkpt lat="42.9741395" lon="12.5733449"><ele>197.66666666666669</ele><time>2026-03-28T17:01:37.328Z</time></trkpt><trkpt lat="42.9743097" lon="12.5731497"><ele>198.0</ele><time>2026-03-28T17:01:38.328Z</time></trkpt><trkpt lat="42.9744895" lon="12.5729526"><ele>197.66666666666669</ele><time>2026-03-28T17:01:39.327Z</time></trkpt><trkpt lat="42.9746472" lon="12.5727764"><ele>197.33333333333334</ele><time>2026-03-28T17:01:40.327Z</time></trkpt><trkpt lat="42.974829" lon="12.5725789"><ele>197.0</ele><time>2026-03-28T17:01:41.327Z</time></trkpt><trkpt lat="42.9749973" lon="12.5723888"><ele>197.33333333333334</ele><time>2026-03-28T17:01:42.328Z</time></trkpt><trkpt lat="42.9751578" lon="12.5722108"><ele>197.66666666666669</ele><time>2026-03-28T17:01:43.328Z</time></trkpt><trkpt lat="42.9753336" lon="12.5720098"><ele>198.0</ele><time>2026-03-28T17:01:44.328Z</time></trkpt><trkpt lat="42.9755003" lon="12.5718215"><ele>198.0</ele><time>2026-03-28T17:01:45.328Z</time></trkpt><trkpt lat="42.9756658" lon="12.5716308"><ele>198.0</ele><time>2026-03-28T17:01:46.328Z</time></trkpt><trkpt lat="42.9758317" lon="12.5714445"><ele>198.0</ele><time>2026-03-28T17:01:47.328Z</time></trkpt><trkpt lat="42.9759871" lon="12.5712688"><ele>198.33333333333331</ele><time>2026-03-28T17:01:48.328Z</time></trkpt><trkpt lat="42.9761649" lon="12.5710702"><ele>198.66666666666666</ele><time>2026-03-28T17:01:49.327Z</time></trkpt><trkpt lat="42.9763318" lon="12.5708833"><ele>199.0</ele><time>2026-03-28T17:01:50.327Z</time></trkpt><trkpt lat="42.9764889" lon="12.5707133"><ele>199.0</ele><time>2026-03-28T17:01:51.327Z</time></trkpt><trkpt lat="42.9766709" lon="12.5705265"><ele>199.0</ele><time>2026-03-28T17:01:52.327Z</time></trkpt><trkpt lat="42.9768337" lon="12.5703709"><ele>199.0</ele><time>2026-03-28T17:01:53.328Z</time></trkpt><trkpt lat="42.9770222" lon="12.5702033"><ele>200.0</ele><time>2026-03-28T17:01:54.328Z</time></trkpt><trkpt lat="42.9771988" lon="12.5700448"><ele>201.0</ele><time>2026-03-28T17:01:55.327Z</time></trkpt><trkpt lat="42.977362" lon="12.5698982"><ele>202.0</ele><time>2026-03-28T17:01:56.327Z</time></trkpt><trkpt lat="42.9775397" lon="12.5697438"><ele>202.0</ele><time>2026-03-28T17:01:57.328Z</time></trkpt><trkpt lat="42.9776991" lon="12.5696053"><ele>202.0</ele><time>2026-03-28T17:01:58.328Z</time></trkpt><trkpt lat="42.9778462" lon="12.5694802"><ele>202.0</ele><time>2026-03-28T17:01:59.328Z</time></trkpt><trkpt lat="42.9780174" lon="12.5693535"><ele>202.0</ele><time>2026-03-28T17:02:00.328Z</time></trkpt><trkpt lat="42.9781843" lon="12.569261"><ele>202.0</ele><time>2026-03-28T17:02:01.328Z</time></trkpt><trkpt lat="42.9783581" lon="12.5691944"><ele>202.0</ele><time>2026-03-28T17:02:02.328Z</time></trkpt><trkpt lat="42.9785322" lon="12.5691533"><ele>202.66666666666666</ele><time>2026-03-28T17:02:03.327Z</time></trkpt><trkpt lat="42.9786887" lon="12.5691277"><ele>203.33333333333331</ele><time>2026-03-28T17:02:04.328Z</time></trkpt><trkpt lat="42.9788584" lon="12.5691018"><ele>204.0</ele><time>2026-03-28T17:02:05.328Z</time></trkpt><trkpt lat="42.9790084" lon="12.5690801"><ele>204.0</ele><time>2026-03-28T17:02:06.328Z</time></trkpt><trkpt lat="42.9791454" lon="12.5690593"><ele>204.0</ele><time>2026-03-28T17:02:07.328Z</time></trkpt><trkpt lat="42.9793038" lon="12.5690339"><ele>204.0</ele><time>2026-03-28T17:02:08.327Z</time></trkpt><trkpt lat="42.9794451" lon="12.5690095"><ele>204.0</ele><time>2026-03-28T17:02:09.327Z</time></trkpt><trkpt lat="42.9796015" lon="12.5689828"><ele>204.33333333333331</ele><time>2026-03-28T17:02:10.328Z</time></trkpt><trkpt lat="42.9797728" lon="12.5689554"><ele>204.66666666666666</ele><time>2026-03-28T17:02:11.328Z</time></trkpt><trkpt lat="42.9799259" lon="12.5689309"><ele>205.0</ele><time>2026-03-28T17:02:12.328Z</time></trkpt><trkpt lat="42.9801056" lon="12.568901"><ele>205.0</ele><time>2026-03-28T17:02:13.328Z</time></trkpt><trkpt lat="42.9802766" lon="12.5688697"><ele>205.0</ele><time>2026-03-28T17:02:14.328Z</time></trkpt><trkpt lat="42.9804379" lon="12.5688353"><ele>205.0</ele><time>2026-03-28T17:02:15.328Z</time></trkpt><trkpt lat="42.9806218" lon="12.568781"><ele>205.0</ele><time>2026-03-28T17:02:16.328Z</time></trkpt><trkpt lat="42.9807896" lon="12.568711"><ele>205.0</ele><time>2026-03-28T17:02:17.327Z</time></trkpt><trkpt lat="42.980942" lon="12.5686241"><ele>205.0</ele><time>2026-03-28T17:02:18.328Z</time></trkpt><trkpt lat="42.9811085" lon="12.5685006"><ele>205.0</ele><time>2026-03-28T17:02:19.328Z</time></trkpt><trkpt lat="42.9812526" lon="12.568372"><ele>205.0</ele><time>2026-03-28T17:02:20.327Z</time></trkpt><trkpt lat="42.9814131" lon="12.5682029"><ele>205.0</ele><time>2026-03-28T17:02:21.328Z</time></trkpt><trkpt lat="42.9815592" lon="12.5680253"><ele>205.33333333333331</ele><time>2026-03-28T17:02:22.328Z</time></trkpt><trkpt lat="42.9816886" lon="12.5678528"><ele>205.66666666666669</ele><time>2026-03-28T17:02:23.328Z</time></trkpt><trkpt lat="42.9818281" lon="12.5676568"><ele>206.0</ele><time>2026-03-28T17:02:24.328Z</time></trkpt><trkpt lat="42.9819469" lon="12.567487"><ele>206.0</ele><time>2026-03-28T17:02:25.328Z</time></trkpt><trkpt lat="42.9820887" lon="12.5672918"><ele>206.0</ele><time>2026-03-28T17:02:26.328Z</time></trkpt><trkpt lat="42.9822237" lon="12.5671046"><ele>206.0</ele><time>2026-03-28T17:02:27.328Z</time></trkpt><trkpt lat="42.9823513" lon="12.566926"><ele>206.33333333333334</ele><time>2026-03-28T17:02:28.328Z</time></trkpt><trkpt lat="42.9824963" lon="12.5667145"><ele>206.66666666666669</ele><time>2026-03-28T17:02:29.327Z</time></trkpt><trkpt lat="42.9826369" lon="12.5665113"><ele>207.0</ele><time>2026-03-28T17:02:30.328Z</time></trkpt><trkpt lat="42.9827718" lon="12.5663201"><ele>207.0</ele><time>2026-03-28T17:02:31.327Z</time></trkpt><trkpt lat="42.9829279" lon="12.5661025"><ele>207.0</ele><time>2026-03-28T17:02:32.327Z</time></trkpt><trkpt lat="42.983071" lon="12.5659"><ele>207.0</ele><time>2026-03-28T17:02:33.328Z</time></trkpt><trkpt lat="42.9832091" lon="12.5657049"><ele>207.0</ele><time>2026-03-28T17:02:34.328Z</time></trkpt><trkpt lat="42.9833373" lon="12.5655257"><ele>207.0</ele><time>2026-03-28T17:02:35.328Z</time></trkpt><trkpt lat="42.9834545" lon="12.5653756"><ele>207.0</ele><time>2026-03-28T17:02:36.327Z</time></trkpt><trkpt lat="42.9835956" lon="12.5652309"><ele>207.66666666666669</ele><time>2026-03-28T17:02:37.328Z</time></trkpt><trkpt lat="42.98374" lon="12.5651275"><ele>208.33333333333334</ele><time>2026-03-28T17:02:38.328Z</time></trkpt><trkpt lat="42.9838908" lon="12.5650494"><ele>209.0</ele><time>2026-03-28T17:02:39.328Z</time></trkpt><trkpt lat="42.984076" lon="12.5649791"><ele>208.66666666666669</ele><time>2026-03-28T17:02:40.327Z</time></trkpt><trkpt lat="42.9842493" lon="12.5649228"><ele>208.33333333333331</ele><time>2026-03-28T17:02:41.327Z</time></trkpt><trkpt lat="42.9844532" lon="12.5648529"><ele>208.0</ele><time>2026-03-28T17:02:42.328Z</time></trkpt><trkpt lat="42.9846484" lon="12.5647847"><ele>208.0</ele><time>2026-03-28T17:02:43.328Z</time></trkpt><trkpt lat="42.9848282" lon="12.5647175"><ele>208.0</ele><time>2026-03-28T17:02:44.328Z</time></trkpt><trkpt lat="42.9850234" lon="12.5646378"><ele>208.0</ele><time>2026-03-28T17:02:45.328Z</time></trkpt><trkpt lat="42.9851974" lon="12.5645441"><ele>207.0</ele><time>2026-03-28T17:02:46.328Z</time></trkpt><trkpt lat="42.9853562" lon="12.5644372"><ele>206.0</ele><time>2026-03-28T17:02:47.328Z</time></trkpt><trkpt lat="42.985531" lon="12.5642911"><ele>205.0</ele><time>2026-03-28T17:02:48.328Z</time></trkpt><trkpt lat="42.9856949" lon="12.5641349"><ele>204.0</ele><time>2026-03-28T17:02:49.328Z</time></trkpt><trkpt lat="42.9858519" lon="12.5639798"><ele>203.0</ele><time>2026-03-28T17:02:50.328Z</time></trkpt><trkpt lat="42.986029" lon="12.5638045"><ele>202.0</ele><time>2026-03-28T17:02:51.328Z</time></trkpt><trkpt lat="42.9861844" lon="12.5636529"><ele>202.0</ele><time>2026-03-28T17:02:52.328Z</time></trkpt><trkpt lat="42.986361" lon="12.5634825"><ele>202.0</ele><time>2026-03-28T17:02:53.328Z</time></trkpt><trkpt lat="42.9865265" lon="12.5633247"><ele>202.0</ele><time>2026-03-28T17:02:54.328Z</time></trkpt><trkpt lat="42.9866811" lon="12.5631746"><ele>202.0</ele><time>2026-03-28T17:02:55.328Z</time></trkpt><trkpt lat="42.9868561" lon="12.5630037"><ele>202.0</ele><time>2026-03-28T17:02:56.327Z</time></trkpt><trkpt lat="42.9870107" lon="12.56285"><ele>202.0</ele><time>2026-03-28T17:02:57.328Z</time></trkpt><trkpt lat="42.9871749" lon="12.5626888"><ele>202.0</ele><time>2026-03-28T17:02:58.328Z</time></trkpt><trkpt lat="42.9873503" lon="12.5625177"><ele>202.0</ele><time>2026-03-28T17:02:59.327Z</time></trkpt><trkpt lat="42.9875035" lon="12.5623659"><ele>202.0</ele><time>2026-03-28T17:03:00.328Z</time></trkpt><trkpt lat="42.9876746" lon="12.5621964"><ele>202.33333333333331</ele><time>2026-03-28T17:03:01.328Z</time></trkpt><trkpt lat="42.9878299" lon="12.562046"><ele>202.66666666666669</ele><time>2026-03-28T17:03:02.328Z</time></trkpt><trkpt lat="42.9879692" lon="12.5619092"><ele>203.0</ele><time>2026-03-28T17:03:03.328Z</time></trkpt><trkpt lat="42.9881203" lon="12.5617619"><ele>203.0</ele><time>2026-03-28T17:03:04.327Z</time></trkpt><trkpt lat="42.9882599" lon="12.5616238"><ele>203.0</ele><time>2026-03-28T17:03:05.328Z</time></trkpt><trkpt lat="42.9884009" lon="12.5614845"><ele>203.0</ele><time>2026-03-28T17:03:06.328Z</time></trkpt><trkpt lat="42.9885441" lon="12.5613422"><ele>203.33333333333334</ele><time>2026-03-28T17:03:07.328Z</time></trkpt><trkpt lat="42.9886791" lon="12.5612063"><ele>203.66666666666669</ele><time>2026-03-28T17:03:08.328Z</time></trkpt><trkpt lat="42.9888349" lon="12.5610489"><ele>204.0</ele><time>2026-03-28T17:03:09.328Z</time></trkpt><trkpt lat="42.9889863" lon="12.5608988"><ele>204.33333333333331</ele><time>2026-03-28T17:03:10.328Z</time></trkpt><trkpt lat="42.9891292" lon="12.5607553"><ele>204.66666666666666</ele><time>2026-03-28T17:03:11.328Z</time></trkpt><trkpt lat="42.9892935" lon="12.5605925"><ele>205.0</ele><time>2026-03-28T17:03:12.328Z</time></trkpt><trkpt lat="42.9894344" lon="12.5604468"><ele>204.66666666666666</ele><time>2026-03-28T17:03:13.328Z</time></trkpt><trkpt lat="42.989596" lon="12.5602809"><ele>204.33333333333331</ele><time>2026-03-28T17:03:14.328Z</time></trkpt><trkpt lat="42.9897508" lon="12.5601252"><ele>204.0</ele><time>2026-03-28T17:03:15.327Z</time></trkpt><trkpt lat="42.9898974" lon="12.5599808"><ele>203.66666666666669</ele><time>2026-03-28T17:03:16.328Z</time></trkpt><trkpt lat="42.9900661" lon="12.559816"><ele>203.33333333333334</ele><time>2026-03-28T17:03:17.328Z</time></trkpt><trkpt lat="42.9902232" lon="12.5596646"><ele>203.0</ele><time>2026-03-28T17:03:18.328Z</time></trkpt><trkpt lat="42.9903701" lon="12.5595237"><ele>203.66666666666669</ele><time>2026-03-28T17:03:19.328Z</time></trkpt><trkpt lat="42.9905354" lon="12.5593654"><ele>204.33333333333331</ele><time>2026-03-28T17:03:20.328Z</time></trkpt><trkpt lat="42.9906877" lon="12.5592113"><ele>205.0</ele><time>2026-03-28T17:03:21.328Z</time></trkpt><trkpt lat="42.990835" lon="12.5590494"><ele>204.33333333333331</ele><time>2026-03-28T17:03:22.328Z</time></trkpt><trkpt lat="42.9909774" lon="12.5588734"><ele>203.66666666666669</ele><time>2026-03-28T17:03:23.328Z</time></trkpt><trkpt lat="42.9911028" lon="12.5586979"><ele>203.0</ele><time>2026-03-28T17:03:24.327Z</time></trkpt><trkpt lat="42.9912372" lon="12.5584891"><ele>204.33333333333334</ele><time>2026-03-28T17:03:25.328Z</time></trkpt><trkpt lat="42.9913586" lon="12.5582906"><ele>205.66666666666669</ele><time>2026-03-28T17:03:26.328Z</time></trkpt><trkpt lat="42.9914692" lon="12.558104"><ele>207.0</ele><time>2026-03-28T17:03:27.328Z</time></trkpt><trkpt lat="42.9915966" lon="12.5578956"><ele>206.0</ele><time>2026-03-28T17:03:28.327Z</time></trkpt><trkpt lat="42.991709" lon="12.5577156"><ele>205.0</ele><time>2026-03-28T17:03:29.328Z</time></trkpt><trkpt lat="42.9918283" lon="12.5575222"><ele>204.0</ele><time>2026-03-28T17:03:30.327Z</time></trkpt><trkpt lat="42.9919517" lon="12.5573204"><ele>204.0</ele><time>2026-03-28T17:03:31.328Z</time></trkpt><trkpt lat="42.9920595" lon="12.5571436"><ele>204.0</ele><time>2026-03-28T17:03:32.328Z</time></trkpt><trkpt lat="42.9921827" lon="12.5569425"><ele>204.0</ele><time>2026-03-28T17:03:33.328Z</time></trkpt><trkpt lat="42.9923006" lon="12.5567573"><ele>205.0</ele><time>2026-03-28T17:03:34.328Z</time></trkpt><trkpt lat="42.9924112" lon="12.5565798"><ele>206.0</ele><time>2026-03-28T17:03:35.328Z</time></trkpt><trkpt lat="42.9925316" lon="12.5563784"><ele>207.0</ele><time>2026-03-28T17:03:36.328Z</time></trkpt><trkpt lat="42.9926491" lon="12.5561904"><ele>208.0</ele><time>2026-03-28T17:03:37.328Z</time></trkpt><trkpt lat="42.9927507" lon="12.556015"><ele>209.0</ele><time>2026-03-28T17:03:38.327Z</time></trkpt><trkpt lat="42.9928636" lon="12.5558259"><ele>210.0</ele><time>2026-03-28T17:03:39.328Z</time></trkpt><trkpt lat="42.9929649" lon="12.5556645"><ele>210.0</ele><time>2026-03-28T17:03:40.327Z</time></trkpt><trkpt lat="42.9930803" lon="12.5554789"><ele>210.0</ele><time>2026-03-28T17:03:41.327Z</time></trkpt><trkpt lat="42.9931882" lon="12.5553033"><ele>210.0</ele><time>2026-03-28T17:03:42.328Z</time></trkpt><trkpt lat="42.9932865" lon="12.5551354"><ele>208.33333333333331</ele><time>2026-03-28T17:03:43.328Z</time></trkpt><trkpt lat="42.993401" lon="12.5549397"><ele>206.66666666666666</ele><time>2026-03-28T17:03:44.328Z</time></trkpt><trkpt lat="42.9935009" lon="12.5547689"><ele>205.0</ele><time>2026-03-28T17:03:45.328Z</time></trkpt><trkpt lat="42.9936205" lon="12.5545728"><ele>206.0</ele><time>2026-03-28T17:03:46.327Z</time></trkpt><trkpt lat="42.9937361" lon="12.5543941"><ele>207.0</ele><time>2026-03-28T17:03:47.328Z</time></trkpt><trkpt lat="42.9938484" lon="12.5542339"><ele>208.0</ele><time>2026-03-28T17:03:48.328Z</time></trkpt><trkpt lat="42.9939862" lon="12.5540687"><ele>208.0</ele><time>2026-03-28T17:03:49.327Z</time></trkpt><trkpt lat="42.994125" lon="12.5539217"><ele>208.0</ele><time>2026-03-28T17:03:50.328Z</time></trkpt><trkpt lat="42.9942556" lon="12.5537971"><ele>208.0</ele><time>2026-03-28T17:03:51.327Z</time></trkpt><trkpt lat="42.9943969" lon="12.5536622"><ele>208.66666666666666</ele><time>2026-03-28T17:03:52.328Z</time></trkpt><trkpt lat="42.9945284" lon="12.5535386"><ele>209.33333333333331</ele><time>2026-03-28T17:03:53.328Z</time></trkpt><trkpt lat="42.9946618" lon="12.5534122"><ele>210.0</ele><time>2026-03-28T17:03:54.328Z</time></trkpt><trkpt lat="42.9947962" lon="12.5532873"><ele>210.0</ele><time>2026-03-28T17:03:55.328Z</time></trkpt><trkpt lat="42.9949215" lon="12.5531592"><ele>210.0</ele><time>2026-03-28T17:03:56.328Z</time></trkpt><trkpt lat="42.9950606" lon="12.5529989"><ele>210.0</ele><time>2026-03-28T17:03:57.328Z</time></trkpt><trkpt lat="42.9951853" lon="12.5528423"><ele>209.33333333333331</ele><time>2026-03-28T17:03:58.328Z</time></trkpt><trkpt lat="42.9952987" lon="12.5526921"><ele>208.66666666666666</ele><time>2026-03-28T17:03:59.328Z</time></trkpt><trkpt lat="42.9954222" lon="12.5525182"><ele>208.0</ele><time>2026-03-28T17:04:00.327Z</time></trkpt><trkpt lat="42.9955234" lon="12.5523699"><ele>208.0</ele><time>2026-03-28T17:04:01.328Z</time></trkpt><trkpt lat="42.995638" lon="12.5522011"><ele>208.0</ele><time>2026-03-28T17:04:02.327Z</time></trkpt><trkpt lat="42.9957433" lon="12.5520423"><ele>208.0</ele><time>2026-03-28T17:04:03.328Z</time></trkpt><trkpt lat="42.9958426" lon="12.5518931"><ele>208.0</ele><time>2026-03-28T17:04:04.328Z</time></trkpt><trkpt lat="42.9959554" lon="12.5517283"><ele>208.0</ele><time>2026-03-28T17:04:05.328Z</time></trkpt><trkpt lat="42.9960628" lon="12.551575"><ele>208.0</ele><time>2026-03-28T17:04:06.328Z</time></trkpt><trkpt lat="42.9961695" lon="12.5514315"><ele>208.0</ele><time>2026-03-28T17:04:07.328Z</time></trkpt><trkpt lat="42.9963024" lon="12.5512848"><ele>208.0</ele><time>2026-03-28T17:04:08.328Z</time></trkpt><trkpt lat="42.9964401" lon="12.551156"><ele>208.0</ele><time>2026-03-28T17:04:09.328Z</time></trkpt><trkpt lat="42.996576" lon="12.5510369"><ele>208.66666666666666</ele><time>2026-03-28T17:04:10.328Z</time></trkpt><trkpt lat="42.9967362" lon="12.5509082"><ele>209.33333333333331</ele><time>2026-03-28T17:04:11.328Z</time></trkpt><trkpt lat="42.9968806" lon="12.5507952"><ele>210.0</ele><time>2026-03-28T17:04:12.327Z</time></trkpt><trkpt lat="42.9970477" lon="12.5506689"><ele>210.0</ele><time>2026-03-28T17:04:13.328Z</time></trkpt><trkpt lat="42.9972046" lon="12.5505413"><ele>210.0</ele><time>2026-03-28T17:04:14.328Z</time></trkpt><trkpt lat="42.9973523" lon="12.550423"><ele>210.0</ele><time>2026-03-28T17:04:15.328Z</time></trkpt><trkpt lat="42.9975237" lon="12.5502902"><ele>210.66666666666669</ele><time>2026-03-28T17:04:16.328Z</time></trkpt><trkpt lat="42.9976797" lon="12.550169"><ele>211.33333333333334</ele><time>2026-03-28T17:04:17.328Z</time></trkpt><trkpt lat="42.9978479" lon="12.5500385"><ele>212.0</ele><time>2026-03-28T17:04:18.328Z</time></trkpt><trkpt lat="42.9980292" lon="12.549898"><ele>212.0</ele><time>2026-03-28T17:04:19.327Z</time></trkpt><trkpt lat="42.9981871" lon="12.5497749"><ele>212.0</ele><time>2026-03-28T17:04:20.328Z</time></trkpt><trkpt lat="42.9983687" lon="12.5496338"><ele>212.0</ele><time>2026-03-28T17:04:21.327Z</time></trkpt><trkpt lat="42.9985404" lon="12.5494982"><ele>212.0</ele><time>2026-03-28T17:04:22.328Z</time></trkpt><trkpt lat="42.9987023" lon="12.5493684"><ele>212.0</ele><time>2026-03-28T17:04:23.327Z</time></trkpt><trkpt lat="42.9988809" lon="12.5492275"><ele>212.0</ele><time>2026-03-28T17:04:24.328Z</time></trkpt><trkpt lat="42.9990431" lon="12.5490992"><ele>211.33333333333334</ele><time>2026-03-28T17:04:25.328Z</time></trkpt><trkpt lat="42.999206" lon="12.5489805"><ele>210.66666666666669</ele><time>2026-03-28T17:04:26.328Z</time></trkpt><trkpt lat="42.9993685" lon="12.5488745"><ele>210.0</ele><time>2026-03-28T17:04:27.328Z</time></trkpt><trkpt lat="42.9995244" lon="12.5487871"><ele>210.66666666666669</ele><time>2026-03-28T17:04:28.328Z</time></trkpt><trkpt lat="42.9997057" lon="12.548701"><ele>211.33333333333334</ele><time>2026-03-28T17:04:29.328Z</time></trkpt><trkpt lat="42.9998757" lon="12.5486231"><ele>212.0</ele><time>2026-03-28T17:04:30.327Z</time></trkpt><trkpt lat="43.0000366" lon="12.5485496"><ele>212.0</ele><time>2026-03-28T17:04:31.327Z</time></trkpt><trkpt lat="43.000216" lon="12.5484679"><ele>212.0</ele><time>2026-03-28T17:04:32.328Z</time></trkpt><trkpt lat="43.0003662" lon="12.5483968"><ele>212.0</ele><time>2026-03-28T17:04:33.327Z</time></trkpt><trkpt lat="43.0005265" lon="12.5483241"><ele>212.0</ele><time>2026-03-28T17:04:34.328Z</time></trkpt><trkpt lat="43.0006651" lon="12.5482512"><ele>212.0</ele><time>2026-03-28T17:04:35.328Z</time></trkpt><trkpt lat="43.0007969" lon="12.5481972"><ele>212.0</ele><time>2026-03-28T17:04:36.328Z</time></trkpt><trkpt lat="43.0009457" lon="12.5481323"><ele>212.0</ele><time>2026-03-28T17:04:37.328Z</time></trkpt><trkpt lat="43.0010895" lon="12.5480687"><ele>210.66666666666669</ele><time>2026-03-28T17:04:38.328Z</time></trkpt><trkpt lat="43.001227" lon="12.5480087"><ele>209.33333333333331</ele><time>2026-03-28T17:04:39.327Z</time></trkpt><trkpt lat="43.0013879" lon="12.5479437"><ele>208.0</ele><time>2026-03-28T17:04:40.328Z</time></trkpt><trkpt lat="43.0015371" lon="12.5478745"><ele>207.33333333333331</ele><time>2026-03-28T17:04:41.328Z</time></trkpt><trkpt lat="43.001686" lon="12.5478104"><ele>206.66666666666669</ele><time>2026-03-28T17:04:42.327Z</time></trkpt><trkpt lat="43.0018381" lon="12.5477432"><ele>206.0</ele><time>2026-03-28T17:04:43.328Z</time></trkpt><trkpt lat="43.0019789" lon="12.5476811"><ele>206.0</ele><time>2026-03-28T17:04:44.328Z</time></trkpt><trkpt lat="43.0021414" lon="12.5476104"><ele>206.0</ele><time>2026-03-28T17:04:45.327Z</time></trkpt><trkpt lat="43.0022979" lon="12.5475432"><ele>206.0</ele><time>2026-03-28T17:04:46.328Z</time></trkpt><trkpt lat="43.0024457" lon="12.5474786"><ele>204.66666666666669</ele><time>2026-03-28T17:04:47.328Z</time></trkpt><trkpt lat="43.0026145" lon="12.5474017"><ele>203.33333333333331</ele><time>2026-03-28T17:04:48.327Z</time></trkpt><trkpt lat="43.0027658" lon="12.5473339"><ele>202.0</ele><time>2026-03-28T17:04:49.328Z</time></trkpt><trkpt lat="43.0029326" lon="12.5472614"><ele>202.0</ele><time>2026-03-28T17:04:50.328Z</time></trkpt><trkpt lat="43.0031093" lon="12.5471881"><ele>202.0</ele><time>2026-03-28T17:04:51.328Z</time></trkpt><trkpt lat="43.0032676" lon="12.5471204"><ele>202.0</ele><time>2026-03-28T17:04:52.328Z</time></trkpt><trkpt lat="43.0034435" lon="12.5470382"><ele>202.66666666666666</ele><time>2026-03-28T17:04:53.328Z</time></trkpt><trkpt lat="43.0036135" lon="12.5469651"><ele>203.33333333333331</ele><time>2026-03-28T17:04:54.328Z</time></trkpt><trkpt lat="43.0037721" lon="12.5468926"><ele>204.0</ele><time>2026-03-28T17:04:55.327Z</time></trkpt><trkpt lat="43.0039563" lon="12.5468112"><ele>204.0</ele><time>2026-03-28T17:04:56.328Z</time></trkpt><trkpt lat="43.0041315" lon="12.5467376"><ele>204.0</ele><time>2026-03-28T17:04:57.328Z</time></trkpt><trkpt lat="43.0042937" lon="12.5466651"><ele>204.0</ele><time>2026-03-28T17:04:58.328Z</time></trkpt><trkpt lat="43.0044787" lon="12.5465866"><ele>204.0</ele><time>2026-03-28T17:04:59.327Z</time></trkpt><trkpt lat="43.0046458" lon="12.5465189"><ele>204.0</ele><time>2026-03-28T17:05:00.328Z</time></trkpt><trkpt lat="43.004831" lon="12.5464342"><ele>204.0</ele><time>2026-03-28T17:05:01.328Z</time></trkpt><trkpt lat="43.0050078" lon="12.5463565"><ele>203.0</ele><time>2026-03-28T17:05:02.328Z</time></trkpt><trkpt lat="43.0051742" lon="12.5462841"><ele>202.0</ele><time>2026-03-28T17:05:03.328Z</time></trkpt><trkpt lat="43.0053618" lon="12.5462005"><ele>201.0</ele><time>2026-03-28T17:05:04.328Z</time></trkpt><trkpt lat="43.0055242" lon="12.5461262"><ele>201.0</ele><time>2026-03-28T17:05:05.328Z</time></trkpt><trkpt lat="43.0057106" lon="12.5460411"><ele>201.0</ele><time>2026-03-28T17:05:06.328Z</time></trkpt><trkpt lat="43.0058862" lon="12.5459617"><ele>201.0</ele><time>2026-03-28T17:05:07.328Z</time></trkpt><trkpt lat="43.0060495" lon="12.5458891"><ele>200.33333333333331</ele><time>2026-03-28T17:05:08.327Z</time></trkpt><trkpt lat="43.0062357" lon="12.545806"><ele>199.66666666666666</ele><time>2026-03-28T17:05:09.327Z</time></trkpt><trkpt lat="43.0064114" lon="12.5457306"><ele>199.0</ele><time>2026-03-28T17:05:10.328Z</time></trkpt><trkpt lat="43.0065762" lon="12.5456597"><ele>198.0</ele><time>2026-03-28T17:05:11.328Z</time></trkpt><trkpt lat="43.0067598" lon="12.5455738"><ele>197.0</ele><time>2026-03-28T17:05:12.327Z</time></trkpt><trkpt lat="43.0069306" lon="12.5454919"><ele>196.0</ele><time>2026-03-28T17:05:13.328Z</time></trkpt><trkpt lat="43.0071044" lon="12.5454144"><ele>196.66666666666666</ele><time>2026-03-28T17:05:14.328Z</time></trkpt><trkpt lat="43.0072781" lon="12.5453405"><ele>197.33333333333331</ele><time>2026-03-28T17:05:15.327Z</time></trkpt><trkpt lat="43.0074429" lon="12.5452719"><ele>198.0</ele><time>2026-03-28T17:05:16.328Z</time></trkpt><trkpt lat="43.0076233" lon="12.5451906"><ele>198.0</ele><time>2026-03-28T17:05:17.328Z</time></trkpt><trkpt lat="43.0077906" lon="12.5451097"><ele>198.0</ele><time>2026-03-28T17:05:18.327Z</time></trkpt><trkpt lat="43.0079438" lon="12.545028"><ele>198.0</ele><time>2026-03-28T17:05:19.327Z</time></trkpt><trkpt lat="43.008113" lon="12.5449184"><ele>198.0</ele><time>2026-03-28T17:05:20.327Z</time></trkpt><trkpt lat="43.0082549" lon="12.5448092"><ele>198.0</ele><time>2026-03-28T17:05:21.327Z</time></trkpt><trkpt lat="43.0084057" lon="12.544664"><ele>198.0</ele><time>2026-03-28T17:05:22.328Z</time></trkpt><trkpt lat="43.0085483" lon="12.5445139"><ele>197.66666666666669</ele><time>2026-03-28T17:05:23.328Z</time></trkpt><trkpt lat="43.0086766" lon="12.5443628"><ele>197.33333333333334</ele><time>2026-03-28T17:05:24.328Z</time></trkpt><trkpt lat="43.00882" lon="12.5441888"><ele>197.0</ele><time>2026-03-28T17:05:25.327Z</time></trkpt><trkpt lat="43.008952" lon="12.5440278"><ele>197.0</ele><time>2026-03-28T17:05:26.328Z</time></trkpt><trkpt lat="43.0090718" lon="12.5438808"><ele>197.0</ele><time>2026-03-28T17:05:27.328Z</time></trkpt><trkpt lat="43.0092089" lon="12.5437179"><ele>197.0</ele><time>2026-03-28T17:05:28.327Z</time></trkpt><trkpt lat="43.0093369" lon="12.5435616"><ele>196.66666666666669</ele><time>2026-03-28T17:05:29.328Z</time></trkpt><trkpt lat="43.0094606" lon="12.5434215"><ele>196.33333333333331</ele><time>2026-03-28T17:05:30.328Z</time></trkpt><trkpt lat="43.0096022" lon="12.5432592"><ele>196.0</ele><time>2026-03-28T17:05:31.328Z</time></trkpt><trkpt lat="43.0097243" lon="12.5431173"><ele>196.0</ele><time>2026-03-28T17:05:32.328Z</time></trkpt><trkpt lat="43.0098637" lon="12.5429525"><ele>196.0</ele><time>2026-03-28T17:05:33.328Z</time></trkpt><trkpt lat="43.0099939" lon="12.5427954"><ele>196.0</ele><time>2026-03-28T17:05:34.328Z</time></trkpt><trkpt lat="43.0101154" lon="12.542646"><ele>195.66666666666666</ele><time>2026-03-28T17:05:35.327Z</time></trkpt><trkpt lat="43.0102553" lon="12.542472"><ele>195.33333333333331</ele><time>2026-03-28T17:05:36.328Z</time></trkpt><trkpt lat="43.0103836" lon="12.5423264"><ele>195.0</ele><time>2026-03-28T17:05:37.327Z</time></trkpt><trkpt lat="43.0105173" lon="12.5421701"><ele>195.33333333333331</ele><time>2026-03-28T17:05:38.328Z</time></trkpt><trkpt lat="43.0106634" lon="12.5419999"><ele>195.66666666666666</ele><time>2026-03-28T17:05:39.328Z</time></trkpt><trkpt lat="43.0107934" lon="12.5418478"><ele>196.0</ele><time>2026-03-28T17:05:40.327Z</time></trkpt><trkpt lat="43.0109389" lon="12.5416691"><ele>195.33333333333331</ele><time>2026-03-28T17:05:41.328Z</time></trkpt><trkpt lat="43.0110789" lon="12.5414989"><ele>194.66666666666669</ele><time>2026-03-28T17:05:42.328Z</time></trkpt><trkpt lat="43.0112071" lon="12.5413325"><ele>194.0</ele><time>2026-03-28T17:05:43.327Z</time></trkpt><trkpt lat="43.0113573" lon="12.5411516"><ele>194.0</ele><time>2026-03-28T17:05:44.328Z</time></trkpt><trkpt lat="43.0114999" lon="12.5409771"><ele>194.0</ele><time>2026-03-28T17:05:45.327Z</time></trkpt><trkpt lat="43.0116424" lon="12.5408001"><ele>194.0</ele><time>2026-03-28T17:05:46.328Z</time></trkpt><trkpt lat="43.011784" lon="12.5406286"><ele>193.66666666666669</ele><time>2026-03-28T17:05:47.328Z</time></trkpt><trkpt lat="43.0119199" lon="12.540467"><ele>193.33333333333331</ele><time>2026-03-28T17:05:48.328Z</time></trkpt><trkpt lat="43.0120719" lon="12.5402833"><ele>193.0</ele><time>2026-03-28T17:05:49.327Z</time></trkpt><trkpt lat="43.0122203" lon="12.5401115"><ele>193.0</ele><time>2026-03-28T17:05:50.328Z</time></trkpt><trkpt lat="43.0123506" lon="12.5399468"><ele>193.0</ele><time>2026-03-28T17:05:51.327Z</time></trkpt><trkpt lat="43.0125039" lon="12.5397713"><ele>193.0</ele><time>2026-03-28T17:05:52.328Z</time></trkpt><trkpt lat="43.0126359" lon="12.5396297"><ele>192.33333333333331</ele><time>2026-03-28T17:05:53.327Z</time></trkpt><trkpt lat="43.0127788" lon="12.5394791"><ele>191.66666666666666</ele><time>2026-03-28T17:05:54.328Z</time></trkpt><trkpt lat="43.0129041" lon="12.5393402"><ele>191.0</ele><time>2026-03-28T17:05:55.328Z</time></trkpt><trkpt lat="43.0130106" lon="12.5392252"><ele>191.0</ele><time>2026-03-28T17:05:56.328Z</time></trkpt><trkpt lat="43.0131204" lon="12.5391046"><ele>191.0</ele><time>2026-03-28T17:05:57.328Z</time></trkpt><trkpt lat="43.0132183" lon="12.5389983"><ele>191.0</ele><time>2026-03-28T17:05:58.328Z</time></trkpt><trkpt lat="43.0133093" lon="12.5388969"><ele>191.0</ele><time>2026-03-28T17:05:59.328Z</time></trkpt><trkpt lat="43.0134128" lon="12.5387765"><ele>190.66666666666666</ele><time>2026-03-28T17:06:00.328Z</time></trkpt><trkpt lat="43.0135216" lon="12.5386554"><ele>190.33333333333334</ele><time>2026-03-28T17:06:01.328Z</time></trkpt><trkpt lat="43.0136389" lon="12.5385266"><ele>190.0</ele><time>2026-03-28T17:06:02.328Z</time></trkpt><trkpt lat="43.0137631" lon="12.5383887"><ele>190.0</ele><time>2026-03-28T17:06:03.328Z</time></trkpt><trkpt lat="43.0138854" lon="12.538253"><ele>190.0</ele><time>2026-03-28T17:06:04.328Z</time></trkpt><trkpt lat="43.014031" lon="12.5381052"><ele>190.0</ele><time>2026-03-28T17:06:05.327Z</time></trkpt><trkpt lat="43.014165" lon="12.5379606"><ele>189.66666666666669</ele><time>2026-03-28T17:06:06.328Z</time></trkpt><trkpt lat="43.0142882" lon="12.5378221"><ele>189.33333333333334</ele><time>2026-03-28T17:06:07.328Z</time></trkpt><trkpt lat="43.0144387" lon="12.5376629"><ele>189.0</ele><time>2026-03-28T17:06:08.328Z</time></trkpt><trkpt lat="43.0145706" lon="12.5375242"><ele>189.0</ele><time>2026-03-28T17:06:09.328Z</time></trkpt><trkpt lat="43.014716" lon="12.5373681"><ele>189.0</ele><time>2026-03-28T17:06:10.328Z</time></trkpt><trkpt lat="43.0148714" lon="12.5372019"><ele>189.0</ele><time>2026-03-28T17:06:11.328Z</time></trkpt><trkpt lat="43.015011" lon="12.5370511"><ele>188.66666666666666</ele><time>2026-03-28T17:06:12.327Z</time></trkpt><trkpt lat="43.0151682" lon="12.5368793"><ele>188.33333333333331</ele><time>2026-03-28T17:06:13.327Z</time></trkpt><trkpt lat="43.0153183" lon="12.5367178"><ele>188.0</ele><time>2026-03-28T17:06:14.328Z</time></trkpt><trkpt lat="43.0154555" lon="12.5365718"><ele>188.0</ele><time>2026-03-28T17:06:15.327Z</time></trkpt><trkpt lat="43.015612" lon="12.5364014"><ele>188.0</ele><time>2026-03-28T17:06:16.328Z</time></trkpt><trkpt lat="43.0157548" lon="12.536241"><ele>188.0</ele><time>2026-03-28T17:06:17.328Z</time></trkpt><trkpt lat="43.0159007" lon="12.5360774"><ele>188.33333333333331</ele><time>2026-03-28T17:06:18.327Z</time></trkpt><trkpt lat="43.0160482" lon="12.5359123"><ele>188.66666666666666</ele><time>2026-03-28T17:06:19.328Z</time></trkpt><trkpt lat="43.0161869" lon="12.5357583"><ele>189.0</ele><time>2026-03-28T17:06:20.327Z</time></trkpt><trkpt lat="43.0163433" lon="12.5355746"><ele>189.0</ele><time>2026-03-28T17:06:21.328Z</time></trkpt><trkpt lat="43.0164899" lon="12.535409"><ele>189.0</ele><time>2026-03-28T17:06:22.328Z</time></trkpt><trkpt lat="43.0166267" lon="12.5352399"><ele>189.0</ele><time>2026-03-28T17:06:23.328Z</time></trkpt><trkpt lat="43.0167812" lon="12.5350469"><ele>188.66666666666666</ele><time>2026-03-28T17:06:24.327Z</time></trkpt><trkpt lat="43.0169145" lon="12.5348745"><ele>188.33333333333331</ele><time>2026-03-28T17:06:25.328Z</time></trkpt><trkpt lat="43.0170622" lon="12.5346654"><ele>188.0</ele><time>2026-03-28T17:06:26.328Z</time></trkpt><trkpt lat="43.017204" lon="12.5344775"><ele>188.0</ele><time>2026-03-28T17:06:27.327Z</time></trkpt><trkpt lat="43.0173317" lon="12.5342929"><ele>188.0</ele><time>2026-03-28T17:06:28.328Z</time></trkpt><trkpt lat="43.0174654" lon="12.5340664"><ele>188.0</ele><time>2026-03-28T17:06:29.327Z</time></trkpt><trkpt lat="43.017579" lon="12.5338506"><ele>187.66666666666666</ele><time>2026-03-28T17:06:30.328Z</time></trkpt><trkpt lat="43.0176737" lon="12.5336126"><ele>187.33333333333334</ele><time>2026-03-28T17:06:31.328Z</time></trkpt><trkpt lat="43.0177683" lon="12.5333801"><ele>187.0</ele><time>2026-03-28T17:06:32.328Z</time></trkpt><trkpt lat="43.017849" lon="12.5331485"><ele>187.0</ele><time>2026-03-28T17:06:33.327Z</time></trkpt><trkpt lat="43.0179385" lon="12.5329093"><ele>187.0</ele><time>2026-03-28T17:06:34.328Z</time></trkpt><trkpt lat="43.0180272" lon="12.532662"><ele>187.0</ele><time>2026-03-28T17:06:35.328Z</time></trkpt><trkpt lat="43.0181165" lon="12.5324252"><ele>187.33333333333334</ele><time>2026-03-28T17:06:36.328Z</time></trkpt><trkpt lat="43.018199" lon="12.5321742"><ele>187.66666666666666</ele><time>2026-03-28T17:06:37.328Z</time></trkpt><trkpt lat="43.0182783" lon="12.5319297"><ele>188.0</ele><time>2026-03-28T17:06:38.328Z</time></trkpt><trkpt lat="43.018356" lon="12.5316894"><ele>188.0</ele><time>2026-03-28T17:06:39.328Z</time></trkpt><trkpt lat="43.0184253" lon="12.5314416"><ele>188.0</ele><time>2026-03-28T17:06:40.328Z</time></trkpt><trkpt lat="43.0184964" lon="12.5311942"><ele>188.0</ele><time>2026-03-28T17:06:41.328Z</time></trkpt><trkpt lat="43.0185723" lon="12.5309449"><ele>188.0</ele><time>2026-03-28T17:06:42.328Z</time></trkpt><trkpt lat="43.0186301" lon="12.5307193"><ele>188.0</ele><time>2026-03-28T17:06:43.328Z</time></trkpt><trkpt lat="43.0186925" lon="12.5304931"><ele>188.0</ele><time>2026-03-28T17:06:44.328Z</time></trkpt><trkpt lat="43.0187548" lon="12.5302865"><ele>189.0</ele><time>2026-03-28T17:06:45.327Z</time></trkpt><trkpt lat="43.0188087" lon="12.5300686"><ele>190.0</ele><time>2026-03-28T17:06:46.327Z</time></trkpt><trkpt lat="43.0188679" lon="12.5298663"><ele>191.0</ele><time>2026-03-28T17:06:47.327Z</time></trkpt><trkpt lat="43.0189205" lon="12.5296584"><ele>191.66666666666666</ele><time>2026-03-28T17:06:48.328Z</time></trkpt><trkpt lat="43.0189766" lon="12.5294438"><ele>192.33333333333331</ele><time>2026-03-28T17:06:49.327Z</time></trkpt><trkpt lat="43.0190341" lon="12.5292371"><ele>193.0</ele><time>2026-03-28T17:06:50.328Z</time></trkpt><trkpt lat="43.0190834" lon="12.5290435"><ele>193.0</ele><time>2026-03-28T17:06:51.328Z</time></trkpt><trkpt lat="43.0191325" lon="12.5288537"><ele>193.0</ele><time>2026-03-28T17:06:52.328Z</time></trkpt><trkpt lat="43.0191799" lon="12.5286763"><ele>193.0</ele><time>2026-03-28T17:06:53.327Z</time></trkpt><trkpt lat="43.019235" lon="12.5284814"><ele>193.0</ele><time>2026-03-28T17:06:54.328Z</time></trkpt><trkpt lat="43.0192895" lon="12.5282886"><ele>192.0</ele><time>2026-03-28T17:06:55.328Z</time></trkpt><trkpt lat="43.0193462" lon="12.528096"><ele>191.0</ele><time>2026-03-28T17:06:56.328Z</time></trkpt><trkpt lat="43.0194093" lon="12.5278994"><ele>190.0</ele><time>2026-03-28T17:06:57.327Z</time></trkpt><trkpt lat="43.0194731" lon="12.527698"><ele>190.0</ele><time>2026-03-28T17:06:58.328Z</time></trkpt><trkpt lat="43.0195339" lon="12.527494"><ele>190.0</ele><time>2026-03-28T17:06:59.328Z</time></trkpt><trkpt lat="43.019589" lon="12.5272769"><ele>190.0</ele><time>2026-03-28T17:07:00.328Z</time></trkpt><trkpt lat="43.0196373" lon="12.5270602"><ele>190.66666666666669</ele><time>2026-03-28T17:07:01.328Z</time></trkpt><trkpt lat="43.0196766" lon="12.5268472"><ele>191.33333333333334</ele><time>2026-03-28T17:07:02.328Z</time></trkpt><trkpt lat="43.0196969" lon="12.5266251"><ele>192.0</ele><time>2026-03-28T17:07:03.328Z</time></trkpt><trkpt lat="43.0197073" lon="12.5264077"><ele>193.33333333333331</ele><time>2026-03-28T17:07:04.328Z</time></trkpt><trkpt lat="43.0197184" lon="12.526199"><ele>194.66666666666666</ele><time>2026-03-28T17:07:05.328Z</time></trkpt><trkpt lat="43.0197219" lon="12.525989"><ele>196.0</ele><time>2026-03-28T17:07:06.327Z</time></trkpt><trkpt lat="43.0197211" lon="12.5257851"><ele>196.0</ele><time>2026-03-28T17:07:07.328Z</time></trkpt><trkpt lat="43.0197302" lon="12.525584"><ele>196.0</ele><time>2026-03-28T17:07:08.328Z</time></trkpt><trkpt lat="43.0197234" lon="12.5253826"><ele>196.0</ele><time>2026-03-28T17:07:09.328Z</time></trkpt><trkpt lat="43.0197369" lon="12.5251864"><ele>196.0</ele><time>2026-03-28T17:07:10.328Z</time></trkpt><trkpt lat="43.0197593" lon="12.5249919"><ele>196.5</ele><time>2026-03-28T17:07:11.328Z</time></trkpt><trkpt lat="43.0197876" lon="12.5247963"><ele>197.0</ele><time>2026-03-28T17:07:12.328Z</time></trkpt><trkpt lat="43.0198273" lon="12.524607"><ele>197.5</ele><time>2026-03-28T17:07:13.327Z</time></trkpt><trkpt lat="43.0198651" lon="12.5244211"><ele>198.0</ele><time>2026-03-28T17:07:14.328Z</time></trkpt><trkpt lat="43.0199033" lon="12.5242429"><ele>198.0</ele><time>2026-03-28T17:07:15.328Z</time></trkpt><trkpt lat="43.0199424" lon="12.5240711"><ele>198.0</ele><time>2026-03-28T17:07:16.328Z</time></trkpt><trkpt lat="43.019982" lon="12.5238969"><ele>198.0</ele><time>2026-03-28T17:07:17.328Z</time></trkpt><trkpt lat="43.0200265" lon="12.5237211"><ele>198.0</ele><time>2026-03-28T17:07:18.328Z</time></trkpt><trkpt lat="43.0200687" lon="12.5235493"><ele>197.75</ele><time>2026-03-28T17:07:19.328Z</time></trkpt><trkpt lat="43.0200981" lon="12.5233798"><ele>197.5</ele><time>2026-03-28T17:07:20.328Z</time></trkpt><trkpt lat="43.0201422" lon="12.5232162"><ele>197.25</ele><time>2026-03-28T17:07:21.327Z</time></trkpt><trkpt lat="43.020172" lon="12.523042"><ele>197.0</ele><time>2026-03-28T17:07:22.328Z</time></trkpt><trkpt lat="43.0202169" lon="12.5228685"><ele>196.75</ele><time>2026-03-28T17:07:23.327Z</time></trkpt><trkpt lat="43.0202532" lon="12.5226852"><ele>196.5</ele><time>2026-03-28T17:07:24.328Z</time></trkpt><trkpt lat="43.0202965" lon="12.5224945"><ele>196.25</ele><time>2026-03-28T17:07:25.328Z</time></trkpt><trkpt lat="43.0203367" lon="12.5223117"><ele>196.0</ele><time>2026-03-28T17:07:26.327Z</time></trkpt><trkpt lat="43.0203834" lon="12.5221182"><ele>196.25</ele><time>2026-03-28T17:07:27.327Z</time></trkpt><trkpt lat="43.0204254" lon="12.5219223"><ele>196.5</ele><time>2026-03-28T17:07:28.327Z</time></trkpt><trkpt lat="43.0204773" lon="12.5217213"><ele>196.75</ele><time>2026-03-28T17:07:29.328Z</time></trkpt><trkpt lat="43.0205207" lon="12.5215334"><ele>197.0</ele><time>2026-03-28T17:07:30.327Z</time></trkpt><trkpt lat="43.0205655" lon="12.5213445"><ele>197.25</ele><time>2026-03-28T17:07:31.327Z</time></trkpt><trkpt lat="43.0206075" lon="12.5211572"><ele>197.5</ele><time>2026-03-28T17:07:32.328Z</time></trkpt><trkpt lat="43.020651" lon="12.5209713"><ele>197.75</ele><time>2026-03-28T17:07:33.328Z</time></trkpt><trkpt lat="43.02069" lon="12.5207826"><ele>198.0</ele><time>2026-03-28T17:07:34.328Z</time></trkpt><trkpt lat="43.020721" lon="12.52059"><ele>198.0</ele><time>2026-03-28T17:07:35.328Z</time></trkpt><trkpt lat="43.0207485" lon="12.5204035"><ele>198.0</ele><time>2026-03-28T17:07:36.328Z</time></trkpt><trkpt lat="43.0207697" lon="12.5202133"><ele>198.0</ele><time>2026-03-28T17:07:37.328Z</time></trkpt><trkpt lat="43.0207921" lon="12.5200186"><ele>198.0</ele><time>2026-03-28T17:07:38.328Z</time></trkpt><trkpt lat="43.0208138" lon="12.5198225"><ele>198.0</ele><time>2026-03-28T17:07:39.327Z</time></trkpt><trkpt lat="43.0208228" lon="12.5196206"><ele>198.0</ele><time>2026-03-28T17:07:40.328Z</time></trkpt><trkpt lat="43.0208283" lon="12.5194163"><ele>198.0</ele><time>2026-03-28T17:07:41.328Z</time></trkpt><trkpt lat="43.0208405" lon="12.5192029"><ele>198.0</ele><time>2026-03-28T17:07:42.328Z</time></trkpt><trkpt lat="43.0208495" lon="12.5189861"><ele>198.0</ele><time>2026-03-28T17:07:43.328Z</time></trkpt><trkpt lat="43.0208548" lon="12.5187599"><ele>198.0</ele><time>2026-03-28T17:07:44.327Z</time></trkpt><trkpt lat="43.0208621" lon="12.5185224"><ele>198.0</ele><time>2026-03-28T17:07:45.328Z</time></trkpt><trkpt lat="43.0208824" lon="12.5182906"><ele>198.0</ele><time>2026-03-28T17:07:46.327Z</time></trkpt><trkpt lat="43.0209095" lon="12.5180636"><ele>198.0</ele><time>2026-03-28T17:07:47.328Z</time></trkpt><trkpt lat="43.0209367" lon="12.5178433"><ele>197.66666666666669</ele><time>2026-03-28T17:07:48.328Z</time></trkpt><trkpt lat="43.0209671" lon="12.5176244"><ele>197.33333333333334</ele><time>2026-03-28T17:07:49.327Z</time></trkpt><trkpt lat="43.0209992" lon="12.5174184"><ele>197.0</ele><time>2026-03-28T17:07:50.328Z</time></trkpt><trkpt lat="43.0210309" lon="12.5172077"><ele>197.0</ele><time>2026-03-28T17:07:51.328Z</time></trkpt><trkpt lat="43.0210631" lon="12.5170054"><ele>197.0</ele><time>2026-03-28T17:07:52.327Z</time></trkpt><trkpt lat="43.0210897" lon="12.5167917"><ele>197.0</ele><time>2026-03-28T17:07:53.328Z</time></trkpt><trkpt lat="43.021118" lon="12.516582"><ele>197.0</ele><time>2026-03-28T17:07:54.328Z</time></trkpt><trkpt lat="43.021137" lon="12.516365"><ele>197.0</ele><time>2026-03-28T17:07:55.328Z</time></trkpt><trkpt lat="43.0211454" lon="12.5161417"><ele>197.0</ele><time>2026-03-28T17:07:56.328Z</time></trkpt><trkpt lat="43.0211608" lon="12.5159159"><ele>196.66666666666669</ele><time>2026-03-28T17:07:57.328Z</time></trkpt><trkpt lat="43.021167" lon="12.5156937"><ele>196.33333333333331</ele><time>2026-03-28T17:07:58.328Z</time></trkpt><trkpt lat="43.0211737" lon="12.5154727"><ele>196.0</ele><time>2026-03-28T17:07:59.328Z</time></trkpt><trkpt lat="43.02118" lon="12.5152542"><ele>195.0</ele><time>2026-03-28T17:08:00.328Z</time></trkpt><trkpt lat="43.0211873" lon="12.5150382"><ele>194.0</ele><time>2026-03-28T17:08:01.327Z</time></trkpt><trkpt lat="43.0211977" lon="12.5148217"><ele>193.0</ele><time>2026-03-28T17:08:02.328Z</time></trkpt><trkpt lat="43.0212052" lon="12.5146042"><ele>193.66666666666666</ele><time>2026-03-28T17:08:03.328Z</time></trkpt><trkpt lat="43.0212078" lon="12.5143868"><ele>194.33333333333331</ele><time>2026-03-28T17:08:04.328Z</time></trkpt><trkpt lat="43.0211938" lon="12.5141637"><ele>195.0</ele><time>2026-03-28T17:08:05.328Z</time></trkpt><trkpt lat="43.0211752" lon="12.5139581"><ele>196.66666666666669</ele><time>2026-03-28T17:08:06.328Z</time></trkpt><trkpt lat="43.0211504" lon="12.5137283"><ele>198.33333333333334</ele><time>2026-03-28T17:08:07.328Z</time></trkpt><trkpt lat="43.0211266" lon="12.5134894"><ele>200.0</ele><time>2026-03-28T17:08:08.327Z</time></trkpt><trkpt lat="43.0210871" lon="12.5132518"><ele>200.0</ele><time>2026-03-28T17:08:09.328Z</time></trkpt><trkpt lat="43.0210599" lon="12.5130102"><ele>200.0</ele><time>2026-03-28T17:08:10.328Z</time></trkpt><trkpt lat="43.0210267" lon="12.5127729"><ele>200.0</ele><time>2026-03-28T17:08:11.328Z</time></trkpt><trkpt lat="43.0209986" lon="12.5125423"><ele>200.33333333333334</ele><time>2026-03-28T17:08:12.328Z</time></trkpt><trkpt lat="43.0209667" lon="12.5123128"><ele>200.66666666666669</ele><time>2026-03-28T17:08:13.328Z</time></trkpt><trkpt lat="43.0209396" lon="12.5120918"><ele>201.0</ele><time>2026-03-28T17:08:14.328Z</time></trkpt><trkpt lat="43.0209141" lon="12.5118848"><ele>201.0</ele><time>2026-03-28T17:08:15.328Z</time></trkpt><trkpt lat="43.0208884" lon="12.5116994"><ele>201.0</ele><time>2026-03-28T17:08:16.328Z</time></trkpt><trkpt lat="43.0208635" lon="12.5115199"><ele>201.0</ele><time>2026-03-28T17:08:17.328Z</time></trkpt><trkpt lat="43.0208435" lon="12.5113457"><ele>201.0</ele><time>2026-03-28T17:08:18.328Z</time></trkpt><trkpt lat="43.0208248" lon="12.5111739"><ele>201.25</ele><time>2026-03-28T17:08:19.328Z</time></trkpt><trkpt lat="43.0208208" lon="12.5109984"><ele>201.5</ele><time>2026-03-28T17:08:20.327Z</time></trkpt><trkpt lat="43.0208225" lon="12.5108353"><ele>201.75</ele><time>2026-03-28T17:08:21.328Z</time></trkpt><trkpt lat="43.020828" lon="12.5106708"><ele>202.0</ele><time>2026-03-28T17:08:22.328Z</time></trkpt><trkpt lat="43.0208526" lon="12.5105011"><ele>201.75</ele><time>2026-03-28T17:08:23.328Z</time></trkpt><trkpt lat="43.0208843" lon="12.5103163"><ele>201.5</ele><time>2026-03-28T17:08:24.328Z</time></trkpt><trkpt lat="43.0209178" lon="12.5101253"><ele>201.25</ele><time>2026-03-28T17:08:25.328Z</time></trkpt><trkpt lat="43.0209544" lon="12.5099299"><ele>201.0</ele><time>2026-03-28T17:08:26.328Z</time></trkpt><trkpt lat="43.0209863" lon="12.5097402"><ele>200.5</ele><time>2026-03-28T17:08:27.328Z</time></trkpt><trkpt lat="43.0210263" lon="12.5095601"><ele>200.0</ele><time>2026-03-28T17:08:28.328Z</time></trkpt><trkpt lat="43.0210579" lon="12.5093792"><ele>199.5</ele><time>2026-03-28T17:08:29.328Z</time></trkpt><trkpt lat="43.0210891" lon="12.5092189"><ele>199.0</ele><time>2026-03-28T17:08:30.328Z</time></trkpt><trkpt lat="43.0211315" lon="12.5090623"><ele>199.0</ele><time>2026-03-28T17:08:31.328Z</time></trkpt><trkpt lat="43.0211808" lon="12.5089305"><ele>199.0</ele><time>2026-03-28T17:08:32.327Z</time></trkpt><trkpt lat="43.0212482" lon="12.5087911"><ele>199.0</ele><time>2026-03-28T17:08:33.327Z</time></trkpt><trkpt lat="43.0213115" lon="12.5086589"><ele>199.0</ele><time>2026-03-28T17:08:34.327Z</time></trkpt><trkpt lat="43.0213885" lon="12.5085394"><ele>198.75</ele><time>2026-03-28T17:08:35.327Z</time></trkpt><trkpt lat="43.0214803" lon="12.5084241"><ele>198.5</ele><time>2026-03-28T17:08:36.327Z</time></trkpt><trkpt lat="43.0215747" lon="12.508321"><ele>198.25</ele><time>2026-03-28T17:08:37.327Z</time></trkpt><trkpt lat="43.0216711" lon="12.5082158"><ele>198.0</ele><time>2026-03-28T17:08:38.327Z</time></trkpt><trkpt lat="43.0217727" lon="12.5081274"><ele>197.25</ele><time>2026-03-28T17:08:39.328Z</time></trkpt><trkpt lat="43.0218818" lon="12.5080531"><ele>196.5</ele><time>2026-03-28T17:08:40.328Z</time></trkpt><trkpt lat="43.0219868" lon="12.5079717"><ele>195.75</ele><time>2026-03-28T17:08:41.327Z</time></trkpt><trkpt lat="43.0220874" lon="12.507901"><ele>195.0</ele><time>2026-03-28T17:08:42.328Z</time></trkpt><trkpt lat="43.0221887" lon="12.5078236"><ele>194.4</ele><time>2026-03-28T17:08:43.328Z</time></trkpt><trkpt lat="43.0222832" lon="12.5077463"><ele>193.8</ele><time>2026-03-28T17:08:44.327Z</time></trkpt><trkpt lat="43.0223753" lon="12.5076568"><ele>193.2</ele><time>2026-03-28T17:08:45.327Z</time></trkpt><trkpt lat="43.0224589" lon="12.5075743"><ele>192.6</ele><time>2026-03-28T17:08:46.328Z</time></trkpt><trkpt lat="43.0225289" lon="12.5075014"><ele>192.0</ele><time>2026-03-28T17:08:47.328Z</time></trkpt><trkpt lat="43.0226114" lon="12.5074048"><ele>191.5</ele><time>2026-03-28T17:08:48.328Z</time></trkpt><trkpt lat="43.0226704" lon="12.5073175"><ele>191.0</ele><time>2026-03-28T17:08:49.328Z</time></trkpt><trkpt lat="43.0227292" lon="12.5072389"><ele>190.5</ele><time>2026-03-28T17:08:50.328Z</time></trkpt><trkpt lat="43.0227827" lon="12.5071551"><ele>190.0</ele><time>2026-03-28T17:08:51.327Z</time></trkpt><trkpt lat="43.0228308" lon="12.5070711"><ele>189.5</ele><time>2026-03-28T17:08:52.328Z</time></trkpt><trkpt lat="43.0228767" lon="12.5070017"><ele>189.0</ele><time>2026-03-28T17:08:53.328Z</time></trkpt><trkpt lat="43.0229163" lon="12.5069293"><ele>189.0</ele><time>2026-03-28T17:08:54.327Z</time></trkpt><trkpt lat="43.0229924" lon="12.5068325"><ele>189.0</ele><time>2026-03-28T17:08:56.328Z</time></trkpt><trkpt lat="43.023067" lon="12.5067755"><ele>189.0</ele><time>2026-03-28T17:08:58.328Z</time></trkpt><trkpt lat="43.0231886" lon="12.5068302"><ele>189.0</ele><time>2026-03-28T17:09:00.328Z</time></trkpt><trkpt lat="43.0232568" lon="12.5068642"><ele>189.0</ele><time>2026-03-28T17:09:01.328Z</time></trkpt><trkpt lat="43.0233564" lon="12.5069602"><ele>188.79999999999998</ele><time>2026-03-28T17:09:03.328Z</time></trkpt><trkpt lat="43.0234522" lon="12.5070588"><ele>188.6</ele><time>2026-03-28T17:09:05.328Z</time></trkpt><trkpt lat="43.0235374" lon="12.5071801"><ele>188.4</ele><time>2026-03-28T17:09:07.328Z</time></trkpt><trkpt lat="43.0235736" lon="12.507273"><ele>188.2</ele><time>2026-03-28T17:09:08.328Z</time></trkpt><trkpt lat="43.0236073" lon="12.5073638"><ele>188.0</ele><time>2026-03-28T17:09:09.327Z</time></trkpt><trkpt lat="43.0236389" lon="12.5074563"><ele>188.0</ele><time>2026-03-28T17:09:10.328Z</time></trkpt><trkpt lat="43.0236756" lon="12.50755"><ele>188.0</ele><time>2026-03-28T17:09:11.328Z</time></trkpt><trkpt lat="43.0237105" lon="12.5076416"><ele>188.0</ele><time>2026-03-28T17:09:12.328Z</time></trkpt><trkpt lat="43.0237598" lon="12.5077437"><ele>188.0</ele><time>2026-03-28T17:09:13.328Z</time></trkpt><trkpt lat="43.0237886" lon="12.5078419"><ele>188.0</ele><time>2026-03-28T17:09:14.328Z</time></trkpt><trkpt lat="43.0238289" lon="12.5079291"><ele>188.0</ele><time>2026-03-28T17:09:15.327Z</time></trkpt><trkpt lat="43.0238686" lon="12.5080177"><ele>187.66666666666666</ele><time>2026-03-28T17:09:16.327Z</time></trkpt><trkpt lat="43.0239041" lon="12.5081027"><ele>187.33333333333331</ele><time>2026-03-28T17:09:17.327Z</time></trkpt><trkpt lat="43.0239463" lon="12.5082076"><ele>187.0</ele><time>2026-03-28T17:09:18.328Z</time></trkpt><trkpt lat="43.023992" lon="12.5083067"><ele>186.66666666666666</ele><time>2026-03-28T17:09:19.328Z</time></trkpt><trkpt lat="43.0240406" lon="12.5084074"><ele>186.33333333333334</ele><time>2026-03-28T17:09:20.328Z</time></trkpt><trkpt lat="43.0240731" lon="12.5085135"><ele>186.0</ele><time>2026-03-28T17:09:21.328Z</time></trkpt><trkpt lat="43.0241182" lon="12.5086224"><ele>185.60000000000002</ele><time>2026-03-28T17:09:22.327Z</time></trkpt><trkpt lat="43.0241707" lon="12.5087377"><ele>185.2</ele><time>2026-03-28T17:09:23.328Z</time></trkpt><trkpt lat="43.0242193" lon="12.5088618"><ele>184.8</ele><time>2026-03-28T17:09:24.328Z</time></trkpt><trkpt lat="43.0242543" lon="12.5089819"><ele>184.39999999999998</ele><time>2026-03-28T17:09:25.328Z</time></trkpt><trkpt lat="43.0242964" lon="12.5090817"><ele>184.0</ele><time>2026-03-28T17:09:26.328Z</time></trkpt><trkpt lat="43.0243399" lon="12.5091611"><ele>184.0</ele><time>2026-03-28T17:09:27.328Z</time></trkpt><trkpt lat="43.0243864" lon="12.5092378"><ele>184.0</ele><time>2026-03-28T17:09:28.327Z</time></trkpt><trkpt lat="43.0244445" lon="12.509286"><ele>184.0</ele><time>2026-03-28T17:09:29.327Z</time></trkpt><trkpt lat="43.0245101" lon="12.5093369"><ele>184.0</ele><time>2026-03-28T17:09:30.328Z</time></trkpt><trkpt lat="43.0245715" lon="12.5093924"><ele>184.0</ele><time>2026-03-28T17:09:31.328Z</time></trkpt><trkpt lat="43.0246373" lon="12.5094455"><ele>184.0</ele><time>2026-03-28T17:09:32.327Z</time></trkpt><trkpt lat="43.024707" lon="12.509504"><ele>184.0</ele><time>2026-03-28T17:09:33.328Z</time></trkpt><trkpt lat="43.0247819" lon="12.5095732"><ele>183.79999999999998</ele><time>2026-03-28T17:09:34.328Z</time></trkpt><trkpt lat="43.0248561" lon="12.5096317"><ele>183.6</ele><time>2026-03-28T17:09:35.328Z</time></trkpt><trkpt lat="43.0249373" lon="12.5096927"><ele>183.4</ele><time>2026-03-28T17:09:36.328Z</time></trkpt><trkpt lat="43.0250223" lon="12.509758"><ele>183.2</ele><time>2026-03-28T17:09:37.328Z</time></trkpt><trkpt lat="43.0251067" lon="12.5098229"><ele>183.0</ele><time>2026-03-28T17:09:38.328Z</time></trkpt><trkpt lat="43.0251961" lon="12.5098893"><ele>182.60000000000002</ele><time>2026-03-28T17:09:39.328Z</time></trkpt><trkpt lat="43.0252905" lon="12.5099516"><ele>182.20000000000002</ele><time>2026-03-28T17:09:40.328Z</time></trkpt><trkpt lat="43.0253822" lon="12.5100098"><ele>181.8</ele><time>2026-03-28T17:09:41.328Z</time></trkpt><trkpt lat="43.0254696" lon="12.5100772"><ele>181.4</ele><time>2026-03-28T17:09:42.327Z</time></trkpt><trkpt lat="43.0255588" lon="12.5101571"><ele>181.0</ele><time>2026-03-28T17:09:43.327Z</time></trkpt><trkpt lat="43.0256515" lon="12.5102529"><ele>181.0</ele><time>2026-03-28T17:09:44.328Z</time></trkpt><trkpt lat="43.025743" lon="12.5103479"><ele>181.0</ele><time>2026-03-28T17:09:45.328Z</time></trkpt><trkpt lat="43.0258385" lon="12.5104463"><ele>181.0</ele><time>2026-03-28T17:09:46.328Z</time></trkpt><trkpt lat="43.0259301" lon="12.510552"><ele>181.0</ele><time>2026-03-28T17:09:47.328Z</time></trkpt><trkpt lat="43.0260212" lon="12.5106579"><ele>181.20000000000002</ele><time>2026-03-28T17:09:48.328Z</time></trkpt><trkpt lat="43.0261055" lon="12.5107553"><ele>181.4</ele><time>2026-03-28T17:09:49.328Z</time></trkpt><trkpt lat="43.0261872" lon="12.5108427"><ele>181.6</ele><time>2026-03-28T17:09:50.327Z</time></trkpt><trkpt lat="43.0262656" lon="12.5109345"><ele>181.8</ele><time>2026-03-28T17:09:51.328Z</time></trkpt><trkpt lat="43.0263434" lon="12.5110317"><ele>182.0</ele><time>2026-03-28T17:09:52.328Z</time></trkpt><trkpt lat="43.0264325" lon="12.5111167"><ele>182.0</ele><time>2026-03-28T17:09:53.328Z</time></trkpt><trkpt lat="43.026509" lon="12.5112116"><ele>182.0</ele><time>2026-03-28T17:09:54.328Z</time></trkpt><trkpt lat="43.0265847" lon="12.5112982"><ele>182.0</ele><time>2026-03-28T17:09:55.328Z</time></trkpt><trkpt lat="43.0266446" lon="12.5113786"><ele>182.0</ele><time>2026-03-28T17:09:56.328Z</time></trkpt><trkpt lat="43.0267044" lon="12.5114534"><ele>182.0</ele><time>2026-03-28T17:09:57.327Z</time></trkpt><trkpt lat="43.0267568" lon="12.5115264"><ele>182.0</ele><time>2026-03-28T17:09:58.328Z</time></trkpt><trkpt lat="43.0268212" lon="12.5115919"><ele>181.75</ele><time>2026-03-28T17:09:59.327Z</time></trkpt><trkpt lat="43.026896" lon="12.5116727"><ele>181.5</ele><time>2026-03-28T17:10:00.328Z</time></trkpt><trkpt lat="43.0269791" lon="12.5117713"><ele>181.25</ele><time>2026-03-28T17:10:01.328Z</time></trkpt><trkpt lat="43.0270716" lon="12.5118854"><ele>181.0</ele><time>2026-03-28T17:10:02.328Z</time></trkpt><trkpt lat="43.0271611" lon="12.512019"><ele>181.25</ele><time>2026-03-28T17:10:03.328Z</time></trkpt><trkpt lat="43.0272489" lon="12.5121685"><ele>181.5</ele><time>2026-03-28T17:10:04.328Z</time></trkpt><trkpt lat="43.027324" lon="12.5123283"><ele>181.75</ele><time>2026-03-28T17:10:05.328Z</time></trkpt><trkpt lat="43.0273764" lon="12.5125054"><ele>182.0</ele><time>2026-03-28T17:10:06.328Z</time></trkpt><trkpt lat="43.0274197" lon="12.5126976"><ele>182.0</ele><time>2026-03-28T17:10:07.328Z</time></trkpt><trkpt lat="43.0274499" lon="12.5129113"><ele>182.0</ele><time>2026-03-28T17:10:08.328Z</time></trkpt><trkpt lat="43.0274743" lon="12.5131372"><ele>182.0</ele><time>2026-03-28T17:10:09.328Z</time></trkpt><trkpt lat="43.0274897" lon="12.5133596"><ele>182.33333333333331</ele><time>2026-03-28T17:10:10.328Z</time></trkpt><trkpt lat="43.0275113" lon="12.5135831"><ele>182.66666666666666</ele><time>2026-03-28T17:10:11.328Z</time></trkpt><trkpt lat="43.027519" lon="12.513823"><ele>183.0</ele><time>2026-03-28T17:10:12.328Z</time></trkpt><trkpt lat="43.0275413" lon="12.5140695"><ele>183.0</ele><time>2026-03-28T17:10:13.328Z</time></trkpt><trkpt lat="43.0275724" lon="12.514322"><ele>183.0</ele><time>2026-03-28T17:10:14.328Z</time></trkpt><trkpt lat="43.027631" lon="12.5145814"><ele>183.0</ele><time>2026-03-28T17:10:15.328Z</time></trkpt><trkpt lat="43.0277001" lon="12.5148389"><ele>183.0</ele><time>2026-03-28T17:10:16.328Z</time></trkpt><trkpt lat="43.02778" lon="12.5151057"><ele>183.0</ele><time>2026-03-28T17:10:17.328Z</time></trkpt><trkpt lat="43.0278742" lon="12.5153724"><ele>183.0</ele><time>2026-03-28T17:10:18.327Z</time></trkpt><trkpt lat="43.0279795" lon="12.5156501"><ele>183.33333333333334</ele><time>2026-03-28T17:10:19.328Z</time></trkpt><trkpt lat="43.0280792" lon="12.5159111"><ele>183.66666666666669</ele><time>2026-03-28T17:10:20.327Z</time></trkpt><trkpt lat="43.0281783" lon="12.5161777"><ele>184.0</ele><time>2026-03-28T17:10:21.328Z</time></trkpt><trkpt lat="43.0282703" lon="12.5164379"><ele>184.0</ele><time>2026-03-28T17:10:22.328Z</time></trkpt><trkpt lat="43.0283635" lon="12.5167056"><ele>184.0</ele><time>2026-03-28T17:10:23.327Z</time></trkpt><trkpt lat="43.0284603" lon="12.5169688"><ele>184.0</ele><time>2026-03-28T17:10:24.328Z</time></trkpt><trkpt lat="43.0285466" lon="12.5172254"><ele>184.0</ele><time>2026-03-28T17:10:25.328Z</time></trkpt><trkpt lat="43.0286443" lon="12.5174839"><ele>184.0</ele><time>2026-03-28T17:10:26.328Z</time></trkpt><trkpt lat="43.0287417" lon="12.5177503"><ele>184.0</ele><time>2026-03-28T17:10:27.328Z</time></trkpt><trkpt lat="43.0288336" lon="12.5180011"><ele>184.0</ele><time>2026-03-28T17:10:28.328Z</time></trkpt><trkpt lat="43.0289268" lon="12.5182515"><ele>184.0</ele><time>2026-03-28T17:10:29.328Z</time></trkpt><trkpt lat="43.0290165" lon="12.5184997"><ele>184.0</ele><time>2026-03-28T17:10:30.328Z</time></trkpt><trkpt lat="43.02913" lon="12.5187356"><ele>183.33333333333334</ele><time>2026-03-28T17:10:31.328Z</time></trkpt><trkpt lat="43.0292615" lon="12.5189553"><ele>182.66666666666666</ele><time>2026-03-28T17:10:32.328Z</time></trkpt><trkpt lat="43.0294045" lon="12.519174"><ele>182.0</ele><time>2026-03-28T17:10:33.327Z</time></trkpt><trkpt lat="43.0295574" lon="12.5193682"><ele>182.0</ele><time>2026-03-28T17:10:34.327Z</time></trkpt><trkpt lat="43.0297267" lon="12.5195468"><ele>182.0</ele><time>2026-03-28T17:10:35.328Z</time></trkpt><trkpt lat="43.0299151" lon="12.519715"><ele>182.0</ele><time>2026-03-28T17:10:36.328Z</time></trkpt><trkpt lat="43.0301136" lon="12.5198857"><ele>183.0</ele><time>2026-03-28T17:10:37.327Z</time></trkpt><trkpt lat="43.0303046" lon="12.5200545"><ele>184.0</ele><time>2026-03-28T17:10:38.328Z</time></trkpt><trkpt lat="43.0304905" lon="12.5202315"><ele>184.5</ele><time>2026-03-28T17:10:39.328Z</time></trkpt><trkpt lat="43.0306702" lon="12.520417"><ele>185.0</ele><time>2026-03-28T17:10:40.327Z</time></trkpt><trkpt lat="43.0308594" lon="12.5206178"><ele>183.5</ele><time>2026-03-28T17:10:41.328Z</time></trkpt><trkpt lat="43.0310514" lon="12.5208182"><ele>182.0</ele><time>2026-03-28T17:10:42.328Z</time></trkpt><trkpt lat="43.0312351" lon="12.5210352"><ele>183.5</ele><time>2026-03-28T17:10:43.328Z</time></trkpt><trkpt lat="43.0314159" lon="12.5212534"><ele>185.0</ele><time>2026-03-28T17:10:44.328Z</time></trkpt><trkpt lat="43.0315952" lon="12.5214708"><ele>185.0</ele><time>2026-03-28T17:10:45.328Z</time></trkpt><trkpt lat="43.0317803" lon="12.5216851"><ele>185.0</ele><time>2026-03-28T17:10:46.328Z</time></trkpt><trkpt lat="43.031968" lon="12.5218881"><ele>184.0</ele><time>2026-03-28T17:10:47.328Z</time></trkpt><trkpt lat="43.0321647" lon="12.5220829"><ele>183.0</ele><time>2026-03-28T17:10:48.328Z</time></trkpt><trkpt lat="43.0323763" lon="12.5222573"><ele>183.0</ele><time>2026-03-28T17:10:49.328Z</time></trkpt><trkpt lat="43.0325934" lon="12.5224291"><ele>183.0</ele><time>2026-03-28T17:10:50.328Z</time></trkpt><trkpt lat="43.0328125" lon="12.522589"><ele>183.0</ele><time>2026-03-28T17:10:51.328Z</time></trkpt><trkpt lat="43.0330297" lon="12.5227424"><ele>183.0</ele><time>2026-03-28T17:10:52.328Z</time></trkpt><trkpt lat="43.0332529" lon="12.5229074"><ele>183.5</ele><time>2026-03-28T17:10:53.327Z</time></trkpt><trkpt lat="43.0334781" lon="12.523078"><ele>184.0</ele><time>2026-03-28T17:10:54.328Z</time></trkpt><trkpt lat="43.033703" lon="12.5232419"><ele>184.0</ele><time>2026-03-28T17:10:55.327Z</time></trkpt><trkpt lat="43.033929" lon="12.5234075"><ele>184.0</ele><time>2026-03-28T17:10:56.328Z</time></trkpt><trkpt lat="43.0341501" lon="12.5235771"><ele>186.0</ele><time>2026-03-28T17:10:57.328Z</time></trkpt><trkpt lat="43.0343664" lon="12.5237439"><ele>188.0</ele><time>2026-03-28T17:10:58.328Z</time></trkpt><trkpt lat="43.0345944" lon="12.5239194"><ele>188.0</ele><time>2026-03-28T17:10:59.328Z</time></trkpt><trkpt lat="43.0348201" lon="12.5240997"><ele>188.0</ele><time>2026-03-28T17:11:00.328Z</time></trkpt><trkpt lat="43.0350455" lon="12.5242786"><ele>187.0</ele><time>2026-03-28T17:11:01.327Z</time></trkpt><trkpt lat="43.0352799" lon="12.5244597"><ele>186.0</ele><time>2026-03-28T17:11:02.328Z</time></trkpt><trkpt lat="43.0355043" lon="12.5246322"><ele>186.0</ele><time>2026-03-28T17:11:03.327Z</time></trkpt><trkpt lat="43.0357275" lon="12.5248122"><ele>186.0</ele><time>2026-03-28T17:11:04.328Z</time></trkpt><trkpt lat="43.0359537" lon="12.5249957"><ele>185.0</ele><time>2026-03-28T17:11:05.328Z</time></trkpt><trkpt lat="43.03618" lon="12.5251804"><ele>184.0</ele><time>2026-03-28T17:11:06.327Z</time></trkpt><trkpt lat="43.0364093" lon="12.5253648"><ele>182.5</ele><time>2026-03-28T17:11:07.328Z</time></trkpt><trkpt lat="43.0366398" lon="12.525545"><ele>181.0</ele><time>2026-03-28T17:11:08.328Z</time></trkpt><trkpt lat="43.0368665" lon="12.5257277"><ele>181.0</ele><time>2026-03-28T17:11:09.327Z</time></trkpt><trkpt lat="43.0370965" lon="12.5259103"><ele>181.0</ele><time>2026-03-28T17:11:10.328Z</time></trkpt><trkpt lat="43.03731" lon="12.5260834"><ele>181.5</ele><time>2026-03-28T17:11:11.328Z</time></trkpt><trkpt lat="43.0375466" lon="12.52626"><ele>182.0</ele><time>2026-03-28T17:11:12.328Z</time></trkpt><trkpt lat="43.0377719" lon="12.526457"><ele>182.0</ele><time>2026-03-28T17:11:13.328Z</time></trkpt><trkpt lat="43.0380097" lon="12.5266339"><ele>182.0</ele><time>2026-03-28T17:11:14.328Z</time></trkpt><trkpt lat="43.0382279" lon="12.5268082"><ele>183.0</ele><time>2026-03-28T17:11:15.327Z</time></trkpt><trkpt lat="43.0384533" lon="12.5269836"><ele>184.0</ele><time>2026-03-28T17:11:16.327Z</time></trkpt><trkpt lat="43.0386791" lon="12.5271609"><ele>184.0</ele><time>2026-03-28T17:11:17.328Z</time></trkpt><trkpt lat="43.0389084" lon="12.5273394"><ele>184.0</ele><time>2026-03-28T17:11:18.328Z</time></trkpt><trkpt lat="43.0391369" lon="12.5275203"><ele>183.0</ele><time>2026-03-28T17:11:19.327Z</time></trkpt><trkpt lat="43.0393502" lon="12.527698"><ele>182.0</ele><time>2026-03-28T17:11:20.328Z</time></trkpt><trkpt lat="43.0395586" lon="12.5278801"><ele>182.0</ele><time>2026-03-28T17:11:21.328Z</time></trkpt><trkpt lat="43.0397644" lon="12.5280663"><ele>182.0</ele><time>2026-03-28T17:11:22.328Z</time></trkpt><trkpt lat="43.0399609" lon="12.5282572"><ele>182.66666666666666</ele><time>2026-03-28T17:11:23.328Z</time></trkpt><trkpt lat="43.0401364" lon="12.5284613"><ele>183.33333333333334</ele><time>2026-03-28T17:11:24.327Z</time></trkpt><trkpt lat="43.0402918" lon="12.528667"><ele>184.0</ele><time>2026-03-28T17:11:25.328Z</time></trkpt><trkpt lat="43.0404245" lon="12.5288815"><ele>184.0</ele><time>2026-03-28T17:11:26.327Z</time></trkpt><trkpt lat="43.0405495" lon="12.5290895"><ele>184.0</ele><time>2026-03-28T17:11:27.328Z</time></trkpt><trkpt lat="43.0406625" lon="12.5293034"><ele>184.0</ele><time>2026-03-28T17:11:28.328Z</time></trkpt><trkpt lat="43.040758" lon="12.5295241"><ele>185.33333333333334</ele><time>2026-03-28T17:11:29.328Z</time></trkpt><trkpt lat="43.0408388" lon="12.5297383"><ele>186.66666666666666</ele><time>2026-03-28T17:11:30.328Z</time></trkpt><trkpt lat="43.0408997" lon="12.5299333"><ele>188.0</ele><time>2026-03-28T17:11:31.328Z</time></trkpt><trkpt lat="43.0409661" lon="12.5301326"><ele>188.0</ele><time>2026-03-28T17:11:32.327Z</time></trkpt><trkpt lat="43.0410235" lon="12.5303098"><ele>188.0</ele><time>2026-03-28T17:11:33.328Z</time></trkpt><trkpt lat="43.0410886" lon="12.5304802"><ele>188.0</ele><time>2026-03-28T17:11:34.327Z</time></trkpt><trkpt lat="43.041153" lon="12.530657"><ele>188.0</ele><time>2026-03-28T17:11:35.328Z</time></trkpt><trkpt lat="43.0412085" lon="12.5308356"><ele>188.75</ele><time>2026-03-28T17:11:36.328Z</time></trkpt><trkpt lat="43.0412608" lon="12.5309991"><ele>189.5</ele><time>2026-03-28T17:11:37.328Z</time></trkpt><trkpt lat="43.0413186" lon="12.5311681"><ele>190.25</ele><time>2026-03-28T17:11:38.327Z</time></trkpt><trkpt lat="43.0413678" lon="12.5313261"><ele>191.0</ele><time>2026-03-28T17:11:39.328Z</time></trkpt><trkpt lat="43.0414168" lon="12.5314829"><ele>191.0</ele><time>2026-03-28T17:11:40.328Z</time></trkpt><trkpt lat="43.0414757" lon="12.5316327"><ele>191.0</ele><time>2026-03-28T17:11:41.327Z</time></trkpt><trkpt lat="43.0415336" lon="12.5317903"><ele>191.0</ele><time>2026-03-28T17:11:42.327Z</time></trkpt><trkpt lat="43.0415991" lon="12.531943"><ele>191.0</ele><time>2026-03-28T17:11:43.328Z</time></trkpt><trkpt lat="43.0416732" lon="12.5321059"><ele>191.0</ele><time>2026-03-28T17:11:44.327Z</time></trkpt><trkpt lat="43.0417383" lon="12.5322617"><ele>191.0</ele><time>2026-03-28T17:11:45.328Z</time></trkpt><trkpt lat="43.0418176" lon="12.5324276"><ele>191.0</ele><time>2026-03-28T17:11:46.328Z</time></trkpt><trkpt lat="43.0418905" lon="12.5325973"><ele>191.0</ele><time>2026-03-28T17:11:47.328Z</time></trkpt><trkpt lat="43.0419658" lon="12.532771"><ele>191.0</ele><time>2026-03-28T17:11:48.328Z</time></trkpt><trkpt lat="43.0420267" lon="12.5329409"><ele>191.0</ele><time>2026-03-28T17:11:49.328Z</time></trkpt><trkpt lat="43.0420722" lon="12.5330755"><ele>191.0</ele><time>2026-03-28T17:11:50.327Z</time></trkpt><trkpt lat="43.042118" lon="12.5331941"><ele>191.0</ele><time>2026-03-28T17:11:51.328Z</time></trkpt><trkpt lat="43.0421347" lon="12.5332794"><ele>191.0</ele><time>2026-03-28T17:11:52.328Z</time></trkpt><trkpt lat="43.0421618" lon="12.5333698"><ele>191.0</ele><time>2026-03-28T17:11:54.328Z</time></trkpt><trkpt lat="43.0422282" lon="12.5334172"><ele>191.0</ele><time>2026-03-28T17:12:12.327Z</time></trkpt><trkpt lat="43.0422784" lon="12.5333599"><ele>191.0</ele><time>2026-03-28T17:12:13.328Z</time></trkpt><trkpt lat="43.0423363" lon="12.5332915"><ele>191.0</ele><time>2026-03-28T17:12:14.328Z</time></trkpt><trkpt lat="43.0424058" lon="12.5332243"><ele>191.0</ele><time>2026-03-28T17:12:15.328Z</time></trkpt><trkpt lat="43.0424995" lon="12.5331695"><ele>191.0</ele><time>2026-03-28T17:12:16.328Z</time></trkpt><trkpt lat="43.042599" lon="12.5331404"><ele>191.20000000000002</ele><time>2026-03-28T17:12:17.327Z</time></trkpt><trkpt lat="43.0426911" lon="12.5330841"><ele>191.4</ele><time>2026-03-28T17:12:18.328Z</time></trkpt><trkpt lat="43.0427914" lon="12.5330335"><ele>191.6</ele><time>2026-03-28T17:12:19.328Z</time></trkpt><trkpt lat="43.0429031" lon="12.5329834"><ele>191.8</ele><time>2026-03-28T17:12:20.328Z</time></trkpt><trkpt lat="43.0430111" lon="12.5329197"><ele>192.0</ele><time>2026-03-28T17:12:21.328Z</time></trkpt><trkpt lat="43.0431192" lon="12.5328628"><ele>192.0</ele><time>2026-03-28T17:12:22.327Z</time></trkpt><trkpt lat="43.0432227" lon="12.5328017"><ele>192.0</ele><time>2026-03-28T17:12:23.328Z</time></trkpt><trkpt lat="43.0433246" lon="12.5327407"><ele>192.0</ele><time>2026-03-28T17:12:24.328Z</time></trkpt><trkpt lat="43.0434169" lon="12.5326684"><ele>192.0</ele><time>2026-03-28T17:12:25.327Z</time></trkpt><trkpt lat="43.0435144" lon="12.5325613"><ele>192.25</ele><time>2026-03-28T17:12:26.327Z</time></trkpt><trkpt lat="43.0436055" lon="12.5324434"><ele>192.5</ele><time>2026-03-28T17:12:27.328Z</time></trkpt><trkpt lat="43.0436962" lon="12.5323328"><ele>192.75</ele><time>2026-03-28T17:12:28.328Z</time></trkpt><trkpt lat="43.0437713" lon="12.5322147"><ele>193.0</ele><time>2026-03-28T17:12:29.328Z</time></trkpt><trkpt lat="43.0438416" lon="12.5320896"><ele>193.2</ele><time>2026-03-28T17:12:30.328Z</time></trkpt><trkpt lat="43.043909" lon="12.5319663"><ele>193.4</ele><time>2026-03-28T17:12:31.328Z</time></trkpt><trkpt lat="43.0439828" lon="12.5318493"><ele>193.6</ele><time>2026-03-28T17:12:32.328Z</time></trkpt><trkpt lat="43.0440535" lon="12.5317322"><ele>193.79999999999998</ele><time>2026-03-28T17:12:33.328Z</time></trkpt><trkpt lat="43.0441176" lon="12.5316167"><ele>194.0</ele><time>2026-03-28T17:12:34.328Z</time></trkpt><trkpt lat="43.0441816" lon="12.5314983"><ele>193.6</ele><time>2026-03-28T17:12:35.328Z</time></trkpt><trkpt lat="43.044251" lon="12.5313846"><ele>193.2</ele><time>2026-03-28T17:12:36.328Z</time></trkpt><trkpt lat="43.0443251" lon="12.5312698"><ele>192.79999999999998</ele><time>2026-03-28T17:12:37.328Z</time></trkpt><trkpt lat="43.0444022" lon="12.5311502"><ele>192.39999999999998</ele><time>2026-03-28T17:12:38.327Z</time></trkpt><trkpt lat="43.0444671" lon="12.5310448"><ele>192.0</ele><time>2026-03-28T17:12:39.328Z</time></trkpt><trkpt lat="43.0445373" lon="12.5309349"><ele>191.5</ele><time>2026-03-28T17:12:40.328Z</time></trkpt><trkpt lat="43.0446048" lon="12.5308145"><ele>191.0</ele><time>2026-03-28T17:12:41.327Z</time></trkpt><trkpt lat="43.0446759" lon="12.5306859"><ele>190.5</ele><time>2026-03-28T17:12:42.328Z</time></trkpt><trkpt lat="43.0447543" lon="12.5305498"><ele>190.0</ele><time>2026-03-28T17:12:43.328Z</time></trkpt><trkpt lat="43.0448422" lon="12.5304063"><ele>189.0</ele><time>2026-03-28T17:12:44.327Z</time></trkpt><trkpt lat="43.0449378" lon="12.5302578"><ele>188.0</ele><time>2026-03-28T17:12:45.327Z</time></trkpt><trkpt lat="43.0450246" lon="12.5301093"><ele>187.0</ele><time>2026-03-28T17:12:46.328Z</time></trkpt><trkpt lat="43.0451114" lon="12.5299612"><ele>186.0</ele><time>2026-03-28T17:12:47.327Z</time></trkpt><trkpt lat="43.0451939" lon="12.5298142"><ele>186.0</ele><time>2026-03-28T17:12:48.327Z</time></trkpt><trkpt lat="43.0452784" lon="12.5296636"><ele>186.0</ele><time>2026-03-28T17:12:49.328Z</time></trkpt><trkpt lat="43.0453598" lon="12.5295166"><ele>186.0</ele><time>2026-03-28T17:12:50.328Z</time></trkpt><trkpt lat="43.0454353" lon="12.5293694"><ele>186.0</ele><time>2026-03-28T17:12:51.328Z</time></trkpt><trkpt lat="43.0455012" lon="12.5292265"><ele>185.8</ele><time>2026-03-28T17:12:52.328Z</time></trkpt><trkpt lat="43.0455593" lon="12.5290826"><ele>185.60000000000002</ele><time>2026-03-28T17:12:53.328Z</time></trkpt><trkpt lat="43.0456168" lon="12.5289504"><ele>185.4</ele><time>2026-03-28T17:12:54.327Z</time></trkpt><trkpt lat="43.0456614" lon="12.5288231"><ele>185.2</ele><time>2026-03-28T17:12:55.327Z</time></trkpt><trkpt lat="43.0457109" lon="12.5286974"><ele>185.0</ele><time>2026-03-28T17:12:56.328Z</time></trkpt><trkpt lat="43.0457684" lon="12.5285668"><ele>185.5</ele><time>2026-03-28T17:12:57.328Z</time></trkpt><trkpt lat="43.0458267" lon="12.5284076"><ele>186.0</ele><time>2026-03-28T17:12:58.327Z</time></trkpt><trkpt lat="43.0458775" lon="12.5282507"><ele>186.5</ele><time>2026-03-28T17:12:59.327Z</time></trkpt><trkpt lat="43.0459351" lon="12.5280675"><ele>187.0</ele><time>2026-03-28T17:13:00.328Z</time></trkpt><trkpt lat="43.0459963" lon="12.5278718"><ele>187.0</ele><time>2026-03-28T17:13:01.328Z</time></trkpt><trkpt lat="43.0460637" lon="12.527657"><ele>187.0</ele><time>2026-03-28T17:13:02.328Z</time></trkpt><trkpt lat="43.0461176" lon="12.5274393"><ele>187.0</ele><time>2026-03-28T17:13:03.328Z</time></trkpt><trkpt lat="43.0461661" lon="12.5272125"><ele>186.33333333333334</ele><time>2026-03-28T17:13:04.327Z</time></trkpt><trkpt lat="43.0462215" lon="12.5269959"><ele>185.66666666666666</ele><time>2026-03-28T17:13:05.328Z</time></trkpt><trkpt lat="43.0462679" lon="12.5267734"><ele>185.0</ele><time>2026-03-28T17:13:06.328Z</time></trkpt><trkpt lat="43.0463204" lon="12.5265477"><ele>185.0</ele><time>2026-03-28T17:13:07.328Z</time></trkpt><trkpt lat="43.0463751" lon="12.5263277"><ele>185.0</ele><time>2026-03-28T17:13:08.328Z</time></trkpt><trkpt lat="43.0464247" lon="12.5261029"><ele>185.0</ele><time>2026-03-28T17:13:09.328Z</time></trkpt><trkpt lat="43.0464792" lon="12.5258858"><ele>184.66666666666666</ele><time>2026-03-28T17:13:10.328Z</time></trkpt><trkpt lat="43.0465293" lon="12.5256578"><ele>184.33333333333334</ele><time>2026-03-28T17:13:11.328Z</time></trkpt><trkpt lat="43.0465781" lon="12.5254281"><ele>184.0</ele><time>2026-03-28T17:13:12.328Z</time></trkpt><trkpt lat="43.046614" lon="12.525203"><ele>184.0</ele><time>2026-03-28T17:13:13.328Z</time></trkpt><trkpt lat="43.0466462" lon="12.524973"><ele>184.0</ele><time>2026-03-28T17:13:14.328Z</time></trkpt><trkpt lat="43.04666" lon="12.5247332"><ele>184.0</ele><time>2026-03-28T17:13:15.328Z</time></trkpt><trkpt lat="43.0466649" lon="12.5244949"><ele>184.0</ele><time>2026-03-28T17:13:16.327Z</time></trkpt><trkpt lat="43.0466666" lon="12.5242647"><ele>184.0</ele><time>2026-03-28T17:13:17.328Z</time></trkpt><trkpt lat="43.0466707" lon="12.5240429"><ele>184.0</ele><time>2026-03-28T17:13:18.327Z</time></trkpt><trkpt lat="43.0466634" lon="12.5238146"><ele>184.0</ele><time>2026-03-28T17:13:19.328Z</time></trkpt><trkpt lat="43.0466728" lon="12.5235872"><ele>184.0</ele><time>2026-03-28T17:13:20.327Z</time></trkpt><trkpt lat="43.0466829" lon="12.5233659"><ele>184.0</ele><time>2026-03-28T17:13:21.328Z</time></trkpt><trkpt lat="43.0466912" lon="12.5231384"><ele>184.0</ele><time>2026-03-28T17:13:22.328Z</time></trkpt><trkpt lat="43.0467037" lon="12.5229067"><ele>184.0</ele><time>2026-03-28T17:13:23.328Z</time></trkpt><trkpt lat="43.0467185" lon="12.5226927"><ele>184.0</ele><time>2026-03-28T17:13:24.328Z</time></trkpt><trkpt lat="43.0467452" lon="12.5224881"><ele>184.5</ele><time>2026-03-28T17:13:25.328Z</time></trkpt><trkpt lat="43.0467824" lon="12.5223043"><ele>185.0</ele><time>2026-03-28T17:13:26.328Z</time></trkpt><trkpt lat="43.0468305" lon="12.522126"><ele>185.5</ele><time>2026-03-28T17:13:27.328Z</time></trkpt><trkpt lat="43.0468887" lon="12.5219555"><ele>186.0</ele><time>2026-03-28T17:13:28.328Z</time></trkpt><trkpt lat="43.046947" lon="12.5217825"><ele>186.0</ele><time>2026-03-28T17:13:29.328Z</time></trkpt><trkpt lat="43.0469971" lon="12.5216205"><ele>186.0</ele><time>2026-03-28T17:13:30.328Z</time></trkpt><trkpt lat="43.0470495" lon="12.5214631"><ele>186.0</ele><time>2026-03-28T17:13:31.328Z</time></trkpt><trkpt lat="43.0470977" lon="12.5213192"><ele>186.0</ele><time>2026-03-28T17:13:32.328Z</time></trkpt><trkpt lat="43.0471491" lon="12.5212001"><ele>186.4</ele><time>2026-03-28T17:13:33.328Z</time></trkpt><trkpt lat="43.0471953" lon="12.5210742"><ele>186.8</ele><time>2026-03-28T17:13:34.328Z</time></trkpt><trkpt lat="43.0472429" lon="12.5209682"><ele>187.20000000000002</ele><time>2026-03-28T17:13:35.328Z</time></trkpt><trkpt lat="43.0472928" lon="12.5208541"><ele>187.60000000000002</ele><time>2026-03-28T17:13:36.328Z</time></trkpt><trkpt lat="43.0473515" lon="12.5207308"><ele>188.0</ele><time>2026-03-28T17:13:37.327Z</time></trkpt><trkpt lat="43.0474194" lon="12.5205941"><ele>187.75</ele><time>2026-03-28T17:13:38.327Z</time></trkpt><trkpt lat="43.0474817" lon="12.5204415"><ele>187.5</ele><time>2026-03-28T17:13:39.328Z</time></trkpt><trkpt lat="43.0475385" lon="12.5202912"><ele>187.25</ele><time>2026-03-28T17:13:40.328Z</time></trkpt><trkpt lat="43.0476" lon="12.520108"><ele>187.0</ele><time>2026-03-28T17:13:41.327Z</time></trkpt><trkpt lat="43.0476579" lon="12.5199253"><ele>187.0</ele><time>2026-03-28T17:13:42.328Z</time></trkpt><trkpt lat="43.0477215" lon="12.51972"><ele>187.0</ele><time>2026-03-28T17:13:43.328Z</time></trkpt><trkpt lat="43.0477814" lon="12.5194986"><ele>187.0</ele><time>2026-03-28T17:13:44.327Z</time></trkpt><trkpt lat="43.0478454" lon="12.5192827"><ele>187.0</ele><time>2026-03-28T17:13:45.328Z</time></trkpt><trkpt lat="43.0479054" lon="12.519063"><ele>187.0</ele><time>2026-03-28T17:13:46.328Z</time></trkpt><trkpt lat="43.0479723" lon="12.5188487"><ele>187.0</ele><time>2026-03-28T17:13:47.327Z</time></trkpt><trkpt lat="43.0480417" lon="12.5186374"><ele>187.66666666666669</ele><time>2026-03-28T17:13:48.327Z</time></trkpt><trkpt lat="43.0481068" lon="12.5184175"><ele>188.33333333333334</ele><time>2026-03-28T17:13:49.327Z</time></trkpt><trkpt lat="43.0481852" lon="12.5182019"><ele>189.0</ele><time>2026-03-28T17:13:50.328Z</time></trkpt><trkpt lat="43.0482569" lon="12.5179872"><ele>188.66666666666666</ele><time>2026-03-28T17:13:51.328Z</time></trkpt><trkpt lat="43.0483384" lon="12.5177854"><ele>188.33333333333331</ele><time>2026-03-28T17:13:52.328Z</time></trkpt><trkpt lat="43.0484351" lon="12.517588"><ele>188.0</ele><time>2026-03-28T17:13:53.328Z</time></trkpt><trkpt lat="43.0485492" lon="12.5174259"><ele>188.0</ele><time>2026-03-28T17:13:54.327Z</time></trkpt><trkpt lat="43.048667" lon="12.5172585"><ele>188.0</ele><time>2026-03-28T17:13:55.327Z</time></trkpt><trkpt lat="43.0487891" lon="12.5171102"><ele>188.0</ele><time>2026-03-28T17:13:56.327Z</time></trkpt><trkpt lat="43.0489144" lon="12.516992"><ele>187.75</ele><time>2026-03-28T17:13:57.327Z</time></trkpt><trkpt lat="43.0490385" lon="12.5169011"><ele>187.5</ele><time>2026-03-28T17:13:58.328Z</time></trkpt><trkpt lat="43.0491578" lon="12.5168173"><ele>187.25</ele><time>2026-03-28T17:13:59.328Z</time></trkpt><trkpt lat="43.0492638" lon="12.5167469"><ele>187.0</ele><time>2026-03-28T17:14:00.328Z</time></trkpt><trkpt lat="43.0493606" lon="12.5166606"><ele>187.0</ele><time>2026-03-28T17:14:01.328Z</time></trkpt><trkpt lat="43.049428" lon="12.5165448"><ele>187.0</ele><time>2026-03-28T17:14:02.328Z</time></trkpt><trkpt lat="43.0494845" lon="12.5164002"><ele>187.0</ele><time>2026-03-28T17:14:03.328Z</time></trkpt><trkpt lat="43.0495298" lon="12.5162229"><ele>187.0</ele><time>2026-03-28T17:14:04.327Z</time></trkpt><trkpt lat="43.0495705" lon="12.5160386"><ele>187.66666666666669</ele><time>2026-03-28T17:14:05.328Z</time></trkpt><trkpt lat="43.0496136" lon="12.5158431"><ele>188.33333333333334</ele><time>2026-03-28T17:14:06.327Z</time></trkpt><trkpt lat="43.0496517" lon="12.5156295"><ele>189.0</ele><time>2026-03-28T17:14:07.327Z</time></trkpt><trkpt lat="43.0496997" lon="12.5154122"><ele>189.33333333333334</ele><time>2026-03-28T17:14:08.328Z</time></trkpt><trkpt lat="43.0497399" lon="12.5151946"><ele>189.66666666666669</ele><time>2026-03-28T17:14:09.327Z</time></trkpt><trkpt lat="43.0497808" lon="12.5149885"><ele>190.0</ele><time>2026-03-28T17:14:10.328Z</time></trkpt><trkpt lat="43.0498199" lon="12.5147681"><ele>190.33333333333334</ele><time>2026-03-28T17:14:11.328Z</time></trkpt><trkpt lat="43.0498626" lon="12.5145356"><ele>190.66666666666666</ele><time>2026-03-28T17:14:12.328Z</time></trkpt><trkpt lat="43.0499087" lon="12.5143086"><ele>191.0</ele><time>2026-03-28T17:14:13.327Z</time></trkpt><trkpt lat="43.0499499" lon="12.5140726"><ele>191.0</ele><time>2026-03-28T17:14:14.327Z</time></trkpt><trkpt lat="43.0500033" lon="12.5138224"><ele>191.0</ele><time>2026-03-28T17:14:15.327Z</time></trkpt><trkpt lat="43.0500515" lon="12.5135657"><ele>191.0</ele><time>2026-03-28T17:14:16.327Z</time></trkpt><trkpt lat="43.0501047" lon="12.5133067"><ele>191.33333333333331</ele><time>2026-03-28T17:14:17.328Z</time></trkpt><trkpt lat="43.0501531" lon="12.5130484"><ele>191.66666666666666</ele><time>2026-03-28T17:14:18.328Z</time></trkpt><trkpt lat="43.0502089" lon="12.5127861"><ele>192.0</ele><time>2026-03-28T17:14:19.327Z</time></trkpt><trkpt lat="43.0502581" lon="12.5125121"><ele>191.33333333333334</ele><time>2026-03-28T17:14:20.328Z</time></trkpt><trkpt lat="43.050314" lon="12.5122292"><ele>190.66666666666669</ele><time>2026-03-28T17:14:21.328Z</time></trkpt><trkpt lat="43.0503585" lon="12.511943"><ele>190.0</ele><time>2026-03-28T17:14:22.328Z</time></trkpt><trkpt lat="43.0504005" lon="12.5116553"><ele>190.0</ele><time>2026-03-28T17:14:23.328Z</time></trkpt><trkpt lat="43.0504492" lon="12.5113623"><ele>190.0</ele><time>2026-03-28T17:14:24.328Z</time></trkpt><trkpt lat="43.0505027" lon="12.5110654"><ele>190.0</ele><time>2026-03-28T17:14:25.328Z</time></trkpt><trkpt lat="43.0505505" lon="12.5107788"><ele>190.0</ele><time>2026-03-28T17:14:26.328Z</time></trkpt><trkpt lat="43.0505992" lon="12.5104876"><ele>190.0</ele><time>2026-03-28T17:14:27.328Z</time></trkpt><trkpt lat="43.0506457" lon="12.5102144"><ele>190.0</ele><time>2026-03-28T17:14:28.328Z</time></trkpt><trkpt lat="43.0506839" lon="12.5099311"><ele>190.0</ele><time>2026-03-28T17:14:29.327Z</time></trkpt><trkpt lat="43.0507171" lon="12.5096488"><ele>190.0</ele><time>2026-03-28T17:14:30.328Z</time></trkpt><trkpt lat="43.0507371" lon="12.5093681"><ele>190.0</ele><time>2026-03-28T17:14:31.328Z</time></trkpt><trkpt lat="43.0507653" lon="12.5091047"><ele>190.66666666666669</ele><time>2026-03-28T17:14:32.328Z</time></trkpt><trkpt lat="43.0508134" lon="12.5088427"><ele>191.33333333333334</ele><time>2026-03-28T17:14:33.328Z</time></trkpt><trkpt lat="43.0508792" lon="12.5085837"><ele>192.0</ele><time>2026-03-28T17:14:34.328Z</time></trkpt><trkpt lat="43.0509552" lon="12.5083279"><ele>192.66666666666669</ele><time>2026-03-28T17:14:35.328Z</time></trkpt><trkpt lat="43.0510383" lon="12.5080733"><ele>193.33333333333334</ele><time>2026-03-28T17:14:36.327Z</time></trkpt><trkpt lat="43.051117" lon="12.5078259"><ele>194.0</ele><time>2026-03-28T17:14:37.327Z</time></trkpt><trkpt lat="43.0511816" lon="12.5075863"><ele>194.0</ele><time>2026-03-28T17:14:38.328Z</time></trkpt><trkpt lat="43.051249" lon="12.5073476"><ele>194.0</ele><time>2026-03-28T17:14:39.327Z</time></trkpt><trkpt lat="43.0513157" lon="12.5071286"><ele>194.0</ele><time>2026-03-28T17:14:40.328Z</time></trkpt><trkpt lat="43.0513853" lon="12.5069193"><ele>193.33333333333334</ele><time>2026-03-28T17:14:41.328Z</time></trkpt><trkpt lat="43.0514679" lon="12.5067204"><ele>192.66666666666669</ele><time>2026-03-28T17:14:42.327Z</time></trkpt><trkpt lat="43.0515776" lon="12.506556"><ele>192.0</ele><time>2026-03-28T17:14:43.328Z</time></trkpt><trkpt lat="43.0517005" lon="12.5064128"><ele>192.0</ele><time>2026-03-28T17:14:44.328Z</time></trkpt><trkpt lat="43.0518232" lon="12.5062906"><ele>192.0</ele><time>2026-03-28T17:14:45.328Z</time></trkpt><trkpt lat="43.0519173" lon="12.5061449"><ele>192.0</ele><time>2026-03-28T17:14:46.328Z</time></trkpt><trkpt lat="43.0520187" lon="12.5059977"><ele>192.0</ele><time>2026-03-28T17:14:47.328Z</time></trkpt><trkpt lat="43.0520849" lon="12.5057871"><ele>191.33333333333334</ele><time>2026-03-28T17:14:48.328Z</time></trkpt><trkpt lat="43.0521523" lon="12.5055942"><ele>190.66666666666669</ele><time>2026-03-28T17:14:49.328Z</time></trkpt><trkpt lat="43.0522164" lon="12.5053812"><ele>190.0</ele><time>2026-03-28T17:14:50.328Z</time></trkpt><trkpt lat="43.0522977" lon="12.5051645"><ele>190.0</ele><time>2026-03-28T17:14:51.328Z</time></trkpt><trkpt lat="43.052387" lon="12.5049393"><ele>190.0</ele><time>2026-03-28T17:14:52.328Z</time></trkpt><trkpt lat="43.0524836" lon="12.5047117"><ele>190.0</ele><time>2026-03-28T17:14:53.328Z</time></trkpt><trkpt lat="43.0525775" lon="12.5044821"><ele>190.0</ele><time>2026-03-28T17:14:54.328Z</time></trkpt><trkpt lat="43.0526854" lon="12.5042706"><ele>190.0</ele><time>2026-03-28T17:14:55.327Z</time></trkpt><trkpt lat="43.0527893" lon="12.5040619"><ele>190.0</ele><time>2026-03-28T17:14:56.328Z</time></trkpt><trkpt lat="43.0528858" lon="12.5038335"><ele>190.33333333333334</ele><time>2026-03-28T17:14:57.328Z</time></trkpt><trkpt lat="43.0529811" lon="12.5036081"><ele>190.66666666666666</ele><time>2026-03-28T17:14:58.328Z</time></trkpt><trkpt lat="43.0530525" lon="12.5033694"><ele>191.0</ele><time>2026-03-28T17:14:59.328Z</time></trkpt><trkpt lat="43.0531184" lon="12.5031271"><ele>190.66666666666666</ele><time>2026-03-28T17:15:00.328Z</time></trkpt><trkpt lat="43.0531593" lon="12.5028742"><ele>190.33333333333334</ele><time>2026-03-28T17:15:01.328Z</time></trkpt><trkpt lat="43.0531915" lon="12.502611"><ele>190.0</ele><time>2026-03-28T17:15:02.328Z</time></trkpt><trkpt lat="43.0532277" lon="12.502351"><ele>190.0</ele><time>2026-03-28T17:15:03.328Z</time></trkpt><trkpt lat="43.0532839" lon="12.5020847"><ele>190.0</ele><time>2026-03-28T17:15:04.328Z</time></trkpt><trkpt lat="43.0533487" lon="12.5018338"><ele>190.0</ele><time>2026-03-28T17:15:05.327Z</time></trkpt><trkpt lat="43.0534122" lon="12.5015932"><ele>190.0</ele><time>2026-03-28T17:15:06.327Z</time></trkpt><trkpt lat="43.0534706" lon="12.501357"><ele>190.0</ele><time>2026-03-28T17:15:07.328Z</time></trkpt><trkpt lat="43.0535147" lon="12.5011306"><ele>190.0</ele><time>2026-03-28T17:15:08.328Z</time></trkpt><trkpt lat="43.0535464" lon="12.5009211"><ele>190.0</ele><time>2026-03-28T17:15:09.327Z</time></trkpt><trkpt lat="43.0535718" lon="12.5007002"><ele>190.0</ele><time>2026-03-28T17:15:10.328Z</time></trkpt><trkpt lat="43.0535987" lon="12.5004916"><ele>190.0</ele><time>2026-03-28T17:15:11.328Z</time></trkpt><trkpt lat="43.0536244" lon="12.5002972"><ele>190.0</ele><time>2026-03-28T17:15:12.327Z</time></trkpt><trkpt lat="43.0536412" lon="12.5001079"><ele>190.0</ele><time>2026-03-28T17:15:13.328Z</time></trkpt><trkpt lat="43.0536582" lon="12.4999104"><ele>190.0</ele><time>2026-03-28T17:15:14.328Z</time></trkpt><trkpt lat="43.0536797" lon="12.4997209"><ele>190.0</ele><time>2026-03-28T17:15:15.328Z</time></trkpt><trkpt lat="43.0536942" lon="12.4995197"><ele>190.33333333333334</ele><time>2026-03-28T17:15:16.328Z</time></trkpt><trkpt lat="43.0537302" lon="12.4993203"><ele>190.66666666666666</ele><time>2026-03-28T17:15:17.327Z</time></trkpt><trkpt lat="43.0537883" lon="12.4991252"><ele>191.0</ele><time>2026-03-28T17:15:18.328Z</time></trkpt><trkpt lat="43.0538547" lon="12.4989386"><ele>191.0</ele><time>2026-03-28T17:15:19.328Z</time></trkpt><trkpt lat="43.0539325" lon="12.4987468"><ele>191.0</ele><time>2026-03-28T17:15:20.328Z</time></trkpt><trkpt lat="43.0540157" lon="12.4985503"><ele>191.0</ele><time>2026-03-28T17:15:21.328Z</time></trkpt><trkpt lat="43.0540983" lon="12.4983483"><ele>190.33333333333331</ele><time>2026-03-28T17:15:22.328Z</time></trkpt><trkpt lat="43.0541895" lon="12.4981374"><ele>189.66666666666666</ele><time>2026-03-28T17:15:23.327Z</time></trkpt><trkpt lat="43.0542812" lon="12.4979208"><ele>189.0</ele><time>2026-03-28T17:15:24.328Z</time></trkpt><trkpt lat="43.0543643" lon="12.4977072"><ele>188.66666666666666</ele><time>2026-03-28T17:15:25.328Z</time></trkpt><trkpt lat="43.0544457" lon="12.4974923"><ele>188.33333333333331</ele><time>2026-03-28T17:15:26.328Z</time></trkpt><trkpt lat="43.0545216" lon="12.4972809"><ele>188.0</ele><time>2026-03-28T17:15:27.328Z</time></trkpt><trkpt lat="43.0545912" lon="12.4970849"><ele>188.0</ele><time>2026-03-28T17:15:28.328Z</time></trkpt><trkpt lat="43.0546537" lon="12.4968915"><ele>188.0</ele><time>2026-03-28T17:15:29.328Z</time></trkpt><trkpt lat="43.0547143" lon="12.4967175"><ele>188.0</ele><time>2026-03-28T17:15:30.327Z</time></trkpt><trkpt lat="43.0547783" lon="12.496549"><ele>188.0</ele><time>2026-03-28T17:15:31.327Z</time></trkpt><trkpt lat="43.0548283" lon="12.4963935"><ele>188.0</ele><time>2026-03-28T17:15:32.328Z</time></trkpt><trkpt lat="43.0548747" lon="12.4962617"><ele>188.0</ele><time>2026-03-28T17:15:33.328Z</time></trkpt><trkpt lat="43.0549138" lon="12.4961527"><ele>188.0</ele><time>2026-03-28T17:15:34.328Z</time></trkpt><trkpt lat="43.0549593" lon="12.4960696"><ele>188.0</ele><time>2026-03-28T17:15:35.328Z</time></trkpt><trkpt lat="43.0550738" lon="12.495997"><ele>188.0</ele><time>2026-03-28T17:15:37.328Z</time></trkpt><trkpt lat="43.0551424" lon="12.4960202"><ele>188.75</ele><time>2026-03-28T17:15:38.328Z</time></trkpt><trkpt lat="43.0552185" lon="12.4960676"><ele>189.5</ele><time>2026-03-28T17:15:39.328Z</time></trkpt><trkpt lat="43.0553002" lon="12.496162"><ele>190.25</ele><time>2026-03-28T17:15:40.327Z</time></trkpt><trkpt lat="43.0553928" lon="12.4962731"><ele>191.0</ele><time>2026-03-28T17:15:41.328Z</time></trkpt><trkpt lat="43.0554969" lon="12.4964016"><ele>191.0</ele><time>2026-03-28T17:15:42.328Z</time></trkpt><trkpt lat="43.0556141" lon="12.4965387"><ele>191.0</ele><time>2026-03-28T17:15:43.328Z</time></trkpt><trkpt lat="43.0557302" lon="12.4966843"><ele>191.0</ele><time>2026-03-28T17:15:44.328Z</time></trkpt><trkpt lat="43.0558489" lon="12.4968254"><ele>191.0</ele><time>2026-03-28T17:15:45.328Z</time></trkpt><trkpt lat="43.0559717" lon="12.4969783"><ele>191.0</ele><time>2026-03-28T17:15:46.328Z</time></trkpt><trkpt lat="43.056108" lon="12.4971452"><ele>191.0</ele><time>2026-03-28T17:15:47.328Z</time></trkpt><trkpt lat="43.0562492" lon="12.4973067"><ele>190.66666666666666</ele><time>2026-03-28T17:15:48.328Z</time></trkpt><trkpt lat="43.0563895" lon="12.4974826"><ele>190.33333333333334</ele><time>2026-03-28T17:15:49.327Z</time></trkpt><trkpt lat="43.0565319" lon="12.4976476"><ele>190.0</ele><time>2026-03-28T17:15:50.328Z</time></trkpt><trkpt lat="43.0566793" lon="12.4978249"><ele>190.33333333333334</ele><time>2026-03-28T17:15:51.328Z</time></trkpt><trkpt lat="43.0568276" lon="12.498004"><ele>190.66666666666666</ele><time>2026-03-28T17:15:52.328Z</time></trkpt><trkpt lat="43.0569863" lon="12.4981803"><ele>191.0</ele><time>2026-03-28T17:15:53.328Z</time></trkpt><trkpt lat="43.0571401" lon="12.498364"><ele>191.0</ele><time>2026-03-28T17:15:54.328Z</time></trkpt><trkpt lat="43.0572881" lon="12.498549"><ele>191.0</ele><time>2026-03-28T17:15:55.328Z</time></trkpt><trkpt lat="43.0574428" lon="12.4987405"><ele>191.0</ele><time>2026-03-28T17:15:56.327Z</time></trkpt><trkpt lat="43.0575993" lon="12.4989365"><ele>191.0</ele><time>2026-03-28T17:15:57.327Z</time></trkpt><trkpt lat="43.0577684" lon="12.4991388"><ele>191.0</ele><time>2026-03-28T17:15:58.328Z</time></trkpt><trkpt lat="43.0579347" lon="12.4993337"><ele>191.0</ele><time>2026-03-28T17:15:59.327Z</time></trkpt><trkpt lat="43.0580974" lon="12.4995326"><ele>191.33333333333331</ele><time>2026-03-28T17:16:00.328Z</time></trkpt><trkpt lat="43.05826" lon="12.4997302"><ele>191.66666666666666</ele><time>2026-03-28T17:16:01.328Z</time></trkpt><trkpt lat="43.058421" lon="12.4999313"><ele>192.0</ele><time>2026-03-28T17:16:02.328Z</time></trkpt><trkpt lat="43.0585888" lon="12.5001256"><ele>192.33333333333331</ele><time>2026-03-28T17:16:03.328Z</time></trkpt><trkpt lat="43.0587539" lon="12.5003299"><ele>192.66666666666666</ele><time>2026-03-28T17:16:04.328Z</time></trkpt><trkpt lat="43.0589207" lon="12.5005288"><ele>193.0</ele><time>2026-03-28T17:16:05.327Z</time></trkpt><trkpt lat="43.059088" lon="12.500732"><ele>193.0</ele><time>2026-03-28T17:16:06.328Z</time></trkpt><trkpt lat="43.0592555" lon="12.5009316"><ele>193.0</ele><time>2026-03-28T17:16:07.328Z</time></trkpt><trkpt lat="43.0594137" lon="12.5011308"><ele>193.0</ele><time>2026-03-28T17:16:08.328Z</time></trkpt><trkpt lat="43.0595693" lon="12.501321"><ele>193.0</ele><time>2026-03-28T17:16:09.327Z</time></trkpt><trkpt lat="43.0597352" lon="12.5015197"><ele>193.0</ele><time>2026-03-28T17:16:10.328Z</time></trkpt><trkpt lat="43.0598942" lon="12.5017185"><ele>193.0</ele><time>2026-03-28T17:16:11.328Z</time></trkpt><trkpt lat="43.0600629" lon="12.5019228"><ele>194.33333333333331</ele><time>2026-03-28T17:16:12.328Z</time></trkpt><trkpt lat="43.0602301" lon="12.5021203"><ele>195.66666666666669</ele><time>2026-03-28T17:16:13.328Z</time></trkpt><trkpt lat="43.0603984" lon="12.5023215"><ele>197.0</ele><time>2026-03-28T17:16:14.328Z</time></trkpt><trkpt lat="43.060558" lon="12.5025209"><ele>197.0</ele><time>2026-03-28T17:16:15.328Z</time></trkpt><trkpt lat="43.0607244" lon="12.502713"><ele>197.0</ele><time>2026-03-28T17:16:16.328Z</time></trkpt><trkpt lat="43.0608797" lon="12.5029027"><ele>197.0</ele><time>2026-03-28T17:16:17.328Z</time></trkpt><trkpt lat="43.0610401" lon="12.5030863"><ele>196.33333333333334</ele><time>2026-03-28T17:16:18.328Z</time></trkpt><trkpt lat="43.0611924" lon="12.5032723"><ele>195.66666666666669</ele><time>2026-03-28T17:16:19.328Z</time></trkpt><trkpt lat="43.0613459" lon="12.5034586"><ele>195.0</ele><time>2026-03-28T17:16:20.328Z</time></trkpt><trkpt lat="43.0615003" lon="12.5036454"><ele>194.66666666666669</ele><time>2026-03-28T17:16:21.327Z</time></trkpt><trkpt lat="43.0616522" lon="12.5038202"><ele>194.33333333333334</ele><time>2026-03-28T17:16:22.327Z</time></trkpt><trkpt lat="43.0617988" lon="12.503996"><ele>194.0</ele><time>2026-03-28T17:16:23.328Z</time></trkpt><trkpt lat="43.0619454" lon="12.5041757"><ele>194.0</ele><time>2026-03-28T17:16:24.328Z</time></trkpt><trkpt lat="43.0620876" lon="12.5043521"><ele>194.0</ele><time>2026-03-28T17:16:25.328Z</time></trkpt><trkpt lat="43.0622304" lon="12.5045326"><ele>194.0</ele><time>2026-03-28T17:16:26.328Z</time></trkpt><trkpt lat="43.0623731" lon="12.5047075"><ele>194.0</ele><time>2026-03-28T17:16:27.327Z</time></trkpt><trkpt lat="43.0625147" lon="12.5048837"><ele>194.0</ele><time>2026-03-28T17:16:28.328Z</time></trkpt><trkpt lat="43.0626554" lon="12.5050516"><ele>194.0</ele><time>2026-03-28T17:16:29.328Z</time></trkpt><trkpt lat="43.0627926" lon="12.5052245"><ele>194.0</ele><time>2026-03-28T17:16:30.328Z</time></trkpt><trkpt lat="43.0629328" lon="12.5053914"><ele>194.0</ele><time>2026-03-28T17:16:31.327Z</time></trkpt><trkpt lat="43.0630701" lon="12.5055555"><ele>194.0</ele><time>2026-03-28T17:16:32.328Z</time></trkpt><trkpt lat="43.0632089" lon="12.5057147"><ele>193.66666666666669</ele><time>2026-03-28T17:16:33.328Z</time></trkpt><trkpt lat="43.0633422" lon="12.5058744"><ele>193.33333333333331</ele><time>2026-03-28T17:16:34.328Z</time></trkpt><trkpt lat="43.0634771" lon="12.506041"><ele>193.0</ele><time>2026-03-28T17:16:35.328Z</time></trkpt><trkpt lat="43.063605" lon="12.5062023"><ele>193.0</ele><time>2026-03-28T17:16:36.328Z</time></trkpt><trkpt lat="43.0637343" lon="12.5063568"><ele>193.0</ele><time>2026-03-28T17:16:37.328Z</time></trkpt><trkpt lat="43.0638588" lon="12.5065001"><ele>193.0</ele><time>2026-03-28T17:16:38.328Z</time></trkpt><trkpt lat="43.0639716" lon="12.5066403"><ele>193.0</ele><time>2026-03-28T17:16:39.327Z</time></trkpt><trkpt lat="43.0640857" lon="12.5067666"><ele>193.0</ele><time>2026-03-28T17:16:40.327Z</time></trkpt><trkpt lat="43.0641852" lon="12.5068919"><ele>193.0</ele><time>2026-03-28T17:16:41.327Z</time></trkpt><trkpt lat="43.0642886" lon="12.5070102"><ele>193.0</ele><time>2026-03-28T17:16:42.328Z</time></trkpt><trkpt lat="43.0643841" lon="12.5071249"><ele>193.0</ele><time>2026-03-28T17:16:43.328Z</time></trkpt><trkpt lat="43.0644792" lon="12.5072451"><ele>193.0</ele><time>2026-03-28T17:16:44.328Z</time></trkpt><trkpt lat="43.0645713" lon="12.5073558"><ele>193.0</ele><time>2026-03-28T17:16:45.328Z</time></trkpt><trkpt lat="43.0646497" lon="12.5074652"><ele>193.0</ele><time>2026-03-28T17:16:46.328Z</time></trkpt><trkpt lat="43.0647182" lon="12.507583"><ele>193.0</ele><time>2026-03-28T17:16:47.327Z</time></trkpt><trkpt lat="43.064775" lon="12.5077094"><ele>193.0</ele><time>2026-03-28T17:16:48.328Z</time></trkpt><trkpt lat="43.0648325" lon="12.5078503"><ele>193.0</ele><time>2026-03-28T17:16:49.327Z</time></trkpt><trkpt lat="43.0648754" lon="12.5080155"><ele>193.0</ele><time>2026-03-28T17:16:50.328Z</time></trkpt><trkpt lat="43.0649118" lon="12.5081998"><ele>193.0</ele><time>2026-03-28T17:16:51.328Z</time></trkpt><trkpt lat="43.0649366" lon="12.5084034"><ele>193.0</ele><time>2026-03-28T17:16:52.328Z</time></trkpt><trkpt lat="43.0649475" lon="12.5086252"><ele>193.0</ele><time>2026-03-28T17:16:53.328Z</time></trkpt><trkpt lat="43.0649548" lon="12.5088463"><ele>193.0</ele><time>2026-03-28T17:16:54.328Z</time></trkpt><trkpt lat="43.0649569" lon="12.5090724"><ele>193.0</ele><time>2026-03-28T17:16:55.328Z</time></trkpt><trkpt lat="43.0649687" lon="12.5093033"><ele>193.0</ele><time>2026-03-28T17:16:56.328Z</time></trkpt><trkpt lat="43.0649789" lon="12.5095273"><ele>193.5</ele><time>2026-03-28T17:16:57.327Z</time></trkpt><trkpt lat="43.0649836" lon="12.5097435"><ele>194.0</ele><time>2026-03-28T17:16:58.328Z</time></trkpt><trkpt lat="43.0649841" lon="12.5099446"><ele>194.5</ele><time>2026-03-28T17:16:59.328Z</time></trkpt><trkpt lat="43.0649755" lon="12.5101287"><ele>195.0</ele><time>2026-03-28T17:17:00.328Z</time></trkpt><trkpt lat="43.0649537" lon="12.5102967"><ele>195.0</ele><time>2026-03-28T17:17:01.328Z</time></trkpt><trkpt lat="43.0649284" lon="12.5104423"><ele>195.0</ele><time>2026-03-28T17:17:02.328Z</time></trkpt><trkpt lat="43.0649094" lon="12.5105534"><ele>195.0</ele><time>2026-03-28T17:17:03.328Z</time></trkpt><trkpt lat="43.0648729" lon="12.5106784"><ele>195.0</ele><time>2026-03-28T17:17:05.328Z</time></trkpt><trkpt lat="43.0649309" lon="12.5107842"><ele>195.0</ele><time>2026-03-28T17:17:08.328Z</time></trkpt><trkpt lat="43.0650657" lon="12.510834"><ele>195.0</ele><time>2026-03-28T17:17:10.327Z</time></trkpt><trkpt lat="43.0651557" lon="12.5108701"><ele>195.0</ele><time>2026-03-28T17:17:11.327Z</time></trkpt><trkpt lat="43.0652528" lon="12.5109153"><ele>195.0</ele><time>2026-03-28T17:17:12.328Z</time></trkpt><trkpt lat="43.0653608" lon="12.5109669"><ele>195.0</ele><time>2026-03-28T17:17:13.328Z</time></trkpt><trkpt lat="43.0654598" lon="12.5110045"><ele>195.0</ele><time>2026-03-28T17:17:14.328Z</time></trkpt><trkpt lat="43.0655791" lon="12.5110499"><ele>195.0</ele><time>2026-03-28T17:17:15.327Z</time></trkpt><trkpt lat="43.0657116" lon="12.511107"><ele>195.0</ele><time>2026-03-28T17:17:16.328Z</time></trkpt><trkpt lat="43.0658591" lon="12.5111641"><ele>195.0</ele><time>2026-03-28T17:17:17.328Z</time></trkpt><trkpt lat="43.0659945" lon="12.5112276"><ele>195.0</ele><time>2026-03-28T17:17:18.328Z</time></trkpt><trkpt lat="43.0661498" lon="12.5112867"><ele>194.33333333333331</ele><time>2026-03-28T17:17:19.328Z</time></trkpt><trkpt lat="43.0662989" lon="12.5113434"><ele>193.66666666666666</ele><time>2026-03-28T17:17:20.327Z</time></trkpt><trkpt lat="43.0664464" lon="12.5114016"><ele>193.0</ele><time>2026-03-28T17:17:21.327Z</time></trkpt><trkpt lat="43.0665875" lon="12.5114633"><ele>193.5</ele><time>2026-03-28T17:17:22.328Z</time></trkpt><trkpt lat="43.0667212" lon="12.5115235"><ele>194.0</ele><time>2026-03-28T17:17:23.328Z</time></trkpt><trkpt lat="43.0668511" lon="12.5115757"><ele>194.5</ele><time>2026-03-28T17:17:24.328Z</time></trkpt><trkpt lat="43.0669717" lon="12.5116212"><ele>195.0</ele><time>2026-03-28T17:17:25.328Z</time></trkpt><trkpt lat="43.0670768" lon="12.5116745"><ele>195.0</ele><time>2026-03-28T17:17:26.328Z</time></trkpt><trkpt lat="43.067174" lon="12.5117268"><ele>195.0</ele><time>2026-03-28T17:17:27.328Z</time></trkpt><trkpt lat="43.0672764" lon="12.5117695"><ele>195.0</ele><time>2026-03-28T17:17:28.328Z</time></trkpt><trkpt lat="43.0673804" lon="12.5118143"><ele>195.0</ele><time>2026-03-28T17:17:29.328Z</time></trkpt><trkpt lat="43.067478" lon="12.5118633"><ele>195.0</ele><time>2026-03-28T17:17:30.328Z</time></trkpt><trkpt lat="43.0675844" lon="12.5119082"><ele>195.25</ele><time>2026-03-28T17:17:31.327Z</time></trkpt><trkpt lat="43.0677041" lon="12.5119518"><ele>195.5</ele><time>2026-03-28T17:17:32.328Z</time></trkpt><trkpt lat="43.067844" lon="12.5119943"><ele>195.75</ele><time>2026-03-28T17:17:33.328Z</time></trkpt><trkpt lat="43.0679974" lon="12.5120389"><ele>196.0</ele><time>2026-03-28T17:17:34.327Z</time></trkpt><trkpt lat="43.0681647" lon="12.512093"><ele>195.33333333333331</ele><time>2026-03-28T17:17:35.328Z</time></trkpt><trkpt lat="43.0683405" lon="12.5121545"><ele>194.66666666666669</ele><time>2026-03-28T17:17:36.327Z</time></trkpt><trkpt lat="43.0685117" lon="12.5122196"><ele>194.0</ele><time>2026-03-28T17:17:37.328Z</time></trkpt><trkpt lat="43.0686844" lon="12.5123042"><ele>194.0</ele><time>2026-03-28T17:17:38.327Z</time></trkpt><trkpt lat="43.068857" lon="12.5123802"><ele>194.0</ele><time>2026-03-28T17:17:39.327Z</time></trkpt><trkpt lat="43.0690246" lon="12.5124584"><ele>194.0</ele><time>2026-03-28T17:17:40.328Z</time></trkpt><trkpt lat="43.0691883" lon="12.5125306"><ele>194.33333333333334</ele><time>2026-03-28T17:17:41.328Z</time></trkpt><trkpt lat="43.0693455" lon="12.512599"><ele>194.66666666666669</ele><time>2026-03-28T17:17:42.327Z</time></trkpt><trkpt lat="43.0694882" lon="12.5126594"><ele>195.0</ele><time>2026-03-28T17:17:43.328Z</time></trkpt><trkpt lat="43.0696265" lon="12.5127126"><ele>195.0</ele><time>2026-03-28T17:17:44.328Z</time></trkpt><trkpt lat="43.0697578" lon="12.5127601"><ele>195.0</ele><time>2026-03-28T17:17:45.328Z</time></trkpt><trkpt lat="43.0698796" lon="12.5128006"><ele>195.0</ele><time>2026-03-28T17:17:46.328Z</time></trkpt><trkpt lat="43.0699796" lon="12.5128363"><ele>195.0</ele><time>2026-03-28T17:17:47.328Z</time></trkpt><trkpt lat="43.0700673" lon="12.5128732"><ele>195.0</ele><time>2026-03-28T17:17:48.328Z</time></trkpt><trkpt lat="43.0701485" lon="12.5129053"><ele>195.0</ele><time>2026-03-28T17:17:49.328Z</time></trkpt><trkpt lat="43.0702344" lon="12.5129167"><ele>195.0</ele><time>2026-03-28T17:17:51.328Z</time></trkpt><trkpt lat="43.0702928" lon="12.5128509"><ele>195.0</ele><time>2026-03-28T17:17:54.328Z</time></trkpt><trkpt lat="43.0702792" lon="12.5127019"><ele>195.0</ele><time>2026-03-28T17:17:56.328Z</time></trkpt><trkpt lat="43.0702648" lon="12.5125836"><ele>195.0</ele><time>2026-03-28T17:17:57.327Z</time></trkpt><trkpt lat="43.0702526" lon="12.5124629"><ele>195.0</ele><time>2026-03-28T17:17:58.328Z</time></trkpt><trkpt lat="43.0702518" lon="12.5123676"><ele>195.0</ele><time>2026-03-28T17:17:59.328Z</time></trkpt><trkpt lat="43.070246" lon="12.5122731"><ele>195.0</ele><time>2026-03-28T17:18:00.328Z</time></trkpt><trkpt lat="43.0702912" lon="12.512132"><ele>195.0</ele><time>2026-03-28T17:18:02.328Z</time></trkpt><trkpt lat="43.0704224" lon="12.512078"><ele>195.0</ele><time>2026-03-28T17:18:04.328Z</time></trkpt><trkpt lat="43.0704995" lon="12.5120766"><ele>195.0</ele><time>2026-03-28T17:18:05.328Z</time></trkpt><trkpt lat="43.0705818" lon="12.5121006"><ele>195.0</ele><time>2026-03-28T17:18:06.328Z</time></trkpt><trkpt lat="43.0706711" lon="12.5121335"><ele>195.0</ele><time>2026-03-28T17:18:07.328Z</time></trkpt><trkpt lat="43.0707646" lon="12.5121644"><ele>195.0</ele><time>2026-03-28T17:18:08.328Z</time></trkpt><trkpt lat="43.0708689" lon="12.5122001"><ele>195.0</ele><time>2026-03-28T17:18:09.327Z</time></trkpt><trkpt lat="43.0709671" lon="12.512236"><ele>195.2</ele><time>2026-03-28T17:18:10.328Z</time></trkpt><trkpt lat="43.0710633" lon="12.5122722"><ele>195.4</ele><time>2026-03-28T17:18:11.328Z</time></trkpt><trkpt lat="43.0711591" lon="12.5123091"><ele>195.60000000000002</ele><time>2026-03-28T17:18:12.328Z</time></trkpt><trkpt lat="43.0712749" lon="12.5123516"><ele>195.8</ele><time>2026-03-28T17:18:13.328Z</time></trkpt><trkpt lat="43.0713771" lon="12.5124105"><ele>196.0</ele><time>2026-03-28T17:18:14.328Z</time></trkpt><trkpt lat="43.0714848" lon="12.5124627"><ele>195.5</ele><time>2026-03-28T17:18:15.328Z</time></trkpt><trkpt lat="43.0716134" lon="12.5125108"><ele>195.0</ele><time>2026-03-28T17:18:16.328Z</time></trkpt><trkpt lat="43.0717519" lon="12.5125544"><ele>194.5</ele><time>2026-03-28T17:18:17.327Z</time></trkpt><trkpt lat="43.071907" lon="12.5125956"><ele>194.0</ele><time>2026-03-28T17:18:18.328Z</time></trkpt><trkpt lat="43.0720482" lon="12.5126423"><ele>194.0</ele><time>2026-03-28T17:18:19.328Z</time></trkpt><trkpt lat="43.0721898" lon="12.5126911"><ele>194.0</ele><time>2026-03-28T17:18:20.328Z</time></trkpt><trkpt lat="43.0723333" lon="12.5127351"><ele>194.0</ele><time>2026-03-28T17:18:21.328Z</time></trkpt><trkpt lat="43.0724657" lon="12.5127847"><ele>194.0</ele><time>2026-03-28T17:18:22.328Z</time></trkpt><trkpt lat="43.072622" lon="12.5128352"><ele>193.66666666666669</ele><time>2026-03-28T17:18:23.327Z</time></trkpt><trkpt lat="43.072769" lon="12.512895"><ele>193.33333333333331</ele><time>2026-03-28T17:18:24.328Z</time></trkpt><trkpt lat="43.0729208" lon="12.5129543"><ele>193.0</ele><time>2026-03-28T17:18:25.327Z</time></trkpt><trkpt lat="43.07307" lon="12.5130056"><ele>193.33333333333331</ele><time>2026-03-28T17:18:26.328Z</time></trkpt><trkpt lat="43.0732307" lon="12.51305"><ele>193.66666666666669</ele><time>2026-03-28T17:18:27.327Z</time></trkpt><trkpt lat="43.0733935" lon="12.5130934"><ele>194.0</ele><time>2026-03-28T17:18:28.327Z</time></trkpt><trkpt lat="43.0735569" lon="12.5131296"><ele>194.0</ele><time>2026-03-28T17:18:29.327Z</time></trkpt><trkpt lat="43.0736998" lon="12.5131723"><ele>194.0</ele><time>2026-03-28T17:18:30.328Z</time></trkpt><trkpt lat="43.0738564" lon="12.5132302"><ele>194.0</ele><time>2026-03-28T17:18:31.327Z</time></trkpt><trkpt lat="43.0740233" lon="12.5132994"><ele>194.0</ele><time>2026-03-28T17:18:32.328Z</time></trkpt><trkpt lat="43.0742019" lon="12.5133624"><ele>194.0</ele><time>2026-03-28T17:18:33.327Z</time></trkpt><trkpt lat="43.074384" lon="12.5134296"><ele>194.0</ele><time>2026-03-28T17:18:34.328Z</time></trkpt><trkpt lat="43.0745581" lon="12.5135"><ele>194.0</ele><time>2026-03-28T17:18:35.328Z</time></trkpt><trkpt lat="43.0747518" lon="12.5135724"><ele>194.0</ele><time>2026-03-28T17:18:36.328Z</time></trkpt><trkpt lat="43.0749362" lon="12.5136424"><ele>194.0</ele><time>2026-03-28T17:18:37.327Z</time></trkpt><trkpt lat="43.0751319" lon="12.5137061"><ele>194.66666666666669</ele><time>2026-03-28T17:18:38.327Z</time></trkpt><trkpt lat="43.0753247" lon="12.5137695"><ele>195.33333333333331</ele><time>2026-03-28T17:18:39.328Z</time></trkpt><trkpt lat="43.075524" lon="12.5138273"><ele>196.0</ele><time>2026-03-28T17:18:40.327Z</time></trkpt><trkpt lat="43.0757098" lon="12.5138869"><ele>196.0</ele><time>2026-03-28T17:18:41.328Z</time></trkpt><trkpt lat="43.0758922" lon="12.5139497"><ele>196.0</ele><time>2026-03-28T17:18:42.328Z</time></trkpt><trkpt lat="43.076074" lon="12.5140058"><ele>196.0</ele><time>2026-03-28T17:18:43.328Z</time></trkpt><trkpt lat="43.0762566" lon="12.5140561"><ele>196.0</ele><time>2026-03-28T17:18:44.327Z</time></trkpt><trkpt lat="43.0764432" lon="12.5141006"><ele>196.0</ele><time>2026-03-28T17:18:45.328Z</time></trkpt><trkpt lat="43.0766407" lon="12.5141219"><ele>196.0</ele><time>2026-03-28T17:18:46.328Z</time></trkpt><trkpt lat="43.0768533" lon="12.5141567"><ele>196.33333333333331</ele><time>2026-03-28T17:18:47.327Z</time></trkpt><trkpt lat="43.0770611" lon="12.5141831"><ele>196.66666666666669</ele><time>2026-03-28T17:18:48.328Z</time></trkpt><trkpt lat="43.0772661" lon="12.5142071"><ele>197.0</ele><time>2026-03-28T17:18:49.328Z</time></trkpt><trkpt lat="43.0774621" lon="12.5142247"><ele>197.33333333333334</ele><time>2026-03-28T17:18:50.327Z</time></trkpt><trkpt lat="43.0776396" lon="12.5142325"><ele>197.66666666666669</ele><time>2026-03-28T17:18:51.328Z</time></trkpt><trkpt lat="43.0777962" lon="12.5142375"><ele>198.0</ele><time>2026-03-28T17:18:52.328Z</time></trkpt><trkpt lat="43.0779362" lon="12.5142403"><ele>198.0</ele><time>2026-03-28T17:18:53.327Z</time></trkpt><trkpt lat="43.0780571" lon="12.5142452"><ele>198.0</ele><time>2026-03-28T17:18:54.327Z</time></trkpt><trkpt lat="43.0781549" lon="12.5142771"><ele>198.0</ele><time>2026-03-28T17:18:55.328Z</time></trkpt><trkpt lat="43.07824" lon="12.5143358"><ele>198.0</ele><time>2026-03-28T17:18:56.327Z</time></trkpt><trkpt lat="43.0783232" lon="12.5144208"><ele>198.0</ele><time>2026-03-28T17:18:57.328Z</time></trkpt><trkpt lat="43.0783904" lon="12.5145182"><ele>198.0</ele><time>2026-03-28T17:18:58.328Z</time></trkpt><trkpt lat="43.0784697" lon="12.5145984"><ele>198.0</ele><time>2026-03-28T17:18:59.328Z</time></trkpt><trkpt lat="43.078559" lon="12.5146537"><ele>198.0</ele><time>2026-03-28T17:19:00.328Z</time></trkpt><trkpt lat="43.0786601" lon="12.5146702"><ele>198.0</ele><time>2026-03-28T17:19:01.328Z</time></trkpt><trkpt lat="43.0787578" lon="12.5146524"><ele>198.0</ele><time>2026-03-28T17:19:02.327Z</time></trkpt><trkpt lat="43.0788403" lon="12.5145639"><ele>198.0</ele><time>2026-03-28T17:19:03.327Z</time></trkpt><trkpt lat="43.0789018" lon="12.5144544"><ele>198.0</ele><time>2026-03-28T17:19:04.328Z</time></trkpt><trkpt lat="43.0789328" lon="12.5143224"><ele>198.0</ele><time>2026-03-28T17:19:05.327Z</time></trkpt><trkpt lat="43.0789267" lon="12.514176"><ele>198.0</ele><time>2026-03-28T17:19:06.327Z</time></trkpt><trkpt lat="43.0788768" lon="12.5140214"><ele>198.0</ele><time>2026-03-28T17:19:07.328Z</time></trkpt><trkpt lat="43.07881" lon="12.5138668"><ele>197.75</ele><time>2026-03-28T17:19:08.327Z</time></trkpt><trkpt lat="43.0787487" lon="12.5137157"><ele>197.5</ele><time>2026-03-28T17:19:09.327Z</time></trkpt><trkpt lat="43.0787028" lon="12.5135526"><ele>197.25</ele><time>2026-03-28T17:19:10.328Z</time></trkpt><trkpt lat="43.0786983" lon="12.5133637"><ele>197.0</ele><time>2026-03-28T17:19:11.328Z</time></trkpt><trkpt lat="43.0786898" lon="12.5131677"><ele>197.0</ele><time>2026-03-28T17:19:12.328Z</time></trkpt><trkpt lat="43.0786941" lon="12.5129508"><ele>197.0</ele><time>2026-03-28T17:19:13.328Z</time></trkpt><trkpt lat="43.0786859" lon="12.5127109"><ele>197.0</ele><time>2026-03-28T17:19:14.328Z</time></trkpt><trkpt lat="43.0786955" lon="12.5124647"><ele>197.0</ele><time>2026-03-28T17:19:15.328Z</time></trkpt><trkpt lat="43.078718" lon="12.5122125"><ele>197.0</ele><time>2026-03-28T17:19:16.328Z</time></trkpt><trkpt lat="43.0787358" lon="12.5119608"><ele>197.0</ele><time>2026-03-28T17:19:17.328Z</time></trkpt><trkpt lat="43.0787476" lon="12.5117166"><ele>197.0</ele><time>2026-03-28T17:19:18.328Z</time></trkpt><trkpt lat="43.0787569" lon="12.5114943"><ele>197.0</ele><time>2026-03-28T17:19:19.328Z</time></trkpt><trkpt lat="43.0787645" lon="12.5112881"><ele>197.0</ele><time>2026-03-28T17:19:20.328Z</time></trkpt><trkpt lat="43.0787773" lon="12.511091"><ele>196.75</ele><time>2026-03-28T17:19:21.328Z</time></trkpt><trkpt lat="43.0787947" lon="12.5109117"><ele>196.5</ele><time>2026-03-28T17:19:22.328Z</time></trkpt><trkpt lat="43.0788049" lon="12.5107612"><ele>196.25</ele><time>2026-03-28T17:19:23.327Z</time></trkpt><trkpt lat="43.0788128" lon="12.5106014"><ele>196.0</ele><time>2026-03-28T17:19:24.328Z</time></trkpt><trkpt lat="43.0788111" lon="12.5104578"><ele>196.0</ele><time>2026-03-28T17:19:25.327Z</time></trkpt><trkpt lat="43.0788043" lon="12.5103215"><ele>196.0</ele><time>2026-03-28T17:19:26.328Z</time></trkpt><trkpt lat="43.0787904" lon="12.5101982"><ele>196.0</ele><time>2026-03-28T17:19:27.328Z</time></trkpt><trkpt lat="43.0787602" lon="12.5100845"><ele>196.0</ele><time>2026-03-28T17:19:28.327Z</time></trkpt><trkpt lat="43.0787397" lon="12.509996"><ele>196.0</ele><time>2026-03-28T17:19:29.327Z</time></trkpt><trkpt lat="43.0786803" lon="12.5098528"><ele>196.0</ele><time>2026-03-28T17:19:31.327Z</time></trkpt><trkpt lat="43.0787089" lon="12.5097251"><ele>196.0</ele><time>2026-03-28T17:19:33.328Z</time></trkpt><trkpt lat="43.0787361" lon="12.5095722"><ele>196.0</ele><time>2026-03-28T17:19:35.328Z</time></trkpt><trkpt lat="43.0787395" lon="12.5093996"><ele>196.0</ele><time>2026-03-28T17:19:37.327Z</time></trkpt><trkpt lat="43.0787679" lon="12.5093054"><ele>196.0</ele><time>2026-03-28T17:19:38.327Z</time></trkpt><trkpt lat="43.0788039" lon="12.5092006"><ele>196.0</ele><time>2026-03-28T17:19:39.328Z</time></trkpt><trkpt lat="43.0788389" lon="12.5090862"><ele>196.0</ele><time>2026-03-28T17:19:40.328Z</time></trkpt><trkpt lat="43.0788799" lon="12.5089744"><ele>196.0</ele><time>2026-03-28T17:19:41.328Z</time></trkpt><trkpt lat="43.0789047" lon="12.5088459"><ele>196.0</ele><time>2026-03-28T17:19:42.328Z</time></trkpt><trkpt lat="43.0789324" lon="12.5087123"><ele>196.0</ele><time>2026-03-28T17:19:43.328Z</time></trkpt><trkpt lat="43.0789541" lon="12.508562"><ele>196.5</ele><time>2026-03-28T17:19:44.328Z</time></trkpt><trkpt lat="43.0789629" lon="12.5083991"><ele>197.0</ele><time>2026-03-28T17:19:45.328Z</time></trkpt><trkpt lat="43.0789744" lon="12.5082471"><ele>197.5</ele><time>2026-03-28T17:19:46.328Z</time></trkpt><trkpt lat="43.078972" lon="12.5080895"><ele>198.0</ele><time>2026-03-28T17:19:47.327Z</time></trkpt><trkpt lat="43.0789837" lon="12.5079341"><ele>197.75</ele><time>2026-03-28T17:19:48.328Z</time></trkpt><trkpt lat="43.0789928" lon="12.5077775"><ele>197.5</ele><time>2026-03-28T17:19:49.328Z</time></trkpt><trkpt lat="43.0790093" lon="12.5076166"><ele>197.25</ele><time>2026-03-28T17:19:50.328Z</time></trkpt><trkpt lat="43.0790197" lon="12.5074452"><ele>197.0</ele><time>2026-03-28T17:19:51.327Z</time></trkpt><trkpt lat="43.079028" lon="12.5072691"><ele>197.0</ele><time>2026-03-28T17:19:52.328Z</time></trkpt><trkpt lat="43.0790377" lon="12.507091"><ele>197.0</ele><time>2026-03-28T17:19:53.328Z</time></trkpt><trkpt lat="43.0790467" lon="12.5069061"><ele>197.0</ele><time>2026-03-28T17:19:54.328Z</time></trkpt><trkpt lat="43.0790572" lon="12.5067148"><ele>197.0</ele><time>2026-03-28T17:19:55.328Z</time></trkpt><trkpt lat="43.0790742" lon="12.5065176"><ele>197.0</ele><time>2026-03-28T17:19:56.327Z</time></trkpt><trkpt lat="43.0790815" lon="12.5063186"><ele>197.0</ele><time>2026-03-28T17:19:57.328Z</time></trkpt><trkpt lat="43.0790909" lon="12.5061282"><ele>197.0</ele><time>2026-03-28T17:19:58.328Z</time></trkpt><trkpt lat="43.0790952" lon="12.5059326"><ele>197.0</ele><time>2026-03-28T17:19:59.328Z</time></trkpt><trkpt lat="43.0790986" lon="12.5057467"><ele>197.0</ele><time>2026-03-28T17:20:00.328Z</time></trkpt><trkpt lat="43.0791013" lon="12.5055634"><ele>197.0</ele><time>2026-03-28T17:20:01.328Z</time></trkpt><trkpt lat="43.079103" lon="12.5053845"><ele>197.0</ele><time>2026-03-28T17:20:02.327Z</time></trkpt><trkpt lat="43.0791116" lon="12.5052013"><ele>197.0</ele><time>2026-03-28T17:20:03.328Z</time></trkpt><trkpt lat="43.0791142" lon="12.505033"><ele>197.5</ele><time>2026-03-28T17:20:04.328Z</time></trkpt><trkpt lat="43.0791105" lon="12.5048641"><ele>198.0</ele><time>2026-03-28T17:20:05.327Z</time></trkpt><trkpt lat="43.0790974" lon="12.5046998"><ele>198.5</ele><time>2026-03-28T17:20:06.328Z</time></trkpt><trkpt lat="43.0790732" lon="12.5045386"><ele>199.0</ele><time>2026-03-28T17:20:07.328Z</time></trkpt><trkpt lat="43.0790417" lon="12.5043894"><ele>199.25</ele><time>2026-03-28T17:20:08.327Z</time></trkpt><trkpt lat="43.0790143" lon="12.5042461"><ele>199.5</ele><time>2026-03-28T17:20:09.327Z</time></trkpt><trkpt lat="43.0789732" lon="12.5040983"><ele>199.75</ele><time>2026-03-28T17:20:10.328Z</time></trkpt><trkpt lat="43.0789336" lon="12.5039466"><ele>200.0</ele><time>2026-03-28T17:20:11.328Z</time></trkpt><trkpt lat="43.0789011" lon="12.5037989"><ele>199.75</ele><time>2026-03-28T17:20:12.328Z</time></trkpt><trkpt lat="43.0788704" lon="12.5036369"><ele>199.5</ele><time>2026-03-28T17:20:13.328Z</time></trkpt><trkpt lat="43.0788566" lon="12.5034719"><ele>199.25</ele><time>2026-03-28T17:20:14.328Z</time></trkpt><trkpt lat="43.0788521" lon="12.5033079"><ele>199.0</ele><time>2026-03-28T17:20:15.328Z</time></trkpt><trkpt lat="43.0788615" lon="12.5031343"><ele>199.0</ele><time>2026-03-28T17:20:16.328Z</time></trkpt><trkpt lat="43.0789158" lon="12.5029748"><ele>199.0</ele><time>2026-03-28T17:20:17.328Z</time></trkpt><trkpt lat="43.0789663" lon="12.5028166"><ele>199.0</ele><time>2026-03-28T17:20:18.328Z</time></trkpt><trkpt lat="43.07904" lon="12.5026622"><ele>199.0</ele><time>2026-03-28T17:20:19.327Z</time></trkpt><trkpt lat="43.0791206" lon="12.5025118"><ele>199.0</ele><time>2026-03-28T17:20:20.327Z</time></trkpt><trkpt lat="43.0791998" lon="12.5023701"><ele>199.0</ele><time>2026-03-28T17:20:21.328Z</time></trkpt><trkpt lat="43.0792868" lon="12.5022257"><ele>199.0</ele><time>2026-03-28T17:20:22.327Z</time></trkpt><trkpt lat="43.0793851" lon="12.5020845"><ele>199.0</ele><time>2026-03-28T17:20:23.328Z</time></trkpt><trkpt lat="43.079477" lon="12.5019408"><ele>198.5</ele><time>2026-03-28T17:20:24.328Z</time></trkpt><trkpt lat="43.0795697" lon="12.5017877"><ele>198.0</ele><time>2026-03-28T17:20:25.328Z</time></trkpt><trkpt lat="43.0796463" lon="12.5016392"><ele>197.5</ele><time>2026-03-28T17:20:26.328Z</time></trkpt><trkpt lat="43.0797167" lon="12.5015006"><ele>197.0</ele><time>2026-03-28T17:20:27.328Z</time></trkpt><trkpt lat="43.0797766" lon="12.5013674"><ele>197.2</ele><time>2026-03-28T17:20:28.328Z</time></trkpt><trkpt lat="43.0798192" lon="12.5012286"><ele>197.39999999999998</ele><time>2026-03-28T17:20:29.328Z</time></trkpt><trkpt lat="43.0798562" lon="12.5010844"><ele>197.60000000000002</ele><time>2026-03-28T17:20:30.327Z</time></trkpt><trkpt lat="43.0798876" lon="12.5009619"><ele>197.8</ele><time>2026-03-28T17:20:31.328Z</time></trkpt><trkpt lat="43.0799112" lon="12.5008715"><ele>198.0</ele><time>2026-03-28T17:20:32.327Z</time></trkpt><trkpt lat="43.0799827" lon="12.5007612"><ele>199.0</ele><time>2026-03-28T17:20:34.328Z</time></trkpt><trkpt lat="43.0800444" lon="12.5007281"><ele>199.0</ele><time>2026-03-28T17:20:36.328Z</time></trkpt><trkpt lat="43.0801095" lon="12.5006552"><ele>199.0</ele><time>2026-03-28T17:20:39.328Z</time></trkpt><trkpt lat="43.0800579" lon="12.5005795"><ele>199.0</ele><time>2026-03-28T17:20:42.327Z</time></trkpt></trkseg></trk></gpx>